<?xml version="1.0" encoding="UTF-8" standalone="no" ?>
  <gpx version="1.0" creator="Loctome.com">
  <metadata>
  <link href="https://play.google.com/store/apps/details?id=com.loctome.app.loctome">
      <text>Loctome Live Track GPS</text>
  </link>
  <desc>File created by Loctome Android Client No Limits Edition</desc>
  <time>2016-06-21T12:49:38Z</time>
  </metadata>
  <trk>
    <name>2016-06-21T12:49:38Z</name>
    <trkseg>
      <trkpt lat="39.21443569" lon="-6.12348596"><ele>993</ele><speed>0.25</speed><time>2016-06-21T12:49:40Z</time><pdop>6.0</pdop><geoidheight>53.00</geoidheight><course>166.2</course><type>1</type></trkpt>
      <trkpt lat="39.21448772" lon="-6.12340484"><ele>1015</ele><speed>0.00</speed><time>2016-06-21T12:50:35Z</time><pdop>3.0</pdop><geoidheight>53.00</geoidheight><course>0.0</course><type>1</type></trkpt>
      <trkpt lat="39.21443274" lon="-6.12323207"><ele>1010</ele><speed>1.00</speed><time>2016-06-21T12:51:01Z</time><pdop>13.0</pdop><geoidheight>53.00</geoidheight><course>97.2</course><type>1</type></trkpt>
      <trkpt lat="39.21438946" lon="-6.12309461"><ele>998</ele><speed>0.00</speed><time>2016-06-21T12:52:01Z</time><pdop>10.0</pdop><geoidheight>53.00</geoidheight><course>0.0</course><type>1</type></trkpt>
      <trkpt lat="39.21439019" lon="-6.12309607"><ele>998</ele><speed>0.00</speed><time>2016-06-21T12:53:01Z</time><pdop>9.0</pdop><geoidheight>53.00</geoidheight><course>0.0</course><type>1</type></trkpt>
      <trkpt lat="39.21439022" lon="-6.12309609"><ele>998</ele><speed>0.00</speed><time>2016-06-21T12:54:01Z</time><pdop>14.0</pdop><geoidheight>53.00</geoidheight><course>0.0</course><type>1</type></trkpt>
      <trkpt lat="39.21430933" lon="-6.12270733"><ele>996</ele><speed>7.50</speed><time>2016-06-21T12:54:04Z</time><pdop>14.0</pdop><geoidheight>53.00</geoidheight><course>116.0</course><type>1</type></trkpt>
      <trkpt lat="39.21416213" lon="-6.12236595"><ele>1000</ele><speed>8.50</speed><time>2016-06-21T12:54:07Z</time><pdop>14.0</pdop><geoidheight>53.00</geoidheight><course>130.4</course><type>1</type></trkpt>
      <trkpt lat="39.2139409" lon="-6.12199074"><ele>1000</ele><speed>8.50</speed><time>2016-06-21T12:54:11Z</time><pdop>13.0</pdop><geoidheight>53.00</geoidheight><course>135.8</course><type>1</type></trkpt>
      <trkpt lat="39.21372746" lon="-6.1217063"><ele>998</ele><speed>10.25</speed><time>2016-06-21T12:54:14Z</time><pdop>12.0</pdop><geoidheight>53.00</geoidheight><course>138.8</course><type>1</type></trkpt>
      <trkpt lat="39.21354825" lon="-6.12140922"><ele>996</ele><speed>10.00</speed><time>2016-06-21T12:54:17Z</time><pdop>13.0</pdop><geoidheight>53.00</geoidheight><course>132.5</course><type>1</type></trkpt>
      <trkpt lat="39.21337332" lon="-6.12120446"><ele>995</ele><speed>8.75</speed><time>2016-06-21T12:54:20Z</time><pdop>12.0</pdop><geoidheight>53.00</geoidheight><course>139.1</course><type>1</type></trkpt>
      <trkpt lat="39.21311807" lon="-6.12116532"><ele>994</ele><speed>5.75</speed><time>2016-06-21T12:54:25Z</time><pdop>12.0</pdop><geoidheight>53.00</geoidheight><course>186.1</course><type>1</type></trkpt>
      <trkpt lat="39.21324527" lon="-6.120909"><ele>982</ele><speed>8.00</speed><time>2016-06-21T12:54:33Z</time><pdop>10.0</pdop><geoidheight>53.00</geoidheight><course>18.2</course><type>1</type></trkpt>
      <trkpt lat="39.21351601" lon="-6.12090575"><ele>977</ele><speed>9.00</speed><time>2016-06-21T12:54:36Z</time><pdop>12.0</pdop><geoidheight>53.00</geoidheight><course>10.0</course><type>1</type></trkpt>
      <trkpt lat="39.21370071" lon="-6.12112108"><ele>978</ele><speed>10.00</speed><time>2016-06-21T12:54:38Z</time><pdop>10.0</pdop><geoidheight>53.00</geoidheight><course>343.0</course><type>1</type></trkpt>
      <trkpt lat="39.21392936" lon="-6.12122651"><ele>980</ele><speed>8.50</speed><time>2016-06-21T12:54:41Z</time><pdop>10.0</pdop><geoidheight>53.00</geoidheight><course>340.2</course><type>1</type></trkpt>
      <trkpt lat="39.21412543" lon="-6.12131601"><ele>980</ele><speed>6.75</speed><time>2016-06-21T12:54:44Z</time><pdop>9.0</pdop><geoidheight>53.00</geoidheight><course>355.0</course><type>1</type></trkpt>
      <trkpt lat="39.21430016" lon="-6.12119589"><ele>978</ele><speed>7.75</speed><time>2016-06-21T12:54:47Z</time><pdop>11.0</pdop><geoidheight>53.00</geoidheight><course>33.9</course><type>1</type></trkpt>
      <trkpt lat="39.2142326" lon="-6.12098005"><ele>978</ele><speed>8.25</speed><time>2016-06-21T12:54:49Z</time><pdop>9.0</pdop><geoidheight>53.00</geoidheight><course>105.6</course><type>1</type></trkpt>
      <trkpt lat="39.21406656" lon="-6.1208596"><ele>977</ele><speed>6.50</speed><time>2016-06-21T12:54:52Z</time><pdop>10.0</pdop><geoidheight>53.00</geoidheight><course>164.8</course><type>1</type></trkpt>
      <trkpt lat="39.21386718" lon="-6.12096183"><ele>980</ele><speed>5.75</speed><time>2016-06-21T12:54:57Z</time><pdop>10.0</pdop><geoidheight>53.00</geoidheight><course>188.6</course><type>1</type></trkpt>
      <trkpt lat="39.2136827" lon="-6.12083445"><ele>978</ele><speed>7.00</speed><time>2016-06-21T12:55:00Z</time><pdop>9.0</pdop><geoidheight>53.00</geoidheight><course>145.2</course><type>1</type></trkpt>
      <trkpt lat="39.21351517" lon="-6.12071306"><ele>974</ele><speed>7.75</speed><time>2016-06-21T12:55:03Z</time><pdop>10.0</pdop><geoidheight>53.00</geoidheight><course>149.3</course><type>1</type></trkpt>
      <trkpt lat="39.21339712" lon="-6.12046453"><ele>974</ele><speed>5.75</speed><time>2016-06-21T12:55:07Z</time><pdop>11.0</pdop><geoidheight>53.00</geoidheight><course>108.8</course><type>1</type></trkpt>
      <trkpt lat="39.21335148" lon="-6.12016271"><ele>973</ele><speed>8.50</speed><time>2016-06-21T12:55:10Z</time><pdop>10.0</pdop><geoidheight>53.00</geoidheight><course>104.7</course><type>1</type></trkpt>
      <trkpt lat="39.21334891" lon="-6.11988565"><ele>970</ele><speed>7.75</speed><time>2016-06-21T12:55:13Z</time><pdop>10.0</pdop><geoidheight>53.00</geoidheight><course>90.6</course><type>1</type></trkpt>
      <trkpt lat="39.21332036" lon="-6.11963525"><ele>965</ele><speed>7.75</speed><time>2016-06-21T12:55:16Z</time><pdop>10.0</pdop><geoidheight>53.00</geoidheight><course>104.4</course><type>1</type></trkpt>
      <trkpt lat="39.21314308" lon="-6.11944198"><ele>960</ele><speed>7.25</speed><time>2016-06-21T12:55:20Z</time><pdop>10.0</pdop><geoidheight>53.00</geoidheight><course>146.8</course><type>1</type></trkpt>
      <trkpt lat="39.21295355" lon="-6.11933791"><ele>957</ele><speed>7.00</speed><time>2016-06-21T12:55:23Z</time><pdop>10.0</pdop><geoidheight>53.00</geoidheight><course>166.2</course><type>1</type></trkpt>
      <trkpt lat="39.212756" lon="-6.11929487"><ele>955</ele><speed>7.75</speed><time>2016-06-21T12:55:26Z</time><pdop>11.0</pdop><geoidheight>53.00</geoidheight><course>174.7</course><type>1</type></trkpt>
      <trkpt lat="39.21250419" lon="-6.11935808"><ele>953</ele><speed>9.50</speed><time>2016-06-21T12:55:29Z</time><pdop>10.0</pdop><geoidheight>53.00</geoidheight><course>202.2</course><type>1</type></trkpt>
      <trkpt lat="39.21227864" lon="-6.11944932"><ele>951</ele><speed>8.75</speed><time>2016-06-21T12:55:32Z</time><pdop>11.0</pdop><geoidheight>53.00</geoidheight><course>192.7</course><type>1</type></trkpt>
      <trkpt lat="39.21205703" lon="-6.11951792"><ele>950</ele><speed>9.00</speed><time>2016-06-21T12:55:35Z</time><pdop>12.0</pdop><geoidheight>53.00</geoidheight><course>191.6</course><type>1</type></trkpt>
      <trkpt lat="39.21178682" lon="-6.11950688"><ele>947</ele><speed>9.50</speed><time>2016-06-21T12:55:38Z</time><pdop>11.0</pdop><geoidheight>53.00</geoidheight><course>180.9</course><type>1</type></trkpt>
      <trkpt lat="39.21152127" lon="-6.11950386"><ele>945</ele><speed>9.75</speed><time>2016-06-21T12:55:41Z</time><pdop>11.0</pdop><geoidheight>53.00</geoidheight><course>177.7</course><type>1</type></trkpt>
      <trkpt lat="39.21123904" lon="-6.11944737"><ele>943</ele><speed>9.75</speed><time>2016-06-21T12:55:44Z</time><pdop>11.0</pdop><geoidheight>53.00</geoidheight><course>174.4</course><type>1</type></trkpt>
      <trkpt lat="39.21095698" lon="-6.11938668"><ele>941</ele><speed>10.25</speed><time>2016-06-21T12:55:47Z</time><pdop>13.0</pdop><geoidheight>53.00</geoidheight><course>168.3</course><type>1</type></trkpt>
      <trkpt lat="39.21073381" lon="-6.11938451"><ele>941</ele><speed>8.00</speed><time>2016-06-21T12:55:50Z</time><pdop>11.0</pdop><geoidheight>53.00</geoidheight><course>177.0</course><type>1</type></trkpt>
      <trkpt lat="39.21052785" lon="-6.1196061"><ele>935</ele><speed>8.50</speed><time>2016-06-21T12:55:55Z</time><pdop>9.0</pdop><geoidheight>53.00</geoidheight><course>233.6</course><type>1</type></trkpt>
      <trkpt lat="39.21045964" lon="-6.1198777"><ele>934</ele><speed>8.25</speed><time>2016-06-21T12:55:58Z</time><pdop>11.0</pdop><geoidheight>53.00</geoidheight><course>252.8</course><type>1</type></trkpt>
      <trkpt lat="39.21030887" lon="-6.1200966"><ele>925</ele><speed>6.75</speed><time>2016-06-21T12:56:02Z</time><pdop>10.0</pdop><geoidheight>53.00</geoidheight><course>218.5</course><type>1</type></trkpt>
      <trkpt lat="39.21004759" lon="-6.12009597"><ele>922</ele><speed>7.50</speed><time>2016-06-21T12:56:06Z</time><pdop>11.0</pdop><geoidheight>53.00</geoidheight><course>178.3</course><type>1</type></trkpt>
      <trkpt lat="39.20983092" lon="-6.11992168"><ele>916</ele><speed>8.50</speed><time>2016-06-21T12:56:09Z</time><pdop>10.0</pdop><geoidheight>53.00</geoidheight><course>158.7</course><type>1</type></trkpt>
      <trkpt lat="39.20961323" lon="-6.11971414"><ele>911</ele><speed>9.00</speed><time>2016-06-21T12:56:12Z</time><pdop>11.0</pdop><geoidheight>53.00</geoidheight><course>146.4</course><type>1</type></trkpt>
      <trkpt lat="39.20943542" lon="-6.11958565"><ele>909</ele><speed>7.50</speed><time>2016-06-21T12:56:15Z</time><pdop>11.0</pdop><geoidheight>53.00</geoidheight><course>151.0</course><type>1</type></trkpt>
      <trkpt lat="39.20932305" lon="-6.11937373"><ele>908</ele><speed>9.50</speed><time>2016-06-21T12:56:17Z</time><pdop>10.0</pdop><geoidheight>53.00</geoidheight><course>130.4</course><type>1</type></trkpt>
      <trkpt lat="39.20916156" lon="-6.11925875"><ele>906</ele><speed>10.50</speed><time>2016-06-21T12:56:19Z</time><pdop>10.0</pdop><geoidheight>53.00</geoidheight><course>147.3</course><type>1</type></trkpt>
      <trkpt lat="39.20893592" lon="-6.11910683"><ele>899</ele><speed>9.75</speed><time>2016-06-21T12:56:22Z</time><pdop>10.0</pdop><geoidheight>53.00</geoidheight><course>154.0</course><type>1</type></trkpt>
      <trkpt lat="39.20875943" lon="-6.11900846"><ele>895</ele><speed>10.25</speed><time>2016-06-21T12:56:24Z</time><pdop>11.0</pdop><geoidheight>53.00</geoidheight><course>159.2</course><type>1</type></trkpt>
      <trkpt lat="39.20849186" lon="-6.11890239"><ele>893</ele><speed>10.50</speed><time>2016-06-21T12:56:27Z</time><pdop>11.0</pdop><geoidheight>53.00</geoidheight><course>161.5</course><type>1</type></trkpt>
      <trkpt lat="39.20827709" lon="-6.11889796"><ele>894</ele><speed>6.50</speed><time>2016-06-21T12:56:30Z</time><pdop>10.0</pdop><geoidheight>53.00</geoidheight><course>190.3</course><type>1</type></trkpt>
      <trkpt lat="39.20802944" lon="-6.11902799"><ele>892</ele><speed>8.50</speed><time>2016-06-21T12:56:34Z</time><pdop>11.0</pdop><geoidheight>53.00</geoidheight><course>199.4</course><type>1</type></trkpt>
      <trkpt lat="39.20779834" lon="-6.11897126"><ele>888</ele><speed>7.75</speed><time>2016-06-21T12:56:37Z</time><pdop>10.0</pdop><geoidheight>53.00</geoidheight><course>160.7</course><type>1</type></trkpt>
      <trkpt lat="39.20761534" lon="-6.11883211"><ele>886</ele><speed>6.00</speed><time>2016-06-21T12:56:41Z</time><pdop>9.0</pdop><geoidheight>53.00</geoidheight><course>142.2</course><type>1</type></trkpt>
      <trkpt lat="39.20761684" lon="-6.11856314"><ele>882</ele><speed>9.50</speed><time>2016-06-21T12:56:44Z</time><pdop>9.0</pdop><geoidheight>53.00</geoidheight><course>81.0</course><type>1</type></trkpt>
      <trkpt lat="39.20769437" lon="-6.11835288"><ele>881</ele><speed>9.50</speed><time>2016-06-21T12:56:46Z</time><pdop>10.0</pdop><geoidheight>53.00</geoidheight><course>66.9</course><type>1</type></trkpt>
      <trkpt lat="39.20776139" lon="-6.11809763"><ele>879</ele><speed>8.00</speed><time>2016-06-21T12:56:49Z</time><pdop>10.0</pdop><geoidheight>53.00</geoidheight><course>77.0</course><type>1</type></trkpt>
      <trkpt lat="39.20762933" lon="-6.11789989"><ele>876</ele><speed>5.75</speed><time>2016-06-21T12:56:53Z</time><pdop>10.0</pdop><geoidheight>53.00</geoidheight><course>145.2</course><type>1</type></trkpt>
      <trkpt lat="39.20745736" lon="-6.11799591"><ele>875</ele><speed>6.25</speed><time>2016-06-21T12:56:56Z</time><pdop>10.0</pdop><geoidheight>53.00</geoidheight><course>198.5</course><type>1</type></trkpt>
      <trkpt lat="39.20728272" lon="-6.11806632"><ele>874</ele><speed>7.25</speed><time>2016-06-21T12:56:59Z</time><pdop>10.0</pdop><geoidheight>53.00</geoidheight><course>195.0</course><type>1</type></trkpt>
      <trkpt lat="39.20708996" lon="-6.11812506"><ele>871</ele><speed>7.75</speed><time>2016-06-21T12:57:02Z</time><pdop>10.0</pdop><geoidheight>53.00</geoidheight><course>189.7</course><type>1</type></trkpt>
      <trkpt lat="39.20688948" lon="-6.11815885"><ele>871</ele><speed>7.00</speed><time>2016-06-21T12:57:05Z</time><pdop>11.0</pdop><geoidheight>53.00</geoidheight><course>184.5</course><type>1</type></trkpt>
      <trkpt lat="39.20663466" lon="-6.11817981"><ele>870</ele><speed>8.00</speed><time>2016-06-21T12:57:09Z</time><pdop>10.0</pdop><geoidheight>53.00</geoidheight><course>186.6</course><type>1</type></trkpt>
      <trkpt lat="39.20638362" lon="-6.11826424"><ele>869</ele><speed>9.75</speed><time>2016-06-21T12:57:12Z</time><pdop>10.0</pdop><geoidheight>53.00</geoidheight><course>199.1</course><type>1</type></trkpt>
      <trkpt lat="39.20615539" lon="-6.11843145"><ele>865</ele><speed>10.25</speed><time>2016-06-21T12:57:15Z</time><pdop>10.0</pdop><geoidheight>53.00</geoidheight><course>208.2</course><type>1</type></trkpt>
      <trkpt lat="39.20590619" lon="-6.11859859"><ele>857</ele><speed>7.75</speed><time>2016-06-21T12:57:19Z</time><pdop>9.0</pdop><geoidheight>53.00</geoidheight><course>200.5</course><type>1</type></trkpt>
      <trkpt lat="39.20571164" lon="-6.11872469"><ele>854</ele><speed>9.00</speed><time>2016-06-21T12:57:22Z</time><pdop>10.0</pdop><geoidheight>53.00</geoidheight><course>205.2</course><type>1</type></trkpt>
      <trkpt lat="39.20549676" lon="-6.11876332"><ele>854</ele><speed>7.25</speed><time>2016-06-21T12:57:25Z</time><pdop>9.0</pdop><geoidheight>53.00</geoidheight><course>183.6</course><type>1</type></trkpt>
      <trkpt lat="39.20527446" lon="-6.11876002"><ele>853</ele><speed>7.00</speed><time>2016-06-21T12:57:29Z</time><pdop>9.0</pdop><geoidheight>53.00</geoidheight><course>174.0</course><type>1</type></trkpt>
      <trkpt lat="39.20507637" lon="-6.11878642"><ele>852</ele><speed>7.50</speed><time>2016-06-21T12:57:32Z</time><pdop>10.0</pdop><geoidheight>53.00</geoidheight><course>190.4</course><type>1</type></trkpt>
      <trkpt lat="39.20491224" lon="-6.1190035"><ele>848</ele><speed>8.75</speed><time>2016-06-21T12:57:35Z</time><pdop>9.0</pdop><geoidheight>53.00</geoidheight><course>222.3</course><type>1</type></trkpt>
      <trkpt lat="39.20473149" lon="-6.1191842"><ele>844</ele><speed>9.50</speed><time>2016-06-21T12:57:38Z</time><pdop>10.0</pdop><geoidheight>53.00</geoidheight><course>210.7</course><type>1</type></trkpt>
      <trkpt lat="39.20450752" lon="-6.11920011"><ele>840</ele><speed>8.50</speed><time>2016-06-21T12:57:41Z</time><pdop>11.0</pdop><geoidheight>53.00</geoidheight><course>182.6</course><type>1</type></trkpt>
      <trkpt lat="39.20439277" lon="-6.11899902"><ele>840</ele><speed>6.50</speed><time>2016-06-21T12:57:44Z</time><pdop>9.0</pdop><geoidheight>53.00</geoidheight><course>141.1</course><type>1</type></trkpt>
      <trkpt lat="39.20415457" lon="-6.11894051"><ele>836</ele><speed>7.25</speed><time>2016-06-21T12:57:48Z</time><pdop>10.0</pdop><geoidheight>53.00</geoidheight><course>185.4</course><type>1</type></trkpt>
      <trkpt lat="39.20397966" lon="-6.11909948"><ele>839</ele><speed>5.50</speed><time>2016-06-21T12:57:52Z</time><pdop>11.0</pdop><geoidheight>53.00</geoidheight><course>223.1</course><type>1</type></trkpt>
      <trkpt lat="39.20375766" lon="-6.11902649"><ele>835</ele><speed>5.75</speed><time>2016-06-21T12:57:57Z</time><pdop>11.0</pdop><geoidheight>53.00</geoidheight><course>148.9</course><type>1</type></trkpt>
      <trkpt lat="39.20378744" lon="-6.11875867"><ele>832</ele><speed>6.50</speed><time>2016-06-21T12:58:00Z</time><pdop>11.0</pdop><geoidheight>53.00</geoidheight><course>78.2</course><type>1</type></trkpt>
      <trkpt lat="39.20407138" lon="-6.11866832"><ele>830</ele><speed>8.75</speed><time>2016-06-21T12:58:03Z</time><pdop>10.0</pdop><geoidheight>53.00</geoidheight><course>359.6</course><type>1</type></trkpt>
      <trkpt lat="39.20425732" lon="-6.11886482"><ele>829</ele><speed>8.25</speed><time>2016-06-21T12:58:06Z</time><pdop>11.0</pdop><geoidheight>53.00</geoidheight><course>317.8</course><type>1</type></trkpt>
      <trkpt lat="39.20414553" lon="-6.11912071"><ele>829</ele><speed>6.25</speed><time>2016-06-21T12:58:09Z</time><pdop>10.0</pdop><geoidheight>53.00</geoidheight><course>236.1</course><type>1</type></trkpt>
      <trkpt lat="39.20400041" lon="-6.11933814"><ele>827</ele><speed>7.50</speed><time>2016-06-21T12:58:12Z</time><pdop>9.0</pdop><geoidheight>53.00</geoidheight><course>227.9</course><type>1</type></trkpt>
      <trkpt lat="39.20388785" lon="-6.1195504"><ele>829</ele><speed>7.25</speed><time>2016-06-21T12:58:15Z</time><pdop>10.0</pdop><geoidheight>53.00</geoidheight><course>233.7</course><type>1</type></trkpt>
      <trkpt lat="39.2037825" lon="-6.11974181"><ele>833</ele><speed>6.00</speed><time>2016-06-21T12:58:18Z</time><pdop>10.0</pdop><geoidheight>53.00</geoidheight><course>231.2</course><type>1</type></trkpt>
      <trkpt lat="39.20360669" lon="-6.11975736"><ele>834</ele><speed>6.75</speed><time>2016-06-21T12:58:21Z</time><pdop>9.0</pdop><geoidheight>53.00</geoidheight><course>170.4</course><type>1</type></trkpt>
      <trkpt lat="39.2034802" lon="-6.11953517"><ele>836</ele><speed>8.00</speed><time>2016-06-21T12:58:24Z</time><pdop>11.0</pdop><geoidheight>53.00</geoidheight><course>121.3</course><type>1</type></trkpt>
      <trkpt lat="39.20367446" lon="-6.11935469"><ele>835</ele><speed>7.00</speed><time>2016-06-21T12:58:28Z</time><pdop>11.0</pdop><geoidheight>53.00</geoidheight><course>40.9</course><type>1</type></trkpt>
      <trkpt lat="39.20389555" lon="-6.11957781"><ele>835</ele><speed>7.50</speed><time>2016-06-21T12:58:30Z</time><pdop>11.0</pdop><geoidheight>53.00</geoidheight><course>324.9</course><type>1</type></trkpt>
      <trkpt lat="39.20405321" lon="-6.1197719"><ele>835</ele><speed>8.00</speed><time>2016-06-21T12:58:32Z</time><pdop>11.0</pdop><geoidheight>53.00</geoidheight><course>313.5</course><type>1</type></trkpt>
      <trkpt lat="39.20412824" lon="-6.12002441"><ele>836</ele><speed>6.75</speed><time>2016-06-21T12:58:35Z</time><pdop>11.0</pdop><geoidheight>53.00</geoidheight><course>287.3</course><type>1</type></trkpt>
      <trkpt lat="39.20401893" lon="-6.12028406"><ele>838</ele><speed>6.00</speed><time>2016-06-21T12:58:38Z</time><pdop>10.0</pdop><geoidheight>53.00</geoidheight><course>223.9</course><type>1</type></trkpt>
      <trkpt lat="39.20390772" lon="-6.12004475"><ele>839</ele><speed>5.25</speed><time>2016-06-21T12:58:44Z</time><pdop>11.0</pdop><geoidheight>53.00</geoidheight><course>99.1</course><type>1</type></trkpt>
      <trkpt lat="39.20410159" lon="-6.1198884"><ele>839</ele><speed>9.50</speed><time>2016-06-21T12:58:46Z</time><pdop>10.0</pdop><geoidheight>53.00</geoidheight><course>27.6</course><type>1</type></trkpt>
      <trkpt lat="39.2044211" lon="-6.11988469"><ele>846</ele><speed>10.00</speed><time>2016-06-21T12:58:49Z</time><pdop>10.0</pdop><geoidheight>53.00</geoidheight><course>346.1</course><type>1</type></trkpt>
      <trkpt lat="39.20459449" lon="-6.11998763"><ele>847</ele><speed>10.25</speed><time>2016-06-21T12:58:51Z</time><pdop>10.0</pdop><geoidheight>53.00</geoidheight><course>335.1</course><type>1</type></trkpt>
      <trkpt lat="39.20471151" lon="-6.12023072"><ele>847</ele><speed>8.00</speed><time>2016-06-21T12:58:54Z</time><pdop>10.0</pdop><geoidheight>53.00</geoidheight><course>303.2</course><type>1</type></trkpt>
      <trkpt lat="39.20462626" lon="-6.12053395"><ele>849</ele><speed>7.25</speed><time>2016-06-21T12:58:57Z</time><pdop>9.0</pdop><geoidheight>53.00</geoidheight><course>237.5</course><type>1</type></trkpt>
      <trkpt lat="39.20457158" lon="-6.12080863"><ele>856</ele><speed>7.00</speed><time>2016-06-21T12:59:01Z</time><pdop>10.0</pdop><geoidheight>53.00</geoidheight><course>263.8</course><type>1</type></trkpt>
      <trkpt lat="39.20450999" lon="-6.12105896"><ele>859</ele><speed>7.50</speed><time>2016-06-21T12:59:04Z</time><pdop>9.0</pdop><geoidheight>53.00</geoidheight><course>250.5</course><type>1</type></trkpt>
      <trkpt lat="39.20436822" lon="-6.12119361"><ele>863</ele><speed>4.75</speed><time>2016-06-21T12:59:08Z</time><pdop>10.0</pdop><geoidheight>53.00</geoidheight><course>194.5</course><type>1</type></trkpt>
      <trkpt lat="39.20438324" lon="-6.1209397"><ele>863</ele><speed>7.50</speed><time>2016-06-21T12:59:11Z</time><pdop>10.0</pdop><geoidheight>53.00</geoidheight><course>70.0</course><type>1</type></trkpt>
      <trkpt lat="39.20462781" lon="-6.12077964"><ele>864</ele><speed>10.25</speed><time>2016-06-21T12:59:14Z</time><pdop>10.0</pdop><geoidheight>53.00</geoidheight><course>24.7</course><type>1</type></trkpt>
      <trkpt lat="39.2048376" lon="-6.12074993"><ele>865</ele><speed>11.25</speed><time>2016-06-21T12:59:16Z</time><pdop>10.0</pdop><geoidheight>53.00</geoidheight><course>8.1</course><type>1</type></trkpt>
      <trkpt lat="39.2051689" lon="-6.12066224"><ele>864</ele><speed>11.75</speed><time>2016-06-21T12:59:19Z</time><pdop>9.0</pdop><geoidheight>53.00</geoidheight><course>11.3</course><type>1</type></trkpt>
      <trkpt lat="39.20533978" lon="-6.12060925"><ele>871</ele><speed>9.25</speed><time>2016-06-21T12:59:21Z</time><pdop>9.0</pdop><geoidheight>53.00</geoidheight><course>12.7</course><type>1</type></trkpt>
      <trkpt lat="39.20547977" lon="-6.12043487"><ele>876</ele><speed>8.00</speed><time>2016-06-21T12:59:24Z</time><pdop>10.0</pdop><geoidheight>53.00</geoidheight><course>49.9</course><type>1</type></trkpt>
      <trkpt lat="39.205423" lon="-6.12017686"><ele>877</ele><speed>7.00</speed><time>2016-06-21T12:59:27Z</time><pdop>10.0</pdop><geoidheight>53.00</geoidheight><course>122.3</course><type>1</type></trkpt>
      <trkpt lat="39.20521688" lon="-6.12020044"><ele>877</ele><speed>6.25</speed><time>2016-06-21T12:59:31Z</time><pdop>10.0</pdop><geoidheight>53.00</geoidheight><course>206.6</course><type>1</type></trkpt>
      <trkpt lat="39.20522695" lon="-6.12043964"><ele>878</ele><speed>7.25</speed><time>2016-06-21T12:59:33Z</time><pdop>10.0</pdop><geoidheight>53.00</geoidheight><course>264.7</course><type>1</type></trkpt>
      <trkpt lat="39.20520921" lon="-6.12077751"><ele>890</ele><speed>7.50</speed><time>2016-06-21T12:59:37Z</time><pdop>10.0</pdop><geoidheight>53.00</geoidheight><course>261.7</course><type>1</type></trkpt>
      <trkpt lat="39.20514532" lon="-6.12103167"><ele>888</ele><speed>7.00</speed><time>2016-06-21T12:59:40Z</time><pdop>9.0</pdop><geoidheight>53.00</geoidheight><course>256.5</course><type>1</type></trkpt>
      <trkpt lat="39.20513834" lon="-6.12127619"><ele>890</ele><speed>7.75</speed><time>2016-06-21T12:59:43Z</time><pdop>9.0</pdop><geoidheight>53.00</geoidheight><course>263.4</course><type>1</type></trkpt>
      <trkpt lat="39.20510791" lon="-6.12153613"><ele>892</ele><speed>7.50</speed><time>2016-06-21T12:59:46Z</time><pdop>10.0</pdop><geoidheight>53.00</geoidheight><course>259.5</course><type>1</type></trkpt>
      <trkpt lat="39.20500284" lon="-6.12182871"><ele>895</ele><speed>6.50</speed><time>2016-06-21T12:59:50Z</time><pdop>9.0</pdop><geoidheight>53.00</geoidheight><course>219.1</course><type>1</type></trkpt>
      <trkpt lat="39.20483419" lon="-6.12173506"><ele>896</ele><speed>6.50</speed><time>2016-06-21T12:59:54Z</time><pdop>10.0</pdop><geoidheight>53.00</geoidheight><course>122.5</course><type>1</type></trkpt>
      <trkpt lat="39.20505374" lon="-6.12156754"><ele>897</ele><speed>5.50</speed><time>2016-06-21T13:00:00Z</time><pdop>12.0</pdop><geoidheight>53.00</geoidheight><course>11.5</course><type>1</type></trkpt>
      <trkpt lat="39.20526919" lon="-6.12148187"><ele>898</ele><speed>8.25</speed><time>2016-06-21T13:00:02Z</time><pdop>13.0</pdop><geoidheight>53.00</geoidheight><course>26.8</course><type>1</type></trkpt>
      <trkpt lat="39.20550431" lon="-6.12127974"><ele>900</ele><speed>11.25</speed><time>2016-06-21T13:00:04Z</time><pdop>11.0</pdop><geoidheight>53.00</geoidheight><course>48.1</course><type>1</type></trkpt>
      <trkpt lat="39.20567307" lon="-6.12108574"><ele>900</ele><speed>10.25</speed><time>2016-06-21T13:00:06Z</time><pdop>11.0</pdop><geoidheight>53.00</geoidheight><course>53.2</course><type>1</type></trkpt>
      <trkpt lat="39.20578619" lon="-6.12086614"><ele>902</ele><speed>7.25</speed><time>2016-06-21T13:00:09Z</time><pdop>11.0</pdop><geoidheight>53.00</geoidheight><course>66.8</course><type>1</type></trkpt>
      <trkpt lat="39.20559386" lon="-6.12071436"><ele>904</ele><speed>5.75</speed><time>2016-06-21T13:00:15Z</time><pdop>11.0</pdop><geoidheight>53.00</geoidheight><course>189.8</course><type>1</type></trkpt>
      <trkpt lat="39.20544941" lon="-6.12087953"><ele>906</ele><speed>6.25</speed><time>2016-06-21T13:00:19Z</time><pdop>10.0</pdop><geoidheight>53.00</geoidheight><course>242.7</course><type>1</type></trkpt>
      <trkpt lat="39.2054491" lon="-6.12115757"><ele>906</ele><speed>9.00</speed><time>2016-06-21T13:00:22Z</time><pdop>10.0</pdop><geoidheight>53.00</geoidheight><course>280.3</course><type>1</type></trkpt>
      <trkpt lat="39.20558941" lon="-6.12134825"><ele>906</ele><speed>6.25</speed><time>2016-06-21T13:00:25Z</time><pdop>11.0</pdop><geoidheight>53.00</geoidheight><course>323.2</course><type>1</type></trkpt>
      <trkpt lat="39.20583387" lon="-6.1211922"><ele>908</ele><speed>10.25</speed><time>2016-06-21T13:00:28Z</time><pdop>10.0</pdop><geoidheight>53.00</geoidheight><course>41.3</course><type>1</type></trkpt>
      <trkpt lat="39.20604814" lon="-6.12099221"><ele>910</ele><speed>9.00</speed><time>2016-06-21T13:00:31Z</time><pdop>10.0</pdop><geoidheight>53.00</geoidheight><course>43.4</course><type>1</type></trkpt>
      <trkpt lat="39.20618148" lon="-6.12082597"><ele>912</ele><speed>9.75</speed><time>2016-06-21T13:00:33Z</time><pdop>10.0</pdop><geoidheight>53.00</geoidheight><course>53.5</course><type>1</type></trkpt>
      <trkpt lat="39.20636038" lon="-6.12060368"><ele>914</ele><speed>8.00</speed><time>2016-06-21T13:00:36Z</time><pdop>10.0</pdop><geoidheight>53.00</geoidheight><course>46.6</course><type>1</type></trkpt>
      <trkpt lat="39.20651218" lon="-6.12041232"><ele>914</ele><speed>7.75</speed><time>2016-06-21T13:00:39Z</time><pdop>11.0</pdop><geoidheight>53.00</geoidheight><course>44.8</course><type>1</type></trkpt>
      <trkpt lat="39.20654847" lon="-6.12011407"><ele>914</ele><speed>5.00</speed><time>2016-06-21T13:00:43Z</time><pdop>11.0</pdop><geoidheight>53.00</geoidheight><course>75.1</course><type>1</type></trkpt>
      <trkpt lat="39.20633995" lon="-6.12019389"><ele>915</ele><speed>6.50</speed><time>2016-06-21T13:00:46Z</time><pdop>10.0</pdop><geoidheight>53.00</geoidheight><course>204.2</course><type>1</type></trkpt>
      <trkpt lat="39.20614885" lon="-6.1202653"><ele>917</ele><speed>6.75</speed><time>2016-06-21T13:00:49Z</time><pdop>11.0</pdop><geoidheight>53.00</geoidheight><course>199.3</course><type>1</type></trkpt>
      <trkpt lat="39.2059376" lon="-6.12038534"><ele>924</ele><speed>5.00</speed><time>2016-06-21T13:00:53Z</time><pdop>10.0</pdop><geoidheight>53.00</geoidheight><course>194.8</course><type>1</type></trkpt>
      <trkpt lat="39.20576252" lon="-6.12027963"><ele>926</ele><speed>4.75</speed><time>2016-06-21T13:00:58Z</time><pdop>11.0</pdop><geoidheight>53.00</geoidheight><course>137.0</course><type>1</type></trkpt>
      <trkpt lat="39.20574382" lon="-6.11995461"><ele>927</ele><speed>5.50</speed><time>2016-06-21T13:01:02Z</time><pdop>12.0</pdop><geoidheight>53.00</geoidheight><course>96.2</course><type>1</type></trkpt>
      <trkpt lat="39.20625835" lon="-6.11983673"><ele>928</ele><speed>8.75</speed><time>2016-06-21T13:01:06Z</time><pdop>11.0</pdop><geoidheight>53.00</geoidheight><course>3.8</course><type>1</type></trkpt>
      <trkpt lat="39.20636674" lon="-6.12010229"><ele>930</ele><speed>9.25</speed><time>2016-06-21T13:01:08Z</time><pdop>9.0</pdop><geoidheight>53.00</geoidheight><course>303.9</course><type>1</type></trkpt>
      <trkpt lat="39.20637553" lon="-6.12037153"><ele>929</ele><speed>8.25</speed><time>2016-06-21T13:01:11Z</time><pdop>9.0</pdop><geoidheight>53.00</geoidheight><course>255.5</course><type>1</type></trkpt>
      <trkpt lat="39.20622563" lon="-6.12059493"><ele>933</ele><speed>9.00</speed><time>2016-06-21T13:01:14Z</time><pdop>9.0</pdop><geoidheight>53.00</geoidheight><course>225.4</course><type>1</type></trkpt>
      <trkpt lat="39.20611788" lon="-6.12077646"><ele>941</ele><speed>5.50</speed><time>2016-06-21T13:01:17Z</time><pdop>9.0</pdop><geoidheight>53.00</geoidheight><course>233.4</course><type>1</type></trkpt>
      <trkpt lat="39.20603734" lon="-6.12100222"><ele>938</ele><speed>6.75</speed><time>2016-06-21T13:01:21Z</time><pdop>10.0</pdop><geoidheight>53.00</geoidheight><course>249.0</course><type>1</type></trkpt>
      <trkpt lat="39.20597902" lon="-6.12129431"><ele>939</ele><speed>8.50</speed><time>2016-06-21T13:01:24Z</time><pdop>9.0</pdop><geoidheight>53.00</geoidheight><course>249.2</course><type>1</type></trkpt>
      <trkpt lat="39.20587259" lon="-6.12147511"><ele>940</ele><speed>6.00</speed><time>2016-06-21T13:01:27Z</time><pdop>10.0</pdop><geoidheight>53.00</geoidheight><course>227.8</course><type>1</type></trkpt>
      <trkpt lat="39.20565018" lon="-6.1213496"><ele>939</ele><speed>7.25</speed><time>2016-06-21T13:01:32Z</time><pdop>11.0</pdop><geoidheight>53.00</geoidheight><course>136.5</course><type>1</type></trkpt>
      <trkpt lat="39.2057873" lon="-6.12104915"><ele>937</ele><speed>5.25</speed><time>2016-06-21T13:01:36Z</time><pdop>11.0</pdop><geoidheight>53.00</geoidheight><course>46.2</course><type>1</type></trkpt>
      <trkpt lat="39.2060187" lon="-6.12090956"><ele>938</ele><speed>9.00</speed><time>2016-06-21T13:01:38Z</time><pdop>11.0</pdop><geoidheight>53.00</geoidheight><course>33.3</course><type>1</type></trkpt>
      <trkpt lat="39.20624202" lon="-6.12076825"><ele>938</ele><speed>9.75</speed><time>2016-06-21T13:01:40Z</time><pdop>10.0</pdop><geoidheight>53.00</geoidheight><course>29.7</course><type>1</type></trkpt>
      <trkpt lat="39.20644688" lon="-6.120672"><ele>938</ele><speed>10.25</speed><time>2016-06-21T13:01:42Z</time><pdop>10.0</pdop><geoidheight>53.00</geoidheight><course>21.0</course><type>1</type></trkpt>
      <trkpt lat="39.2066275" lon="-6.12058461"><ele>938</ele><speed>10.00</speed><time>2016-06-21T13:01:44Z</time><pdop>10.0</pdop><geoidheight>53.00</geoidheight><course>20.3</course><type>1</type></trkpt>
      <trkpt lat="39.20687368" lon="-6.12048348"><ele>940</ele><speed>9.25</speed><time>2016-06-21T13:01:47Z</time><pdop>10.0</pdop><geoidheight>53.00</geoidheight><course>9.1</course><type>1</type></trkpt>
      <trkpt lat="39.20706997" lon="-6.1205471"><ele>943</ele><speed>9.25</speed><time>2016-06-21T13:01:49Z</time><pdop>9.0</pdop><geoidheight>53.00</geoidheight><course>342.4</course><type>1</type></trkpt>
      <trkpt lat="39.20722927" lon="-6.12063352"><ele>943</ele><speed>9.50</speed><time>2016-06-21T13:01:51Z</time><pdop>10.0</pdop><geoidheight>53.00</geoidheight><course>336.9</course><type>1</type></trkpt>
      <trkpt lat="39.20745474" lon="-6.12061118"><ele>942</ele><speed>9.25</speed><time>2016-06-21T13:01:54Z</time><pdop>10.0</pdop><geoidheight>53.00</geoidheight><course>14.5</course><type>1</type></trkpt>
      <trkpt lat="39.20759371" lon="-6.12038869"><ele>943</ele><speed>8.00</speed><time>2016-06-21T13:01:57Z</time><pdop>10.0</pdop><geoidheight>53.00</geoidheight><course>52.2</course><type>1</type></trkpt>
      <trkpt lat="39.20744795" lon="-6.12020545"><ele>943</ele><speed>4.50</speed><time>2016-06-21T13:02:02Z</time><pdop>11.0</pdop><geoidheight>53.00</geoidheight><course>149.5</course><type>1</type></trkpt>
      <trkpt lat="39.20725842" lon="-6.12033538"><ele>943</ele><speed>6.75</speed><time>2016-06-21T13:02:05Z</time><pdop>10.0</pdop><geoidheight>53.00</geoidheight><course>203.5</course><type>1</type></trkpt>
      <trkpt lat="39.20706358" lon="-6.12035324"><ele>945</ele><speed>6.25</speed><time>2016-06-21T13:02:08Z</time><pdop>10.0</pdop><geoidheight>53.00</geoidheight><course>181.8</course><type>1</type></trkpt>
      <trkpt lat="39.20684323" lon="-6.12026578"><ele>947</ele><speed>3.75</speed><time>2016-06-21T13:02:14Z</time><pdop>10.0</pdop><geoidheight>53.00</geoidheight><course>170.1</course><type>1</type></trkpt>
      <trkpt lat="39.20673844" lon="-6.12004813"><ele>953</ele><speed>3.25</speed><time>2016-06-21T13:02:20Z</time><pdop>10.0</pdop><geoidheight>53.00</geoidheight><course>112.1</course><type>1</type></trkpt>
      <trkpt lat="39.20658257" lon="-6.11986384"><ele>964</ele><speed>3.75</speed><time>2016-06-21T13:02:27Z</time><pdop>10.0</pdop><geoidheight>53.00</geoidheight><course>155.1</course><type>1</type></trkpt>
      <trkpt lat="39.20643389" lon="-6.1200885"><ele>972</ele><speed>9.25</speed><time>2016-06-21T13:02:31Z</time><pdop>9.0</pdop><geoidheight>53.00</geoidheight><course>277.0</course><type>1</type></trkpt>
      <trkpt lat="39.20649468" lon="-6.12030809"><ele>976</ele><speed>11.00</speed><time>2016-06-21T13:02:33Z</time><pdop>10.0</pdop><geoidheight>53.00</geoidheight><course>294.7</course><type>1</type></trkpt>
      <trkpt lat="39.20663297" lon="-6.12052187"><ele>977</ele><speed>12.00</speed><time>2016-06-21T13:02:35Z</time><pdop>10.0</pdop><geoidheight>53.00</geoidheight><course>309.9</course><type>1</type></trkpt>
      <trkpt lat="39.20691189" lon="-6.1205792"><ele>978</ele><speed>11.25</speed><time>2016-06-21T13:02:38Z</time><pdop>10.0</pdop><geoidheight>53.00</geoidheight><course>352.5</course><type>1</type></trkpt>
      <trkpt lat="39.20713856" lon="-6.12056091"><ele>980</ele><speed>12.50</speed><time>2016-06-21T13:02:40Z</time><pdop>10.0</pdop><geoidheight>53.00</geoidheight><course>7.6</course><type>1</type></trkpt>
      <trkpt lat="39.20736487" lon="-6.12036314"><ele>983</ele><speed>10.75</speed><time>2016-06-21T13:02:43Z</time><pdop>10.0</pdop><geoidheight>53.00</geoidheight><course>39.3</course><type>1</type></trkpt>
      <trkpt lat="39.20746774" lon="-6.12013718"><ele>985</ele><speed>10.75</speed><time>2016-06-21T13:02:45Z</time><pdop>11.0</pdop><geoidheight>53.00</geoidheight><course>51.5</course><type>1</type></trkpt>
      <trkpt lat="39.20731952" lon="-6.11992943"><ele>989</ele><speed>4.00</speed><time>2016-06-21T13:02:50Z</time><pdop>10.0</pdop><geoidheight>53.00</geoidheight><course>143.2</course><type>1</type></trkpt>
      <trkpt lat="39.20711331" lon="-6.11986072"><ele>998</ele><speed>5.00</speed><time>2016-06-21T13:02:55Z</time><pdop>10.0</pdop><geoidheight>53.00</geoidheight><course>181.0</course><type>1</type></trkpt>
      <trkpt lat="39.20690393" lon="-6.11997388"><ele>1001</ele><speed>6.25</speed><time>2016-06-21T13:02:59Z</time><pdop>10.0</pdop><geoidheight>53.00</geoidheight><course>213.0</course><type>1</type></trkpt>
      <trkpt lat="39.20675811" lon="-6.12012698"><ele>1004</ele><speed>7.00</speed><time>2016-06-21T13:03:02Z</time><pdop>10.0</pdop><geoidheight>53.00</geoidheight><course>228.3</course><type>1</type></trkpt>
      <trkpt lat="39.20666482" lon="-6.12047053"><ele>1008</ele><speed>11.25</speed><time>2016-06-21T13:03:05Z</time><pdop>10.0</pdop><geoidheight>53.00</geoidheight><course>261.6</course><type>1</type></trkpt>
      <trkpt lat="39.20665452" lon="-6.12073505"><ele>1010</ele><speed>11.50</speed><time>2016-06-21T13:03:07Z</time><pdop>10.0</pdop><geoidheight>53.00</geoidheight><course>272.0</course><type>1</type></trkpt>
      <trkpt lat="39.20680688" lon="-6.12103875"><ele>1011</ele><speed>7.75</speed><time>2016-06-21T13:03:11Z</time><pdop>12.0</pdop><geoidheight>53.00</geoidheight><course>305.9</course><type>1</type></trkpt>
      <trkpt lat="39.20708554" lon="-6.121065"><ele>1013</ele><speed>10.00</speed><time>2016-06-21T13:03:13Z</time><pdop>11.0</pdop><geoidheight>53.00</geoidheight><course>353.1</course><type>1</type></trkpt>
      <trkpt lat="39.20733689" lon="-6.1210442"><ele>1015</ele><speed>11.75</speed><time>2016-06-21T13:03:15Z</time><pdop>11.0</pdop><geoidheight>53.00</geoidheight><course>8.6</course><type>1</type></trkpt>
      <trkpt lat="39.20751784" lon="-6.12083686"><ele>1022</ele><speed>7.00</speed><time>2016-06-21T13:03:19Z</time><pdop>10.0</pdop><geoidheight>53.00</geoidheight><course>50.2</course><type>1</type></trkpt>
      <trkpt lat="39.20748796" lon="-6.12057141"><ele>1025</ele><speed>4.50</speed><time>2016-06-21T13:03:24Z</time><pdop>10.0</pdop><geoidheight>53.00</geoidheight><course>146.0</course><type>1</type></trkpt>
      <trkpt lat="39.20726352" lon="-6.12068845"><ele>1026</ele><speed>10.00</speed><time>2016-06-21T13:03:28Z</time><pdop>10.0</pdop><geoidheight>53.00</geoidheight><course>223.4</course><type>1</type></trkpt>
      <trkpt lat="39.20716123" lon="-6.12096109"><ele>1029</ele><speed>13.25</speed><time>2016-06-21T13:03:30Z</time><pdop>11.0</pdop><geoidheight>53.00</geoidheight><course>247.0</course><type>1</type></trkpt>
      <trkpt lat="39.20716328" lon="-6.12122218"><ele>1033</ele><speed>11.00</speed><time>2016-06-21T13:03:32Z</time><pdop>11.0</pdop><geoidheight>53.00</geoidheight><course>271.9</course><type>1</type></trkpt>
      <trkpt lat="39.20724999" lon="-6.12155775"><ele>1038</ele><speed>10.50</speed><time>2016-06-21T13:03:35Z</time><pdop>11.0</pdop><geoidheight>53.00</geoidheight><course>288.0</course><type>1</type></trkpt>
      <trkpt lat="39.20736424" lon="-6.12177569"><ele>1038</ele><speed>11.75</speed><time>2016-06-21T13:03:37Z</time><pdop>11.0</pdop><geoidheight>53.00</geoidheight><course>304.7</course><type>1</type></trkpt>
      <trkpt lat="39.20764229" lon="-6.12187114"><ele>1040</ele><speed>11.00</speed><time>2016-06-21T13:03:40Z</time><pdop>10.0</pdop><geoidheight>53.00</geoidheight><course>349.7</course><type>1</type></trkpt>
      <trkpt lat="39.20787743" lon="-6.12187221"><ele>1042</ele><speed>12.75</speed><time>2016-06-21T13:03:42Z</time><pdop>10.0</pdop><geoidheight>53.00</geoidheight><course>4.7</course><type>1</type></trkpt>
      <trkpt lat="39.20808499" lon="-6.12179115"><ele>1045</ele><speed>11.75</speed><time>2016-06-21T13:03:44Z</time><pdop>11.0</pdop><geoidheight>53.00</geoidheight><course>17.0</course><type>1</type></trkpt>
      <trkpt lat="39.20820904" lon="-6.12157825"><ele>1049</ele><speed>8.50</speed><time>2016-06-21T13:03:47Z</time><pdop>11.0</pdop><geoidheight>53.00</geoidheight><course>49.4</course><type>1</type></trkpt>
      <trkpt lat="39.20821105" lon="-6.12131909"><ele>1058</ele><speed>4.25</speed><time>2016-06-21T13:03:51Z</time><pdop>10.0</pdop><geoidheight>53.00</geoidheight><course>87.2</course><type>1</type></trkpt>
      <trkpt lat="39.20803688" lon="-6.1212131"><ele>1062</ele><speed>6.00</speed><time>2016-06-21T13:03:55Z</time><pdop>10.0</pdop><geoidheight>53.00</geoidheight><course>173.8</course><type>1</type></trkpt>
      <trkpt lat="39.20791249" lon="-6.12136711"><ele>1066</ele><speed>9.50</speed><time>2016-06-21T13:03:57Z</time><pdop>9.0</pdop><geoidheight>53.00</geoidheight><course>232.0</course><type>1</type></trkpt>
      <trkpt lat="39.20782702" lon="-6.12162459"><ele>1068</ele><speed>12.50</speed><time>2016-06-21T13:03:59Z</time><pdop>10.0</pdop><geoidheight>53.00</geoidheight><course>250.8</course><type>1</type></trkpt>
      <trkpt lat="39.20781082" lon="-6.12187397"><ele>1070</ele><speed>11.00</speed><time>2016-06-21T13:04:01Z</time><pdop>11.0</pdop><geoidheight>53.00</geoidheight><course>259.9</course><type>1</type></trkpt>
      <trkpt lat="39.20805438" lon="-6.12218723"><ele>1070</ele><speed>11.00</speed><time>2016-06-21T13:04:04Z</time><pdop>11.0</pdop><geoidheight>53.00</geoidheight><course>307.3</course><type>1</type></trkpt>
      <trkpt lat="39.20826856" lon="-6.1223675"><ele>1071</ele><speed>12.50</speed><time>2016-06-21T13:04:06Z</time><pdop>11.0</pdop><geoidheight>53.00</geoidheight><course>323.2</course><type>1</type></trkpt>
      <trkpt lat="39.2085364" lon="-6.12241326"><ele>1075</ele><speed>14.00</speed><time>2016-06-21T13:04:08Z</time><pdop>10.0</pdop><geoidheight>53.00</geoidheight><course>353.4</course><type>1</type></trkpt>
      <trkpt lat="39.20875626" lon="-6.12237938"><ele>1079</ele><speed>12.25</speed><time>2016-06-21T13:04:10Z</time><pdop>10.0</pdop><geoidheight>53.00</geoidheight><course>4.3</course><type>1</type></trkpt>
      <trkpt lat="39.20893117" lon="-6.1222693"><ele>1084</ele><speed>8.00</speed><time>2016-06-21T13:04:13Z</time><pdop>10.0</pdop><geoidheight>53.00</geoidheight><course>29.1</course><type>1</type></trkpt>
      <trkpt lat="39.20903264" lon="-6.12198716"><ele>1092</ele><speed>7.00</speed><time>2016-06-21T13:04:17Z</time><pdop>11.0</pdop><geoidheight>53.00</geoidheight><course>67.2</course><type>1</type></trkpt>
      <trkpt lat="39.20885128" lon="-6.12194291"><ele>1099</ele><speed>6.25</speed><time>2016-06-21T13:04:20Z</time><pdop>9.0</pdop><geoidheight>53.00</geoidheight><course>174.3</course><type>1</type></trkpt>
      <trkpt lat="39.20867067" lon="-6.12197286"><ele>1103</ele><speed>7.00</speed><time>2016-06-21T13:04:23Z</time><pdop>10.0</pdop><geoidheight>53.00</geoidheight><course>196.5</course><type>1</type></trkpt>
      <trkpt lat="39.2085226" lon="-6.12216448"><ele>1110</ele><speed>8.00</speed><time>2016-06-21T13:04:26Z</time><pdop>9.0</pdop><geoidheight>53.00</geoidheight><course>241.2</course><type>1</type></trkpt>
      <trkpt lat="39.20847276" lon="-6.12249323"><ele>1113</ele><speed>11.25</speed><time>2016-06-21T13:04:29Z</time><pdop>10.0</pdop><geoidheight>53.00</geoidheight><course>267.5</course><type>1</type></trkpt>
      <trkpt lat="39.2084777" lon="-6.12272781"><ele>1115</ele><speed>10.50</speed><time>2016-06-21T13:04:31Z</time><pdop>10.0</pdop><geoidheight>53.00</geoidheight><course>274.6</course><type>1</type></trkpt>
      <trkpt lat="39.20864353" lon="-6.12291719"><ele>1115</ele><speed>11.00</speed><time>2016-06-21T13:04:33Z</time><pdop>10.0</pdop><geoidheight>53.00</geoidheight><course>312.8</course><type>1</type></trkpt>
      <trkpt lat="39.20890495" lon="-6.12303907"><ele>1115</ele><speed>13.75</speed><time>2016-06-21T13:04:35Z</time><pdop>10.0</pdop><geoidheight>53.00</geoidheight><course>341.8</course><type>1</type></trkpt>
      <trkpt lat="39.2091397" lon="-6.12310281"><ele>1116</ele><speed>13.75</speed><time>2016-06-21T13:04:37Z</time><pdop>11.0</pdop><geoidheight>53.00</geoidheight><course>348.7</course><type>1</type></trkpt>
      <trkpt lat="39.20938529" lon="-6.12308043"><ele>1117</ele><speed>14.00</speed><time>2016-06-21T13:04:39Z</time><pdop>11.0</pdop><geoidheight>53.00</geoidheight><course>0.2</course><type>1</type></trkpt>
      <trkpt lat="39.20948724" lon="-6.12285692"><ele>1123</ele><speed>8.75</speed><time>2016-06-21T13:04:42Z</time><pdop>11.0</pdop><geoidheight>53.00</geoidheight><course>37.1</course><type>1</type></trkpt>
      <trkpt lat="39.2093915" lon="-6.12262591"><ele>1128</ele><speed>4.25</speed><time>2016-06-21T13:04:47Z</time><pdop>10.0</pdop><geoidheight>53.00</geoidheight><course>150.7</course><type>1</type></trkpt>
      <trkpt lat="39.20915249" lon="-6.1225626"><ele>1133</ele><speed>6.75</speed><time>2016-06-21T13:04:51Z</time><pdop>11.0</pdop><geoidheight>53.00</geoidheight><course>177.6</course><type>1</type></trkpt>
      <trkpt lat="39.20893579" lon="-6.12286441"><ele>1142</ele><speed>9.00</speed><time>2016-06-21T13:04:55Z</time><pdop>10.0</pdop><geoidheight>53.00</geoidheight><course>259.0</course><type>1</type></trkpt>
      <trkpt lat="39.20892494" lon="-6.12318325"><ele>1145</ele><speed>9.25</speed><time>2016-06-21T13:04:58Z</time><pdop>11.0</pdop><geoidheight>53.00</geoidheight><course>272.6</course><type>1</type></trkpt>
      <trkpt lat="39.20907635" lon="-6.12336128"><ele>1146</ele><speed>10.50</speed><time>2016-06-21T13:05:00Z</time><pdop>10.0</pdop><geoidheight>53.00</geoidheight><course>311.6</course><type>1</type></trkpt>
      <trkpt lat="39.20933585" lon="-6.12343351"><ele>1150</ele><speed>9.50</speed><time>2016-06-21T13:05:03Z</time><pdop>11.0</pdop><geoidheight>53.00</geoidheight><course>358.7</course><type>1</type></trkpt>
      <trkpt lat="39.20952113" lon="-6.12325974"><ele>1154</ele><speed>8.25</speed><time>2016-06-21T13:05:06Z</time><pdop>11.0</pdop><geoidheight>53.00</geoidheight><course>37.2</course><type>1</type></trkpt>
      <trkpt lat="39.20968266" lon="-6.12310182"><ele>1158</ele><speed>7.75</speed><time>2016-06-21T13:05:09Z</time><pdop>11.0</pdop><geoidheight>53.00</geoidheight><course>31.6</course><type>1</type></trkpt>
      <trkpt lat="39.20985386" lon="-6.1229786"><ele>1163</ele><speed>6.75</speed><time>2016-06-21T13:05:12Z</time><pdop>10.0</pdop><geoidheight>53.00</geoidheight><course>33.8</course><type>1</type></trkpt>
      <trkpt lat="39.20980607" lon="-6.12276253"><ele>1167</ele><speed>6.50</speed><time>2016-06-21T13:05:15Z</time><pdop>9.0</pdop><geoidheight>53.00</geoidheight><course>114.6</course><type>1</type></trkpt>
      <trkpt lat="39.20962657" lon="-6.12262197"><ele>1175</ele><speed>6.50</speed><time>2016-06-21T13:05:19Z</time><pdop>10.0</pdop><geoidheight>53.00</geoidheight><course>178.3</course><type>1</type></trkpt>
      <trkpt lat="39.20946663" lon="-6.12274586"><ele>1179</ele><speed>6.25</speed><time>2016-06-21T13:05:23Z</time><pdop>9.0</pdop><geoidheight>53.00</geoidheight><course>230.7</course><type>1</type></trkpt>
      <trkpt lat="39.20943682" lon="-6.12305792"><ele>1180</ele><speed>10.50</speed><time>2016-06-21T13:05:26Z</time><pdop>10.0</pdop><geoidheight>53.00</geoidheight><course>273.2</course><type>1</type></trkpt>
      <trkpt lat="39.20959543" lon="-6.12336162"><ele>1181</ele><speed>11.00</speed><time>2016-06-21T13:05:29Z</time><pdop>10.0</pdop><geoidheight>53.00</geoidheight><course>309.0</course><type>1</type></trkpt>
      <trkpt lat="39.20977465" lon="-6.12346547"><ele>1182</ele><speed>10.75</speed><time>2016-06-21T13:05:31Z</time><pdop>11.0</pdop><geoidheight>53.00</geoidheight><course>330.2</course><type>1</type></trkpt>
      <trkpt lat="39.2099948" lon="-6.12349614"><ele>1189</ele><speed>11.50</speed><time>2016-06-21T13:05:33Z</time><pdop>11.0</pdop><geoidheight>53.00</geoidheight><course>353.2</course><type>1</type></trkpt>
      <trkpt lat="39.21024689" lon="-6.12350989"><ele>1195</ele><speed>9.00</speed><time>2016-06-21T13:05:36Z</time><pdop>11.0</pdop><geoidheight>53.00</geoidheight><course>356.7</course><type>1</type></trkpt>
      <trkpt lat="39.21049838" lon="-6.12356599"><ele>1199</ele><speed>9.25</speed><time>2016-06-21T13:05:39Z</time><pdop>12.0</pdop><geoidheight>53.00</geoidheight><course>350.4</course><type>1</type></trkpt>
      <trkpt lat="39.21073395" lon="-6.12351112"><ele>1200</ele><speed>9.00</speed><time>2016-06-21T13:05:42Z</time><pdop>13.0</pdop><geoidheight>53.00</geoidheight><course>23.5</course><type>1</type></trkpt>
      <trkpt lat="39.21081911" lon="-6.12324083"><ele>1203</ele><speed>6.25</speed><time>2016-06-21T13:05:46Z</time><pdop>11.0</pdop><geoidheight>53.00</geoidheight><course>79.2</course><type>1</type></trkpt>
      <trkpt lat="39.21076844" lon="-6.12298424"><ele>1208</ele><speed>2.75</speed><time>2016-06-21T13:05:51Z</time><pdop>11.0</pdop><geoidheight>53.00</geoidheight><course>136.9</course><type>1</type></trkpt>
      <trkpt lat="39.21052869" lon="-6.12308295"><ele>1207</ele><speed>7.25</speed><time>2016-06-21T13:05:57Z</time><pdop>9.0</pdop><geoidheight>53.00</geoidheight><course>230.2</course><type>1</type></trkpt>
      <trkpt lat="39.21052476" lon="-6.1234172"><ele>1206</ele><speed>10.75</speed><time>2016-06-21T13:06:00Z</time><pdop>10.0</pdop><geoidheight>53.00</geoidheight><course>276.9</course><type>1</type></trkpt>
      <trkpt lat="39.21058326" lon="-6.12364303"><ele>1206</ele><speed>10.75</speed><time>2016-06-21T13:06:02Z</time><pdop>10.0</pdop><geoidheight>53.00</geoidheight><course>290.0</course><type>1</type></trkpt>
      <trkpt lat="39.21073194" lon="-6.12385199"><ele>1207</ele><speed>11.75</speed><time>2016-06-21T13:06:04Z</time><pdop>11.0</pdop><geoidheight>53.00</geoidheight><course>305.2</course><type>1</type></trkpt>
      <trkpt lat="39.21092018" lon="-6.1240896"><ele>1207</ele><speed>9.50</speed><time>2016-06-21T13:06:07Z</time><pdop>10.0</pdop><geoidheight>53.00</geoidheight><course>306.5</course><type>1</type></trkpt>
      <trkpt lat="39.21106815" lon="-6.12437081"><ele>1207</ele><speed>10.00</speed><time>2016-06-21T13:06:10Z</time><pdop>10.0</pdop><geoidheight>53.00</geoidheight><course>305.4</course><type>1</type></trkpt>
      <trkpt lat="39.2112087" lon="-6.12455608"><ele>1207</ele><speed>10.75</speed><time>2016-06-21T13:06:12Z</time><pdop>11.0</pdop><geoidheight>53.00</geoidheight><course>312.9</course><type>1</type></trkpt>
      <trkpt lat="39.21146858" lon="-6.12466685"><ele>1208</ele><speed>10.75</speed><time>2016-06-21T13:06:15Z</time><pdop>12.0</pdop><geoidheight>53.00</geoidheight><course>343.6</course><type>1</type></trkpt>
      <trkpt lat="39.21172427" lon="-6.1248092"><ele>1210</ele><speed>9.75</speed><time>2016-06-21T13:06:18Z</time><pdop>12.0</pdop><geoidheight>53.00</geoidheight><course>332.0</course><type>1</type></trkpt>
      <trkpt lat="39.21197961" lon="-6.12516828"><ele>1211</ele><speed>11.25</speed><time>2016-06-21T13:06:22Z</time><pdop>13.0</pdop><geoidheight>53.00</geoidheight><course>311.4</course><type>1</type></trkpt>
      <trkpt lat="39.21225316" lon="-6.12525221"><ele>1211</ele><speed>9.75</speed><time>2016-06-21T13:06:25Z</time><pdop>12.0</pdop><geoidheight>53.00</geoidheight><course>357.9</course><type>1</type></trkpt>
      <trkpt lat="39.21232303" lon="-6.12499864"><ele>1213</ele><speed>5.25</speed><time>2016-06-21T13:06:30Z</time><pdop>11.0</pdop><geoidheight>53.00</geoidheight><course>107.0</course><type>1</type></trkpt>
      <trkpt lat="39.21228229" lon="-6.12472357"><ele>1215</ele><speed>4.00</speed><time>2016-06-21T13:06:36Z</time><pdop>10.0</pdop><geoidheight>53.00</geoidheight><course>96.0</course><type>1</type></trkpt>
      <trkpt lat="39.21235683" lon="-6.12446372"><ele>1216</ele><speed>6.25</speed><time>2016-06-21T13:06:40Z</time><pdop>10.0</pdop><geoidheight>53.00</geoidheight><course>59.3</course><type>1</type></trkpt>
      <trkpt lat="39.21248785" lon="-6.12424708"><ele>1220</ele><speed>6.25</speed><time>2016-06-21T13:06:44Z</time><pdop>10.0</pdop><geoidheight>53.00</geoidheight><course>46.4</course><type>1</type></trkpt>
      <trkpt lat="39.2126413" lon="-6.12407478"><ele>1220</ele><speed>7.75</speed><time>2016-06-21T13:06:47Z</time><pdop>10.0</pdop><geoidheight>53.00</geoidheight><course>40.0</course><type>1</type></trkpt>
      <trkpt lat="39.21274208" lon="-6.12388688"><ele>1220</ele><speed>6.25</speed><time>2016-06-21T13:06:50Z</time><pdop>9.0</pdop><geoidheight>53.00</geoidheight><course>62.9</course><type>1</type></trkpt>
      <trkpt lat="39.21272878" lon="-6.12361212"><ele>1219</ele><speed>5.50</speed><time>2016-06-21T13:06:54Z</time><pdop>11.0</pdop><geoidheight>53.00</geoidheight><course>96.5</course><type>1</type></trkpt>
      <trkpt lat="39.21250719" lon="-6.12337931"><ele>1219</ele><speed>6.25</speed><time>2016-06-21T13:06:59Z</time><pdop>12.0</pdop><geoidheight>53.00</geoidheight><course>143.4</course><type>1</type></trkpt>
      <trkpt lat="39.21227451" lon="-6.12320689"><ele>1219</ele><speed>7.75</speed><time>2016-06-21T13:07:02Z</time><pdop>13.0</pdop><geoidheight>53.00</geoidheight><course>146.7</course><type>1</type></trkpt>
      <trkpt lat="39.21212527" lon="-6.12298813"><ele>1219</ele><speed>6.75</speed><time>2016-06-21T13:07:05Z</time><pdop>10.0</pdop><geoidheight>53.00</geoidheight><course>123.5</course><type>1</type></trkpt>
      <trkpt lat="39.21208421" lon="-6.12273963"><ele>1219</ele><speed>6.75</speed><time>2016-06-21T13:07:08Z</time><pdop>11.0</pdop><geoidheight>53.00</geoidheight><course>88.3</course><type>1</type></trkpt>
      <trkpt lat="39.21232572" lon="-6.12265692"><ele>1217</ele><speed>6.75</speed><time>2016-06-21T13:07:12Z</time><pdop>11.0</pdop><geoidheight>53.00</geoidheight><course>7.4</course><type>1</type></trkpt>
      <trkpt lat="39.21257612" lon="-6.12270814"><ele>1216</ele><speed>8.00</speed><time>2016-06-21T13:07:15Z</time><pdop>12.0</pdop><geoidheight>53.00</geoidheight><course>351.2</course><type>1</type></trkpt>
      <trkpt lat="39.21285359" lon="-6.12282979"><ele>1216</ele><speed>9.75</speed><time>2016-06-21T13:07:18Z</time><pdop>13.0</pdop><geoidheight>53.00</geoidheight><course>338.5</course><type>1</type></trkpt>
      <trkpt lat="39.21309104" lon="-6.12295171"><ele>1215</ele><speed>11.50</speed><time>2016-06-21T13:07:20Z</time><pdop>13.0</pdop><geoidheight>53.00</geoidheight><course>334.8</course><type>1</type></trkpt>
      <trkpt lat="39.21333086" lon="-6.12311721"><ele>1215</ele><speed>12.25</speed><time>2016-06-21T13:07:22Z</time><pdop>11.0</pdop><geoidheight>53.00</geoidheight><course>326.2</course><type>1</type></trkpt>
      <trkpt lat="39.21356598" lon="-6.12329415"><ele>1212</ele><speed>13.00</speed><time>2016-06-21T13:07:24Z</time><pdop>10.0</pdop><geoidheight>53.00</geoidheight><course>324.1</course><type>1</type></trkpt>
      <trkpt lat="39.21377489" lon="-6.12341425"><ele>1211</ele><speed>11.75</speed><time>2016-06-21T13:07:26Z</time><pdop>11.0</pdop><geoidheight>53.00</geoidheight><course>333.4</course><type>1</type></trkpt>
      <trkpt lat="39.21394199" lon="-6.12326642"><ele>1209</ele><speed>6.50</speed><time>2016-06-21T13:07:29Z</time><pdop>10.0</pdop><geoidheight>53.00</geoidheight><course>42.1</course><type>1</type></trkpt>
      <trkpt lat="39.21389549" lon="-6.12300615"><ele>1208</ele><speed>4.25</speed><time>2016-06-21T13:07:34Z</time><pdop>10.0</pdop><geoidheight>53.00</geoidheight><course>112.9</course><type>1</type></trkpt>
      <trkpt lat="39.21378995" lon="-6.12278019"><ele>1208</ele><speed>6.00</speed><time>2016-06-21T13:07:38Z</time><pdop>10.0</pdop><geoidheight>53.00</geoidheight><course>125.0</course><type>1</type></trkpt>
      <trkpt lat="39.21363013" lon="-6.12255246"><ele>1208</ele><speed>6.00</speed><time>2016-06-21T13:07:42Z</time><pdop>11.0</pdop><geoidheight>53.00</geoidheight><course>134.2</course><type>1</type></trkpt>
      <trkpt lat="39.21344606" lon="-6.1224111"><ele>1207</ele><speed>6.00</speed><time>2016-06-21T13:07:46Z</time><pdop>12.0</pdop><geoidheight>53.00</geoidheight><course>148.1</course><type>1</type></trkpt>
      <trkpt lat="39.21323363" lon="-6.12214957"><ele>1206</ele><speed>6.25</speed><time>2016-06-21T13:07:52Z</time><pdop>11.0</pdop><geoidheight>53.00</geoidheight><course>132.4</course><type>1</type></trkpt>
      <trkpt lat="39.21317668" lon="-6.12184699"><ele>1206</ele><speed>5.25</speed><time>2016-06-21T13:07:57Z</time><pdop>10.0</pdop><geoidheight>53.00</geoidheight><course>98.1</course><type>1</type></trkpt>
      <trkpt lat="39.21322463" lon="-6.12161105"><ele>1207</ele><speed>5.75</speed><time>2016-06-21T13:08:01Z</time><pdop>9.0</pdop><geoidheight>53.00</geoidheight><course>61.9</course><type>1</type></trkpt>
      <trkpt lat="39.21329801" lon="-6.12140547"><ele>1208</ele><speed>6.50</speed><time>2016-06-21T13:08:04Z</time><pdop>10.0</pdop><geoidheight>53.00</geoidheight><course>67.2</course><type>1</type></trkpt>
      <trkpt lat="39.21333711" lon="-6.12117426"><ele>1209</ele><speed>6.50</speed><time>2016-06-21T13:08:07Z</time><pdop>10.0</pdop><geoidheight>53.00</geoidheight><course>78.4</course><type>1</type></trkpt>
      <trkpt lat="39.21315629" lon="-6.1210843"><ele>1216</ele><speed>7.50</speed><time>2016-06-21T13:08:13Z</time><pdop>10.0</pdop><geoidheight>53.00</geoidheight><course>206.7</course><type>1</type></trkpt>
      <trkpt lat="39.21305232" lon="-6.12131253"><ele>1221</ele><speed>11.25</speed><time>2016-06-21T13:08:15Z</time><pdop>9.0</pdop><geoidheight>53.00</geoidheight><course>239.8</course><type>1</type></trkpt>
      <trkpt lat="39.21303182" lon="-6.12154829"><ele>1225</ele><speed>10.00</speed><time>2016-06-21T13:08:17Z</time><pdop>10.0</pdop><geoidheight>53.00</geoidheight><course>265.9</course><type>1</type></trkpt>
      <trkpt lat="39.21313549" lon="-6.12188692"><ele>1226</ele><speed>11.00</speed><time>2016-06-21T13:08:20Z</time><pdop>10.0</pdop><geoidheight>53.00</geoidheight><course>297.6</course><type>1</type></trkpt>
      <trkpt lat="39.21329637" lon="-6.12208307"><ele>1226</ele><speed>11.75</speed><time>2016-06-21T13:08:22Z</time><pdop>10.0</pdop><geoidheight>53.00</geoidheight><course>313.0</course><type>1</type></trkpt>
      <trkpt lat="39.21347985" lon="-6.12211862"><ele>1227</ele><speed>10.25</speed><time>2016-06-21T13:08:24Z</time><pdop>10.0</pdop><geoidheight>53.00</geoidheight><course>337.2</course><type>1</type></trkpt>
      <trkpt lat="39.21370273" lon="-6.12208062"><ele>1229</ele><speed>10.50</speed><time>2016-06-21T13:08:26Z</time><pdop>9.0</pdop><geoidheight>53.00</geoidheight><course>6.8</course><type>1</type></trkpt>
      <trkpt lat="39.21389012" lon="-6.12195349"><ele>1230</ele><speed>7.50</speed><time>2016-06-21T13:08:29Z</time><pdop>11.0</pdop><geoidheight>53.00</geoidheight><course>36.6</course><type>1</type></trkpt>
      <trkpt lat="39.2136931" lon="-6.12224323"><ele>1246</ele><speed>10.00</speed><time>2016-06-21T13:08:39Z</time><pdop>10.0</pdop><geoidheight>53.00</geoidheight><course>265.3</course><type>1</type></trkpt>
      <trkpt lat="39.21374322" lon="-6.12250077"><ele>1249</ele><speed>11.75</speed><time>2016-06-21T13:08:41Z</time><pdop>10.0</pdop><geoidheight>53.00</geoidheight><course>286.9</course><type>1</type></trkpt>
      <trkpt lat="39.21383046" lon="-6.12272977"><ele>1251</ele><speed>11.25</speed><time>2016-06-21T13:08:43Z</time><pdop>10.0</pdop><geoidheight>53.00</geoidheight><course>299.4</course><type>1</type></trkpt>
      <trkpt lat="39.2139594" lon="-6.12292687"><ele>1254</ele><speed>11.50</speed><time>2016-06-21T13:08:45Z</time><pdop>10.0</pdop><geoidheight>53.00</geoidheight><course>309.5</course><type>1</type></trkpt>
      <trkpt lat="39.21420172" lon="-6.12320904"><ele>1257</ele><speed>11.50</speed><time>2016-06-21T13:08:48Z</time><pdop>11.0</pdop><geoidheight>53.00</geoidheight><course>318.6</course><type>1</type></trkpt>
      <trkpt lat="39.21447219" lon="-6.12326677"><ele>1259</ele><speed>10.50</speed><time>2016-06-21T13:08:51Z</time><pdop>10.0</pdop><geoidheight>53.00</geoidheight><course>354.8</course><type>1</type></trkpt>
      <trkpt lat="39.21470702" lon="-6.1231918"><ele>1261</ele><speed>8.75</speed><time>2016-06-21T13:08:54Z</time><pdop>12.0</pdop><geoidheight>53.00</geoidheight><course>19.1</course><type>1</type></trkpt>
      <trkpt lat="39.21473281" lon="-6.12284674"><ele>1264</ele><speed>4.25</speed><time>2016-06-21T13:08:59Z</time><pdop>14.0</pdop><geoidheight>53.00</geoidheight><course>112.5</course><type>1</type></trkpt>
      <trkpt lat="39.21451103" lon="-6.12308194"><ele>1272</ele><speed>6.50</speed><time>2016-06-21T13:09:05Z</time><pdop>14.0</pdop><geoidheight>53.00</geoidheight><course>231.5</course><type>1</type></trkpt>
      <trkpt lat="39.21465139" lon="-6.12343169"><ele>1276</ele><speed>11.25</speed><time>2016-06-21T13:09:07Z</time><pdop>12.0</pdop><geoidheight>53.00</geoidheight><course>290.6</course><type>1</type></trkpt>
      <trkpt lat="39.21476467" lon="-6.12373218"><ele>1278</ele><speed>13.75</speed><time>2016-06-21T13:09:09Z</time><pdop>12.0</pdop><geoidheight>53.00</geoidheight><course>302.2</course><type>1</type></trkpt>
      <trkpt lat="39.21495344" lon="-6.12389188"><ele>1282</ele><speed>12.50</speed><time>2016-06-21T13:09:11Z</time><pdop>10.0</pdop><geoidheight>53.00</geoidheight><course>334.0</course><type>1</type></trkpt>
      <trkpt lat="39.21514169" lon="-6.12401878"><ele>1286</ele><speed>12.75</speed><time>2016-06-21T13:09:13Z</time><pdop>11.0</pdop><geoidheight>53.00</geoidheight><course>345.8</course><type>1</type></trkpt>
      <trkpt lat="39.21541968" lon="-6.1240192"><ele>1288</ele><speed>11.50</speed><time>2016-06-21T13:09:16Z</time><pdop>12.0</pdop><geoidheight>53.00</geoidheight><course>0.2</course><type>1</type></trkpt>
      <trkpt lat="39.21533268" lon="-6.12374664"><ele>1288</ele><speed>5.50</speed><time>2016-06-21T13:09:19Z</time><pdop>11.0</pdop><geoidheight>53.00</geoidheight><course>83.0</course><type>1</type></trkpt>
      <trkpt lat="39.21512557" lon="-6.12380193"><ele>1294</ele><speed>9.00</speed><time>2016-06-21T13:09:25Z</time><pdop>10.0</pdop><geoidheight>53.00</geoidheight><course>223.5</course><type>1</type></trkpt>
      <trkpt lat="39.21513346" lon="-6.1241205"><ele>1299</ele><speed>12.50</speed><time>2016-06-21T13:09:27Z</time><pdop>9.0</pdop><geoidheight>53.00</geoidheight><course>277.1</course><type>1</type></trkpt>
      <trkpt lat="39.2151862" lon="-6.12436267"><ele>1302</ele><speed>10.25</speed><time>2016-06-21T13:09:29Z</time><pdop>10.0</pdop><geoidheight>53.00</geoidheight><course>286.8</course><type>1</type></trkpt>
      <trkpt lat="39.21532243" lon="-6.12458748"><ele>1304</ele><speed>11.75</speed><time>2016-06-21T13:09:31Z</time><pdop>11.0</pdop><geoidheight>53.00</geoidheight><course>302.5</course><type>1</type></trkpt>
      <trkpt lat="39.21542702" lon="-6.12485073"><ele>1305</ele><speed>12.00</speed><time>2016-06-21T13:09:33Z</time><pdop>11.0</pdop><geoidheight>53.00</geoidheight><course>291.3</course><type>1</type></trkpt>
      <trkpt lat="39.2154604" lon="-6.12517"><ele>1307</ele><speed>9.50</speed><time>2016-06-21T13:09:36Z</time><pdop>12.0</pdop><geoidheight>53.00</geoidheight><course>275.1</course><type>1</type></trkpt>
      <trkpt lat="39.21528712" lon="-6.1253936"><ele>1305</ele><speed>7.25</speed><time>2016-06-21T13:09:39Z</time><pdop>10.0</pdop><geoidheight>53.00</geoidheight><course>215.6</course><type>1</type></trkpt>
      <trkpt lat="39.21504551" lon="-6.12537312"><ele>1302</ele><speed>6.50</speed><time>2016-06-21T13:09:43Z</time><pdop>13.0</pdop><geoidheight>53.00</geoidheight><course>159.2</course><type>1</type></trkpt>
      <trkpt lat="39.21472451" lon="-6.12517481"><ele>1304</ele><speed>5.75</speed><time>2016-06-21T13:09:50Z</time><pdop>13.0</pdop><geoidheight>53.00</geoidheight><course>149.0</course><type>1</type></trkpt>
      <trkpt lat="39.21457507" lon="-6.12493189"><ele>1304</ele><speed>4.50</speed><time>2016-06-21T13:09:55Z</time><pdop>11.0</pdop><geoidheight>53.00</geoidheight><course>122.7</course><type>1</type></trkpt>
      <trkpt lat="39.21447598" lon="-6.12464999"><ele>1309</ele><speed>5.00</speed><time>2016-06-21T13:10:01Z</time><pdop>11.0</pdop><geoidheight>53.00</geoidheight><course>111.8</course><type>1</type></trkpt>
      <trkpt lat="39.21433312" lon="-6.12445482"><ele>1313</ele><speed>4.75</speed><time>2016-06-21T13:10:06Z</time><pdop>11.0</pdop><geoidheight>53.00</geoidheight><course>149.3</course><type>1</type></trkpt>
      <trkpt lat="39.21422236" lon="-6.12467965"><ele>1320</ele><speed>9.75</speed><time>2016-06-21T13:10:08Z</time><pdop>9.0</pdop><geoidheight>53.00</geoidheight><course>237.1</course><type>1</type></trkpt>
      <trkpt lat="39.21414881" lon="-6.12492332"><ele>1325</ele><speed>11.25</speed><time>2016-06-21T13:10:10Z</time><pdop>10.0</pdop><geoidheight>53.00</geoidheight><course>250.1</course><type>1</type></trkpt>
      <trkpt lat="39.21409973" lon="-6.12516284"><ele>1327</ele><speed>10.50</speed><time>2016-06-21T13:10:12Z</time><pdop>11.0</pdop><geoidheight>53.00</geoidheight><course>257.6</course><type>1</type></trkpt>
      <trkpt lat="39.21423588" lon="-6.12540379"><ele>1329</ele><speed>11.00</speed><time>2016-06-21T13:10:14Z</time><pdop>11.0</pdop><geoidheight>53.00</geoidheight><course>298.1</course><type>1</type></trkpt>
      <trkpt lat="39.21448217" lon="-6.12555664"><ele>1332</ele><speed>10.00</speed><time>2016-06-21T13:10:17Z</time><pdop>10.0</pdop><geoidheight>53.00</geoidheight><course>339.0</course><type>1</type></trkpt>
      <trkpt lat="39.21469459" lon="-6.12545911"><ele>1335</ele><speed>6.00</speed><time>2016-06-21T13:10:21Z</time><pdop>11.0</pdop><geoidheight>53.00</geoidheight><course>41.9</course><type>1</type></trkpt>
      <trkpt lat="39.21448435" lon="-6.12558034"><ele>1351</ele><speed>12.25</speed><time>2016-06-21T13:10:30Z</time><pdop>10.0</pdop><geoidheight>53.00</geoidheight><course>252.1</course><type>1</type></trkpt>
      <trkpt lat="39.21451513" lon="-6.12589"><ele>1353</ele><speed>13.00</speed><time>2016-06-21T13:10:32Z</time><pdop>10.0</pdop><geoidheight>53.00</geoidheight><course>275.6</course><type>1</type></trkpt>
      <trkpt lat="39.21471216" lon="-6.12617348"><ele>1354</ele><speed>11.00</speed><time>2016-06-21T13:10:35Z</time><pdop>11.0</pdop><geoidheight>53.00</geoidheight><course>309.6</course><type>1</type></trkpt>
      <trkpt lat="39.21506704" lon="-6.12631159"><ele>1359</ele><speed>10.00</speed><time>2016-06-21T13:10:39Z</time><pdop>11.0</pdop><geoidheight>53.00</geoidheight><course>350.1</course><type>1</type></trkpt>
      <trkpt lat="39.2153263" lon="-6.12624853"><ele>1361</ele><speed>8.75</speed><time>2016-06-21T13:10:42Z</time><pdop>11.0</pdop><geoidheight>53.00</geoidheight><course>12.9</course><type>1</type></trkpt>
      <trkpt lat="39.21519713" lon="-6.12603543"><ele>1369</ele><speed>5.75</speed><time>2016-06-21T13:10:48Z</time><pdop>11.0</pdop><geoidheight>53.00</geoidheight><course>179.9</course><type>1</type></trkpt>
      <trkpt lat="39.21510359" lon="-6.12630464"><ele>1373</ele><speed>10.50</speed><time>2016-06-21T13:10:50Z</time><pdop>9.0</pdop><geoidheight>53.00</geoidheight><course>243.7</course><type>1</type></trkpt>
      <trkpt lat="39.21509441" lon="-6.12658076"><ele>1376</ele><speed>13.25</speed><time>2016-06-21T13:10:52Z</time><pdop>9.0</pdop><geoidheight>53.00</geoidheight><course>273.0</course><type>1</type></trkpt>
      <trkpt lat="39.2151816" lon="-6.12689496"><ele>1378</ele><speed>14.50</speed><time>2016-06-21T13:10:54Z</time><pdop>10.0</pdop><geoidheight>53.00</geoidheight><course>293.1</course><type>1</type></trkpt>
      <trkpt lat="39.21536338" lon="-6.12708245"><ele>1382</ele><speed>11.50</speed><time>2016-06-21T13:10:56Z</time><pdop>10.0</pdop><geoidheight>53.00</geoidheight><course>319.9</course><type>1</type></trkpt>
      <trkpt lat="39.21554055" lon="-6.12721781"><ele>1385</ele><speed>11.25</speed><time>2016-06-21T13:10:58Z</time><pdop>10.0</pdop><geoidheight>53.00</geoidheight><course>326.3</course><type>1</type></trkpt>
      <trkpt lat="39.21572384" lon="-6.12737064"><ele>1389</ele><speed>12.00</speed><time>2016-06-21T13:11:00Z</time><pdop>9.0</pdop><geoidheight>53.00</geoidheight><course>331.4</course><type>1</type></trkpt>
      <trkpt lat="39.21591008" lon="-6.12742299"><ele>1392</ele><speed>10.50</speed><time>2016-06-21T13:11:02Z</time><pdop>9.0</pdop><geoidheight>53.00</geoidheight><course>355.0</course><type>1</type></trkpt>
      <trkpt lat="39.21609745" lon="-6.12732246"><ele>1394</ele><speed>7.50</speed><time>2016-06-21T13:11:05Z</time><pdop>10.0</pdop><geoidheight>53.00</geoidheight><course>37.0</course><type>1</type></trkpt>
      <trkpt lat="39.21594384" lon="-6.12715292"><ele>1396</ele><speed>5.75</speed><time>2016-06-21T13:11:10Z</time><pdop>10.0</pdop><geoidheight>53.00</geoidheight><course>164.6</course><type>1</type></trkpt>
      <trkpt lat="39.21569138" lon="-6.12710672"><ele>1398</ele><speed>6.75</speed><time>2016-06-21T13:11:15Z</time><pdop>10.0</pdop><geoidheight>53.00</geoidheight><course>174.6</course><type>1</type></trkpt>
      <trkpt lat="39.21553611" lon="-6.12695668"><ele>1397</ele><speed>4.25</speed><time>2016-06-21T13:11:20Z</time><pdop>11.0</pdop><geoidheight>53.00</geoidheight><course>107.8</course><type>1</type></trkpt>
      <trkpt lat="39.21544058" lon="-6.12669078"><ele>1400</ele><speed>5.00</speed><time>2016-06-21T13:11:25Z</time><pdop>11.0</pdop><geoidheight>53.00</geoidheight><course>116.4</course><type>1</type></trkpt>
      <trkpt lat="39.21532429" lon="-6.12645403"><ele>1400</ele><speed>6.50</speed><time>2016-06-21T13:11:29Z</time><pdop>10.0</pdop><geoidheight>53.00</geoidheight><course>121.5</course><type>1</type></trkpt>
      <trkpt lat="39.21523495" lon="-6.12621723"><ele>1397</ele><speed>6.00</speed><time>2016-06-21T13:11:33Z</time><pdop>10.0</pdop><geoidheight>53.00</geoidheight><course>111.1</course><type>1</type></trkpt>
      <trkpt lat="39.21518424" lon="-6.1259596"><ele>1396</ele><speed>6.00</speed><time>2016-06-21T13:11:37Z</time><pdop>11.0</pdop><geoidheight>53.00</geoidheight><course>105.1</course><type>1</type></trkpt>
      <trkpt lat="39.21506325" lon="-6.1257367"><ele>1396</ele><speed>6.00</speed><time>2016-06-21T13:11:41Z</time><pdop>11.0</pdop><geoidheight>53.00</geoidheight><course>122.5</course><type>1</type></trkpt>
      <trkpt lat="39.21491292" lon="-6.12557462"><ele>1397</ele><speed>7.50</speed><time>2016-06-21T13:11:44Z</time><pdop>9.0</pdop><geoidheight>53.00</geoidheight><course>146.1</course><type>1</type></trkpt>
      <trkpt lat="39.2146892" lon="-6.12558606"><ele>1399</ele><speed>6.25</speed><time>2016-06-21T13:11:48Z</time><pdop>10.0</pdop><geoidheight>53.00</geoidheight><course>191.1</course><type>1</type></trkpt>
      <trkpt lat="39.21447069" lon="-6.12557508"><ele>1396</ele><speed>9.25</speed><time>2016-06-21T13:11:51Z</time><pdop>10.0</pdop><geoidheight>53.00</geoidheight><course>173.4</course><type>1</type></trkpt>
      <trkpt lat="39.21435794" lon="-6.12534323"><ele>1395</ele><speed>6.75</speed><time>2016-06-21T13:11:55Z</time><pdop>10.0</pdop><geoidheight>53.00</geoidheight><course>93.1</course><type>1</type></trkpt>
      <trkpt lat="39.2145178" lon="-6.12520034"><ele>1393</ele><speed>5.50</speed><time>2016-06-21T13:11:59Z</time><pdop>11.0</pdop><geoidheight>53.00</geoidheight><course>34.5</course><type>1</type></trkpt>
      <trkpt lat="39.21471738" lon="-6.12517282"><ele>1393</ele><speed>8.25</speed><time>2016-06-21T13:12:01Z</time><pdop>10.0</pdop><geoidheight>53.00</geoidheight><course>12.1</course><type>1</type></trkpt>
      <trkpt lat="39.21498986" lon="-6.12521044"><ele>1392</ele><speed>9.00</speed><time>2016-06-21T13:12:04Z</time><pdop>10.0</pdop><geoidheight>53.00</geoidheight><course>343.9</course><type>1</type></trkpt>
      <trkpt lat="39.21513953" lon="-6.12551356"><ele>1391</ele><speed>10.25</speed><time>2016-06-21T13:12:07Z</time><pdop>9.0</pdop><geoidheight>53.00</geoidheight><course>291.4</course><type>1</type></trkpt>
      <trkpt lat="39.21519313" lon="-6.12575887"><ele>1392</ele><speed>10.25</speed><time>2016-06-21T13:12:09Z</time><pdop>10.0</pdop><geoidheight>53.00</geoidheight><course>284.2</course><type>1</type></trkpt>
      <trkpt lat="39.21518955" lon="-6.12608238"><ele>1392</ele><speed>9.00</speed><time>2016-06-21T13:12:12Z</time><pdop>11.0</pdop><geoidheight>53.00</geoidheight><course>262.9</course><type>1</type></trkpt>
      <trkpt lat="39.21505005" lon="-6.12630209"><ele>1392</ele><speed>9.75</speed><time>2016-06-21T13:12:14Z</time><pdop>10.0</pdop><geoidheight>53.00</geoidheight><course>231.2</course><type>1</type></trkpt>
      <trkpt lat="39.21483183" lon="-6.12623875"><ele>1390</ele><speed>7.00</speed><time>2016-06-21T13:12:17Z</time><pdop>10.0</pdop><geoidheight>53.00</geoidheight><course>150.6</course><type>1</type></trkpt>
      <trkpt lat="39.21484596" lon="-6.12600269"><ele>1391</ele><speed>5.00</speed><time>2016-06-21T13:12:21Z</time><pdop>10.0</pdop><geoidheight>53.00</geoidheight><course>62.9</course><type>1</type></trkpt>
      <trkpt lat="39.21505006" lon="-6.12581142"><ele>1386</ele><speed>8.25</speed><time>2016-06-21T13:12:25Z</time><pdop>10.0</pdop><geoidheight>53.00</geoidheight><course>28.3</course><type>1</type></trkpt>
      <trkpt lat="39.21528271" lon="-6.12573476"><ele>1169</ele><speed>9.00</speed><time>2016-06-21T13:12:28Z</time><pdop>9.0</pdop><geoidheight>53.00</geoidheight><course>13.6</course><type>1</type></trkpt>
      <trkpt lat="39.21546314" lon="-6.12572641"><ele>1303</ele><speed>10.00</speed><time>2016-06-21T13:12:30Z</time><pdop>10.0</pdop><geoidheight>53.00</geoidheight><course>2.0</course><type>1</type></trkpt>
      <trkpt lat="39.21567648" lon="-6.1258021"><ele>1356</ele><speed>8.25</speed><time>2016-06-21T13:12:33Z</time><pdop>10.0</pdop><geoidheight>53.00</geoidheight><course>341.7</course><type>1</type></trkpt>
      <trkpt lat="39.21583388" lon="-6.12599707"><ele>1332</ele><speed>8.50</speed><time>2016-06-21T13:12:36Z</time><pdop>10.0</pdop><geoidheight>53.00</geoidheight><course>308.0</course><type>1</type></trkpt>
      <trkpt lat="39.21590005" lon="-6.12622356"><ele>1361</ele><speed>9.50</speed><time>2016-06-21T13:12:38Z</time><pdop>10.0</pdop><geoidheight>53.00</geoidheight><course>289.8</course><type>1</type></trkpt>
      <trkpt lat="39.21584391" lon="-6.12650839"><ele>1371</ele><speed>8.25</speed><time>2016-06-21T13:12:41Z</time><pdop>10.0</pdop><geoidheight>53.00</geoidheight><course>245.5</course><type>1</type></trkpt>
      <trkpt lat="39.21569101" lon="-6.12673051"><ele>1380</ele><speed>7.25</speed><time>2016-06-21T13:12:44Z</time><pdop>10.0</pdop><geoidheight>53.00</geoidheight><course>230.2</course><type>1</type></trkpt>
      <trkpt lat="39.21552788" lon="-6.12690251"><ele>1382</ele><speed>7.75</speed><time>2016-06-21T13:12:47Z</time><pdop>9.0</pdop><geoidheight>53.00</geoidheight><course>210.8</course><type>1</type></trkpt>
      <trkpt lat="39.21529759" lon="-6.126887"><ele>1378</ele><speed>9.25</speed><time>2016-06-21T13:12:50Z</time><pdop>11.0</pdop><geoidheight>53.00</geoidheight><course>174.8</course><type>1</type></trkpt>
      <trkpt lat="39.21525072" lon="-6.12662447"><ele>1383</ele><speed>7.00</speed><time>2016-06-21T13:12:53Z</time><pdop>9.0</pdop><geoidheight>53.00</geoidheight><course>95.9</course><type>1</type></trkpt>
      <trkpt lat="39.2153452" lon="-6.12641821"><ele>1382</ele><speed>6.75</speed><time>2016-06-21T13:12:56Z</time><pdop>9.0</pdop><geoidheight>53.00</geoidheight><course>45.4</course><type>1</type></trkpt>
      <trkpt lat="39.21551375" lon="-6.12624301"><ele>1378</ele><speed>8.25</speed><time>2016-06-21T13:12:59Z</time><pdop>10.0</pdop><geoidheight>53.00</geoidheight><course>35.6</course><type>1</type></trkpt>
      <trkpt lat="39.21570632" lon="-6.12622177"><ele>1375</ele><speed>9.50</speed><time>2016-06-21T13:13:01Z</time><pdop>10.0</pdop><geoidheight>53.00</geoidheight><course>5.2</course><type>1</type></trkpt>
      <trkpt lat="39.21594556" lon="-6.12633204"><ele>1376</ele><speed>10.00</speed><time>2016-06-21T13:13:04Z</time><pdop>11.0</pdop><geoidheight>53.00</geoidheight><course>340.7</course><type>1</type></trkpt>
      <trkpt lat="39.21612925" lon="-6.12657219"><ele>1376</ele><speed>8.75</speed><time>2016-06-21T13:13:07Z</time><pdop>10.0</pdop><geoidheight>53.00</geoidheight><course>316.4</course><type>1</type></trkpt>
      <trkpt lat="39.21622529" lon="-6.12677941"><ele>1373</ele><speed>10.00</speed><time>2016-06-21T13:13:09Z</time><pdop>10.0</pdop><geoidheight>53.00</geoidheight><course>302.4</course><type>1</type></trkpt>
      <trkpt lat="39.21633469" lon="-6.12701881"><ele>1368</ele><speed>11.75</speed><time>2016-06-21T13:13:11Z</time><pdop>10.0</pdop><geoidheight>53.00</geoidheight><course>299.2</course><type>1</type></trkpt>
      <trkpt lat="39.21641092" lon="-6.12727424"><ele>1371</ele><speed>11.75</speed><time>2016-06-21T13:13:13Z</time><pdop>9.0</pdop><geoidheight>53.00</geoidheight><course>291.1</course><type>1</type></trkpt>
      <trkpt lat="39.21646463" lon="-6.12749586"><ele>1370</ele><speed>9.75</speed><time>2016-06-21T13:13:15Z</time><pdop>9.0</pdop><geoidheight>53.00</geoidheight><course>284.9</course><type>1</type></trkpt>
      <trkpt lat="39.21651393" lon="-6.12772559"><ele>1368</ele><speed>11.25</speed><time>2016-06-21T13:13:17Z</time><pdop>10.0</pdop><geoidheight>53.00</geoidheight><course>282.0</course><type>1</type></trkpt>
      <trkpt lat="39.21655349" lon="-6.12796667"><ele>1368</ele><speed>10.50</speed><time>2016-06-21T13:13:19Z</time><pdop>11.0</pdop><geoidheight>53.00</geoidheight><course>280.5</course><type>1</type></trkpt>
      <trkpt lat="39.21646865" lon="-6.12823643"><ele>1367</ele><speed>8.50</speed><time>2016-06-21T13:13:22Z</time><pdop>10.0</pdop><geoidheight>53.00</geoidheight><course>242.1</course><type>1</type></trkpt>
      <trkpt lat="39.21632962" lon="-6.12840242"><ele>1365</ele><speed>6.75</speed><time>2016-06-21T13:13:25Z</time><pdop>10.0</pdop><geoidheight>53.00</geoidheight><course>220.9</course><type>1</type></trkpt>
      <trkpt lat="39.21611804" lon="-6.12841123"><ele>1364</ele><speed>8.00</speed><time>2016-06-21T13:13:28Z</time><pdop>9.0</pdop><geoidheight>53.00</geoidheight><course>177.4</course><type>1</type></trkpt>
      <trkpt lat="39.21597286" lon="-6.1282913"><ele>1364</ele><speed>5.50</speed><time>2016-06-21T13:13:31Z</time><pdop>10.0</pdop><geoidheight>53.00</geoidheight><course>131.2</course><type>1</type></trkpt>
      <trkpt lat="39.21597661" lon="-6.12798563"><ele>1363</ele><speed>6.00</speed><time>2016-06-21T13:13:35Z</time><pdop>9.0</pdop><geoidheight>53.00</geoidheight><course>69.1</course><type>1</type></trkpt>
      <trkpt lat="39.21615983" lon="-6.12786844"><ele>1359</ele><speed>8.25</speed><time>2016-06-21T13:13:38Z</time><pdop>10.0</pdop><geoidheight>53.00</geoidheight><course>15.2</course><type>1</type></trkpt>
      <trkpt lat="39.21644838" lon="-6.12785004"><ele>1359</ele><speed>11.00</speed><time>2016-06-21T13:13:41Z</time><pdop>10.0</pdop><geoidheight>53.00</geoidheight><course>1.7</course><type>1</type></trkpt>
      <trkpt lat="39.2167154" lon="-6.12787242"><ele>1358</ele><speed>9.75</speed><time>2016-06-21T13:13:44Z</time><pdop>10.0</pdop><geoidheight>53.00</geoidheight><course>355.2</course><type>1</type></trkpt>
      <trkpt lat="39.21691986" lon="-6.12791561"><ele>1355</ele><speed>11.00</speed><time>2016-06-21T13:13:46Z</time><pdop>10.0</pdop><geoidheight>53.00</geoidheight><course>347.4</course><type>1</type></trkpt>
      <trkpt lat="39.21712425" lon="-6.12800123"><ele>1352</ele><speed>11.25</speed><time>2016-06-21T13:13:48Z</time><pdop>9.0</pdop><geoidheight>53.00</geoidheight><course>342.0</course><type>1</type></trkpt>
      <trkpt lat="39.21731952" lon="-6.128099"><ele>1349</ele><speed>11.75</speed><time>2016-06-21T13:13:50Z</time><pdop>10.0</pdop><geoidheight>53.00</geoidheight><course>339.5</course><type>1</type></trkpt>
      <trkpt lat="39.21751951" lon="-6.12821118"><ele>1348</ele><speed>12.50</speed><time>2016-06-21T13:13:52Z</time><pdop>10.0</pdop><geoidheight>53.00</geoidheight><course>337.2</course><type>1</type></trkpt>
      <trkpt lat="39.21772649" lon="-6.12835923"><ele>1347</ele><speed>13.00</speed><time>2016-06-21T13:13:54Z</time><pdop>11.0</pdop><geoidheight>53.00</geoidheight><course>331.5</course><type>1</type></trkpt>
      <trkpt lat="39.21791899" lon="-6.12850806"><ele>1346</ele><speed>12.50</speed><time>2016-06-21T13:13:56Z</time><pdop>11.0</pdop><geoidheight>53.00</geoidheight><course>328.6</course><type>1</type></trkpt>
      <trkpt lat="39.21807669" lon="-6.12865898"><ele>1346</ele><speed>11.25</speed><time>2016-06-21T13:13:58Z</time><pdop>10.0</pdop><geoidheight>53.00</geoidheight><course>325.6</course><type>1</type></trkpt>
      <trkpt lat="39.21822421" lon="-6.12884394"><ele>1345</ele><speed>12.00</speed><time>2016-06-21T13:14:00Z</time><pdop>10.0</pdop><geoidheight>53.00</geoidheight><course>317.7</course><type>1</type></trkpt>
      <trkpt lat="39.21838391" lon="-6.12903564"><ele>1344</ele><speed>12.50</speed><time>2016-06-21T13:14:02Z</time><pdop>11.0</pdop><geoidheight>53.00</geoidheight><course>317.8</course><type>1</type></trkpt>
      <trkpt lat="39.21855964" lon="-6.1292378"><ele>1343</ele><speed>12.75</speed><time>2016-06-21T13:14:04Z</time><pdop>10.0</pdop><geoidheight>53.00</geoidheight><course>315.3</course><type>1</type></trkpt>
      <trkpt lat="39.21868316" lon="-6.1294955"><ele>1338</ele><speed>12.25</speed><time>2016-06-21T13:14:06Z</time><pdop>10.0</pdop><geoidheight>53.00</geoidheight><course>300.5</course><type>1</type></trkpt>
      <trkpt lat="39.21879993" lon="-6.12974174"><ele>1338</ele><speed>12.50</speed><time>2016-06-21T13:14:08Z</time><pdop>10.0</pdop><geoidheight>53.00</geoidheight><course>301.2</course><type>1</type></trkpt>
      <trkpt lat="39.21894697" lon="-6.12989313"><ele>1336</ele><speed>11.50</speed><time>2016-06-21T13:14:10Z</time><pdop>10.0</pdop><geoidheight>53.00</geoidheight><course>317.6</course><type>1</type></trkpt>
      <trkpt lat="39.21915871" lon="-6.12993454"><ele>1332</ele><speed>11.75</speed><time>2016-06-21T13:14:12Z</time><pdop>10.0</pdop><geoidheight>53.00</geoidheight><course>341.9</course><type>1</type></trkpt>
      <trkpt lat="39.21936725" lon="-6.1297679"><ele>1325</ele><speed>8.50</speed><time>2016-06-21T13:14:15Z</time><pdop>10.0</pdop><geoidheight>53.00</geoidheight><course>34.4</course><type>1</type></trkpt>
      <trkpt lat="39.21942421" lon="-6.12953382"><ele>1323</ele><speed>7.25</speed><time>2016-06-21T13:14:18Z</time><pdop>10.0</pdop><geoidheight>53.00</geoidheight><course>71.9</course><type>1</type></trkpt>
      <trkpt lat="39.21948658" lon="-6.12928024"><ele>1322</ele><speed>7.25</speed><time>2016-06-21T13:14:21Z</time><pdop>11.0</pdop><geoidheight>53.00</geoidheight><course>71.5</course><type>1</type></trkpt>
      <trkpt lat="39.21943595" lon="-6.12897449"><ele>1317</ele><speed>7.25</speed><time>2016-06-21T13:14:25Z</time><pdop>10.0</pdop><geoidheight>53.00</geoidheight><course>102.9</course><type>1</type></trkpt>
      <trkpt lat="39.21934288" lon="-6.12875999"><ele>1308</ele><speed>6.75</speed><time>2016-06-21T13:14:28Z</time><pdop>9.0</pdop><geoidheight>53.00</geoidheight><course>114.7</course><type>1</type></trkpt>
      <trkpt lat="39.21922892" lon="-6.12855655"><ele>1303</ele><speed>6.25</speed><time>2016-06-21T13:14:31Z</time><pdop>9.0</pdop><geoidheight>53.00</geoidheight><course>117.4</course><type>1</type></trkpt>
      <trkpt lat="39.21910739" lon="-6.12836304"><ele>1297</ele><speed>7.25</speed><time>2016-06-21T13:14:34Z</time><pdop>9.0</pdop><geoidheight>53.00</geoidheight><course>128.1</course><type>1</type></trkpt>
      <trkpt lat="39.21898534" lon="-6.12817961"><ele>1293</ele><speed>6.25</speed><time>2016-06-21T13:14:37Z</time><pdop>10.0</pdop><geoidheight>53.00</geoidheight><course>128.4</course><type>1</type></trkpt>
      <trkpt lat="39.21884786" lon="-6.12799792"><ele>1290</ele><speed>7.25</speed><time>2016-06-21T13:14:40Z</time><pdop>10.0</pdop><geoidheight>53.00</geoidheight><course>133.1</course><type>1</type></trkpt>
      <trkpt lat="39.2187062" lon="-6.12781889"><ele>1287</ele><speed>7.75</speed><time>2016-06-21T13:14:43Z</time><pdop>11.0</pdop><geoidheight>53.00</geoidheight><course>133.6</course><type>1</type></trkpt>
      <trkpt lat="39.21850342" lon="-6.12761206"><ele>1284</ele><speed>7.25</speed><time>2016-06-21T13:14:47Z</time><pdop>11.0</pdop><geoidheight>53.00</geoidheight><course>139.3</course><type>1</type></trkpt>
      <trkpt lat="39.21832713" lon="-6.1273756"><ele>1284</ele><speed>7.00</speed><time>2016-06-21T13:14:51Z</time><pdop>12.0</pdop><geoidheight>53.00</geoidheight><course>137.0</course><type>1</type></trkpt>
      <trkpt lat="39.21811806" lon="-6.12714589"><ele>1280</ele><speed>7.50</speed><time>2016-06-21T13:14:55Z</time><pdop>13.0</pdop><geoidheight>53.00</geoidheight><course>135.8</course><type>1</type></trkpt>
      <trkpt lat="39.2179212" lon="-6.12695269"><ele>1276</ele><speed>6.75</speed><time>2016-06-21T13:14:59Z</time><pdop>12.0</pdop><geoidheight>53.00</geoidheight><course>138.4</course><type>1</type></trkpt>
      <trkpt lat="39.21776137" lon="-6.12668084"><ele>1264</ele><speed>6.50</speed><time>2016-06-21T13:15:06Z</time><pdop>10.0</pdop><geoidheight>53.00</geoidheight><course>133.9</course><type>1</type></trkpt>
      <trkpt lat="39.21758656" lon="-6.12651485"><ele>1254</ele><speed>6.75</speed><time>2016-06-21T13:15:10Z</time><pdop>10.0</pdop><geoidheight>53.00</geoidheight><course>140.5</course><type>1</type></trkpt>
      <trkpt lat="39.21740954" lon="-6.12635217"><ele>1240</ele><speed>6.50</speed><time>2016-06-21T13:15:14Z</time><pdop>11.0</pdop><geoidheight>53.00</geoidheight><course>138.1</course><type>1</type></trkpt>
      <trkpt lat="39.21721874" lon="-6.12613442"><ele>1236</ele><speed>7.00</speed><time>2016-06-21T13:15:18Z</time><pdop>11.0</pdop><geoidheight>53.00</geoidheight><course>136.9</course><type>1</type></trkpt>
      <trkpt lat="39.21703797" lon="-6.12592489"><ele>1230</ele><speed>7.00</speed><time>2016-06-21T13:15:22Z</time><pdop>11.0</pdop><geoidheight>53.00</geoidheight><course>136.3</course><type>1</type></trkpt>
      <trkpt lat="39.21685338" lon="-6.12571634"><ele>1227</ele><speed>7.00</speed><time>2016-06-21T13:15:26Z</time><pdop>11.0</pdop><geoidheight>53.00</geoidheight><course>136.3</course><type>1</type></trkpt>
      <trkpt lat="39.2166831" lon="-6.12546535"><ele>1223</ele><speed>7.25</speed><time>2016-06-21T13:15:30Z</time><pdop>11.0</pdop><geoidheight>53.00</geoidheight><course>132.7</course><type>1</type></trkpt>
      <trkpt lat="39.21653464" lon="-6.12524555"><ele>1219</ele><speed>6.25</speed><time>2016-06-21T13:15:34Z</time><pdop>10.0</pdop><geoidheight>53.00</geoidheight><course>132.1</course><type>1</type></trkpt>
      <trkpt lat="39.21642481" lon="-6.12499578"><ele>1197</ele><speed>5.75</speed><time>2016-06-21T13:15:40Z</time><pdop>10.0</pdop><geoidheight>53.00</geoidheight><course>121.4</course><type>1</type></trkpt>
      <trkpt lat="39.21631567" lon="-6.12472135"><ele>1192</ele><speed>7.25</speed><time>2016-06-21T13:15:44Z</time><pdop>10.0</pdop><geoidheight>53.00</geoidheight><course>112.1</course><type>1</type></trkpt>
      <trkpt lat="39.216263" lon="-6.12441796"><ele>1189</ele><speed>6.75</speed><time>2016-06-21T13:15:48Z</time><pdop>10.0</pdop><geoidheight>53.00</geoidheight><course>99.5</course><type>1</type></trkpt>
      <trkpt lat="39.21621776" lon="-6.12416085"><ele>1187</ele><speed>7.75</speed><time>2016-06-21T13:15:51Z</time><pdop>11.0</pdop><geoidheight>53.00</geoidheight><course>106.4</course><type>1</type></trkpt>
      <trkpt lat="39.21613297" lon="-6.12390326"><ele>1182</ele><speed>6.50</speed><time>2016-06-21T13:15:55Z</time><pdop>11.0</pdop><geoidheight>53.00</geoidheight><course>110.3</course><type>1</type></trkpt>
      <trkpt lat="39.21600309" lon="-6.12372418"><ele>1168</ele><speed>6.50</speed><time>2016-06-21T13:15:59Z</time><pdop>10.0</pdop><geoidheight>53.00</geoidheight><course>129.2</course><type>1</type></trkpt>
      <trkpt lat="39.21582355" lon="-6.12357959"><ele>1147</ele><speed>6.75</speed><time>2016-06-21T13:16:03Z</time><pdop>10.0</pdop><geoidheight>53.00</geoidheight><course>134.2</course><type>1</type></trkpt>
      <trkpt lat="39.21561399" lon="-6.12339631"><ele>1137</ele><speed>7.25</speed><time>2016-06-21T13:16:07Z</time><pdop>11.0</pdop><geoidheight>53.00</geoidheight><course>147.2</course><type>1</type></trkpt>
      <trkpt lat="39.21539476" lon="-6.12325798"><ele>1131</ele><speed>8.75</speed><time>2016-06-21T13:16:10Z</time><pdop>12.0</pdop><geoidheight>53.00</geoidheight><course>153.0</course><type>1</type></trkpt>
      <trkpt lat="39.21514622" lon="-6.12319932"><ele>1128</ele><speed>7.25</speed><time>2016-06-21T13:16:14Z</time><pdop>12.0</pdop><geoidheight>53.00</geoidheight><course>164.4</course><type>1</type></trkpt>
      <trkpt lat="39.21492938" lon="-6.12301288"><ele>1126</ele><speed>4.75</speed><time>2016-06-21T13:16:20Z</time><pdop>15.0</pdop><geoidheight>53.00</geoidheight><course>139.2</course><type>1</type></trkpt>
      <trkpt lat="39.21469496" lon="-6.12280679"><ele>1112</ele><speed>6.25</speed><time>2016-06-21T13:16:26Z</time><pdop>9.0</pdop><geoidheight>53.00</geoidheight><course>139.9</course><type>1</type></trkpt>
      <trkpt lat="39.21455252" lon="-6.12269814"><ele>1097</ele><speed>3.50</speed><time>2016-06-21T13:16:31Z</time><pdop>6.0</pdop><geoidheight>53.00</geoidheight><course>154.1</course><type>1</type></trkpt>
      <trkpt lat="39.2144184" lon="-6.1226699"><ele>1086</ele><speed>5.25</speed><time>2016-06-21T13:16:34Z</time><pdop>7.0</pdop><geoidheight>53.00</geoidheight><course>168.0</course><type>1</type></trkpt>
      <trkpt lat="39.2143306" lon="-6.1225856"><ele>1074</ele><speed>7.00</speed><time>2016-06-21T13:16:36Z</time><pdop>5.0</pdop><geoidheight>53.00</geoidheight><course>149.7</course><type>1</type></trkpt>
      <trkpt lat="39.2142148" lon="-6.12248793"><ele>1069</ele><speed>7.75</speed><time>2016-06-21T13:16:38Z</time><pdop>5.0</pdop><geoidheight>53.00</geoidheight><course>145.4</course><type>1</type></trkpt>
      <trkpt lat="39.2141156" lon="-6.12233892"><ele>1067</ele><speed>8.50</speed><time>2016-06-21T13:16:40Z</time><pdop>4.0</pdop><geoidheight>53.00</geoidheight><course>128.6</course><type>1</type></trkpt>
      <trkpt lat="39.21404488" lon="-6.12218678"><ele>1063</ele><speed>7.75</speed><time>2016-06-21T13:16:42Z</time><pdop>5.0</pdop><geoidheight>53.00</geoidheight><course>126.6</course><type>1</type></trkpt>
      <trkpt lat="39.21391456" lon="-6.12210027"><ele>1054</ele><speed>6.25</speed><time>2016-06-21T13:16:45Z</time><pdop>4.0</pdop><geoidheight>53.00</geoidheight><course>155.6</course><type>1</type></trkpt>
      <trkpt lat="39.21385429" lon="-6.1220702"><ele>1053</ele><speed>6.75</speed><time>2016-06-21T13:16:46Z</time><pdop>3.0</pdop><geoidheight>53.00</geoidheight><course>162.7</course><type>1</type></trkpt>
      <trkpt lat="39.21378863" lon="-6.12204396"><ele>1051</ele><speed>7.50</speed><time>2016-06-21T13:16:47Z</time><pdop>3.0</pdop><geoidheight>53.00</geoidheight><course>164.1</course><type>1</type></trkpt>
      <trkpt lat="39.2137191" lon="-6.1220224"><ele>1052</ele><speed>8.00</speed><time>2016-06-21T13:16:48Z</time><pdop>3.0</pdop><geoidheight>53.00</geoidheight><course>162.9</course><type>1</type></trkpt>
      <trkpt lat="39.21364501" lon="-6.12200354"><ele>1053</ele><speed>4.00</speed><time>2016-06-21T13:16:50Z</time><pdop>4.0</pdop><geoidheight>53.00</geoidheight><course>177.3</course><type>1</type></trkpt>
      <trkpt lat="39.21355204" lon="-6.12205811"><ele>1053</ele><speed>5.00</speed><time>2016-06-21T13:16:53Z</time><pdop>3.0</pdop><geoidheight>53.00</geoidheight><course>194.8</course><type>1</type></trkpt>
      <trkpt lat="39.21346334" lon="-6.12210078"><ele>1052</ele><speed>5.25</speed><time>2016-06-21T13:16:55Z</time><pdop>4.0</pdop><geoidheight>53.00</geoidheight><course>203.6</course><type>1</type></trkpt>
      <trkpt lat="39.21341695" lon="-6.12217234"><ele>1053</ele><speed>6.75</speed><time>2016-06-21T13:16:56Z</time><pdop>4.0</pdop><geoidheight>53.00</geoidheight><course>226.6</course><type>1</type></trkpt>
      <trkpt lat="39.21327874" lon="-6.12248712"><ele>1048</ele><speed>8.50</speed><time>2016-06-21T13:17:00Z</time><pdop>4.0</pdop><geoidheight>53.00</geoidheight><course>233.6</course><type>1</type></trkpt>
      <trkpt lat="39.21321285" lon="-6.12254848"><ele>1045</ele><speed>9.25</speed><time>2016-06-21T13:17:01Z</time><pdop>4.0</pdop><geoidheight>53.00</geoidheight><course>221.2</course><type>1</type></trkpt>
      <trkpt lat="39.21308836" lon="-6.12256107"><ele>1039</ele><speed>7.00</speed><time>2016-06-21T13:17:03Z</time><pdop>4.0</pdop><geoidheight>53.00</geoidheight><course>177.5</course><type>1</type></trkpt>
      <trkpt lat="39.21293974" lon="-6.12246075"><ele>1038</ele><speed>6.25</speed><time>2016-06-21T13:17:06Z</time><pdop>5.0</pdop><geoidheight>53.00</geoidheight><course>149.5</course><type>1</type></trkpt>
      <trkpt lat="39.21289298" lon="-6.12229621"><ele>1035</ele><speed>6.00</speed><time>2016-06-21T13:17:08Z</time><pdop>4.0</pdop><geoidheight>53.00</geoidheight><course>125.3</course><type>1</type></trkpt>
      <trkpt lat="39.21283046" lon="-6.12218614"><ele>1034</ele><speed>6.00</speed><time>2016-06-21T13:17:10Z</time><pdop>5.0</pdop><geoidheight>53.00</geoidheight><course>136.5</course><type>1</type></trkpt>
      <trkpt lat="39.21276002" lon="-6.12208869"><ele>1033</ele><speed>5.75</speed><time>2016-06-21T13:17:12Z</time><pdop>5.0</pdop><geoidheight>53.00</geoidheight><course>135.4</course><type>1</type></trkpt>
      <trkpt lat="39.21266846" lon="-6.12199854"><ele>1032</ele><speed>4.50</speed><time>2016-06-21T13:17:15Z</time><pdop>5.0</pdop><geoidheight>53.00</geoidheight><course>152.0</course><type>1</type></trkpt>
      <trkpt lat="39.21256095" lon="-6.12195083"><ele>1031</ele><speed>6.50</speed><time>2016-06-21T13:17:17Z</time><pdop>4.0</pdop><geoidheight>53.00</geoidheight><course>164.8</course><type>1</type></trkpt>
      <trkpt lat="39.21245099" lon="-6.12189218"><ele>1031</ele><speed>6.50</speed><time>2016-06-21T13:17:19Z</time><pdop>4.0</pdop><geoidheight>53.00</geoidheight><course>159.8</course><type>1</type></trkpt>
      <trkpt lat="39.21233308" lon="-6.12183567"><ele>1031</ele><speed>7.00</speed><time>2016-06-21T13:17:21Z</time><pdop>5.0</pdop><geoidheight>53.00</geoidheight><course>160.1</course><type>1</type></trkpt>
      <trkpt lat="39.21220961" lon="-6.12174265"><ele>1030</ele><speed>8.00</speed><time>2016-06-21T13:17:23Z</time><pdop>3.0</pdop><geoidheight>53.00</geoidheight><course>151.1</course><type>1</type></trkpt>
      <trkpt lat="39.21215482" lon="-6.1217004"><ele>1030</ele><speed>7.75</speed><time>2016-06-21T13:17:24Z</time><pdop>3.0</pdop><geoidheight>53.00</geoidheight><course>146.9</course><type>1</type></trkpt>
      <trkpt lat="39.21202289" lon="-6.12160491"><ele>1029</ele><speed>8.50</speed><time>2016-06-21T13:17:26Z</time><pdop>4.0</pdop><geoidheight>53.00</geoidheight><course>153.9</course><type>1</type></trkpt>
      <trkpt lat="39.21195043" lon="-6.12157392"><ele>1029</ele><speed>8.50</speed><time>2016-06-21T13:17:27Z</time><pdop>4.0</pdop><geoidheight>53.00</geoidheight><course>160.7</course><type>1</type></trkpt>
      <trkpt lat="39.2118347" lon="-6.12150115"><ele>1029</ele><speed>7.00</speed><time>2016-06-21T13:17:29Z</time><pdop>4.0</pdop><geoidheight>53.00</geoidheight><course>150.9</course><type>1</type></trkpt>
      <trkpt lat="39.21180823" lon="-6.1214224"><ele>1030</ele><speed>7.00</speed><time>2016-06-21T13:17:30Z</time><pdop>3.0</pdop><geoidheight>53.00</geoidheight><course>128.4</course><type>1</type></trkpt>
      <trkpt lat="39.21176286" lon="-6.12128372"><ele>1029</ele><speed>7.00</speed><time>2016-06-21T13:17:32Z</time><pdop>4.0</pdop><geoidheight>53.00</geoidheight><course>111.2</course><type>1</type></trkpt>
      <trkpt lat="39.2117288" lon="-6.12114632"><ele>1028</ele><speed>6.75</speed><time>2016-06-21T13:17:34Z</time><pdop>4.0</pdop><geoidheight>53.00</geoidheight><course>109.4</course><type>1</type></trkpt>
      <trkpt lat="39.21170963" lon="-6.1209813"><ele>1027</ele><speed>7.25</speed><time>2016-06-21T13:17:36Z</time><pdop>4.0</pdop><geoidheight>53.00</geoidheight><course>101.5</course><type>1</type></trkpt>
      <trkpt lat="39.21169306" lon="-6.12076817"><ele>1029</ele><speed>6.00</speed><time>2016-06-21T13:17:39Z</time><pdop>4.0</pdop><geoidheight>53.00</geoidheight><course>99.4</course><type>1</type></trkpt>
      <trkpt lat="39.21167001" lon="-6.12064524"><ele>1028</ele><speed>6.00</speed><time>2016-06-21T13:17:41Z</time><pdop>4.0</pdop><geoidheight>53.00</geoidheight><course>106.5</course><type>1</type></trkpt>
      <trkpt lat="39.21165908" lon="-6.12051486"><ele>1028</ele><speed>5.75</speed><time>2016-06-21T13:17:43Z</time><pdop>4.0</pdop><geoidheight>53.00</geoidheight><course>100.2</course><type>1</type></trkpt>
      <trkpt lat="39.21163349" lon="-6.12041818"><ele>1027</ele><speed>4.50</speed><time>2016-06-21T13:17:45Z</time><pdop>4.0</pdop><geoidheight>53.00</geoidheight><course>106.9</course><type>1</type></trkpt>
      <trkpt lat="39.21162874" lon="-6.12031186"><ele>1028</ele><speed>4.75</speed><time>2016-06-21T13:17:47Z</time><pdop>4.0</pdop><geoidheight>53.00</geoidheight><course>90.6</course><type>1</type></trkpt>
      <trkpt lat="39.21165274" lon="-6.12017902"><ele>1026</ele><speed>5.75</speed><time>2016-06-21T13:17:49Z</time><pdop>4.0</pdop><geoidheight>53.00</geoidheight><course>74.1</course><type>1</type></trkpt>
      <trkpt lat="39.21170812" lon="-6.12005933"><ele>1025</ele><speed>5.75</speed><time>2016-06-21T13:17:51Z</time><pdop>3.0</pdop><geoidheight>53.00</geoidheight><course>49.9</course><type>1</type></trkpt>
      <trkpt lat="39.21191211" lon="-6.11998864"><ele>1020</ele><speed>8.75</speed><time>2016-06-21T13:17:54Z</time><pdop>4.0</pdop><geoidheight>53.00</geoidheight><course>11.8</course><type>1</type></trkpt>
      <trkpt lat="39.21199837" lon="-6.11995793"><ele>1019</ele><speed>9.75</speed><time>2016-06-21T13:17:55Z</time><pdop>4.0</pdop><geoidheight>53.00</geoidheight><course>12.8</course><type>1</type></trkpt>
      <trkpt lat="39.21208058" lon="-6.11991941"><ele>1018</ele><speed>9.75</speed><time>2016-06-21T13:17:56Z</time><pdop>4.0</pdop><geoidheight>53.00</geoidheight><course>19.3</course><type>1</type></trkpt>
      <trkpt lat="39.21224616" lon="-6.11968152"><ele>1015</ele><speed>5.75</speed><time>2016-06-21T13:18:00Z</time><pdop>4.0</pdop><geoidheight>53.00</geoidheight><course>71.6</course><type>1</type></trkpt>
      <trkpt lat="39.21222706" lon="-6.11951414"><ele>1013</ele><speed>7.50</speed><time>2016-06-21T13:18:02Z</time><pdop>4.0</pdop><geoidheight>53.00</geoidheight><course>103.4</course><type>1</type></trkpt>
      <trkpt lat="39.21197109" lon="-6.11932824"><ele>1011</ele><speed>7.50</speed><time>2016-06-21T13:18:06Z</time><pdop>3.0</pdop><geoidheight>53.00</geoidheight><course>173.8</course><type>1</type></trkpt>
      <trkpt lat="39.21184954" lon="-6.11935293"><ele>1008</ele><speed>6.75</speed><time>2016-06-21T13:18:08Z</time><pdop>3.0</pdop><geoidheight>53.00</geoidheight><course>194.6</course><type>1</type></trkpt>
      <trkpt lat="39.2117822" lon="-6.1193787"><ele>1006</ele><speed>8.25</speed><time>2016-06-21T13:18:09Z</time><pdop>3.0</pdop><geoidheight>53.00</geoidheight><course>197.4</course><type>1</type></trkpt>
      <trkpt lat="39.21169918" lon="-6.11941899"><ele>1004</ele><speed>9.50</speed><time>2016-06-21T13:18:10Z</time><pdop>3.0</pdop><geoidheight>53.00</geoidheight><course>198.8</course><type>1</type></trkpt>
      <trkpt lat="39.21152364" lon="-6.11950428"><ele>1002</ele><speed>10.50</speed><time>2016-06-21T13:18:12Z</time><pdop>9.0</pdop><geoidheight>53.00</geoidheight><course>201.7</course><type>1</type></trkpt>
      <trkpt lat="39.21135588" lon="-6.11956484"><ele>1000</ele><speed>9.50</speed><time>2016-06-21T13:18:14Z</time><pdop>9.0</pdop><geoidheight>53.00</geoidheight><course>195.5</course><type>1</type></trkpt>
      <trkpt lat="39.21118087" lon="-6.11961563"><ele>998</ele><speed>10.25</speed><time>2016-06-21T13:18:16Z</time><pdop>10.0</pdop><geoidheight>53.00</geoidheight><course>193.3</course><type>1</type></trkpt>
      <trkpt lat="39.21099619" lon="-6.11968813"><ele>998</ele><speed>11.00</speed><time>2016-06-21T13:18:18Z</time><pdop>10.0</pdop><geoidheight>53.00</geoidheight><course>197.5</course><type>1</type></trkpt>
      <trkpt lat="39.21075912" lon="-6.11973638"><ele>1000</ele><speed>8.25</speed><time>2016-06-21T13:18:21Z</time><pdop>9.0</pdop><geoidheight>53.00</geoidheight><course>185.9</course><type>1</type></trkpt>
      <trkpt lat="39.21056846" lon="-6.11973208"><ele>1002</ele><speed>6.50</speed><time>2016-06-21T13:18:24Z</time><pdop>10.0</pdop><geoidheight>53.00</geoidheight><course>180.2</course><type>1</type></trkpt>
      <trkpt lat="39.2106635" lon="-6.11950527"><ele>1003</ele><speed>8.25</speed><time>2016-06-21T13:18:31Z</time><pdop>10.0</pdop><geoidheight>53.00</geoidheight><course>5.4</course><type>1</type></trkpt>
      <trkpt lat="39.2108932" lon="-6.11974563"><ele>1005</ele><speed>12.25</speed><time>2016-06-21T13:18:34Z</time><pdop>9.0</pdop><geoidheight>53.00</geoidheight><course>306.7</course><type>1</type></trkpt>
      <trkpt lat="39.21096892" lon="-6.12001167"><ele>1005</ele><speed>10.75</speed><time>2016-06-21T13:18:36Z</time><pdop>10.0</pdop><geoidheight>53.00</geoidheight><course>286.4</course><type>1</type></trkpt>
      <trkpt lat="39.21093959" lon="-6.1202937"><ele>1005</ele><speed>11.50</speed><time>2016-06-21T13:18:38Z</time><pdop>10.0</pdop><geoidheight>53.00</geoidheight><course>262.5</course><type>1</type></trkpt>
      <trkpt lat="39.21067645" lon="-6.1204645"><ele>1007</ele><speed>9.25</speed><time>2016-06-21T13:18:41Z</time><pdop>3.0</pdop><geoidheight>53.00</geoidheight><course>203.0</course><type>1</type></trkpt>
      <trkpt lat="39.210604" lon="-6.12049406"><ele>1008</ele><speed>8.50</speed><time>2016-06-21T13:18:42Z</time><pdop>4.0</pdop><geoidheight>53.00</geoidheight><course>199.2</course><type>1</type></trkpt>
      <trkpt lat="39.21047773" lon="-6.12052995"><ele>1010</ele><speed>7.00</speed><time>2016-06-21T13:18:44Z</time><pdop>4.0</pdop><geoidheight>53.00</geoidheight><course>192.5</course><type>1</type></trkpt>
      <trkpt lat="39.21036766" lon="-6.12052098"><ele>1011</ele><speed>5.75</speed><time>2016-06-21T13:18:46Z</time><pdop>4.0</pdop><geoidheight>53.00</geoidheight><course>175.2</course><type>1</type></trkpt>
      <trkpt lat="39.21030005" lon="-6.12046023"><ele>1012</ele><speed>4.50</speed><time>2016-06-21T13:18:48Z</time><pdop>4.0</pdop><geoidheight>53.00</geoidheight><course>130.7</course><type>1</type></trkpt>
      <trkpt lat="39.21033477" lon="-6.12035114"><ele>1013</ele><speed>5.75</speed><time>2016-06-21T13:18:50Z</time><pdop>4.0</pdop><geoidheight>53.00</geoidheight><course>58.7</course><type>1</type></trkpt>
      <trkpt lat="39.21046227" lon="-6.12030734"><ele>1014</ele><speed>7.50</speed><time>2016-06-21T13:18:52Z</time><pdop>4.0</pdop><geoidheight>53.00</geoidheight><course>9.8</course><type>1</type></trkpt>
      <trkpt lat="39.2105333" lon="-6.12032356"><ele>1014</ele><speed>7.75</speed><time>2016-06-21T13:18:53Z</time><pdop>4.0</pdop><geoidheight>53.00</geoidheight><course>354.5</course><type>1</type></trkpt>
      <trkpt lat="39.21062587" lon="-6.12036995"><ele>1014</ele><speed>9.25</speed><time>2016-06-21T13:18:54Z</time><pdop>4.0</pdop><geoidheight>53.00</geoidheight><course>340.9</course><type>1</type></trkpt>
      <trkpt lat="39.21070297" lon="-6.12044205"><ele>1014</ele><speed>9.75</speed><time>2016-06-21T13:18:55Z</time><pdop>5.0</pdop><geoidheight>53.00</geoidheight><course>329.1</course><type>1</type></trkpt>
      <trkpt lat="39.21077743" lon="-6.1205372"><ele>1014</ele><speed>10.25</speed><time>2016-06-21T13:18:56Z</time><pdop>4.0</pdop><geoidheight>53.00</geoidheight><course>319.5</course><type>1</type></trkpt>
      <trkpt lat="39.21082993" lon="-6.12065271"><ele>1014</ele><speed>10.50</speed><time>2016-06-21T13:18:57Z</time><pdop>4.0</pdop><geoidheight>53.00</geoidheight><course>307.2</course><type>1</type></trkpt>
      <trkpt lat="39.21076696" lon="-6.12107655"><ele>1017</ele><speed>11.00</speed><time>2016-06-21T13:19:00Z</time><pdop>3.0</pdop><geoidheight>53.00</geoidheight><course>250.5</course><type>1</type></trkpt>
      <trkpt lat="39.21071615" lon="-6.12118247"><ele>1018</ele><speed>10.25</speed><time>2016-06-21T13:19:01Z</time><pdop>4.0</pdop><geoidheight>53.00</geoidheight><course>242.5</course><type>1</type></trkpt>
      <trkpt lat="39.21063335" lon="-6.12125556"><ele>1019</ele><speed>9.00</speed><time>2016-06-21T13:19:02Z</time><pdop>3.0</pdop><geoidheight>53.00</geoidheight><course>216.8</course><type>1</type></trkpt>
      <trkpt lat="39.21055713" lon="-6.12128568"><ele>1020</ele><speed>8.25</speed><time>2016-06-21T13:19:03Z</time><pdop>4.0</pdop><geoidheight>53.00</geoidheight><course>197.4</course><type>1</type></trkpt>
      <trkpt lat="39.2104868" lon="-6.12130852"><ele>1021</ele><speed>7.50</speed><time>2016-06-21T13:19:04Z</time><pdop>4.0</pdop><geoidheight>53.00</geoidheight><course>192.2</course><type>1</type></trkpt>
      <trkpt lat="39.21038041" lon="-6.12129318"><ele>1021</ele><speed>5.75</speed><time>2016-06-21T13:19:06Z</time><pdop>5.0</pdop><geoidheight>53.00</geoidheight><course>174.4</course><type>1</type></trkpt>
      <trkpt lat="39.21028993" lon="-6.12125269"><ele>1022</ele><speed>3.25</speed><time>2016-06-21T13:19:09Z</time><pdop>5.0</pdop><geoidheight>53.00</geoidheight><course>151.1</course><type>1</type></trkpt>
      <trkpt lat="39.21020743" lon="-6.12118739"><ele>1023</ele><speed>4.75</speed><time>2016-06-21T13:19:11Z</time><pdop>4.0</pdop><geoidheight>53.00</geoidheight><course>146.9</course><type>1</type></trkpt>
      <trkpt lat="39.20991598" lon="-6.12139878"><ele>1028</ele><speed>11.00</speed><time>2016-06-21T13:19:21Z</time><pdop>5.0</pdop><geoidheight>53.00</geoidheight><course>254.8</course><type>1</type></trkpt>
      <trkpt lat="39.20993847" lon="-6.12151979"><ele>1029</ele><speed>9.50</speed><time>2016-06-21T13:19:22Z</time><pdop>5.0</pdop><geoidheight>53.00</geoidheight><course>266.1</course><type>1</type></trkpt>
      <trkpt lat="39.21027433" lon="-6.1217791"><ele>1031</ele><speed>12.00</speed><time>2016-06-21T13:19:25Z</time><pdop>3.0</pdop><geoidheight>53.00</geoidheight><course>334.9</course><type>1</type></trkpt>
      <trkpt lat="39.21037936" lon="-6.12180089"><ele>1031</ele><speed>10.75</speed><time>2016-06-21T13:19:26Z</time><pdop>4.0</pdop><geoidheight>53.00</geoidheight><course>349.3</course><type>1</type></trkpt>
      <trkpt lat="39.21046514" lon="-6.12179292"><ele>1032</ele><speed>9.50</speed><time>2016-06-21T13:19:27Z</time><pdop>4.0</pdop><geoidheight>53.00</geoidheight><course>6.0</course><type>1</type></trkpt>
      <trkpt lat="39.21053989" lon="-6.12174406"><ele>1032</ele><speed>8.75</speed><time>2016-06-21T13:19:28Z</time><pdop>4.0</pdop><geoidheight>53.00</geoidheight><course>27.3</course><type>1</type></trkpt>
      <trkpt lat="39.21063512" lon="-6.12157319"><ele>1035</ele><speed>5.75</speed><time>2016-06-21T13:19:31Z</time><pdop>4.0</pdop><geoidheight>53.00</geoidheight><course>60.8</course><type>1</type></trkpt>
      <trkpt lat="39.21019846" lon="-6.12119078"><ele>1044</ele><speed>4.25</speed><time>2016-06-21T13:19:48Z</time><pdop>4.0</pdop><geoidheight>53.00</geoidheight><course>144.8</course><type>1</type></trkpt>
      <trkpt lat="39.21014943" lon="-6.12073353"><ele>1047</ele><speed>5.25</speed><time>2016-06-21T13:19:57Z</time><pdop>4.0</pdop><geoidheight>53.00</geoidheight><course>173.6</course><type>1</type></trkpt>
      <trkpt lat="39.21005735" lon="-6.12083341"><ele>1048</ele><speed>8.00</speed><time>2016-06-21T13:19:59Z</time><pdop>3.0</pdop><geoidheight>53.00</geoidheight><course>225.4</course><type>1</type></trkpt>
      <trkpt lat="39.21000783" lon="-6.12093088"><ele>1049</ele><speed>9.25</speed><time>2016-06-21T13:20:00Z</time><pdop>3.0</pdop><geoidheight>53.00</geoidheight><course>237.6</course><type>1</type></trkpt>
      <trkpt lat="39.20997266" lon="-6.12104249"><ele>1051</ele><speed>10.25</speed><time>2016-06-21T13:20:01Z</time><pdop>3.0</pdop><geoidheight>53.00</geoidheight><course>247.1</course><type>1</type></trkpt>
      <trkpt lat="39.20994728" lon="-6.1211617"><ele>1052</ele><speed>10.25</speed><time>2016-06-21T13:20:02Z</time><pdop>3.0</pdop><geoidheight>53.00</geoidheight><course>254.3</course><type>1</type></trkpt>
      <trkpt lat="39.20993084" lon="-6.12127816"><ele>1054</ele><speed>10.00</speed><time>2016-06-21T13:20:03Z</time><pdop>3.0</pdop><geoidheight>53.00</geoidheight><course>261.7</course><type>1</type></trkpt>
      <trkpt lat="39.20993651" lon="-6.12139688"><ele>1054</ele><speed>10.00</speed><time>2016-06-21T13:20:04Z</time><pdop>4.0</pdop><geoidheight>53.00</geoidheight><course>271.0</course><type>1</type></trkpt>
      <trkpt lat="39.20996561" lon="-6.12152006"><ele>1054</ele><speed>11.00</speed><time>2016-06-21T13:20:05Z</time><pdop>4.0</pdop><geoidheight>53.00</geoidheight><course>284.9</course><type>1</type></trkpt>
      <trkpt lat="39.21010754" lon="-6.12176609"><ele>1053</ele><speed>13.75</speed><time>2016-06-21T13:20:07Z</time><pdop>4.0</pdop><geoidheight>53.00</geoidheight><course>308.0</course><type>1</type></trkpt>
      <trkpt lat="39.21022709" lon="-6.12185553"><ele>1053</ele><speed>14.50</speed><time>2016-06-21T13:20:08Z</time><pdop>4.0</pdop><geoidheight>53.00</geoidheight><course>320.4</course><type>1</type></trkpt>
      <trkpt lat="39.21034082" lon="-6.12188197"><ele>1053</ele><speed>13.00</speed><time>2016-06-21T13:20:09Z</time><pdop>4.0</pdop><geoidheight>53.00</geoidheight><course>336.7</course><type>1</type></trkpt>
      <trkpt lat="39.21043691" lon="-6.12189917"><ele>1053</ele><speed>11.00</speed><time>2016-06-21T13:20:10Z</time><pdop>4.0</pdop><geoidheight>53.00</geoidheight><course>350.0</course><type>1</type></trkpt>
      <trkpt lat="39.21051386" lon="-6.12187749"><ele>1053</ele><speed>8.75</speed><time>2016-06-21T13:20:11Z</time><pdop>4.0</pdop><geoidheight>53.00</geoidheight><course>8.3</course><type>1</type></trkpt>
      <trkpt lat="39.21061074" lon="-6.12177028"><ele>1052</ele><speed>7.00</speed><time>2016-06-21T13:20:13Z</time><pdop>10.0</pdop><geoidheight>53.00</geoidheight><course>48.4</course><type>1</type></trkpt>
      <trkpt lat="39.20910635" lon="-6.12027012"><ele>1063</ele><speed>5.00</speed><time>2016-06-21T13:20:59Z</time><pdop>4.0</pdop><geoidheight>53.00</geoidheight><course>139.4</course><type>1</type></trkpt>
      <trkpt lat="39.20895118" lon="-6.12014217"><ele>1062</ele><speed>7.25</speed><time>2016-06-21T13:21:02Z</time><pdop>3.0</pdop><geoidheight>53.00</geoidheight><course>155.6</course><type>1</type></trkpt>
      <trkpt lat="39.20889453" lon="-6.12010405"><ele>1063</ele><speed>6.75</speed><time>2016-06-21T13:21:03Z</time><pdop>3.0</pdop><geoidheight>53.00</geoidheight><course>155.4</course><type>1</type></trkpt>
      <trkpt lat="39.20891512" lon="-6.12034294"><ele>1043</ele><speed>8.25</speed><time>2016-06-21T13:21:32Z</time><pdop>10.0</pdop><geoidheight>53.00</geoidheight><course>214.1</course><type>1</type></trkpt>
      <trkpt lat="39.20873513" lon="-6.12044478"><ele>1031</ele><speed>8.00</speed><time>2016-06-21T13:21:35Z</time><pdop>10.0</pdop><geoidheight>53.00</geoidheight><course>199.8</course><type>1</type></trkpt>
      <trkpt lat="39.2085017" lon="-6.120448"><ele>1027</ele><speed>7.75</speed><time>2016-06-21T13:21:38Z</time><pdop>9.0</pdop><geoidheight>53.00</geoidheight><course>178.8</course><type>1</type></trkpt>
      <trkpt lat="39.20832387" lon="-6.12054354"><ele>1024</ele><speed>6.75</speed><time>2016-06-21T13:21:41Z</time><pdop>10.0</pdop><geoidheight>53.00</geoidheight><course>214.0</course><type>1</type></trkpt>
      <trkpt lat="39.20817631" lon="-6.12062748"><ele>1019</ele><speed>6.00</speed><time>2016-06-21T13:21:44Z</time><pdop>3.0</pdop><geoidheight>53.00</geoidheight><course>196.7</course><type>1</type></trkpt>
      <trkpt lat="39.20808154" lon="-6.12062956"><ele>1017</ele><speed>5.00</speed><time>2016-06-21T13:21:46Z</time><pdop>4.0</pdop><geoidheight>53.00</geoidheight><course>179.3</course><type>1</type></trkpt>
      <trkpt lat="39.20797624" lon="-6.12060688"><ele>1016</ele><speed>6.25</speed><time>2016-06-21T13:21:48Z</time><pdop>4.0</pdop><geoidheight>53.00</geoidheight><course>168.7</course><type>1</type></trkpt>
      <trkpt lat="39.20785313" lon="-6.12058938"><ele>1016</ele><speed>6.75</speed><time>2016-06-21T13:21:50Z</time><pdop>5.0</pdop><geoidheight>53.00</geoidheight><course>171.6</course><type>1</type></trkpt>
      <trkpt lat="39.20729894" lon="-6.12071276"><ele>1006</ele><speed>8.25</speed><time>2016-06-21T13:21:59Z</time><pdop>4.0</pdop><geoidheight>53.00</geoidheight><course>212.3</course><type>1</type></trkpt>
      <trkpt lat="39.20714868" lon="-6.12076849"><ele>1004</ele><speed>8.50</speed><time>2016-06-21T13:22:01Z</time><pdop>4.0</pdop><geoidheight>53.00</geoidheight><course>194.3</course><type>1</type></trkpt>
      <trkpt lat="39.20703809" lon="-6.12078455"><ele>1005</ele><speed>5.50</speed><time>2016-06-21T13:22:03Z</time><pdop>5.0</pdop><geoidheight>53.00</geoidheight><course>184.1</course><type>1</type></trkpt>
      <trkpt lat="39.20694115" lon="-6.12077584"><ele>1007</ele><speed>3.75</speed><time>2016-06-21T13:22:07Z</time><pdop>4.0</pdop><geoidheight>53.00</geoidheight><course>185.0</course><type>1</type></trkpt>
      <trkpt lat="39.20685155" lon="-6.12076696"><ele>1012</ele><speed>3.50</speed><time>2016-06-21T13:22:10Z</time><pdop>3.0</pdop><geoidheight>53.00</geoidheight><course>166.5</course><type>1</type></trkpt>
      <trkpt lat="39.20679472" lon="-6.12075742"><ele>1014</ele><speed>3.75</speed><time>2016-06-21T13:22:12Z</time><pdop>3.0</pdop><geoidheight>53.00</geoidheight><course>184.3</course><type>1</type></trkpt>
      <trkpt lat="39.20673492" lon="-6.1207061"><ele>1014</ele><speed>3.25</speed><time>2016-06-21T13:22:15Z</time><pdop>4.0</pdop><geoidheight>53.00</geoidheight><course>119.1</course><type>1</type></trkpt>
      <trkpt lat="39.20677487" lon="-6.12058044"><ele>1018</ele><speed>4.00</speed><time>2016-06-21T13:22:18Z</time><pdop>4.0</pdop><geoidheight>53.00</geoidheight><course>57.6</course><type>1</type></trkpt>
      <trkpt lat="39.20693566" lon="-6.120484"><ele>1018</ele><speed>7.50</speed><time>2016-06-21T13:22:20Z</time><pdop>4.0</pdop><geoidheight>53.00</geoidheight><course>29.9</course><type>1</type></trkpt>
      <trkpt lat="39.20700893" lon="-6.12045784"><ele>1019</ele><speed>8.25</speed><time>2016-06-21T13:22:21Z</time><pdop>4.0</pdop><geoidheight>53.00</geoidheight><course>15.7</course><type>1</type></trkpt>
      <trkpt lat="39.20709446" lon="-6.1204701"><ele>1019</ele><speed>9.25</speed><time>2016-06-21T13:22:22Z</time><pdop>4.0</pdop><geoidheight>53.00</geoidheight><course>354.7</course><type>1</type></trkpt>
      <trkpt lat="39.20718947" lon="-6.12051715"><ele>1019</ele><speed>10.25</speed><time>2016-06-21T13:22:23Z</time><pdop>3.0</pdop><geoidheight>53.00</geoidheight><course>339.8</course><type>1</type></trkpt>
      <trkpt lat="39.20727664" lon="-6.12057923"><ele>1020</ele><speed>10.25</speed><time>2016-06-21T13:22:24Z</time><pdop>3.0</pdop><geoidheight>53.00</geoidheight><course>328.9</course><type>1</type></trkpt>
      <trkpt lat="39.20734386" lon="-6.12065884"><ele>1019</ele><speed>10.50</speed><time>2016-06-21T13:22:25Z</time><pdop>4.0</pdop><geoidheight>53.00</geoidheight><course>319.7</course><type>1</type></trkpt>
      <trkpt lat="39.20740549" lon="-6.12075652"><ele>1019</ele><speed>10.75</speed><time>2016-06-21T13:22:26Z</time><pdop>4.0</pdop><geoidheight>53.00</geoidheight><course>308.0</course><type>1</type></trkpt>
      <trkpt lat="39.20745128" lon="-6.12087981"><ele>1017</ele><speed>11.50</speed><time>2016-06-21T13:22:27Z</time><pdop>4.0</pdop><geoidheight>53.00</geoidheight><course>297.2</course><type>1</type></trkpt>
      <trkpt lat="39.20744344" lon="-6.12102815"><ele>1015</ele><speed>12.00</speed><time>2016-06-21T13:22:28Z</time><pdop>3.0</pdop><geoidheight>53.00</geoidheight><course>275.2</course><type>1</type></trkpt>
      <trkpt lat="39.20737083" lon="-6.12124836"><ele>1015</ele><speed>10.00</speed><time>2016-06-21T13:22:30Z</time><pdop>4.0</pdop><geoidheight>53.00</geoidheight><course>242.5</course><type>1</type></trkpt>
      <trkpt lat="39.20731899" lon="-6.12134971"><ele>1015</ele><speed>10.75</speed><time>2016-06-21T13:22:31Z</time><pdop>5.0</pdop><geoidheight>53.00</geoidheight><course>239.4</course><type>1</type></trkpt>
      <trkpt lat="39.20723517" lon="-6.12145962"><ele>1018</ele><speed>7.25</speed><time>2016-06-21T13:22:33Z</time><pdop>5.0</pdop><geoidheight>53.00</geoidheight><course>232.7</course><type>1</type></trkpt>
      <trkpt lat="39.20717516" lon="-6.12157478"><ele>1021</ele><speed>6.50</speed><time>2016-06-21T13:22:35Z</time><pdop>4.0</pdop><geoidheight>53.00</geoidheight><course>232.1</course><type>1</type></trkpt>
      <trkpt lat="39.20708581" lon="-6.12164716"><ele>1024</ele><speed>6.00</speed><time>2016-06-21T13:22:37Z</time><pdop>3.0</pdop><geoidheight>53.00</geoidheight><course>208.3</course><type>1</type></trkpt>
      <trkpt lat="39.20699659" lon="-6.1216861"><ele>1027</ele><speed>5.00</speed><time>2016-06-21T13:22:39Z</time><pdop>4.0</pdop><geoidheight>53.00</geoidheight><course>196.3</course><type>1</type></trkpt>
      <trkpt lat="39.20690364" lon="-6.12169327"><ele>1028</ele><speed>5.25</speed><time>2016-06-21T13:22:41Z</time><pdop>4.0</pdop><geoidheight>53.00</geoidheight><course>183.1</course><type>1</type></trkpt>
      <trkpt lat="39.20662484" lon="-6.12157425"><ele>1029</ele><speed>3.75</speed><time>2016-06-21T13:22:48Z</time><pdop>5.0</pdop><geoidheight>53.00</geoidheight><course>149.0</course><type>1</type></trkpt>
      <trkpt lat="39.20657145" lon="-6.12146668"><ele>1030</ele><speed>4.75</speed><time>2016-06-21T13:22:50Z</time><pdop>4.0</pdop><geoidheight>53.00</geoidheight><course>123.3</course><type>1</type></trkpt>
      <trkpt lat="39.20652405" lon="-6.12136385"><ele>1031</ele><speed>5.00</speed><time>2016-06-21T13:22:52Z</time><pdop>4.0</pdop><geoidheight>53.00</geoidheight><course>129.9</course><type>1</type></trkpt>
      <trkpt lat="39.20635629" lon="-6.12228513"><ele>1043</ele><speed>11.50</speed><time>2016-06-21T13:23:03Z</time><pdop>4.0</pdop><geoidheight>53.00</geoidheight><course>292.2</course><type>1</type></trkpt>
      <trkpt lat="39.20641325" lon="-6.12240662"><ele>1045</ele><speed>12.50</speed><time>2016-06-21T13:23:04Z</time><pdop>4.0</pdop><geoidheight>53.00</geoidheight><course>300.7</course><type>1</type></trkpt>
      <trkpt lat="39.20649027" lon="-6.12252357"><ele>1045</ele><speed>12.50</speed><time>2016-06-21T13:23:05Z</time><pdop>4.0</pdop><geoidheight>53.00</geoidheight><course>308.0</course><type>1</type></trkpt>
      <trkpt lat="39.20671396" lon="-6.1226009"><ele>1047</ele><speed>12.00</speed><time>2016-06-21T13:23:07Z</time><pdop>4.0</pdop><geoidheight>53.00</geoidheight><course>349.7</course><type>1</type></trkpt>
      <trkpt lat="39.20681165" lon="-6.12260559"><ele>1048</ele><speed>11.00</speed><time>2016-06-21T13:23:08Z</time><pdop>4.0</pdop><geoidheight>53.00</geoidheight><course>358.8</course><type>1</type></trkpt>
      <trkpt lat="39.20685753" lon="-6.12240955"><ele>1053</ele><speed>4.50</speed><time>2016-06-21T13:23:12Z</time><pdop>3.0</pdop><geoidheight>53.00</geoidheight><course>99.6</course><type>1</type></trkpt>
      <trkpt lat="39.20681443" lon="-6.12230964"><ele>1054</ele><speed>5.00</speed><time>2016-06-21T13:23:14Z</time><pdop>4.0</pdop><geoidheight>53.00</geoidheight><course>119.5</course><type>1</type></trkpt>
      <trkpt lat="39.20675832" lon="-6.12221117"><ele>1054</ele><speed>5.25</speed><time>2016-06-21T13:23:16Z</time><pdop>4.0</pdop><geoidheight>53.00</geoidheight><course>128.8</course><type>1</type></trkpt>
      <trkpt lat="39.20667233" lon="-6.12211645"><ele>1055</ele><speed>6.50</speed><time>2016-06-21T13:23:18Z</time><pdop>4.0</pdop><geoidheight>53.00</geoidheight><course>142.9</course><type>1</type></trkpt>
      <trkpt lat="39.20656511" lon="-6.122047"><ele>1055</ele><speed>6.50</speed><time>2016-06-21T13:23:20Z</time><pdop>4.0</pdop><geoidheight>53.00</geoidheight><course>154.2</course><type>1</type></trkpt>
      <trkpt lat="39.20606397" lon="-6.12157862"><ele>1046</ele><speed>7.00</speed><time>2016-06-21T13:23:30Z</time><pdop>3.0</pdop><geoidheight>53.00</geoidheight><course>102.6</course><type>1</type></trkpt>
      <trkpt lat="39.20607139" lon="-6.12150483"><ele>1043</ele><speed>6.75</speed><time>2016-06-21T13:23:31Z</time><pdop>3.0</pdop><geoidheight>53.00</geoidheight><course>92.1</course><type>1</type></trkpt>
      <trkpt lat="39.20610963" lon="-6.12138517"><ele>1038</ele><speed>6.00</speed><time>2016-06-21T13:23:33Z</time><pdop>3.0</pdop><geoidheight>53.00</geoidheight><course>64.6</course><type>1</type></trkpt>
      <trkpt lat="39.20618742" lon="-6.12125919"><ele>1034</ele><speed>7.25</speed><time>2016-06-21T13:23:35Z</time><pdop>4.0</pdop><geoidheight>53.00</geoidheight><course>53.6</course><type>1</type></trkpt>
      <trkpt lat="39.20621693" lon="-6.12117537"><ele>1029</ele><speed>7.75</speed><time>2016-06-21T13:23:36Z</time><pdop>3.0</pdop><geoidheight>53.00</geoidheight><course>61.4</course><type>1</type></trkpt>
      <trkpt lat="39.20624074" lon="-6.12108402"><ele>1026</ele><speed>8.00</speed><time>2016-06-21T13:23:37Z</time><pdop>3.0</pdop><geoidheight>53.00</geoidheight><course>68.5</course><type>1</type></trkpt>
      <trkpt lat="39.20626432" lon="-6.12099814"><ele>1023</ele><speed>8.00</speed><time>2016-06-21T13:23:38Z</time><pdop>4.0</pdop><geoidheight>53.00</geoidheight><course>71.5</course><type>1</type></trkpt>
      <trkpt lat="39.20629366" lon="-6.12091041"><ele>1021</ele><speed>8.50</speed><time>2016-06-21T13:23:39Z</time><pdop>4.0</pdop><geoidheight>53.00</geoidheight><course>69.0</course><type>1</type></trkpt>
      <trkpt lat="39.20633193" lon="-6.1207359"><ele>1016</ele><speed>8.50</speed><time>2016-06-21T13:23:41Z</time><pdop>4.0</pdop><geoidheight>53.00</geoidheight><course>70.0</course><type>1</type></trkpt>
      <trkpt lat="39.20634994" lon="-6.12065671"><ele>1011</ele><speed>8.25</speed><time>2016-06-21T13:23:42Z</time><pdop>3.0</pdop><geoidheight>53.00</geoidheight><course>73.4</course><type>1</type></trkpt>
      <trkpt lat="39.20637196" lon="-6.12055939"><ele>1007</ele><speed>9.00</speed><time>2016-06-21T13:23:43Z</time><pdop>4.0</pdop><geoidheight>53.00</geoidheight><course>72.8</course><type>1</type></trkpt>
      <trkpt lat="39.20639592" lon="-6.12045515"><ele>1004</ele><speed>9.25</speed><time>2016-06-21T13:23:44Z</time><pdop>5.0</pdop><geoidheight>53.00</geoidheight><course>73.6</course><type>1</type></trkpt>
      <trkpt lat="39.20640505" lon="-6.1203631"><ele>1002</ele><speed>8.50</speed><time>2016-06-21T13:23:45Z</time><pdop>3.0</pdop><geoidheight>53.00</geoidheight><course>79.8</course><type>1</type></trkpt>
      <trkpt lat="39.20641969" lon="-6.12026291"><ele>1001</ele><speed>8.75</speed><time>2016-06-21T13:23:46Z</time><pdop>4.0</pdop><geoidheight>53.00</geoidheight><course>79.1</course><type>1</type></trkpt>
      <trkpt lat="39.20643411" lon="-6.12016203"><ele>999</ele><speed>9.25</speed><time>2016-06-21T13:23:47Z</time><pdop>4.0</pdop><geoidheight>53.00</geoidheight><course>77.0</course><type>1</type></trkpt>
      <trkpt lat="39.20646941" lon="-6.1200519"><ele>997</ele><speed>10.25</speed><time>2016-06-21T13:23:48Z</time><pdop>4.0</pdop><geoidheight>53.00</geoidheight><course>69.4</course><type>1</type></trkpt>
      <trkpt lat="39.20651428" lon="-6.11994964"><ele>995</ele><speed>10.50</speed><time>2016-06-21T13:23:49Z</time><pdop>3.0</pdop><geoidheight>53.00</geoidheight><course>62.4</course><type>1</type></trkpt>
      <trkpt lat="39.20655788" lon="-6.11985289"><ele>995</ele><speed>9.75</speed><time>2016-06-21T13:23:50Z</time><pdop>3.0</pdop><geoidheight>53.00</geoidheight><course>59.6</course><type>1</type></trkpt>
      <trkpt lat="39.20659967" lon="-6.11976065"><ele>995</ele><speed>9.25</speed><time>2016-06-21T13:23:51Z</time><pdop>3.0</pdop><geoidheight>53.00</geoidheight><course>61.2</course><type>1</type></trkpt>
      <trkpt lat="39.20663707" lon="-6.11967091"><ele>995</ele><speed>9.00</speed><time>2016-06-21T13:23:52Z</time><pdop>4.0</pdop><geoidheight>53.00</geoidheight><course>61.6</course><type>1</type></trkpt>
      <trkpt lat="39.20667986" lon="-6.11958442"><ele>995</ele><speed>8.75</speed><time>2016-06-21T13:23:53Z</time><pdop>4.0</pdop><geoidheight>53.00</geoidheight><course>59.9</course><type>1</type></trkpt>
      <trkpt lat="39.20672255" lon="-6.1194973"><ele>994</ele><speed>9.00</speed><time>2016-06-21T13:23:54Z</time><pdop>4.0</pdop><geoidheight>53.00</geoidheight><course>59.1</course><type>1</type></trkpt>
      <trkpt lat="39.20676447" lon="-6.11940243"><ele>994</ele><speed>9.25</speed><time>2016-06-21T13:23:55Z</time><pdop>4.0</pdop><geoidheight>53.00</geoidheight><course>60.4</course><type>1</type></trkpt>
      <trkpt lat="39.20679957" lon="-6.11930334"><ele>994</ele><speed>9.00</speed><time>2016-06-21T13:23:56Z</time><pdop>4.0</pdop><geoidheight>53.00</geoidheight><course>63.6</course><type>1</type></trkpt>
      <trkpt lat="39.20682219" lon="-6.11922681"><ele>994</ele><speed>8.00</speed><time>2016-06-21T13:23:57Z</time><pdop>3.0</pdop><geoidheight>53.00</geoidheight><course>66.8</course><type>1</type></trkpt>
      <trkpt lat="39.20684006" lon="-6.11909949"><ele>995</ele><speed>6.00</speed><time>2016-06-21T13:23:59Z</time><pdop>3.0</pdop><geoidheight>53.00</geoidheight><course>75.1</course><type>1</type></trkpt>
      <trkpt lat="39.20687859" lon="-6.11896165"><ele>994</ele><speed>6.25</speed><time>2016-06-21T13:24:01Z</time><pdop>3.0</pdop><geoidheight>53.00</geoidheight><course>71.4</course><type>1</type></trkpt>
      <trkpt lat="39.20690485" lon="-6.11883195"><ele>991</ele><speed>6.00</speed><time>2016-06-21T13:24:03Z</time><pdop>3.0</pdop><geoidheight>53.00</geoidheight><course>77.6</course><type>1</type></trkpt>
      <trkpt lat="39.20691501" lon="-6.11871386"><ele>989</ele><speed>5.00</speed><time>2016-06-21T13:24:05Z</time><pdop>4.0</pdop><geoidheight>53.00</geoidheight><course>84.0</course><type>1</type></trkpt>
      <trkpt lat="39.20691099" lon="-6.11860545"><ele>987</ele><speed>5.25</speed><time>2016-06-21T13:24:07Z</time><pdop>4.0</pdop><geoidheight>53.00</geoidheight><course>88.9</course><type>1</type></trkpt>
      <trkpt lat="39.20694088" lon="-6.11847008"><ele>986</ele><speed>6.00</speed><time>2016-06-21T13:24:09Z</time><pdop>3.0</pdop><geoidheight>53.00</geoidheight><course>72.4</course><type>1</type></trkpt>
      <trkpt lat="39.20698813" lon="-6.11835117"><ele>986</ele><speed>6.00</speed><time>2016-06-21T13:24:11Z</time><pdop>4.0</pdop><geoidheight>53.00</geoidheight><course>63.4</course><type>1</type></trkpt>
      <trkpt lat="39.20703725" lon="-6.1182293"><ele>986</ele><speed>6.00</speed><time>2016-06-21T13:24:13Z</time><pdop>5.0</pdop><geoidheight>53.00</geoidheight><course>63.7</course><type>1</type></trkpt>
      <trkpt lat="39.20710635" lon="-6.11804264"><ele>984</ele><speed>5.25</speed><time>2016-06-21T13:24:17Z</time><pdop>10.0</pdop><geoidheight>53.00</geoidheight><course>53.0</course><type>1</type></trkpt>
      <trkpt lat="39.20721932" lon="-6.11786932"><ele>984</ele><speed>7.00</speed><time>2016-06-21T13:24:20Z</time><pdop>9.0</pdop><geoidheight>53.00</geoidheight><course>53.2</course><type>1</type></trkpt>
      <trkpt lat="39.2073737" lon="-6.11766921"><ele>985</ele><speed>8.50</speed><time>2016-06-21T13:24:23Z</time><pdop>9.0</pdop><geoidheight>53.00</geoidheight><course>40.8</course><type>1</type></trkpt>
      <trkpt lat="39.2076181" lon="-6.11746991"><ele>985</ele><speed>11.25</speed><time>2016-06-21T13:24:26Z</time><pdop>3.0</pdop><geoidheight>53.00</geoidheight><course>31.0</course><type>1</type></trkpt>
      <trkpt lat="39.20777874" lon="-6.11735297"><ele>985</ele><speed>9.75</speed><time>2016-06-21T13:24:28Z</time><pdop>3.0</pdop><geoidheight>53.00</geoidheight><course>30.7</course><type>1</type></trkpt>
      <trkpt lat="39.20784995" lon="-6.11730386"><ele>986</ele><speed>9.00</speed><time>2016-06-21T13:24:29Z</time><pdop>4.0</pdop><geoidheight>53.00</geoidheight><course>30.6</course><type>1</type></trkpt>
      <trkpt lat="39.20791332" lon="-6.11725642"><ele>985</ele><speed>8.50</speed><time>2016-06-21T13:24:30Z</time><pdop>3.0</pdop><geoidheight>53.00</geoidheight><course>31.5</course><type>1</type></trkpt>
      <trkpt lat="39.20797539" lon="-6.11720538"><ele>985</ele><speed>8.25</speed><time>2016-06-21T13:24:31Z</time><pdop>4.0</pdop><geoidheight>53.00</geoidheight><course>31.1</course><type>1</type></trkpt>
      <trkpt lat="39.20804732" lon="-6.1171624"><ele>985</ele><speed>8.75</speed><time>2016-06-21T13:24:32Z</time><pdop>4.0</pdop><geoidheight>53.00</geoidheight><course>27.0</course><type>1</type></trkpt>
      <trkpt lat="39.20812854" lon="-6.11714685"><ele>985</ele><speed>9.25</speed><time>2016-06-21T13:24:33Z</time><pdop>4.0</pdop><geoidheight>53.00</geoidheight><course>13.2</course><type>1</type></trkpt>
      <trkpt lat="39.2082153" lon="-6.11716461"><ele>985</ele><speed>9.50</speed><time>2016-06-21T13:24:34Z</time><pdop>4.0</pdop><geoidheight>53.00</geoidheight><course>358.1</course><type>1</type></trkpt>
      <trkpt lat="39.208305179999996" lon="-6.11720561"><ele>985</ele><speed>10.25</speed><time>2016-06-21T13:24:35Z</time><pdop>5.0</pdop><geoidheight>53.00</geoidheight><course>345.3</course><type>1</type></trkpt>
      <trkpt lat="39.20836118" lon="-6.11729879"><ele>985</ele><speed>10.25</speed><time>2016-06-21T13:24:36Z</time><pdop>4.0</pdop><geoidheight>53.00</geoidheight><course>323.9</course><type>1</type></trkpt>
      <trkpt lat="39.20842832" lon="-6.11738095"><ele>985</ele><speed>10.25</speed><time>2016-06-21T13:24:37Z</time><pdop>4.0</pdop><geoidheight>53.00</geoidheight><course>317.7</course><type>1</type></trkpt>
      <trkpt lat="39.20848883" lon="-6.11747419"><ele>985</ele><speed>10.00</speed><time>2016-06-21T13:24:38Z</time><pdop>3.0</pdop><geoidheight>53.00</geoidheight><course>310.2</course><type>1</type></trkpt>
      <trkpt lat="39.20852902" lon="-6.11757449"><ele>984</ele><speed>9.75</speed><time>2016-06-21T13:24:39Z</time><pdop>3.0</pdop><geoidheight>53.00</geoidheight><course>297.7</course><type>1</type></trkpt>
      <trkpt lat="39.20856603" lon="-6.11767273"><ele>983</ele><speed>9.25</speed><time>2016-06-21T13:24:40Z</time><pdop>4.0</pdop><geoidheight>53.00</geoidheight><course>294.5</course><type>1</type></trkpt>
      <trkpt lat="39.20855939" lon="-6.11780026"><ele>983</ele><speed>10.50</speed><time>2016-06-21T13:24:41Z</time><pdop>3.0</pdop><geoidheight>53.00</geoidheight><course>275.0</course><type>1</type></trkpt>
      <trkpt lat="39.20856676" lon="-6.11791986"><ele>985</ele><speed>10.25</speed><time>2016-06-21T13:24:42Z</time><pdop>3.0</pdop><geoidheight>53.00</geoidheight><course>271.2</course><type>1</type></trkpt>
      <trkpt lat="39.20856269" lon="-6.11802729"><ele>986</ele><speed>9.25</speed><time>2016-06-21T13:24:43Z</time><pdop>4.0</pdop><geoidheight>53.00</geoidheight><course>268.2</course><type>1</type></trkpt>
      <trkpt lat="39.20855294" lon="-6.1181848"><ele>986</ele><speed>6.50</speed><time>2016-06-21T13:24:45Z</time><pdop>4.0</pdop><geoidheight>53.00</geoidheight><course>261.5</course><type>1</type></trkpt>
      <trkpt lat="39.20849806" lon="-6.11828068"><ele>987</ele><speed>5.00</speed><time>2016-06-21T13:24:47Z</time><pdop>4.0</pdop><geoidheight>53.00</geoidheight><course>231.1</course><type>1</type></trkpt>
      <trkpt lat="39.20837879" lon="-6.11828199"><ele>987</ele><speed>5.75</speed><time>2016-06-21T13:24:49Z</time><pdop>3.0</pdop><geoidheight>53.00</geoidheight><course>173.4</course><type>1</type></trkpt>
      <trkpt lat="39.20830462" lon="-6.11814157"><ele>990</ele><speed>5.00</speed><time>2016-06-21T13:24:52Z</time><pdop>4.0</pdop><geoidheight>53.00</geoidheight><course>105.4</course><type>1</type></trkpt>
      <trkpt lat="39.20827695" lon="-6.11792764"><ele>991</ele><speed>6.50</speed><time>2016-06-21T13:24:55Z</time><pdop>4.0</pdop><geoidheight>53.00</geoidheight><course>102.1</course><type>1</type></trkpt>
      <trkpt lat="39.20825173" lon="-6.11780076"><ele>992</ele><speed>5.75</speed><time>2016-06-21T13:24:57Z</time><pdop>5.0</pdop><geoidheight>53.00</geoidheight><course>104.9</course><type>1</type></trkpt>
      <trkpt lat="39.20816328" lon="-6.11771045"><ele>991</ele><speed>5.75</speed><time>2016-06-21T13:24:59Z</time><pdop>5.0</pdop><geoidheight>53.00</geoidheight><course>131.3</course><type>1</type></trkpt>
      <trkpt lat="39.20809538" lon="-6.11796514"><ele>992</ele><speed>8.25</speed><time>2016-06-21T13:25:00Z</time><pdop>3.0</pdop><geoidheight>53.00</geoidheight><course>227.8</course><type>1</type></trkpt>
      <trkpt lat="39.20806403" lon="-6.11806668"><ele>992</ele><speed>9.00</speed><time>2016-06-21T13:25:01Z</time><pdop>3.0</pdop><geoidheight>53.00</geoidheight><course>245.3</course><type>1</type></trkpt>
      <trkpt lat="39.20805137" lon="-6.11818764"><ele>992</ele><speed>10.00</speed><time>2016-06-21T13:25:02Z</time><pdop>4.0</pdop><geoidheight>53.00</geoidheight><course>259.4</course><type>1</type></trkpt>
      <trkpt lat="39.20806031" lon="-6.11832316"><ele>991</ele><speed>11.75</speed><time>2016-06-21T13:25:03Z</time><pdop>4.0</pdop><geoidheight>53.00</geoidheight><course>272.9</course><type>1</type></trkpt>
      <trkpt lat="39.20808963" lon="-6.11847647"><ele>991</ele><speed>13.25</speed><time>2016-06-21T13:25:04Z</time><pdop>4.0</pdop><geoidheight>53.00</geoidheight><course>280.0</course><type>1</type></trkpt>
      <trkpt lat="39.20812844" lon="-6.11863641"><ele>990</ele><speed>14.00</speed><time>2016-06-21T13:25:05Z</time><pdop>5.0</pdop><geoidheight>53.00</geoidheight><course>284.3</course><type>1</type></trkpt>
      <trkpt lat="39.20824168" lon="-6.11876492"><ele>990</ele><speed>15.00</speed><time>2016-06-21T13:25:06Z</time><pdop>4.0</pdop><geoidheight>53.00</geoidheight><course>303.7</course><type>1</type></trkpt>
      <trkpt lat="39.20833244" lon="-6.11889298"><ele>990</ele><speed>15.25</speed><time>2016-06-21T13:25:07Z</time><pdop>5.0</pdop><geoidheight>53.00</geoidheight><course>309.1</course><type>1</type></trkpt>
      <trkpt lat="39.20848938" lon="-6.11887261"><ele>991</ele><speed>14.00</speed><time>2016-06-21T13:25:08Z</time><pdop>3.0</pdop><geoidheight>53.00</geoidheight><course>338.7</course><type>1</type></trkpt>
      <trkpt lat="39.20859906" lon="-6.11889503"><ele>992</ele><speed>12.50</speed><time>2016-06-21T13:25:09Z</time><pdop>4.0</pdop><geoidheight>53.00</geoidheight><course>352.7</course><type>1</type></trkpt>
      <trkpt lat="39.20870287" lon="-6.11887892"><ele>992</ele><speed>11.50</speed><time>2016-06-21T13:25:10Z</time><pdop>4.0</pdop><geoidheight>53.00</geoidheight><course>4.7</course><type>1</type></trkpt>
      <trkpt lat="39.20878438" lon="-6.11885567"><ele>992</ele><speed>10.75</speed><time>2016-06-21T13:25:11Z</time><pdop>3.0</pdop><geoidheight>53.00</geoidheight><course>14.4</course><type>1</type></trkpt>
      <trkpt lat="39.20886367" lon="-6.11880827"><ele>992</ele><speed>10.00</speed><time>2016-06-21T13:25:12Z</time><pdop>4.0</pdop><geoidheight>53.00</geoidheight><course>23.7</course><type>1</type></trkpt>
      <trkpt lat="39.20892475" lon="-6.11874126"><ele>993</ele><speed>9.25</speed><time>2016-06-21T13:25:13Z</time><pdop>4.0</pdop><geoidheight>53.00</geoidheight><course>36.7</course><type>1</type></trkpt>
      <trkpt lat="39.20898778" lon="-6.11859921"><ele>994</ele><speed>6.75</speed><time>2016-06-21T13:25:15Z</time><pdop>4.0</pdop><geoidheight>53.00</geoidheight><course>69.6</course><type>1</type></trkpt>
      <trkpt lat="39.20895207" lon="-6.11849634"><ele>995</ele><speed>4.75</speed><time>2016-06-21T13:25:17Z</time><pdop>4.0</pdop><geoidheight>53.00</geoidheight><course>121.3</course><type>1</type></trkpt>
      <trkpt lat="39.20884653" lon="-6.1185254"><ele>995</ele><speed>7.00</speed><time>2016-06-21T13:25:19Z</time><pdop>4.0</pdop><geoidheight>53.00</geoidheight><course>198.5</course><type>1</type></trkpt>
      <trkpt lat="39.20879262" lon="-6.11860226"><ele>995</ele><speed>8.00</speed><time>2016-06-21T13:25:20Z</time><pdop>4.0</pdop><geoidheight>53.00</geoidheight><course>221.7</course><type>1</type></trkpt>
      <trkpt lat="39.20876357" lon="-6.11870175"><ele>997</ele><speed>8.50</speed><time>2016-06-21T13:25:21Z</time><pdop>3.0</pdop><geoidheight>53.00</geoidheight><course>240.9</course><type>1</type></trkpt>
      <trkpt lat="39.20874077" lon="-6.11880213"><ele>997</ele><speed>9.00</speed><time>2016-06-21T13:25:22Z</time><pdop>4.0</pdop><geoidheight>53.00</geoidheight><course>253.4</course><type>1</type></trkpt>
      <trkpt lat="39.20875655" lon="-6.11892543"><ele>998</ele><speed>10.00</speed><time>2016-06-21T13:25:23Z</time><pdop>3.0</pdop><geoidheight>53.00</geoidheight><course>274.0</course><type>1</type></trkpt>
      <trkpt lat="39.20879092" lon="-6.11905256"><ele>998</ele><speed>11.25</speed><time>2016-06-21T13:25:24Z</time><pdop>3.0</pdop><geoidheight>53.00</geoidheight><course>285.8</course><type>1</type></trkpt>
      <trkpt lat="39.20883595" lon="-6.11917972"><ele>998</ele><speed>12.25</speed><time>2016-06-21T13:25:25Z</time><pdop>3.0</pdop><geoidheight>53.00</geoidheight><course>294.9</course><type>1</type></trkpt>
      <trkpt lat="39.20890244" lon="-6.11930582"><ele>998</ele><speed>13.00</speed><time>2016-06-21T13:25:26Z</time><pdop>9.0</pdop><geoidheight>53.00</geoidheight><course>303.6</course><type>1</type></trkpt>
      <trkpt lat="39.20907284" lon="-6.11950518"><ele>998</ele><speed>13.25</speed><time>2016-06-21T13:25:28Z</time><pdop>10.0</pdop><geoidheight>53.00</geoidheight><course>319.4</course><type>1</type></trkpt>
      <trkpt lat="39.20929005" lon="-6.1196202"><ele>998</ele><speed>13.00</speed><time>2016-06-21T13:25:30Z</time><pdop>10.0</pdop><geoidheight>53.00</geoidheight><course>335.5</course><type>1</type></trkpt>
      <trkpt lat="39.20951997" lon="-6.11963154"><ele>1002</ele><speed>12.50</speed><time>2016-06-21T13:25:32Z</time><pdop>9.0</pdop><geoidheight>53.00</geoidheight><course>357.6</course><type>1</type></trkpt>
      <trkpt lat="39.20971571" lon="-6.11954677"><ele>1003</ele><speed>11.75</speed><time>2016-06-21T13:25:34Z</time><pdop>9.0</pdop><geoidheight>53.00</geoidheight><course>23.6</course><type>1</type></trkpt>
      <trkpt lat="39.20982679" lon="-6.11935655"><ele>1005</ele><speed>9.75</speed><time>2016-06-21T13:25:36Z</time><pdop>9.0</pdop><geoidheight>53.00</geoidheight><course>53.8</course><type>1</type></trkpt>
      <trkpt lat="39.20979859" lon="-6.1190182"><ele>1006</ele><speed>7.50</speed><time>2016-06-21T13:25:40Z</time><pdop>9.0</pdop><geoidheight>53.00</geoidheight><course>127.1</course><type>1</type></trkpt>
      <trkpt lat="39.20962344" lon="-6.11905378"><ele>1009</ele><speed>7.25</speed><time>2016-06-21T13:25:43Z</time><pdop>9.0</pdop><geoidheight>53.00</geoidheight><course>216.8</course><type>1</type></trkpt>
      <trkpt lat="39.20959775" lon="-6.11938532"><ele>1011</ele><speed>10.50</speed><time>2016-06-21T13:25:46Z</time><pdop>9.0</pdop><geoidheight>53.00</geoidheight><course>277.1</course><type>1</type></trkpt>
      <trkpt lat="39.20969612" lon="-6.11961898"><ele>1013</ele><speed>12.00</speed><time>2016-06-21T13:25:48Z</time><pdop>10.0</pdop><geoidheight>53.00</geoidheight><course>300.3</course><type>1</type></trkpt>
      <trkpt lat="39.20987265" lon="-6.11982086"><ele>1012</ele><speed>13.00</speed><time>2016-06-21T13:25:50Z</time><pdop>10.0</pdop><geoidheight>53.00</geoidheight><course>315.9</course><type>1</type></trkpt>
      <trkpt lat="39.21014332" lon="-6.11977905"><ele>1015</ele><speed>12.50</speed><time>2016-06-21T13:25:52Z</time><pdop>9.0</pdop><geoidheight>53.00</geoidheight><course>0.0</course><type>1</type></trkpt>
      <trkpt lat="39.21034913" lon="-6.11974525"><ele>1018</ele><speed>11.50</speed><time>2016-06-21T13:25:54Z</time><pdop>9.0</pdop><geoidheight>53.00</geoidheight><course>9.2</course><type>1</type></trkpt>
      <trkpt lat="39.21052425" lon="-6.11964785"><ele>1020</ele><speed>10.00</speed><time>2016-06-21T13:25:56Z</time><pdop>10.0</pdop><geoidheight>53.00</geoidheight><course>25.6</course><type>1</type></trkpt>
      <trkpt lat="39.21067498" lon="-6.11946511"><ele>1020</ele><speed>11.00</speed><time>2016-06-21T13:25:58Z</time><pdop>10.0</pdop><geoidheight>53.00</geoidheight><course>43.5</course><type>1</type></trkpt>
      <trkpt lat="39.21061862" lon="-6.11918201"><ele>1022</ele><speed>6.75</speed><time>2016-06-21T13:26:01Z</time><pdop>9.0</pdop><geoidheight>53.00</geoidheight><course>118.7</course><type>1</type></trkpt>
      <trkpt lat="39.21045052" lon="-6.11928967"><ele>1024</ele><speed>8.00</speed><time>2016-06-21T13:26:05Z</time><pdop>10.0</pdop><geoidheight>53.00</geoidheight><course>229.9</course><type>1</type></trkpt>
      <trkpt lat="39.21050705" lon="-6.11956406"><ele>1026</ele><speed>12.00</speed><time>2016-06-21T13:26:07Z</time><pdop>9.0</pdop><geoidheight>53.00</geoidheight><course>285.5</course><type>1</type></trkpt>
      <trkpt lat="39.21061761" lon="-6.11978239"><ele>1026</ele><speed>11.00</speed><time>2016-06-21T13:26:09Z</time><pdop>10.0</pdop><geoidheight>53.00</geoidheight><course>304.9</course><type>1</type></trkpt>
      <trkpt lat="39.21077776" lon="-6.11992669"><ele>1026</ele><speed>10.00</speed><time>2016-06-21T13:26:11Z</time><pdop>10.0</pdop><geoidheight>53.00</geoidheight><course>321.3</course><type>1</type></trkpt>
      <trkpt lat="39.21101637" lon="-6.12004743"><ele>1027</ele><speed>9.75</speed><time>2016-06-21T13:26:14Z</time><pdop>10.0</pdop><geoidheight>53.00</geoidheight><course>341.7</course><type>1</type></trkpt>
      <trkpt lat="39.21122039" lon="-6.12004601"><ele>1027</ele><speed>10.50</speed><time>2016-06-21T13:26:16Z</time><pdop>11.0</pdop><geoidheight>53.00</geoidheight><course>357.3</course><type>1</type></trkpt>
      <trkpt lat="39.21140095" lon="-6.11986034"><ele>1028</ele><speed>11.50</speed><time>2016-06-21T13:26:18Z</time><pdop>10.0</pdop><geoidheight>53.00</geoidheight><course>34.9</course><type>1</type></trkpt>
      <trkpt lat="39.21147571" lon="-6.11963239"><ele>1029</ele><speed>11.00</speed><time>2016-06-21T13:26:20Z</time><pdop>10.0</pdop><geoidheight>53.00</geoidheight><course>63.5</course><type>1</type></trkpt>
      <trkpt lat="39.21143431" lon="-6.11934701"><ele>1031</ele><speed>8.50</speed><time>2016-06-21T13:26:23Z</time><pdop>11.0</pdop><geoidheight>53.00</geoidheight><course>96.4</course><type>1</type></trkpt>
      <trkpt lat="39.21124681" lon="-6.11942402"><ele>1032</ele><speed>6.75</speed><time>2016-06-21T13:26:25Z</time><pdop>10.0</pdop><geoidheight>53.00</geoidheight><course>176.2</course><type>1</type></trkpt>
      <trkpt lat="39.21102589" lon="-6.11935891"><ele>1034</ele><speed>6.75</speed><time>2016-06-21T13:26:29Z</time><pdop>9.0</pdop><geoidheight>53.00</geoidheight><course>167.9</course><type>1</type></trkpt>
      <trkpt lat="39.21084641" lon="-6.11950135"><ele>1034</ele><speed>9.25</speed><time>2016-06-21T13:26:32Z</time><pdop>9.0</pdop><geoidheight>53.00</geoidheight><course>227.1</course><type>1</type></trkpt>
      <trkpt lat="39.210787" lon="-6.11973246"><ele>1034</ele><speed>10.75</speed><time>2016-06-21T13:26:34Z</time><pdop>10.0</pdop><geoidheight>53.00</geoidheight><course>251.2</course><type>1</type></trkpt>
      <trkpt lat="39.21088583" lon="-6.12002277"><ele>1035</ele><speed>12.50</speed><time>2016-06-21T13:26:36Z</time><pdop>10.0</pdop><geoidheight>53.00</geoidheight><course>294.0</course><type>1</type></trkpt>
      <trkpt lat="39.21106582" lon="-6.12023708"><ele>1036</ele><speed>13.25</speed><time>2016-06-21T13:26:38Z</time><pdop>10.0</pdop><geoidheight>53.00</geoidheight><course>315.5</course><type>1</type></trkpt>
      <trkpt lat="39.2112234" lon="-6.12040277"><ele>1038</ele><speed>11.75</speed><time>2016-06-21T13:26:40Z</time><pdop>10.0</pdop><geoidheight>53.00</geoidheight><course>320.4</course><type>1</type></trkpt>
      <trkpt lat="39.21139005" lon="-6.12056535"><ele>1039</ele><speed>11.25</speed><time>2016-06-21T13:26:42Z</time><pdop>10.0</pdop><geoidheight>53.00</geoidheight><course>322.0</course><type>1</type></trkpt>
      <trkpt lat="39.21157516" lon="-6.12069231"><ele>1039</ele><speed>11.25</speed><time>2016-06-21T13:26:44Z</time><pdop>10.0</pdop><geoidheight>53.00</geoidheight><course>330.9</course><type>1</type></trkpt>
      <trkpt lat="39.21180624" lon="-6.12069508"><ele>1040</ele><speed>12.50</speed><time>2016-06-21T13:26:46Z</time><pdop>10.0</pdop><geoidheight>53.00</geoidheight><course>358.2</course><type>1</type></trkpt>
      <trkpt lat="39.21205402" lon="-6.12052043"><ele>1042</ele><speed>10.50</speed><time>2016-06-21T13:26:49Z</time><pdop>10.0</pdop><geoidheight>53.00</geoidheight><course>33.9</course><type>1</type></trkpt>
      <trkpt lat="39.21206266" lon="-6.12023455"><ele>1049</ele><speed>7.00</speed><time>2016-06-21T13:26:52Z</time><pdop>9.0</pdop><geoidheight>53.00</geoidheight><course>80.8</course><type>1</type></trkpt>
      <trkpt lat="39.21205361" lon="-6.12001542"><ele>1053</ele><speed>5.00</speed><time>2016-06-21T13:26:55Z</time><pdop>9.0</pdop><geoidheight>53.00</geoidheight><course>116.1</course><type>1</type></trkpt>
      <trkpt lat="39.21191031" lon="-6.12034343"><ele>1055</ele><speed>8.50</speed><time>2016-06-21T13:27:02Z</time><pdop>11.0</pdop><geoidheight>53.00</geoidheight><course>258.9</course><type>1</type></trkpt>
      <trkpt lat="39.21207497" lon="-6.12057628"><ele>1056</ele><speed>10.00</speed><time>2016-06-21T13:27:04Z</time><pdop>11.0</pdop><geoidheight>53.00</geoidheight><course>297.0</course><type>1</type></trkpt>
      <trkpt lat="39.21221793" lon="-6.12081706"><ele>1058</ele><speed>10.50</speed><time>2016-06-21T13:27:06Z</time><pdop>10.0</pdop><geoidheight>53.00</geoidheight><course>304.2</course><type>1</type></trkpt>
      <trkpt lat="39.21233908" lon="-6.12103078"><ele>1059</ele><speed>11.00</speed><time>2016-06-21T13:27:08Z</time><pdop>11.0</pdop><geoidheight>53.00</geoidheight><course>308.8</course><type>1</type></trkpt>
      <trkpt lat="39.21249233" lon="-6.1212138"><ele>1060</ele><speed>12.00</speed><time>2016-06-21T13:27:10Z</time><pdop>4.0</pdop><geoidheight>53.00</geoidheight><course>323.6</course><type>1</type></trkpt>
      <trkpt lat="39.21258635" lon="-6.12129418"><ele>1061</ele><speed>12.25</speed><time>2016-06-21T13:27:11Z</time><pdop>4.0</pdop><geoidheight>53.00</geoidheight><course>329.2</course><type>1</type></trkpt>
      <trkpt lat="39.21269175" lon="-6.1213319"><ele>1061</ele><speed>12.50</speed><time>2016-06-21T13:27:12Z</time><pdop>4.0</pdop><geoidheight>53.00</geoidheight><course>340.8</course><type>1</type></trkpt>
      <trkpt lat="39.21282961" lon="-6.12129697"><ele>1060</ele><speed>13.75</speed><time>2016-06-21T13:27:13Z</time><pdop>4.0</pdop><geoidheight>53.00</geoidheight><course>0.9</course><type>1</type></trkpt>
      <trkpt lat="39.21292949" lon="-6.12126593"><ele>1060</ele><speed>13.00</speed><time>2016-06-21T13:27:14Z</time><pdop>4.0</pdop><geoidheight>53.00</geoidheight><course>13.9</course><type>1</type></trkpt>
      <trkpt lat="39.21301771" lon="-6.12119727"><ele>1062</ele><speed>12.00</speed><time>2016-06-21T13:27:15Z</time><pdop>3.0</pdop><geoidheight>53.00</geoidheight><course>31.0</course><type>1</type></trkpt>
      <trkpt lat="39.21307506" lon="-6.12111276"><ele>1063</ele><speed>10.75</speed><time>2016-06-21T13:27:16Z</time><pdop>4.0</pdop><geoidheight>53.00</geoidheight><course>45.3</course><type>1</type></trkpt>
      <trkpt lat="39.21314067" lon="-6.12102661"><ele>1064</ele><speed>10.50</speed><time>2016-06-21T13:27:17Z</time><pdop>4.0</pdop><geoidheight>53.00</geoidheight><course>45.6</course><type>1</type></trkpt>
      <trkpt lat="39.21315302" lon="-6.12094647"><ele>1067</ele><speed>8.00</speed><time>2016-06-21T13:27:18Z</time><pdop>3.0</pdop><geoidheight>53.00</geoidheight><course>61.3</course><type>1</type></trkpt>
      <trkpt lat="39.21319567" lon="-6.12080352"><ele>1070</ele><speed>6.75</speed><time>2016-06-21T13:27:20Z</time><pdop>4.0</pdop><geoidheight>53.00</geoidheight><course>75.2</course><type>1</type></trkpt>
      <trkpt lat="39.21321665" lon="-6.12064165"><ele>1073</ele><speed>7.25</speed><time>2016-06-21T13:27:22Z</time><pdop>4.0</pdop><geoidheight>53.00</geoidheight><course>82.4</course><type>1</type></trkpt>
      <trkpt lat="39.21320904" lon="-6.12048846"><ele>1074</ele><speed>6.50</speed><time>2016-06-21T13:27:24Z</time><pdop>4.0</pdop><geoidheight>53.00</geoidheight><course>98.1</course><type>1</type></trkpt>
      <trkpt lat="39.21311723" lon="-6.12038698"><ele>1078</ele><speed>6.75</speed><time>2016-06-21T13:27:26Z</time><pdop>4.0</pdop><geoidheight>53.00</geoidheight><course>148.8</course><type>1</type></trkpt>
      <trkpt lat="39.21300054" lon="-6.12042946"><ele>1079</ele><speed>7.50</speed><time>2016-06-21T13:27:28Z</time><pdop>3.0</pdop><geoidheight>53.00</geoidheight><course>202.3</course><type>1</type></trkpt>
      <trkpt lat="39.21294561" lon="-6.12049186"><ele>1081</ele><speed>8.00</speed><time>2016-06-21T13:27:29Z</time><pdop>3.0</pdop><geoidheight>53.00</geoidheight><course>223.0</course><type>1</type></trkpt>
      <trkpt lat="39.21291288" lon="-6.12058304"><ele>1083</ele><speed>8.75</speed><time>2016-06-21T13:27:30Z</time><pdop>3.0</pdop><geoidheight>53.00</geoidheight><course>242.3</course><type>1</type></trkpt>
      <trkpt lat="39.21289672" lon="-6.12068891"><ele>1084</ele><speed>9.50</speed><time>2016-06-21T13:27:31Z</time><pdop>4.0</pdop><geoidheight>53.00</geoidheight><course>259.1</course><type>1</type></trkpt>
      <trkpt lat="39.21289362" lon="-6.12080266"><ele>1084</ele><speed>9.75</speed><time>2016-06-21T13:27:32Z</time><pdop>4.0</pdop><geoidheight>53.00</geoidheight><course>265.0</course><type>1</type></trkpt>
      <trkpt lat="39.21296856" lon="-6.12089859"><ele>1085</ele><speed>10.00</speed><time>2016-06-21T13:27:33Z</time><pdop>4.0</pdop><geoidheight>53.00</geoidheight><course>297.2</course><type>1</type></trkpt>
      <trkpt lat="39.21303506" lon="-6.12098867"><ele>1086</ele><speed>11.00</speed><time>2016-06-21T13:27:34Z</time><pdop>4.0</pdop><geoidheight>53.00</geoidheight><course>309.1</course><type>1</type></trkpt>
      <trkpt lat="39.21310138" lon="-6.12108114"><ele>1086</ele><speed>11.00</speed><time>2016-06-21T13:27:35Z</time><pdop>4.0</pdop><geoidheight>53.00</geoidheight><course>312.9</course><type>1</type></trkpt>
      <trkpt lat="39.21318306" lon="-6.12116336"><ele>1087</ele><speed>11.25</speed><time>2016-06-21T13:27:36Z</time><pdop>4.0</pdop><geoidheight>53.00</geoidheight><course>319.4</course><type>1</type></trkpt>
      <trkpt lat="39.21327492" lon="-6.1212324"><ele>1087</ele><speed>11.75</speed><time>2016-06-21T13:27:37Z</time><pdop>4.0</pdop><geoidheight>53.00</geoidheight><course>325.6</course><type>1</type></trkpt>
      <trkpt lat="39.21339597" lon="-6.12128164"><ele>1087</ele><speed>13.00</speed><time>2016-06-21T13:27:38Z</time><pdop>4.0</pdop><geoidheight>53.00</geoidheight><course>335.9</course><type>1</type></trkpt>
      <trkpt lat="39.21350864" lon="-6.1213153"><ele>1087</ele><speed>13.00</speed><time>2016-06-21T13:27:39Z</time><pdop>4.0</pdop><geoidheight>53.00</geoidheight><course>342.6</course><type>1</type></trkpt>
      <trkpt lat="39.21361786" lon="-6.12129617"><ele>1088</ele><speed>12.75</speed><time>2016-06-21T13:27:40Z</time><pdop>4.0</pdop><geoidheight>53.00</geoidheight><course>0.7</course><type>1</type></trkpt>
      <trkpt lat="39.2137111" lon="-6.12123769"><ele>1091</ele><speed>12.25</speed><time>2016-06-21T13:27:41Z</time><pdop>3.0</pdop><geoidheight>53.00</geoidheight><course>20.1</course><type>1</type></trkpt>
      <trkpt lat="39.21379741" lon="-6.12116767"><ele>1092</ele><speed>11.25</speed><time>2016-06-21T13:27:42Z</time><pdop>4.0</pdop><geoidheight>53.00</geoidheight><course>31.5</course><type>1</type></trkpt>
      <trkpt lat="39.21385901" lon="-6.12108715"><ele>1093</ele><speed>9.75</speed><time>2016-06-21T13:27:43Z</time><pdop>4.0</pdop><geoidheight>53.00</geoidheight><course>43.3</course><type>1</type></trkpt>
      <trkpt lat="39.21391917" lon="-6.12101396"><ele>1094</ele><speed>9.25</speed><time>2016-06-21T13:27:44Z</time><pdop>5.0</pdop><geoidheight>53.00</geoidheight><course>42.5</course><type>1</type></trkpt>
      <trkpt lat="39.21397451" lon="-6.12089407"><ele>1096</ele><speed>6.50</speed><time>2016-06-21T13:27:46Z</time><pdop>5.0</pdop><geoidheight>53.00</geoidheight><course>56.5</course><type>1</type></trkpt>
      <trkpt lat="39.21390295" lon="-6.120764"><ele>1098</ele><speed>6.50</speed><time>2016-06-21T13:27:48Z</time><pdop>4.0</pdop><geoidheight>53.00</geoidheight><course>116.4</course><type>1</type></trkpt>
      <trkpt lat="39.21379327" lon="-6.12065779"><ele>1100</ele><speed>7.75</speed><time>2016-06-21T13:27:50Z</time><pdop>4.0</pdop><geoidheight>53.00</geoidheight><course>149.5</course><type>1</type></trkpt>
      <trkpt lat="39.21365903" lon="-6.1207017"><ele>1100</ele><speed>8.25</speed><time>2016-06-21T13:27:52Z</time><pdop>4.0</pdop><geoidheight>53.00</geoidheight><course>196.8</course><type>1</type></trkpt>
      <trkpt lat="39.21360598" lon="-6.12078432"><ele>1102</ele><speed>9.00</speed><time>2016-06-21T13:27:53Z</time><pdop>3.0</pdop><geoidheight>53.00</geoidheight><course>220.4</course><type>1</type></trkpt>
      <trkpt lat="39.21356277" lon="-6.12085474"><ele>1105</ele><speed>8.75</speed><time>2016-06-21T13:27:54Z</time><pdop>3.0</pdop><geoidheight>53.00</geoidheight><course>231.7</course><type>1</type></trkpt>
      <trkpt lat="39.21352925" lon="-6.12093626"><ele>1107</ele><speed>8.00</speed><time>2016-06-21T13:27:55Z</time><pdop>3.0</pdop><geoidheight>53.00</geoidheight><course>244.3</course><type>1</type></trkpt>
      <trkpt lat="39.21352194" lon="-6.12101687"><ele>1107</ele><speed>7.25</speed><time>2016-06-21T13:27:56Z</time><pdop>4.0</pdop><geoidheight>53.00</geoidheight><course>259.2</course><type>1</type></trkpt>
      <trkpt lat="39.21353377" lon="-6.12111009"><ele>1107</ele><speed>7.75</speed><time>2016-06-21T13:27:57Z</time><pdop>4.0</pdop><geoidheight>53.00</geoidheight><course>274.2</course><type>1</type></trkpt>
      <trkpt lat="39.21355616" lon="-6.12119849"><ele>1107</ele><speed>8.00</speed><time>2016-06-21T13:27:58Z</time><pdop>4.0</pdop><geoidheight>53.00</geoidheight><course>284.7</course><type>1</type></trkpt>
      <trkpt lat="39.21359477" lon="-6.12128223"><ele>1108</ele><speed>8.50</speed><time>2016-06-21T13:27:59Z</time><pdop>3.0</pdop><geoidheight>53.00</geoidheight><course>295.0</course><type>1</type></trkpt>
      <trkpt lat="39.21364152" lon="-6.12137143"><ele>1108</ele><speed>9.25</speed><time>2016-06-21T13:28:00Z</time><pdop>4.0</pdop><geoidheight>53.00</geoidheight><course>303.8</course><type>1</type></trkpt>
      <trkpt lat="39.21370511" lon="-6.12145893"><ele>1108</ele><speed>10.00</speed><time>2016-06-21T13:28:01Z</time><pdop>4.0</pdop><geoidheight>53.00</geoidheight><course>311.9</course><type>1</type></trkpt>
      <trkpt lat="39.21386479" lon="-6.12159694"><ele>1107</ele><speed>10.75</speed><time>2016-06-21T13:28:03Z</time><pdop>5.0</pdop><geoidheight>53.00</geoidheight><course>323.5</course><type>1</type></trkpt>
      <trkpt lat="39.21395643" lon="-6.12162189"><ele>1108</ele><speed>9.50</speed><time>2016-06-21T13:28:04Z</time><pdop>5.0</pdop><geoidheight>53.00</geoidheight><course>331.9</course><type>1</type></trkpt>
      <trkpt lat="39.21422026" lon="-6.12136598"><ele>1110</ele><speed>8.75</speed><time>2016-06-21T13:28:07Z</time><pdop>4.0</pdop><geoidheight>53.00</geoidheight><course>37.1</course><type>1</type></trkpt>
      <trkpt lat="39.21426776" lon="-6.12129113"><ele>1111</ele><speed>7.75</speed><time>2016-06-21T13:28:08Z</time><pdop>4.0</pdop><geoidheight>53.00</geoidheight><course>48.4</course><type>1</type></trkpt>
      <trkpt lat="39.21433848" lon="-6.12113864"><ele>1114</ele><speed>7.50</speed><time>2016-06-21T13:28:10Z</time><pdop>4.0</pdop><geoidheight>53.00</geoidheight><course>60.1</course><type>1</type></trkpt>
      <trkpt lat="39.21434064" lon="-6.1210015"><ele>1113</ele><speed>6.00</speed><time>2016-06-21T13:28:12Z</time><pdop>3.0</pdop><geoidheight>53.00</geoidheight><course>101.3</course><type>1</type></trkpt>
      <trkpt lat="39.21424309" lon="-6.12089077"><ele>1113</ele><speed>8.25</speed><time>2016-06-21T13:28:14Z</time><pdop>10.0</pdop><geoidheight>53.00</geoidheight><course>156.4</course><type>1</type></trkpt>
      <trkpt lat="39.21407016" lon="-6.12100249"><ele>1118</ele><speed>7.25</speed><time>2016-06-21T13:28:17Z</time><pdop>10.0</pdop><geoidheight>53.00</geoidheight><course>231.2</course><type>1</type></trkpt>
      <trkpt lat="39.21397867" lon="-6.12124093"><ele>1115</ele><speed>7.25</speed><time>2016-06-21T13:28:21Z</time><pdop>9.0</pdop><geoidheight>53.00</geoidheight><course>236.4</course><type>1</type></trkpt>
      <trkpt lat="39.21397389" lon="-6.12153134"><ele>1111</ele><speed>9.75</speed><time>2016-06-21T13:28:24Z</time><pdop>9.0</pdop><geoidheight>53.00</geoidheight><course>277.6</course><type>1</type></trkpt>
      <trkpt lat="39.21403325" lon="-6.12176641"><ele>1109</ele><speed>10.50</speed><time>2016-06-21T13:28:26Z</time><pdop>10.0</pdop><geoidheight>53.00</geoidheight><course>288.7</course><type>1</type></trkpt>
      <trkpt lat="39.21415311" lon="-6.12196047"><ele>1108</ele><speed>11.25</speed><time>2016-06-21T13:28:28Z</time><pdop>4.0</pdop><geoidheight>53.00</geoidheight><course>309.6</course><type>1</type></trkpt>
      <trkpt lat="39.21422665" lon="-6.12205031"><ele>1108</ele><speed>11.50</speed><time>2016-06-21T13:28:29Z</time><pdop>4.0</pdop><geoidheight>53.00</geoidheight><course>316.8</course><type>1</type></trkpt>
      <trkpt lat="39.21432594" lon="-6.12211038"><ele>1107</ele><speed>11.75</speed><time>2016-06-21T13:28:30Z</time><pdop>4.0</pdop><geoidheight>53.00</geoidheight><course>328.5</course><type>1</type></trkpt>
      <trkpt lat="39.21444034" lon="-6.12214386"><ele>1107</ele><speed>12.25</speed><time>2016-06-21T13:28:31Z</time><pdop>4.0</pdop><geoidheight>53.00</geoidheight><course>341.1</course><type>1</type></trkpt>
      <trkpt lat="39.21453798" lon="-6.12211589"><ele>1108</ele><speed>11.25</speed><time>2016-06-21T13:28:32Z</time><pdop>4.0</pdop><geoidheight>53.00</geoidheight><course>1.3</course><type>1</type></trkpt>
      <trkpt lat="39.21462602" lon="-6.12209015"><ele>1108</ele><speed>9.75</speed><time>2016-06-21T13:28:33Z</time><pdop>3.0</pdop><geoidheight>53.00</geoidheight><course>10.7</course><type>1</type></trkpt>
      <trkpt lat="39.21470235" lon="-6.12205307"><ele>1108</ele><speed>9.00</speed><time>2016-06-21T13:28:34Z</time><pdop>4.0</pdop><geoidheight>53.00</geoidheight><course>20.4</course><type>1</type></trkpt>
      <trkpt lat="39.21476424" lon="-6.12200286"><ele>1108</ele><speed>8.50</speed><time>2016-06-21T13:28:35Z</time><pdop>4.0</pdop><geoidheight>53.00</geoidheight><course>31.7</course><type>1</type></trkpt>
      <trkpt lat="39.21482252" lon="-6.12193921"><ele>1109</ele><speed>8.25</speed><time>2016-06-21T13:28:36Z</time><pdop>4.0</pdop><geoidheight>53.00</geoidheight><course>38.6</course><type>1</type></trkpt>
      <trkpt lat="39.21487927" lon="-6.12187483"><ele>1108</ele><speed>8.25</speed><time>2016-06-21T13:28:37Z</time><pdop>4.0</pdop><geoidheight>53.00</geoidheight><course>39.1</course><type>1</type></trkpt>
      <trkpt lat="39.21493916" lon="-6.12176234"><ele>1111</ele><speed>5.50</speed><time>2016-06-21T13:28:39Z</time><pdop>3.0</pdop><geoidheight>53.00</geoidheight><course>55.4</course><type>1</type></trkpt>
      <trkpt lat="39.21496279" lon="-6.12166255"><ele>1110</ele><speed>4.25</speed><time>2016-06-21T13:28:41Z</time><pdop>4.0</pdop><geoidheight>53.00</geoidheight><course>75.4</course><type>1</type></trkpt>
      <trkpt lat="39.2149527" lon="-6.12154714"><ele>1109</ele><speed>5.75</speed><time>2016-06-21T13:28:43Z</time><pdop>3.0</pdop><geoidheight>53.00</geoidheight><course>100.2</course><type>1</type></trkpt>
      <trkpt lat="39.21487859" lon="-6.12140275"><ele>1109</ele><speed>4.50</speed><time>2016-06-21T13:28:46Z</time><pdop>4.0</pdop><geoidheight>53.00</geoidheight><course>133.7</course><type>1</type></trkpt>
      <trkpt lat="39.21480491" lon="-6.12134318"><ele>1109</ele><speed>5.00</speed><time>2016-06-21T13:28:48Z</time><pdop>4.0</pdop><geoidheight>53.00</geoidheight><course>147.7</course><type>1</type></trkpt>
      <trkpt lat="39.21470752" lon="-6.12129123"><ele>1108</ele><speed>6.00</speed><time>2016-06-21T13:28:50Z</time><pdop>4.0</pdop><geoidheight>53.00</geoidheight><course>157.6</course><type>1</type></trkpt>
      <trkpt lat="39.21460839" lon="-6.12127609"><ele>1109</ele><speed>5.50</speed><time>2016-06-21T13:28:52Z</time><pdop>4.0</pdop><geoidheight>53.00</geoidheight><course>170.6</course><type>1</type></trkpt>
      <trkpt lat="39.21452254" lon="-6.12125289"><ele>1102</ele><speed>5.00</speed><time>2016-06-21T13:28:54Z</time><pdop>3.0</pdop><geoidheight>53.00</geoidheight><course>166.4</course><type>1</type></trkpt>
      <trkpt lat="39.21446964" lon="-6.12123306"><ele>1099</ele><speed>6.25</speed><time>2016-06-21T13:28:55Z</time><pdop>3.0</pdop><geoidheight>53.00</geoidheight><course>161.6</course><type>1</type></trkpt>
      <trkpt lat="39.21440819" lon="-6.1212024"><ele>1096</ele><speed>7.00</speed><time>2016-06-21T13:28:56Z</time><pdop>4.0</pdop><geoidheight>53.00</geoidheight><course>160.7</course><type>1</type></trkpt>
      <trkpt lat="39.21433931" lon="-6.12117622"><ele>1094</ele><speed>7.75</speed><time>2016-06-21T13:28:57Z</time><pdop>3.0</pdop><geoidheight>53.00</geoidheight><course>161.6</course><type>1</type></trkpt>
      <trkpt lat="39.21427257" lon="-6.12115649"><ele>1094</ele><speed>7.50</speed><time>2016-06-21T13:28:58Z</time><pdop>4.0</pdop><geoidheight>53.00</geoidheight><course>165.6</course><type>1</type></trkpt>
      <trkpt lat="39.21415937" lon="-6.12114589"><ele>1094</ele><speed>6.00</speed><time>2016-06-21T13:29:00Z</time><pdop>4.0</pdop><geoidheight>53.00</geoidheight><course>179.9</course><type>1</type></trkpt>
      <trkpt lat="39.2140491" lon="-6.12114329"><ele>1094</ele><speed>6.50</speed><time>2016-06-21T13:29:02Z</time><pdop>4.0</pdop><geoidheight>53.00</geoidheight><course>180.4</course><type>1</type></trkpt>
      <trkpt lat="39.21397477" lon="-6.12113069"><ele>1095</ele><speed>7.75</speed><time>2016-06-21T13:29:03Z</time><pdop>4.0</pdop><geoidheight>53.00</geoidheight><course>178.3</course><type>1</type></trkpt>
      <trkpt lat="39.21390478" lon="-6.12112065"><ele>1095</ele><speed>8.00</speed><time>2016-06-21T13:29:04Z</time><pdop>3.0</pdop><geoidheight>53.00</geoidheight><course>175.7</course><type>1</type></trkpt>
      <trkpt lat="39.21383846" lon="-6.12111381"><ele>1094</ele><speed>7.50</speed><time>2016-06-21T13:29:05Z</time><pdop>3.0</pdop><geoidheight>53.00</geoidheight><course>174.6</course><type>1</type></trkpt>
      <trkpt lat="39.21377343" lon="-6.12110746"><ele>1093</ele><speed>7.00</speed><time>2016-06-21T13:29:06Z</time><pdop>3.0</pdop><geoidheight>53.00</geoidheight><course>176.6</course><type>1</type></trkpt>
      <trkpt lat="39.21370709" lon="-6.12110447"><ele>1091</ele><speed>7.25</speed><time>2016-06-21T13:29:07Z</time><pdop>3.0</pdop><geoidheight>53.00</geoidheight><course>176.9</course><type>1</type></trkpt>
      <trkpt lat="39.21363616" lon="-6.12110274"><ele>1087</ele><speed>7.50</speed><time>2016-06-21T13:29:08Z</time><pdop>3.0</pdop><geoidheight>53.00</geoidheight><course>177.7</course><type>1</type></trkpt>
      <trkpt lat="39.21356021" lon="-6.12109792"><ele>1083</ele><speed>8.25</speed><time>2016-06-21T13:29:09Z</time><pdop>3.0</pdop><geoidheight>53.00</geoidheight><course>178.2</course><type>1</type></trkpt>
      <trkpt lat="39.21347808" lon="-6.12109373"><ele>1082</ele><speed>9.00</speed><time>2016-06-21T13:29:10Z</time><pdop>3.0</pdop><geoidheight>53.00</geoidheight><course>179.1</course><type>1</type></trkpt>
      <trkpt lat="39.21339554" lon="-6.1210875"><ele>1081</ele><speed>9.25</speed><time>2016-06-21T13:29:11Z</time><pdop>4.0</pdop><geoidheight>53.00</geoidheight><course>178.8</course><type>1</type></trkpt>
      <trkpt lat="39.21332061" lon="-6.12107871"><ele>1081</ele><speed>8.50</speed><time>2016-06-21T13:29:12Z</time><pdop>4.0</pdop><geoidheight>53.00</geoidheight><course>176.9</course><type>1</type></trkpt>
      <trkpt lat="39.21323913" lon="-6.12108541"><ele>1082</ele><speed>4.75</speed><time>2016-06-21T13:29:14Z</time><pdop>4.0</pdop><geoidheight>53.00</geoidheight><course>178.8</course><type>1</type></trkpt>
      <trkpt lat="39.21315053" lon="-6.12107602"><ele>1078</ele><speed>5.50</speed><time>2016-06-21T13:29:16Z</time><pdop>4.0</pdop><geoidheight>53.00</geoidheight><course>174.2</course><type>1</type></trkpt>
      <trkpt lat="39.21301625" lon="-6.12104653"><ele>1076</ele><speed>7.75</speed><time>2016-06-21T13:29:18Z</time><pdop>4.0</pdop><geoidheight>53.00</geoidheight><course>172.0</course><type>1</type></trkpt>
      <trkpt lat="39.21289769" lon="-6.12103021"><ele>1076</ele><speed>6.25</speed><time>2016-06-21T13:29:20Z</time><pdop>3.0</pdop><geoidheight>53.00</geoidheight><course>172.9</course><type>1</type></trkpt>
      <trkpt lat="39.21279941" lon="-6.12101911"><ele>1077</ele><speed>5.25</speed><time>2016-06-21T13:29:22Z</time><pdop>3.0</pdop><geoidheight>53.00</geoidheight><course>172.9</course><type>1</type></trkpt>
      <trkpt lat="39.21269528" lon="-6.12100382"><ele>1076</ele><speed>6.00</speed><time>2016-06-21T13:29:24Z</time><pdop>3.0</pdop><geoidheight>53.00</geoidheight><course>171.9</course><type>1</type></trkpt>
      <trkpt lat="39.21264133" lon="-6.1209916"><ele>1076</ele><speed>6.25</speed><time>2016-06-21T13:29:25Z</time><pdop>3.0</pdop><geoidheight>53.00</geoidheight><course>169.7</course><type>1</type></trkpt>
      <trkpt lat="39.21258864" lon="-6.12097663"><ele>1075</ele><speed>6.25</speed><time>2016-06-21T13:29:26Z</time><pdop>3.0</pdop><geoidheight>53.00</geoidheight><course>169.0</course><type>1</type></trkpt>
      <trkpt lat="39.21253107" lon="-6.12095876"><ele>1074</ele><speed>6.50</speed><time>2016-06-21T13:29:27Z</time><pdop>3.0</pdop><geoidheight>53.00</geoidheight><course>169.6</course><type>1</type></trkpt>
      <trkpt lat="39.21240919" lon="-6.12093789"><ele>1072</ele><speed>6.75</speed><time>2016-06-21T13:29:29Z</time><pdop>4.0</pdop><geoidheight>53.00</geoidheight><course>173.7</course><type>1</type></trkpt>
      <trkpt lat="39.21228787" lon="-6.12093755"><ele>1070</ele><speed>7.00</speed><time>2016-06-21T13:29:31Z</time><pdop>9.0</pdop><geoidheight>53.00</geoidheight><course>180.4</course><type>1</type></trkpt>
      <trkpt lat="39.21210423" lon="-6.12095462"><ele>1068</ele><speed>6.50</speed><time>2016-06-21T13:29:34Z</time><pdop>9.0</pdop><geoidheight>53.00</geoidheight><course>187.2</course><type>1</type></trkpt>
      <trkpt lat="39.21191494" lon="-6.12095671"><ele>1063</ele><speed>7.25</speed><time>2016-06-21T13:29:37Z</time><pdop>9.0</pdop><geoidheight>53.00</geoidheight><course>178.0</course><type>1</type></trkpt>
      <trkpt lat="39.211731" lon="-6.12096905"><ele>1063</ele><speed>6.50</speed><time>2016-06-21T13:29:40Z</time><pdop>10.0</pdop><geoidheight>53.00</geoidheight><course>187.3</course><type>1</type></trkpt>
      <trkpt lat="39.21153019" lon="-6.12096522"><ele>1062</ele><speed>7.75</speed><time>2016-06-21T13:29:43Z</time><pdop>10.0</pdop><geoidheight>53.00</geoidheight><course>177.9</course><type>1</type></trkpt>
      <trkpt lat="39.21131686" lon="-6.12095704"><ele>1061</ele><speed>7.50</speed><time>2016-06-21T13:29:46Z</time><pdop>9.0</pdop><geoidheight>53.00</geoidheight><course>176.5</course><type>1</type></trkpt>
      <trkpt lat="39.21112044" lon="-6.12093105"><ele>1059</ele><speed>7.25</speed><time>2016-06-21T13:29:49Z</time><pdop>9.0</pdop><geoidheight>53.00</geoidheight><course>175.8</course><type>1</type></trkpt>
      <trkpt lat="39.210917" lon="-6.12093362"><ele>1057</ele><speed>7.25</speed><time>2016-06-21T13:29:52Z</time><pdop>10.0</pdop><geoidheight>53.00</geoidheight><course>179.4</course><type>1</type></trkpt>
      <trkpt lat="39.21069212" lon="-6.12095824"><ele>1054</ele><speed>6.25</speed><time>2016-06-21T13:29:56Z</time><pdop>10.0</pdop><geoidheight>53.00</geoidheight><course>182.1</course><type>1</type></trkpt>
      <trkpt lat="39.21046875" lon="-6.12094648"><ele>1049</ele><speed>6.25</speed><time>2016-06-21T13:30:00Z</time><pdop>9.0</pdop><geoidheight>53.00</geoidheight><course>178.3</course><type>1</type></trkpt>
      <trkpt lat="39.21025525" lon="-6.12095147"><ele>1047</ele><speed>5.75</speed><time>2016-06-21T13:30:04Z</time><pdop>10.0</pdop><geoidheight>53.00</geoidheight><course>176.9</course><type>1</type></trkpt>
      <trkpt lat="39.2100697" lon="-6.12091408"><ele>1047</ele><speed>7.25</speed><time>2016-06-21T13:30:07Z</time><pdop>10.0</pdop><geoidheight>53.00</geoidheight><course>169.5</course><type>1</type></trkpt>
      <trkpt lat="39.20984418" lon="-6.12085773"><ele>1045</ele><speed>8.50</speed><time>2016-06-21T13:30:10Z</time><pdop>10.0</pdop><geoidheight>53.00</geoidheight><course>171.2</course><type>1</type></trkpt>
      <trkpt lat="39.20962926" lon="-6.12080369"><ele>1045</ele><speed>7.75</speed><time>2016-06-21T13:30:13Z</time><pdop>11.0</pdop><geoidheight>53.00</geoidheight><course>166.7</course><type>1</type></trkpt>
      <trkpt lat="39.20943849" lon="-6.12082757"><ele>1042</ele><speed>6.75</speed><time>2016-06-21T13:30:17Z</time><pdop>10.0</pdop><geoidheight>53.00</geoidheight><course>182.2</course><type>1</type></trkpt>
      <trkpt lat="39.2092429" lon="-6.12083274"><ele>1040</ele><speed>7.00</speed><time>2016-06-21T13:30:20Z</time><pdop>10.0</pdop><geoidheight>53.00</geoidheight><course>179.5</course><type>1</type></trkpt>
      <trkpt lat="39.20902385" lon="-6.12078294"><ele>1038</ele><speed>5.00</speed><time>2016-06-21T13:30:25Z</time><pdop>10.0</pdop><geoidheight>53.00</geoidheight><course>162.7</course><type>1</type></trkpt>
      <trkpt lat="39.20878883" lon="-6.12071865"><ele>1034</ele><speed>7.25</speed><time>2016-06-21T13:30:29Z</time><pdop>9.0</pdop><geoidheight>53.00</geoidheight><course>169.2</course><type>1</type></trkpt>
      <trkpt lat="39.20856737" lon="-6.12070653"><ele>1028</ele><speed>8.25</speed><time>2016-06-21T13:30:32Z</time><pdop>9.0</pdop><geoidheight>53.00</geoidheight><course>182.2</course><type>1</type></trkpt>
      <trkpt lat="39.20833648" lon="-6.12074456"><ele>1022</ele><speed>8.75</speed><time>2016-06-21T13:30:35Z</time><pdop>10.0</pdop><geoidheight>53.00</geoidheight><course>187.5</course><type>1</type></trkpt>
      <trkpt lat="39.20810332" lon="-6.12079865"><ele>1018</ele><speed>6.50</speed><time>2016-06-21T13:30:39Z</time><pdop>10.0</pdop><geoidheight>53.00</geoidheight><course>177.8</course><type>1</type></trkpt>
      <trkpt lat="39.2078996" lon="-6.12075675"><ele>1017</ele><speed>7.50</speed><time>2016-06-21T13:30:42Z</time><pdop>10.0</pdop><geoidheight>53.00</geoidheight><course>173.2</course><type>1</type></trkpt>
      <trkpt lat="39.20774034" lon="-6.12061655"><ele>1017</ele><speed>6.75</speed><time>2016-06-21T13:30:45Z</time><pdop>10.0</pdop><geoidheight>53.00</geoidheight><course>139.7</course><type>1</type></trkpt>
      <trkpt lat="39.20756926" lon="-6.12045172"><ele>1034</ele><speed>4.50</speed><time>2016-06-21T13:30:50Z</time><pdop>11.0</pdop><geoidheight>53.00</geoidheight><course>147.5</course><type>1</type></trkpt>
      <trkpt lat="39.20737306" lon="-6.12033212"><ele>1017</ele><speed>7.50</speed><time>2016-06-21T13:30:53Z</time><pdop>10.0</pdop><geoidheight>53.00</geoidheight><course>152.0</course><type>1</type></trkpt>
      <trkpt lat="39.20717488" lon="-6.12036907"><ele>1006</ele><speed>4.75</speed><time>2016-06-21T13:30:57Z</time><pdop>9.0</pdop><geoidheight>53.00</geoidheight><course>189.6</course><type>1</type></trkpt>
      <trkpt lat="39.20699643" lon="-6.12033963"><ele>993</ele><speed>7.50</speed><time>2016-06-21T13:31:00Z</time><pdop>10.0</pdop><geoidheight>53.00</geoidheight><course>161.7</course><type>1</type></trkpt>
      <trkpt lat="39.20677049" lon="-6.12028867"><ele>985</ele><speed>6.75</speed><time>2016-06-21T13:31:04Z</time><pdop>10.0</pdop><geoidheight>53.00</geoidheight><course>174.0</course><type>1</type></trkpt>
      <trkpt lat="39.20655371" lon="-6.12031385"><ele>983</ele><speed>8.00</speed><time>2016-06-21T13:31:07Z</time><pdop>10.0</pdop><geoidheight>53.00</geoidheight><course>187.1</course><type>1</type></trkpt>
      <trkpt lat="39.20635267" lon="-6.12045447"><ele>996</ele><speed>6.00</speed><time>2016-06-21T13:31:12Z</time><pdop>9.0</pdop><geoidheight>53.00</geoidheight><course>205.4</course><type>1</type></trkpt>
      <trkpt lat="39.20616394" lon="-6.12054865"><ele>996</ele><speed>7.50</speed><time>2016-06-21T13:31:15Z</time><pdop>10.0</pdop><geoidheight>53.00</geoidheight><course>198.0</course><type>1</type></trkpt>
      <trkpt lat="39.20599454" lon="-6.12071715"><ele>994</ele><speed>8.75</speed><time>2016-06-21T13:31:18Z</time><pdop>9.0</pdop><geoidheight>53.00</geoidheight><course>222.7</course><type>1</type></trkpt>
      <trkpt lat="39.20587723" lon="-6.12090797"><ele>991</ele><speed>11.25</speed><time>2016-06-21T13:31:20Z</time><pdop>9.0</pdop><geoidheight>53.00</geoidheight><course>230.4</course><type>1</type></trkpt>
      <trkpt lat="39.20579922" lon="-6.12116895"><ele>989</ele><speed>12.00</speed><time>2016-06-21T13:31:22Z</time><pdop>9.0</pdop><geoidheight>53.00</geoidheight><course>252.7</course><type>1</type></trkpt>
      <trkpt lat="39.20580975" lon="-6.12141227"><ele>987</ele><speed>10.00</speed><time>2016-06-21T13:31:24Z</time><pdop>9.0</pdop><geoidheight>53.00</geoidheight><course>275.9</course><type>1</type></trkpt>
      <trkpt lat="39.20588157" lon="-6.12162993"><ele>980</ele><speed>10.75</speed><time>2016-06-21T13:31:26Z</time><pdop>10.0</pdop><geoidheight>53.00</geoidheight><course>294.7</course><type>1</type></trkpt>
      <trkpt lat="39.20605717" lon="-6.12180929"><ele>978</ele><speed>12.75</speed><time>2016-06-21T13:31:28Z</time><pdop>10.0</pdop><geoidheight>53.00</geoidheight><course>321.0</course><type>1</type></trkpt>
      <trkpt lat="39.20631655" lon="-6.12181982"><ele>976</ele><speed>13.50</speed><time>2016-06-21T13:31:30Z</time><pdop>10.0</pdop><geoidheight>53.00</geoidheight><course>355.2</course><type>1</type></trkpt>
      <trkpt lat="39.20644285" lon="-6.12159282"><ele>974</ele><speed>10.50</speed><time>2016-06-21T13:31:32Z</time><pdop>10.0</pdop><geoidheight>53.00</geoidheight><course>43.1</course><type>1</type></trkpt>
      <trkpt lat="39.2065349" lon="-6.12134974"><ele>971</ele><speed>8.25</speed><time>2016-06-21T13:31:35Z</time><pdop>10.0</pdop><geoidheight>53.00</geoidheight><course>68.5</course><type>1</type></trkpt>
      <trkpt lat="39.20657482" lon="-6.12109489"><ele>975</ele><speed>7.00</speed><time>2016-06-21T13:31:38Z</time><pdop>9.0</pdop><geoidheight>53.00</geoidheight><course>83.3</course><type>1</type></trkpt>
      <trkpt lat="39.20651778" lon="-6.12089635"><ele>980</ele><speed>6.50</speed><time>2016-06-21T13:31:41Z</time><pdop>9.0</pdop><geoidheight>53.00</geoidheight><course>122.4</course><type>1</type></trkpt>
      <trkpt lat="39.20638887" lon="-6.12072312"><ele>984</ele><speed>7.00</speed><time>2016-06-21T13:31:44Z</time><pdop>9.0</pdop><geoidheight>53.00</geoidheight><course>139.0</course><type>1</type></trkpt>
      <trkpt lat="39.20620206" lon="-6.12078544"><ele>987</ele><speed>7.75</speed><time>2016-06-21T13:31:47Z</time><pdop>9.0</pdop><geoidheight>53.00</geoidheight><course>212.3</course><type>1</type></trkpt>
      <trkpt lat="39.20610712" lon="-6.12107081"><ele>981</ele><speed>9.25</speed><time>2016-06-21T13:31:50Z</time><pdop>10.0</pdop><geoidheight>53.00</geoidheight><course>253.0</course><type>1</type></trkpt>
      <trkpt lat="39.20623147" lon="-6.1213608"><ele>975</ele><speed>12.00</speed><time>2016-06-21T13:31:52Z</time><pdop>10.0</pdop><geoidheight>53.00</geoidheight><course>296.6</course><type>1</type></trkpt>
      <trkpt lat="39.20638031" lon="-6.12155553"><ele>974</ele><speed>11.25</speed><time>2016-06-21T13:31:54Z</time><pdop>11.0</pdop><geoidheight>53.00</geoidheight><course>308.7</course><type>1</type></trkpt>
      <trkpt lat="39.20658042" lon="-6.12138151"><ele>979</ele><speed>6.25</speed><time>2016-06-21T13:31:57Z</time><pdop>9.0</pdop><geoidheight>53.00</geoidheight><course>33.8</course><type>1</type></trkpt>
      <trkpt lat="39.20672351" lon="-6.12121081"><ele>982</ele><speed>5.50</speed><time>2016-06-21T13:32:01Z</time><pdop>9.0</pdop><geoidheight>53.00</geoidheight><course>47.5</course><type>1</type></trkpt>
      <trkpt lat="39.20684545" lon="-6.12098169"><ele>983</ele><speed>7.50</speed><time>2016-06-21T13:32:04Z</time><pdop>9.0</pdop><geoidheight>53.00</geoidheight><course>58.5</course><type>1</type></trkpt>
      <trkpt lat="39.20693516" lon="-6.12080036"><ele>984</ele><speed>6.00</speed><time>2016-06-21T13:32:07Z</time><pdop>9.0</pdop><geoidheight>53.00</geoidheight><course>64.0</course><type>1</type></trkpt>
      <trkpt lat="39.20697845" lon="-6.12057584"><ele>986</ele><speed>5.75</speed><time>2016-06-21T13:32:10Z</time><pdop>9.0</pdop><geoidheight>53.00</geoidheight><course>91.7</course><type>1</type></trkpt>
      <trkpt lat="39.20681659" lon="-6.12045357"><ele>988</ele><speed>6.00</speed><time>2016-06-21T13:32:14Z</time><pdop>9.0</pdop><geoidheight>53.00</geoidheight><course>177.4</course><type>1</type></trkpt>
      <trkpt lat="39.20660244" lon="-6.12051628"><ele>990</ele><speed>6.50</speed><time>2016-06-21T13:32:18Z</time><pdop>11.0</pdop><geoidheight>53.00</geoidheight><course>197.2</course><type>1</type></trkpt>
      <trkpt lat="39.20646681" lon="-6.12069556"><ele>1001</ele><speed>7.50</speed><time>2016-06-21T13:32:21Z</time><pdop>9.0</pdop><geoidheight>53.00</geoidheight><course>231.2</course><type>1</type></trkpt>
      <trkpt lat="39.20649492" lon="-6.12097608"><ele>1002</ele><speed>8.75</speed><time>2016-06-21T13:32:24Z</time><pdop>10.0</pdop><geoidheight>53.00</geoidheight><course>293.0</course><type>1</type></trkpt>
      <trkpt lat="39.20665649" lon="-6.12114107"><ele>1002</ele><speed>11.25</speed><time>2016-06-21T13:32:26Z</time><pdop>10.0</pdop><geoidheight>53.00</geoidheight><course>320.0</course><type>1</type></trkpt>
      <trkpt lat="39.20688287" lon="-6.12120827"><ele>1004</ele><speed>7.75</speed><time>2016-06-21T13:32:29Z</time><pdop>10.0</pdop><geoidheight>53.00</geoidheight><course>353.5</course><type>1</type></trkpt>
      <trkpt lat="39.20714677" lon="-6.1212209"><ele>1006</ele><speed>8.75</speed><time>2016-06-21T13:32:33Z</time><pdop>10.0</pdop><geoidheight>53.00</geoidheight><course>345.7</course><type>1</type></trkpt>
      <trkpt lat="39.20731611" lon="-6.1211594"><ele>1000</ele><speed>9.50</speed><time>2016-06-21T13:32:35Z</time><pdop>9.0</pdop><geoidheight>53.00</geoidheight><course>24.6</course><type>1</type></trkpt>
      <trkpt lat="39.20738841" lon="-6.12092528"><ele>999</ele><speed>6.75</speed><time>2016-06-21T13:32:38Z</time><pdop>9.0</pdop><geoidheight>53.00</geoidheight><course>89.5</course><type>1</type></trkpt>
      <trkpt lat="39.20733321" lon="-6.12069413"><ele>997</ele><speed>7.00</speed><time>2016-06-21T13:32:41Z</time><pdop>9.0</pdop><geoidheight>53.00</geoidheight><course>109.3</course><type>1</type></trkpt>
      <trkpt lat="39.20716425" lon="-6.12043968"><ele>994</ele><speed>6.75</speed><time>2016-06-21T13:32:46Z</time><pdop>10.0</pdop><geoidheight>53.00</geoidheight><course>141.1</course><type>1</type></trkpt>
      <trkpt lat="39.20694995" lon="-6.12040763"><ele>993</ele><speed>5.00</speed><time>2016-06-21T13:32:50Z</time><pdop>10.0</pdop><geoidheight>53.00</geoidheight><course>177.3</course><type>1</type></trkpt>
      <trkpt lat="39.20675998" lon="-6.12033558"><ele>991</ele><speed>5.50</speed><time>2016-06-21T13:32:54Z</time><pdop>10.0</pdop><geoidheight>53.00</geoidheight><course>154.0</course><type>1</type></trkpt>
      <trkpt lat="39.20657663" lon="-6.12026908"><ele>992</ele><speed>7.00</speed><time>2016-06-21T13:32:57Z</time><pdop>10.0</pdop><geoidheight>53.00</geoidheight><course>163.6</course><type>1</type></trkpt>
      <trkpt lat="39.20639521" lon="-6.12017718"><ele>993</ele><speed>7.00</speed><time>2016-06-21T13:33:00Z</time><pdop>11.0</pdop><geoidheight>53.00</geoidheight><course>157.3</course><type>1</type></trkpt>
      <trkpt lat="39.20622727" lon="-6.11999256"><ele>994</ele><speed>8.00</speed><time>2016-06-21T13:33:03Z</time><pdop>11.0</pdop><geoidheight>53.00</geoidheight><course>138.4</course><type>1</type></trkpt>
      <trkpt lat="39.20607242" lon="-6.11978004"><ele>997</ele><speed>8.00</speed><time>2016-06-21T13:33:06Z</time><pdop>10.0</pdop><geoidheight>53.00</geoidheight><course>141.8</course><type>1</type></trkpt>
      <trkpt lat="39.20585218" lon="-6.11965921"><ele>1004</ele><speed>9.25</speed><time>2016-06-21T13:33:09Z</time><pdop>9.0</pdop><geoidheight>53.00</geoidheight><course>164.2</course><type>1</type></trkpt>
      <trkpt lat="39.20562816" lon="-6.11958986"><ele>1009</ele><speed>7.50</speed><time>2016-06-21T13:33:12Z</time><pdop>9.0</pdop><geoidheight>53.00</geoidheight><course>172.7</course><type>1</type></trkpt>
      <trkpt lat="39.20542915" lon="-6.11958923"><ele>1010</ele><speed>7.75</speed><time>2016-06-21T13:33:15Z</time><pdop>10.0</pdop><geoidheight>53.00</geoidheight><course>187.6</course><type>1</type></trkpt>
      <trkpt lat="39.20520862" lon="-6.1196661"><ele>1010</ele><speed>8.00</speed><time>2016-06-21T13:33:18Z</time><pdop>9.0</pdop><geoidheight>53.00</geoidheight><course>199.9</course><type>1</type></trkpt>
      <trkpt lat="39.20496781" lon="-6.11982156"><ele>1009</ele><speed>7.25</speed><time>2016-06-21T13:33:22Z</time><pdop>11.0</pdop><geoidheight>53.00</geoidheight><course>197.4</course><type>1</type></trkpt>
      <trkpt lat="39.20483472" lon="-6.11962469"><ele>1007</ele><speed>8.00</speed><time>2016-06-21T13:33:25Z</time><pdop>9.0</pdop><geoidheight>53.00</geoidheight><course>119.1</course><type>1</type></trkpt>
      <trkpt lat="39.20484495" lon="-6.1193958"><ele>1006</ele><speed>5.00</speed><time>2016-06-21T13:33:28Z</time><pdop>9.0</pdop><geoidheight>53.00</geoidheight><course>73.0</course><type>1</type></trkpt>
      <trkpt lat="39.20493495" lon="-6.11913976"><ele>995</ele><speed>7.75</speed><time>2016-06-21T13:33:32Z</time><pdop>9.0</pdop><geoidheight>53.00</geoidheight><course>60.1</course><type>1</type></trkpt>
      <trkpt lat="39.20508205" lon="-6.11894526"><ele>992</ele><speed>8.25</speed><time>2016-06-21T13:33:35Z</time><pdop>9.0</pdop><geoidheight>53.00</geoidheight><course>40.6</course><type>1</type></trkpt>
      <trkpt lat="39.20532051" lon="-6.11879003"><ele>990</ele><speed>8.50</speed><time>2016-06-21T13:33:39Z</time><pdop>9.0</pdop><geoidheight>53.00</geoidheight><course>23.0</course><type>1</type></trkpt>
      <trkpt lat="39.20549967" lon="-6.11867699"><ele>990</ele><speed>6.50</speed><time>2016-06-21T13:33:42Z</time><pdop>10.0</pdop><geoidheight>53.00</geoidheight><course>26.1</course><type>1</type></trkpt>
      <trkpt lat="39.20568114" lon="-6.11859741"><ele>989</ele><speed>7.00</speed><time>2016-06-21T13:33:45Z</time><pdop>10.0</pdop><geoidheight>53.00</geoidheight><course>11.8</course><type>1</type></trkpt>
      <trkpt lat="39.20585633" lon="-6.11861452"><ele>987</ele><speed>9.50</speed><time>2016-06-21T13:33:47Z</time><pdop>9.0</pdop><geoidheight>53.00</geoidheight><course>352.6</course><type>1</type></trkpt>
      <trkpt lat="39.20602739" lon="-6.11865785"><ele>987</ele><speed>9.50</speed><time>2016-06-21T13:33:49Z</time><pdop>10.0</pdop><geoidheight>53.00</geoidheight><course>346.3</course><type>1</type></trkpt>
      <trkpt lat="39.20630144" lon="-6.11873324"><ele>986</ele><speed>10.75</speed><time>2016-06-21T13:33:52Z</time><pdop>10.0</pdop><geoidheight>53.00</geoidheight><course>348.5</course><type>1</type></trkpt>
      <trkpt lat="39.20648324" lon="-6.11876873"><ele>985</ele><speed>10.25</speed><time>2016-06-21T13:33:54Z</time><pdop>9.0</pdop><geoidheight>53.00</geoidheight><course>354.3</course><type>1</type></trkpt>
      <trkpt lat="39.20665767" lon="-6.11879491"><ele>985</ele><speed>10.00</speed><time>2016-06-21T13:33:56Z</time><pdop>10.0</pdop><geoidheight>53.00</geoidheight><course>354.5</course><type>1</type></trkpt>
      <trkpt lat="39.20683217" lon="-6.11886072"><ele>986</ele><speed>9.75</speed><time>2016-06-21T13:33:58Z</time><pdop>10.0</pdop><geoidheight>53.00</geoidheight><course>338.9</course><type>1</type></trkpt>
      <trkpt lat="39.20700467" lon="-6.11902944"><ele>984</ele><speed>11.50</speed><time>2016-06-21T13:34:00Z</time><pdop>9.0</pdop><geoidheight>53.00</geoidheight><course>318.0</course><type>1</type></trkpt>
      <trkpt lat="39.207138" lon="-6.11927922"><ele>980</ele><speed>12.75</speed><time>2016-06-21T13:34:02Z</time><pdop>9.0</pdop><geoidheight>53.00</geoidheight><course>304.0</course><type>1</type></trkpt>
      <trkpt lat="39.20735018" lon="-6.11943689"><ele>978</ele><speed>8.75</speed><time>2016-06-21T13:34:05Z</time><pdop>10.0</pdop><geoidheight>53.00</geoidheight><course>340.1</course><type>1</type></trkpt>
      <trkpt lat="39.20745509" lon="-6.11912395"><ele>974</ele><speed>8.00</speed><time>2016-06-21T13:34:09Z</time><pdop>10.0</pdop><geoidheight>53.00</geoidheight><course>85.0</course><type>1</type></trkpt>
      <trkpt lat="39.20740165" lon="-6.11889036"><ele>973</ele><speed>6.25</speed><time>2016-06-21T13:34:12Z</time><pdop>10.0</pdop><geoidheight>53.00</geoidheight><course>120.5</course><type>1</type></trkpt>
      <trkpt lat="39.20723516" lon="-6.11867845"><ele>971</ele><speed>8.75</speed><time>2016-06-21T13:34:15Z</time><pdop>10.0</pdop><geoidheight>53.00</geoidheight><course>136.5</course><type>1</type></trkpt>
      <trkpt lat="39.20707785" lon="-6.11854305"><ele>969</ele><speed>7.25</speed><time>2016-06-21T13:34:18Z</time><pdop>11.0</pdop><geoidheight>53.00</geoidheight><course>139.5</course><type>1</type></trkpt>
      <trkpt lat="39.20690597" lon="-6.11834492"><ele>967</ele><speed>6.75</speed><time>2016-06-21T13:34:22Z</time><pdop>10.0</pdop><geoidheight>53.00</geoidheight><course>142.3</course><type>1</type></trkpt>
      <trkpt lat="39.20672079" lon="-6.1182175"><ele>965</ele><speed>8.00</speed><time>2016-06-21T13:34:25Z</time><pdop>11.0</pdop><geoidheight>53.00</geoidheight><course>149.6</course><type>1</type></trkpt>
      <trkpt lat="39.20649097" lon="-6.11804878"><ele>994</ele><speed>10.00</speed><time>2016-06-21T13:34:28Z</time><pdop>9.0</pdop><geoidheight>53.00</geoidheight><course>150.2</course><type>1</type></trkpt>
      <trkpt lat="39.20630485" lon="-6.11787145"><ele>972</ele><speed>8.50</speed><time>2016-06-21T13:34:31Z</time><pdop>10.0</pdop><geoidheight>53.00</geoidheight><course>141.9</course><type>1</type></trkpt>
      <trkpt lat="39.20613501" lon="-6.11775256"><ele>965</ele><speed>8.00</speed><time>2016-06-21T13:34:34Z</time><pdop>10.0</pdop><geoidheight>53.00</geoidheight><course>151.1</course><type>1</type></trkpt>
      <trkpt lat="39.2059313" lon="-6.11760713"><ele>962</ele><speed>8.00</speed><time>2016-06-21T13:34:37Z</time><pdop>10.0</pdop><geoidheight>53.00</geoidheight><course>153.0</course><type>1</type></trkpt>
      <trkpt lat="39.2057387" lon="-6.11756842"><ele>967</ele><speed>7.75</speed><time>2016-06-21T13:34:40Z</time><pdop>9.0</pdop><geoidheight>53.00</geoidheight><course>176.3</course><type>1</type></trkpt>
      <trkpt lat="39.2055656" lon="-6.11773652"><ele>970</ele><speed>9.25</speed><time>2016-06-21T13:34:43Z</time><pdop>9.0</pdop><geoidheight>53.00</geoidheight><course>236.9</course><type>1</type></trkpt>
      <trkpt lat="39.20552396" lon="-6.11799276"><ele>1001</ele><speed>12.00</speed><time>2016-06-21T13:34:45Z</time><pdop>10.0</pdop><geoidheight>53.00</geoidheight><course>259.2</course><type>1</type></trkpt>
      <trkpt lat="39.20563771" lon="-6.11824762"><ele>1001</ele><speed>12.00</speed><time>2016-06-21T13:34:47Z</time><pdop>9.0</pdop><geoidheight>53.00</geoidheight><course>297.8</course><type>1</type></trkpt>
      <trkpt lat="39.20575189" lon="-6.1184444"><ele>986</ele><speed>10.50</speed><time>2016-06-21T13:34:49Z</time><pdop>10.0</pdop><geoidheight>53.00</geoidheight><course>307.8</course><type>1</type></trkpt>
      <trkpt lat="39.20603966" lon="-6.11839259"><ele>983</ele><speed>8.25</speed><time>2016-06-21T13:34:53Z</time><pdop>9.0</pdop><geoidheight>53.00</geoidheight><course>26.2</course><type>1</type></trkpt>
      <trkpt lat="39.20615478" lon="-6.11817077"><ele>991</ele><speed>7.50</speed><time>2016-06-21T13:34:56Z</time><pdop>9.0</pdop><geoidheight>53.00</geoidheight><course>68.3</course><type>1</type></trkpt>
      <trkpt lat="39.2061743" lon="-6.11795145"><ele>995</ele><speed>4.50</speed><time>2016-06-21T13:34:59Z</time><pdop>9.0</pdop><geoidheight>53.00</geoidheight><course>107.1</course><type>1</type></trkpt>
      <trkpt lat="39.2059786" lon="-6.11783948"><ele>998</ele><speed>8.50</speed><time>2016-06-21T13:35:03Z</time><pdop>9.0</pdop><geoidheight>53.00</geoidheight><course>182.5</course><type>1</type></trkpt>
      <trkpt lat="39.20580356" lon="-6.11805302"><ele>1002</ele><speed>10.25</speed><time>2016-06-21T13:35:06Z</time><pdop>9.0</pdop><geoidheight>53.00</geoidheight><course>237.9</course><type>1</type></trkpt>
      <trkpt lat="39.20577739" lon="-6.11830246"><ele>1008</ele><speed>11.25</speed><time>2016-06-21T13:35:08Z</time><pdop>9.0</pdop><geoidheight>53.00</geoidheight><course>265.1</course><type>1</type></trkpt>
      <trkpt lat="39.20583839" lon="-6.11854594"><ele>1013</ele><speed>11.25</speed><time>2016-06-21T13:35:10Z</time><pdop>9.0</pdop><geoidheight>53.00</geoidheight><course>290.5</course><type>1</type></trkpt>
      <trkpt lat="39.20594837" lon="-6.11876322"><ele>1018</ele><speed>10.75</speed><time>2016-06-21T13:35:12Z</time><pdop>9.0</pdop><geoidheight>53.00</geoidheight><course>304.9</course><type>1</type></trkpt>
      <trkpt lat="39.20611892" lon="-6.11889036"><ele>1013</ele><speed>11.00</speed><time>2016-06-21T13:35:14Z</time><pdop>9.0</pdop><geoidheight>53.00</geoidheight><course>335.6</course><type>1</type></trkpt>
      <trkpt lat="39.20632274" lon="-6.11887998"><ele>1022</ele><speed>11.00</speed><time>2016-06-21T13:35:16Z</time><pdop>9.0</pdop><geoidheight>53.00</geoidheight><course>7.9</course><type>1</type></trkpt>
      <trkpt lat="39.20646962" lon="-6.11877359"><ele>1028</ele><speed>8.75</speed><time>2016-06-21T13:35:18Z</time><pdop>9.0</pdop><geoidheight>53.00</geoidheight><course>34.0</course><type>1</type></trkpt>
      <trkpt lat="39.20658648" lon="-6.11857495"><ele>1035</ele><speed>6.00</speed><time>2016-06-21T13:35:21Z</time><pdop>10.0</pdop><geoidheight>53.00</geoidheight><course>60.1</course><type>1</type></trkpt>
      <trkpt lat="39.20650532" lon="-6.11836592"><ele>1046</ele><speed>6.00</speed><time>2016-06-21T13:35:25Z</time><pdop>9.0</pdop><geoidheight>53.00</geoidheight><course>145.7</course><type>1</type></trkpt>
      <trkpt lat="39.20623319" lon="-6.11850668"><ele>1059</ele><speed>9.25</speed><time>2016-06-21T13:35:29Z</time><pdop>4.0</pdop><geoidheight>53.00</geoidheight><course>219.8</course><type>1</type></trkpt>
      <trkpt lat="39.20622614" lon="-6.11862002"><ele>1062</ele><speed>9.25</speed><time>2016-06-21T13:35:30Z</time><pdop>4.0</pdop><geoidheight>53.00</geoidheight><course>250.4</course><type>1</type></trkpt>
      <trkpt lat="39.20627056" lon="-6.118757"><ele>1064</ele><speed>10.75</speed><time>2016-06-21T13:35:31Z</time><pdop>3.0</pdop><geoidheight>53.00</geoidheight><course>284.4</course><type>1</type></trkpt>
      <trkpt lat="39.20640317" lon="-6.11896741"><ele>1070</ele><speed>11.50</speed><time>2016-06-21T13:35:33Z</time><pdop>4.0</pdop><geoidheight>53.00</geoidheight><course>309.8</course><type>1</type></trkpt>
      <trkpt lat="39.20646575" lon="-6.11904647"><ele>1070</ele><speed>10.00</speed><time>2016-06-21T13:35:34Z</time><pdop>5.0</pdop><geoidheight>53.00</geoidheight><course>313.0</course><type>1</type></trkpt>
      <trkpt lat="39.20654856" lon="-6.11905768"><ele>1071</ele><speed>8.25</speed><time>2016-06-21T13:35:35Z</time><pdop>4.0</pdop><geoidheight>53.00</geoidheight><course>336.0</course><type>1</type></trkpt>
      <trkpt lat="39.20663989" lon="-6.11905218"><ele>1071</ele><speed>8.50</speed><time>2016-06-21T13:35:36Z</time><pdop>5.0</pdop><geoidheight>53.00</geoidheight><course>353.7</course><type>1</type></trkpt>
      <trkpt lat="39.2067885" lon="-6.11895475"><ele>1079</ele><speed>7.50</speed><time>2016-06-21T13:35:38Z</time><pdop>3.0</pdop><geoidheight>53.00</geoidheight><course>16.3</course><type>1</type></trkpt>
      <trkpt lat="39.20688064" lon="-6.11891107"><ele>1084</ele><speed>5.25</speed><time>2016-06-21T13:35:40Z</time><pdop>4.0</pdop><geoidheight>53.00</geoidheight><course>22.4</course><type>1</type></trkpt>
      <trkpt lat="39.20692548" lon="-6.11879823"><ele>1087</ele><speed>6.00</speed><time>2016-06-21T13:35:42Z</time><pdop>3.0</pdop><geoidheight>53.00</geoidheight><course>68.4</course><type>1</type></trkpt>
      <trkpt lat="39.20693692" lon="-6.11871718"><ele>1089</ele><speed>6.75</speed><time>2016-06-21T13:35:43Z</time><pdop>3.0</pdop><geoidheight>53.00</geoidheight><course>83.9</course><type>1</type></trkpt>
      <trkpt lat="39.20689605" lon="-6.11860078"><ele>1093</ele><speed>5.00</speed><time>2016-06-21T13:35:45Z</time><pdop>3.0</pdop><geoidheight>53.00</geoidheight><course>133.8</course><type>1</type></trkpt>
      <trkpt lat="39.20680809" lon="-6.11854508"><ele>1095</ele><speed>5.50</speed><time>2016-06-21T13:35:47Z</time><pdop>3.0</pdop><geoidheight>53.00</geoidheight><course>155.2</course><type>1</type></trkpt>
      <trkpt lat="39.20671713" lon="-6.11850921"><ele>1096</ele><speed>6.00</speed><time>2016-06-21T13:35:49Z</time><pdop>3.0</pdop><geoidheight>53.00</geoidheight><course>169.5</course><type>1</type></trkpt>
      <trkpt lat="39.20665738" lon="-6.11851588"><ele>1097</ele><speed>7.00</speed><time>2016-06-21T13:35:50Z</time><pdop>3.0</pdop><geoidheight>53.00</geoidheight><course>184.7</course><type>1</type></trkpt>
      <trkpt lat="39.20658535" lon="-6.11853973"><ele>1097</ele><speed>8.25</speed><time>2016-06-21T13:35:51Z</time><pdop>3.0</pdop><geoidheight>53.00</geoidheight><course>192.8</course><type>1</type></trkpt>
      <trkpt lat="39.20650868" lon="-6.11856455"><ele>1099</ele><speed>8.75</speed><time>2016-06-21T13:35:52Z</time><pdop>3.0</pdop><geoidheight>53.00</geoidheight><course>194.1</course><type>1</type></trkpt>
      <trkpt lat="39.20643863" lon="-6.11858789"><ele>1100</ele><speed>8.50</speed><time>2016-06-21T13:35:53Z</time><pdop>4.0</pdop><geoidheight>53.00</geoidheight><course>194.7</course><type>1</type></trkpt>
      <trkpt lat="39.20631386" lon="-6.11861337"><ele>1103</ele><speed>7.50</speed><time>2016-06-21T13:35:55Z</time><pdop>4.0</pdop><geoidheight>53.00</geoidheight><course>188.6</course><type>1</type></trkpt>
      <trkpt lat="39.20624713" lon="-6.11861405"><ele>1105</ele><speed>7.25</speed><time>2016-06-21T13:35:56Z</time><pdop>3.0</pdop><geoidheight>53.00</geoidheight><course>181.9</course><type>1</type></trkpt>
      <trkpt lat="39.20618171" lon="-6.11859828"><ele>1108</ele><speed>7.50</speed><time>2016-06-21T13:35:57Z</time><pdop>3.0</pdop><geoidheight>53.00</geoidheight><course>172.8</course><type>1</type></trkpt>
      <trkpt lat="39.20611316" lon="-6.11857059"><ele>1111</ele><speed>8.00</speed><time>2016-06-21T13:35:58Z</time><pdop>3.0</pdop><geoidheight>53.00</geoidheight><course>166.4</course><type>1</type></trkpt>
      <trkpt lat="39.20604818" lon="-6.11855128"><ele>1114</ele><speed>7.75</speed><time>2016-06-21T13:35:59Z</time><pdop>3.0</pdop><geoidheight>53.00</geoidheight><course>165.9</course><type>1</type></trkpt>
      <trkpt lat="39.2059876" lon="-6.11854338"><ele>1118</ele><speed>7.00</speed><time>2016-06-21T13:36:00Z</time><pdop>3.0</pdop><geoidheight>53.00</geoidheight><course>173.4</course><type>1</type></trkpt>
      <trkpt lat="39.20587795" lon="-6.11857763"><ele>1124</ele><speed>6.50</speed><time>2016-06-21T13:36:02Z</time><pdop>4.0</pdop><geoidheight>53.00</geoidheight><course>200.2</course><type>1</type></trkpt>
      <trkpt lat="39.20577551" lon="-6.11869666"><ele>1129</ele><speed>8.75</speed><time>2016-06-21T13:36:04Z</time><pdop>3.0</pdop><geoidheight>53.00</geoidheight><course>225.4</course><type>1</type></trkpt>
      <trkpt lat="39.20573088" lon="-6.11878567"><ele>1132</ele><speed>9.50</speed><time>2016-06-21T13:36:05Z</time><pdop>3.0</pdop><geoidheight>53.00</geoidheight><course>235.7</course><type>1</type></trkpt>
      <trkpt lat="39.20567316" lon="-6.11900695"><ele>1136</ele><speed>10.25</speed><time>2016-06-21T13:36:07Z</time><pdop>4.0</pdop><geoidheight>53.00</geoidheight><course>253.7</course><type>1</type></trkpt>
      <trkpt lat="39.2056913" lon="-6.11913299"><ele>1139</ele><speed>10.50</speed><time>2016-06-21T13:36:08Z</time><pdop>3.0</pdop><geoidheight>53.00</geoidheight><course>273.1</course><type>1</type></trkpt>
      <trkpt lat="39.20571475" lon="-6.11924737"><ele>1140</ele><speed>10.25</speed><time>2016-06-21T13:36:09Z</time><pdop>4.0</pdop><geoidheight>53.00</geoidheight><course>283.0</course><type>1</type></trkpt>
      <trkpt lat="39.20576443" lon="-6.11936079"><ele>1143</ele><speed>11.00</speed><time>2016-06-21T13:36:10Z</time><pdop>3.0</pdop><geoidheight>53.00</geoidheight><course>295.8</course><type>1</type></trkpt>
      <trkpt lat="39.20582554" lon="-6.11946732"><ele>1145</ele><speed>11.25</speed><time>2016-06-21T13:36:11Z</time><pdop>3.0</pdop><geoidheight>53.00</geoidheight><course>304.5</course><type>1</type></trkpt>
      <trkpt lat="39.20589391" lon="-6.11955549"><ele>1145</ele><speed>10.75</speed><time>2016-06-21T13:36:12Z</time><pdop>4.0</pdop><geoidheight>53.00</geoidheight><course>312.5</course><type>1</type></trkpt>
      <trkpt lat="39.20596871" lon="-6.11965221"><ele>1145</ele><speed>11.50</speed><time>2016-06-21T13:36:13Z</time><pdop>5.0</pdop><geoidheight>53.00</geoidheight><course>313.9</course><type>1</type></trkpt>
      <trkpt lat="39.2060464" lon="-6.11973983"><ele>1145</ele><speed>11.50</speed><time>2016-06-21T13:36:14Z</time><pdop>5.0</pdop><geoidheight>53.00</geoidheight><course>316.2</course><type>1</type></trkpt>
      <trkpt lat="39.20617262" lon="-6.11978921"><ele>1145</ele><speed>8.00</speed><time>2016-06-21T13:36:16Z</time><pdop>5.0</pdop><geoidheight>53.00</geoidheight><course>329.8</course><type>1</type></trkpt>
      <trkpt lat="39.20631619" lon="-6.11971518"><ele>1145</ele><speed>9.75</speed><time>2016-06-21T13:36:17Z</time><pdop>5.0</pdop><geoidheight>53.00</geoidheight><course>1.1</course><type>1</type></trkpt>
      <trkpt lat="39.20645382" lon="-6.11960704"><ele>1146</ele><speed>8.50</speed><time>2016-06-21T13:36:19Z</time><pdop>5.0</pdop><geoidheight>53.00</geoidheight><course>21.3</course><type>1</type></trkpt>
      <trkpt lat="39.20640157" lon="-6.11948111"><ele>1148</ele><speed>4.75</speed><time>2016-06-21T13:36:21Z</time><pdop>4.0</pdop><geoidheight>53.00</geoidheight><course>98.6</course><type>1</type></trkpt>
      <trkpt lat="39.20634431" lon="-6.11935671"><ele>1154</ele><speed>6.25</speed><time>2016-06-21T13:36:23Z</time><pdop>4.0</pdop><geoidheight>53.00</geoidheight><course>137.5</course><type>1</type></trkpt>
      <trkpt lat="39.20621988" lon="-6.11932264"><ele>1161</ele><speed>8.00</speed><time>2016-06-21T13:36:25Z</time><pdop>4.0</pdop><geoidheight>53.00</geoidheight><course>176.7</course><type>1</type></trkpt>
      <trkpt lat="39.20609222" lon="-6.11936272"><ele>1167</ele><speed>8.00</speed><time>2016-06-21T13:36:27Z</time><pdop>4.0</pdop><geoidheight>53.00</geoidheight><course>202.9</course><type>1</type></trkpt>
      <trkpt lat="39.20603223" lon="-6.11944968"><ele>1171</ele><speed>9.75</speed><time>2016-06-21T13:36:28Z</time><pdop>4.0</pdop><geoidheight>53.00</geoidheight><course>226.5</course><type>1</type></trkpt>
      <trkpt lat="39.20598955" lon="-6.11955191"><ele>1175</ele><speed>10.75</speed><time>2016-06-21T13:36:29Z</time><pdop>3.0</pdop><geoidheight>53.00</geoidheight><course>240.8</course><type>1</type></trkpt>
      <trkpt lat="39.20596553" lon="-6.11978266"><ele>1181</ele><speed>10.50</speed><time>2016-06-21T13:36:31Z</time><pdop>9.0</pdop><geoidheight>53.00</geoidheight><course>266.9</course><type>1</type></trkpt>
      <trkpt lat="39.20602167" lon="-6.1200183"><ele>1185</ele><speed>11.00</speed><time>2016-06-21T13:36:33Z</time><pdop>10.0</pdop><geoidheight>53.00</geoidheight><course>288.9</course><type>1</type></trkpt>
      <trkpt lat="39.20614663" lon="-6.12023728"><ele>1189</ele><speed>12.00</speed><time>2016-06-21T13:36:35Z</time><pdop>9.0</pdop><geoidheight>53.00</geoidheight><course>307.6</course><type>1</type></trkpt>
      <trkpt lat="39.20633552" lon="-6.12040828"><ele>1190</ele><speed>13.00</speed><time>2016-06-21T13:36:37Z</time><pdop>9.0</pdop><geoidheight>53.00</geoidheight><course>327.5</course><type>1</type></trkpt>
      <trkpt lat="39.20655487" lon="-6.12049494"><ele>1194</ele><speed>12.50</speed><time>2016-06-21T13:36:39Z</time><pdop>9.0</pdop><geoidheight>53.00</geoidheight><course>346.3</course><type>1</type></trkpt>
      <trkpt lat="39.20675128" lon="-6.12047546"><ele>1200</ele><speed>10.50</speed><time>2016-06-21T13:36:41Z</time><pdop>9.0</pdop><geoidheight>53.00</geoidheight><course>10.2</course><type>1</type></trkpt>
      <trkpt lat="39.2069357" lon="-6.12029644"><ele>1205</ele><speed>8.00</speed><time>2016-06-21T13:36:44Z</time><pdop>9.0</pdop><geoidheight>53.00</geoidheight><course>55.4</course><type>1</type></trkpt>
      <trkpt lat="39.20689029" lon="-6.12007263"><ele>1215</ele><speed>6.50</speed><time>2016-06-21T13:36:47Z</time><pdop>9.0</pdop><geoidheight>53.00</geoidheight><course>124.9</course><type>1</type></trkpt>
      <trkpt lat="39.20671233" lon="-6.12001157"><ele>1221</ele><speed>6.00</speed><time>2016-06-21T13:36:51Z</time><pdop>10.0</pdop><geoidheight>53.00</geoidheight><course>191.9</course><type>1</type></trkpt>
      <trkpt lat="39.20658524" lon="-6.12026038"><ele>1229</ele><speed>9.75</speed><time>2016-06-21T13:36:54Z</time><pdop>9.0</pdop><geoidheight>53.00</geoidheight><course>249.4</course><type>1</type></trkpt>
      <trkpt lat="39.20659936" lon="-6.12050654"><ele>1234</ele><speed>11.00</speed><time>2016-06-21T13:36:56Z</time><pdop>9.0</pdop><geoidheight>53.00</geoidheight><course>279.9</course><type>1</type></trkpt>
      <trkpt lat="39.20670166" lon="-6.12073399"><ele>1237</ele><speed>11.75</speed><time>2016-06-21T13:36:58Z</time><pdop>3.0</pdop><geoidheight>53.00</geoidheight><course>304.3</course><type>1</type></trkpt>
      <trkpt lat="39.20686746" lon="-6.12093089"><ele>1239</ele><speed>12.75</speed><time>2016-06-21T13:37:00Z</time><pdop>3.0</pdop><geoidheight>53.00</geoidheight><course>319.5</course><type>1</type></trkpt>
      <trkpt lat="39.20695567" lon="-6.12101789"><ele>1241</ele><speed>12.25</speed><time>2016-06-21T13:37:01Z</time><pdop>3.0</pdop><geoidheight>53.00</geoidheight><course>321.8</course><type>1</type></trkpt>
      <trkpt lat="39.20704015" lon="-6.12109759"><ele>1244</ele><speed>11.75</speed><time>2016-06-21T13:37:02Z</time><pdop>3.0</pdop><geoidheight>53.00</geoidheight><course>323.2</course><type>1</type></trkpt>
      <trkpt lat="39.207126099999996" lon="-6.12117131"><ele>1246</ele><speed>11.25</speed><time>2016-06-21T13:37:03Z</time><pdop>3.0</pdop><geoidheight>53.00</geoidheight><course>325.1</course><type>1</type></trkpt>
      <trkpt lat="39.20721114" lon="-6.12123572"><ele>1249</ele><speed>10.75</speed><time>2016-06-21T13:37:04Z</time><pdop>3.0</pdop><geoidheight>53.00</geoidheight><course>328.6</course><type>1</type></trkpt>
      <trkpt lat="39.20728804" lon="-6.12128709"><ele>1250</ele><speed>10.25</speed><time>2016-06-21T13:37:05Z</time><pdop>4.0</pdop><geoidheight>53.00</geoidheight><course>331.9</course><type>1</type></trkpt>
      <trkpt lat="39.20737745" lon="-6.12131828"><ele>1251</ele><speed>10.00</speed><time>2016-06-21T13:37:06Z</time><pdop>4.0</pdop><geoidheight>53.00</geoidheight><course>341.6</course><type>1</type></trkpt>
      <trkpt lat="39.20747823" lon="-6.12128609"><ele>1252</ele><speed>10.25</speed><time>2016-06-21T13:37:07Z</time><pdop>3.0</pdop><geoidheight>53.00</geoidheight><course>3.2</course><type>1</type></trkpt>
      <trkpt lat="39.2076581" lon="-6.12122464"><ele>1254</ele><speed>10.50</speed><time>2016-06-21T13:37:09Z</time><pdop>6.0</pdop><geoidheight>53.00</geoidheight><course>14.7</course><type>1</type></trkpt>
      <trkpt lat="39.2077467" lon="-6.12096047"><ele>1261</ele><speed>7.25</speed><time>2016-06-21T13:37:12Z</time><pdop>3.0</pdop><geoidheight>53.00</geoidheight><course>77.9</course><type>1</type></trkpt>
      <trkpt lat="39.20771363" lon="-6.1208206"><ele>1268</ele><speed>5.75</speed><time>2016-06-21T13:37:14Z</time><pdop>4.0</pdop><geoidheight>53.00</geoidheight><course>114.9</course><type>1</type></trkpt>
      <trkpt lat="39.20766386" lon="-6.12073848"><ele>1274</ele><speed>4.75</speed><time>2016-06-21T13:37:16Z</time><pdop>4.0</pdop><geoidheight>53.00</geoidheight><course>135.0</course><type>1</type></trkpt>
      <trkpt lat="39.20756907" lon="-6.12068769"><ele>1276</ele><speed>4.00</speed><time>2016-06-21T13:37:19Z</time><pdop>5.0</pdop><geoidheight>53.00</geoidheight><course>159.2</course><type>1</type></trkpt>
      <trkpt lat="39.20747022" lon="-6.12088956"><ele>1281</ele><speed>8.25</speed><time>2016-06-21T13:37:21Z</time><pdop>3.0</pdop><geoidheight>53.00</geoidheight><course>238.4</course><type>1</type></trkpt>
      <trkpt lat="39.20744902" lon="-6.12099244"><ele>1281</ele><speed>8.75</speed><time>2016-06-21T13:37:22Z</time><pdop>4.0</pdop><geoidheight>53.00</geoidheight><course>256.3</course><type>1</type></trkpt>
      <trkpt lat="39.20743885" lon="-6.12110921"><ele>1282</ele><speed>9.50</speed><time>2016-06-21T13:37:23Z</time><pdop>4.0</pdop><geoidheight>53.00</geoidheight><course>263.4</course><type>1</type></trkpt>
      <trkpt lat="39.20748893" lon="-6.12123176"><ele>1284</ele><speed>10.50</speed><time>2016-06-21T13:37:24Z</time><pdop>3.0</pdop><geoidheight>53.00</geoidheight><course>286.4</course><type>1</type></trkpt>
      <trkpt lat="39.20753813" lon="-6.12134206"><ele>1285</ele><speed>11.00</speed><time>2016-06-21T13:37:25Z</time><pdop>3.0</pdop><geoidheight>53.00</geoidheight><course>299.0</course><type>1</type></trkpt>
      <trkpt lat="39.20760443" lon="-6.12143805"><ele>1286</ele><speed>11.75</speed><time>2016-06-21T13:37:26Z</time><pdop>3.0</pdop><geoidheight>53.00</geoidheight><course>310.0</course><type>1</type></trkpt>
      <trkpt lat="39.20768137" lon="-6.12153251"><ele>1287</ele><speed>12.50</speed><time>2016-06-21T13:37:27Z</time><pdop>4.0</pdop><geoidheight>53.00</geoidheight><course>317.9</course><type>1</type></trkpt>
      <trkpt lat="39.20776512" lon="-6.1216225"><ele>1287</ele><speed>12.50</speed><time>2016-06-21T13:37:28Z</time><pdop>4.0</pdop><geoidheight>53.00</geoidheight><course>321.8</course><type>1</type></trkpt>
      <trkpt lat="39.20786621" lon="-6.12169367"><ele>1288</ele><speed>12.75</speed><time>2016-06-21T13:37:29Z</time><pdop>5.0</pdop><geoidheight>53.00</geoidheight><course>328.8</course><type>1</type></trkpt>
      <trkpt lat="39.20795964" lon="-6.12168608"><ele>1292</ele><speed>11.25</speed><time>2016-06-21T13:37:30Z</time><pdop>3.0</pdop><geoidheight>53.00</geoidheight><course>348.9</course><type>1</type></trkpt>
      <trkpt lat="39.20804931" lon="-6.12169061"><ele>1295</ele><speed>10.25</speed><time>2016-06-21T13:37:31Z</time><pdop>3.0</pdop><geoidheight>53.00</geoidheight><course>359.6</course><type>1</type></trkpt>
      <trkpt lat="39.20812873" lon="-6.12167217"><ele>1297</ele><speed>9.50</speed><time>2016-06-21T13:37:32Z</time><pdop>3.0</pdop><geoidheight>53.00</geoidheight><course>10.5</course><type>1</type></trkpt>
      <trkpt lat="39.20820324" lon="-6.12163527"><ele>1299</ele><speed>9.50</speed><time>2016-06-21T13:37:33Z</time><pdop>3.0</pdop><geoidheight>53.00</geoidheight><course>20.2</course><type>1</type></trkpt>
      <trkpt lat="39.20827613" lon="-6.12158068"><ele>1302</ele><speed>9.75</speed><time>2016-06-21T13:37:34Z</time><pdop>3.0</pdop><geoidheight>53.00</geoidheight><course>27.3</course><type>1</type></trkpt>
      <trkpt lat="39.20834185" lon="-6.12151989"><ele>1304</ele><speed>9.25</speed><time>2016-06-21T13:37:35Z</time><pdop>4.0</pdop><geoidheight>53.00</geoidheight><course>33.0</course><type>1</type></trkpt>
      <trkpt lat="39.20839577" lon="-6.12146036"><ele>1308</ele><speed>8.25</speed><time>2016-06-21T13:37:36Z</time><pdop>3.0</pdop><geoidheight>53.00</geoidheight><course>37.4</course><type>1</type></trkpt>
      <trkpt lat="39.20843426" lon="-6.1214083"><ele>1312</ele><speed>6.50</speed><time>2016-06-21T13:37:37Z</time><pdop>3.0</pdop><geoidheight>53.00</geoidheight><course>46.3</course><type>1</type></trkpt>
      <trkpt lat="39.2084491" lon="-6.12130011"><ele>1316</ele><speed>4.50</speed><time>2016-06-21T13:37:39Z</time><pdop>4.0</pdop><geoidheight>53.00</geoidheight><course>90.8</course><type>1</type></trkpt>
      <trkpt lat="39.20835609" lon="-6.12123544"><ele>1326</ele><speed>5.00</speed><time>2016-06-21T13:37:42Z</time><pdop>3.0</pdop><geoidheight>53.00</geoidheight><course>181.8</course><type>1</type></trkpt>
      <trkpt lat="39.20824205" lon="-6.12132056"><ele>1330</ele><speed>8.25</speed><time>2016-06-21T13:37:44Z</time><pdop>3.0</pdop><geoidheight>53.00</geoidheight><course>213.6</course><type>1</type></trkpt>
      <trkpt lat="39.20818964" lon="-6.12139526"><ele>1333</ele><speed>9.25</speed><time>2016-06-21T13:37:45Z</time><pdop>3.0</pdop><geoidheight>53.00</geoidheight><course>226.5</course><type>1</type></trkpt>
      <trkpt lat="39.20814952" lon="-6.12149881"><ele>1337</ele><speed>9.75</speed><time>2016-06-21T13:37:46Z</time><pdop>3.0</pdop><geoidheight>53.00</geoidheight><course>241.3</course><type>1</type></trkpt>
      <trkpt lat="39.20814215" lon="-6.12175082"><ele>1339</ele><speed>11.25</speed><time>2016-06-21T13:37:48Z</time><pdop>4.0</pdop><geoidheight>53.00</geoidheight><course>274.3</course><type>1</type></trkpt>
      <trkpt lat="39.2081796" lon="-6.1218858"><ele>1340</ele><speed>12.25</speed><time>2016-06-21T13:37:49Z</time><pdop>3.0</pdop><geoidheight>53.00</geoidheight><course>287.7</course><type>1</type></trkpt>
      <trkpt lat="39.2082412" lon="-6.12202171"><ele>1340</ele><speed>13.00</speed><time>2016-06-21T13:37:50Z</time><pdop>4.0</pdop><geoidheight>53.00</geoidheight><course>298.9</course><type>1</type></trkpt>
      <trkpt lat="39.20831532" lon="-6.12214353"><ele>1341</ele><speed>13.50</speed><time>2016-06-21T13:37:51Z</time><pdop>4.0</pdop><geoidheight>53.00</geoidheight><course>307.1</course><type>1</type></trkpt>
      <trkpt lat="39.20840301" lon="-6.12226271"><ele>1341</ele><speed>13.75</speed><time>2016-06-21T13:37:52Z</time><pdop>4.0</pdop><geoidheight>53.00</geoidheight><course>312.2</course><type>1</type></trkpt>
      <trkpt lat="39.20851514" lon="-6.12235915"><ele>1341</ele><speed>14.50</speed><time>2016-06-21T13:37:53Z</time><pdop>4.0</pdop><geoidheight>53.00</geoidheight><course>321.2</course><type>1</type></trkpt>
      <trkpt lat="39.20863596" lon="-6.12241606"><ele>1341</ele><speed>14.00</speed><time>2016-06-21T13:37:54Z</time><pdop>4.0</pdop><geoidheight>53.00</geoidheight><course>332.9</course><type>1</type></trkpt>
      <trkpt lat="39.20876056" lon="-6.1224178"><ele>1345</ele><speed>13.75</speed><time>2016-06-21T13:37:55Z</time><pdop>4.0</pdop><geoidheight>53.00</geoidheight><course>349.9</course><type>1</type></trkpt>
      <trkpt lat="39.20887505" lon="-6.12243345"><ele>1346</ele><speed>13.00</speed><time>2016-06-21T13:37:56Z</time><pdop>4.0</pdop><geoidheight>53.00</geoidheight><course>355.4</course><type>1</type></trkpt>
      <trkpt lat="39.20897251" lon="-6.12242009"><ele>1346</ele><speed>11.50</speed><time>2016-06-21T13:37:57Z</time><pdop>5.0</pdop><geoidheight>53.00</geoidheight><course>2.4</course><type>1</type></trkpt>
      <trkpt lat="39.20902183" lon="-6.12230261"><ele>1351</ele><speed>6.00</speed><time>2016-06-21T13:37:59Z</time><pdop>3.0</pdop><geoidheight>53.00</geoidheight><course>44.0</course><type>1</type></trkpt>
      <trkpt lat="39.20904276" lon="-6.12220152"><ele>1356</ele><speed>4.00</speed><time>2016-06-21T13:38:01Z</time><pdop>4.0</pdop><geoidheight>53.00</geoidheight><course>88.0</course><type>1</type></trkpt>
      <trkpt lat="39.2089868" lon="-6.12213446"><ele>1362</ele><speed>4.00</speed><time>2016-06-21T13:38:03Z</time><pdop>3.0</pdop><geoidheight>53.00</geoidheight><course>151.0</course><type>1</type></trkpt>
      <trkpt lat="39.20892679" lon="-6.12213535"><ele>1371</ele><speed>4.00</speed><time>2016-06-21T13:38:05Z</time><pdop>3.0</pdop><geoidheight>53.00</geoidheight><course>189.5</course><type>1</type></trkpt>
      <trkpt lat="39.2088544" lon="-6.1221749"><ele>1375</ele><speed>5.00</speed><time>2016-06-21T13:38:07Z</time><pdop>4.0</pdop><geoidheight>53.00</geoidheight><course>206.2</course><type>1</type></trkpt>
      <trkpt lat="39.20881377" lon="-6.12230814"><ele>1380</ele><speed>7.25</speed><time>2016-06-21T13:38:09Z</time><pdop>3.0</pdop><geoidheight>53.00</geoidheight><course>243.2</course><type>1</type></trkpt>
      <trkpt lat="39.2087884" lon="-6.12240651"><ele>1382</ele><speed>9.00</speed><time>2016-06-21T13:38:10Z</time><pdop>3.0</pdop><geoidheight>53.00</geoidheight><course>251.5</course><type>1</type></trkpt>
      <trkpt lat="39.20877047" lon="-6.12251599"><ele>1383</ele><speed>9.75</speed><time>2016-06-21T13:38:11Z</time><pdop>3.0</pdop><geoidheight>53.00</geoidheight><course>257.5</course><type>1</type></trkpt>
      <trkpt lat="39.20876576" lon="-6.12262757"><ele>1386</ele><speed>10.00</speed><time>2016-06-21T13:38:12Z</time><pdop>3.0</pdop><geoidheight>53.00</geoidheight><course>267.0</course><type>1</type></trkpt>
      <trkpt lat="39.20878674" lon="-6.12274857"><ele>1388</ele><speed>10.50</speed><time>2016-06-21T13:38:13Z</time><pdop>4.0</pdop><geoidheight>53.00</geoidheight><course>280.5</course><type>1</type></trkpt>
      <trkpt lat="39.20883354" lon="-6.1228809"><ele>1389</ele><speed>12.00</speed><time>2016-06-21T13:38:14Z</time><pdop>3.0</pdop><geoidheight>53.00</geoidheight><course>292.8</course><type>1</type></trkpt>
      <trkpt lat="39.20890389" lon="-6.12302022"><ele>1390</ele><speed>13.75</speed><time>2016-06-21T13:38:15Z</time><pdop>3.0</pdop><geoidheight>53.00</geoidheight><course>301.8</course><type>1</type></trkpt>
      <trkpt lat="39.20898782" lon="-6.12314761"><ele>1392</ele><speed>14.75</speed><time>2016-06-21T13:38:16Z</time><pdop>3.0</pdop><geoidheight>53.00</geoidheight><course>309.3</course><type>1</type></trkpt>
      <trkpt lat="39.20908178" lon="-6.12327034"><ele>1393</ele><speed>14.50</speed><time>2016-06-21T13:38:17Z</time><pdop>4.0</pdop><geoidheight>53.00</geoidheight><course>314.3</course><type>1</type></trkpt>
      <trkpt lat="39.20916988" lon="-6.1233794"><ele>1394</ele><speed>13.75</speed><time>2016-06-21T13:38:18Z</time><pdop>4.0</pdop><geoidheight>53.00</geoidheight><course>315.2</course><type>1</type></trkpt>
      <trkpt lat="39.209262269999996" lon="-6.12345523"><ele>1395</ele><speed>12.50</speed><time>2016-06-21T13:38:19Z</time><pdop>4.0</pdop><geoidheight>53.00</geoidheight><course>323.9</course><type>1</type></trkpt>
      <trkpt lat="39.20935917" lon="-6.12350159"><ele>1396</ele><speed>11.75</speed><time>2016-06-21T13:38:20Z</time><pdop>4.0</pdop><geoidheight>53.00</geoidheight><course>334.4</course><type>1</type></trkpt>
      <trkpt lat="39.2094666" lon="-6.12350879"><ele>1396</ele><speed>11.75</speed><time>2016-06-21T13:38:21Z</time><pdop>4.0</pdop><geoidheight>53.00</geoidheight><course>349.7</course><type>1</type></trkpt>
      <trkpt lat="39.20957755" lon="-6.12350408"><ele>1398</ele><speed>12.25</speed><time>2016-06-21T13:38:22Z</time><pdop>3.0</pdop><geoidheight>53.00</geoidheight><course>1.3</course><type>1</type></trkpt>
      <trkpt lat="39.20967778" lon="-6.12347952"><ele>1399</ele><speed>11.75</speed><time>2016-06-21T13:38:23Z</time><pdop>4.0</pdop><geoidheight>53.00</geoidheight><course>10.9</course><type>1</type></trkpt>
      <trkpt lat="39.2097542" lon="-6.12342586"><ele>1401</ele><speed>10.00</speed><time>2016-06-21T13:38:24Z</time><pdop>4.0</pdop><geoidheight>53.00</geoidheight><course>25.6</course><type>1</type></trkpt>
      <trkpt lat="39.20985084" lon="-6.12331828"><ele>1405</ele><speed>6.50</speed><time>2016-06-21T13:38:26Z</time><pdop>4.0</pdop><geoidheight>53.00</geoidheight><course>40.3</course><type>1</type></trkpt>
      <trkpt lat="39.20989957" lon="-6.1232147"><ele>1412</ele><speed>5.25</speed><time>2016-06-21T13:38:28Z</time><pdop>4.0</pdop><geoidheight>53.00</geoidheight><course>59.3</course><type>1</type></trkpt>
      <trkpt lat="39.20990429" lon="-6.12309979"><ele>1418</ele><speed>5.00</speed><time>2016-06-21T13:38:30Z</time><pdop>3.0</pdop><geoidheight>53.00</geoidheight><course>97.5</course><type>1</type></trkpt>
      <trkpt lat="39.20984919" lon="-6.12300975"><ele>1424</ele><speed>4.75</speed><time>2016-06-21T13:38:32Z</time><pdop>4.0</pdop><geoidheight>53.00</geoidheight><course>140.5</course><type>1</type></trkpt>
      <trkpt lat="39.20974786" lon="-6.12302592"><ele>1431</ele><speed>6.25</speed><time>2016-06-21T13:38:34Z</time><pdop>4.0</pdop><geoidheight>53.00</geoidheight><course>192.1</course><type>1</type></trkpt>
      <trkpt lat="39.20965847" lon="-6.12310305"><ele>1432</ele><speed>6.50</speed><time>2016-06-21T13:38:36Z</time><pdop>5.0</pdop><geoidheight>53.00</geoidheight><course>212.8</course><type>1</type></trkpt>
      <trkpt lat="39.20962383" lon="-6.12323569"><ele>1435</ele><speed>6.50</speed><time>2016-06-21T13:38:38Z</time><pdop>4.0</pdop><geoidheight>53.00</geoidheight><course>231.6</course><type>1</type></trkpt>
      <trkpt lat="39.2095934" lon="-6.12332254"><ele>1439</ele><speed>7.75</speed><time>2016-06-21T13:38:39Z</time><pdop>3.0</pdop><geoidheight>53.00</geoidheight><course>241.5</course><type>1</type></trkpt>
      <trkpt lat="39.20956637" lon="-6.12340619"><ele>1442</ele><speed>8.25</speed><time>2016-06-21T13:38:40Z</time><pdop>3.0</pdop><geoidheight>53.00</geoidheight><course>249.5</course><type>1</type></trkpt>
      <trkpt lat="39.20954887" lon="-6.12350999"><ele>1444</ele><speed>9.50</speed><time>2016-06-21T13:38:41Z</time><pdop>3.0</pdop><geoidheight>53.00</geoidheight><course>258.1</course><type>1</type></trkpt>
      <trkpt lat="39.20953543" lon="-6.12363414"><ele>1446</ele><speed>10.75</speed><time>2016-06-21T13:38:42Z</time><pdop>3.0</pdop><geoidheight>53.00</geoidheight><course>265.1</course><type>1</type></trkpt>
      <trkpt lat="39.2095401" lon="-6.12377148"><ele>1447</ele><speed>11.75</speed><time>2016-06-21T13:38:43Z</time><pdop>4.0</pdop><geoidheight>53.00</geoidheight><course>271.1</course><type>1</type></trkpt>
      <trkpt lat="39.20956136" lon="-6.12391493"><ele>1449</ele><speed>12.25</speed><time>2016-06-21T13:38:44Z</time><pdop>3.0</pdop><geoidheight>53.00</geoidheight><course>279.8</course><type>1</type></trkpt>
      <trkpt lat="39.20959709" lon="-6.12404197"><ele>1450</ele><speed>12.50</speed><time>2016-06-21T13:38:45Z</time><pdop>3.0</pdop><geoidheight>53.00</geoidheight><course>291.0</course><type>1</type></trkpt>
      <trkpt lat="39.20966216" lon="-6.12417122"><ele>1450</ele><speed>13.25</speed><time>2016-06-21T13:38:46Z</time><pdop>3.0</pdop><geoidheight>53.00</geoidheight><course>301.7</course><type>1</type></trkpt>
      <trkpt lat="39.20974603" lon="-6.12429731"><ele>1450</ele><speed>14.00</speed><time>2016-06-21T13:38:47Z</time><pdop>3.0</pdop><geoidheight>53.00</geoidheight><course>310.1</course><type>1</type></trkpt>
      <trkpt lat="39.20984219" lon="-6.12441071"><ele>1450</ele><speed>14.50</speed><time>2016-06-21T13:38:48Z</time><pdop>3.0</pdop><geoidheight>53.00</geoidheight><course>315.6</course><type>1</type></trkpt>
      <trkpt lat="39.20994579" lon="-6.12452134"><ele>1450</ele><speed>14.75</speed><time>2016-06-21T13:38:49Z</time><pdop>3.0</pdop><geoidheight>53.00</geoidheight><course>320.3</course><type>1</type></trkpt>
      <trkpt lat="39.21005619" lon="-6.12461669"><ele>1450</ele><speed>14.50</speed><time>2016-06-21T13:38:50Z</time><pdop>4.0</pdop><geoidheight>53.00</geoidheight><course>325.7</course><type>1</type></trkpt>
      <trkpt lat="39.2101613" lon="-6.12469075"><ele>1451</ele><speed>13.75</speed><time>2016-06-21T13:38:51Z</time><pdop>4.0</pdop><geoidheight>53.00</geoidheight><course>331.5</course><type>1</type></trkpt>
      <trkpt lat="39.21027572" lon="-6.124701"><ele>1452</ele><speed>12.50</speed><time>2016-06-21T13:38:52Z</time><pdop>3.0</pdop><geoidheight>53.00</geoidheight><course>349.6</course><type>1</type></trkpt>
      <trkpt lat="39.21038356" lon="-6.12469586"><ele>1452</ele><speed>12.00</speed><time>2016-06-21T13:38:53Z</time><pdop>3.0</pdop><geoidheight>53.00</geoidheight><course>2.4</course><type>1</type></trkpt>
      <trkpt lat="39.2104819" lon="-6.12466872"><ele>1452</ele><speed>11.25</speed><time>2016-06-21T13:38:54Z</time><pdop>4.0</pdop><geoidheight>53.00</geoidheight><course>12.3</course><type>1</type></trkpt>
      <trkpt lat="39.2105641" lon="-6.12462842"><ele>1452</ele><speed>10.25</speed><time>2016-06-21T13:38:55Z</time><pdop>4.0</pdop><geoidheight>53.00</geoidheight><course>20.2</course><type>1</type></trkpt>
      <trkpt lat="39.21062293" lon="-6.12455358"><ele>1453</ele><speed>9.25</speed><time>2016-06-21T13:38:56Z</time><pdop>4.0</pdop><geoidheight>53.00</geoidheight><course>39.5</course><type>1</type></trkpt>
      <trkpt lat="39.21066155" lon="-6.12446451"><ele>1453</ele><speed>8.75</speed><time>2016-06-21T13:38:57Z</time><pdop>3.0</pdop><geoidheight>53.00</geoidheight><course>59.1</course><type>1</type></trkpt>
      <trkpt lat="39.21067712" lon="-6.12437358"><ele>1455</ele><speed>8.00</speed><time>2016-06-21T13:38:58Z</time><pdop>3.0</pdop><geoidheight>53.00</geoidheight><course>75.4</course><type>1</type></trkpt>
      <trkpt lat="39.21065747" lon="-6.12426604"><ele>1462</ele><speed>4.00</speed><time>2016-06-21T13:39:00Z</time><pdop>3.0</pdop><geoidheight>53.00</geoidheight><course>115.2</course><type>1</type></trkpt>
      <trkpt lat="39.21056817" lon="-6.12420486"><ele>1466</ele><speed>4.00</speed><time>2016-06-21T13:39:03Z</time><pdop>4.0</pdop><geoidheight>53.00</geoidheight><course>152.6</course><type>1</type></trkpt>
      <trkpt lat="39.21049124" lon="-6.12416074"><ele>1467</ele><speed>4.50</speed><time>2016-06-21T13:39:05Z</time><pdop>5.0</pdop><geoidheight>53.00</geoidheight><course>156.0</course><type>1</type></trkpt>
      <trkpt lat="39.21041589" lon="-6.12422332"><ele>1470</ele><speed>4.50</speed><time>2016-06-21T13:39:07Z</time><pdop>4.0</pdop><geoidheight>53.00</geoidheight><course>194.2</course><type>1</type></trkpt>
      <trkpt lat="39.21034074" lon="-6.12424907"><ele>1474</ele><speed>4.75</speed><time>2016-06-21T13:39:09Z</time><pdop>4.0</pdop><geoidheight>53.00</geoidheight><course>199.0</course><type>1</type></trkpt>
      <trkpt lat="39.21026087" lon="-6.12439811"><ele>1480</ele><speed>8.25</speed><time>2016-06-21T13:39:11Z</time><pdop>3.0</pdop><geoidheight>53.00</geoidheight><course>236.3</course><type>1</type></trkpt>
      <trkpt lat="39.21023464" lon="-6.12451072"><ele>1483</ele><speed>10.00</speed><time>2016-06-21T13:39:12Z</time><pdop>4.0</pdop><geoidheight>53.00</geoidheight><course>250.7</course><type>1</type></trkpt>
      <trkpt lat="39.21020545" lon="-6.12462203"><ele>1482</ele><speed>10.00</speed><time>2016-06-21T13:39:13Z</time><pdop>4.0</pdop><geoidheight>53.00</geoidheight><course>249.8</course><type>1</type></trkpt>
      <trkpt lat="39.21017636" lon="-6.12476507"><ele>1484</ele><speed>11.25</speed><time>2016-06-21T13:39:14Z</time><pdop>5.0</pdop><geoidheight>53.00</geoidheight><course>252.5</course><type>1</type></trkpt>
      <trkpt lat="39.2102726" lon="-6.12496399"><ele>1488</ele><speed>14.25</speed><time>2016-06-21T13:39:15Z</time><pdop>3.0</pdop><geoidheight>53.00</geoidheight><course>284.0</course><type>1</type></trkpt>
      <trkpt lat="39.2103197" lon="-6.12510424"><ele>1490</ele><speed>13.25</speed><time>2016-06-21T13:39:16Z</time><pdop>4.0</pdop><geoidheight>53.00</geoidheight><course>291.5</course><type>1</type></trkpt>
      <trkpt lat="39.21037867" lon="-6.12523094"><ele>1492</ele><speed>12.75</speed><time>2016-06-21T13:39:17Z</time><pdop>4.0</pdop><geoidheight>53.00</geoidheight><course>302.1</course><type>1</type></trkpt>
      <trkpt lat="39.21044621" lon="-6.12533607"><ele>1493</ele><speed>12.50</speed><time>2016-06-21T13:39:18Z</time><pdop>3.0</pdop><geoidheight>53.00</geoidheight><course>310.6</course><type>1</type></trkpt>
      <trkpt lat="39.21052697" lon="-6.12543564"><ele>1494</ele><speed>12.50</speed><time>2016-06-21T13:39:19Z</time><pdop>3.0</pdop><geoidheight>53.00</geoidheight><course>315.8</course><type>1</type></trkpt>
      <trkpt lat="39.2106135" lon="-6.12553303"><ele>1492</ele><speed>13.00</speed><time>2016-06-21T13:39:20Z</time><pdop>3.0</pdop><geoidheight>53.00</geoidheight><course>318.9</course><type>1</type></trkpt>
      <trkpt lat="39.21071189" lon="-6.12561756"><ele>1492</ele><speed>12.75</speed><time>2016-06-21T13:39:21Z</time><pdop>4.0</pdop><geoidheight>53.00</geoidheight><course>324.2</course><type>1</type></trkpt>
      <trkpt lat="39.21081647" lon="-6.12569429"><ele>1492</ele><speed>13.50</speed><time>2016-06-21T13:39:22Z</time><pdop>4.0</pdop><geoidheight>53.00</geoidheight><course>330.9</course><type>1</type></trkpt>
      <trkpt lat="39.21093928" lon="-6.12575128"><ele>1492</ele><speed>14.00</speed><time>2016-06-21T13:39:23Z</time><pdop>3.0</pdop><geoidheight>53.00</geoidheight><course>340.3</course><type>1</type></trkpt>
      <trkpt lat="39.21105806" lon="-6.12577155"><ele>1492</ele><speed>13.50</speed><time>2016-06-21T13:39:24Z</time><pdop>3.0</pdop><geoidheight>53.00</geoidheight><course>352.3</course><type>1</type></trkpt>
      <trkpt lat="39.21116703" lon="-6.12575565"><ele>1492</ele><speed>12.50</speed><time>2016-06-21T13:39:25Z</time><pdop>3.0</pdop><geoidheight>53.00</geoidheight><course>6.8</course><type>1</type></trkpt>
      <trkpt lat="39.21126415" lon="-6.12571308"><ele>1493</ele><speed>11.50</speed><time>2016-06-21T13:39:26Z</time><pdop>4.0</pdop><geoidheight>53.00</geoidheight><course>18.3</course><type>1</type></trkpt>
      <trkpt lat="39.21134052" lon="-6.12565485"><ele>1494</ele><speed>10.50</speed><time>2016-06-21T13:39:27Z</time><pdop>3.0</pdop><geoidheight>53.00</geoidheight><course>29.6</course><type>1</type></trkpt>
      <trkpt lat="39.21140637" lon="-6.1255837"><ele>1496</ele><speed>9.50</speed><time>2016-06-21T13:39:28Z</time><pdop>3.0</pdop><geoidheight>53.00</geoidheight><course>38.4</course><type>1</type></trkpt>
      <trkpt lat="39.21145657" lon="-6.12551754"><ele>1497</ele><speed>8.50</speed><time>2016-06-21T13:39:29Z</time><pdop>3.0</pdop><geoidheight>53.00</geoidheight><course>45.4</course><type>1</type></trkpt>
      <trkpt lat="39.21149754" lon="-6.1254485"><ele>1498</ele><speed>7.50</speed><time>2016-06-21T13:39:30Z</time><pdop>3.0</pdop><geoidheight>53.00</geoidheight><course>52.0</course><type>1</type></trkpt>
      <trkpt lat="39.21154031" lon="-6.12538837"><ele>1500</ele><speed>7.25</speed><time>2016-06-21T13:39:31Z</time><pdop>3.0</pdop><geoidheight>53.00</geoidheight><course>50.7</course><type>1</type></trkpt>
      <trkpt lat="39.21158727" lon="-6.12533089"><ele>1501</ele><speed>7.25</speed><time>2016-06-21T13:39:32Z</time><pdop>3.0</pdop><geoidheight>53.00</geoidheight><course>45.1</course><type>1</type></trkpt>
      <trkpt lat="39.21164067" lon="-6.12527249"><ele>1503</ele><speed>7.75</speed><time>2016-06-21T13:39:33Z</time><pdop>4.0</pdop><geoidheight>53.00</geoidheight><course>41.5</course><type>1</type></trkpt>
      <trkpt lat="39.21169573" lon="-6.12521677"><ele>1503</ele><speed>7.50</speed><time>2016-06-21T13:39:34Z</time><pdop>3.0</pdop><geoidheight>53.00</geoidheight><course>38.5</course><type>1</type></trkpt>
      <trkpt lat="39.21174841" lon="-6.12514901"><ele>1503</ele><speed>3.50</speed><time>2016-06-21T13:39:36Z</time><pdop>3.0</pdop><geoidheight>53.00</geoidheight><course>52.5</course><type>1</type></trkpt>
      <trkpt lat="39.21170125" lon="-6.12507378"><ele>1497</ele><speed>4.00</speed><time>2016-06-21T13:39:39Z</time><pdop>3.0</pdop><geoidheight>53.00</geoidheight><course>149.2</course><type>1</type></trkpt>
      <trkpt lat="39.2116154" lon="-6.12504703"><ele>1497</ele><speed>5.50</speed><time>2016-06-21T13:39:41Z</time><pdop>4.0</pdop><geoidheight>53.00</geoidheight><course>171.6</course><type>1</type></trkpt>
      <trkpt lat="39.21150234" lon="-6.12510788"><ele>1494</ele><speed>7.00</speed><time>2016-06-21T13:39:43Z</time><pdop>3.0</pdop><geoidheight>53.00</geoidheight><course>201.5</course><type>1</type></trkpt>
      <trkpt lat="39.2114461" lon="-6.12514821"><ele>1493</ele><speed>7.25</speed><time>2016-06-21T13:39:44Z</time><pdop>4.0</pdop><geoidheight>53.00</geoidheight><course>209.0</course><type>1</type></trkpt>
      <trkpt lat="39.21139274" lon="-6.12519764"><ele>1492</ele><speed>7.50</speed><time>2016-06-21T13:39:45Z</time><pdop>3.0</pdop><geoidheight>53.00</geoidheight><course>214.9</course><type>1</type></trkpt>
      <trkpt lat="39.21133668" lon="-6.12525026"><ele>1491</ele><speed>7.50</speed><time>2016-06-21T13:39:46Z</time><pdop>4.0</pdop><geoidheight>53.00</geoidheight><course>216.8</course><type>1</type></trkpt>
      <trkpt lat="39.21121793" lon="-6.12533901"><ele>1493</ele><speed>7.50</speed><time>2016-06-21T13:39:48Z</time><pdop>9.0</pdop><geoidheight>53.00</geoidheight><course>209.9</course><type>1</type></trkpt>
      <trkpt lat="39.21106583" lon="-6.12547786"><ele>1493</ele><speed>6.75</speed><time>2016-06-21T13:39:51Z</time><pdop>10.0</pdop><geoidheight>53.00</geoidheight><course>214.5</course><type>1</type></trkpt>
      <trkpt lat="39.21094082" lon="-6.12566847"><ele>1495</ele><speed>6.75</speed><time>2016-06-21T13:39:54Z</time><pdop>10.0</pdop><geoidheight>53.00</geoidheight><course>226.6</course><type>1</type></trkpt>
      <trkpt lat="39.21079777" lon="-6.12581324"><ele>1497</ele><speed>7.25</speed><time>2016-06-21T13:39:57Z</time><pdop>9.0</pdop><geoidheight>53.00</geoidheight><course>218.3</course><type>1</type></trkpt>
      <trkpt lat="39.2106424" lon="-6.12600543"><ele>1500</ele><speed>8.00</speed><time>2016-06-21T13:40:00Z</time><pdop>9.0</pdop><geoidheight>53.00</geoidheight><course>223.2</course><type>1</type></trkpt>
      <trkpt lat="39.21046224" lon="-6.12615308"><ele>1502</ele><speed>7.75</speed><time>2016-06-21T13:40:03Z</time><pdop>9.0</pdop><geoidheight>53.00</geoidheight><course>209.6</course><type>1</type></trkpt>
      <trkpt lat="39.21030223" lon="-6.12625309"><ele>1504</ele><speed>6.50</speed><time>2016-06-21T13:40:06Z</time><pdop>9.0</pdop><geoidheight>53.00</geoidheight><course>213.1</course><type>1</type></trkpt>
      <trkpt lat="39.21016405" lon="-6.12648673"><ele>1509</ele><speed>9.50</speed><time>2016-06-21T13:40:09Z</time><pdop>3.0</pdop><geoidheight>53.00</geoidheight><course>241.0</course><type>1</type></trkpt>
      <trkpt lat="39.2101496" lon="-6.12659568"><ele>1510</ele><speed>9.25</speed><time>2016-06-21T13:40:10Z</time><pdop>3.0</pdop><geoidheight>53.00</geoidheight><course>256.3</course><type>1</type></trkpt>
      <trkpt lat="39.21016359" lon="-6.12669577"><ele>1511</ele><speed>9.00</speed><time>2016-06-21T13:40:11Z</time><pdop>3.0</pdop><geoidheight>53.00</geoidheight><course>276.9</course><type>1</type></trkpt>
      <trkpt lat="39.2101989" lon="-6.12680246"><ele>1512</ele><speed>9.75</speed><time>2016-06-21T13:40:12Z</time><pdop>3.0</pdop><geoidheight>53.00</geoidheight><course>292.0</course><type>1</type></trkpt>
      <trkpt lat="39.21025079" lon="-6.1269049"><ele>1511</ele><speed>10.50</speed><time>2016-06-21T13:40:13Z</time><pdop>3.0</pdop><geoidheight>53.00</geoidheight><course>302.8</course><type>1</type></trkpt>
      <trkpt lat="39.21041046" lon="-6.12705676"><ele>1511</ele><speed>11.00</speed><time>2016-06-21T13:40:15Z</time><pdop>4.0</pdop><geoidheight>53.00</geoidheight><course>328.9</course><type>1</type></trkpt>
      <trkpt lat="39.21050596" lon="-6.12708597"><ele>1510</ele><speed>10.75</speed><time>2016-06-21T13:40:16Z</time><pdop>3.0</pdop><geoidheight>53.00</geoidheight><course>344.9</course><type>1</type></trkpt>
      <trkpt lat="39.2105979" lon="-6.12708931"><ele>1510</ele><speed>10.75</speed><time>2016-06-21T13:40:17Z</time><pdop>3.0</pdop><geoidheight>53.00</geoidheight><course>356.6</course><type>1</type></trkpt>
      <trkpt lat="39.21069302" lon="-6.12707169"><ele>1510</ele><speed>10.50</speed><time>2016-06-21T13:40:18Z</time><pdop>3.0</pdop><geoidheight>53.00</geoidheight><course>4.6</course><type>1</type></trkpt>
      <trkpt lat="39.21077585" lon="-6.12706325"><ele>1511</ele><speed>9.75</speed><time>2016-06-21T13:40:19Z</time><pdop>4.0</pdop><geoidheight>53.00</geoidheight><course>5.9</course><type>1</type></trkpt>
      <trkpt lat="39.2108698" lon="-6.12695752"><ele>1510</ele><speed>6.50</speed><time>2016-06-21T13:40:21Z</time><pdop>3.0</pdop><geoidheight>53.00</geoidheight><course>49.2</course><type>1</type></trkpt>
      <trkpt lat="39.21088443" lon="-6.12688429"><ele>1509</ele><speed>6.00</speed><time>2016-06-21T13:40:22Z</time><pdop>3.0</pdop><geoidheight>53.00</geoidheight><course>70.2</course><type>1</type></trkpt>
      <trkpt lat="39.21088531" lon="-6.12675613"><ele>1510</ele><speed>5.00</speed><time>2016-06-21T13:40:24Z</time><pdop>3.0</pdop><geoidheight>53.00</geoidheight><course>91.7</course><type>1</type></trkpt>
      <trkpt lat="39.21086067" lon="-6.12664792"><ele>1508</ele><speed>5.00</speed><time>2016-06-21T13:40:26Z</time><pdop>3.0</pdop><geoidheight>53.00</geoidheight><course>106.9</course><type>1</type></trkpt>
      <trkpt lat="39.21079415" lon="-6.1265266"><ele>1505</ele><speed>6.75</speed><time>2016-06-21T13:40:28Z</time><pdop>3.0</pdop><geoidheight>53.00</geoidheight><course>130.0</course><type>1</type></trkpt>
      <trkpt lat="39.21073863" lon="-6.12648192"><ele>1504</ele><speed>7.25</speed><time>2016-06-21T13:40:29Z</time><pdop>3.0</pdop><geoidheight>53.00</geoidheight><course>148.5</course><type>1</type></trkpt>
      <trkpt lat="39.21067409" lon="-6.12645171"><ele>1504</ele><speed>7.75</speed><time>2016-06-21T13:40:30Z</time><pdop>3.0</pdop><geoidheight>53.00</geoidheight><course>161.1</course><type>1</type></trkpt>
      <trkpt lat="39.21060754" lon="-6.12642357"><ele>1504</ele><speed>7.75</speed><time>2016-06-21T13:40:31Z</time><pdop>4.0</pdop><geoidheight>53.00</geoidheight><course>161.7</course><type>1</type></trkpt>
      <trkpt lat="39.2104853" lon="-6.12637521"><ele>1504</ele><speed>6.75</speed><time>2016-06-21T13:40:33Z</time><pdop>5.0</pdop><geoidheight>53.00</geoidheight><course>161.2</course><type>1</type></trkpt>
      <trkpt lat="39.21036919" lon="-6.12631989"><ele>1504</ele><speed>6.75</speed><time>2016-06-21T13:40:35Z</time><pdop>5.0</pdop><geoidheight>53.00</geoidheight><course>161.6</course><type>1</type></trkpt>
      <trkpt lat="39.21026573" lon="-6.12635776"><ele>1506</ele><speed>5.75</speed><time>2016-06-21T13:40:37Z</time><pdop>4.0</pdop><geoidheight>53.00</geoidheight><course>185.8</course><type>1</type></trkpt>
      <trkpt lat="39.21016545" lon="-6.12634322"><ele>1506</ele><speed>5.25</speed><time>2016-06-21T13:40:39Z</time><pdop>4.0</pdop><geoidheight>53.00</geoidheight><course>167.1</course><type>1</type></trkpt>
      <trkpt lat="39.21007148" lon="-6.12628127"><ele>1504</ele><speed>5.00</speed><time>2016-06-21T13:40:41Z</time><pdop>4.0</pdop><geoidheight>53.00</geoidheight><course>148.9</course><type>1</type></trkpt>
      <trkpt lat="39.21000163" lon="-6.12621784"><ele>1502</ele><speed>4.50</speed><time>2016-06-21T13:40:43Z</time><pdop>3.0</pdop><geoidheight>53.00</geoidheight><course>152.9</course><type>1</type></trkpt>
      <trkpt lat="39.20989871" lon="-6.12617975"><ele>1498</ele><speed>6.50</speed><time>2016-06-21T13:40:45Z</time><pdop>3.0</pdop><geoidheight>53.00</geoidheight><course>172.9</course><type>1</type></trkpt>
      <trkpt lat="39.2098317" lon="-6.12619428"><ele>1496</ele><speed>7.50</speed><time>2016-06-21T13:40:46Z</time><pdop>4.0</pdop><geoidheight>53.00</geoidheight><course>186.1</course><type>1</type></trkpt>
      <trkpt lat="39.20975823" lon="-6.12623378"><ele>1495</ele><speed>9.00</speed><time>2016-06-21T13:40:47Z</time><pdop>3.0</pdop><geoidheight>53.00</geoidheight><course>199.9</course><type>1</type></trkpt>
      <trkpt lat="39.20969066" lon="-6.1263167"><ele>1495</ele><speed>10.25</speed><time>2016-06-21T13:40:48Z</time><pdop>3.0</pdop><geoidheight>53.00</geoidheight><course>217.2</course><type>1</type></trkpt>
      <trkpt lat="39.20962504" lon="-6.12640591"><ele>1495</ele><speed>10.75</speed><time>2016-06-21T13:40:49Z</time><pdop>3.0</pdop><geoidheight>53.00</geoidheight><course>231.0</course><type>1</type></trkpt>
      <trkpt lat="39.20958476" lon="-6.12651341"><ele>1494</ele><speed>10.25</speed><time>2016-06-21T13:40:50Z</time><pdop>3.0</pdop><geoidheight>53.00</geoidheight><course>243.7</course><type>1</type></trkpt>
      <trkpt lat="39.20955344" lon="-6.12662824"><ele>1494</ele><speed>10.00</speed><time>2016-06-21T13:40:51Z</time><pdop>4.0</pdop><geoidheight>53.00</geoidheight><course>251.6</course><type>1</type></trkpt>
      <trkpt lat="39.20953941" lon="-6.1267499"><ele>1494</ele><speed>10.75</speed><time>2016-06-21T13:40:52Z</time><pdop>4.0</pdop><geoidheight>53.00</geoidheight><course>260.6</course><type>1</type></trkpt>
      <trkpt lat="39.20953755" lon="-6.12688271"><ele>1493</ele><speed>11.50</speed><time>2016-06-21T13:40:53Z</time><pdop>3.0</pdop><geoidheight>53.00</geoidheight><course>267.7</course><type>1</type></trkpt>
      <trkpt lat="39.20955536" lon="-6.12701259"><ele>1493</ele><speed>11.50</speed><time>2016-06-21T13:40:54Z</time><pdop>3.0</pdop><geoidheight>53.00</geoidheight><course>277.6</course><type>1</type></trkpt>
      <trkpt lat="39.20959067" lon="-6.12713578"><ele>1493</ele><speed>11.25</speed><time>2016-06-21T13:40:55Z</time><pdop>3.0</pdop><geoidheight>53.00</geoidheight><course>287.7</course><type>1</type></trkpt>
      <trkpt lat="39.20963653" lon="-6.12724757"><ele>1493</ele><speed>11.25</speed><time>2016-06-21T13:40:56Z</time><pdop>3.0</pdop><geoidheight>53.00</geoidheight><course>297.1</course><type>1</type></trkpt>
      <trkpt lat="39.20969434" lon="-6.12735917"><ele>1492</ele><speed>11.50</speed><time>2016-06-21T13:40:57Z</time><pdop>3.0</pdop><geoidheight>53.00</geoidheight><course>302.8</course><type>1</type></trkpt>
      <trkpt lat="39.20975487" lon="-6.12746785"><ele>1493</ele><speed>11.50</speed><time>2016-06-21T13:40:58Z</time><pdop>3.0</pdop><geoidheight>53.00</geoidheight><course>306.1</course><type>1</type></trkpt>
      <trkpt lat="39.20981816" lon="-6.1275708"><ele>1493</ele><speed>11.25</speed><time>2016-06-21T13:40:59Z</time><pdop>4.0</pdop><geoidheight>53.00</geoidheight><course>307.9</course><type>1</type></trkpt>
      <trkpt lat="39.20988445" lon="-6.12765837"><ele>1493</ele><speed>10.50</speed><time>2016-06-21T13:41:00Z</time><pdop>4.0</pdop><geoidheight>53.00</geoidheight><course>313.2</course><type>1</type></trkpt>
      <trkpt lat="39.20995293" lon="-6.12773279"><ele>1492</ele><speed>9.75</speed><time>2016-06-21T13:41:01Z</time><pdop>4.0</pdop><geoidheight>53.00</geoidheight><course>318.8</course><type>1</type></trkpt>
      <trkpt lat="39.21005109" lon="-6.12776102"><ele>1492</ele><speed>10.00</speed><time>2016-06-21T13:41:02Z</time><pdop>4.0</pdop><geoidheight>53.00</geoidheight><course>339.1</course><type>1</type></trkpt>
      <trkpt lat="39.21013768" lon="-6.12777798"><ele>1492</ele><speed>9.50</speed><time>2016-06-21T13:41:03Z</time><pdop>4.0</pdop><geoidheight>53.00</geoidheight><course>350.3</course><type>1</type></trkpt>
      <trkpt lat="39.21022274" lon="-6.12777529"><ele>1493</ele><speed>9.25</speed><time>2016-06-21T13:41:04Z</time><pdop>3.0</pdop><geoidheight>53.00</geoidheight><course>1.0</course><type>1</type></trkpt>
      <trkpt lat="39.21029375" lon="-6.12775728"><ele>1494</ele><speed>8.50</speed><time>2016-06-21T13:41:05Z</time><pdop>4.0</pdop><geoidheight>53.00</geoidheight><course>9.7</course><type>1</type></trkpt>
      <trkpt lat="39.21036586" lon="-6.12773011"><ele>1494</ele><speed>8.25</speed><time>2016-06-21T13:41:06Z</time><pdop>3.0</pdop><geoidheight>53.00</geoidheight><course>15.4</course><type>1</type></trkpt>
      <trkpt lat="39.21043732" lon="-6.1277039"><ele>1495</ele><speed>8.25</speed><time>2016-06-21T13:41:07Z</time><pdop>4.0</pdop><geoidheight>53.00</geoidheight><course>16.2</course><type>1</type></trkpt>
      <trkpt lat="39.21050739" lon="-6.1276787"><ele>1496</ele><speed>8.00</speed><time>2016-06-21T13:41:08Z</time><pdop>4.0</pdop><geoidheight>53.00</geoidheight><course>17.4</course><type>1</type></trkpt>
      <trkpt lat="39.21061128" lon="-6.12762749"><ele>1496</ele><speed>5.75</speed><time>2016-06-21T13:41:10Z</time><pdop>3.0</pdop><geoidheight>53.00</geoidheight><course>21.1</course><type>1</type></trkpt>
      <trkpt lat="39.21066533" lon="-6.12756772"><ele>1495</ele><speed>3.75</speed><time>2016-06-21T13:41:12Z</time><pdop>4.0</pdop><geoidheight>53.00</geoidheight><course>50.9</course><type>1</type></trkpt>
      <trkpt lat="39.21056789" lon="-6.12743494"><ele>1485</ele><speed>5.50</speed><time>2016-06-21T13:41:16Z</time><pdop>10.0</pdop><geoidheight>53.00</geoidheight><course>155.5</course><type>1</type></trkpt>
      <trkpt lat="39.21038215" lon="-6.12736033"><ele>1486</ele><speed>7.25</speed><time>2016-06-21T13:41:19Z</time><pdop>10.0</pdop><geoidheight>53.00</geoidheight><course>162.1</course><type>1</type></trkpt>
      <trkpt lat="39.21019353" lon="-6.1273761"><ele>1486</ele><speed>7.00</speed><time>2016-06-21T13:41:22Z</time><pdop>9.0</pdop><geoidheight>53.00</geoidheight><course>176.3</course><type>1</type></trkpt>
      <trkpt lat="39.21000721" lon="-6.12735363"><ele>1485</ele><speed>6.25</speed><time>2016-06-21T13:41:25Z</time><pdop>10.0</pdop><geoidheight>53.00</geoidheight><course>167.4</course><type>1</type></trkpt>
      <trkpt lat="39.20984314" lon="-6.1272192"><ele>1484</ele><speed>6.00</speed><time>2016-06-21T13:41:29Z</time><pdop>10.0</pdop><geoidheight>53.00</geoidheight><course>137.8</course><type>1</type></trkpt>
      <trkpt lat="39.20985704" lon="-6.12694764"><ele>1480</ele><speed>6.75</speed><time>2016-06-21T13:41:34Z</time><pdop>9.0</pdop><geoidheight>53.00</geoidheight><course>54.8</course><type>1</type></trkpt>
      <trkpt lat="39.20997148" lon="-6.12675463"><ele>1479</ele><speed>6.75</speed><time>2016-06-21T13:41:37Z</time><pdop>11.0</pdop><geoidheight>53.00</geoidheight><course>54.0</course><type>1</type></trkpt>
      <trkpt lat="39.21009942" lon="-6.12655454"><ele>1478</ele><speed>6.00</speed><time>2016-06-21T13:41:41Z</time><pdop>9.0</pdop><geoidheight>53.00</geoidheight><course>34.1</course><type>1</type></trkpt>
      <trkpt lat="39.21024836" lon="-6.12639609"><ele>1474</ele><speed>7.75</speed><time>2016-06-21T13:41:44Z</time><pdop>9.0</pdop><geoidheight>53.00</geoidheight><course>41.6</course><type>1</type></trkpt>
      <trkpt lat="39.21040749" lon="-6.12621888"><ele>1473</ele><speed>7.25</speed><time>2016-06-21T13:41:47Z</time><pdop>9.0</pdop><geoidheight>53.00</geoidheight><course>38.7</course><type>1</type></trkpt>
      <trkpt lat="39.21049699" lon="-6.12612492"><ele>1470</ele><speed>6.50</speed><time>2016-06-21T13:41:49Z</time><pdop>3.0</pdop><geoidheight>53.00</geoidheight><course>41.3</course><type>1</type></trkpt>
      <trkpt lat="39.21054517" lon="-6.12606559"><ele>1469</ele><speed>7.25</speed><time>2016-06-21T13:41:50Z</time><pdop>4.0</pdop><geoidheight>53.00</geoidheight><course>44.9</course><type>1</type></trkpt>
      <trkpt lat="39.21059615" lon="-6.12600538"><ele>1468</ele><speed>7.25</speed><time>2016-06-21T13:41:51Z</time><pdop>3.0</pdop><geoidheight>53.00</geoidheight><course>43.1</course><type>1</type></trkpt>
      <trkpt lat="39.21065137" lon="-6.12595504"><ele>1467</ele><speed>7.50</speed><time>2016-06-21T13:41:52Z</time><pdop>4.0</pdop><geoidheight>53.00</geoidheight><course>34.8</course><type>1</type></trkpt>
      <trkpt lat="39.21071229" lon="-6.12591809"><ele>1467</ele><speed>7.50</speed><time>2016-06-21T13:41:53Z</time><pdop>3.0</pdop><geoidheight>53.00</geoidheight><course>26.0</course><type>1</type></trkpt>
      <trkpt lat="39.21076874" lon="-6.12588499"><ele>1465</ele><speed>7.25</speed><time>2016-06-21T13:41:54Z</time><pdop>3.0</pdop><geoidheight>53.00</geoidheight><course>25.2</course><type>1</type></trkpt>
      <trkpt lat="39.21082434" lon="-6.1258406"><ele>1464</ele><speed>7.25</speed><time>2016-06-21T13:41:55Z</time><pdop>3.0</pdop><geoidheight>53.00</geoidheight><course>31.9</course><type>1</type></trkpt>
      <trkpt lat="39.21087915" lon="-6.12577818"><ele>1462</ele><speed>8.00</speed><time>2016-06-21T13:41:56Z</time><pdop>3.0</pdop><geoidheight>53.00</geoidheight><course>41.0</course><type>1</type></trkpt>
      <trkpt lat="39.21093773" lon="-6.12570482"><ele>1460</ele><speed>9.00</speed><time>2016-06-21T13:41:57Z</time><pdop>4.0</pdop><geoidheight>53.00</geoidheight><course>45.1</course><type>1</type></trkpt>
      <trkpt lat="39.21100566" lon="-6.12563602"><ele>1459</ele><speed>9.50</speed><time>2016-06-21T13:41:58Z</time><pdop>3.0</pdop><geoidheight>53.00</geoidheight><course>39.7</course><type>1</type></trkpt>
      <trkpt lat="39.21107808" lon="-6.12557537"><ele>1458</ele><speed>9.50</speed><time>2016-06-21T13:41:59Z</time><pdop>3.0</pdop><geoidheight>53.00</geoidheight><course>33.0</course><type>1</type></trkpt>
      <trkpt lat="39.211148969999996" lon="-6.12552093"><ele>1457</ele><speed>9.25</speed><time>2016-06-21T13:42:00Z</time><pdop>4.0</pdop><geoidheight>53.00</geoidheight><course>31.9</course><type>1</type></trkpt>
      <trkpt lat="39.21121138" lon="-6.12546841"><ele>1456</ele><speed>8.75</speed><time>2016-06-21T13:42:01Z</time><pdop>4.0</pdop><geoidheight>53.00</geoidheight><course>35.0</course><type>1</type></trkpt>
      <trkpt lat="39.21127117" lon="-6.12540265"><ele>1455</ele><speed>8.75</speed><time>2016-06-21T13:42:02Z</time><pdop>4.0</pdop><geoidheight>53.00</geoidheight><course>39.2</course><type>1</type></trkpt>
      <trkpt lat="39.21133284" lon="-6.12533515"><ele>1454</ele><speed>9.25</speed><time>2016-06-21T13:42:03Z</time><pdop>4.0</pdop><geoidheight>53.00</geoidheight><course>39.6</course><type>1</type></trkpt>
      <trkpt lat="39.21139572" lon="-6.12526159"><ele>1453</ele><speed>9.50</speed><time>2016-06-21T13:42:04Z</time><pdop>4.0</pdop><geoidheight>53.00</geoidheight><course>39.8</course><type>1</type></trkpt>
      <trkpt lat="39.21146606" lon="-6.12518686"><ele>1452</ele><speed>9.75</speed><time>2016-06-21T13:42:05Z</time><pdop>3.0</pdop><geoidheight>53.00</geoidheight><course>39.8</course><type>1</type></trkpt>
      <trkpt lat="39.21152679" lon="-6.12511473"><ele>1451</ele><speed>9.25</speed><time>2016-06-21T13:42:06Z</time><pdop>3.0</pdop><geoidheight>53.00</geoidheight><course>42.4</course><type>1</type></trkpt>
      <trkpt lat="39.21157526" lon="-6.12503598"><ele>1450</ele><speed>8.75</speed><time>2016-06-21T13:42:07Z</time><pdop>3.0</pdop><geoidheight>53.00</geoidheight><course>52.5</course><type>1</type></trkpt>
      <trkpt lat="39.21161252" lon="-6.1249512"><ele>1449</ele><speed>8.50</speed><time>2016-06-21T13:42:08Z</time><pdop>3.0</pdop><geoidheight>53.00</geoidheight><course>59.1</course><type>1</type></trkpt>
      <trkpt lat="39.21165174" lon="-6.12487017"><ele>1448</ele><speed>8.50</speed><time>2016-06-21T13:42:09Z</time><pdop>3.0</pdop><geoidheight>53.00</geoidheight><course>57.3</course><type>1</type></trkpt>
      <trkpt lat="39.21171016" lon="-6.12480207"><ele>1446</ele><speed>9.00</speed><time>2016-06-21T13:42:10Z</time><pdop>3.0</pdop><geoidheight>53.00</geoidheight><course>45.4</course><type>1</type></trkpt>
      <trkpt lat="39.21177668" lon="-6.12473801"><ele>1445</ele><speed>9.25</speed><time>2016-06-21T13:42:11Z</time><pdop>4.0</pdop><geoidheight>53.00</geoidheight><course>37.6</course><type>1</type></trkpt>
      <trkpt lat="39.21187487" lon="-6.12468517"><ele>1444</ele><speed>11.00</speed><time>2016-06-21T13:42:12Z</time><pdop>3.0</pdop><geoidheight>53.00</geoidheight><course>25.1</course><type>1</type></trkpt>
      <trkpt lat="39.21196744" lon="-6.12463996"><ele>1442</ele><speed>11.00</speed><time>2016-06-21T13:42:13Z</time><pdop>3.0</pdop><geoidheight>53.00</geoidheight><course>21.0</course><type>1</type></trkpt>
      <trkpt lat="39.21205752" lon="-6.12460034"><ele>1441</ele><speed>10.50</speed><time>2016-06-21T13:42:14Z</time><pdop>3.0</pdop><geoidheight>53.00</geoidheight><course>20.6</course><type>1</type></trkpt>
      <trkpt lat="39.21214493" lon="-6.12455511"><ele>1439</ele><speed>10.25</speed><time>2016-06-21T13:42:15Z</time><pdop>3.0</pdop><geoidheight>53.00</geoidheight><course>22.4</course><type>1</type></trkpt>
      <trkpt lat="39.21223716" lon="-6.12450223"><ele>1437</ele><speed>11.00</speed><time>2016-06-21T13:42:16Z</time><pdop>3.0</pdop><geoidheight>53.00</geoidheight><course>23.6</course><type>1</type></trkpt>
      <trkpt lat="39.21233778" lon="-6.12443812"><ele>1435</ele><speed>12.25</speed><time>2016-06-21T13:42:17Z</time><pdop>3.0</pdop><geoidheight>53.00</geoidheight><course>24.6</course><type>1</type></trkpt>
      <trkpt lat="39.21244342" lon="-6.1243708"><ele>1434</ele><speed>13.00</speed><time>2016-06-21T13:42:18Z</time><pdop>3.0</pdop><geoidheight>53.00</geoidheight><course>26.1</course><type>1</type></trkpt>
      <trkpt lat="39.21254245" lon="-6.12430173"><ele>1434</ele><speed>12.75</speed><time>2016-06-21T13:42:19Z</time><pdop>3.0</pdop><geoidheight>53.00</geoidheight><course>28.5</course><type>1</type></trkpt>
      <trkpt lat="39.21263752" lon="-6.12423877"><ele>1435</ele><speed>12.00</speed><time>2016-06-21T13:42:20Z</time><pdop>4.0</pdop><geoidheight>53.00</geoidheight><course>27.9</course><type>1</type></trkpt>
      <trkpt lat="39.21273758" lon="-6.12418888"><ele>1437</ele><speed>12.00</speed><time>2016-06-21T13:42:21Z</time><pdop>3.0</pdop><geoidheight>53.00</geoidheight><course>23.9</course><type>1</type></trkpt>
      <trkpt lat="39.21283595" lon="-6.12415288"><ele>1438</ele><speed>11.25</speed><time>2016-06-21T13:42:22Z</time><pdop>3.0</pdop><geoidheight>53.00</geoidheight><course>17.8</course><type>1</type></trkpt>
      <trkpt lat="39.2129283" lon="-6.12412444"><ele>1440</ele><speed>10.50</speed><time>2016-06-21T13:42:23Z</time><pdop>4.0</pdop><geoidheight>53.00</geoidheight><course>14.4</course><type>1</type></trkpt>
      <trkpt lat="39.21301084" lon="-6.12408555"><ele>1440</ele><speed>10.00</speed><time>2016-06-21T13:42:24Z</time><pdop>3.0</pdop><geoidheight>53.00</geoidheight><course>17.7</course><type>1</type></trkpt>
      <trkpt lat="39.2130869" lon="-6.12404008"><ele>1440</ele><speed>9.50</speed><time>2016-06-21T13:42:25Z</time><pdop>4.0</pdop><geoidheight>53.00</geoidheight><course>24.0</course><type>1</type></trkpt>
      <trkpt lat="39.21315266" lon="-6.12397806"><ele>1440</ele><speed>9.00</speed><time>2016-06-21T13:42:26Z</time><pdop>4.0</pdop><geoidheight>53.00</geoidheight><course>33.3</course><type>1</type></trkpt>
      <trkpt lat="39.21319184" lon="-6.12390069"><ele>1441</ele><speed>8.25</speed><time>2016-06-21T13:42:27Z</time><pdop>3.0</pdop><geoidheight>53.00</geoidheight><course>49.9</course><type>1</type></trkpt>
      <trkpt lat="39.21321949" lon="-6.1238233"><ele>1441</ele><speed>7.00</speed><time>2016-06-21T13:42:28Z</time><pdop>3.0</pdop><geoidheight>53.00</geoidheight><course>64.7</course><type>1</type></trkpt>
      <trkpt lat="39.21322577" lon="-6.12369438"><ele>1443</ele><speed>5.50</speed><time>2016-06-21T13:42:30Z</time><pdop>4.0</pdop><geoidheight>53.00</geoidheight><course>94.5</course><type>1</type></trkpt>
      <trkpt lat="39.21318325" lon="-6.12362301"><ele>1443</ele><speed>3.75</speed><time>2016-06-21T13:42:32Z</time><pdop>3.0</pdop><geoidheight>53.00</geoidheight><course>140.3</course><type>1</type></trkpt>
      <trkpt lat="39.21311577" lon="-6.1236292"><ele>1442</ele><speed>4.50</speed><time>2016-06-21T13:42:34Z</time><pdop>4.0</pdop><geoidheight>53.00</geoidheight><course>194.0</course><type>1</type></trkpt>
      <trkpt lat="39.21302883" lon="-6.12372359"><ele>1440</ele><speed>6.25</speed><time>2016-06-21T13:42:36Z</time><pdop>3.0</pdop><geoidheight>53.00</geoidheight><course>221.0</course><type>1</type></trkpt>
      <trkpt lat="39.21299645" lon="-6.12379722"><ele>1439</ele><speed>6.75</speed><time>2016-06-21T13:42:37Z</time><pdop>3.0</pdop><geoidheight>53.00</geoidheight><course>237.4</course><type>1</type></trkpt>
      <trkpt lat="39.21298061" lon="-6.12389428"><ele>1438</ele><speed>8.25</speed><time>2016-06-21T13:42:38Z</time><pdop>3.0</pdop><geoidheight>53.00</geoidheight><course>252.5</course><type>1</type></trkpt>
      <trkpt lat="39.21297587" lon="-6.12401159"><ele>1436</ele><speed>9.75</speed><time>2016-06-21T13:42:39Z</time><pdop>3.0</pdop><geoidheight>53.00</geoidheight><course>264.8</course><type>1</type></trkpt>
      <trkpt lat="39.21298919" lon="-6.12414073"><ele>1434</ele><speed>10.75</speed><time>2016-06-21T13:42:40Z</time><pdop>4.0</pdop><geoidheight>53.00</geoidheight><course>275.3</course><type>1</type></trkpt>
      <trkpt lat="39.21303081" lon="-6.1242681"><ele>1434</ele><speed>11.50</speed><time>2016-06-21T13:42:41Z</time><pdop>3.0</pdop><geoidheight>53.00</geoidheight><course>288.7</course><type>1</type></trkpt>
      <trkpt lat="39.21309349" lon="-6.12438538"><ele>1432</ele><speed>12.00</speed><time>2016-06-21T13:42:42Z</time><pdop>3.0</pdop><geoidheight>53.00</geoidheight><course>302.4</course><type>1</type></trkpt>
      <trkpt lat="39.21317795" lon="-6.124484"><ele>1431</ele><speed>12.50</speed><time>2016-06-21T13:42:43Z</time><pdop>3.0</pdop><geoidheight>53.00</geoidheight><course>316.0</course><type>1</type></trkpt>
      <trkpt lat="39.21327779" lon="-6.12456795"><ele>1430</ele><speed>13.25</speed><time>2016-06-21T13:42:44Z</time><pdop>4.0</pdop><geoidheight>53.00</geoidheight><course>326.3</course><type>1</type></trkpt>
      <trkpt lat="39.21338733" lon="-6.12464638"><ele>1430</ele><speed>13.75</speed><time>2016-06-21T13:42:45Z</time><pdop>4.0</pdop><geoidheight>53.00</geoidheight><course>331.2</course><type>1</type></trkpt>
      <trkpt lat="39.21349825" lon="-6.12471784"><ele>1431</ele><speed>13.75</speed><time>2016-06-21T13:42:46Z</time><pdop>3.0</pdop><geoidheight>53.00</geoidheight><course>331.9</course><type>1</type></trkpt>
      <trkpt lat="39.21360514" lon="-6.12478336"><ele>1433</ele><speed>13.00</speed><time>2016-06-21T13:42:47Z</time><pdop>3.0</pdop><geoidheight>53.00</geoidheight><course>334.6</course><type>1</type></trkpt>
      <trkpt lat="39.2137079" lon="-6.12482994"><ele>1434</ele><speed>12.25</speed><time>2016-06-21T13:42:48Z</time><pdop>4.0</pdop><geoidheight>53.00</geoidheight><course>339.7</course><type>1</type></trkpt>
      <trkpt lat="39.21381479" lon="-6.12486545"><ele>1434</ele><speed>12.00</speed><time>2016-06-21T13:42:49Z</time><pdop>4.0</pdop><geoidheight>53.00</geoidheight><course>345.2</course><type>1</type></trkpt>
      <trkpt lat="39.21392165" lon="-6.12488738"><ele>1434</ele><speed>12.00</speed><time>2016-06-21T13:42:50Z</time><pdop>4.0</pdop><geoidheight>53.00</geoidheight><course>349.8</course><type>1</type></trkpt>
      <trkpt lat="39.214032949999996" lon="-6.12489717"><ele>1433</ele><speed>12.25</speed><time>2016-06-21T13:42:51Z</time><pdop>3.0</pdop><geoidheight>53.00</geoidheight><course>355.6</course><type>1</type></trkpt>
      <trkpt lat="39.21414875" lon="-6.12488609"><ele>1434</ele><speed>12.75</speed><time>2016-06-21T13:42:52Z</time><pdop>3.0</pdop><geoidheight>53.00</geoidheight><course>2.6</course><type>1</type></trkpt>
      <trkpt lat="39.21425582" lon="-6.12485549"><ele>1435</ele><speed>12.50</speed><time>2016-06-21T13:42:53Z</time><pdop>3.0</pdop><geoidheight>53.00</geoidheight><course>10.6</course><type>1</type></trkpt>
      <trkpt lat="39.21434538" lon="-6.12481228"><ele>1435</ele><speed>11.00</speed><time>2016-06-21T13:42:54Z</time><pdop>4.0</pdop><geoidheight>53.00</geoidheight><course>19.2</course><type>1</type></trkpt>
      <trkpt lat="39.2144133" lon="-6.12474853"><ele>1436</ele><speed>9.75</speed><time>2016-06-21T13:42:55Z</time><pdop>3.0</pdop><geoidheight>53.00</geoidheight><course>31.8</course><type>1</type></trkpt>
      <trkpt lat="39.21447133" lon="-6.12467668"><ele>1436</ele><speed>9.00</speed><time>2016-06-21T13:42:56Z</time><pdop>4.0</pdop><geoidheight>53.00</geoidheight><course>42.7</course><type>1</type></trkpt>
      <trkpt lat="39.2145086" lon="-6.12459656"><ele>1436</ele><speed>8.00</speed><time>2016-06-21T13:42:57Z</time><pdop>4.0</pdop><geoidheight>53.00</geoidheight><course>56.0</course><type>1</type></trkpt>
      <trkpt lat="39.21451058" lon="-6.12446551"><ele>1437</ele><speed>5.25</speed><time>2016-06-21T13:42:59Z</time><pdop>3.0</pdop><geoidheight>53.00</geoidheight><course>97.4</course><type>1</type></trkpt>
      <trkpt lat="39.21446454" lon="-6.12439706"><ele>1437</ele><speed>3.75</speed><time>2016-06-21T13:43:01Z</time><pdop>4.0</pdop><geoidheight>53.00</geoidheight><course>141.4</course><type>1</type></trkpt>
      <trkpt lat="39.21439179" lon="-6.12440776"><ele>1437</ele><speed>4.50</speed><time>2016-06-21T13:43:03Z</time><pdop>4.0</pdop><geoidheight>53.00</geoidheight><course>194.5</course><type>1</type></trkpt>
      <trkpt lat="39.21431632" lon="-6.12454635"><ele>1437</ele><speed>8.25</speed><time>2016-06-21T13:43:05Z</time><pdop>3.0</pdop><geoidheight>53.00</geoidheight><course>239.2</course><type>1</type></trkpt>
      <trkpt lat="39.21429034" lon="-6.12465336"><ele>1438</ele><speed>9.50</speed><time>2016-06-21T13:43:06Z</time><pdop>3.0</pdop><geoidheight>53.00</geoidheight><course>253.6</course><type>1</type></trkpt>
      <trkpt lat="39.2142829" lon="-6.1247704"><ele>1438</ele><speed>9.75</speed><time>2016-06-21T13:43:07Z</time><pdop>3.0</pdop><geoidheight>53.00</geoidheight><course>265.1</course><type>1</type></trkpt>
      <trkpt lat="39.21428963" lon="-6.12488939"><ele>1439</ele><speed>10.00</speed><time>2016-06-21T13:43:08Z</time><pdop>3.0</pdop><geoidheight>53.00</geoidheight><course>273.5</course><type>1</type></trkpt>
      <trkpt lat="39.21430923" lon="-6.12500389"><ele>1438</ele><speed>10.50</speed><time>2016-06-21T13:43:09Z</time><pdop>3.0</pdop><geoidheight>53.00</geoidheight><course>281.2</course><type>1</type></trkpt>
      <trkpt lat="39.2143462" lon="-6.1251267"><ele>1437</ele><speed>11.25</speed><time>2016-06-21T13:43:10Z</time><pdop>3.0</pdop><geoidheight>53.00</geoidheight><course>289.2</course><type>1</type></trkpt>
      <trkpt lat="39.21440204" lon="-6.12525428"><ele>1436</ele><speed>12.25</speed><time>2016-06-21T13:43:11Z</time><pdop>4.0</pdop><geoidheight>53.00</geoidheight><course>296.9</course><type>1</type></trkpt>
      <trkpt lat="39.21446878" lon="-6.12537904"><ele>1436</ele><speed>13.00</speed><time>2016-06-21T13:43:12Z</time><pdop>3.0</pdop><geoidheight>53.00</geoidheight><course>303.1</course><type>1</type></trkpt>
      <trkpt lat="39.2145409" lon="-6.12551076"><ele>1436</ele><speed>13.75</speed><time>2016-06-21T13:43:13Z</time><pdop>3.0</pdop><geoidheight>53.00</geoidheight><course>305.2</course><type>1</type></trkpt>
      <trkpt lat="39.21461519" lon="-6.12563414"><ele>1436</ele><speed>13.50</speed><time>2016-06-21T13:43:14Z</time><pdop>3.0</pdop><geoidheight>53.00</geoidheight><course>307.0</course><type>1</type></trkpt>
      <trkpt lat="39.21468406" lon="-6.12575478"><ele>1437</ele><speed>12.75</speed><time>2016-06-21T13:43:15Z</time><pdop>3.0</pdop><geoidheight>53.00</geoidheight><course>307.2</course><type>1</type></trkpt>
      <trkpt lat="39.21474673" lon="-6.12586837"><ele>1437</ele><speed>12.25</speed><time>2016-06-21T13:43:16Z</time><pdop>4.0</pdop><geoidheight>53.00</geoidheight><course>307.2</course><type>1</type></trkpt>
      <trkpt lat="39.21481482" lon="-6.12598092"><ele>1438</ele><speed>12.25</speed><time>2016-06-21T13:43:17Z</time><pdop>3.0</pdop><geoidheight>53.00</geoidheight><course>308.7</course><type>1</type></trkpt>
      <trkpt lat="39.21488814" lon="-6.12608166"><ele>1439</ele><speed>12.25</speed><time>2016-06-21T13:43:18Z</time><pdop>3.0</pdop><geoidheight>53.00</geoidheight><course>313.3</course><type>1</type></trkpt>
      <trkpt lat="39.21496668" lon="-6.12617222"><ele>1440</ele><speed>11.75</speed><time>2016-06-21T13:43:19Z</time><pdop>4.0</pdop><geoidheight>53.00</geoidheight><course>318.3</course><type>1</type></trkpt>
      <trkpt lat="39.21504319" lon="-6.12626026"><ele>1441</ele><speed>11.75</speed><time>2016-06-21T13:43:20Z</time><pdop>4.0</pdop><geoidheight>53.00</geoidheight><course>320.1</course><type>1</type></trkpt>
      <trkpt lat="39.21512961" lon="-6.12633033"><ele>1441</ele><speed>11.25</speed><time>2016-06-21T13:43:21Z</time><pdop>4.0</pdop><geoidheight>53.00</geoidheight><course>325.8</course><type>1</type></trkpt>
      <trkpt lat="39.21521611" lon="-6.12639299"><ele>1442</ele><speed>11.00</speed><time>2016-06-21T13:43:22Z</time><pdop>4.0</pdop><geoidheight>53.00</geoidheight><course>330.3</course><type>1</type></trkpt>
      <trkpt lat="39.21531201" lon="-6.12642839"><ele>1442</ele><speed>11.00</speed><time>2016-06-21T13:43:23Z</time><pdop>4.0</pdop><geoidheight>53.00</geoidheight><course>339.7</course><type>1</type></trkpt>
      <trkpt lat="39.21540902" lon="-6.12646026"><ele>1442</ele><speed>11.00</speed><time>2016-06-21T13:43:24Z</time><pdop>4.0</pdop><geoidheight>53.00</geoidheight><course>346.4</course><type>1</type></trkpt>
      <trkpt lat="39.21549729" lon="-6.12643879"><ele>1444</ele><speed>10.25</speed><time>2016-06-21T13:43:25Z</time><pdop>3.0</pdop><geoidheight>53.00</geoidheight><course>4.5</course><type>1</type></trkpt>
      <trkpt lat="39.21557522" lon="-6.12639607"><ele>1446</ele><speed>9.25</speed><time>2016-06-21T13:43:26Z</time><pdop>3.0</pdop><geoidheight>53.00</geoidheight><course>20.4</course><type>1</type></trkpt>
      <trkpt lat="39.21563117" lon="-6.12634185"><ele>1448</ele><speed>8.25</speed><time>2016-06-21T13:43:27Z</time><pdop>3.0</pdop><geoidheight>53.00</geoidheight><course>36.1</course><type>1</type></trkpt>
      <trkpt lat="39.21568663" lon="-6.12628561"><ele>1448</ele><speed>8.00</speed><time>2016-06-21T13:43:28Z</time><pdop>4.0</pdop><geoidheight>53.00</geoidheight><course>37.8</course><type>1</type></trkpt>
      <trkpt lat="39.21566935" lon="-6.12618523"><ele>1450</ele><speed>3.75</speed><time>2016-06-21T13:43:30Z</time><pdop>3.0</pdop><geoidheight>53.00</geoidheight><course>95.4</course><type>1</type></trkpt>
      <trkpt lat="39.21559927" lon="-6.12613397"><ele>1451</ele><speed>5.00</speed><time>2016-06-21T13:43:32Z</time><pdop>4.0</pdop><geoidheight>53.00</geoidheight><course>159.6</course><type>1</type></trkpt>
      <trkpt lat="39.21548074" lon="-6.12616068"><ele>1451</ele><speed>7.25</speed><time>2016-06-21T13:43:34Z</time><pdop>4.0</pdop><geoidheight>53.00</geoidheight><course>194.7</course><type>1</type></trkpt>
      <trkpt lat="39.21543442" lon="-6.1262408"><ele>1452</ele><speed>8.25</speed><time>2016-06-21T13:43:35Z</time><pdop>4.0</pdop><geoidheight>53.00</geoidheight><course>221.7</course><type>1</type></trkpt>
      <trkpt lat="39.21539007" lon="-6.12632665"><ele>1452</ele><speed>8.50</speed><time>2016-06-21T13:43:36Z</time><pdop>4.0</pdop><geoidheight>53.00</geoidheight><course>236.9</course><type>1</type></trkpt>
      <trkpt lat="39.21536025" lon="-6.12642449"><ele>1452</ele><speed>9.00</speed><time>2016-06-21T13:43:37Z</time><pdop>3.0</pdop><geoidheight>53.00</geoidheight><course>248.8</course><type>1</type></trkpt>
      <trkpt lat="39.21534092" lon="-6.12653636"><ele>1452</ele><speed>10.00</speed><time>2016-06-21T13:43:38Z</time><pdop>4.0</pdop><geoidheight>53.00</geoidheight><course>256.2</course><type>1</type></trkpt>
      <trkpt lat="39.21533582" lon="-6.12665222"><ele>1453</ele><speed>10.00</speed><time>2016-06-21T13:43:39Z</time><pdop>4.0</pdop><geoidheight>53.00</geoidheight><course>264.5</course><type>1</type></trkpt>
      <trkpt lat="39.2153646" lon="-6.12679236"><ele>1452</ele><speed>11.25</speed><time>2016-06-21T13:43:40Z</time><pdop>5.0</pdop><geoidheight>53.00</geoidheight><course>277.0</course><type>1</type></trkpt>
      <trkpt lat="39.21546823" lon="-6.12692064"><ele>1454</ele><speed>13.00</speed><time>2016-06-21T13:43:41Z</time><pdop>3.0</pdop><geoidheight>53.00</geoidheight><course>301.7</course><type>1</type></trkpt>
      <trkpt lat="39.21554674" lon="-6.12703225"><ele>1455</ele><speed>13.00</speed><time>2016-06-21T13:43:42Z</time><pdop>3.0</pdop><geoidheight>53.00</geoidheight><course>313.3</course><type>1</type></trkpt>
      <trkpt lat="39.21563184" lon="-6.12713031"><ele>1455</ele><speed>12.75</speed><time>2016-06-21T13:43:43Z</time><pdop>4.0</pdop><geoidheight>53.00</geoidheight><course>317.6</course><type>1</type></trkpt>
      <trkpt lat="39.21571859" lon="-6.12717887"><ele>1457</ele><speed>11.25</speed><time>2016-06-21T13:43:44Z</time><pdop>4.0</pdop><geoidheight>53.00</geoidheight><course>330.5</course><type>1</type></trkpt>
      <trkpt lat="39.21580926" lon="-6.12722234"><ele>1458</ele><speed>10.25</speed><time>2016-06-21T13:43:45Z</time><pdop>4.0</pdop><geoidheight>53.00</geoidheight><course>337.2</course><type>1</type></trkpt>
      <trkpt lat="39.21589693" lon="-6.12724996"><ele>1459</ele><speed>10.00</speed><time>2016-06-21T13:43:46Z</time><pdop>3.0</pdop><geoidheight>53.00</geoidheight><course>346.0</course><type>1</type></trkpt>
      <trkpt lat="39.21598935" lon="-6.12725173"><ele>1461</ele><speed>10.00</speed><time>2016-06-21T13:43:47Z</time><pdop>3.0</pdop><geoidheight>53.00</geoidheight><course>359.4</course><type>1</type></trkpt>
      <trkpt lat="39.21607009" lon="-6.1272225"><ele>1462</ele><speed>9.25</speed><time>2016-06-21T13:43:48Z</time><pdop>3.0</pdop><geoidheight>53.00</geoidheight><course>14.3</course><type>1</type></trkpt>
      <trkpt lat="39.21612738" lon="-6.12718216"><ele>1463</ele><speed>7.25</speed><time>2016-06-21T13:43:49Z</time><pdop>4.0</pdop><geoidheight>53.00</geoidheight><course>29.1</course><type>1</type></trkpt>
      <trkpt lat="39.21614677" lon="-6.12708903"><ele>1465</ele><speed>3.75</speed><time>2016-06-21T13:43:51Z</time><pdop>3.0</pdop><geoidheight>53.00</geoidheight><course>90.6</course><type>1</type></trkpt>
      <trkpt lat="39.21602667" lon="-6.12708853"><ele>1466</ele><speed>6.00</speed><time>2016-06-21T13:43:54Z</time><pdop>4.0</pdop><geoidheight>53.00</geoidheight><course>196.7</course><type>1</type></trkpt>
      <trkpt lat="39.21597436" lon="-6.12715416"><ele>1466</ele><speed>8.00</speed><time>2016-06-21T13:43:55Z</time><pdop>4.0</pdop><geoidheight>53.00</geoidheight><course>218.9</course><type>1</type></trkpt>
      <trkpt lat="39.21592737" lon="-6.12726177"><ele>1466</ele><speed>10.50</speed><time>2016-06-21T13:43:56Z</time><pdop>4.0</pdop><geoidheight>53.00</geoidheight><course>239.2</course><type>1</type></trkpt>
      <trkpt lat="39.21589023" lon="-6.12738247"><ele>1466</ele><speed>11.25</speed><time>2016-06-21T13:43:57Z</time><pdop>4.0</pdop><geoidheight>53.00</geoidheight><course>246.2</course><type>1</type></trkpt>
      <trkpt lat="39.21586509" lon="-6.12749991"><ele>1467</ele><speed>10.75</speed><time>2016-06-21T13:43:58Z</time><pdop>5.0</pdop><geoidheight>53.00</geoidheight><course>250.0</course><type>1</type></trkpt>
      <trkpt lat="39.21597084" lon="-6.12768933"><ele>1470</ele><speed>13.50</speed><time>2016-06-21T13:43:59Z</time><pdop>3.0</pdop><geoidheight>53.00</geoidheight><course>289.8</course><type>1</type></trkpt>
      <trkpt lat="39.21602738" lon="-6.12781699"><ele>1471</ele><speed>12.50</speed><time>2016-06-21T13:44:00Z</time><pdop>4.0</pdop><geoidheight>53.00</geoidheight><course>299.3</course><type>1</type></trkpt>
      <trkpt lat="39.21610185" lon="-6.12792486"><ele>1473</ele><speed>12.00</speed><time>2016-06-21T13:44:01Z</time><pdop>3.0</pdop><geoidheight>53.00</geoidheight><course>309.3</course><type>1</type></trkpt>
      <trkpt lat="39.21617529" lon="-6.12802714"><ele>1474</ele><speed>12.00</speed><time>2016-06-21T13:44:02Z</time><pdop>4.0</pdop><geoidheight>53.00</geoidheight><course>313.1</course><type>1</type></trkpt>
      <trkpt lat="39.21626343" lon="-6.12810791"><ele>1474</ele><speed>11.75</speed><time>2016-06-21T13:44:03Z</time><pdop>4.0</pdop><geoidheight>53.00</geoidheight><course>321.5</course><type>1</type></trkpt>
      <trkpt lat="39.21635645" lon="-6.12816155"><ele>1474</ele><speed>11.50</speed><time>2016-06-21T13:44:04Z</time><pdop>5.0</pdop><geoidheight>53.00</geoidheight><course>329.5</course><type>1</type></trkpt>
      <trkpt lat="39.21656843" lon="-6.12817679"><ele>1474</ele><speed>11.50</speed><time>2016-06-21T13:44:06Z</time><pdop>6.0</pdop><geoidheight>53.00</geoidheight><course>349.8</course><type>1</type></trkpt>
      <trkpt lat="39.21672423" lon="-6.12810135"><ele>1477</ele><speed>9.50</speed><time>2016-06-21T13:44:08Z</time><pdop>6.0</pdop><geoidheight>53.00</geoidheight><course>11.2</course><type>1</type></trkpt>
      <trkpt lat="39.2166944" lon="-6.12796149"><ele>1480</ele><speed>4.50</speed><time>2016-06-21T13:44:10Z</time><pdop>3.0</pdop><geoidheight>53.00</geoidheight><course>97.7</course><type>1</type></trkpt>
      <trkpt lat="39.21663183" lon="-6.12789441"><ele>1484</ele><speed>4.50</speed><time>2016-06-21T13:44:12Z</time><pdop>3.0</pdop><geoidheight>53.00</geoidheight><course>150.1</course><type>1</type></trkpt>
      <trkpt lat="39.2165385" lon="-6.12789861"><ele>1487</ele><speed>5.50</speed><time>2016-06-21T13:44:14Z</time><pdop>4.0</pdop><geoidheight>53.00</geoidheight><course>188.7</course><type>1</type></trkpt>
      <trkpt lat="39.2164083" lon="-6.12796133"><ele>1488</ele><speed>7.75</speed><time>2016-06-21T13:44:16Z</time><pdop>9.0</pdop><geoidheight>53.00</geoidheight><course>202.0</course><type>1</type></trkpt>
      <trkpt lat="39.21630326" lon="-6.12807065"><ele>1491</ele><speed>7.50</speed><time>2016-06-21T13:44:18Z</time><pdop>3.0</pdop><geoidheight>53.00</geoidheight><course>222.7</course><type>1</type></trkpt>
      <trkpt lat="39.216219099999996" lon="-6.12822587"><ele>1494</ele><speed>8.50</speed><time>2016-06-21T13:44:20Z</time><pdop>3.0</pdop><geoidheight>53.00</geoidheight><course>237.2</course><type>1</type></trkpt>
      <trkpt lat="39.21618303" lon="-6.12832278"><ele>1495</ele><speed>9.25</speed><time>2016-06-21T13:44:21Z</time><pdop>3.0</pdop><geoidheight>53.00</geoidheight><course>243.2</course><type>1</type></trkpt>
      <trkpt lat="39.21615718" lon="-6.12843467"><ele>1496</ele><speed>10.25</speed><time>2016-06-21T13:44:22Z</time><pdop>3.0</pdop><geoidheight>53.00</geoidheight><course>252.1</course><type>1</type></trkpt>
      <trkpt lat="39.2161446" lon="-6.12856048"><ele>1496</ele><speed>11.00</speed><time>2016-06-21T13:44:23Z</time><pdop>4.0</pdop><geoidheight>53.00</geoidheight><course>261.5</course><type>1</type></trkpt>
      <trkpt lat="39.21616646" lon="-6.12871277"><ele>1497</ele><speed>12.50</speed><time>2016-06-21T13:44:24Z</time><pdop>4.0</pdop><geoidheight>53.00</geoidheight><course>276.6</course><type>1</type></trkpt>
      <trkpt lat="39.2162096" lon="-6.12885773"><ele>1498</ele><speed>13.25</speed><time>2016-06-21T13:44:25Z</time><pdop>3.0</pdop><geoidheight>53.00</geoidheight><course>289.9</course><type>1</type></trkpt>
      <trkpt lat="39.21627403" lon="-6.128987"><ele>1499</ele><speed>13.50</speed><time>2016-06-21T13:44:26Z</time><pdop>3.0</pdop><geoidheight>53.00</geoidheight><course>300.6</course><type>1</type></trkpt>
      <trkpt lat="39.21635052" lon="-6.12909733"><ele>1500</ele><speed>12.75</speed><time>2016-06-21T13:44:27Z</time><pdop>3.0</pdop><geoidheight>53.00</geoidheight><course>310.6</course><type>1</type></trkpt>
      <trkpt lat="39.21643405" lon="-6.12919953"><ele>1501</ele><speed>12.75</speed><time>2016-06-21T13:44:28Z</time><pdop>4.0</pdop><geoidheight>53.00</geoidheight><course>315.3</course><type>1</type></trkpt>
      <trkpt lat="39.21652839" lon="-6.12924735"><ele>1501</ele><speed>11.75</speed><time>2016-06-21T13:44:29Z</time><pdop>4.0</pdop><geoidheight>53.00</geoidheight><course>331.2</course><type>1</type></trkpt>
      <trkpt lat="39.21662901" lon="-6.12928725"><ele>1501</ele><speed>11.50</speed><time>2016-06-21T13:44:30Z</time><pdop>3.0</pdop><geoidheight>53.00</geoidheight><course>341.8</course><type>1</type></trkpt>
      <trkpt lat="39.21673149" lon="-6.1293013"><ele>1502</ele><speed>11.25</speed><time>2016-06-21T13:44:31Z</time><pdop>3.0</pdop><geoidheight>53.00</geoidheight><course>353.5</course><type>1</type></trkpt>
      <trkpt lat="39.21682216" lon="-6.12928652"><ele>1502</ele><speed>10.25</speed><time>2016-06-21T13:44:32Z</time><pdop>3.0</pdop><geoidheight>53.00</geoidheight><course>6.0</course><type>1</type></trkpt>
      <trkpt lat="39.21688833" lon="-6.12925809"><ele>1502</ele><speed>8.25</speed><time>2016-06-21T13:44:33Z</time><pdop>4.0</pdop><geoidheight>53.00</geoidheight><course>17.5</course><type>1</type></trkpt>
      <trkpt lat="39.21696952" lon="-6.12915261"><ele>1503</ele><speed>6.25</speed><time>2016-06-21T13:44:35Z</time><pdop>4.0</pdop><geoidheight>53.00</geoidheight><course>48.1</course><type>1</type></trkpt>
      <trkpt lat="39.21697491" lon="-6.12905156"><ele>1505</ele><speed>4.25</speed><time>2016-06-21T13:44:37Z</time><pdop>3.0</pdop><geoidheight>53.00</geoidheight><course>96.5</course><type>1</type></trkpt>
      <trkpt lat="39.21688435" lon="-6.12900896"><ele>1504</ele><speed>6.50</speed><time>2016-06-21T13:44:39Z</time><pdop>4.0</pdop><geoidheight>53.00</geoidheight><course>173.3</course><type>1</type></trkpt>
      <trkpt lat="39.21676541" lon="-6.12911778"><ele>1506</ele><speed>9.00</speed><time>2016-06-21T13:44:41Z</time><pdop>5.0</pdop><geoidheight>53.00</geoidheight><course>220.8</course><type>1</type></trkpt>
      <trkpt lat="39.21671935" lon="-6.1292212"><ele>1508</ele><speed>10.00</speed><time>2016-06-21T13:44:42Z</time><pdop>4.0</pdop><geoidheight>53.00</geoidheight><course>236.8</course><type>1</type></trkpt>
      <trkpt lat="39.21667395" lon="-6.12932497"><ele>1510</ele><speed>10.25</speed><time>2016-06-21T13:44:43Z</time><pdop>4.0</pdop><geoidheight>53.00</geoidheight><course>242.8</course><type>1</type></trkpt>
      <trkpt lat="39.21663655" lon="-6.12942959"><ele>1512</ele><speed>10.25</speed><time>2016-06-21T13:44:44Z</time><pdop>4.0</pdop><geoidheight>53.00</geoidheight><course>245.3</course><type>1</type></trkpt>
      <trkpt lat="39.21660173" lon="-6.12954123"><ele>1512</ele><speed>10.25</speed><time>2016-06-21T13:44:45Z</time><pdop>3.0</pdop><geoidheight>53.00</geoidheight><course>248.4</course><type>1</type></trkpt>
      <trkpt lat="39.21658044" lon="-6.1296553"><ele>1513</ele><speed>10.25</speed><time>2016-06-21T13:44:46Z</time><pdop>3.0</pdop><geoidheight>53.00</geoidheight><course>256.3</course><type>1</type></trkpt>
      <trkpt lat="39.21656192" lon="-6.12977392"><ele>1513</ele><speed>10.50</speed><time>2016-06-21T13:44:47Z</time><pdop>4.0</pdop><geoidheight>53.00</geoidheight><course>258.1</course><type>1</type></trkpt>
      <trkpt lat="39.21659337" lon="-6.1299056"><ele>1513</ele><speed>11.00</speed><time>2016-06-21T13:44:48Z</time><pdop>3.0</pdop><geoidheight>53.00</geoidheight><course>276.7</course><type>1</type></trkpt>
      <trkpt lat="39.216624" lon="-6.13002403"><ele>1514</ele><speed>10.75</speed><time>2016-06-21T13:44:49Z</time><pdop>3.0</pdop><geoidheight>53.00</geoidheight><course>288.5</course><type>1</type></trkpt>
      <trkpt lat="39.2166762" lon="-6.13013167"><ele>1513</ele><speed>11.00</speed><time>2016-06-21T13:44:50Z</time><pdop>3.0</pdop><geoidheight>53.00</geoidheight><course>300.3</course><type>1</type></trkpt>
      <trkpt lat="39.21674327" lon="-6.13023844"><ele>1512</ele><speed>11.75</speed><time>2016-06-21T13:44:51Z</time><pdop>4.0</pdop><geoidheight>53.00</geoidheight><course>307.9</course><type>1</type></trkpt>
      <trkpt lat="39.21682705" lon="-6.13032634"><ele>1511</ele><speed>12.00</speed><time>2016-06-21T13:44:52Z</time><pdop>3.0</pdop><geoidheight>53.00</geoidheight><course>317.3</course><type>1</type></trkpt>
      <trkpt lat="39.21690833" lon="-6.13040688"><ele>1511</ele><speed>11.50</speed><time>2016-06-21T13:44:53Z</time><pdop>4.0</pdop><geoidheight>53.00</geoidheight><course>323.7</course><type>1</type></trkpt>
      <trkpt lat="39.21699261" lon="-6.13045314"><ele>1511</ele><speed>10.25</speed><time>2016-06-21T13:44:54Z</time><pdop>3.0</pdop><geoidheight>53.00</geoidheight><course>335.4</course><type>1</type></trkpt>
      <trkpt lat="39.21707852" lon="-6.13046331"><ele>1510</ele><speed>9.25</speed><time>2016-06-21T13:44:55Z</time><pdop>4.0</pdop><geoidheight>53.00</geoidheight><course>352.5</course><type>1</type></trkpt>
      <trkpt lat="39.21715163" lon="-6.13043127"><ele>1508</ele><speed>8.50</speed><time>2016-06-21T13:44:56Z</time><pdop>3.0</pdop><geoidheight>53.00</geoidheight><course>14.6</course><type>1</type></trkpt>
      <trkpt lat="39.21725279" lon="-6.13031223"><ele>1506</ele><speed>7.25</speed><time>2016-06-21T13:44:58Z</time><pdop>4.0</pdop><geoidheight>53.00</geoidheight><course>46.8</course><type>1</type></trkpt>
      <trkpt lat="39.21730122" lon="-6.13021029"><ele>1508</ele><speed>4.75</speed><time>2016-06-21T13:45:00Z</time><pdop>3.0</pdop><geoidheight>53.00</geoidheight><course>61.3</course><type>1</type></trkpt>
      <trkpt lat="39.21733168" lon="-6.13011027"><ele>1508</ele><speed>4.50</speed><time>2016-06-21T13:45:02Z</time><pdop>3.0</pdop><geoidheight>53.00</geoidheight><course>64.6</course><type>1</type></trkpt>
      <trkpt lat="39.21734926" lon="-6.13000559"><ele>1509</ele><speed>4.75</speed><time>2016-06-21T13:45:04Z</time><pdop>3.0</pdop><geoidheight>53.00</geoidheight><course>82.4</course><type>1</type></trkpt>
      <trkpt lat="39.21732799" lon="-6.12990208"><ele>1509</ele><speed>4.75</speed><time>2016-06-21T13:45:06Z</time><pdop>3.0</pdop><geoidheight>53.00</geoidheight><course>106.5</course><type>1</type></trkpt>
      <trkpt lat="39.21728267" lon="-6.12979444"><ele>1509</ele><speed>5.25</speed><time>2016-06-21T13:45:08Z</time><pdop>4.0</pdop><geoidheight>53.00</geoidheight><course>121.4</course><type>1</type></trkpt>
      <trkpt lat="39.21721929" lon="-6.12971047"><ele>1509</ele><speed>5.00</speed><time>2016-06-21T13:45:10Z</time><pdop>4.0</pdop><geoidheight>53.00</geoidheight><course>136.8</course><type>1</type></trkpt>
      <trkpt lat="39.21712847" lon="-6.1296692"><ele>1510</ele><speed>5.75</speed><time>2016-06-21T13:45:12Z</time><pdop>3.0</pdop><geoidheight>53.00</geoidheight><course>165.7</course><type>1</type></trkpt>
      <trkpt lat="39.2170186" lon="-6.12968415"><ele>1510</ele><speed>6.50</speed><time>2016-06-21T13:45:14Z</time><pdop>4.0</pdop><geoidheight>53.00</geoidheight><course>188.5</course><type>1</type></trkpt>
      <trkpt lat="39.21691286" lon="-6.12974594"><ele>1511</ele><speed>6.50</speed><time>2016-06-21T13:45:16Z</time><pdop>4.0</pdop><geoidheight>53.00</geoidheight><course>205.9</course><type>1</type></trkpt>
      <trkpt lat="39.21686003" lon="-6.1298138"><ele>1510</ele><speed>7.50</speed><time>2016-06-21T13:45:17Z</time><pdop>4.0</pdop><geoidheight>53.00</geoidheight><course>219.8</course><type>1</type></trkpt>
      <trkpt lat="39.2168065" lon="-6.12988681"><ele>1510</ele><speed>8.50</speed><time>2016-06-21T13:45:18Z</time><pdop>3.0</pdop><geoidheight>53.00</geoidheight><course>228.7</course><type>1</type></trkpt>
      <trkpt lat="39.21675939" lon="-6.12998796"><ele>1510</ele><speed>10.00</speed><time>2016-06-21T13:45:19Z</time><pdop>3.0</pdop><geoidheight>53.00</geoidheight><course>237.7</course><type>1</type></trkpt>
      <trkpt lat="39.21672007" lon="-6.13011366"><ele>1509</ele><speed>11.25</speed><time>2016-06-21T13:45:20Z</time><pdop>3.0</pdop><geoidheight>53.00</geoidheight><course>246.6</course><type>1</type></trkpt>
      <trkpt lat="39.21669748" lon="-6.13025286"><ele>1508</ele><speed>11.75</speed><time>2016-06-21T13:45:21Z</time><pdop>4.0</pdop><geoidheight>53.00</geoidheight><course>256.6</course><type>1</type></trkpt>
      <trkpt lat="39.21670168" lon="-6.13039164"><ele>1508</ele><speed>12.00</speed><time>2016-06-21T13:45:22Z</time><pdop>3.0</pdop><geoidheight>53.00</geoidheight><course>270.2</course><type>1</type></trkpt>
      <trkpt lat="39.21673028" lon="-6.13052312"><ele>1508</ele><speed>11.75</speed><time>2016-06-21T13:45:23Z</time><pdop>3.0</pdop><geoidheight>53.00</geoidheight><course>283.2</course><type>1</type></trkpt>
      <trkpt lat="39.21678225" lon="-6.13064512"><ele>1507</ele><speed>11.75</speed><time>2016-06-21T13:45:24Z</time><pdop>3.0</pdop><geoidheight>53.00</geoidheight><course>295.6</course><type>1</type></trkpt>
      <trkpt lat="39.21684993" lon="-6.13075534"><ele>1506</ele><speed>12.25</speed><time>2016-06-21T13:45:25Z</time><pdop>3.0</pdop><geoidheight>53.00</geoidheight><course>306.2</course><type>1</type></trkpt>
      <trkpt lat="39.21694654" lon="-6.13084475"><ele>1504</ele><speed>13.00</speed><time>2016-06-21T13:45:26Z</time><pdop>4.0</pdop><geoidheight>53.00</geoidheight><course>321.8</course><type>1</type></trkpt>
      <trkpt lat="39.21706114" lon="-6.13090571"><ele>1503</ele><speed>13.75</speed><time>2016-06-21T13:45:27Z</time><pdop>4.0</pdop><geoidheight>53.00</geoidheight><course>335.3</course><type>1</type></trkpt>
      <trkpt lat="39.21718429" lon="-6.13094393"><ele>1504</ele><speed>13.75</speed><time>2016-06-21T13:45:28Z</time><pdop>4.0</pdop><geoidheight>53.00</geoidheight><course>344.3</course><type>1</type></trkpt>
      <trkpt lat="39.21728508" lon="-6.13092488"><ele>1504</ele><speed>12.00</speed><time>2016-06-21T13:45:29Z</time><pdop>4.0</pdop><geoidheight>53.00</geoidheight><course>0.2</course><type>1</type></trkpt>
      <trkpt lat="39.21737317" lon="-6.13089528"><ele>1504</ele><speed>10.25</speed><time>2016-06-21T13:45:30Z</time><pdop>3.0</pdop><geoidheight>53.00</geoidheight><course>11.6</course><type>1</type></trkpt>
      <trkpt lat="39.21743523" lon="-6.13084653"><ele>1504</ele><speed>8.50</speed><time>2016-06-21T13:45:31Z</time><pdop>3.0</pdop><geoidheight>53.00</geoidheight><course>25.4</course><type>1</type></trkpt>
      <trkpt lat="39.21748143" lon="-6.13079048"><ele>1503</ele><speed>7.25</speed><time>2016-06-21T13:45:32Z</time><pdop>3.0</pdop><geoidheight>53.00</geoidheight><course>42.6</course><type>1</type></trkpt>
      <trkpt lat="39.21752994" lon="-6.13065751"><ele>1504</ele><speed>6.00</speed><time>2016-06-21T13:45:34Z</time><pdop>4.0</pdop><geoidheight>53.00</geoidheight><course>69.5</course><type>1</type></trkpt>
      <trkpt lat="39.21751916" lon="-6.13054648"><ele>1503</ele><speed>4.75</speed><time>2016-06-21T13:45:36Z</time><pdop>3.0</pdop><geoidheight>53.00</geoidheight><course>95.5</course><type>1</type></trkpt>
      <trkpt lat="39.21750331" lon="-6.13041582"><ele>1502</ele><speed>6.00</speed><time>2016-06-21T13:45:38Z</time><pdop>4.0</pdop><geoidheight>53.00</geoidheight><course>100.0</course><type>1</type></trkpt>
      <trkpt lat="39.21749551" lon="-6.13026718"><ele>1501</ele><speed>6.25</speed><time>2016-06-21T13:45:40Z</time><pdop>3.0</pdop><geoidheight>53.00</geoidheight><course>91.9</course><type>1</type></trkpt>
      <trkpt lat="39.21749599" lon="-6.13012576"><ele>1500</ele><speed>6.25</speed><time>2016-06-21T13:45:42Z</time><pdop>4.0</pdop><geoidheight>53.00</geoidheight><course>87.3</course><type>1</type></trkpt>
      <trkpt lat="39.21753582" lon="-6.12995909"><ele>1499</ele><speed>7.75</speed><time>2016-06-21T13:45:44Z</time><pdop>4.0</pdop><geoidheight>53.00</geoidheight><course>71.4</course><type>1</type></trkpt>
      <trkpt lat="39.21756019" lon="-6.12986564"><ele>1499</ele><speed>8.25</speed><time>2016-06-21T13:45:45Z</time><pdop>4.0</pdop><geoidheight>53.00</geoidheight><course>69.7</course><type>1</type></trkpt>
      <trkpt lat="39.21758791" lon="-6.12977414"><ele>1499</ele><speed>8.25</speed><time>2016-06-21T13:45:46Z</time><pdop>4.0</pdop><geoidheight>53.00</geoidheight><course>69.3</course><type>1</type></trkpt>
      <trkpt lat="39.21762172" lon="-6.12970523"><ele>1497</ele><speed>7.75</speed><time>2016-06-21T13:45:47Z</time><pdop>3.0</pdop><geoidheight>53.00</geoidheight><course>61.9</course><type>1</type></trkpt>
      <trkpt lat="39.21766492" lon="-6.12962378"><ele>1496</ele><speed>8.50</speed><time>2016-06-21T13:45:48Z</time><pdop>4.0</pdop><geoidheight>53.00</geoidheight><course>54.2</course><type>1</type></trkpt>
      <trkpt lat="39.21772453" lon="-6.12954266"><ele>1496</ele><speed>9.25</speed><time>2016-06-21T13:45:49Z</time><pdop>4.0</pdop><geoidheight>53.00</geoidheight><course>47.0</course><type>1</type></trkpt>
      <trkpt lat="39.21778445" lon="-6.12946629"><ele>1494</ele><speed>9.50</speed><time>2016-06-21T13:45:50Z</time><pdop>3.0</pdop><geoidheight>53.00</geoidheight><course>44.8</course><type>1</type></trkpt>
      <trkpt lat="39.21784369" lon="-6.12938982"><ele>1493</ele><speed>9.25</speed><time>2016-06-21T13:45:51Z</time><pdop>3.0</pdop><geoidheight>53.00</geoidheight><course>45.1</course><type>1</type></trkpt>
      <trkpt lat="39.21790007" lon="-6.12931988"><ele>1492</ele><speed>9.00</speed><time>2016-06-21T13:45:52Z</time><pdop>3.0</pdop><geoidheight>53.00</geoidheight><course>44.5</course><type>1</type></trkpt>
      <trkpt lat="39.21796146" lon="-6.12925346"><ele>1491</ele><speed>9.00</speed><time>2016-06-21T13:45:53Z</time><pdop>3.0</pdop><geoidheight>53.00</geoidheight><course>42.6</course><type>1</type></trkpt>
      <trkpt lat="39.21802505" lon="-6.12918623"><ele>1489</ele><speed>9.00</speed><time>2016-06-21T13:45:54Z</time><pdop>3.0</pdop><geoidheight>53.00</geoidheight><course>41.6</course><type>1</type></trkpt>
      <trkpt lat="39.21808893" lon="-6.12911637"><ele>1488</ele><speed>9.25</speed><time>2016-06-21T13:45:55Z</time><pdop>3.0</pdop><geoidheight>53.00</geoidheight><course>42.9</course><type>1</type></trkpt>
      <trkpt lat="39.21814806" lon="-6.12904512"><ele>1486</ele><speed>9.25</speed><time>2016-06-21T13:45:56Z</time><pdop>3.0</pdop><geoidheight>53.00</geoidheight><course>44.3</course><type>1</type></trkpt>
      <trkpt lat="39.218209" lon="-6.12896888"><ele>1485</ele><speed>9.25</speed><time>2016-06-21T13:45:57Z</time><pdop>3.0</pdop><geoidheight>53.00</geoidheight><course>43.9</course><type>1</type></trkpt>
      <trkpt lat="39.21827174" lon="-6.12889511"><ele>1484</ele><speed>9.50</speed><time>2016-06-21T13:45:58Z</time><pdop>3.0</pdop><geoidheight>53.00</geoidheight><course>41.0</course><type>1</type></trkpt>
      <trkpt lat="39.2183414" lon="-6.12882705"><ele>1483</ele><speed>9.75</speed><time>2016-06-21T13:45:59Z</time><pdop>3.0</pdop><geoidheight>53.00</geoidheight><course>36.8</course><type>1</type></trkpt>
      <trkpt lat="39.2184154" lon="-6.12876009"><ele>1482</ele><speed>10.00</speed><time>2016-06-21T13:46:00Z</time><pdop>4.0</pdop><geoidheight>53.00</geoidheight><course>34.9</course><type>1</type></trkpt>
      <trkpt lat="39.21848431" lon="-6.12870471"><ele>1482</ele><speed>9.25</speed><time>2016-06-21T13:46:01Z</time><pdop>3.0</pdop><geoidheight>53.00</geoidheight><course>31.8</course><type>1</type></trkpt>
      <trkpt lat="39.21854623" lon="-6.12866342"><ele>1482</ele><speed>8.25</speed><time>2016-06-21T13:46:02Z</time><pdop>3.0</pdop><geoidheight>53.00</geoidheight><course>27.5</course><type>1</type></trkpt>
      <trkpt lat="39.21860762" lon="-6.12862993"><ele>1481</ele><speed>7.75</speed><time>2016-06-21T13:46:03Z</time><pdop>3.0</pdop><geoidheight>53.00</geoidheight><course>24.4</course><type>1</type></trkpt>
      <trkpt lat="39.21867423" lon="-6.1285908"><ele>1479</ele><speed>8.25</speed><time>2016-06-21T13:46:04Z</time><pdop>3.0</pdop><geoidheight>53.00</geoidheight><course>25.9</course><type>1</type></trkpt>
      <trkpt lat="39.21874383" lon="-6.12854299"><ele>1477</ele><speed>9.00</speed><time>2016-06-21T13:46:05Z</time><pdop>4.0</pdop><geoidheight>53.00</geoidheight><course>30.1</course><type>1</type></trkpt>
      <trkpt lat="39.21882891" lon="-6.12848345"><ele>1476</ele><speed>10.25</speed><time>2016-06-21T13:46:06Z</time><pdop>4.0</pdop><geoidheight>53.00</geoidheight><course>30.0</course><type>1</type></trkpt>
      <trkpt lat="39.21891431" lon="-6.12842352"><ele>1475</ele><speed>10.50</speed><time>2016-06-21T13:46:07Z</time><pdop>4.0</pdop><geoidheight>53.00</geoidheight><course>29.6</course><type>1</type></trkpt>
      <trkpt lat="39.218995" lon="-6.1283719"><ele>1475</ele><speed>10.25</speed><time>2016-06-21T13:46:08Z</time><pdop>3.0</pdop><geoidheight>53.00</geoidheight><course>28.3</course><type>1</type></trkpt>
      <trkpt lat="39.2190748" lon="-6.12832015"><ele>1474</ele><speed>10.25</speed><time>2016-06-21T13:46:09Z</time><pdop>3.0</pdop><geoidheight>53.00</geoidheight><course>27.3</course><type>1</type></trkpt>
      <trkpt lat="39.21916271" lon="-6.12826967"><ele>1474</ele><speed>10.25</speed><time>2016-06-21T13:46:10Z</time><pdop>3.0</pdop><geoidheight>53.00</geoidheight><course>23.9</course><type>1</type></trkpt>
      <trkpt lat="39.21924795" lon="-6.12822702"><ele>1474</ele><speed>10.25</speed><time>2016-06-21T13:46:11Z</time><pdop>3.0</pdop><geoidheight>53.00</geoidheight><course>22.3</course><type>1</type></trkpt>
      <trkpt lat="39.21933166" lon="-6.12818276"><ele>1474</ele><speed>10.00</speed><time>2016-06-21T13:46:12Z</time><pdop>3.0</pdop><geoidheight>53.00</geoidheight><course>23.2</course><type>1</type></trkpt>
      <trkpt lat="39.21941289" lon="-6.12813654"><ele>1475</ele><speed>9.75</speed><time>2016-06-21T13:46:13Z</time><pdop>3.0</pdop><geoidheight>53.00</geoidheight><course>23.1</course><type>1</type></trkpt>
      <trkpt lat="39.21949607" lon="-6.12810211"><ele>1475</ele><speed>9.75</speed><time>2016-06-21T13:46:14Z</time><pdop>4.0</pdop><geoidheight>53.00</geoidheight><course>18.6</course><type>1</type></trkpt>
      <trkpt lat="39.21968936" lon="-6.12810266"><ele>1474</ele><speed>10.50</speed><time>2016-06-21T13:46:16Z</time><pdop>4.0</pdop><geoidheight>53.00</geoidheight><course>359.7</course><type>1</type></trkpt>
      <trkpt lat="39.21978891" lon="-6.12812289"><ele>1474</ele><speed>10.75</speed><time>2016-06-21T13:46:17Z</time><pdop>4.0</pdop><geoidheight>53.00</geoidheight><course>354.1</course><type>1</type></trkpt>
      <trkpt lat="39.21988841" lon="-6.12815332"><ele>1474</ele><speed>10.50</speed><time>2016-06-21T13:46:18Z</time><pdop>4.0</pdop><geoidheight>53.00</geoidheight><course>348.8</course><type>1</type></trkpt>
      <trkpt lat="39.2200861" lon="-6.12821257"><ele>1473</ele><speed>11.25</speed><time>2016-06-21T13:46:20Z</time><pdop>4.0</pdop><geoidheight>53.00</geoidheight><course>346.6</course><type>1</type></trkpt>
      <trkpt lat="39.22031929" lon="-6.1282804"><ele>1472</ele><speed>13.00</speed><time>2016-06-21T13:46:22Z</time><pdop>3.0</pdop><geoidheight>53.00</geoidheight><course>346.8</course><type>1</type></trkpt>
      <trkpt lat="39.22042839" lon="-6.12830979"><ele>1471</ele><speed>12.75</speed><time>2016-06-21T13:46:23Z</time><pdop>4.0</pdop><geoidheight>53.00</geoidheight><course>346.8</course><type>1</type></trkpt>
      <trkpt lat="39.22052894" lon="-6.12834608"><ele>1472</ele><speed>12.00</speed><time>2016-06-21T13:46:24Z</time><pdop>3.0</pdop><geoidheight>53.00</geoidheight><course>346.9</course><type>1</type></trkpt>
      <trkpt lat="39.22072876" lon="-6.12840243"><ele>1472</ele><speed>11.00</speed><time>2016-06-21T13:46:26Z</time><pdop>4.0</pdop><geoidheight>53.00</geoidheight><course>348.2</course><type>1</type></trkpt>
      <trkpt lat="39.22083101" lon="-6.12843274"><ele>1471</ele><speed>11.00</speed><time>2016-06-21T13:46:27Z</time><pdop>4.0</pdop><geoidheight>53.00</geoidheight><course>347.1</course><type>1</type></trkpt>
      <trkpt lat="39.22093136" lon="-6.12846926"><ele>1471</ele><speed>11.25</speed><time>2016-06-21T13:46:28Z</time><pdop>4.0</pdop><geoidheight>53.00</geoidheight><course>345.2</course><type>1</type></trkpt>
      <trkpt lat="39.22102872" lon="-6.1285074"><ele>1470</ele><speed>11.25</speed><time>2016-06-21T13:46:29Z</time><pdop>3.0</pdop><geoidheight>53.00</geoidheight><course>343.6</course><type>1</type></trkpt>
      <trkpt lat="39.22112582" lon="-6.12854192"><ele>1469</ele><speed>11.25</speed><time>2016-06-21T13:46:30Z</time><pdop>4.0</pdop><geoidheight>53.00</geoidheight><course>344.5</course><type>1</type></trkpt>
      <trkpt lat="39.22121652" lon="-6.12857161"><ele>1469</ele><speed>10.50</speed><time>2016-06-21T13:46:31Z</time><pdop>4.0</pdop><geoidheight>53.00</geoidheight><course>345.0</course><type>1</type></trkpt>
      <trkpt lat="39.22130509" lon="-6.12860034"><ele>1469</ele><speed>10.25</speed><time>2016-06-21T13:46:32Z</time><pdop>4.0</pdop><geoidheight>53.00</geoidheight><course>346.1</course><type>1</type></trkpt>
      <trkpt lat="39.22138949" lon="-6.12863158"><ele>1467</ele><speed>10.00</speed><time>2016-06-21T13:46:33Z</time><pdop>3.0</pdop><geoidheight>53.00</geoidheight><course>343.6</course><type>1</type></trkpt>
      <trkpt lat="39.2214775" lon="-6.12867012"><ele>1465</ele><speed>10.50</speed><time>2016-06-21T13:46:34Z</time><pdop>4.0</pdop><geoidheight>53.00</geoidheight><course>342.1</course><type>1</type></trkpt>
      <trkpt lat="39.22157006" lon="-6.12870796"><ele>1465</ele><speed>11.00</speed><time>2016-06-21T13:46:35Z</time><pdop>4.0</pdop><geoidheight>53.00</geoidheight><course>342.4</course><type>1</type></trkpt>
      <trkpt lat="39.22167326" lon="-6.12875243"><ele>1464</ele><speed>11.75</speed><time>2016-06-21T13:46:36Z</time><pdop>4.0</pdop><geoidheight>53.00</geoidheight><course>341.9</course><type>1</type></trkpt>
      <trkpt lat="39.22176922" lon="-6.12878657"><ele>1463</ele><speed>11.50</speed><time>2016-06-21T13:46:37Z</time><pdop>3.0</pdop><geoidheight>53.00</geoidheight><course>343.1</course><type>1</type></trkpt>
      <trkpt lat="39.22185886" lon="-6.1288279"><ele>1462</ele><speed>11.25</speed><time>2016-06-21T13:46:38Z</time><pdop>4.0</pdop><geoidheight>53.00</geoidheight><course>341.8</course><type>1</type></trkpt>
      <trkpt lat="39.22194928" lon="-6.12887559"><ele>1461</ele><speed>10.75</speed><time>2016-06-21T13:46:39Z</time><pdop>4.0</pdop><geoidheight>53.00</geoidheight><course>337.8</course><type>1</type></trkpt>
      <trkpt lat="39.22204064" lon="-6.12892359"><ele>1461</ele><speed>10.50</speed><time>2016-06-21T13:46:40Z</time><pdop>4.0</pdop><geoidheight>53.00</geoidheight><course>336.7</course><type>1</type></trkpt>
      <trkpt lat="39.22212753" lon="-6.12897934"><ele>1457</ele><speed>11.00</speed><time>2016-06-21T13:46:41Z</time><pdop>3.0</pdop><geoidheight>53.00</geoidheight><course>334.5</course><type>1</type></trkpt>
      <trkpt lat="39.22222117" lon="-6.12903496"><ele>1455</ele><speed>11.50</speed><time>2016-06-21T13:46:42Z</time><pdop>4.0</pdop><geoidheight>53.00</geoidheight><course>335.7</course><type>1</type></trkpt>
      <trkpt lat="39.22232195" lon="-6.1290862"><ele>1454</ele><speed>11.50</speed><time>2016-06-21T13:46:43Z</time><pdop>4.0</pdop><geoidheight>53.00</geoidheight><course>336.5</course><type>1</type></trkpt>
      <trkpt lat="39.22240681" lon="-6.12914969"><ele>1453</ele><speed>11.50</speed><time>2016-06-21T13:46:44Z</time><pdop>4.0</pdop><geoidheight>53.00</geoidheight><course>330.8</course><type>1</type></trkpt>
      <trkpt lat="39.22248016" lon="-6.12924074"><ele>1450</ele><speed>11.25</speed><time>2016-06-21T13:46:45Z</time><pdop>4.0</pdop><geoidheight>53.00</geoidheight><course>320.2</course><type>1</type></trkpt>
      <trkpt lat="39.2225492" lon="-6.12933505"><ele>1448</ele><speed>11.50</speed><time>2016-06-21T13:46:46Z</time><pdop>4.0</pdop><geoidheight>53.00</geoidheight><course>315.4</course><type>1</type></trkpt>
      <trkpt lat="39.22270492" lon="-6.1295383"><ele>1440</ele><speed>12.25</speed><time>2016-06-21T13:46:48Z</time><pdop>4.0</pdop><geoidheight>53.00</geoidheight><course>317.4</course><type>1</type></trkpt>
      <trkpt lat="39.2227968" lon="-6.12962345"><ele>1439</ele><speed>12.50</speed><time>2016-06-21T13:46:49Z</time><pdop>5.0</pdop><geoidheight>53.00</geoidheight><course>322.8</course><type>1</type></trkpt>
      <trkpt lat="39.22289245" lon="-6.12970239"><ele>1438</ele><speed>12.75</speed><time>2016-06-21T13:46:50Z</time><pdop>6.0</pdop><geoidheight>53.00</geoidheight><course>326.3</course><type>1</type></trkpt>
      <trkpt lat="39.22299796" lon="-6.12977345"><ele>1438</ele><speed>13.00</speed><time>2016-06-21T13:46:51Z</time><pdop>7.0</pdop><geoidheight>53.00</geoidheight><course>330.3</course><type>1</type></trkpt>
      <trkpt lat="39.22321042" lon="-6.12987116"><ele>1436</ele><speed>12.50</speed><time>2016-06-21T13:46:53Z</time><pdop>6.0</pdop><geoidheight>53.00</geoidheight><course>340.6</course><type>1</type></trkpt>
      <trkpt lat="39.22330924" lon="-6.12990935"><ele>1435</ele><speed>11.75</speed><time>2016-06-21T13:46:54Z</time><pdop>5.0</pdop><geoidheight>53.00</geoidheight><course>344.9</course><type>1</type></trkpt>
      <trkpt lat="39.22339899" lon="-6.12994856"><ele>1433</ele><speed>10.75</speed><time>2016-06-21T13:46:55Z</time><pdop>5.0</pdop><geoidheight>53.00</geoidheight><course>345.2</course><type>1</type></trkpt>
      <trkpt lat="39.22348616" lon="-6.12998274"><ele>1432</ele><speed>10.25</speed><time>2016-06-21T13:46:56Z</time><pdop>4.0</pdop><geoidheight>53.00</geoidheight><course>343.2</course><type>1</type></trkpt>
      <trkpt lat="39.22357095" lon="-6.13002066"><ele>1429</ele><speed>10.25</speed><time>2016-06-21T13:46:57Z</time><pdop>4.0</pdop><geoidheight>53.00</geoidheight><course>342.3</course><type>1</type></trkpt>
      <trkpt lat="39.22367602" lon="-6.13006527"><ele>1428</ele><speed>11.25</speed><time>2016-06-21T13:46:58Z</time><pdop>4.0</pdop><geoidheight>53.00</geoidheight><course>343.2</course><type>1</type></trkpt>
      <trkpt lat="39.22378762" lon="-6.13010155"><ele>1426</ele><speed>12.50</speed><time>2016-06-21T13:46:59Z</time><pdop>4.0</pdop><geoidheight>53.00</geoidheight><course>346.8</course><type>1</type></trkpt>
      <trkpt lat="39.22389419" lon="-6.1301292"><ele>1426</ele><speed>12.25</speed><time>2016-06-21T13:47:00Z</time><pdop>3.0</pdop><geoidheight>53.00</geoidheight><course>348.3</course><type>1</type></trkpt>
      <trkpt lat="39.22399725" lon="-6.13015912"><ele>1426</ele><speed>11.50</speed><time>2016-06-21T13:47:01Z</time><pdop>4.0</pdop><geoidheight>53.00</geoidheight><course>346.9</course><type>1</type></trkpt>
      <trkpt lat="39.22409101" lon="-6.13018937"><ele>1425</ele><speed>11.00</speed><time>2016-06-21T13:47:02Z</time><pdop>4.0</pdop><geoidheight>53.00</geoidheight><course>346.2</course><type>1</type></trkpt>
      <trkpt lat="39.22418841" lon="-6.13022492"><ele>1424</ele><speed>11.00</speed><time>2016-06-21T13:47:03Z</time><pdop>4.0</pdop><geoidheight>53.00</geoidheight><course>345.4</course><type>1</type></trkpt>
      <trkpt lat="39.22428553" lon="-6.13024959"><ele>1423</ele><speed>11.25</speed><time>2016-06-21T13:47:04Z</time><pdop>4.0</pdop><geoidheight>53.00</geoidheight><course>347.2</course><type>1</type></trkpt>
      <trkpt lat="39.22437758" lon="-6.13026375"><ele>1423</ele><speed>10.50</speed><time>2016-06-21T13:47:05Z</time><pdop>4.0</pdop><geoidheight>53.00</geoidheight><course>350.3</course><type>1</type></trkpt>
      <trkpt lat="39.22446798" lon="-6.13029099"><ele>1422</ele><speed>10.25</speed><time>2016-06-21T13:47:06Z</time><pdop>4.0</pdop><geoidheight>53.00</geoidheight><course>350.2</course><type>1</type></trkpt>
      <trkpt lat="39.22455361" lon="-6.13032687"><ele>1420</ele><speed>10.25</speed><time>2016-06-21T13:47:07Z</time><pdop>4.0</pdop><geoidheight>53.00</geoidheight><course>344.2</course><type>1</type></trkpt>
      <trkpt lat="39.22465148" lon="-6.1303476"><ele>1416</ele><speed>11.00</speed><time>2016-06-21T13:47:08Z</time><pdop>3.0</pdop><geoidheight>53.00</geoidheight><course>348.0</course><type>1</type></trkpt>
      <trkpt lat="39.22474966" lon="-6.13037351"><ele>1412</ele><speed>11.75</speed><time>2016-06-21T13:47:09Z</time><pdop>4.0</pdop><geoidheight>53.00</geoidheight><course>348.8</course><type>1</type></trkpt>
      <trkpt lat="39.22485609" lon="-6.13037926"><ele>1410</ele><speed>11.50</speed><time>2016-06-21T13:47:10Z</time><pdop>3.0</pdop><geoidheight>53.00</geoidheight><course>353.2</course><type>1</type></trkpt>
      <trkpt lat="39.22495598" lon="-6.13038327"><ele>1409</ele><speed>11.00</speed><time>2016-06-21T13:47:11Z</time><pdop>3.0</pdop><geoidheight>53.00</geoidheight><course>355.0</course><type>1</type></trkpt>
      <trkpt lat="39.22514507" lon="-6.13040297"><ele>1408</ele><speed>11.00</speed><time>2016-06-21T13:47:13Z</time><pdop>9.0</pdop><geoidheight>53.00</geoidheight><course>355.2</course><type>1</type></trkpt>
      <trkpt lat="39.22533491" lon="-6.13046166"><ele>1410</ele><speed>10.75</speed><time>2016-06-21T13:47:15Z</time><pdop>9.0</pdop><geoidheight>53.00</geoidheight><course>343.7</course><type>1</type></trkpt>
      <trkpt lat="39.22548435" lon="-6.13059834"><ele>1409</ele><speed>10.75</speed><time>2016-06-21T13:47:17Z</time><pdop>9.0</pdop><geoidheight>53.00</geoidheight><course>321.4</course><type>1</type></trkpt>
      <trkpt lat="39.22560198" lon="-6.13081416"><ele>1407</ele><speed>12.00</speed><time>2016-06-21T13:47:19Z</time><pdop>3.0</pdop><geoidheight>53.00</geoidheight><course>305.1</course><type>1</type></trkpt>
      <trkpt lat="39.22566326" lon="-6.13094609"><ele>1406</ele><speed>13.00</speed><time>2016-06-21T13:47:20Z</time><pdop>3.0</pdop><geoidheight>53.00</geoidheight><course>300.0</course><type>1</type></trkpt>
      <trkpt lat="39.22572579" lon="-6.13109006"><ele>1405</ele><speed>14.00</speed><time>2016-06-21T13:47:21Z</time><pdop>3.0</pdop><geoidheight>53.00</geoidheight><course>298.9</course><type>1</type></trkpt>
      <trkpt lat="39.22579888" lon="-6.13123598"><ele>1404</ele><speed>14.75</speed><time>2016-06-21T13:47:22Z</time><pdop>3.0</pdop><geoidheight>53.00</geoidheight><course>302.6</course><type>1</type></trkpt>
      <trkpt lat="39.22588304" lon="-6.13136923"><ele>1405</ele><speed>15.00</speed><time>2016-06-21T13:47:23Z</time><pdop>3.0</pdop><geoidheight>53.00</geoidheight><course>308.7</course><type>1</type></trkpt>
      <trkpt lat="39.2259807" lon="-6.13148686"><ele>1405</ele><speed>14.50</speed><time>2016-06-21T13:47:24Z</time><pdop>4.0</pdop><geoidheight>53.00</geoidheight><course>315.6</course><type>1</type></trkpt>
      <trkpt lat="39.22607964" lon="-6.1315756"><ele>1405</ele><speed>13.50</speed><time>2016-06-21T13:47:25Z</time><pdop>3.0</pdop><geoidheight>53.00</geoidheight><course>323.5</course><type>1</type></trkpt>
      <trkpt lat="39.22617549" lon="-6.13164647"><ele>1405</ele><speed>12.50</speed><time>2016-06-21T13:47:26Z</time><pdop>3.0</pdop><geoidheight>53.00</geoidheight><course>329.4</course><type>1</type></trkpt>
      <trkpt lat="39.22627102" lon="-6.13171317"><ele>1405</ele><speed>12.50</speed><time>2016-06-21T13:47:27Z</time><pdop>4.0</pdop><geoidheight>53.00</geoidheight><course>332.0</course><type>1</type></trkpt>
      <trkpt lat="39.22637583" lon="-6.13178145"><ele>1404</ele><speed>12.75</speed><time>2016-06-21T13:47:28Z</time><pdop>3.0</pdop><geoidheight>53.00</geoidheight><course>333.4</course><type>1</type></trkpt>
      <trkpt lat="39.22647748" lon="-6.13184937"><ele>1403</ele><speed>13.00</speed><time>2016-06-21T13:47:29Z</time><pdop>3.0</pdop><geoidheight>53.00</geoidheight><course>333.6</course><type>1</type></trkpt>
      <trkpt lat="39.22657834" lon="-6.13191112"><ele>1403</ele><speed>12.50</speed><time>2016-06-21T13:47:30Z</time><pdop>3.0</pdop><geoidheight>53.00</geoidheight><course>336.1</course><type>1</type></trkpt>
      <trkpt lat="39.22668157" lon="-6.13196052"><ele>1402</ele><speed>12.25</speed><time>2016-06-21T13:47:31Z</time><pdop>3.0</pdop><geoidheight>53.00</geoidheight><course>339.5</course><type>1</type></trkpt>
      <trkpt lat="39.22678681" lon="-6.13200498"><ele>1402</ele><speed>12.25</speed><time>2016-06-21T13:47:32Z</time><pdop>3.0</pdop><geoidheight>53.00</geoidheight><course>341.9</course><type>1</type></trkpt>
      <trkpt lat="39.226889129999996" lon="-6.13204751"><ele>1401</ele><speed>12.00</speed><time>2016-06-21T13:47:33Z</time><pdop>3.0</pdop><geoidheight>53.00</geoidheight><course>341.7</course><type>1</type></trkpt>
      <trkpt lat="39.22699289" lon="-6.13208993"><ele>1400</ele><speed>12.00</speed><time>2016-06-21T13:47:34Z</time><pdop>3.0</pdop><geoidheight>53.00</geoidheight><course>341.4</course><type>1</type></trkpt>
      <trkpt lat="39.22709834" lon="-6.13212653"><ele>1398</ele><speed>12.25</speed><time>2016-06-21T13:47:35Z</time><pdop>3.0</pdop><geoidheight>53.00</geoidheight><course>344.5</course><type>1</type></trkpt>
      <trkpt lat="39.22720972" lon="-6.13214536"><ele>1394</ele><speed>12.50</speed><time>2016-06-21T13:47:36Z</time><pdop>3.0</pdop><geoidheight>53.00</geoidheight><course>351.9</course><type>1</type></trkpt>
      <trkpt lat="39.22731933" lon="-6.13213944"><ele>1391</ele><speed>12.25</speed><time>2016-06-21T13:47:37Z</time><pdop>3.0</pdop><geoidheight>53.00</geoidheight><course>359.8</course><type>1</type></trkpt>
      <trkpt lat="39.22743043" lon="-6.13212902"><ele>1389</ele><speed>12.50</speed><time>2016-06-21T13:47:38Z</time><pdop>3.0</pdop><geoidheight>53.00</geoidheight><course>1.9</course><type>1</type></trkpt>
      <trkpt lat="39.22754069" lon="-6.13213711"><ele>1388</ele><speed>12.25</speed><time>2016-06-21T13:47:39Z</time><pdop>3.0</pdop><geoidheight>53.00</geoidheight><course>359.1</course><type>1</type></trkpt>
      <trkpt lat="39.2276414" lon="-6.13214568"><ele>1388</ele><speed>11.25</speed><time>2016-06-21T13:47:40Z</time><pdop>3.0</pdop><geoidheight>53.00</geoidheight><course>354.7</course><type>1</type></trkpt>
      <trkpt lat="39.22773829" lon="-6.13216235"><ele>1387</ele><speed>10.75</speed><time>2016-06-21T13:47:41Z</time><pdop>3.0</pdop><geoidheight>53.00</geoidheight><course>353.2</course><type>1</type></trkpt>
      <trkpt lat="39.227837889999996" lon="-6.13216546"><ele>1385</ele><speed>11.00</speed><time>2016-06-21T13:47:42Z</time><pdop>3.0</pdop><geoidheight>53.00</geoidheight><course>355.5</course><type>1</type></trkpt>
      <trkpt lat="39.22794395" lon="-6.13216444"><ele>1384</ele><speed>11.50</speed><time>2016-06-21T13:47:43Z</time><pdop>3.0</pdop><geoidheight>53.00</geoidheight><course>358.7</course><type>1</type></trkpt>
      <trkpt lat="39.22805085" lon="-6.13216112"><ele>1382</ele><speed>12.00</speed><time>2016-06-21T13:47:44Z</time><pdop>3.0</pdop><geoidheight>53.00</geoidheight><course>0.8</course><type>1</type></trkpt>
      <trkpt lat="39.22815848" lon="-6.13215585"><ele>1381</ele><speed>12.25</speed><time>2016-06-21T13:47:45Z</time><pdop>3.0</pdop><geoidheight>53.00</geoidheight><course>1.9</course><type>1</type></trkpt>
      <trkpt lat="39.22826398" lon="-6.13215066"><ele>1381</ele><speed>11.75</speed><time>2016-06-21T13:47:46Z</time><pdop>3.0</pdop><geoidheight>53.00</geoidheight><course>1.9</course><type>1</type></trkpt>
      <trkpt lat="39.22836207" lon="-6.132145"><ele>1380</ele><speed>11.25</speed><time>2016-06-21T13:47:47Z</time><pdop>3.0</pdop><geoidheight>53.00</geoidheight><course>1.1</course><type>1</type></trkpt>
      <trkpt lat="39.22846111" lon="-6.13214187"><ele>1379</ele><speed>11.25</speed><time>2016-06-21T13:47:48Z</time><pdop>3.0</pdop><geoidheight>53.00</geoidheight><course>0.9</course><type>1</type></trkpt>
      <trkpt lat="39.22856744" lon="-6.1321391"><ele>1378</ele><speed>11.75</speed><time>2016-06-21T13:47:49Z</time><pdop>3.0</pdop><geoidheight>53.00</geoidheight><course>0.6</course><type>1</type></trkpt>
      <trkpt lat="39.22867387" lon="-6.13214659"><ele>1377</ele><speed>11.75</speed><time>2016-06-21T13:47:50Z</time><pdop>3.0</pdop><geoidheight>53.00</geoidheight><course>357.1</course><type>1</type></trkpt>
      <trkpt lat="39.22877468" lon="-6.13216371"><ele>1375</ele><speed>11.50</speed><time>2016-06-21T13:47:51Z</time><pdop>3.0</pdop><geoidheight>53.00</geoidheight><course>352.8</course><type>1</type></trkpt>
      <trkpt lat="39.22887559" lon="-6.13218075"><ele>1373</ele><speed>11.25</speed><time>2016-06-21T13:47:52Z</time><pdop>3.0</pdop><geoidheight>53.00</geoidheight><course>352.5</course><type>1</type></trkpt>
      <trkpt lat="39.22897791" lon="-6.13218706"><ele>1370</ele><speed>11.50</speed><time>2016-06-21T13:47:53Z</time><pdop>3.0</pdop><geoidheight>53.00</geoidheight><course>356.9</course><type>1</type></trkpt>
      <trkpt lat="39.22908772" lon="-6.1321848"><ele>1367</ele><speed>12.25</speed><time>2016-06-21T13:47:54Z</time><pdop>3.0</pdop><geoidheight>53.00</geoidheight><course>0.1</course><type>1</type></trkpt>
      <trkpt lat="39.22920277" lon="-6.13219404"><ele>1366</ele><speed>12.50</speed><time>2016-06-21T13:47:55Z</time><pdop>4.0</pdop><geoidheight>53.00</geoidheight><course>357.6</course><type>1</type></trkpt>
      <trkpt lat="39.22931453" lon="-6.13221758"><ele>1365</ele><speed>12.75</speed><time>2016-06-21T13:47:56Z</time><pdop>4.0</pdop><geoidheight>53.00</geoidheight><course>351.8</course><type>1</type></trkpt>
      <trkpt lat="39.22942471" lon="-6.1322488"><ele>1364</ele><speed>12.50</speed><time>2016-06-21T13:47:57Z</time><pdop>4.0</pdop><geoidheight>53.00</geoidheight><course>348.0</course><type>1</type></trkpt>
      <trkpt lat="39.22952972" lon="-6.13227742"><ele>1362</ele><speed>12.00</speed><time>2016-06-21T13:47:58Z</time><pdop>3.0</pdop><geoidheight>53.00</geoidheight><course>347.8</course><type>1</type></trkpt>
      <trkpt lat="39.22963528" lon="-6.13230294"><ele>1360</ele><speed>12.00</speed><time>2016-06-21T13:47:59Z</time><pdop>3.0</pdop><geoidheight>53.00</geoidheight><course>349.0</course><type>1</type></trkpt>
      <trkpt lat="39.2297475" lon="-6.13233172"><ele>1358</ele><speed>12.75</speed><time>2016-06-21T13:48:00Z</time><pdop>4.0</pdop><geoidheight>53.00</geoidheight><course>348.5</course><type>1</type></trkpt>
      <trkpt lat="39.22986396" lon="-6.13237137"><ele>1357</ele><speed>13.25</speed><time>2016-06-21T13:48:01Z</time><pdop>4.0</pdop><geoidheight>53.00</geoidheight><course>346.1</course><type>1</type></trkpt>
      <trkpt lat="39.22998062" lon="-6.13241855"><ele>1357</ele><speed>13.50</speed><time>2016-06-21T13:48:02Z</time><pdop>4.0</pdop><geoidheight>53.00</geoidheight><course>343.2</course><type>1</type></trkpt>
      <trkpt lat="39.23009192" lon="-6.13247177"><ele>1356</ele><speed>13.25</speed><time>2016-06-21T13:48:03Z</time><pdop>4.0</pdop><geoidheight>53.00</geoidheight><course>340.0</course><type>1</type></trkpt>
      <trkpt lat="39.23019869" lon="-6.13252955"><ele>1355</ele><speed>13.00</speed><time>2016-06-21T13:48:04Z</time><pdop>4.0</pdop><geoidheight>53.00</geoidheight><course>337.8</course><type>1</type></trkpt>
      <trkpt lat="39.23030606" lon="-6.13258633"><ele>1354</ele><speed>13.25</speed><time>2016-06-21T13:48:05Z</time><pdop>4.0</pdop><geoidheight>53.00</geoidheight><course>338.0</course><type>1</type></trkpt>
      <trkpt lat="39.23042354" lon="-6.13264583"><ele>1353</ele><speed>14.00</speed><time>2016-06-21T13:48:06Z</time><pdop>4.0</pdop><geoidheight>53.00</geoidheight><course>338.1</course><type>1</type></trkpt>
      <trkpt lat="39.23054077" lon="-6.13270441"><ele>1352</ele><speed>14.00</speed><time>2016-06-21T13:48:07Z</time><pdop>4.0</pdop><geoidheight>53.00</geoidheight><course>338.6</course><type>1</type></trkpt>
      <trkpt lat="39.23066314" lon="-6.13276611"><ele>1352</ele><speed>14.50</speed><time>2016-06-21T13:48:08Z</time><pdop>4.0</pdop><geoidheight>53.00</geoidheight><course>337.7</course><type>1</type></trkpt>
      <trkpt lat="39.23078434" lon="-6.1328335"><ele>1350</ele><speed>14.75</speed><time>2016-06-21T13:48:09Z</time><pdop>4.0</pdop><geoidheight>53.00</geoidheight><course>336.0</course><type>1</type></trkpt>
      <trkpt lat="39.23090586" lon="-6.13290478"><ele>1349</ele><speed>14.75</speed><time>2016-06-21T13:48:10Z</time><pdop>4.0</pdop><geoidheight>53.00</geoidheight><course>336.7</course><type>1</type></trkpt>
      <trkpt lat="39.23103183" lon="-6.1329676"><ele>1348</ele><speed>15.00</speed><time>2016-06-21T13:48:11Z</time><pdop>4.0</pdop><geoidheight>53.00</geoidheight><course>338.7</course><type>1</type></trkpt>
      <trkpt lat="39.23116362" lon="-6.13302359"><ele>1346</ele><speed>15.50</speed><time>2016-06-21T13:48:12Z</time><pdop>5.0</pdop><geoidheight>53.00</geoidheight><course>340.0</course><type>1</type></trkpt>
      <trkpt lat="39.23129347" lon="-6.13308023"><ele>1345</ele><speed>15.25</speed><time>2016-06-21T13:48:13Z</time><pdop>6.0</pdop><geoidheight>53.00</geoidheight><course>341.1</course><type>1</type></trkpt>
      <trkpt lat="39.23142443" lon="-6.1331359"><ele>1345</ele><speed>15.50</speed><time>2016-06-21T13:48:14Z</time><pdop>6.0</pdop><geoidheight>53.00</geoidheight><course>341.2</course><type>1</type></trkpt>
      <trkpt lat="39.23155003" lon="-6.13320326"><ele>1342</ele><speed>15.00</speed><time>2016-06-21T13:48:15Z</time><pdop>6.0</pdop><geoidheight>53.00</geoidheight><course>339.2</course><type>1</type></trkpt>
      <trkpt lat="39.23166892" lon="-6.13325882"><ele>1341</ele><speed>14.25</speed><time>2016-06-21T13:48:16Z</time><pdop>6.0</pdop><geoidheight>53.00</geoidheight><course>338.5</course><type>1</type></trkpt>
      <trkpt lat="39.23178147" lon="-6.13332218"><ele>1339</ele><speed>14.00</speed><time>2016-06-21T13:48:17Z</time><pdop>6.0</pdop><geoidheight>53.00</geoidheight><course>337.5</course><type>1</type></trkpt>
      <trkpt lat="39.23189786" lon="-6.13338562"><ele>1338</ele><speed>14.00</speed><time>2016-06-21T13:48:18Z</time><pdop>6.0</pdop><geoidheight>53.00</geoidheight><course>337.9</course><type>1</type></trkpt>
      <trkpt lat="39.23202817" lon="-6.13346191"><ele>1336</ele><speed>15.50</speed><time>2016-06-21T13:48:19Z</time><pdop>5.0</pdop><geoidheight>53.00</geoidheight><course>336.5</course><type>1</type></trkpt>
      <trkpt lat="39.23215564" lon="-6.13354421"><ele>1335</ele><speed>15.75</speed><time>2016-06-21T13:48:20Z</time><pdop>5.0</pdop><geoidheight>53.00</geoidheight><course>335.2</course><type>1</type></trkpt>
      <trkpt lat="39.23227751" lon="-6.13364379"><ele>1332</ele><speed>15.50</speed><time>2016-06-21T13:48:21Z</time><pdop>4.0</pdop><geoidheight>53.00</geoidheight><course>331.5</course><type>1</type></trkpt>
      <trkpt lat="39.23239247" lon="-6.13373633"><ele>1329</ele><speed>15.00</speed><time>2016-06-21T13:48:22Z</time><pdop>4.0</pdop><geoidheight>53.00</geoidheight><course>329.4</course><type>1</type></trkpt>
      <trkpt lat="39.23251386" lon="-6.13384441"><ele>1326</ele><speed>15.25</speed><time>2016-06-21T13:48:23Z</time><pdop>5.0</pdop><geoidheight>53.00</geoidheight><course>328.7</course><type>1</type></trkpt>
      <trkpt lat="39.23263634" lon="-6.13395041"><ele>1324</ele><speed>15.50</speed><time>2016-06-21T13:48:24Z</time><pdop>5.0</pdop><geoidheight>53.00</geoidheight><course>328.0</course><type>1</type></trkpt>
      <trkpt lat="39.23276443" lon="-6.13406758"><ele>1322</ele><speed>16.25</speed><time>2016-06-21T13:48:25Z</time><pdop>5.0</pdop><geoidheight>53.00</geoidheight><course>327.8</course><type>1</type></trkpt>
      <trkpt lat="39.23288731" lon="-6.13416439"><ele>1319</ele><speed>16.00</speed><time>2016-06-21T13:48:26Z</time><pdop>4.0</pdop><geoidheight>53.00</geoidheight><course>329.1</course><type>1</type></trkpt>
      <trkpt lat="39.23301295" lon="-6.13425322"><ele>1317</ele><speed>16.00</speed><time>2016-06-21T13:48:27Z</time><pdop>4.0</pdop><geoidheight>53.00</geoidheight><course>330.6</course><type>1</type></trkpt>
      <trkpt lat="39.23312795" lon="-6.13434389"><ele>1315</ele><speed>15.25</speed><time>2016-06-21T13:48:28Z</time><pdop>4.0</pdop><geoidheight>53.00</geoidheight><course>330.7</course><type>1</type></trkpt>
      <trkpt lat="39.23324059" lon="-6.13443909"><ele>1313</ele><speed>15.00</speed><time>2016-06-21T13:48:29Z</time><pdop>4.0</pdop><geoidheight>53.00</geoidheight><course>329.7</course><type>1</type></trkpt>
      <trkpt lat="39.23335417" lon="-6.13454216"><ele>1311</ele><speed>15.00</speed><time>2016-06-21T13:48:30Z</time><pdop>4.0</pdop><geoidheight>53.00</geoidheight><course>328.2</course><type>1</type></trkpt>
      <trkpt lat="39.23346044" lon="-6.13463489"><ele>1307</ele><speed>15.25</speed><time>2016-06-21T13:48:31Z</time><pdop>4.0</pdop><geoidheight>53.00</geoidheight><course>327.4</course><type>1</type></trkpt>
      <trkpt lat="39.23357694" lon="-6.1347302"><ele>1304</ele><speed>15.50</speed><time>2016-06-21T13:48:32Z</time><pdop>4.0</pdop><geoidheight>53.00</geoidheight><course>327.7</course><type>1</type></trkpt>
      <trkpt lat="39.23369717" lon="-6.13482799"><ele>1303</ele><speed>15.75</speed><time>2016-06-21T13:48:33Z</time><pdop>5.0</pdop><geoidheight>53.00</geoidheight><course>328.1</course><type>1</type></trkpt>
      <trkpt lat="39.23381869" lon="-6.134927"><ele>1303</ele><speed>16.25</speed><time>2016-06-21T13:48:34Z</time><pdop>6.0</pdop><geoidheight>53.00</geoidheight><course>327.7</course><type>1</type></trkpt>
      <trkpt lat="39.233935" lon="-6.13502254"><ele>1300</ele><speed>15.75</speed><time>2016-06-21T13:48:35Z</time><pdop>6.0</pdop><geoidheight>53.00</geoidheight><course>328.8</course><type>1</type></trkpt>
      <trkpt lat="39.23406864" lon="-6.1351107"><ele>1299</ele><speed>16.00</speed><time>2016-06-21T13:48:36Z</time><pdop>6.0</pdop><geoidheight>53.00</geoidheight><course>332.2</course><type>1</type></trkpt>
      <trkpt lat="39.23419979" lon="-6.13519096"><ele>1299</ele><speed>16.00</speed><time>2016-06-21T13:48:37Z</time><pdop>7.0</pdop><geoidheight>53.00</geoidheight><course>335.8</course><type>1</type></trkpt>
      <trkpt lat="39.23432987" lon="-6.1352539"><ele>1299</ele><speed>15.25</speed><time>2016-06-21T13:48:38Z</time><pdop>6.0</pdop><geoidheight>53.00</geoidheight><course>338.8</course><type>1</type></trkpt>
      <trkpt lat="39.23444047" lon="-6.13531533"><ele>1298</ele><speed>14.25</speed><time>2016-06-21T13:48:39Z</time><pdop>6.0</pdop><geoidheight>53.00</geoidheight><course>338.3</course><type>1</type></trkpt>
      <trkpt lat="39.23454445" lon="-6.13537814"><ele>1298</ele><speed>13.00</speed><time>2016-06-21T13:48:40Z</time><pdop>5.0</pdop><geoidheight>53.00</geoidheight><course>337.2</course><type>1</type></trkpt>
      <trkpt lat="39.23465475" lon="-6.13543889"><ele>1298</ele><speed>13.25</speed><time>2016-06-21T13:48:41Z</time><pdop>5.0</pdop><geoidheight>53.00</geoidheight><course>338.0</course><type>1</type></trkpt>
      <trkpt lat="39.23476801" lon="-6.13548944"><ele>1297</ele><speed>13.75</speed><time>2016-06-21T13:48:42Z</time><pdop>5.0</pdop><geoidheight>53.00</geoidheight><course>340.8</course><type>1</type></trkpt>
      <trkpt lat="39.23488131" lon="-6.13552995"><ele>1296</ele><speed>13.75</speed><time>2016-06-21T13:48:43Z</time><pdop>5.0</pdop><geoidheight>53.00</geoidheight><course>343.5</course><type>1</type></trkpt>
      <trkpt lat="39.23502909" lon="-6.13555431"><ele>1295</ele><speed>15.50</speed><time>2016-06-21T13:48:44Z</time><pdop>5.0</pdop><geoidheight>53.00</geoidheight><course>349.3</course><type>1</type></trkpt>
      <trkpt lat="39.23515598" lon="-6.13558126"><ele>1296</ele><speed>14.75</speed><time>2016-06-21T13:48:45Z</time><pdop>4.0</pdop><geoidheight>53.00</geoidheight><course>350.2</course><type>1</type></trkpt>
      <trkpt lat="39.23526835" lon="-6.13561043"><ele>1297</ele><speed>12.75</speed><time>2016-06-21T13:48:46Z</time><pdop>3.0</pdop><geoidheight>53.00</geoidheight><course>349.6</course><type>1</type></trkpt>
      <trkpt lat="39.23535932" lon="-6.13562194"><ele>1297</ele><speed>10.75</speed><time>2016-06-21T13:48:47Z</time><pdop>3.0</pdop><geoidheight>53.00</geoidheight><course>350.3</course><type>1</type></trkpt>
      <trkpt lat="39.2354389" lon="-6.13563772"><ele>1296</ele><speed>9.50</speed><time>2016-06-21T13:48:48Z</time><pdop>3.0</pdop><geoidheight>53.00</geoidheight><course>352.6</course><type>1</type></trkpt>
      <trkpt lat="39.23551791" lon="-6.1356381"><ele>1294</ele><speed>9.25</speed><time>2016-06-21T13:48:49Z</time><pdop>3.0</pdop><geoidheight>53.00</geoidheight><course>355.1</course><type>1</type></trkpt>
      <trkpt lat="39.23559806" lon="-6.13563867"><ele>1293</ele><speed>9.25</speed><time>2016-06-21T13:48:50Z</time><pdop>3.0</pdop><geoidheight>53.00</geoidheight><course>357.2</course><type>1</type></trkpt>
      <trkpt lat="39.235673" lon="-6.13563396"><ele>1292</ele><speed>9.00</speed><time>2016-06-21T13:48:51Z</time><pdop>3.0</pdop><geoidheight>53.00</geoidheight><course>359.9</course><type>1</type></trkpt>
      <trkpt lat="39.23575616" lon="-6.13562851"><ele>1289</ele><speed>8.75</speed><time>2016-06-21T13:48:52Z</time><pdop>3.0</pdop><geoidheight>53.00</geoidheight><course>3.6</course><type>1</type></trkpt>
      <trkpt lat="39.23583815" lon="-6.13560577"><ele>1286</ele><speed>9.50</speed><time>2016-06-21T13:48:53Z</time><pdop>4.0</pdop><geoidheight>53.00</geoidheight><course>8.6</course><type>1</type></trkpt>
      <trkpt lat="39.2359276" lon="-6.13558044"><ele>1283</ele><speed>10.25</speed><time>2016-06-21T13:48:54Z</time><pdop>3.0</pdop><geoidheight>53.00</geoidheight><course>11.2</course><type>1</type></trkpt>
      <trkpt lat="39.23602335" lon="-6.13555562"><ele>1281</ele><speed>11.25</speed><time>2016-06-21T13:48:55Z</time><pdop>3.0</pdop><geoidheight>53.00</geoidheight><course>10.1</course><type>1</type></trkpt>
      <trkpt lat="39.23612167" lon="-6.135532"><ele>1280</ele><speed>11.25</speed><time>2016-06-21T13:48:56Z</time><pdop>3.0</pdop><geoidheight>53.00</geoidheight><course>8.0</course><type>1</type></trkpt>
      <trkpt lat="39.23621526" lon="-6.13551912"><ele>1280</ele><speed>10.50</speed><time>2016-06-21T13:48:57Z</time><pdop>3.0</pdop><geoidheight>53.00</geoidheight><course>6.7</course><type>1</type></trkpt>
      <trkpt lat="39.23630302" lon="-6.13550392"><ele>1280</ele><speed>10.00</speed><time>2016-06-21T13:48:58Z</time><pdop>3.0</pdop><geoidheight>53.00</geoidheight><course>6.6</course><type>1</type></trkpt>
      <trkpt lat="39.23647824" lon="-6.13547635"><ele>1277</ele><speed>10.00</speed><time>2016-06-21T13:49:00Z</time><pdop>9.0</pdop><geoidheight>53.00</geoidheight><course>7.2</course><type>1</type></trkpt>
      <trkpt lat="39.23665832" lon="-6.13543725"><ele>1273</ele><speed>10.50</speed><time>2016-06-21T13:49:02Z</time><pdop>9.0</pdop><geoidheight>53.00</geoidheight><course>10.7</course><type>1</type></trkpt>
      <trkpt lat="39.23684496" lon="-6.13538494"><ele>1268</ele><speed>10.75</speed><time>2016-06-21T13:49:04Z</time><pdop>9.0</pdop><geoidheight>53.00</geoidheight><course>12.5</course><type>1</type></trkpt>
      <trkpt lat="39.23702915" lon="-6.13532436"><ele>1272</ele><speed>10.75</speed><time>2016-06-21T13:49:06Z</time><pdop>9.0</pdop><geoidheight>53.00</geoidheight><course>15.8</course><type>1</type></trkpt>
      <trkpt lat="39.23719836" lon="-6.13523731"><ele>1263</ele><speed>10.50</speed><time>2016-06-21T13:49:08Z</time><pdop>9.0</pdop><geoidheight>53.00</geoidheight><course>20.5</course><type>1</type></trkpt>
      <trkpt lat="39.23738119" lon="-6.13517353"><ele>1258</ele><speed>10.50</speed><time>2016-06-21T13:49:10Z</time><pdop>9.0</pdop><geoidheight>53.00</geoidheight><course>15.7</course><type>1</type></trkpt>
      <trkpt lat="39.2375705" lon="-6.13509415"><ele>1254</ele><speed>11.25</speed><time>2016-06-21T13:49:12Z</time><pdop>9.0</pdop><geoidheight>53.00</geoidheight><course>19.4</course><type>1</type></trkpt>
      <trkpt lat="39.23777209" lon="-6.13501497"><ele>1252</ele><speed>12.25</speed><time>2016-06-21T13:49:14Z</time><pdop>9.0</pdop><geoidheight>53.00</geoidheight><course>16.1</course><type>1</type></trkpt>
      <trkpt lat="39.23798343" lon="-6.1349687"><ele>1251</ele><speed>12.00</speed><time>2016-06-21T13:49:16Z</time><pdop>10.0</pdop><geoidheight>53.00</geoidheight><course>10.4</course><type>1</type></trkpt>
      <trkpt lat="39.23820008" lon="-6.13493079"><ele>1249</ele><speed>12.25</speed><time>2016-06-21T13:49:18Z</time><pdop>10.0</pdop><geoidheight>53.00</geoidheight><course>6.3</course><type>1</type></trkpt>
      <trkpt lat="39.23844159" lon="-6.13491982"><ele>1245</ele><speed>13.75</speed><time>2016-06-21T13:49:20Z</time><pdop>9.0</pdop><geoidheight>53.00</geoidheight><course>0.7</course><type>1</type></trkpt>
      <trkpt lat="39.23868895" lon="-6.13494177"><ele>1243</ele><speed>13.50</speed><time>2016-06-21T13:49:22Z</time><pdop>9.0</pdop><geoidheight>53.00</geoidheight><course>358.2</course><type>1</type></trkpt>
      <trkpt lat="39.23891597" lon="-6.13493418"><ele>1241</ele><speed>12.75</speed><time>2016-06-21T13:49:24Z</time><pdop>9.0</pdop><geoidheight>53.00</geoidheight><course>2.5</course><type>1</type></trkpt>
      <trkpt lat="39.23917961" lon="-6.13492474"><ele>1238</ele><speed>15.00</speed><time>2016-06-21T13:49:26Z</time><pdop>9.0</pdop><geoidheight>53.00</geoidheight><course>1.5</course><type>1</type></trkpt>
      <trkpt lat="39.23943582" lon="-6.13490843"><ele>1242</ele><speed>13.25</speed><time>2016-06-21T13:49:28Z</time><pdop>9.0</pdop><geoidheight>53.00</geoidheight><course>3.4</course><type>1</type></trkpt>
      <trkpt lat="39.239624" lon="-6.13489225"><ele>1245</ele><speed>10.25</speed><time>2016-06-21T13:49:30Z</time><pdop>9.0</pdop><geoidheight>53.00</geoidheight><course>2.3</course><type>1</type></trkpt>
      <trkpt lat="39.2398184" lon="-6.13490349"><ele>1247</ele><speed>10.75</speed><time>2016-06-21T13:49:32Z</time><pdop>9.0</pdop><geoidheight>53.00</geoidheight><course>356.9</course><type>1</type></trkpt>
      <trkpt lat="39.23997732" lon="-6.13485906"><ele>1248</ele><speed>8.75</speed><time>2016-06-21T13:49:34Z</time><pdop>9.0</pdop><geoidheight>53.00</geoidheight><course>18.3</course><type>1</type></trkpt>
      <trkpt lat="39.24005723" lon="-6.13473354"><ele>1248</ele><speed>6.50</speed><time>2016-06-21T13:49:36Z</time><pdop>4.0</pdop><geoidheight>53.00</geoidheight><course>57.9</course><type>1</type></trkpt>
      <trkpt lat="39.24006388" lon="-6.13461439"><ele>1250</ele><speed>5.25</speed><time>2016-06-21T13:49:38Z</time><pdop>4.0</pdop><geoidheight>53.00</geoidheight><course>85.2</course><type>1</type></trkpt>
      <trkpt lat="39.24000307" lon="-6.13454597"><ele>1250</ele><speed>4.50</speed><time>2016-06-21T13:49:40Z</time><pdop>4.0</pdop><geoidheight>53.00</geoidheight><course>137.8</course><type>1</type></trkpt>
      <trkpt lat="39.23992862" lon="-6.1345401"><ele>1250</ele><speed>4.00</speed><time>2016-06-21T13:49:42Z</time><pdop>4.0</pdop><geoidheight>53.00</geoidheight><course>185.0</course><type>1</type></trkpt>
      <trkpt lat="39.23985639" lon="-6.13465518"><ele>1248</ele><speed>6.50</speed><time>2016-06-21T13:49:44Z</time><pdop>3.0</pdop><geoidheight>53.00</geoidheight><course>235.0</course><type>1</type></trkpt>
      <trkpt lat="39.23982525" lon="-6.13475573"><ele>1248</ele><speed>8.00</speed><time>2016-06-21T13:49:45Z</time><pdop>3.0</pdop><geoidheight>53.00</geoidheight><course>251.3</course><type>1</type></trkpt>
      <trkpt lat="39.23982369" lon="-6.13486286"><ele>1248</ele><speed>9.50</speed><time>2016-06-21T13:49:46Z</time><pdop>3.0</pdop><geoidheight>53.00</geoidheight><course>267.5</course><type>1</type></trkpt>
      <trkpt lat="39.23984884" lon="-6.13498631"><ele>1249</ele><speed>10.75</speed><time>2016-06-21T13:49:47Z</time><pdop>3.0</pdop><geoidheight>53.00</geoidheight><course>283.2</course><type>1</type></trkpt>
      <trkpt lat="39.23990167" lon="-6.13510825"><ele>1249</ele><speed>12.00</speed><time>2016-06-21T13:49:48Z</time><pdop>4.0</pdop><geoidheight>53.00</geoidheight><course>297.4</course><type>1</type></trkpt>
      <trkpt lat="39.239990829999996" lon="-6.1352175"><ele>1250</ele><speed>13.50</speed><time>2016-06-21T13:49:49Z</time><pdop>3.0</pdop><geoidheight>53.00</geoidheight><course>313.0</course><type>1</type></trkpt>
      <trkpt lat="39.24008686" lon="-6.13531592"><ele>1250</ele><speed>13.50</speed><time>2016-06-21T13:49:50Z</time><pdop>4.0</pdop><geoidheight>53.00</geoidheight><course>320.4</course><type>1</type></trkpt>
      <trkpt lat="39.24021647" lon="-6.13535811"><ele>1252</ele><speed>14.00</speed><time>2016-06-21T13:49:51Z</time><pdop>4.0</pdop><geoidheight>53.00</geoidheight><course>339.5</course><type>1</type></trkpt>
      <trkpt lat="39.24033484" lon="-6.1353814"><ele>1253</ele><speed>13.50</speed><time>2016-06-21T13:49:52Z</time><pdop>3.0</pdop><geoidheight>53.00</geoidheight><course>349.9</course><type>1</type></trkpt>
      <trkpt lat="39.24044149" lon="-6.13538722"><ele>1255</ele><speed>12.00</speed><time>2016-06-21T13:49:53Z</time><pdop>4.0</pdop><geoidheight>53.00</geoidheight><course>356.6</course><type>1</type></trkpt>
      <trkpt lat="39.24052873" lon="-6.13537516"><ele>1255</ele><speed>10.25</speed><time>2016-06-21T13:49:54Z</time><pdop>4.0</pdop><geoidheight>53.00</geoidheight><course>2.5</course><type>1</type></trkpt>
      <trkpt lat="39.24060223" lon="-6.13536142"><ele>1256</ele><speed>8.50</speed><time>2016-06-21T13:49:55Z</time><pdop>4.0</pdop><geoidheight>53.00</geoidheight><course>11.0</course><type>1</type></trkpt>
      <trkpt lat="39.2407157" lon="-6.13527916"><ele>1257</ele><speed>7.00</speed><time>2016-06-21T13:49:57Z</time><pdop>3.0</pdop><geoidheight>53.00</geoidheight><course>35.1</course><type>1</type></trkpt>
      <trkpt lat="39.24075182" lon="-6.13522696"><ele>1257</ele><speed>6.00</speed><time>2016-06-21T13:49:58Z</time><pdop>3.0</pdop><geoidheight>53.00</geoidheight><course>45.8</course><type>1</type></trkpt>
      <trkpt lat="39.24078181" lon="-6.13512841"><ele>1256</ele><speed>4.25</speed><time>2016-06-21T13:50:00Z</time><pdop>3.0</pdop><geoidheight>53.00</geoidheight><course>75.9</course><type>1</type></trkpt>
      <trkpt lat="39.24077012" lon="-6.13502966"><ele>1256</ele><speed>4.50</speed><time>2016-06-21T13:50:02Z</time><pdop>5.0</pdop><geoidheight>53.00</geoidheight><course>104.6</course><type>1</type></trkpt>
      <trkpt lat="39.24062907" lon="-6.13509431"><ele>1254</ele><speed>6.25</speed><time>2016-06-21T13:50:04Z</time><pdop>4.0</pdop><geoidheight>53.00</geoidheight><course>195.3</course><type>1</type></trkpt>
      <trkpt lat="39.24055452" lon="-6.13521783"><ele>1254</ele><speed>7.00</speed><time>2016-06-21T13:50:06Z</time><pdop>3.0</pdop><geoidheight>53.00</geoidheight><course>241.2</course><type>1</type></trkpt>
      <trkpt lat="39.24054328" lon="-6.135308"><ele>1253</ele><speed>7.75</speed><time>2016-06-21T13:50:07Z</time><pdop>3.0</pdop><geoidheight>53.00</geoidheight><course>260.0</course><type>1</type></trkpt>
      <trkpt lat="39.24055331" lon="-6.13539806"><ele>1253</ele><speed>8.50</speed><time>2016-06-21T13:50:08Z</time><pdop>3.0</pdop><geoidheight>53.00</geoidheight><course>273.1</course><type>1</type></trkpt>
      <trkpt lat="39.24056763" lon="-6.13550085"><ele>1253</ele><speed>9.00</speed><time>2016-06-21T13:50:09Z</time><pdop>3.0</pdop><geoidheight>53.00</geoidheight><course>281.1</course><type>1</type></trkpt>
      <trkpt lat="39.24058985" lon="-6.13561464"><ele>1253</ele><speed>10.25</speed><time>2016-06-21T13:50:10Z</time><pdop>4.0</pdop><geoidheight>53.00</geoidheight><course>285.2</course><type>1</type></trkpt>
      <trkpt lat="39.24064037" lon="-6.13575071"><ele>1253</ele><speed>12.00</speed><time>2016-06-21T13:50:11Z</time><pdop>4.0</pdop><geoidheight>53.00</geoidheight><course>291.6</course><type>1</type></trkpt>
      <trkpt lat="39.2406966" lon="-6.1358771"><ele>1256</ele><speed>12.50</speed><time>2016-06-21T13:50:12Z</time><pdop>3.0</pdop><geoidheight>53.00</geoidheight><course>296.2</course><type>1</type></trkpt>
      <trkpt lat="39.2407462" lon="-6.13598848"><ele>1257</ele><speed>11.00</speed><time>2016-06-21T13:50:13Z</time><pdop>4.0</pdop><geoidheight>53.00</geoidheight><course>299.3</course><type>1</type></trkpt>
      <trkpt lat="39.24077968" lon="-6.13609068"><ele>1258</ele><speed>9.75</speed><time>2016-06-21T13:50:14Z</time><pdop>4.0</pdop><geoidheight>53.00</geoidheight><course>294.6</course><type>1</type></trkpt>
      <trkpt lat="39.240819" lon="-6.13619257"><ele>1258</ele><speed>9.50</speed><time>2016-06-21T13:50:15Z</time><pdop>4.0</pdop><geoidheight>53.00</geoidheight><course>294.6</course><type>1</type></trkpt>
      <trkpt lat="39.24086127" lon="-6.13629577"><ele>1259</ele><speed>10.00</speed><time>2016-06-21T13:50:16Z</time><pdop>3.0</pdop><geoidheight>53.00</geoidheight><course>297.7</course><type>1</type></trkpt>
      <trkpt lat="39.24091279" lon="-6.13640858"><ele>1258</ele><speed>11.25</speed><time>2016-06-21T13:50:17Z</time><pdop>4.0</pdop><geoidheight>53.00</geoidheight><course>299.1</course><type>1</type></trkpt>
      <trkpt lat="39.24097554" lon="-6.13652903"><ele>1259</ele><speed>12.25</speed><time>2016-06-21T13:50:18Z</time><pdop>3.0</pdop><geoidheight>53.00</geoidheight><course>303.6</course><type>1</type></trkpt>
      <trkpt lat="39.24106415" lon="-6.13663068"><ele>1258</ele><speed>12.75</speed><time>2016-06-21T13:50:19Z</time><pdop>4.0</pdop><geoidheight>53.00</geoidheight><course>312.6</course><type>1</type></trkpt>
      <trkpt lat="39.24116815" lon="-6.13670168"><ele>1259</ele><speed>12.75</speed><time>2016-06-21T13:50:20Z</time><pdop>3.0</pdop><geoidheight>53.00</geoidheight><course>328.2</course><type>1</type></trkpt>
      <trkpt lat="39.24127652" lon="-6.13672623"><ele>1258</ele><speed>12.00</speed><time>2016-06-21T13:50:21Z</time><pdop>3.0</pdop><geoidheight>53.00</geoidheight><course>345.6</course><type>1</type></trkpt>
      <trkpt lat="39.24144757" lon="-6.13668919"><ele>1259</ele><speed>9.25</speed><time>2016-06-21T13:50:23Z</time><pdop>4.0</pdop><geoidheight>53.00</geoidheight><course>15.9</course><type>1</type></trkpt>
      <trkpt lat="39.24150555" lon="-6.13663195"><ele>1260</ele><speed>8.00</speed><time>2016-06-21T13:50:24Z</time><pdop>4.0</pdop><geoidheight>53.00</geoidheight><course>31.0</course><type>1</type></trkpt>
      <trkpt lat="39.24152911" lon="-6.13650531"><ele>1259</ele><speed>5.25</speed><time>2016-06-21T13:50:26Z</time><pdop>3.0</pdop><geoidheight>53.00</geoidheight><course>76.8</course><type>1</type></trkpt>
      <trkpt lat="39.24150705" lon="-6.13638851"><ele>1260</ele><speed>5.50</speed><time>2016-06-21T13:50:28Z</time><pdop>4.0</pdop><geoidheight>53.00</geoidheight><course>110.6</course><type>1</type></trkpt>
      <trkpt lat="39.24144658" lon="-6.1363278"><ele>1261</ele><speed>4.00</speed><time>2016-06-21T13:50:30Z</time><pdop>4.0</pdop><geoidheight>53.00</geoidheight><course>153.6</course><type>1</type></trkpt>
      <trkpt lat="39.24136055" lon="-6.13636942"><ele>1262</ele><speed>5.50</speed><time>2016-06-21T13:50:32Z</time><pdop>4.0</pdop><geoidheight>53.00</geoidheight><course>208.7</course><type>1</type></trkpt>
      <trkpt lat="39.24126248" lon="-6.13649644"><ele>1264</ele><speed>7.75</speed><time>2016-06-21T13:50:34Z</time><pdop>3.0</pdop><geoidheight>53.00</geoidheight><course>229.3</course><type>1</type></trkpt>
      <trkpt lat="39.24377549" lon="-6.13819561"><ele>1253</ele><speed>6.50</speed><time>2016-06-21T13:51:47Z</time><pdop>17.0</pdop><geoidheight>53.00</geoidheight><course>87.3</course><type>1</type></trkpt>
      <trkpt lat="39.24382166" lon="-6.13795455"><ele>1260</ele><speed>7.25</speed><time>2016-06-21T13:51:51Z</time><pdop>4.0</pdop><geoidheight>53.00</geoidheight><course>86.6</course><type>1</type></trkpt>
      <trkpt lat="39.24382943" lon="-6.13775062"><ele>1257</ele><speed>8.75</speed><time>2016-06-21T13:51:53Z</time><pdop>4.0</pdop><geoidheight>53.00</geoidheight><course>79.2</course><type>1</type></trkpt>
      <trkpt lat="39.24383159" lon="-6.13760335"><ele>1257</ele><speed>5.00</speed><time>2016-06-21T13:51:55Z</time><pdop>4.0</pdop><geoidheight>53.00</geoidheight><course>92.8</course><type>1</type></trkpt>
      <trkpt lat="39.24377377" lon="-6.13750685"><ele>1253</ele><speed>4.25</speed><time>2016-06-21T13:51:58Z</time><pdop>4.0</pdop><geoidheight>53.00</geoidheight><course>125.4</course><type>1</type></trkpt>
      <trkpt lat="39.24371014" lon="-6.13741491"><ele>1252</ele><speed>5.50</speed><time>2016-06-21T13:52:00Z</time><pdop>4.0</pdop><geoidheight>53.00</geoidheight><course>128.1</course><type>1</type></trkpt>
      <trkpt lat="39.24364441" lon="-6.13729447"><ele>1250</ele><speed>6.00</speed><time>2016-06-21T13:52:02Z</time><pdop>4.0</pdop><geoidheight>53.00</geoidheight><course>122.0</course><type>1</type></trkpt>
      <trkpt lat="39.24359076" lon="-6.13723262"><ele>1249</ele><speed>4.00</speed><time>2016-06-21T13:52:04Z</time><pdop>4.0</pdop><geoidheight>53.00</geoidheight><course>144.3</course><type>1</type></trkpt>
      <trkpt lat="39.24351969" lon="-6.13721851"><ele>1245</ele><speed>3.75</speed><time>2016-06-21T13:52:06Z</time><pdop>3.0</pdop><geoidheight>53.00</geoidheight><course>168.0</course><type>1</type></trkpt>
      <trkpt lat="39.24344646" lon="-6.13719739"><ele>1242</ele><speed>4.00</speed><time>2016-06-21T13:52:08Z</time><pdop>4.0</pdop><geoidheight>53.00</geoidheight><course>157.9</course><type>1</type></trkpt>
      <trkpt lat="39.24339126" lon="-6.13713279"><ele>1241</ele><speed>4.25</speed><time>2016-06-21T13:52:10Z</time><pdop>4.0</pdop><geoidheight>53.00</geoidheight><course>135.8</course><type>1</type></trkpt>
      <trkpt lat="39.24337201" lon="-6.13698411"><ele>1239</ele><speed>6.75</speed><time>2016-06-21T13:52:12Z</time><pdop>3.0</pdop><geoidheight>53.00</geoidheight><course>95.1</course><type>1</type></trkpt>
      <trkpt lat="39.243372719999996" lon="-6.13690432"><ele>1239</ele><speed>6.75</speed><time>2016-06-21T13:52:13Z</time><pdop>3.0</pdop><geoidheight>53.00</geoidheight><course>88.7</course><type>1</type></trkpt>
      <trkpt lat="39.24335544" lon="-6.13677351"><ele>1237</ele><speed>5.25</speed><time>2016-06-21T13:52:15Z</time><pdop>3.0</pdop><geoidheight>53.00</geoidheight><course>107.1</course><type>1</type></trkpt>
      <trkpt lat="39.24330032" lon="-6.13667527"><ele>1235</ele><speed>5.25</speed><time>2016-06-21T13:52:17Z</time><pdop>3.0</pdop><geoidheight>53.00</geoidheight><course>124.2</course><type>1</type></trkpt>
      <trkpt lat="39.24325106" lon="-6.13657836"><ele>1234</ele><speed>5.00</speed><time>2016-06-21T13:52:19Z</time><pdop>4.0</pdop><geoidheight>53.00</geoidheight><course>125.5</course><type>1</type></trkpt>
      <trkpt lat="39.24316471" lon="-6.13650651"><ele>1233</ele><speed>3.50</speed><time>2016-06-21T13:52:22Z</time><pdop>3.0</pdop><geoidheight>53.00</geoidheight><course>157.2</course><type>1</type></trkpt>
      <trkpt lat="39.24310177" lon="-6.13648001"><ele>1231</ele><speed>3.75</speed><time>2016-06-21T13:52:24Z</time><pdop>3.0</pdop><geoidheight>53.00</geoidheight><course>161.5</course><type>1</type></trkpt>
      <trkpt lat="39.24302396" lon="-6.13644019"><ele>1229</ele><speed>2.75</speed><time>2016-06-21T13:52:27Z</time><pdop>4.0</pdop><geoidheight>53.00</geoidheight><course>144.9</course><type>1</type></trkpt>
      <trkpt lat="39.24297884" lon="-6.13636602"><ele>1228</ele><speed>2.75</speed><time>2016-06-21T13:52:30Z</time><pdop>4.0</pdop><geoidheight>53.00</geoidheight><course>123.7</course><type>1</type></trkpt>
      <trkpt lat="39.24293888" lon="-6.13627416"><ele>1221</ele><speed>4.50</speed><time>2016-06-21T13:52:32Z</time><pdop>3.0</pdop><geoidheight>53.00</geoidheight><course>116.3</course><type>1</type></trkpt>
      <trkpt lat="39.2429269" lon="-6.13615809"><ele>1218</ele><speed>4.50</speed><time>2016-06-21T13:52:34Z</time><pdop>3.0</pdop><geoidheight>53.00</geoidheight><course>91.8</course><type>1</type></trkpt>
      <trkpt lat="39.24302535" lon="-6.1360459"><ele>1214</ele><speed>7.50</speed><time>2016-06-21T13:52:36Z</time><pdop>3.0</pdop><geoidheight>53.00</geoidheight><course>30.5</course><type>1</type></trkpt>
      <trkpt lat="39.24311807" lon="-6.13600571"><ele>1210</ele><speed>10.50</speed><time>2016-06-21T13:52:37Z</time><pdop>3.0</pdop><geoidheight>53.00</geoidheight><course>21.2</course><type>1</type></trkpt>
      <trkpt lat="39.24322437" lon="-6.13597206"><ele>1208</ele><speed>12.00</speed><time>2016-06-21T13:52:38Z</time><pdop>4.0</pdop><geoidheight>53.00</geoidheight><course>15.0</course><type>1</type></trkpt>
      <trkpt lat="39.24333585" lon="-6.13594761"><ele>1207</ele><speed>12.50</speed><time>2016-06-21T13:52:39Z</time><pdop>4.0</pdop><geoidheight>53.00</geoidheight><course>9.7</course><type>1</type></trkpt>
      <trkpt lat="39.24344186" lon="-6.13593209"><ele>1207</ele><speed>12.00</speed><time>2016-06-21T13:52:40Z</time><pdop>3.0</pdop><geoidheight>53.00</geoidheight><course>6.5</course><type>1</type></trkpt>
      <trkpt lat="39.24354041" lon="-6.13592595"><ele>1207</ele><speed>11.00</speed><time>2016-06-21T13:52:41Z</time><pdop>3.0</pdop><geoidheight>53.00</geoidheight><course>2.9</course><type>1</type></trkpt>
      <trkpt lat="39.24363669" lon="-6.13592609"><ele>1205</ele><speed>10.50</speed><time>2016-06-21T13:52:42Z</time><pdop>3.0</pdop><geoidheight>53.00</geoidheight><course>359.9</course><type>1</type></trkpt>
      <trkpt lat="39.24372956" lon="-6.13593857"><ele>1203</ele><speed>10.25</speed><time>2016-06-21T13:52:43Z</time><pdop>3.0</pdop><geoidheight>53.00</geoidheight><course>358.2</course><type>1</type></trkpt>
      <trkpt lat="39.24382203" lon="-6.13594653"><ele>1201</ele><speed>10.50</speed><time>2016-06-21T13:52:44Z</time><pdop>3.0</pdop><geoidheight>53.00</geoidheight><course>355.7</course><type>1</type></trkpt>
      <trkpt lat="39.24392397" lon="-6.13596779"><ele>1198</ele><speed>11.25</speed><time>2016-06-21T13:52:45Z</time><pdop>3.0</pdop><geoidheight>53.00</geoidheight><course>350.1</course><type>1</type></trkpt>
      <trkpt lat="39.24403489" lon="-6.13600832"><ele>1213</ele><speed>12.50</speed><time>2016-06-21T13:52:46Z</time><pdop>3.0</pdop><geoidheight>53.00</geoidheight><course>344.7</course><type>1</type></trkpt>
      <trkpt lat="39.24414687" lon="-6.1360652"><ele>1204</ele><speed>13.50</speed><time>2016-06-21T13:52:47Z</time><pdop>3.0</pdop><geoidheight>53.00</geoidheight><course>339.2</course><type>1</type></trkpt>
      <trkpt lat="39.24425346" lon="-6.13614151"><ele>1199</ele><speed>13.50</speed><time>2016-06-21T13:52:48Z</time><pdop>4.0</pdop><geoidheight>53.00</geoidheight><course>332.0</course><type>1</type></trkpt>
      <trkpt lat="39.24434639" lon="-6.13623427"><ele>1195</ele><speed>13.00</speed><time>2016-06-21T13:52:49Z</time><pdop>3.0</pdop><geoidheight>53.00</geoidheight><course>324.2</course><type>1</type></trkpt>
      <trkpt lat="39.24443069" lon="-6.13634168"><ele>1197</ele><speed>12.75</speed><time>2016-06-21T13:52:50Z</time><pdop>3.0</pdop><geoidheight>53.00</geoidheight><course>316.6</course><type>1</type></trkpt>
      <trkpt lat="39.24450664" lon="-6.13645931"><ele>1192</ele><speed>13.25</speed><time>2016-06-21T13:52:51Z</time><pdop>4.0</pdop><geoidheight>53.00</geoidheight><course>310.1</course><type>1</type></trkpt>
      <trkpt lat="39.24455911" lon="-6.13659851"><ele>1189</ele><speed>13.25</speed><time>2016-06-21T13:52:52Z</time><pdop>3.0</pdop><geoidheight>53.00</geoidheight><course>298.7</course><type>1</type></trkpt>
      <trkpt lat="39.24458985" lon="-6.13674015"><ele>1187</ele><speed>12.75</speed><time>2016-06-21T13:52:53Z</time><pdop>3.0</pdop><geoidheight>53.00</geoidheight><course>287.3</course><type>1</type></trkpt>
      <trkpt lat="39.24459933" lon="-6.13686817"><ele>1186</ele><speed>11.50</speed><time>2016-06-21T13:52:54Z</time><pdop>3.0</pdop><geoidheight>53.00</geoidheight><course>275.7</course><type>1</type></trkpt>
      <trkpt lat="39.24459722" lon="-6.13699003"><ele>1186</ele><speed>10.25</speed><time>2016-06-21T13:52:55Z</time><pdop>4.0</pdop><geoidheight>53.00</geoidheight><course>271.2</course><type>1</type></trkpt>
      <trkpt lat="39.24458027" lon="-6.13708343"><ele>1185</ele><speed>8.75</speed><time>2016-06-21T13:52:56Z</time><pdop>4.0</pdop><geoidheight>53.00</geoidheight><course>261.0</course><type>1</type></trkpt>
      <trkpt lat="39.24452683" lon="-6.13714974"><ele>1184</ele><speed>7.50</speed><time>2016-06-21T13:52:57Z</time><pdop>3.0</pdop><geoidheight>53.00</geoidheight><course>237.4</course><type>1</type></trkpt>
      <trkpt lat="39.24447868" lon="-6.13719826"><ele>1183</ele><speed>7.00</speed><time>2016-06-21T13:52:58Z</time><pdop>3.0</pdop><geoidheight>53.00</geoidheight><course>222.6</course><type>1</type></trkpt>
      <trkpt lat="39.24442874" lon="-6.13723729"><ele>1182</ele><speed>6.75</speed><time>2016-06-21T13:52:59Z</time><pdop>3.0</pdop><geoidheight>53.00</geoidheight><course>211.8</course><type>1</type></trkpt>
      <trkpt lat="39.2443744" lon="-6.13727919"><ele>1187</ele><speed>6.75</speed><time>2016-06-21T13:53:00Z</time><pdop>3.0</pdop><geoidheight>53.00</geoidheight><course>210.5</course><type>1</type></trkpt>
      <trkpt lat="39.24432324" lon="-6.13732792"><ele>1183</ele><speed>6.75</speed><time>2016-06-21T13:53:01Z</time><pdop>3.0</pdop><geoidheight>53.00</geoidheight><course>215.2</course><type>1</type></trkpt>
      <trkpt lat="39.24427815" lon="-6.13737797"><ele>1180</ele><speed>6.75</speed><time>2016-06-21T13:53:02Z</time><pdop>3.0</pdop><geoidheight>53.00</geoidheight><course>220.4</course><type>1</type></trkpt>
      <trkpt lat="39.24423406" lon="-6.13742559"><ele>1177</ele><speed>6.75</speed><time>2016-06-21T13:53:03Z</time><pdop>3.0</pdop><geoidheight>53.00</geoidheight><course>220.3</course><type>1</type></trkpt>
      <trkpt lat="39.24418389" lon="-6.13746731"><ele>1175</ele><speed>7.00</speed><time>2016-06-21T13:53:04Z</time><pdop>3.0</pdop><geoidheight>53.00</geoidheight><course>215.1</course><type>1</type></trkpt>
      <trkpt lat="39.24412908" lon="-6.13751683"><ele>1173</ele><speed>7.00</speed><time>2016-06-21T13:53:05Z</time><pdop>4.0</pdop><geoidheight>53.00</geoidheight><course>213.7</course><type>1</type></trkpt>
      <trkpt lat="39.24407328" lon="-6.13756154"><ele>1171</ele><speed>7.00</speed><time>2016-06-21T13:53:06Z</time><pdop>3.0</pdop><geoidheight>53.00</geoidheight><course>213.1</course><type>1</type></trkpt>
      <trkpt lat="39.24401759" lon="-6.13761067"><ele>1169</ele><speed>7.00</speed><time>2016-06-21T13:53:07Z</time><pdop>4.0</pdop><geoidheight>53.00</geoidheight><course>213.9</course><type>1</type></trkpt>
      <trkpt lat="39.24391726" lon="-6.13770216"><ele>1166</ele><speed>7.00</speed><time>2016-06-21T13:53:09Z</time><pdop>3.0</pdop><geoidheight>53.00</geoidheight><course>214.8</course><type>1</type></trkpt>
      <trkpt lat="39.24387424" lon="-6.13774644"><ele>1165</ele><speed>6.50</speed><time>2016-06-21T13:53:10Z</time><pdop>3.0</pdop><geoidheight>53.00</geoidheight><course>218.0</course><type>1</type></trkpt>
      <trkpt lat="39.24383061" lon="-6.13778974"><ele>1163</ele><speed>6.25</speed><time>2016-06-21T13:53:11Z</time><pdop>3.0</pdop><geoidheight>53.00</geoidheight><course>218.8</course><type>1</type></trkpt>
      <trkpt lat="39.24373977" lon="-6.13786562"><ele>1159</ele><speed>6.00</speed><time>2016-06-21T13:53:13Z</time><pdop>3.0</pdop><geoidheight>53.00</geoidheight><course>213.8</course><type>1</type></trkpt>
      <trkpt lat="39.2436902" lon="-6.1379087"><ele>1159</ele><speed>6.75</speed><time>2016-06-21T13:53:14Z</time><pdop>3.0</pdop><geoidheight>53.00</geoidheight><course>212.4</course><type>1</type></trkpt>
      <trkpt lat="39.24363921" lon="-6.1379481"><ele>1159</ele><speed>6.25</speed><time>2016-06-21T13:53:15Z</time><pdop>3.0</pdop><geoidheight>53.00</geoidheight><course>213.1</course><type>1</type></trkpt>
      <trkpt lat="39.2435621" lon="-6.13800952"><ele>1166</ele><speed>4.50</speed><time>2016-06-21T13:53:17Z</time><pdop>3.0</pdop><geoidheight>53.00</geoidheight><course>209.0</course><type>1</type></trkpt>
      <trkpt lat="39.24348926" lon="-6.13805596"><ele>1160</ele><speed>4.50</speed><time>2016-06-21T13:53:19Z</time><pdop>3.0</pdop><geoidheight>53.00</geoidheight><course>208.8</course><type>1</type></trkpt>
      <trkpt lat="39.24339617" lon="-6.13807828"><ele>1155</ele><speed>5.50</speed><time>2016-06-21T13:53:21Z</time><pdop>3.0</pdop><geoidheight>53.00</geoidheight><course>185.1</course><type>1</type></trkpt>
      <trkpt lat="39.24328675" lon="-6.13807604"><ele>1154</ele><speed>6.00</speed><time>2016-06-21T13:53:23Z</time><pdop>3.0</pdop><geoidheight>53.00</geoidheight><course>178.8</course><type>1</type></trkpt>
      <trkpt lat="39.24319578" lon="-6.13810949"><ele>1155</ele><speed>5.00</speed><time>2016-06-21T13:53:25Z</time><pdop>3.0</pdop><geoidheight>53.00</geoidheight><course>195.3</course><type>1</type></trkpt>
      <trkpt lat="39.24309265" lon="-6.13814793"><ele>1154</ele><speed>6.25</speed><time>2016-06-21T13:53:27Z</time><pdop>4.0</pdop><geoidheight>53.00</geoidheight><course>195.9</course><type>1</type></trkpt>
      <trkpt lat="39.24297029" lon="-6.13819417"><ele>1156</ele><speed>7.00</speed><time>2016-06-21T13:53:29Z</time><pdop>3.0</pdop><geoidheight>53.00</geoidheight><course>195.6</course><type>1</type></trkpt>
      <trkpt lat="39.24291308" lon="-6.13822483"><ele>1159</ele><speed>6.75</speed><time>2016-06-21T13:53:30Z</time><pdop>3.0</pdop><geoidheight>53.00</geoidheight><course>201.8</course><type>1</type></trkpt>
      <trkpt lat="39.24281212" lon="-6.13836575"><ele>1160</ele><speed>5.50</speed><time>2016-06-21T13:53:33Z</time><pdop>4.0</pdop><geoidheight>53.00</geoidheight><course>236.8</course><type>1</type></trkpt>
      <trkpt lat="39.2427827" lon="-6.13844245"><ele>1159</ele><speed>6.50</speed><time>2016-06-21T13:53:34Z</time><pdop>3.0</pdop><geoidheight>53.00</geoidheight><course>245.0</course><type>1</type></trkpt>
      <trkpt lat="39.24276267" lon="-6.13853668"><ele>1159</ele><speed>8.00</speed><time>2016-06-21T13:53:35Z</time><pdop>3.0</pdop><geoidheight>53.00</geoidheight><course>256.5</course><type>1</type></trkpt>
      <trkpt lat="39.24276352" lon="-6.13865158"><ele>1158</ele><speed>9.75</speed><time>2016-06-21T13:53:36Z</time><pdop>3.0</pdop><geoidheight>53.00</geoidheight><course>267.3</course><type>1</type></trkpt>
      <trkpt lat="39.24277909" lon="-6.13879246"><ele>1156</ele><speed>11.75</speed><time>2016-06-21T13:53:37Z</time><pdop>3.0</pdop><geoidheight>53.00</geoidheight><course>276.9</course><type>1</type></trkpt>
      <trkpt lat="39.24281205" lon="-6.13894466"><ele>1156</ele><speed>13.50</speed><time>2016-06-21T13:53:38Z</time><pdop>4.0</pdop><geoidheight>53.00</geoidheight><course>285.6</course><type>1</type></trkpt>
      <trkpt lat="39.24295391" lon="-6.13919114"><ele>1156</ele><speed>13.50</speed><time>2016-06-21T13:53:40Z</time><pdop>3.0</pdop><geoidheight>53.00</geoidheight><course>309.3</course><type>1</type></trkpt>
      <trkpt lat="39.24304692" lon="-6.13927809"><ele>1157</ele><speed>12.75</speed><time>2016-06-21T13:53:41Z</time><pdop>3.0</pdop><geoidheight>53.00</geoidheight><course>321.2</course><type>1</type></trkpt>
      <trkpt lat="39.24314424" lon="-6.13935244"><ele>1158</ele><speed>12.50</speed><time>2016-06-21T13:53:42Z</time><pdop>3.0</pdop><geoidheight>53.00</geoidheight><course>326.5</course><type>1</type></trkpt>
      <trkpt lat="39.2432364" lon="-6.13942114"><ele>1160</ele><speed>12.00</speed><time>2016-06-21T13:53:43Z</time><pdop>4.0</pdop><geoidheight>53.00</geoidheight><course>327.5</course><type>1</type></trkpt>
      <trkpt lat="39.24331976" lon="-6.13948885"><ele>1161</ele><speed>11.25</speed><time>2016-06-21T13:53:44Z</time><pdop>4.0</pdop><geoidheight>53.00</geoidheight><course>328.0</course><type>1</type></trkpt>
      <trkpt lat="39.24340311" lon="-6.13954703"><ele>1161</ele><speed>10.50</speed><time>2016-06-21T13:53:45Z</time><pdop>3.0</pdop><geoidheight>53.00</geoidheight><course>332.5</course><type>1</type></trkpt>
      <trkpt lat="39.24349653" lon="-6.13958014"><ele>1160</ele><speed>10.50</speed><time>2016-06-21T13:53:46Z</time><pdop>3.0</pdop><geoidheight>53.00</geoidheight><course>342.7</course><type>1</type></trkpt>
      <trkpt lat="39.2435939" lon="-6.13957897"><ele>1158</ele><speed>11.00</speed><time>2016-06-21T13:53:47Z</time><pdop>3.0</pdop><geoidheight>53.00</geoidheight><course>356.8</course><type>1</type></trkpt>
      <trkpt lat="39.24368504" lon="-6.13955146"><ele>1159</ele><speed>10.25</speed><time>2016-06-21T13:53:48Z</time><pdop>3.0</pdop><geoidheight>53.00</geoidheight><course>12.7</course><type>1</type></trkpt>
      <trkpt lat="39.24379633" lon="-6.13943161"><ele>1161</ele><speed>7.50</speed><time>2016-06-21T13:53:50Z</time><pdop>3.0</pdop><geoidheight>53.00</geoidheight><course>47.3</course><type>1</type></trkpt>
      <trkpt lat="39.24382137" lon="-6.13936923"><ele>1163</ele><speed>6.25</speed><time>2016-06-21T13:53:51Z</time><pdop>3.0</pdop><geoidheight>53.00</geoidheight><course>57.8</course><type>1</type></trkpt>
      <trkpt lat="39.24389935" lon="-6.13923466"><ele>1168</ele><speed>4.75</speed><time>2016-06-21T13:53:54Z</time><pdop>3.0</pdop><geoidheight>53.00</geoidheight><course>44.6</course><type>1</type></trkpt>
      <trkpt lat="39.24396628" lon="-6.13910273"><ele>1169</ele><speed>4.25</speed><time>2016-06-21T13:53:57Z</time><pdop>3.0</pdop><geoidheight>53.00</geoidheight><course>72.6</course><type>1</type></trkpt>
      <trkpt lat="39.24388261" lon="-6.13907309"><ele>1169</ele><speed>4.75</speed><time>2016-06-21T13:54:00Z</time><pdop>3.0</pdop><geoidheight>53.00</geoidheight><course>186.9</course><type>1</type></trkpt>
      <trkpt lat="39.24376272" lon="-6.13925256"><ele>1169</ele><speed>8.25</speed><time>2016-06-21T13:54:03Z</time><pdop>4.0</pdop><geoidheight>53.00</geoidheight><course>242.5</course><type>1</type></trkpt>
      <trkpt lat="39.24373577" lon="-6.13936601"><ele>1168</ele><speed>10.00</speed><time>2016-06-21T13:54:04Z</time><pdop>3.0</pdop><geoidheight>53.00</geoidheight><course>254.0</course><type>1</type></trkpt>
      <trkpt lat="39.24374642" lon="-6.13967953"><ele>1170</ele><speed>14.00</speed><time>2016-06-21T13:54:06Z</time><pdop>3.0</pdop><geoidheight>53.00</geoidheight><course>277.5</course><type>1</type></trkpt>
      <trkpt lat="39.24378592" lon="-6.13984358"><ele>1172</ele><speed>14.50</speed><time>2016-06-21T13:54:07Z</time><pdop>3.0</pdop><geoidheight>53.00</geoidheight><course>286.4</course><type>1</type></trkpt>
      <trkpt lat="39.2438281" lon="-6.13998681"><ele>1173</ele><speed>13.50</speed><time>2016-06-21T13:54:08Z</time><pdop>4.0</pdop><geoidheight>53.00</geoidheight><course>290.1</course><type>1</type></trkpt>
      <trkpt lat="39.24388685" lon="-6.14010546"><ele>1174</ele><speed>12.25</speed><time>2016-06-21T13:54:09Z</time><pdop>3.0</pdop><geoidheight>53.00</geoidheight><course>297.8</course><type>1</type></trkpt>
      <trkpt lat="39.24394375" lon="-6.14022405"><ele>1174</ele><speed>12.00</speed><time>2016-06-21T13:54:10Z</time><pdop>4.0</pdop><geoidheight>53.00</geoidheight><course>300.9</course><type>1</type></trkpt>
      <trkpt lat="39.24401548" lon="-6.14032255"><ele>1173</ele><speed>12.00</speed><time>2016-06-21T13:54:11Z</time><pdop>3.0</pdop><geoidheight>53.00</geoidheight><course>310.0</course><type>1</type></trkpt>
      <trkpt lat="39.24409489" lon="-6.14043903"><ele>1172</ele><speed>13.25</speed><time>2016-06-21T13:54:12Z</time><pdop>4.0</pdop><geoidheight>53.00</geoidheight><course>311.7</course><type>1</type></trkpt>
      <trkpt lat="39.24421167" lon="-6.14053463"><ele>1171</ele><speed>14.75</speed><time>2016-06-21T13:54:13Z</time><pdop>4.0</pdop><geoidheight>53.00</geoidheight><course>322.2</course><type>1</type></trkpt>
      <trkpt lat="39.24433234" lon="-6.14060776"><ele>1173</ele><speed>14.50</speed><time>2016-06-21T13:54:14Z</time><pdop>3.0</pdop><geoidheight>53.00</geoidheight><course>332.7</course><type>1</type></trkpt>
      <trkpt lat="39.24453301" lon="-6.1406188"><ele>1175</ele><speed>10.50</speed><time>2016-06-21T13:54:16Z</time><pdop>3.0</pdop><geoidheight>53.00</geoidheight><course>5.0</course><type>1</type></trkpt>
      <trkpt lat="39.24460448" lon="-6.14057345"><ele>1175</ele><speed>9.25</speed><time>2016-06-21T13:54:17Z</time><pdop>3.0</pdop><geoidheight>53.00</geoidheight><course>23.0</course><type>1</type></trkpt>
      <trkpt lat="39.24466112" lon="-6.14051462"><ele>1176</ele><speed>8.25</speed><time>2016-06-21T13:54:18Z</time><pdop>3.0</pdop><geoidheight>53.00</geoidheight><course>39.4</course><type>1</type></trkpt>
      <trkpt lat="39.24469691" lon="-6.14045202"><ele>1178</ele><speed>7.25</speed><time>2016-06-21T13:54:19Z</time><pdop>3.0</pdop><geoidheight>53.00</geoidheight><course>52.0</course><type>1</type></trkpt>
      <trkpt lat="39.24472132" lon="-6.14033901"><ele>1181</ele><speed>5.00</speed><time>2016-06-21T13:54:21Z</time><pdop>3.0</pdop><geoidheight>53.00</geoidheight><course>79.3</course><type>1</type></trkpt>
      <trkpt lat="39.2446905" lon="-6.14025853"><ele>1183</ele><speed>3.75</speed><time>2016-06-21T13:54:23Z</time><pdop>3.0</pdop><geoidheight>53.00</geoidheight><course>129.1</course><type>1</type></trkpt>
      <trkpt lat="39.24460755" lon="-6.14026749"><ele>1184</ele><speed>5.00</speed><time>2016-06-21T13:54:25Z</time><pdop>4.0</pdop><geoidheight>53.00</geoidheight><course>196.5</course><type>1</type></trkpt>
      <trkpt lat="39.24452407" lon="-6.14042605"><ele>1183</ele><speed>9.00</speed><time>2016-06-21T13:54:27Z</time><pdop>3.0</pdop><geoidheight>53.00</geoidheight><course>242.2</course><type>1</type></trkpt>
      <trkpt lat="39.24450212" lon="-6.14055448"><ele>1183</ele><speed>11.00</speed><time>2016-06-21T13:54:28Z</time><pdop>3.0</pdop><geoidheight>53.00</geoidheight><course>256.7</course><type>1</type></trkpt>
      <trkpt lat="39.24450286" lon="-6.14069934"><ele>1185</ele><speed>12.25</speed><time>2016-06-21T13:54:29Z</time><pdop>3.0</pdop><geoidheight>53.00</geoidheight><course>270.4</course><type>1</type></trkpt>
      <trkpt lat="39.24453649" lon="-6.14083993"><ele>1186</ele><speed>12.75</speed><time>2016-06-21T13:54:30Z</time><pdop>3.0</pdop><geoidheight>53.00</geoidheight><course>284.6</course><type>1</type></trkpt>
      <trkpt lat="39.24459332" lon="-6.14097168"><ele>1187</ele><speed>13.00</speed><time>2016-06-21T13:54:31Z</time><pdop>3.0</pdop><geoidheight>53.00</geoidheight><course>296.9</course><type>1</type></trkpt>
      <trkpt lat="39.24467109" lon="-6.1410848"><ele>1187</ele><speed>13.00</speed><time>2016-06-21T13:54:32Z</time><pdop>3.0</pdop><geoidheight>53.00</geoidheight><course>308.7</course><type>1</type></trkpt>
      <trkpt lat="39.24476161" lon="-6.14118058"><ele>1187</ele><speed>13.00</speed><time>2016-06-21T13:54:33Z</time><pdop>3.0</pdop><geoidheight>53.00</geoidheight><course>318.7</course><type>1</type></trkpt>
      <trkpt lat="39.24486372" lon="-6.14125653"><ele>1188</ele><speed>13.00</speed><time>2016-06-21T13:54:34Z</time><pdop>3.0</pdop><geoidheight>53.00</geoidheight><course>328.7</course><type>1</type></trkpt>
      <trkpt lat="39.24506663" lon="-6.14132113"><ele>1190</ele><speed>10.75</speed><time>2016-06-21T13:54:36Z</time><pdop>3.0</pdop><geoidheight>53.00</geoidheight><course>352.1</course><type>1</type></trkpt>
      <trkpt lat="39.24515045" lon="-6.14130399"><ele>1190</ele><speed>9.75</speed><time>2016-06-21T13:54:37Z</time><pdop>3.0</pdop><geoidheight>53.00</geoidheight><course>6.4</course><type>1</type></trkpt>
      <trkpt lat="39.24522975" lon="-6.14126181"><ele>1191</ele><speed>9.50</speed><time>2016-06-21T13:54:38Z</time><pdop>4.0</pdop><geoidheight>53.00</geoidheight><course>19.6</course><type>1</type></trkpt>
      <trkpt lat="39.24536661" lon="-6.14116194"><ele>1194</ele><speed>8.25</speed><time>2016-06-21T13:54:40Z</time><pdop>3.0</pdop><geoidheight>53.00</geoidheight><course>33.0</course><type>1</type></trkpt>
      <trkpt lat="39.24540753" lon="-6.14110121"><ele>1195</ele><speed>6.75</speed><time>2016-06-21T13:54:41Z</time><pdop>3.0</pdop><geoidheight>53.00</geoidheight><course>46.2</course><type>1</type></trkpt>
      <trkpt lat="39.24542857" lon="-6.14099766"><ele>1196</ele><speed>4.00</speed><time>2016-06-21T13:54:43Z</time><pdop>3.0</pdop><geoidheight>53.00</geoidheight><course>89.2</course><type>1</type></trkpt>
      <trkpt lat="39.24537332" lon="-6.14098267"><ele>1198</ele><speed>3.50</speed><time>2016-06-21T13:54:45Z</time><pdop>3.0</pdop><geoidheight>53.00</geoidheight><course>182.7</course><type>1</type></trkpt>
      <trkpt lat="39.24531303" lon="-6.14107349"><ele>1200</ele><speed>6.00</speed><time>2016-06-21T13:54:47Z</time><pdop>3.0</pdop><geoidheight>53.00</geoidheight><course>236.6</course><type>1</type></trkpt>
      <trkpt lat="39.24528612" lon="-6.14115498"><ele>1200</ele><speed>7.50</speed><time>2016-06-21T13:54:48Z</time><pdop>3.0</pdop><geoidheight>53.00</geoidheight><course>244.3</course><type>1</type></trkpt>
      <trkpt lat="39.24526155" lon="-6.14125393"><ele>1200</ele><speed>8.50</speed><time>2016-06-21T13:54:49Z</time><pdop>3.0</pdop><geoidheight>53.00</geoidheight><course>251.7</course><type>1</type></trkpt>
      <trkpt lat="39.24524873" lon="-6.1413615"><ele>1201</ele><speed>9.50</speed><time>2016-06-21T13:54:50Z</time><pdop>3.0</pdop><geoidheight>53.00</geoidheight><course>261.8</course><type>1</type></trkpt>
      <trkpt lat="39.24525417" lon="-6.14148485"><ele>1202</ele><speed>10.50</speed><time>2016-06-21T13:54:51Z</time><pdop>3.0</pdop><geoidheight>53.00</geoidheight><course>273.8</course><type>1</type></trkpt>
      <trkpt lat="39.24528211" lon="-6.14161964"><ele>1202</ele><speed>11.75</speed><time>2016-06-21T13:54:52Z</time><pdop>3.0</pdop><geoidheight>53.00</geoidheight><course>284.7</course><type>1</type></trkpt>
      <trkpt lat="39.24532766" lon="-6.14175689"><ele>1202</ele><speed>13.00</speed><time>2016-06-21T13:54:53Z</time><pdop>4.0</pdop><geoidheight>53.00</geoidheight><course>293.3</course><type>1</type></trkpt>
      <trkpt lat="39.24538587" lon="-6.14189855"><ele>1202</ele><speed>13.75</speed><time>2016-06-21T13:54:54Z</time><pdop>5.0</pdop><geoidheight>53.00</geoidheight><course>296.8</course><type>1</type></trkpt>
      <trkpt lat="39.24548924" lon="-6.14200451"><ele>1203</ele><speed>14.25</speed><time>2016-06-21T13:54:55Z</time><pdop>3.0</pdop><geoidheight>53.00</geoidheight><course>311.7</course><type>1</type></trkpt>
      <trkpt lat="39.24558976" lon="-6.14209699"><ele>1204</ele><speed>13.75</speed><time>2016-06-21T13:54:56Z</time><pdop>3.0</pdop><geoidheight>53.00</geoidheight><course>321.7</course><type>1</type></trkpt>
      <trkpt lat="39.24568988" lon="-6.14216596"><ele>1205</ele><speed>12.50</speed><time>2016-06-21T13:54:57Z</time><pdop>3.0</pdop><geoidheight>53.00</geoidheight><course>331.5</course><type>1</type></trkpt>
      <trkpt lat="39.24579351" lon="-6.14221113"><ele>1206</ele><speed>12.00</speed><time>2016-06-21T13:54:58Z</time><pdop>3.0</pdop><geoidheight>53.00</geoidheight><course>339.9</course><type>1</type></trkpt>
      <trkpt lat="39.24589853" lon="-6.14223984"><ele>1208</ele><speed>11.75</speed><time>2016-06-21T13:54:59Z</time><pdop>3.0</pdop><geoidheight>53.00</geoidheight><course>347.0</course><type>1</type></trkpt>
      <trkpt lat="39.24599751" lon="-6.14224183"><ele>1209</ele><speed>11.25</speed><time>2016-06-21T13:55:00Z</time><pdop>3.0</pdop><geoidheight>53.00</geoidheight><course>356.5</course><type>1</type></trkpt>
      <trkpt lat="39.24608795" lon="-6.14222263"><ele>1210</ele><speed>10.50</speed><time>2016-06-21T13:55:01Z</time><pdop>3.0</pdop><geoidheight>53.00</geoidheight><course>7.7</course><type>1</type></trkpt>
      <trkpt lat="39.24616356" lon="-6.14217968"><ele>1210</ele><speed>9.25</speed><time>2016-06-21T13:55:02Z</time><pdop>3.0</pdop><geoidheight>53.00</geoidheight><course>23.0</course><type>1</type></trkpt>
      <trkpt lat="39.24622415" lon="-6.14212515"><ele>1210</ele><speed>8.25</speed><time>2016-06-21T13:55:03Z</time><pdop>3.0</pdop><geoidheight>53.00</geoidheight><course>36.1</course><type>1</type></trkpt>
      <trkpt lat="39.24626072" lon="-6.14206023"><ele>1211</ele><speed>7.00</speed><time>2016-06-21T13:55:04Z</time><pdop>3.0</pdop><geoidheight>53.00</geoidheight><course>48.9</course><type>1</type></trkpt>
      <trkpt lat="39.24627021" lon="-6.14194603"><ele>1212</ele><speed>4.75</speed><time>2016-06-21T13:55:06Z</time><pdop>4.0</pdop><geoidheight>53.00</geoidheight><course>98.3</course><type>1</type></trkpt>
      <trkpt lat="39.24616563" lon="-6.14197003"><ele>1210</ele><speed>6.50</speed><time>2016-06-21T13:55:08Z</time><pdop>3.0</pdop><geoidheight>53.00</geoidheight><course>196.5</course><type>1</type></trkpt>
      <trkpt lat="39.2461073" lon="-6.14204028"><ele>1211</ele><speed>8.25</speed><time>2016-06-21T13:55:09Z</time><pdop>4.0</pdop><geoidheight>53.00</geoidheight><course>220.8</course><type>1</type></trkpt>
      <trkpt lat="39.24607195" lon="-6.14214353"><ele>1213</ele><speed>9.50</speed><time>2016-06-21T13:55:10Z</time><pdop>3.0</pdop><geoidheight>53.00</geoidheight><course>242.4</course><type>1</type></trkpt>
      <trkpt lat="39.24605305" lon="-6.14226299"><ele>1214</ele><speed>10.25</speed><time>2016-06-21T13:55:11Z</time><pdop>3.0</pdop><geoidheight>53.00</geoidheight><course>260.2</course><type>1</type></trkpt>
      <trkpt lat="39.24606099" lon="-6.14238683"><ele>1215</ele><speed>10.50</speed><time>2016-06-21T13:55:12Z</time><pdop>4.0</pdop><geoidheight>53.00</geoidheight><course>273.0</course><type>1</type></trkpt>
      <trkpt lat="39.24608504" lon="-6.1425146"><ele>1215</ele><speed>11.25</speed><time>2016-06-21T13:55:13Z</time><pdop>4.0</pdop><geoidheight>53.00</geoidheight><course>283.1</course><type>1</type></trkpt>
      <trkpt lat="39.24611884" lon="-6.14264283"><ele>1215</ele><speed>11.75</speed><time>2016-06-21T13:55:14Z</time><pdop>3.0</pdop><geoidheight>53.00</geoidheight><course>289.5</course><type>1</type></trkpt>
      <trkpt lat="39.24616809" lon="-6.14277744"><ele>1215</ele><speed>12.50</speed><time>2016-06-21T13:55:15Z</time><pdop>4.0</pdop><geoidheight>53.00</geoidheight><course>293.7</course><type>1</type></trkpt>
      <trkpt lat="39.24623564" lon="-6.14291557"><ele>1215</ele><speed>13.50</speed><time>2016-06-21T13:55:16Z</time><pdop>4.0</pdop><geoidheight>53.00</geoidheight><course>299.5</course><type>1</type></trkpt>
      <trkpt lat="39.24632591" lon="-6.14304584"><ele>1215</ele><speed>14.75</speed><time>2016-06-21T13:55:17Z</time><pdop>3.0</pdop><geoidheight>53.00</geoidheight><course>309.5</course><type>1</type></trkpt>
      <trkpt lat="39.24642609" lon="-6.14315464"><ele>1215</ele><speed>14.50</speed><time>2016-06-21T13:55:18Z</time><pdop>4.0</pdop><geoidheight>53.00</geoidheight><course>319.3</course><type>1</type></trkpt>
      <trkpt lat="39.24653762" lon="-6.14323056"><ele>1215</ele><speed>13.75</speed><time>2016-06-21T13:55:19Z</time><pdop>4.0</pdop><geoidheight>53.00</geoidheight><course>329.5</course><type>1</type></trkpt>
      <trkpt lat="39.24665349" lon="-6.14326762"><ele>1217</ele><speed>13.00</speed><time>2016-06-21T13:55:20Z</time><pdop>3.0</pdop><geoidheight>53.00</geoidheight><course>343.0</course><type>1</type></trkpt>
      <trkpt lat="39.24675597" lon="-6.14327527"><ele>1218</ele><speed>11.50</speed><time>2016-06-21T13:55:21Z</time><pdop>3.0</pdop><geoidheight>53.00</geoidheight><course>355.9</course><type>1</type></trkpt>
      <trkpt lat="39.24684558" lon="-6.14325396"><ele>1219</ele><speed>10.25</speed><time>2016-06-21T13:55:22Z</time><pdop>3.0</pdop><geoidheight>53.00</geoidheight><course>9.1</course><type>1</type></trkpt>
      <trkpt lat="39.24692126" lon="-6.14321072"><ele>1219</ele><speed>9.25</speed><time>2016-06-21T13:55:23Z</time><pdop>3.0</pdop><geoidheight>53.00</geoidheight><course>21.8</course><type>1</type></trkpt>
      <trkpt lat="39.24701853" lon="-6.14309687"><ele>1220</ele><speed>6.50</speed><time>2016-06-21T13:55:25Z</time><pdop>3.0</pdop><geoidheight>53.00</geoidheight><course>47.0</course><type>1</type></trkpt>
      <trkpt lat="39.24704332" lon="-6.14298467"><ele>1221</ele><speed>5.00</speed><time>2016-06-21T13:55:27Z</time><pdop>3.0</pdop><geoidheight>53.00</geoidheight><course>82.3</course><type>1</type></trkpt>
      <trkpt lat="39.24700167" lon="-6.14288012"><ele>1222</ele><speed>5.25</speed><time>2016-06-21T13:55:29Z</time><pdop>4.0</pdop><geoidheight>53.00</geoidheight><course>123.5</course><type>1</type></trkpt>
      <trkpt lat="39.24688735" lon="-6.14289949"><ele>1224</ele><speed>6.75</speed><time>2016-06-21T13:55:31Z</time><pdop>3.0</pdop><geoidheight>53.00</geoidheight><course>197.5</course><type>1</type></trkpt>
      <trkpt lat="39.24682832" lon="-6.14295917"><ele>1224</ele><speed>7.75</speed><time>2016-06-21T13:55:32Z</time><pdop>4.0</pdop><geoidheight>53.00</geoidheight><course>216.8</course><type>1</type></trkpt>
      <trkpt lat="39.24677888" lon="-6.14303093"><ele>1226</ele><speed>8.25</speed><time>2016-06-21T13:55:33Z</time><pdop>3.0</pdop><geoidheight>53.00</geoidheight><course>228.0</course><type>1</type></trkpt>
      <trkpt lat="39.24673707" lon="-6.14311014"><ele>1228</ele><speed>8.25</speed><time>2016-06-21T13:55:34Z</time><pdop>3.0</pdop><geoidheight>53.00</geoidheight><course>234.7</course><type>1</type></trkpt>
      <trkpt lat="39.24670522" lon="-6.14320143"><ele>1230</ele><speed>8.75</speed><time>2016-06-21T13:55:35Z</time><pdop>3.0</pdop><geoidheight>53.00</geoidheight><course>242.3</course><type>1</type></trkpt>
      <trkpt lat="39.24668445" lon="-6.14331422"><ele>1231</ele><speed>9.50</speed><time>2016-06-21T13:55:36Z</time><pdop>3.0</pdop><geoidheight>53.00</geoidheight><course>254.0</course><type>1</type></trkpt>
      <trkpt lat="39.24670196" lon="-6.14359787"><ele>1232</ele><speed>13.00</speed><time>2016-06-21T13:55:38Z</time><pdop>3.0</pdop><geoidheight>53.00</geoidheight><course>280.8</course><type>1</type></trkpt>
      <trkpt lat="39.24673665" lon="-6.14375243"><ele>1232</ele><speed>14.00</speed><time>2016-06-21T13:55:39Z</time><pdop>4.0</pdop><geoidheight>53.00</geoidheight><course>286.1</course><type>1</type></trkpt>
      <trkpt lat="39.24695137" lon="-6.14400131"><ele>1233</ele><speed>14.75</speed><time>2016-06-21T13:55:41Z</time><pdop>3.0</pdop><geoidheight>53.00</geoidheight><course>319.5</course><type>1</type></trkpt>
      <trkpt lat="39.24706679" lon="-6.14407258"><ele>1233</ele><speed>14.00</speed><time>2016-06-21T13:55:42Z</time><pdop>3.0</pdop><geoidheight>53.00</geoidheight><course>332.7</course><type>1</type></trkpt>
      <trkpt lat="39.24718359" lon="-6.14410565"><ele>1235</ele><speed>13.00</speed><time>2016-06-21T13:55:43Z</time><pdop>3.0</pdop><geoidheight>53.00</geoidheight><course>345.0</course><type>1</type></trkpt>
      <trkpt lat="39.24728242" lon="-6.14410562"><ele>1235</ele><speed>11.25</speed><time>2016-06-21T13:55:44Z</time><pdop>4.0</pdop><geoidheight>53.00</geoidheight><course>356.3</course><type>1</type></trkpt>
      <trkpt lat="39.24736405" lon="-6.14407869"><ele>1235</ele><speed>9.75</speed><time>2016-06-21T13:55:45Z</time><pdop>4.0</pdop><geoidheight>53.00</geoidheight><course>11.7</course><type>1</type></trkpt>
      <trkpt lat="39.24743013" lon="-6.14402365"><ele>1236</ele><speed>8.75</speed><time>2016-06-21T13:55:46Z</time><pdop>3.0</pdop><geoidheight>53.00</geoidheight><course>29.5</course><type>1</type></trkpt>
      <trkpt lat="39.24747379" lon="-6.14395645"><ele>1236</ele><speed>7.50</speed><time>2016-06-21T13:55:47Z</time><pdop>3.0</pdop><geoidheight>53.00</geoidheight><course>46.3</course><type>1</type></trkpt>
      <trkpt lat="39.24748624" lon="-6.14384444"><ele>1238</ele><speed>4.50</speed><time>2016-06-21T13:55:49Z</time><pdop>3.0</pdop><geoidheight>53.00</geoidheight><course>95.6</course><type>1</type></trkpt>
      <trkpt lat="39.2474143" lon="-6.14381798"><ele>1239</ele><speed>4.75</speed><time>2016-06-21T13:55:51Z</time><pdop>4.0</pdop><geoidheight>53.00</geoidheight><course>175.2</course><type>1</type></trkpt>
      <trkpt lat="39.24731148" lon="-6.14390069"><ele>1241</ele><speed>7.25</speed><time>2016-06-21T13:55:53Z</time><pdop>4.0</pdop><geoidheight>53.00</geoidheight><course>219.4</course><type>1</type></trkpt>
      <trkpt lat="39.24727493" lon="-6.14398571"><ele>1242</ele><speed>8.25</speed><time>2016-06-21T13:55:54Z</time><pdop>3.0</pdop><geoidheight>53.00</geoidheight><course>238.0</course><type>1</type></trkpt>
      <trkpt lat="39.24724872" lon="-6.14410029"><ele>1243</ele><speed>10.00</speed><time>2016-06-21T13:55:55Z</time><pdop>3.0</pdop><geoidheight>53.00</geoidheight><course>254.6</course><type>1</type></trkpt>
      <trkpt lat="39.24724383" lon="-6.14423352"><ele>1244</ele><speed>11.50</speed><time>2016-06-21T13:55:56Z</time><pdop>4.0</pdop><geoidheight>53.00</geoidheight><course>267.0</course><type>1</type></trkpt>
      <trkpt lat="39.24727224" lon="-6.14439421"><ele>1244</ele><speed>13.25</speed><time>2016-06-21T13:55:57Z</time><pdop>3.0</pdop><geoidheight>53.00</geoidheight><course>279.0</course><type>1</type></trkpt>
      <trkpt lat="39.24735976" lon="-6.14472575"><ele>1245</ele><speed>15.50</speed><time>2016-06-21T13:55:59Z</time><pdop>5.0</pdop><geoidheight>53.00</geoidheight><course>289.9</course><type>1</type></trkpt>
      <trkpt lat="39.24748972" lon="-6.14478063"><ele>1247</ele><speed>14.00</speed><time>2016-06-21T13:56:00Z</time><pdop>3.0</pdop><geoidheight>53.00</geoidheight><course>316.9</course><type>1</type></trkpt>
      <trkpt lat="39.24759625" lon="-6.14485463"><ele>1248</ele><speed>13.25</speed><time>2016-06-21T13:56:01Z</time><pdop>4.0</pdop><geoidheight>53.00</geoidheight><course>331.4</course><type>1</type></trkpt>
      <trkpt lat="39.2477033" lon="-6.1448859"><ele>1250</ele><speed>12.00</speed><time>2016-06-21T13:56:02Z</time><pdop>3.0</pdop><geoidheight>53.00</geoidheight><course>344.9</course><type>1</type></trkpt>
      <trkpt lat="39.24779918" lon="-6.14488877"><ele>1251</ele><speed>10.50</speed><time>2016-06-21T13:56:03Z</time><pdop>3.0</pdop><geoidheight>53.00</geoidheight><course>358.4</course><type>1</type></trkpt>
      <trkpt lat="39.2478778" lon="-6.14486313"><ele>1250</ele><speed>9.00</speed><time>2016-06-21T13:56:04Z</time><pdop>4.0</pdop><geoidheight>53.00</geoidheight><course>13.4</course><type>1</type></trkpt>
      <trkpt lat="39.24793474" lon="-6.14480917"><ele>1250</ele><speed>8.00</speed><time>2016-06-21T13:56:05Z</time><pdop>3.0</pdop><geoidheight>53.00</geoidheight><course>31.8</course><type>1</type></trkpt>
      <trkpt lat="39.24798191" lon="-6.1446808"><ele>1252</ele><speed>5.75</speed><time>2016-06-21T13:56:07Z</time><pdop>3.0</pdop><geoidheight>53.00</geoidheight><course>75.6</course><type>1</type></trkpt>
      <trkpt lat="39.24787418" lon="-6.14461937"><ele>1253</ele><speed>5.50</speed><time>2016-06-21T13:56:10Z</time><pdop>4.0</pdop><geoidheight>53.00</geoidheight><course>178.6</course><type>1</type></trkpt>
      <trkpt lat="39.24774895" lon="-6.14468329"><ele>1254</ele><speed>7.75</speed><time>2016-06-21T13:56:12Z</time><pdop>4.0</pdop><geoidheight>53.00</geoidheight><course>204.0</course><type>1</type></trkpt>
      <trkpt lat="39.24767476" lon="-6.14489085"><ele>1256</ele><speed>10.00</speed><time>2016-06-21T13:56:14Z</time><pdop>3.0</pdop><geoidheight>53.00</geoidheight><course>248.8</course><type>1</type></trkpt>
      <trkpt lat="39.24766663" lon="-6.14502081"><ele>1258</ele><speed>11.50</speed><time>2016-06-21T13:56:15Z</time><pdop>3.0</pdop><geoidheight>53.00</geoidheight><course>266.1</course><type>1</type></trkpt>
      <trkpt lat="39.24769131" lon="-6.14516917"><ele>1259</ele><speed>12.75</speed><time>2016-06-21T13:56:16Z</time><pdop>3.0</pdop><geoidheight>53.00</geoidheight><course>279.7</course><type>1</type></trkpt>
      <trkpt lat="39.24772234" lon="-6.14531924"><ele>1260</ele><speed>13.25</speed><time>2016-06-21T13:56:17Z</time><pdop>4.0</pdop><geoidheight>53.00</geoidheight><course>283.8</course><type>1</type></trkpt>
      <trkpt lat="39.24777206" lon="-6.14545704"><ele>1260</ele><speed>13.25</speed><time>2016-06-21T13:56:18Z</time><pdop>5.0</pdop><geoidheight>53.00</geoidheight><course>291.3</course><type>1</type></trkpt>
      <trkpt lat="39.24787953" lon="-6.14551622"><ele>1262</ele><speed>12.50</speed><time>2016-06-21T13:56:19Z</time><pdop>3.0</pdop><geoidheight>53.00</geoidheight><course>317.6</course><type>1</type></trkpt>
      <trkpt lat="39.24797973" lon="-6.14558492"><ele>1263</ele><speed>12.25</speed><time>2016-06-21T13:56:20Z</time><pdop>4.0</pdop><geoidheight>53.00</geoidheight><course>331.0</course><type>1</type></trkpt>
      <trkpt lat="39.24808741" lon="-6.14562386"><ele>1264</ele><speed>11.75</speed><time>2016-06-21T13:56:21Z</time><pdop>3.0</pdop><geoidheight>53.00</geoidheight><course>344.1</course><type>1</type></trkpt>
      <trkpt lat="39.24818229" lon="-6.14563274"><ele>1265</ele><speed>10.50</speed><time>2016-06-21T13:56:22Z</time><pdop>3.0</pdop><geoidheight>53.00</geoidheight><course>356.1</course><type>1</type></trkpt>
      <trkpt lat="39.24831877" lon="-6.14558516"><ele>1266</ele><speed>7.25</speed><time>2016-06-21T13:56:24Z</time><pdop>3.0</pdop><geoidheight>53.00</geoidheight><course>24.9</course><type>1</type></trkpt>
      <trkpt lat="39.24836883" lon="-6.14547527"><ele>1267</ele><speed>5.50</speed><time>2016-06-21T13:56:26Z</time><pdop>3.0</pdop><geoidheight>53.00</geoidheight><course>70.6</course><type>1</type></trkpt>
      <trkpt lat="39.248327689999996" lon="-6.14535373"><ele>1268</ele><speed>5.50</speed><time>2016-06-21T13:56:28Z</time><pdop>3.0</pdop><geoidheight>53.00</geoidheight><course>125.5</course><type>1</type></trkpt>
      <trkpt lat="39.24823564" lon="-6.14531759"><ele>1271</ele><speed>5.50</speed><time>2016-06-21T13:56:30Z</time><pdop>4.0</pdop><geoidheight>53.00</geoidheight><course>169.5</course><type>1</type></trkpt>
      <trkpt lat="39.24814617" lon="-6.14534237"><ele>1273</ele><speed>5.25</speed><time>2016-06-21T13:56:32Z</time><pdop>4.0</pdop><geoidheight>53.00</geoidheight><course>197.7</course><type>1</type></trkpt>
      <trkpt lat="39.24804016" lon="-6.14559039"><ele>1271</ele><speed>10.25</speed><time>2016-06-21T13:56:35Z</time><pdop>3.0</pdop><geoidheight>53.00</geoidheight><course>250.4</course><type>1</type></trkpt>
      <trkpt lat="39.24803176" lon="-6.14573671"><ele>1271</ele><speed>12.50</speed><time>2016-06-21T13:56:36Z</time><pdop>3.0</pdop><geoidheight>53.00</geoidheight><course>265.1</course><type>1</type></trkpt>
      <trkpt lat="39.24809193" lon="-6.14604169"><ele>1272</ele><speed>13.75</speed><time>2016-06-21T13:56:38Z</time><pdop>3.0</pdop><geoidheight>53.00</geoidheight><course>291.3</course><type>1</type></trkpt>
      <trkpt lat="39.24815983" lon="-6.14616498"><ele>1275</ele><speed>13.00</speed><time>2016-06-21T13:56:39Z</time><pdop>3.0</pdop><geoidheight>53.00</geoidheight><course>303.8</course><type>1</type></trkpt>
      <trkpt lat="39.24823844" lon="-6.14626365"><ele>1276</ele><speed>12.50</speed><time>2016-06-21T13:56:40Z</time><pdop>3.0</pdop><geoidheight>53.00</geoidheight><course>314.7</course><type>1</type></trkpt>
      <trkpt lat="39.24832872" lon="-6.14633664"><ele>1277</ele><speed>12.00</speed><time>2016-06-21T13:56:41Z</time><pdop>3.0</pdop><geoidheight>53.00</geoidheight><course>326.1</course><type>1</type></trkpt>
      <trkpt lat="39.24843487" lon="-6.14638212"><ele>1277</ele><speed>12.25</speed><time>2016-06-21T13:56:42Z</time><pdop>3.0</pdop><geoidheight>53.00</geoidheight><course>339.8</course><type>1</type></trkpt>
      <trkpt lat="39.24854219" lon="-6.14638611"><ele>1277</ele><speed>12.00</speed><time>2016-06-21T13:56:43Z</time><pdop>3.0</pdop><geoidheight>53.00</geoidheight><course>355.7</course><type>1</type></trkpt>
      <trkpt lat="39.24863464" lon="-6.14635344"><ele>1277</ele><speed>10.75</speed><time>2016-06-21T13:56:44Z</time><pdop>3.0</pdop><geoidheight>53.00</geoidheight><course>13.0</course><type>1</type></trkpt>
      <trkpt lat="39.2487128" lon="-6.14630478"><ele>1278</ele><speed>9.75</speed><time>2016-06-21T13:56:45Z</time><pdop>4.0</pdop><geoidheight>53.00</geoidheight><course>24.5</course><type>1</type></trkpt>
      <trkpt lat="39.24875331" lon="-6.1461841"><ele>1281</ele><speed>5.00</speed><time>2016-06-21T13:56:47Z</time><pdop>3.0</pdop><geoidheight>53.00</geoidheight><course>65.2</course><type>1</type></trkpt>
      <trkpt lat="39.24873251" lon="-6.14610952"><ele>1284</ele><speed>3.50</speed><time>2016-06-21T13:56:49Z</time><pdop>3.0</pdop><geoidheight>53.00</geoidheight><course>121.0</course><type>1</type></trkpt>
      <trkpt lat="39.24866829" lon="-6.14611869"><ele>1285</ele><speed>4.00</speed><time>2016-06-21T13:56:51Z</time><pdop>4.0</pdop><geoidheight>53.00</geoidheight><course>195.4</course><type>1</type></trkpt>
      <trkpt lat="39.24859066" lon="-6.14623866"><ele>1286</ele><speed>8.00</speed><time>2016-06-21T13:56:53Z</time><pdop>4.0</pdop><geoidheight>53.00</geoidheight><course>232.9</course><type>1</type></trkpt>
      <trkpt lat="39.24856017" lon="-6.14650745"><ele>1285</ele><speed>12.50</speed><time>2016-06-21T13:56:55Z</time><pdop>3.0</pdop><geoidheight>53.00</geoidheight><course>266.6</course><type>1</type></trkpt>
      <trkpt lat="39.24859078" lon="-6.14666283"><ele>1286</ele><speed>13.75</speed><time>2016-06-21T13:56:56Z</time><pdop>4.0</pdop><geoidheight>53.00</geoidheight><course>281.0</course><type>1</type></trkpt>
      <trkpt lat="39.24865645" lon="-6.14680123"><ele>1288</ele><speed>13.75</speed><time>2016-06-21T13:56:57Z</time><pdop>3.0</pdop><geoidheight>53.00</geoidheight><course>297.6</course><type>1</type></trkpt>
      <trkpt lat="39.24873725" lon="-6.14691083"><ele>1289</ele><speed>12.75</speed><time>2016-06-21T13:56:58Z</time><pdop>3.0</pdop><geoidheight>53.00</geoidheight><course>312.2</course><type>1</type></trkpt>
      <trkpt lat="39.24882511" lon="-6.14699028"><ele>1290</ele><speed>11.75</speed><time>2016-06-21T13:56:59Z</time><pdop>3.0</pdop><geoidheight>53.00</geoidheight><course>324.2</course><type>1</type></trkpt>
      <trkpt lat="39.24901316" lon="-6.14706544"><ele>1290</ele><speed>10.50</speed><time>2016-06-21T13:57:01Z</time><pdop>3.0</pdop><geoidheight>53.00</geoidheight><course>346.1</course><type>1</type></trkpt>
      <trkpt lat="39.24910552" lon="-6.14707204"><ele>1290</ele><speed>10.50</speed><time>2016-06-21T13:57:02Z</time><pdop>4.0</pdop><geoidheight>53.00</geoidheight><course>355.5</course><type>1</type></trkpt>
      <trkpt lat="39.24926013" lon="-6.1470107"><ele>1291</ele><speed>8.50</speed><time>2016-06-21T13:57:04Z</time><pdop>3.0</pdop><geoidheight>53.00</geoidheight><course>23.3</course><type>1</type></trkpt>
      <trkpt lat="39.2493109" lon="-6.14689368"><ele>1292</ele><speed>5.75</speed><time>2016-06-21T13:57:06Z</time><pdop>3.0</pdop><geoidheight>53.00</geoidheight><course>73.2</course><type>1</type></trkpt>
      <trkpt lat="39.2492509" lon="-6.14682842"><ele>1294</ele><speed>4.25</speed><time>2016-06-21T13:57:08Z</time><pdop>4.0</pdop><geoidheight>53.00</geoidheight><course>148.5</course><type>1</type></trkpt>
      <trkpt lat="39.24917175" lon="-6.14689166"><ele>1295</ele><speed>7.75</speed><time>2016-06-21T13:57:09Z</time><pdop>3.0</pdop><geoidheight>53.00</geoidheight><course>204.8</course><type>1</type></trkpt>
      <trkpt lat="39.24911839" lon="-6.14696009"><ele>1297</ele><speed>8.50</speed><time>2016-06-21T13:57:10Z</time><pdop>4.0</pdop><geoidheight>53.00</geoidheight><course>223.0</course><type>1</type></trkpt>
      <trkpt lat="39.24907287" lon="-6.14705275"><ele>1300</ele><speed>9.00</speed><time>2016-06-21T13:57:11Z</time><pdop>3.0</pdop><geoidheight>53.00</geoidheight><course>237.2</course><type>1</type></trkpt>
      <trkpt lat="39.24901909" lon="-6.14726037"><ele>1302</ele><speed>10.00</speed><time>2016-06-21T13:57:13Z</time><pdop>3.0</pdop><geoidheight>53.00</geoidheight><course>253.3</course><type>1</type></trkpt>
      <trkpt lat="39.24900609" lon="-6.14739146"><ele>1303</ele><speed>11.25</speed><time>2016-06-21T13:57:14Z</time><pdop>3.0</pdop><geoidheight>53.00</geoidheight><course>264.8</course><type>1</type></trkpt>
      <trkpt lat="39.24902802" lon="-6.14753312"><ele>1303</ele><speed>12.00</speed><time>2016-06-21T13:57:15Z</time><pdop>3.0</pdop><geoidheight>53.00</geoidheight><course>280.2</course><type>1</type></trkpt>
      <trkpt lat="39.24908137" lon="-6.14766017"><ele>1304</ele><speed>12.50</speed><time>2016-06-21T13:57:16Z</time><pdop>3.0</pdop><geoidheight>53.00</geoidheight><course>295.4</course><type>1</type></trkpt>
      <trkpt lat="39.2491466" lon="-6.14776956"><ele>1304</ele><speed>12.00</speed><time>2016-06-21T13:57:17Z</time><pdop>3.0</pdop><geoidheight>53.00</geoidheight><course>307.9</course><type>1</type></trkpt>
      <trkpt lat="39.24922957" lon="-6.14784978"><ele>1305</ele><speed>11.50</speed><time>2016-06-21T13:57:18Z</time><pdop>4.0</pdop><geoidheight>53.00</geoidheight><course>320.5</course><type>1</type></trkpt>
      <trkpt lat="39.24932207" lon="-6.14790179"><ele>1304</ele><speed>11.25</speed><time>2016-06-21T13:57:19Z</time><pdop>3.0</pdop><geoidheight>53.00</geoidheight><course>334.4</course><type>1</type></trkpt>
      <trkpt lat="39.24942237" lon="-6.14792483"><ele>1304</ele><speed>11.00</speed><time>2016-06-21T13:57:20Z</time><pdop>3.0</pdop><geoidheight>53.00</geoidheight><course>348.4</course><type>1</type></trkpt>
      <trkpt lat="39.24958034" lon="-6.14787797"><ele>1304</ele><speed>8.75</speed><time>2016-06-21T13:57:22Z</time><pdop>3.0</pdop><geoidheight>53.00</geoidheight><course>20.8</course><type>1</type></trkpt>
      <trkpt lat="39.24965288" lon="-6.14776172"><ele>1305</ele><speed>6.25</speed><time>2016-06-21T13:57:24Z</time><pdop>3.0</pdop><geoidheight>53.00</geoidheight><course>59.8</course><type>1</type></trkpt>
      <trkpt lat="39.2496309" lon="-6.14765272"><ele>1306</ele><speed>4.75</speed><time>2016-06-21T13:57:26Z</time><pdop>3.0</pdop><geoidheight>53.00</geoidheight><course>115.2</course><type>1</type></trkpt>
      <trkpt lat="39.24956403" lon="-6.14758501"><ele>1308</ele><speed>4.50</speed><time>2016-06-21T13:57:28Z</time><pdop>4.0</pdop><geoidheight>53.00</geoidheight><course>144.8</course><type>1</type></trkpt>
      <trkpt lat="39.24949054" lon="-6.14752968"><ele>1310</ele><speed>5.00</speed><time>2016-06-21T13:57:30Z</time><pdop>3.0</pdop><geoidheight>53.00</geoidheight><course>152.0</course><type>1</type></trkpt>
      <trkpt lat="39.24934437" lon="-6.14752839"><ele>1314</ele><speed>6.00</speed><time>2016-06-21T13:57:33Z</time><pdop>3.0</pdop><geoidheight>53.00</geoidheight><course>194.0</course><type>1</type></trkpt>
      <trkpt lat="39.24924193" lon="-6.14762223"><ele>1316</ele><speed>7.25</speed><time>2016-06-21T13:57:35Z</time><pdop>4.0</pdop><geoidheight>53.00</geoidheight><course>219.7</course><type>1</type></trkpt>
      <trkpt lat="39.24919985" lon="-6.14769432"><ele>1318</ele><speed>7.75</speed><time>2016-06-21T13:57:36Z</time><pdop>3.0</pdop><geoidheight>53.00</geoidheight><course>233.2</course><type>1</type></trkpt>
      <trkpt lat="39.24917255" lon="-6.14778282"><ele>1319</ele><speed>8.25</speed><time>2016-06-21T13:57:37Z</time><pdop>3.0</pdop><geoidheight>53.00</geoidheight><course>249.9</course><type>1</type></trkpt>
      <trkpt lat="39.24916882" lon="-6.14789754"><ele>1319</ele><speed>9.75</speed><time>2016-06-21T13:57:38Z</time><pdop>3.0</pdop><geoidheight>53.00</geoidheight><course>266.8</course><type>1</type></trkpt>
      <trkpt lat="39.24918915" lon="-6.14802539"><ele>1318</ele><speed>11.00</speed><time>2016-06-21T13:57:39Z</time><pdop>4.0</pdop><geoidheight>53.00</geoidheight><course>280.5</course><type>1</type></trkpt>
      <trkpt lat="39.24924634" lon="-6.14814832"><ele>1318</ele><speed>12.25</speed><time>2016-06-21T13:57:40Z</time><pdop>3.0</pdop><geoidheight>53.00</geoidheight><course>296.6</course><type>1</type></trkpt>
      <trkpt lat="39.24942362" lon="-6.14829698"><ele>1318</ele><speed>12.00</speed><time>2016-06-21T13:57:42Z</time><pdop>3.0</pdop><geoidheight>53.00</geoidheight><course>333.4</course><type>1</type></trkpt>
      <trkpt lat="39.24952893" lon="-6.14832117"><ele>1318</ele><speed>12.00</speed><time>2016-06-21T13:57:43Z</time><pdop>3.0</pdop><geoidheight>53.00</geoidheight><course>348.2</course><type>1</type></trkpt>
      <trkpt lat="39.24963049" lon="-6.14832355"><ele>1319</ele><speed>11.25</speed><time>2016-06-21T13:57:44Z</time><pdop>3.0</pdop><geoidheight>53.00</geoidheight><course>358.8</course><type>1</type></trkpt>
      <trkpt lat="39.24977406" lon="-6.14824809"><ele>1320</ele><speed>8.25</speed><time>2016-06-21T13:57:46Z</time><pdop>3.0</pdop><geoidheight>53.00</geoidheight><course>32.7</course><type>1</type></trkpt>
      <trkpt lat="39.24979995" lon="-6.1481027"><ele>1322</ele><speed>6.25</speed><time>2016-06-21T13:57:48Z</time><pdop>3.0</pdop><geoidheight>53.00</geoidheight><course>89.6</course><type>1</type></trkpt>
      <trkpt lat="39.24975139" lon="-6.14798576"><ele>1326</ele><speed>3.00</speed><time>2016-06-21T13:57:51Z</time><pdop>3.0</pdop><geoidheight>53.00</geoidheight><course>129.6</course><type>1</type></trkpt>
      <trkpt lat="39.24965789" lon="-6.14798413"><ele>1325</ele><speed>5.25</speed><time>2016-06-21T13:57:54Z</time><pdop>4.0</pdop><geoidheight>53.00</geoidheight><course>194.9</course><type>1</type></trkpt>
      <trkpt lat="39.24957392" lon="-6.14813996"><ele>1325</ele><speed>9.00</speed><time>2016-06-21T13:57:56Z</time><pdop>4.0</pdop><geoidheight>53.00</geoidheight><course>243.1</course><type>1</type></trkpt>
      <trkpt lat="39.24957937" lon="-6.1483957"><ele>1326</ele><speed>11.75</speed><time>2016-06-21T13:57:58Z</time><pdop>3.0</pdop><geoidheight>53.00</geoidheight><course>278.5</course><type>1</type></trkpt>
      <trkpt lat="39.24962365" lon="-6.14853642"><ele>1325</ele><speed>13.00</speed><time>2016-06-21T13:57:59Z</time><pdop>4.0</pdop><geoidheight>53.00</geoidheight><course>291.0</course><type>1</type></trkpt>
      <trkpt lat="39.24970162" lon="-6.14865941"><ele>1326</ele><speed>13.50</speed><time>2016-06-21T13:58:00Z</time><pdop>3.0</pdop><geoidheight>53.00</geoidheight><course>306.2</course><type>1</type></trkpt>
      <trkpt lat="39.24988991" lon="-6.14882368"><ele>1327</ele><speed>12.50</speed><time>2016-06-21T13:58:02Z</time><pdop>3.0</pdop><geoidheight>53.00</geoidheight><course>330.0</course><type>1</type></trkpt>
      <trkpt lat="39.24998515" lon="-6.14886442"><ele>1329</ele><speed>11.50</speed><time>2016-06-21T13:58:03Z</time><pdop>3.0</pdop><geoidheight>53.00</geoidheight><course>339.8</course><type>1</type></trkpt>
      <trkpt lat="39.25007774" lon="-6.14888824"><ele>1330</ele><speed>10.50</speed><time>2016-06-21T13:58:04Z</time><pdop>3.0</pdop><geoidheight>53.00</geoidheight><course>347.7</course><type>1</type></trkpt>
      <trkpt lat="39.25024673" lon="-6.14886623"><ele>1329</ele><speed>9.50</speed><time>2016-06-21T13:58:06Z</time><pdop>3.0</pdop><geoidheight>53.00</geoidheight><course>10.8</course><type>1</type></trkpt>
      <trkpt lat="39.2503251" lon="-6.14881881"><ele>1329</ele><speed>9.75</speed><time>2016-06-21T13:58:07Z</time><pdop>3.0</pdop><geoidheight>53.00</geoidheight><course>22.4</course><type>1</type></trkpt>
      <trkpt lat="39.25043166" lon="-6.1487044"><ele>1330</ele><speed>6.75</speed><time>2016-06-21T13:58:09Z</time><pdop>3.0</pdop><geoidheight>53.00</geoidheight><course>43.5</course><type>1</type></trkpt>
      <trkpt lat="39.25043494" lon="-6.1486261"><ele>1329</ele><speed>3.25</speed><time>2016-06-21T13:58:11Z</time><pdop>3.0</pdop><geoidheight>53.00</geoidheight><course>111.4</course><type>1</type></trkpt>
      <trkpt lat="39.25034978" lon="-6.14858589"><ele>1330</ele><speed>5.75</speed><time>2016-06-21T13:58:13Z</time><pdop>4.0</pdop><geoidheight>53.00</geoidheight><course>164.5</course><type>1</type></trkpt>
      <trkpt lat="39.2502475" lon="-6.14859835"><ele>1333</ele><speed>5.50</speed><time>2016-06-21T13:58:15Z</time><pdop>3.0</pdop><geoidheight>53.00</geoidheight><course>189.0</course><type>1</type></trkpt>
      <trkpt lat="39.25015948" lon="-6.14862058"><ele>1334</ele><speed>4.75</speed><time>2016-06-21T13:58:17Z</time><pdop>3.0</pdop><geoidheight>53.00</geoidheight><course>191.8</course><type>1</type></trkpt>
      <trkpt lat="39.2500837" lon="-6.14866224"><ele>1334</ele><speed>4.75</speed><time>2016-06-21T13:58:19Z</time><pdop>4.0</pdop><geoidheight>53.00</geoidheight><course>208.5</course><type>1</type></trkpt>
      <trkpt lat="39.25002383" lon="-6.14881224"><ele>1333</ele><speed>8.50</speed><time>2016-06-21T13:58:21Z</time><pdop>3.0</pdop><geoidheight>53.00</geoidheight><course>247.5</course><type>1</type></trkpt>
      <trkpt lat="39.2500134" lon="-6.14894119"><ele>1332</ele><speed>10.75</speed><time>2016-06-21T13:58:22Z</time><pdop>3.0</pdop><geoidheight>53.00</geoidheight><course>262.1</course><type>1</type></trkpt>
      <trkpt lat="39.25002971" lon="-6.1490831"><ele>1332</ele><speed>12.00</speed><time>2016-06-21T13:58:23Z</time><pdop>3.0</pdop><geoidheight>53.00</geoidheight><course>277.7</course><type>1</type></trkpt>
      <trkpt lat="39.25008229" lon="-6.14921224"><ele>1332</ele><speed>12.50</speed><time>2016-06-21T13:58:24Z</time><pdop>3.0</pdop><geoidheight>53.00</geoidheight><course>296.3</course><type>1</type></trkpt>
      <trkpt lat="39.25016282" lon="-6.14931293"><ele>1332</ele><speed>12.50</speed><time>2016-06-21T13:58:25Z</time><pdop>3.0</pdop><geoidheight>53.00</geoidheight><course>315.3</course><type>1</type></trkpt>
      <trkpt lat="39.25026289" lon="-6.14937675"><ele>1333</ele><speed>12.25</speed><time>2016-06-21T13:58:26Z</time><pdop>4.0</pdop><geoidheight>53.00</geoidheight><course>331.5</course><type>1</type></trkpt>
      <trkpt lat="39.25036671" lon="-6.14941117"><ele>1334</ele><speed>11.50</speed><time>2016-06-21T13:58:27Z</time><pdop>3.0</pdop><geoidheight>53.00</geoidheight><course>343.7</course><type>1</type></trkpt>
      <trkpt lat="39.2505629" lon="-6.14943148"><ele>1335</ele><speed>10.50</speed><time>2016-06-21T13:58:29Z</time><pdop>3.0</pdop><geoidheight>53.00</geoidheight><course>358.3</course><type>1</type></trkpt>
      <trkpt lat="39.25065488" lon="-6.14942529"><ele>1336</ele><speed>10.25</speed><time>2016-06-21T13:58:30Z</time><pdop>3.0</pdop><geoidheight>53.00</geoidheight><course>1.7</course><type>1</type></trkpt>
      <trkpt lat="39.25073705" lon="-6.14941356"><ele>1336</ele><speed>9.50</speed><time>2016-06-21T13:58:31Z</time><pdop>4.0</pdop><geoidheight>53.00</geoidheight><course>4.9</course><type>1</type></trkpt>
      <trkpt lat="39.25080313" lon="-6.14938777"><ele>1336</ele><speed>8.25</speed><time>2016-06-21T13:58:32Z</time><pdop>3.0</pdop><geoidheight>53.00</geoidheight><course>15.5</course><type>1</type></trkpt>
      <trkpt lat="39.25084762" lon="-6.14934194"><ele>1337</ele><speed>6.25</speed><time>2016-06-21T13:58:33Z</time><pdop>3.0</pdop><geoidheight>53.00</geoidheight><course>35.6</course><type>1</type></trkpt>
      <trkpt lat="39.25085071" lon="-6.14923158"><ele>1335</ele><speed>4.75</speed><time>2016-06-21T13:58:35Z</time><pdop>3.0</pdop><geoidheight>53.00</geoidheight><course>102.9</course><type>1</type></trkpt>
      <trkpt lat="39.25077711" lon="-6.14917827"><ele>1337</ele><speed>4.75</speed><time>2016-06-21T13:58:37Z</time><pdop>4.0</pdop><geoidheight>53.00</geoidheight><course>161.2</course><type>1</type></trkpt>
      <trkpt lat="39.25068045" lon="-6.14921489"><ele>1339</ele><speed>5.75</speed><time>2016-06-21T13:58:39Z</time><pdop>4.0</pdop><geoidheight>53.00</geoidheight><course>201.3</course><type>1</type></trkpt>
      <trkpt lat="39.25057616" lon="-6.14932523"><ele>1339</ele><speed>7.75</speed><time>2016-06-21T13:58:41Z</time><pdop>4.0</pdop><geoidheight>53.00</geoidheight><course>221.4</course><type>1</type></trkpt>
      <trkpt lat="39.25052328" lon="-6.14939798"><ele>1340</ele><speed>8.75</speed><time>2016-06-21T13:58:42Z</time><pdop>3.0</pdop><geoidheight>53.00</geoidheight><course>225.2</course><type>1</type></trkpt>
      <trkpt lat="39.25047895" lon="-6.14947335"><ele>1340</ele><speed>8.50</speed><time>2016-06-21T13:58:43Z</time><pdop>3.0</pdop><geoidheight>53.00</geoidheight><course>230.1</course><type>1</type></trkpt>
      <trkpt lat="39.25044051" lon="-6.14955786"><ele>1341</ele><speed>8.25</speed><time>2016-06-21T13:58:44Z</time><pdop>3.0</pdop><geoidheight>53.00</geoidheight><course>236.5</course><type>1</type></trkpt>
      <trkpt lat="39.25041083" lon="-6.14965221"><ele>1341</ele><speed>8.50</speed><time>2016-06-21T13:58:45Z</time><pdop>3.0</pdop><geoidheight>53.00</geoidheight><course>245.7</course><type>1</type></trkpt>
      <trkpt lat="39.25039751" lon="-6.14975832"><ele>1342</ele><speed>9.50</speed><time>2016-06-21T13:58:46Z</time><pdop>3.0</pdop><geoidheight>53.00</geoidheight><course>259.1</course><type>1</type></trkpt>
      <trkpt lat="39.25040102" lon="-6.14988455"><ele>1341</ele><speed>10.75</speed><time>2016-06-21T13:58:47Z</time><pdop>3.0</pdop><geoidheight>53.00</geoidheight><course>271.3</course><type>1</type></trkpt>
      <trkpt lat="39.25045693" lon="-6.15015024"><ele>1342</ele><speed>12.00</speed><time>2016-06-21T13:58:49Z</time><pdop>5.0</pdop><geoidheight>53.00</geoidheight><course>286.9</course><type>1</type></trkpt>
      <trkpt lat="39.25054182" lon="-6.15023229"><ele>1342</ele><speed>11.75</speed><time>2016-06-21T13:58:50Z</time><pdop>3.0</pdop><geoidheight>53.00</geoidheight><course>307.7</course><type>1</type></trkpt>
      <trkpt lat="39.25061945" lon="-6.15031375"><ele>1344</ele><speed>11.25</speed><time>2016-06-21T13:58:51Z</time><pdop>3.0</pdop><geoidheight>53.00</geoidheight><course>318.4</course><type>1</type></trkpt>
      <trkpt lat="39.25070008" lon="-6.15038277"><ele>1345</ele><speed>11.00</speed><time>2016-06-21T13:58:52Z</time><pdop>3.0</pdop><geoidheight>53.00</geoidheight><course>325.6</course><type>1</type></trkpt>
      <trkpt lat="39.25078403" lon="-6.1504369"><ele>1346</ele><speed>10.50</speed><time>2016-06-21T13:58:53Z</time><pdop>3.0</pdop><geoidheight>53.00</geoidheight><course>332.0</course><type>1</type></trkpt>
      <trkpt lat="39.25086822" lon="-6.15048219"><ele>1347</ele><speed>10.00</speed><time>2016-06-21T13:58:54Z</time><pdop>3.0</pdop><geoidheight>53.00</geoidheight><course>338.4</course><type>1</type></trkpt>
      <trkpt lat="39.25095855" lon="-6.1505075"><ele>1347</ele><speed>10.00</speed><time>2016-06-21T13:58:55Z</time><pdop>3.0</pdop><geoidheight>53.00</geoidheight><course>345.8</course><type>1</type></trkpt>
      <trkpt lat="39.25104417" lon="-6.15052467"><ele>1347</ele><speed>9.50</speed><time>2016-06-21T13:58:56Z</time><pdop>4.0</pdop><geoidheight>53.00</geoidheight><course>351.6</course><type>1</type></trkpt>
      <trkpt lat="39.25112327" lon="-6.15052643"><ele>1347</ele><speed>8.75</speed><time>2016-06-21T13:58:57Z</time><pdop>4.0</pdop><geoidheight>53.00</geoidheight><course>358.5</course><type>1</type></trkpt>
      <trkpt lat="39.25119532" lon="-6.15050837"><ele>1347</ele><speed>8.00</speed><time>2016-06-21T13:58:58Z</time><pdop>3.0</pdop><geoidheight>53.00</geoidheight><course>10.7</course><type>1</type></trkpt>
      <trkpt lat="39.25125279" lon="-6.15046876"><ele>1347</ele><speed>7.25</speed><time>2016-06-21T13:58:59Z</time><pdop>3.0</pdop><geoidheight>53.00</geoidheight><course>26.8</course><type>1</type></trkpt>
      <trkpt lat="39.25128707" lon="-6.15040523"><ele>1346</ele><speed>6.50</speed><time>2016-06-21T13:59:00Z</time><pdop>3.0</pdop><geoidheight>53.00</geoidheight><course>51.7</course><type>1</type></trkpt>
      <trkpt lat="39.25129179" lon="-6.15033579"><ele>1345</ele><speed>5.75</speed><time>2016-06-21T13:59:01Z</time><pdop>3.0</pdop><geoidheight>53.00</geoidheight><course>81.8</course><type>1</type></trkpt>
      <trkpt lat="39.25122582" lon="-6.1502547"><ele>1347</ele><speed>5.25</speed><time>2016-06-21T13:59:03Z</time><pdop>3.0</pdop><geoidheight>53.00</geoidheight><course>146.6</course><type>1</type></trkpt>
      <trkpt lat="39.25114519" lon="-6.15021727"><ele>1349</ele><speed>4.75</speed><time>2016-06-21T13:59:05Z</time><pdop>3.0</pdop><geoidheight>53.00</geoidheight><course>160.5</course><type>1</type></trkpt>
      <trkpt lat="39.25107161" lon="-6.15020174"><ele>1351</ele><speed>4.25</speed><time>2016-06-21T13:59:07Z</time><pdop>4.0</pdop><geoidheight>53.00</geoidheight><course>178.4</course><type>1</type></trkpt>
      <trkpt lat="39.25096333" lon="-6.15028467"><ele>1351</ele><speed>7.75</speed><time>2016-06-21T13:59:09Z</time><pdop>3.0</pdop><geoidheight>53.00</geoidheight><course>214.8</course><type>1</type></trkpt>
      <trkpt lat="39.25091465" lon="-6.15036338"><ele>1351</ele><speed>8.75</speed><time>2016-06-21T13:59:10Z</time><pdop>4.0</pdop><geoidheight>53.00</geoidheight><course>229.9</course><type>1</type></trkpt>
      <trkpt lat="39.25088584" lon="-6.15047043"><ele>1352</ele><speed>9.25</speed><time>2016-06-21T13:59:11Z</time><pdop>3.0</pdop><geoidheight>53.00</geoidheight><course>248.7</course><type>1</type></trkpt>
      <trkpt lat="39.25087754" lon="-6.1505875"><ele>1353</ele><speed>10.25</speed><time>2016-06-21T13:59:12Z</time><pdop>3.0</pdop><geoidheight>53.00</geoidheight><course>264.1</course><type>1</type></trkpt>
      <trkpt lat="39.25091891" lon="-6.1508601"><ele>1352</ele><speed>12.25</speed><time>2016-06-21T13:59:14Z</time><pdop>5.0</pdop><geoidheight>53.00</geoidheight><course>282.9</course><type>1</type></trkpt>
      <trkpt lat="39.25108241" lon="-6.15106256"><ele>1354</ele><speed>12.50</speed><time>2016-06-21T13:59:16Z</time><pdop>3.0</pdop><geoidheight>53.00</geoidheight><course>313.9</course><type>1</type></trkpt>
      <trkpt lat="39.25116883" lon="-6.15114021"><ele>1354</ele><speed>11.75</speed><time>2016-06-21T13:59:17Z</time><pdop>4.0</pdop><geoidheight>53.00</geoidheight><course>326.5</course><type>1</type></trkpt>
      <trkpt lat="39.25126444" lon="-6.15119098"><ele>1354</ele><speed>11.50</speed><time>2016-06-21T13:59:18Z</time><pdop>3.0</pdop><geoidheight>53.00</geoidheight><course>336.4</course><type>1</type></trkpt>
      <trkpt lat="39.2513665" lon="-6.15121909"><ele>1355</ele><speed>11.25</speed><time>2016-06-21T13:59:19Z</time><pdop>3.0</pdop><geoidheight>53.00</geoidheight><course>346.2</course><type>1</type></trkpt>
      <trkpt lat="39.25146616" lon="-6.15123418"><ele>1356</ele><speed>11.00</speed><time>2016-06-21T13:59:20Z</time><pdop>3.0</pdop><geoidheight>53.00</geoidheight><course>355.2</course><type>1</type></trkpt>
      <trkpt lat="39.25156309" lon="-6.15123622"><ele>1358</ele><speed>10.25</speed><time>2016-06-21T13:59:21Z</time><pdop>3.0</pdop><geoidheight>53.00</geoidheight><course>3.5</course><type>1</type></trkpt>
      <trkpt lat="39.25164325" lon="-6.15121683"><ele>1359</ele><speed>9.00</speed><time>2016-06-21T13:59:22Z</time><pdop>3.0</pdop><geoidheight>53.00</geoidheight><course>12.4</course><type>1</type></trkpt>
      <trkpt lat="39.25173712" lon="-6.15112697"><ele>1361</ele><speed>6.50</speed><time>2016-06-21T13:59:24Z</time><pdop>3.0</pdop><geoidheight>53.00</geoidheight><course>44.3</course><type>1</type></trkpt>
      <trkpt lat="39.25175161" lon="-6.15101615"><ele>1362</ele><speed>4.75</speed><time>2016-06-21T13:59:26Z</time><pdop>3.0</pdop><geoidheight>53.00</geoidheight><course>89.0</course><type>1</type></trkpt>
      <trkpt lat="39.25169855" lon="-6.15096099"><ele>1363</ele><speed>4.25</speed><time>2016-06-21T13:59:28Z</time><pdop>4.0</pdop><geoidheight>53.00</geoidheight><course>150.6</course><type>1</type></trkpt>
      <trkpt lat="39.25157896" lon="-6.15097754"><ele>1363</ele><speed>6.75</speed><time>2016-06-21T13:59:30Z</time><pdop>4.0</pdop><geoidheight>53.00</geoidheight><course>190.3</course><type>1</type></trkpt>
      <trkpt lat="39.25147248" lon="-6.15110637"><ele>1365</ele><speed>9.00</speed><time>2016-06-21T13:59:32Z</time><pdop>3.0</pdop><geoidheight>53.00</geoidheight><course>230.7</course><type>1</type></trkpt>
      <trkpt lat="39.25143904" lon="-6.15123084"><ele>1365</ele><speed>10.75</speed><time>2016-06-21T13:59:33Z</time><pdop>3.0</pdop><geoidheight>53.00</geoidheight><course>248.3</course><type>1</type></trkpt>
      <trkpt lat="39.25142562" lon="-6.15137139"><ele>1365</ele><speed>12.00</speed><time>2016-06-21T13:59:34Z</time><pdop>3.0</pdop><geoidheight>53.00</geoidheight><course>262.0</course><type>1</type></trkpt>
      <trkpt lat="39.25143167" lon="-6.15151752"><ele>1366</ele><speed>12.50</speed><time>2016-06-21T13:59:35Z</time><pdop>3.0</pdop><geoidheight>53.00</geoidheight><course>273.4</course><type>1</type></trkpt>
      <trkpt lat="39.25146171" lon="-6.15165354"><ele>1367</ele><speed>12.00</speed><time>2016-06-21T13:59:36Z</time><pdop>3.0</pdop><geoidheight>53.00</geoidheight><course>284.5</course><type>1</type></trkpt>
      <trkpt lat="39.25150373" lon="-6.15177291"><ele>1368</ele><speed>11.25</speed><time>2016-06-21T13:59:37Z</time><pdop>3.0</pdop><geoidheight>53.00</geoidheight><course>292.9</course><type>1</type></trkpt>
      <trkpt lat="39.25155577" lon="-6.15188991"><ele>1368</ele><speed>11.50</speed><time>2016-06-21T13:59:38Z</time><pdop>4.0</pdop><geoidheight>53.00</geoidheight><course>298.8</course><type>1</type></trkpt>
      <trkpt lat="39.25162104" lon="-6.15199741"><ele>1368</ele><speed>12.00</speed><time>2016-06-21T13:59:39Z</time><pdop>3.0</pdop><geoidheight>53.00</geoidheight><course>307.4</course><type>1</type></trkpt>
      <trkpt lat="39.25170784" lon="-6.15209286"><ele>1368</ele><speed>12.75</speed><time>2016-06-21T13:59:40Z</time><pdop>3.0</pdop><geoidheight>53.00</geoidheight><course>315.8</course><type>1</type></trkpt>
      <trkpt lat="39.25180856" lon="-6.15217258"><ele>1368</ele><speed>13.00</speed><time>2016-06-21T13:59:41Z</time><pdop>4.0</pdop><geoidheight>53.00</geoidheight><course>327.4</course><type>1</type></trkpt>
      <trkpt lat="39.25191693" lon="-6.15221111"><ele>1369</ele><speed>12.00</speed><time>2016-06-21T13:59:42Z</time><pdop>3.0</pdop><geoidheight>53.00</geoidheight><course>341.8</course><type>1</type></trkpt>
      <trkpt lat="39.25201138" lon="-6.15220962"><ele>1369</ele><speed>10.50</speed><time>2016-06-21T13:59:43Z</time><pdop>3.0</pdop><geoidheight>53.00</geoidheight><course>358.3</course><type>1</type></trkpt>
      <trkpt lat="39.25208919" lon="-6.15217774"><ele>1370</ele><speed>9.00</speed><time>2016-06-21T13:59:44Z</time><pdop>4.0</pdop><geoidheight>53.00</geoidheight><course>15.3</course><type>1</type></trkpt>
      <trkpt lat="39.25213994" lon="-6.15212772"><ele>1371</ele><speed>7.50</speed><time>2016-06-21T13:59:45Z</time><pdop>3.0</pdop><geoidheight>53.00</geoidheight><course>33.0</course><type>1</type></trkpt>
      <trkpt lat="39.25217128" lon="-6.15207059"><ele>1371</ele><speed>6.25</speed><time>2016-06-21T13:59:46Z</time><pdop>3.0</pdop><geoidheight>53.00</geoidheight><course>50.5</course><type>1</type></trkpt>
      <trkpt lat="39.25216464" lon="-6.15195346"><ele>1371</ele><speed>5.00</speed><time>2016-06-21T13:59:48Z</time><pdop>3.0</pdop><geoidheight>53.00</geoidheight><course>101.5</course><type>1</type></trkpt>
      <trkpt lat="39.25202642" lon="-6.15187266"><ele>1372</ele><speed>6.75</speed><time>2016-06-21T13:59:51Z</time><pdop>4.0</pdop><geoidheight>53.00</geoidheight><course>172.1</course><type>1</type></trkpt>
      <trkpt lat="39.25189675" lon="-6.1519244"><ele>1374</ele><speed>7.50</speed><time>2016-06-21T13:59:53Z</time><pdop>3.0</pdop><geoidheight>53.00</geoidheight><course>198.3</course><type>1</type></trkpt>
      <trkpt lat="39.25183768" lon="-6.15195106"><ele>1375</ele><speed>7.00</speed><time>2016-06-21T13:59:54Z</time><pdop>3.0</pdop><geoidheight>53.00</geoidheight><course>200.1</course><type>1</type></trkpt>
      <trkpt lat="39.25178046" lon="-6.15197105"><ele>1376</ele><speed>6.50</speed><time>2016-06-21T13:59:55Z</time><pdop>3.0</pdop><geoidheight>53.00</geoidheight><course>196.2</course><type>1</type></trkpt>
      <trkpt lat="39.25172127" lon="-6.15199244"><ele>1376</ele><speed>6.75</speed><time>2016-06-21T13:59:56Z</time><pdop>3.0</pdop><geoidheight>53.00</geoidheight><course>193.7</course><type>1</type></trkpt>
      <trkpt lat="39.25165791" lon="-6.1520191"><ele>1375</ele><speed>7.25</speed><time>2016-06-21T13:59:57Z</time><pdop>4.0</pdop><geoidheight>53.00</geoidheight><course>195.3</course><type>1</type></trkpt>
      <trkpt lat="39.25155383" lon="-6.15213106"><ele>1375</ele><speed>8.00</speed><time>2016-06-21T13:59:59Z</time><pdop>3.0</pdop><geoidheight>53.00</geoidheight><course>225.8</course><type>1</type></trkpt>
      <trkpt lat="39.25152875" lon="-6.1522313"><ele>1375</ele><speed>9.25</speed><time>2016-06-21T14:00:00Z</time><pdop>3.0</pdop><geoidheight>53.00</geoidheight><course>249.9</course><type>1</type></trkpt>
      <trkpt lat="39.25152318" lon="-6.15237643"><ele>1375</ele><speed>12.25</speed><time>2016-06-21T14:00:01Z</time><pdop>3.0</pdop><geoidheight>53.00</geoidheight><course>266.3</course><type>1</type></trkpt>
      <trkpt lat="39.25153385" lon="-6.15254"><ele>1376</ele><speed>14.00</speed><time>2016-06-21T14:00:02Z</time><pdop>4.0</pdop><geoidheight>53.00</geoidheight><course>275.3</course><type>1</type></trkpt>
      <trkpt lat="39.25156142" lon="-6.15270411"><ele>1378</ele><speed>14.00</speed><time>2016-06-21T14:00:03Z</time><pdop>3.0</pdop><geoidheight>53.00</geoidheight><course>282.1</course><type>1</type></trkpt>
      <trkpt lat="39.25159238" lon="-6.15285451"><ele>1380</ele><speed>13.25</speed><time>2016-06-21T14:00:04Z</time><pdop>3.0</pdop><geoidheight>53.00</geoidheight><course>285.6</course><type>1</type></trkpt>
      <trkpt lat="39.25162262" lon="-6.15299433"><ele>1381</ele><speed>12.75</speed><time>2016-06-21T14:00:05Z</time><pdop>3.0</pdop><geoidheight>53.00</geoidheight><course>285.6</course><type>1</type></trkpt>
      <trkpt lat="39.25165221" lon="-6.15313468"><ele>1382</ele><speed>12.75</speed><time>2016-06-21T14:00:06Z</time><pdop>3.0</pdop><geoidheight>53.00</geoidheight><course>284.5</course><type>1</type></trkpt>
      <trkpt lat="39.25169012" lon="-6.15328354"><ele>1381</ele><speed>13.50</speed><time>2016-06-21T14:00:07Z</time><pdop>3.0</pdop><geoidheight>53.00</geoidheight><course>286.2</course><type>1</type></trkpt>
      <trkpt lat="39.25173323" lon="-6.15343578"><ele>1381</ele><speed>13.75</speed><time>2016-06-21T14:00:08Z</time><pdop>4.0</pdop><geoidheight>53.00</geoidheight><course>289.0</course><type>1</type></trkpt>
      <trkpt lat="39.25183147" lon="-6.15354058"><ele>1380</ele><speed>13.75</speed><time>2016-06-21T14:00:09Z</time><pdop>3.0</pdop><geoidheight>53.00</geoidheight><course>309.9</course><type>1</type></trkpt>
      <trkpt lat="39.25192386" lon="-6.15363613"><ele>1380</ele><speed>13.25</speed><time>2016-06-21T14:00:10Z</time><pdop>4.0</pdop><geoidheight>53.00</geoidheight><course>318.1</course><type>1</type></trkpt>
      <trkpt lat="39.25204402" lon="-6.15365743"><ele>1380</ele><speed>12.50</speed><time>2016-06-21T14:00:11Z</time><pdop>3.0</pdop><geoidheight>53.00</geoidheight><course>341.6</course><type>1</type></trkpt>
      <trkpt lat="39.25213697" lon="-6.15367261"><ele>1381</ele><speed>10.50</speed><time>2016-06-21T14:00:12Z</time><pdop>3.0</pdop><geoidheight>53.00</geoidheight><course>351.6</course><type>1</type></trkpt>
      <trkpt lat="39.25221345" lon="-6.15367558"><ele>1382</ele><speed>8.50</speed><time>2016-06-21T14:00:13Z</time><pdop>3.0</pdop><geoidheight>53.00</geoidheight><course>358.0</course><type>1</type></trkpt>
      <trkpt lat="39.25227714" lon="-6.15366134"><ele>1383</ele><speed>7.75</speed><time>2016-06-21T14:00:14Z</time><pdop>3.0</pdop><geoidheight>53.00</geoidheight><course>9.5</course><type>1</type></trkpt>
      <trkpt lat="39.25234059" lon="-6.15362401"><ele>1382</ele><speed>7.75</speed><time>2016-06-21T14:00:15Z</time><pdop>3.0</pdop><geoidheight>53.00</geoidheight><course>22.6</course><type>1</type></trkpt>
      <trkpt lat="39.25239522" lon="-6.15356542"><ele>1382</ele><speed>7.75</speed><time>2016-06-21T14:00:16Z</time><pdop>3.0</pdop><geoidheight>53.00</geoidheight><course>37.6</course><type>1</type></trkpt>
      <trkpt lat="39.25242386" lon="-6.1535034"><ele>1381</ele><speed>6.50</speed><time>2016-06-21T14:00:17Z</time><pdop>3.0</pdop><geoidheight>53.00</geoidheight><course>56.2</course><type>1</type></trkpt>
      <trkpt lat="39.2524049" lon="-6.15338441"><ele>1379</ele><speed>5.50</speed><time>2016-06-21T14:00:19Z</time><pdop>3.0</pdop><geoidheight>53.00</geoidheight><course>114.5</course><type>1</type></trkpt>
      <trkpt lat="39.25230292" lon="-6.15330122"><ele>1380</ele><speed>6.75</speed><time>2016-06-21T14:00:21Z</time><pdop>4.0</pdop><geoidheight>53.00</geoidheight><course>152.7</course><type>1</type></trkpt>
      <trkpt lat="39.25219285" lon="-6.15326844"><ele>1382</ele><speed>6.00</speed><time>2016-06-21T14:00:23Z</time><pdop>4.0</pdop><geoidheight>53.00</geoidheight><course>165.0</course><type>1</type></trkpt>
      <trkpt lat="39.25210449" lon="-6.15321287"><ele>1382</ele><speed>5.50</speed><time>2016-06-21T14:00:25Z</time><pdop>4.0</pdop><geoidheight>53.00</geoidheight><course>150.8</course><type>1</type></trkpt>
      <trkpt lat="39.25202667" lon="-6.1531383"><ele>1382</ele><speed>5.25</speed><time>2016-06-21T14:00:27Z</time><pdop>3.0</pdop><geoidheight>53.00</geoidheight><course>137.7</course><type>1</type></trkpt>
      <trkpt lat="39.2519575" lon="-6.15306847"><ele>1383</ele><speed>5.00</speed><time>2016-06-21T14:00:29Z</time><pdop>3.0</pdop><geoidheight>53.00</geoidheight><course>147.4</course><type>1</type></trkpt>
      <trkpt lat="39.25188568" lon="-6.15300508"><ele>1382</ele><speed>4.75</speed><time>2016-06-21T14:00:31Z</time><pdop>3.0</pdop><geoidheight>53.00</geoidheight><course>146.6</course><type>1</type></trkpt>
      <trkpt lat="39.2518014" lon="-6.15293964"><ele>1385</ele><speed>5.50</speed><time>2016-06-21T14:00:33Z</time><pdop>3.0</pdop><geoidheight>53.00</geoidheight><course>147.5</course><type>1</type></trkpt>
      <trkpt lat="39.25173813" lon="-6.15286144"><ele>1390</ele><speed>4.50</speed><time>2016-06-21T14:00:35Z</time><pdop>3.0</pdop><geoidheight>53.00</geoidheight><course>125.2</course><type>1</type></trkpt>
      <trkpt lat="39.25172933" lon="-6.15271228"><ele>1390</ele><speed>4.75</speed><time>2016-06-21T14:00:38Z</time><pdop>3.0</pdop><geoidheight>53.00</geoidheight><course>88.6</course><type>1</type></trkpt>
      <trkpt lat="39.25168451" lon="-6.15262039"><ele>1389</ele><speed>4.50</speed><time>2016-06-21T14:00:40Z</time><pdop>4.0</pdop><geoidheight>53.00</geoidheight><course>125.3</course><type>1</type></trkpt>
      <trkpt lat="39.2515356" lon="-6.15266475"><ele>1387</ele><speed>8.50</speed><time>2016-06-21T14:00:42Z</time><pdop>3.0</pdop><geoidheight>53.00</geoidheight><course>199.2</course><type>1</type></trkpt>
      <trkpt lat="39.25146945" lon="-6.1527415"><ele>1385</ele><speed>9.50</speed><time>2016-06-21T14:00:43Z</time><pdop>4.0</pdop><geoidheight>53.00</geoidheight><course>221.5</course><type>1</type></trkpt>
      <trkpt lat="39.25141543" lon="-6.15285604"><ele>1385</ele><speed>11.25</speed><time>2016-06-21T14:00:44Z</time><pdop>4.0</pdop><geoidheight>53.00</geoidheight><course>236.3</course><type>1</type></trkpt>
      <trkpt lat="39.25142349" lon="-6.15302064"><ele>1384</ele><speed>13.25</speed><time>2016-06-21T14:00:45Z</time><pdop>4.0</pdop><geoidheight>53.00</geoidheight><course>266.2</course><type>1</type></trkpt>
      <trkpt lat="39.25154448" lon="-6.15329716"><ele>1383</ele><speed>13.75</speed><time>2016-06-21T14:00:47Z</time><pdop>3.0</pdop><geoidheight>53.00</geoidheight><course>306.0</course><type>1</type></trkpt>
      <trkpt lat="39.25163773" lon="-6.15340233"><ele>1382</ele><speed>13.25</speed><time>2016-06-21T14:00:48Z</time><pdop>3.0</pdop><geoidheight>53.00</geoidheight><course>317.8</course><type>1</type></trkpt>
      <trkpt lat="39.2517276" lon="-6.15348508"><ele>1382</ele><speed>12.50</speed><time>2016-06-21T14:00:49Z</time><pdop>3.0</pdop><geoidheight>53.00</geoidheight><course>324.7</course><type>1</type></trkpt>
      <trkpt lat="39.25182213" lon="-6.15355581"><ele>1382</ele><speed>12.50</speed><time>2016-06-21T14:00:50Z</time><pdop>3.0</pdop><geoidheight>53.00</geoidheight><course>328.2</course><type>1</type></trkpt>
      <trkpt lat="39.25192448" lon="-6.15363005"><ele>1381</ele><speed>13.00</speed><time>2016-06-21T14:00:51Z</time><pdop>3.0</pdop><geoidheight>53.00</geoidheight><course>330.0</course><type>1</type></trkpt>
      <trkpt lat="39.25203094" lon="-6.15369996"><ele>1380</ele><speed>13.25</speed><time>2016-06-21T14:00:52Z</time><pdop>4.0</pdop><geoidheight>53.00</geoidheight><course>333.5</course><type>1</type></trkpt>
      <trkpt lat="39.25214088" lon="-6.15374499"><ele>1379</ele><speed>13.00</speed><time>2016-06-21T14:00:53Z</time><pdop>3.0</pdop><geoidheight>53.00</geoidheight><course>341.5</course><type>1</type></trkpt>
      <trkpt lat="39.25225097" lon="-6.15375675"><ele>1379</ele><speed>12.25</speed><time>2016-06-21T14:00:54Z</time><pdop>3.0</pdop><geoidheight>53.00</geoidheight><course>352.1</course><type>1</type></trkpt>
      <trkpt lat="39.25235275" lon="-6.15374202"><ele>1379</ele><speed>11.50</speed><time>2016-06-21T14:00:55Z</time><pdop>4.0</pdop><geoidheight>53.00</geoidheight><course>4.5</course><type>1</type></trkpt>
      <trkpt lat="39.25243195" lon="-6.15369787"><ele>1381</ele><speed>9.50</speed><time>2016-06-21T14:00:56Z</time><pdop>3.0</pdop><geoidheight>53.00</geoidheight><course>20.8</course><type>1</type></trkpt>
      <trkpt lat="39.25248336" lon="-6.15363704"><ele>1381</ele><speed>7.75</speed><time>2016-06-21T14:00:57Z</time><pdop>4.0</pdop><geoidheight>53.00</geoidheight><course>39.9</course><type>1</type></trkpt>
      <trkpt lat="39.25249485" lon="-6.15352148"><ele>1380</ele><speed>5.25</speed><time>2016-06-21T14:00:59Z</time><pdop>3.0</pdop><geoidheight>53.00</geoidheight><course>93.0</course><type>1</type></trkpt>
      <trkpt lat="39.2524408" lon="-6.15340809"><ele>1379</ele><speed>5.75</speed><time>2016-06-21T14:01:01Z</time><pdop>3.0</pdop><geoidheight>53.00</geoidheight><course>125.4</course><type>1</type></trkpt>
      <trkpt lat="39.25237812" lon="-6.15331326"><ele>1380</ele><speed>5.25</speed><time>2016-06-21T14:01:03Z</time><pdop>3.0</pdop><geoidheight>53.00</geoidheight><course>132.4</course><type>1</type></trkpt>
      <trkpt lat="39.25231116" lon="-6.15324422"><ele>1379</ele><speed>4.75</speed><time>2016-06-21T14:01:05Z</time><pdop>3.0</pdop><geoidheight>53.00</geoidheight><course>143.8</course><type>1</type></trkpt>
      <trkpt lat="39.2522336" lon="-6.15316136"><ele>1376</ele><speed>5.75</speed><time>2016-06-21T14:01:07Z</time><pdop>3.0</pdop><geoidheight>53.00</geoidheight><course>140.3</course><type>1</type></trkpt>
      <trkpt lat="39.25218836" lon="-6.15310943"><ele>1375</ele><speed>6.75</speed><time>2016-06-21T14:01:08Z</time><pdop>3.0</pdop><geoidheight>53.00</geoidheight><course>138.1</course><type>1</type></trkpt>
      <trkpt lat="39.25209788" lon="-6.15302001"><ele>1375</ele><speed>6.00</speed><time>2016-06-21T14:01:10Z</time><pdop>4.0</pdop><geoidheight>53.00</geoidheight><course>141.8</course><type>1</type></trkpt>
      <trkpt lat="39.25203771" lon="-6.15296917"><ele>1376</ele><speed>4.25</speed><time>2016-06-21T14:01:12Z</time><pdop>4.0</pdop><geoidheight>53.00</geoidheight><course>145.6</course><type>1</type></trkpt>
      <trkpt lat="39.25196924" lon="-6.15290005"><ele>1376</ele><speed>4.75</speed><time>2016-06-21T14:01:14Z</time><pdop>4.0</pdop><geoidheight>53.00</geoidheight><course>139.9</course><type>1</type></trkpt>
      <trkpt lat="39.25186413" lon="-6.15284514"><ele>1376</ele><speed>6.50</speed><time>2016-06-21T14:01:16Z</time><pdop>4.0</pdop><geoidheight>53.00</geoidheight><course>161.8</course><type>1</type></trkpt>
      <trkpt lat="39.25174856" lon="-6.15286243"><ele>1380</ele><speed>6.50</speed><time>2016-06-21T14:01:18Z</time><pdop>3.0</pdop><geoidheight>53.00</geoidheight><course>189.7</course><type>1</type></trkpt>
      <trkpt lat="39.25169532" lon="-6.15288267"><ele>1382</ele><speed>6.25</speed><time>2016-06-21T14:01:19Z</time><pdop>3.0</pdop><geoidheight>53.00</geoidheight><course>194.6</course><type>1</type></trkpt>
      <trkpt lat="39.25163585" lon="-6.15289269"><ele>1383</ele><speed>6.25</speed><time>2016-06-21T14:01:20Z</time><pdop>3.0</pdop><geoidheight>53.00</geoidheight><course>189.9</course><type>1</type></trkpt>
      <trkpt lat="39.25157645" lon="-6.15288778"><ele>1384</ele><speed>6.25</speed><time>2016-06-21T14:01:21Z</time><pdop>3.0</pdop><geoidheight>53.00</geoidheight><course>177.8</course><type>1</type></trkpt>
      <trkpt lat="39.25148421" lon="-6.15281417"><ele>1385</ele><speed>5.50</speed><time>2016-06-21T14:01:23Z</time><pdop>3.0</pdop><geoidheight>53.00</geoidheight><course>140.4</course><type>1</type></trkpt>
      <trkpt lat="39.25144194" lon="-6.15271171"><ele>1385</ele><speed>4.75</speed><time>2016-06-21T14:01:25Z</time><pdop>3.0</pdop><geoidheight>53.00</geoidheight><course>113.4</course><type>1</type></trkpt>
      <trkpt lat="39.25136027" lon="-6.15266831"><ele>1383</ele><speed>6.00</speed><time>2016-06-21T14:01:27Z</time><pdop>4.0</pdop><geoidheight>53.00</geoidheight><course>170.3</course><type>1</type></trkpt>
      <trkpt lat="39.25128733" lon="-6.1527059"><ele>1381</ele><speed>7.75</speed><time>2016-06-21T14:01:28Z</time><pdop>4.0</pdop><geoidheight>53.00</geoidheight><course>197.7</course><type>1</type></trkpt>
      <trkpt lat="39.25122543" lon="-6.15278737"><ele>1380</ele><speed>9.50</speed><time>2016-06-21T14:01:29Z</time><pdop>4.0</pdop><geoidheight>53.00</geoidheight><course>221.2</course><type>1</type></trkpt>
      <trkpt lat="39.25118412" lon="-6.15289867"><ele>1380</ele><speed>10.75</speed><time>2016-06-21T14:01:30Z</time><pdop>4.0</pdop><geoidheight>53.00</geoidheight><course>242.9</course><type>1</type></trkpt>
      <trkpt lat="39.25118452" lon="-6.15303142"><ele>1380</ele><speed>11.50</speed><time>2016-06-21T14:01:31Z</time><pdop>3.0</pdop><geoidheight>53.00</geoidheight><course>266.4</course><type>1</type></trkpt>
      <trkpt lat="39.25122169" lon="-6.15316665"><ele>1380</ele><speed>12.00</speed><time>2016-06-21T14:01:32Z</time><pdop>3.0</pdop><geoidheight>53.00</geoidheight><course>287.5</course><type>1</type></trkpt>
      <trkpt lat="39.25129183" lon="-6.15328291"><ele>1380</ele><speed>12.50</speed><time>2016-06-21T14:01:33Z</time><pdop>3.0</pdop><geoidheight>53.00</geoidheight><course>305.6</course><type>1</type></trkpt>
      <trkpt lat="39.25137849" lon="-6.15337304"><ele>1380</ele><speed>12.50</speed><time>2016-06-21T14:01:34Z</time><pdop>4.0</pdop><geoidheight>53.00</geoidheight><course>320.0</course><type>1</type></trkpt>
      <trkpt lat="39.25147914" lon="-6.15343243"><ele>1381</ele><speed>12.25</speed><time>2016-06-21T14:01:35Z</time><pdop>4.0</pdop><geoidheight>53.00</geoidheight><course>333.8</course><type>1</type></trkpt>
      <trkpt lat="39.25157773" lon="-6.1534606"><ele>1382</ele><speed>11.50</speed><time>2016-06-21T14:01:36Z</time><pdop>3.0</pdop><geoidheight>53.00</geoidheight><course>344.8</course><type>1</type></trkpt>
      <trkpt lat="39.25167615" lon="-6.15347052"><ele>1385</ele><speed>11.00</speed><time>2016-06-21T14:01:37Z</time><pdop>3.0</pdop><geoidheight>53.00</geoidheight><course>354.0</course><type>1</type></trkpt>
      <trkpt lat="39.25176736" lon="-6.15347593"><ele>1387</ele><speed>10.25</speed><time>2016-06-21T14:01:38Z</time><pdop>3.0</pdop><geoidheight>53.00</geoidheight><course>359.2</course><type>1</type></trkpt>
      <trkpt lat="39.2518528" lon="-6.15346994"><ele>1388</ele><speed>9.75</speed><time>2016-06-21T14:01:39Z</time><pdop>3.0</pdop><geoidheight>53.00</geoidheight><course>1.2</course><type>1</type></trkpt>
      <trkpt lat="39.25193743" lon="-6.15347303"><ele>1389</ele><speed>9.50</speed><time>2016-06-21T14:01:40Z</time><pdop>4.0</pdop><geoidheight>53.00</geoidheight><course>0.4</course><type>1</type></trkpt>
      <trkpt lat="39.25201203" lon="-6.15346452"><ele>1389</ele><speed>8.50</speed><time>2016-06-21T14:01:41Z</time><pdop>4.0</pdop><geoidheight>53.00</geoidheight><course>4.8</course><type>1</type></trkpt>
      <trkpt lat="39.25209296" lon="-6.15341117"><ele>1393</ele><speed>8.75</speed><time>2016-06-21T14:01:42Z</time><pdop>3.0</pdop><geoidheight>53.00</geoidheight><course>24.5</course><type>1</type></trkpt>
      <trkpt lat="39.25214197" lon="-6.15334719"><ele>1394</ele><speed>7.75</speed><time>2016-06-21T14:01:43Z</time><pdop>3.0</pdop><geoidheight>53.00</geoidheight><course>42.9</course><type>1</type></trkpt>
      <trkpt lat="39.25217281" lon="-6.15321468"><ele>1395</ele><speed>5.75</speed><time>2016-06-21T14:01:45Z</time><pdop>3.0</pdop><geoidheight>53.00</geoidheight><course>79.3</course><type>1</type></trkpt>
      <trkpt lat="39.25213659" lon="-6.15310589"><ele>1396</ele><speed>5.00</speed><time>2016-06-21T14:01:47Z</time><pdop>4.0</pdop><geoidheight>53.00</geoidheight><course>113.9</course><type>1</type></trkpt>
      <trkpt lat="39.25199765" lon="-6.15316785"><ele>1396</ele><speed>8.00</speed><time>2016-06-21T14:01:49Z</time><pdop>4.0</pdop><geoidheight>53.00</geoidheight><course>203.2</course><type>1</type></trkpt>
      <trkpt lat="39.25194324" lon="-6.15325654"><ele>1396</ele><speed>9.50</speed><time>2016-06-21T14:01:50Z</time><pdop>4.0</pdop><geoidheight>53.00</geoidheight><course>228.9</course><type>1</type></trkpt>
      <trkpt lat="39.25191622" lon="-6.15337818"><ele>1397</ele><speed>11.00</speed><time>2016-06-21T14:01:51Z</time><pdop>3.0</pdop><geoidheight>53.00</geoidheight><course>251.3</course><type>1</type></trkpt>
      <trkpt lat="39.25192116" lon="-6.15351467"><ele>1399</ele><speed>11.75</speed><time>2016-06-21T14:01:52Z</time><pdop>3.0</pdop><geoidheight>53.00</geoidheight><course>270.7</course><type>1</type></trkpt>
      <trkpt lat="39.25196014" lon="-6.15363186"><ele>1401</ele><speed>11.75</speed><time>2016-06-21T14:01:53Z</time><pdop>3.0</pdop><geoidheight>53.00</geoidheight><course>291.7</course><type>1</type></trkpt>
      <trkpt lat="39.25203109" lon="-6.15372326"><ele>1403</ele><speed>11.25</speed><time>2016-06-21T14:01:54Z</time><pdop>3.0</pdop><geoidheight>53.00</geoidheight><course>311.2</course><type>1</type></trkpt>
      <trkpt lat="39.2521096" lon="-6.15379224"><ele>1404</ele><speed>10.75</speed><time>2016-06-21T14:01:55Z</time><pdop>3.0</pdop><geoidheight>53.00</geoidheight><course>325.1</course><type>1</type></trkpt>
      <trkpt lat="39.25219712" lon="-6.15383881"><ele>1406</ele><speed>10.50</speed><time>2016-06-21T14:01:56Z</time><pdop>3.0</pdop><geoidheight>53.00</geoidheight><course>336.2</course><type>1</type></trkpt>
      <trkpt lat="39.25228272" lon="-6.15385528"><ele>1408</ele><speed>10.00</speed><time>2016-06-21T14:01:57Z</time><pdop>3.0</pdop><geoidheight>53.00</geoidheight><course>349.1</course><type>1</type></trkpt>
      <trkpt lat="39.25236353" lon="-6.15383766"><ele>1409</ele><speed>9.00</speed><time>2016-06-21T14:01:58Z</time><pdop>3.0</pdop><geoidheight>53.00</geoidheight><course>7.0</course><type>1</type></trkpt>
      <trkpt lat="39.25242713" lon="-6.15379069"><ele>1410</ele><speed>8.25</speed><time>2016-06-21T14:01:59Z</time><pdop>3.0</pdop><geoidheight>53.00</geoidheight><course>28.5</course><type>1</type></trkpt>
      <trkpt lat="39.25247241" lon="-6.15372098"><ele>1411</ele><speed>8.00</speed><time>2016-06-21T14:02:00Z</time><pdop>3.0</pdop><geoidheight>53.00</geoidheight><course>48.4</course><type>1</type></trkpt>
      <trkpt lat="39.252494659999996" lon="-6.15364185"><ele>1413</ele><speed>7.25</speed><time>2016-06-21T14:02:01Z</time><pdop>3.0</pdop><geoidheight>53.00</geoidheight><course>67.5</course><type>1</type></trkpt>
      <trkpt lat="39.25249122" lon="-6.15356947"><ele>1414</ele><speed>6.25</speed><time>2016-06-21T14:02:02Z</time><pdop>3.0</pdop><geoidheight>53.00</geoidheight><course>90.3</course><type>1</type></trkpt>
      <trkpt lat="39.25243255" lon="-6.15347045"><ele>1417</ele><speed>5.00</speed><time>2016-06-21T14:02:04Z</time><pdop>4.0</pdop><geoidheight>53.00</geoidheight><course>133.0</course><type>1</type></trkpt>
      <trkpt lat="39.25231101" lon="-6.15350737"><ele>1418</ele><speed>6.25</speed><time>2016-06-21T14:02:06Z</time><pdop>4.0</pdop><geoidheight>53.00</geoidheight><course>198.2</course><type>1</type></trkpt>
      <trkpt lat="39.25222312" lon="-6.15361927"><ele>1418</ele><speed>7.50</speed><time>2016-06-21T14:02:08Z</time><pdop>4.0</pdop><geoidheight>53.00</geoidheight><course>226.9</course><type>1</type></trkpt>
      <trkpt lat="39.25218325" lon="-6.15372107"><ele>1418</ele><speed>9.50</speed><time>2016-06-21T14:02:09Z</time><pdop>3.0</pdop><geoidheight>53.00</geoidheight><course>241.8</course><type>1</type></trkpt>
      <trkpt lat="39.25215872" lon="-6.15385315"><ele>1418</ele><speed>11.25</speed><time>2016-06-21T14:02:10Z</time><pdop>3.0</pdop><geoidheight>53.00</geoidheight><course>257.1</course><type>1</type></trkpt>
      <trkpt lat="39.25222097" lon="-6.15412419"><ele>1419</ele><speed>12.50</speed><time>2016-06-21T14:02:12Z</time><pdop>3.0</pdop><geoidheight>53.00</geoidheight><course>293.4</course><type>1</type></trkpt>
      <trkpt lat="39.25229541" lon="-6.15423998"><ele>1420</ele><speed>12.75</speed><time>2016-06-21T14:02:13Z</time><pdop>3.0</pdop><geoidheight>53.00</geoidheight><course>307.6</course><type>1</type></trkpt>
      <trkpt lat="39.252368" lon="-6.15433609"><ele>1421</ele><speed>11.75</speed><time>2016-06-21T14:02:14Z</time><pdop>4.0</pdop><geoidheight>53.00</geoidheight><course>314.9</course><type>1</type></trkpt>
      <trkpt lat="39.2524452" lon="-6.15440109"><ele>1424</ele><speed>10.50</speed><time>2016-06-21T14:02:15Z</time><pdop>4.0</pdop><geoidheight>53.00</geoidheight><course>324.3</course><type>1</type></trkpt>
      <trkpt lat="39.25252322" lon="-6.1544574"><ele>1426</ele><speed>10.00</speed><time>2016-06-21T14:02:16Z</time><pdop>3.0</pdop><geoidheight>53.00</geoidheight><course>330.5</course><type>1</type></trkpt>
      <trkpt lat="39.25260156" lon="-6.15449525"><ele>1428</ele><speed>9.25</speed><time>2016-06-21T14:02:17Z</time><pdop>3.0</pdop><geoidheight>53.00</geoidheight><course>337.2</course><type>1</type></trkpt>
      <trkpt lat="39.25267981" lon="-6.15451463"><ele>1429</ele><speed>9.00</speed><time>2016-06-21T14:02:18Z</time><pdop>3.0</pdop><geoidheight>53.00</geoidheight><course>349.1</course><type>1</type></trkpt>
      <trkpt lat="39.25276199" lon="-6.15449598"><ele>1429</ele><speed>9.00</speed><time>2016-06-21T14:02:19Z</time><pdop>3.0</pdop><geoidheight>53.00</geoidheight><course>5.5</course><type>1</type></trkpt>
      <trkpt lat="39.25283861" lon="-6.15445424"><ele>1430</ele><speed>9.25</speed><time>2016-06-21T14:02:20Z</time><pdop>3.0</pdop><geoidheight>53.00</geoidheight><course>22.1</course><type>1</type></trkpt>
      <trkpt lat="39.25289998" lon="-6.15438632"><ele>1431</ele><speed>8.75</speed><time>2016-06-21T14:02:21Z</time><pdop>3.0</pdop><geoidheight>53.00</geoidheight><course>38.9</course><type>1</type></trkpt>
      <trkpt lat="39.25292804" lon="-6.1543034"><ele>1432</ele><speed>7.75</speed><time>2016-06-21T14:02:22Z</time><pdop>3.0</pdop><geoidheight>53.00</geoidheight><course>63.0</course><type>1</type></trkpt>
      <trkpt lat="39.25292621" lon="-6.15421489"><ele>1432</ele><speed>7.50</speed><time>2016-06-21T14:02:23Z</time><pdop>3.0</pdop><geoidheight>53.00</geoidheight><course>90.4</course><type>1</type></trkpt>
      <trkpt lat="39.25289318" lon="-6.15414177"><ele>1433</ele><speed>7.25</speed><time>2016-06-21T14:02:24Z</time><pdop>3.0</pdop><geoidheight>53.00</geoidheight><course>116.9</course><type>1</type></trkpt>
      <trkpt lat="39.25278548" lon="-6.15406627"><ele>1436</ele><speed>6.75</speed><time>2016-06-21T14:02:26Z</time><pdop>3.0</pdop><geoidheight>53.00</geoidheight><course>157.8</course><type>1</type></trkpt>
      <trkpt lat="39.25268728" lon="-6.15404788"><ele>1440</ele><speed>5.75</speed><time>2016-06-21T14:02:28Z</time><pdop>3.0</pdop><geoidheight>53.00</geoidheight><course>174.2</course><type>1</type></trkpt>
      <trkpt lat="39.25257821" lon="-6.15409222"><ele>1442</ele><speed>6.50</speed><time>2016-06-21T14:02:30Z</time><pdop>4.0</pdop><geoidheight>53.00</geoidheight><course>202.4</course><type>1</type></trkpt>
      <trkpt lat="39.25251997" lon="-6.15415218"><ele>1442</ele><speed>8.00</speed><time>2016-06-21T14:02:31Z</time><pdop>3.0</pdop><geoidheight>53.00</geoidheight><course>217.4</course><type>1</type></trkpt>
      <trkpt lat="39.2524624" lon="-6.15423707"><ele>1443</ele><speed>9.75</speed><time>2016-06-21T14:02:32Z</time><pdop>3.0</pdop><geoidheight>53.00</geoidheight><course>226.9</course><type>1</type></trkpt>
      <trkpt lat="39.25241416" lon="-6.15435029"><ele>1445</ele><speed>11.00</speed><time>2016-06-21T14:02:33Z</time><pdop>3.0</pdop><geoidheight>53.00</geoidheight><course>239.3</course><type>1</type></trkpt>
      <trkpt lat="39.2523949" lon="-6.15448253"><ele>1448</ele><speed>11.75</speed><time>2016-06-21T14:02:34Z</time><pdop>3.0</pdop><geoidheight>53.00</geoidheight><course>257.4</course><type>1</type></trkpt>
      <trkpt lat="39.25246523" lon="-6.15473954"><ele>1449</ele><speed>12.00</speed><time>2016-06-21T14:02:36Z</time><pdop>3.0</pdop><geoidheight>53.00</geoidheight><course>296.8</course><type>1</type></trkpt>
      <trkpt lat="39.25254338" lon="-6.15484335"><ele>1450</ele><speed>12.50</speed><time>2016-06-21T14:02:37Z</time><pdop>3.0</pdop><geoidheight>53.00</geoidheight><course>311.9</course><type>1</type></trkpt>
      <trkpt lat="39.25262905" lon="-6.1549333"><ele>1451</ele><speed>12.25</speed><time>2016-06-21T14:02:38Z</time><pdop>4.0</pdop><geoidheight>53.00</geoidheight><course>320.0</course><type>1</type></trkpt>
      <trkpt lat="39.25271875" lon="-6.15499906"><ele>1453</ele><speed>11.50</speed><time>2016-06-21T14:02:39Z</time><pdop>3.0</pdop><geoidheight>53.00</geoidheight><course>327.6</course><type>1</type></trkpt>
      <trkpt lat="39.25280002" lon="-6.15504672"><ele>1456</ele><speed>10.25</speed><time>2016-06-21T14:02:40Z</time><pdop>3.0</pdop><geoidheight>53.00</geoidheight><course>333.9</course><type>1</type></trkpt>
      <trkpt lat="39.25287927" lon="-6.15508105"><ele>1458</ele><speed>9.25</speed><time>2016-06-21T14:02:41Z</time><pdop>4.0</pdop><geoidheight>53.00</geoidheight><course>339.0</course><type>1</type></trkpt>
      <trkpt lat="39.25295613" lon="-6.15510483"><ele>1460</ele><speed>8.75</speed><time>2016-06-21T14:02:42Z</time><pdop>3.0</pdop><geoidheight>53.00</geoidheight><course>345.5</course><type>1</type></trkpt>
      <trkpt lat="39.25303242" lon="-6.15511262"><ele>1461</ele><speed>8.50</speed><time>2016-06-21T14:02:43Z</time><pdop>3.0</pdop><geoidheight>53.00</geoidheight><course>355.5</course><type>1</type></trkpt>
      <trkpt lat="39.25310492" lon="-6.15509608"><ele>1463</ele><speed>8.00</speed><time>2016-06-21T14:02:44Z</time><pdop>3.0</pdop><geoidheight>53.00</geoidheight><course>9.4</course><type>1</type></trkpt>
      <trkpt lat="39.2531636" lon="-6.15505189"><ele>1463</ele><speed>7.50</speed><time>2016-06-21T14:02:45Z</time><pdop>3.0</pdop><geoidheight>53.00</geoidheight><course>28.9</course><type>1</type></trkpt>
      <trkpt lat="39.25319815" lon="-6.15498314"><ele>1464</ele><speed>7.50</speed><time>2016-06-21T14:02:46Z</time><pdop>3.0</pdop><geoidheight>53.00</geoidheight><course>55.0</course><type>1</type></trkpt>
      <trkpt lat="39.25319609" lon="-6.15490141"><ele>1465</ele><speed>7.00</speed><time>2016-06-21T14:02:47Z</time><pdop>3.0</pdop><geoidheight>53.00</geoidheight><course>87.7</course><type>1</type></trkpt>
      <trkpt lat="39.25308447" lon="-6.1548199"><ele>1464</ele><speed>8.00</speed><time>2016-06-21T14:02:49Z</time><pdop>3.0</pdop><geoidheight>53.00</geoidheight><course>162.4</course><type>1</type></trkpt>
      <trkpt lat="39.25300459" lon="-6.15482913"><ele>1465</ele><speed>9.00</speed><time>2016-06-21T14:02:50Z</time><pdop>4.0</pdop><geoidheight>53.00</geoidheight><course>184.7</course><type>1</type></trkpt>
      <trkpt lat="39.25292349" lon="-6.15488403"><ele>1465</ele><speed>10.00</speed><time>2016-06-21T14:02:51Z</time><pdop>4.0</pdop><geoidheight>53.00</geoidheight><course>205.0</course><type>1</type></trkpt>
      <trkpt lat="39.25285832" lon="-6.15497757"><ele>1466</ele><speed>10.75</speed><time>2016-06-21T14:02:52Z</time><pdop>4.0</pdop><geoidheight>53.00</geoidheight><course>224.2</course><type>1</type></trkpt>
      <trkpt lat="39.25281248" lon="-6.15509204"><ele>1468</ele><speed>11.25</speed><time>2016-06-21T14:02:53Z</time><pdop>3.0</pdop><geoidheight>53.00</geoidheight><course>240.4</course><type>1</type></trkpt>
      <trkpt lat="39.25278332" lon="-6.15521978"><ele>1470</ele><speed>11.50</speed><time>2016-06-21T14:02:54Z</time><pdop>3.0</pdop><geoidheight>53.00</geoidheight><course>252.4</course><type>1</type></trkpt>
      <trkpt lat="39.25277824" lon="-6.15534023"><ele>1473</ele><speed>10.50</speed><time>2016-06-21T14:02:55Z</time><pdop>3.0</pdop><geoidheight>53.00</geoidheight><course>264.7</course><type>1</type></trkpt>
      <trkpt lat="39.25279708" lon="-6.15545119"><ele>1475</ele><speed>10.00</speed><time>2016-06-21T14:02:56Z</time><pdop>3.0</pdop><geoidheight>53.00</geoidheight><course>280.2</course><type>1</type></trkpt>
      <trkpt lat="39.25282991" lon="-6.15556269"><ele>1476</ele><speed>10.25</speed><time>2016-06-21T14:02:57Z</time><pdop>4.0</pdop><geoidheight>53.00</geoidheight><course>289.6</course><type>1</type></trkpt>
      <trkpt lat="39.25287924" lon="-6.15566144"><ele>1476</ele><speed>10.50</speed><time>2016-06-21T14:02:58Z</time><pdop>3.0</pdop><geoidheight>53.00</geoidheight><course>301.3</course><type>1</type></trkpt>
      <trkpt lat="39.25294631" lon="-6.15574992"><ele>1476</ele><speed>10.50</speed><time>2016-06-21T14:02:59Z</time><pdop>3.0</pdop><geoidheight>53.00</geoidheight><course>313.3</course><type>1</type></trkpt>
      <trkpt lat="39.25303213" lon="-6.15580177"><ele>1476</ele><speed>10.25</speed><time>2016-06-21T14:03:00Z</time><pdop>3.0</pdop><geoidheight>53.00</geoidheight><course>331.4</course><type>1</type></trkpt>
      <trkpt lat="39.25312374" lon="-6.15581823"><ele>1477</ele><speed>10.00</speed><time>2016-06-21T14:03:01Z</time><pdop>3.0</pdop><geoidheight>53.00</geoidheight><course>349.7</course><type>1</type></trkpt>
      <trkpt lat="39.25320854" lon="-6.1558051"><ele>1478</ele><speed>9.25</speed><time>2016-06-21T14:03:02Z</time><pdop>4.0</pdop><geoidheight>53.00</geoidheight><course>6.4</course><type>1</type></trkpt>
      <trkpt lat="39.25327206" lon="-6.15576413"><ele>1478</ele><speed>8.00</speed><time>2016-06-21T14:03:03Z</time><pdop>3.0</pdop><geoidheight>53.00</geoidheight><course>22.0</course><type>1</type></trkpt>
      <trkpt lat="39.25332093" lon="-6.15571875"><ele>1480</ele><speed>6.75</speed><time>2016-06-21T14:03:04Z</time><pdop>3.0</pdop><geoidheight>53.00</geoidheight><course>34.9</course><type>1</type></trkpt>
      <trkpt lat="39.2533624" lon="-6.15560064"><ele>1481</ele><speed>5.50</speed><time>2016-06-21T14:03:06Z</time><pdop>3.0</pdop><geoidheight>53.00</geoidheight><course>73.5</course><type>1</type></trkpt>
      <trkpt lat="39.25331912" lon="-6.15546457"><ele>1481</ele><speed>7.00</speed><time>2016-06-21T14:03:08Z</time><pdop>3.0</pdop><geoidheight>53.00</geoidheight><course>120.9</course><type>1</type></trkpt>
      <trkpt lat="39.25326264" lon="-6.15540761"><ele>1482</ele><speed>7.75</speed><time>2016-06-21T14:03:09Z</time><pdop>3.0</pdop><geoidheight>53.00</geoidheight><course>140.7</course><type>1</type></trkpt>
      <trkpt lat="39.25319187" lon="-6.15538687"><ele>1483</ele><speed>8.00</speed><time>2016-06-21T14:03:10Z</time><pdop>3.0</pdop><geoidheight>53.00</geoidheight><course>165.5</course><type>1</type></trkpt>
      <trkpt lat="39.25311679" lon="-6.15540958"><ele>1484</ele><speed>8.50</speed><time>2016-06-21T14:03:11Z</time><pdop>4.0</pdop><geoidheight>53.00</geoidheight><course>192.2</course><type>1</type></trkpt>
      <trkpt lat="39.2530398" lon="-6.15548314"><ele>1485</ele><speed>10.25</speed><time>2016-06-21T14:03:12Z</time><pdop>3.0</pdop><geoidheight>53.00</geoidheight><course>213.8</course><type>1</type></trkpt>
      <trkpt lat="39.25297165" lon="-6.15557583"><ele>1486</ele><speed>11.25</speed><time>2016-06-21T14:03:13Z</time><pdop>3.0</pdop><geoidheight>53.00</geoidheight><course>223.5</course><type>1</type></trkpt>
      <trkpt lat="39.25291051" lon="-6.1556751"><ele>1488</ele><speed>10.75</speed><time>2016-06-21T14:03:14Z</time><pdop>3.0</pdop><geoidheight>53.00</geoidheight><course>229.1</course><type>1</type></trkpt>
      <trkpt lat="39.25286194" lon="-6.15576703"><ele>1491</ele><speed>9.75</speed><time>2016-06-21T14:03:15Z</time><pdop>3.0</pdop><geoidheight>53.00</geoidheight><course>236.6</course><type>1</type></trkpt>
      <trkpt lat="39.25283298" lon="-6.15586755"><ele>1492</ele><speed>9.25</speed><time>2016-06-21T14:03:16Z</time><pdop>3.0</pdop><geoidheight>53.00</geoidheight><course>248.9</course><type>1</type></trkpt>
      <trkpt lat="39.25282489" lon="-6.15597949"><ele>1493</ele><speed>9.50</speed><time>2016-06-21T14:03:17Z</time><pdop>3.0</pdop><geoidheight>53.00</geoidheight><course>262.3</course><type>1</type></trkpt>
      <trkpt lat="39.25283296" lon="-6.15610104"><ele>1492</ele><speed>10.50</speed><time>2016-06-21T14:03:18Z</time><pdop>4.0</pdop><geoidheight>53.00</geoidheight><course>273.8</course><type>1</type></trkpt>
      <trkpt lat="39.25287008" lon="-6.15623032"><ele>1492</ele><speed>11.50</speed><time>2016-06-21T14:03:19Z</time><pdop>4.0</pdop><geoidheight>53.00</geoidheight><course>286.7</course><type>1</type></trkpt>
      <trkpt lat="39.25293629" lon="-6.15633845"><ele>1492</ele><speed>11.50</speed><time>2016-06-21T14:03:20Z</time><pdop>3.0</pdop><geoidheight>53.00</geoidheight><course>304.8</course><type>1</type></trkpt>
      <trkpt lat="39.2530214" lon="-6.15641113"><ele>1492</ele><speed>11.25</speed><time>2016-06-21T14:03:21Z</time><pdop>3.0</pdop><geoidheight>53.00</geoidheight><course>324.0</course><type>1</type></trkpt>
      <trkpt lat="39.25311287" lon="-6.15644851"><ele>1492</ele><speed>10.50</speed><time>2016-06-21T14:03:22Z</time><pdop>3.0</pdop><geoidheight>53.00</geoidheight><course>340.6</course><type>1</type></trkpt>
      <trkpt lat="39.25319772" lon="-6.15646044"><ele>1493</ele><speed>9.50</speed><time>2016-06-21T14:03:23Z</time><pdop>3.0</pdop><geoidheight>53.00</geoidheight><course>352.4</course><type>1</type></trkpt>
      <trkpt lat="39.25327339" lon="-6.15646341"><ele>1495</ele><speed>8.75</speed><time>2016-06-21T14:03:24Z</time><pdop>3.0</pdop><geoidheight>53.00</geoidheight><course>359.3</course><type>1</type></trkpt>
      <trkpt lat="39.25334685" lon="-6.15645526"><ele>1496</ele><speed>8.25</speed><time>2016-06-21T14:03:25Z</time><pdop>4.0</pdop><geoidheight>53.00</geoidheight><course>4.7</course><type>1</type></trkpt>
      <trkpt lat="39.25346509" lon="-6.15640501"><ele>1497</ele><speed>6.75</speed><time>2016-06-21T14:03:27Z</time><pdop>3.0</pdop><geoidheight>53.00</geoidheight><course>25.2</course><type>1</type></trkpt>
      <trkpt lat="39.2534965" lon="-6.15634784"><ele>1497</ele><speed>6.00</speed><time>2016-06-21T14:03:28Z</time><pdop>3.0</pdop><geoidheight>53.00</geoidheight><course>49.8</course><type>1</type></trkpt>
      <trkpt lat="39.253452" lon="-6.15623317"><ele>1497</ele><speed>6.50</speed><time>2016-06-21T14:03:30Z</time><pdop>3.0</pdop><geoidheight>53.00</geoidheight><course>132.4</course><type>1</type></trkpt>
      <trkpt lat="39.25340204" lon="-6.15618024"><ele>1497</ele><speed>7.00</speed><time>2016-06-21T14:03:31Z</time><pdop>4.0</pdop><geoidheight>53.00</geoidheight><course>138.6</course><type>1</type></trkpt>
      <trkpt lat="39.25326247" lon="-6.15619105"><ele>1500</ele><speed>7.50</speed><time>2016-06-21T14:03:33Z</time><pdop>3.0</pdop><geoidheight>53.00</geoidheight><course>182.4</course><type>1</type></trkpt>
      <trkpt lat="39.2531935" lon="-6.15621206"><ele>1501</ele><speed>7.50</speed><time>2016-06-21T14:03:34Z</time><pdop>4.0</pdop><geoidheight>53.00</geoidheight><course>192.5</course><type>1</type></trkpt>
      <trkpt lat="39.25312467" lon="-6.15624611"><ele>1503</ele><speed>8.25</speed><time>2016-06-21T14:03:35Z</time><pdop>3.0</pdop><geoidheight>53.00</geoidheight><course>202.1</course><type>1</type></trkpt>
      <trkpt lat="39.25306041" lon="-6.15630667"><ele>1503</ele><speed>9.00</speed><time>2016-06-21T14:03:36Z</time><pdop>4.0</pdop><geoidheight>53.00</geoidheight><course>212.6</course><type>1</type></trkpt>
      <trkpt lat="39.25300352" lon="-6.15639791"><ele>1503</ele><speed>10.00</speed><time>2016-06-21T14:03:37Z</time><pdop>3.0</pdop><geoidheight>53.00</geoidheight><course>229.3</course><type>1</type></trkpt>
      <trkpt lat="39.25296283" lon="-6.15651916"><ele>1504</ele><speed>11.25</speed><time>2016-06-21T14:03:38Z</time><pdop>3.0</pdop><geoidheight>53.00</geoidheight><course>245.7</course><type>1</type></trkpt>
      <trkpt lat="39.25294889" lon="-6.15665167"><ele>1505</ele><speed>11.50</speed><time>2016-06-21T14:03:39Z</time><pdop>3.0</pdop><geoidheight>53.00</geoidheight><course>261.5</course><type>1</type></trkpt>
      <trkpt lat="39.25296111" lon="-6.15677932"><ele>1507</ele><speed>11.00</speed><time>2016-06-21T14:03:40Z</time><pdop>3.0</pdop><geoidheight>53.00</geoidheight><course>276.7</course><type>1</type></trkpt>
      <trkpt lat="39.25298127" lon="-6.15690985"><ele>1507</ele><speed>11.25</speed><time>2016-06-21T14:03:41Z</time><pdop>4.0</pdop><geoidheight>53.00</geoidheight><course>280.2</course><type>1</type></trkpt>
      <trkpt lat="39.25303135" lon="-6.15701179"><ele>1508</ele><speed>10.50</speed><time>2016-06-21T14:03:42Z</time><pdop>4.0</pdop><geoidheight>53.00</geoidheight><course>294.0</course><type>1</type></trkpt>
      <trkpt lat="39.25307843" lon="-6.15711051"><ele>1508</ele><speed>10.50</speed><time>2016-06-21T14:03:43Z</time><pdop>4.0</pdop><geoidheight>53.00</geoidheight><course>299.5</course><type>1</type></trkpt>
      <trkpt lat="39.25313472" lon="-6.15718565"><ele>1508</ele><speed>10.00</speed><time>2016-06-21T14:03:44Z</time><pdop>3.0</pdop><geoidheight>53.00</geoidheight><course>309.4</course><type>1</type></trkpt>
      <trkpt lat="39.2532068" lon="-6.15725778"><ele>1507</ele><speed>10.25</speed><time>2016-06-21T14:03:45Z</time><pdop>3.0</pdop><geoidheight>53.00</geoidheight><course>320.4</course><type>1</type></trkpt>
      <trkpt lat="39.25329255" lon="-6.15731917"><ele>1506</ele><speed>10.75</speed><time>2016-06-21T14:03:46Z</time><pdop>3.0</pdop><geoidheight>53.00</geoidheight><course>332.6</course><type>1</type></trkpt>
      <trkpt lat="39.25346982" lon="-6.15736041"><ele>1507</ele><speed>9.50</speed><time>2016-06-21T14:03:48Z</time><pdop>3.0</pdop><geoidheight>53.00</geoidheight><course>355.8</course><type>1</type></trkpt>
      <trkpt lat="39.25353422" lon="-6.15734285"><ele>1508</ele><speed>7.50</speed><time>2016-06-21T14:03:49Z</time><pdop>3.0</pdop><geoidheight>53.00</geoidheight><course>10.1</course><type>1</type></trkpt>
      <trkpt lat="39.25359441" lon="-6.15726824"><ele>1507</ele><speed>4.50</speed><time>2016-06-21T14:03:51Z</time><pdop>3.0</pdop><geoidheight>53.00</geoidheight><course>49.6</course><type>1</type></trkpt>
      <trkpt lat="39.25357964" lon="-6.15714904"><ele>1504</ele><speed>5.75</speed><time>2016-06-21T14:03:53Z</time><pdop>3.0</pdop><geoidheight>53.00</geoidheight><course>107.1</course><type>1</type></trkpt>
      <trkpt lat="39.2535386" lon="-6.15708704"><ele>1503</ele><speed>6.75</speed><time>2016-06-21T14:03:54Z</time><pdop>3.0</pdop><geoidheight>53.00</geoidheight><course>128.3</course><type>1</type></trkpt>
      <trkpt lat="39.25348698" lon="-6.15702769"><ele>1502</ele><speed>7.75</speed><time>2016-06-21T14:03:55Z</time><pdop>3.0</pdop><geoidheight>53.00</geoidheight><course>138.0</course><type>1</type></trkpt>
      <trkpt lat="39.25343545" lon="-6.15697075"><ele>1503</ele><speed>7.50</speed><time>2016-06-21T14:03:56Z</time><pdop>3.0</pdop><geoidheight>53.00</geoidheight><course>139.5</course><type>1</type></trkpt>
      <trkpt lat="39.25339254" lon="-6.15691912"><ele>1504</ele><speed>6.50</speed><time>2016-06-21T14:03:57Z</time><pdop>3.0</pdop><geoidheight>53.00</geoidheight><course>137.4</course><type>1</type></trkpt>
      <trkpt lat="39.25330683" lon="-6.15683636"><ele>1504</ele><speed>6.25</speed><time>2016-06-21T14:03:59Z</time><pdop>3.0</pdop><geoidheight>53.00</geoidheight><course>144.2</course><type>1</type></trkpt>
      <trkpt lat="39.25325162" lon="-6.15679928"><ele>1504</ele><speed>6.75</speed><time>2016-06-21T14:04:00Z</time><pdop>3.0</pdop><geoidheight>53.00</geoidheight><course>150.1</course><type>1</type></trkpt>
      <trkpt lat="39.25319468" lon="-6.1567637"><ele>1504</ele><speed>7.00</speed><time>2016-06-21T14:04:01Z</time><pdop>3.0</pdop><geoidheight>53.00</geoidheight><course>152.7</course><type>1</type></trkpt>
      <trkpt lat="39.25313659" lon="-6.15672559"><ele>1505</ele><speed>7.00</speed><time>2016-06-21T14:04:02Z</time><pdop>3.0</pdop><geoidheight>53.00</geoidheight><course>150.9</course><type>1</type></trkpt>
      <trkpt lat="39.25304613" lon="-6.15663816"><ele>1505</ele><speed>6.25</speed><time>2016-06-21T14:04:04Z</time><pdop>3.0</pdop><geoidheight>53.00</geoidheight><course>142.4</course><type>1</type></trkpt>
      <trkpt lat="39.25299854" lon="-6.15659382"><ele>1505</ele><speed>6.50</speed><time>2016-06-21T14:04:05Z</time><pdop>3.0</pdop><geoidheight>53.00</geoidheight><course>142.7</course><type>1</type></trkpt>
      <trkpt lat="39.25294209" lon="-6.15655082"><ele>1504</ele><speed>7.25</speed><time>2016-06-21T14:04:06Z</time><pdop>4.0</pdop><geoidheight>53.00</geoidheight><course>147.8</course><type>1</type></trkpt>
      <trkpt lat="39.25281044" lon="-6.15648369"><ele>1504</ele><speed>8.00</speed><time>2016-06-21T14:04:08Z</time><pdop>3.0</pdop><geoidheight>53.00</geoidheight><course>161.0</course><type>1</type></trkpt>
      <trkpt lat="39.25273756" lon="-6.15648293"><ele>1504</ele><speed>8.00</speed><time>2016-06-21T14:04:09Z</time><pdop>4.0</pdop><geoidheight>53.00</geoidheight><course>177.4</course><type>1</type></trkpt>
      <trkpt lat="39.25267137" lon="-6.15651829"><ele>1505</ele><speed>8.25</speed><time>2016-06-21T14:04:10Z</time><pdop>3.0</pdop><geoidheight>53.00</geoidheight><course>199.4</course><type>1</type></trkpt>
      <trkpt lat="39.25260744" lon="-6.15658684"><ele>1504</ele><speed>9.00</speed><time>2016-06-21T14:04:11Z</time><pdop>3.0</pdop><geoidheight>53.00</geoidheight><course>218.1</course><type>1</type></trkpt>
      <trkpt lat="39.25255689" lon="-6.15666589"><ele>1505</ele><speed>9.00</speed><time>2016-06-21T14:04:12Z</time><pdop>3.0</pdop><geoidheight>53.00</geoidheight><course>230.3</course><type>1</type></trkpt>
      <trkpt lat="39.25251633" lon="-6.15675145"><ele>1506</ele><speed>8.50</speed><time>2016-06-21T14:04:13Z</time><pdop>3.0</pdop><geoidheight>53.00</geoidheight><course>239.2</course><type>1</type></trkpt>
      <trkpt lat="39.25249113" lon="-6.15684382"><ele>1507</ele><speed>8.50</speed><time>2016-06-21T14:04:14Z</time><pdop>3.0</pdop><geoidheight>53.00</geoidheight><course>249.3</course><type>1</type></trkpt>
      <trkpt lat="39.25247958" lon="-6.15694643"><ele>1506</ele><speed>8.75</speed><time>2016-06-21T14:04:15Z</time><pdop>3.0</pdop><geoidheight>53.00</geoidheight><course>260.2</course><type>1</type></trkpt>
      <trkpt lat="39.25248476" lon="-6.15705578"><ele>1506</ele><speed>9.50</speed><time>2016-06-21T14:04:16Z</time><pdop>4.0</pdop><geoidheight>53.00</geoidheight><course>273.5</course><type>1</type></trkpt>
      <trkpt lat="39.25252211" lon="-6.15715415"><ele>1505</ele><speed>9.75</speed><time>2016-06-21T14:04:17Z</time><pdop>4.0</pdop><geoidheight>53.00</geoidheight><course>291.2</course><type>1</type></trkpt>
      <trkpt lat="39.25258151" lon="-6.1572351"><ele>1504</ele><speed>10.00</speed><time>2016-06-21T14:04:18Z</time><pdop>3.0</pdop><geoidheight>53.00</geoidheight><course>311.8</course><type>1</type></trkpt>
      <trkpt lat="39.25266335" lon="-6.15729103"><ele>1504</ele><speed>10.00</speed><time>2016-06-21T14:04:19Z</time><pdop>3.0</pdop><geoidheight>53.00</geoidheight><course>328.8</course><type>1</type></trkpt>
      <trkpt lat="39.25274625" lon="-6.15732737"><ele>1504</ele><speed>9.75</speed><time>2016-06-21T14:04:20Z</time><pdop>4.0</pdop><geoidheight>53.00</geoidheight><course>338.9</course><type>1</type></trkpt>
      <trkpt lat="39.25282835" lon="-6.15734243"><ele>1505</ele><speed>9.50</speed><time>2016-06-21T14:04:21Z</time><pdop>4.0</pdop><geoidheight>53.00</geoidheight><course>348.5</course><type>1</type></trkpt>
      <trkpt lat="39.25291123" lon="-6.15734822"><ele>1506</ele><speed>9.00</speed><time>2016-06-21T14:04:22Z</time><pdop>3.0</pdop><geoidheight>53.00</geoidheight><course>355.6</course><type>1</type></trkpt>
      <trkpt lat="39.25298949" lon="-6.15733979"><ele>1506</ele><speed>8.75</speed><time>2016-06-21T14:04:23Z</time><pdop>3.0</pdop><geoidheight>53.00</geoidheight><course>0.5</course><type>1</type></trkpt>
      <trkpt lat="39.25306999" lon="-6.15732684"><ele>1508</ele><speed>8.75</speed><time>2016-06-21T14:04:24Z</time><pdop>3.0</pdop><geoidheight>53.00</geoidheight><course>6.6</course><type>1</type></trkpt>
      <trkpt lat="39.25314589" lon="-6.15730538"><ele>1510</ele><speed>8.50</speed><time>2016-06-21T14:04:25Z</time><pdop>3.0</pdop><geoidheight>53.00</geoidheight><course>14.8</course><type>1</type></trkpt>
      <trkpt lat="39.25320432" lon="-6.15725806"><ele>1511</ele><speed>7.75</speed><time>2016-06-21T14:04:26Z</time><pdop>3.0</pdop><geoidheight>53.00</geoidheight><course>28.6</course><type>1</type></trkpt>
      <trkpt lat="39.2532456" lon="-6.15719381"><ele>1512</ele><speed>7.25</speed><time>2016-06-21T14:04:27Z</time><pdop>3.0</pdop><geoidheight>53.00</geoidheight><course>49.6</course><type>1</type></trkpt>
      <trkpt lat="39.25325647" lon="-6.15710987"><ele>1512</ele><speed>7.00</speed><time>2016-06-21T14:04:28Z</time><pdop>3.0</pdop><geoidheight>53.00</geoidheight><course>74.5</course><type>1</type></trkpt>
      <trkpt lat="39.25324539" lon="-6.1570257"><ele>1513</ele><speed>7.25</speed><time>2016-06-21T14:04:29Z</time><pdop>3.0</pdop><geoidheight>53.00</geoidheight><course>97.5</course><type>1</type></trkpt>
      <trkpt lat="39.25320992" lon="-6.15695372"><ele>1512</ele><speed>7.50</speed><time>2016-06-21T14:04:30Z</time><pdop>3.0</pdop><geoidheight>53.00</geoidheight><course>119.0</course><type>1</type></trkpt>
      <trkpt lat="39.25316086" lon="-6.15688893"><ele>1512</ele><speed>7.75</speed><time>2016-06-21T14:04:31Z</time><pdop>4.0</pdop><geoidheight>53.00</geoidheight><course>132.6</course><type>1</type></trkpt>
      <trkpt lat="39.25309567" lon="-6.15684672"><ele>1512</ele><speed>8.00</speed><time>2016-06-21T14:04:32Z</time><pdop>4.0</pdop><geoidheight>53.00</geoidheight><course>149.4</course><type>1</type></trkpt>
      <trkpt lat="39.25302277" lon="-6.1568202"><ele>1511</ele><speed>8.25</speed><time>2016-06-21T14:04:33Z</time><pdop>3.0</pdop><geoidheight>53.00</geoidheight><course>163.1</course><type>1</type></trkpt>
      <trkpt lat="39.25294862" lon="-6.1568103"><ele>1511</ele><speed>8.25</speed><time>2016-06-21T14:04:34Z</time><pdop>3.0</pdop><geoidheight>53.00</geoidheight><course>173.7</course><type>1</type></trkpt>
      <trkpt lat="39.25287382" lon="-6.15681936"><ele>1510</ele><speed>8.00</speed><time>2016-06-21T14:04:35Z</time><pdop>3.0</pdop><geoidheight>53.00</geoidheight><course>181.2</course><type>1</type></trkpt>
      <trkpt lat="39.25279422" lon="-6.15683566"><ele>1510</ele><speed>8.75</speed><time>2016-06-21T14:04:36Z</time><pdop>4.0</pdop><geoidheight>53.00</geoidheight><course>187.9</course><type>1</type></trkpt>
      <trkpt lat="39.25270775" lon="-6.15686696"><ele>1509</ele><speed>9.75</speed><time>2016-06-21T14:04:37Z</time><pdop>4.0</pdop><geoidheight>53.00</geoidheight><course>194.9</course><type>1</type></trkpt>
      <trkpt lat="39.25262266" lon="-6.15692201"><ele>1510</ele><speed>10.25</speed><time>2016-06-21T14:04:38Z</time><pdop>4.0</pdop><geoidheight>53.00</geoidheight><course>205.1</course><type>1</type></trkpt>
      <trkpt lat="39.25255301" lon="-6.15700345"><ele>1510</ele><speed>10.50</speed><time>2016-06-21T14:04:39Z</time><pdop>4.0</pdop><geoidheight>53.00</geoidheight><course>219.2</course><type>1</type></trkpt>
      <trkpt lat="39.25250898" lon="-6.157105"><ele>1511</ele><speed>9.75</speed><time>2016-06-21T14:04:40Z</time><pdop>3.0</pdop><geoidheight>53.00</geoidheight><course>236.5</course><type>1</type></trkpt>
      <trkpt lat="39.25248712" lon="-6.1572071"><ele>1511</ele><speed>9.00</speed><time>2016-06-21T14:04:41Z</time><pdop>4.0</pdop><geoidheight>53.00</geoidheight><course>251.0</course><type>1</type></trkpt>
      <trkpt lat="39.25248372" lon="-6.15730308"><ele>1511</ele><speed>8.25</speed><time>2016-06-21T14:04:42Z</time><pdop>3.0</pdop><geoidheight>53.00</geoidheight><course>263.1</course><type>1</type></trkpt>
      <trkpt lat="39.25248833" lon="-6.15740057"><ele>1510</ele><speed>8.50</speed><time>2016-06-21T14:04:43Z</time><pdop>4.0</pdop><geoidheight>53.00</geoidheight><course>272.8</course><type>1</type></trkpt>
      <trkpt lat="39.25251445" lon="-6.15749853"><ele>1510</ele><speed>8.75</speed><time>2016-06-21T14:04:44Z</time><pdop>4.0</pdop><geoidheight>53.00</geoidheight><course>286.8</course><type>1</type></trkpt>
      <trkpt lat="39.25256864" lon="-6.15757153"><ele>1509</ele><speed>9.00</speed><time>2016-06-21T14:04:45Z</time><pdop>3.0</pdop><geoidheight>53.00</geoidheight><course>307.3</course><type>1</type></trkpt>
      <trkpt lat="39.25264283" lon="-6.1576278"><ele>1508</ele><speed>9.25</speed><time>2016-06-21T14:04:46Z</time><pdop>4.0</pdop><geoidheight>53.00</geoidheight><course>325.2</course><type>1</type></trkpt>
      <trkpt lat="39.25272702" lon="-6.15766731"><ele>1508</ele><speed>9.75</speed><time>2016-06-21T14:04:47Z</time><pdop>4.0</pdop><geoidheight>53.00</geoidheight><course>338.9</course><type>1</type></trkpt>
      <trkpt lat="39.25280716" lon="-6.15768359"><ele>1508</ele><speed>9.25</speed><time>2016-06-21T14:04:48Z</time><pdop>4.0</pdop><geoidheight>53.00</geoidheight><course>348.8</course><type>1</type></trkpt>
      <trkpt lat="39.25289019" lon="-6.15769147"><ele>1509</ele><speed>8.75</speed><time>2016-06-21T14:04:49Z</time><pdop>3.0</pdop><geoidheight>53.00</geoidheight><course>358.3</course><type>1</type></trkpt>
      <trkpt lat="39.25297081" lon="-6.15767741"><ele>1509</ele><speed>8.75</speed><time>2016-06-21T14:04:50Z</time><pdop>3.0</pdop><geoidheight>53.00</geoidheight><course>6.5</course><type>1</type></trkpt>
      <trkpt lat="39.25304505" lon="-6.15764901"><ele>1508</ele><speed>9.00</speed><time>2016-06-21T14:04:51Z</time><pdop>4.0</pdop><geoidheight>53.00</geoidheight><course>12.4</course><type>1</type></trkpt>
      <trkpt lat="39.25312506" lon="-6.15761818"><ele>1508</ele><speed>9.00</speed><time>2016-06-21T14:04:52Z</time><pdop>3.0</pdop><geoidheight>53.00</geoidheight><course>16.1</course><type>1</type></trkpt>
      <trkpt lat="39.25320123" lon="-6.15758127"><ele>1508</ele><speed>9.00</speed><time>2016-06-21T14:04:53Z</time><pdop>3.0</pdop><geoidheight>53.00</geoidheight><course>21.5</course><type>1</type></trkpt>
      <trkpt lat="39.25327387" lon="-6.15753236"><ele>1508</ele><speed>9.00</speed><time>2016-06-21T14:04:54Z</time><pdop>4.0</pdop><geoidheight>53.00</geoidheight><course>28.0</course><type>1</type></trkpt>
      <trkpt lat="39.25333616" lon="-6.157471"><ele>1508</ele><speed>8.75</speed><time>2016-06-21T14:04:55Z</time><pdop>4.0</pdop><geoidheight>53.00</geoidheight><course>35.7</course><type>1</type></trkpt>
      <trkpt lat="39.25339729" lon="-6.1573992"><ele>1506</ele><speed>9.00</speed><time>2016-06-21T14:04:56Z</time><pdop>3.0</pdop><geoidheight>53.00</geoidheight><course>40.7</course><type>1</type></trkpt>
      <trkpt lat="39.25346333" lon="-6.15733175"><ele>1506</ele><speed>9.50</speed><time>2016-06-21T14:04:57Z</time><pdop>4.0</pdop><geoidheight>53.00</geoidheight><course>38.5</course><type>1</type></trkpt>
      <trkpt lat="39.25353917" lon="-6.15727156"><ele>1506</ele><speed>9.75</speed><time>2016-06-21T14:04:58Z</time><pdop>3.0</pdop><geoidheight>53.00</geoidheight><course>30.8</course><type>1</type></trkpt>
      <trkpt lat="39.2536206" lon="-6.15723064"><ele>1508</ele><speed>9.50</speed><time>2016-06-21T14:04:59Z</time><pdop>3.0</pdop><geoidheight>53.00</geoidheight><course>20.9</course><type>1</type></trkpt>
      <trkpt lat="39.25369411" lon="-6.15721071"><ele>1507</ele><speed>8.50</speed><time>2016-06-21T14:05:00Z</time><pdop>3.0</pdop><geoidheight>53.00</geoidheight><course>15.2</course><type>1</type></trkpt>
      <trkpt lat="39.25376814" lon="-6.1571923"><ele>1507</ele><speed>8.25</speed><time>2016-06-21T14:05:01Z</time><pdop>3.0</pdop><geoidheight>53.00</geoidheight><course>11.3</course><type>1</type></trkpt>
      <trkpt lat="39.25384577" lon="-6.15717404"><ele>1506</ele><speed>8.50</speed><time>2016-06-21T14:05:02Z</time><pdop>3.0</pdop><geoidheight>53.00</geoidheight><course>11.3</course><type>1</type></trkpt>
      <trkpt lat="39.2539274" lon="-6.1571457"><ele>1506</ele><speed>9.25</speed><time>2016-06-21T14:05:03Z</time><pdop>3.0</pdop><geoidheight>53.00</geoidheight><course>13.8</course><type>1</type></trkpt>
      <trkpt lat="39.25410066" lon="-6.15709474"><ele>1506</ele><speed>10.00</speed><time>2016-06-21T14:05:05Z</time><pdop>3.0</pdop><geoidheight>53.00</geoidheight><course>12.6</course><type>1</type></trkpt>
      <trkpt lat="39.25419373" lon="-6.15707735"><ele>1507</ele><speed>10.25</speed><time>2016-06-21T14:05:06Z</time><pdop>3.0</pdop><geoidheight>53.00</geoidheight><course>9.4</course><type>1</type></trkpt>
      <trkpt lat="39.2542887" lon="-6.15706031"><ele>1508</ele><speed>10.50</speed><time>2016-06-21T14:05:07Z</time><pdop>3.0</pdop><geoidheight>53.00</geoidheight><course>9.5</course><type>1</type></trkpt>
      <trkpt lat="39.25437298" lon="-6.15703512"><ele>1510</ele><speed>9.75</speed><time>2016-06-21T14:05:08Z</time><pdop>3.0</pdop><geoidheight>53.00</geoidheight><course>12.8</course><type>1</type></trkpt>
      <trkpt lat="39.25444701" lon="-6.15701148"><ele>1512</ele><speed>8.75</speed><time>2016-06-21T14:05:09Z</time><pdop>3.0</pdop><geoidheight>53.00</geoidheight><course>15.0</course><type>1</type></trkpt>
      <trkpt lat="39.25451394" lon="-6.15698625"><ele>1513</ele><speed>7.75</speed><time>2016-06-21T14:05:10Z</time><pdop>3.0</pdop><geoidheight>53.00</geoidheight><course>15.8</course><type>1</type></trkpt>
      <trkpt lat="39.25457901" lon="-6.15695646"><ele>1513</ele><speed>7.50</speed><time>2016-06-21T14:05:11Z</time><pdop>4.0</pdop><geoidheight>53.00</geoidheight><course>20.4</course><type>1</type></trkpt>
      <trkpt lat="39.25463909" lon="-6.15691273"><ele>1511</ele><speed>7.50</speed><time>2016-06-21T14:05:12Z</time><pdop>3.0</pdop><geoidheight>53.00</geoidheight><course>30.1</course><type>1</type></trkpt>
      <trkpt lat="39.25469698" lon="-6.15684349"><ele>1509</ele><speed>8.50</speed><time>2016-06-21T14:05:13Z</time><pdop>3.0</pdop><geoidheight>53.00</geoidheight><course>42.5</course><type>1</type></trkpt>
      <trkpt lat="39.25475829" lon="-6.15675959"><ele>1509</ele><speed>9.75</speed><time>2016-06-21T14:05:14Z</time><pdop>3.0</pdop><geoidheight>53.00</geoidheight><course>46.6</course><type>1</type></trkpt>
      <trkpt lat="39.2548273" lon="-6.15668679"><ele>1510</ele><speed>9.75</speed><time>2016-06-21T14:05:15Z</time><pdop>3.0</pdop><geoidheight>53.00</geoidheight><course>39.6</course><type>1</type></trkpt>
      <trkpt lat="39.25489947" lon="-6.1566346"><ele>1511</ele><speed>9.25</speed><time>2016-06-21T14:05:16Z</time><pdop>4.0</pdop><geoidheight>53.00</geoidheight><course>29.2</course><type>1</type></trkpt>
      <trkpt lat="39.25496428" lon="-6.15662253"><ele>1511</ele><speed>7.50</speed><time>2016-06-21T14:05:17Z</time><pdop>3.0</pdop><geoidheight>53.00</geoidheight><course>14.9</course><type>1</type></trkpt>
      <trkpt lat="39.25503544" lon="-6.15660528"><ele>1512</ele><speed>8.00</speed><time>2016-06-21T14:05:18Z</time><pdop>4.0</pdop><geoidheight>53.00</geoidheight><course>11.4</course><type>1</type></trkpt>
      <trkpt lat="39.25511517" lon="-6.15658178"><ele>1511</ele><speed>8.75</speed><time>2016-06-21T14:05:19Z</time><pdop>3.0</pdop><geoidheight>53.00</geoidheight><course>12.4</course><type>1</type></trkpt>
      <trkpt lat="39.25519363" lon="-6.15655301"><ele>1511</ele><speed>9.25</speed><time>2016-06-21T14:05:20Z</time><pdop>3.0</pdop><geoidheight>53.00</geoidheight><course>15.7</course><type>1</type></trkpt>
      <trkpt lat="39.25526609" lon="-6.15651104"><ele>1511</ele><speed>9.00</speed><time>2016-06-21T14:05:21Z</time><pdop>3.0</pdop><geoidheight>53.00</geoidheight><course>22.1</course><type>1</type></trkpt>
      <trkpt lat="39.25532969" lon="-6.15646597"><ele>1511</ele><speed>8.50</speed><time>2016-06-21T14:05:22Z</time><pdop>3.0</pdop><geoidheight>53.00</geoidheight><course>28.3</course><type>1</type></trkpt>
      <trkpt lat="39.25539358" lon="-6.15642083"><ele>1511</ele><speed>8.25</speed><time>2016-06-21T14:05:23Z</time><pdop>3.0</pdop><geoidheight>53.00</geoidheight><course>28.4</course><type>1</type></trkpt>
      <trkpt lat="39.25546131" lon="-6.1563833"><ele>1511</ele><speed>8.25</speed><time>2016-06-21T14:05:24Z</time><pdop>4.0</pdop><geoidheight>53.00</geoidheight><course>24.0</course><type>1</type></trkpt>
      <trkpt lat="39.25554212" lon="-6.15635039"><ele>1510</ele><speed>9.00</speed><time>2016-06-21T14:05:25Z</time><pdop>4.0</pdop><geoidheight>53.00</geoidheight><course>17.8</course><type>1</type></trkpt>
      <trkpt lat="39.25562473" lon="-6.15632351"><ele>1510</ele><speed>9.25</speed><time>2016-06-21T14:05:26Z</time><pdop>4.0</pdop><geoidheight>53.00</geoidheight><course>15.7</course><type>1</type></trkpt>
      <trkpt lat="39.25570486" lon="-6.15629205"><ele>1510</ele><speed>9.50</speed><time>2016-06-21T14:05:27Z</time><pdop>3.0</pdop><geoidheight>53.00</geoidheight><course>17.0</course><type>1</type></trkpt>
      <trkpt lat="39.25577878" lon="-6.15626115"><ele>1510</ele><speed>9.25</speed><time>2016-06-21T14:05:28Z</time><pdop>4.0</pdop><geoidheight>53.00</geoidheight><course>18.3</course><type>1</type></trkpt>
      <trkpt lat="39.25585982" lon="-6.1562306"><ele>1510</ele><speed>9.50</speed><time>2016-06-21T14:05:29Z</time><pdop>3.0</pdop><geoidheight>53.00</geoidheight><course>17.1</course><type>1</type></trkpt>
      <trkpt lat="39.25594248" lon="-6.15620063"><ele>1510</ele><speed>9.75</speed><time>2016-06-21T14:05:30Z</time><pdop>3.0</pdop><geoidheight>53.00</geoidheight><course>17.0</course><type>1</type></trkpt>
      <trkpt lat="39.25602663" lon="-6.1561665"><ele>1511</ele><speed>9.50</speed><time>2016-06-21T14:05:31Z</time><pdop>4.0</pdop><geoidheight>53.00</geoidheight><course>17.7</course><type>1</type></trkpt>
      <trkpt lat="39.25610324" lon="-6.1561295"><ele>1511</ele><speed>9.00</speed><time>2016-06-21T14:05:32Z</time><pdop>4.0</pdop><geoidheight>53.00</geoidheight><course>21.1</course><type>1</type></trkpt>
      <trkpt lat="39.25617106" lon="-6.15608192"><ele>1511</ele><speed>8.75</speed><time>2016-06-21T14:05:33Z</time><pdop>4.0</pdop><geoidheight>53.00</geoidheight><course>27.6</course><type>1</type></trkpt>
      <trkpt lat="39.25623625" lon="-6.15602518"><ele>1510</ele><speed>8.75</speed><time>2016-06-21T14:05:34Z</time><pdop>3.0</pdop><geoidheight>53.00</geoidheight><course>32.9</course><type>1</type></trkpt>
      <trkpt lat="39.2563084" lon="-6.15595871"><ele>1509</ele><speed>9.50</speed><time>2016-06-21T14:05:35Z</time><pdop>4.0</pdop><geoidheight>53.00</geoidheight><course>33.9</course><type>1</type></trkpt>
      <trkpt lat="39.25640004" lon="-6.15590824"><ele>1509</ele><speed>10.75</speed><time>2016-06-21T14:05:36Z</time><pdop>3.0</pdop><geoidheight>53.00</geoidheight><course>27.2</course><type>1</type></trkpt>
      <trkpt lat="39.25650139" lon="-6.15587382"><ele>1509</ele><speed>11.25</speed><time>2016-06-21T14:05:37Z</time><pdop>3.0</pdop><geoidheight>53.00</geoidheight><course>17.1</course><type>1</type></trkpt>
      <trkpt lat="39.25668018" lon="-6.15584158"><ele>1513</ele><speed>10.00</speed><time>2016-06-21T14:05:39Z</time><pdop>3.0</pdop><geoidheight>53.00</geoidheight><course>4.6</course><type>1</type></trkpt>
      <trkpt lat="39.25675904" lon="-6.15582433"><ele>1515</ele><speed>8.75</speed><time>2016-06-21T14:05:40Z</time><pdop>3.0</pdop><geoidheight>53.00</geoidheight><course>8.8</course><type>1</type></trkpt>
      <trkpt lat="39.25683003" lon="-6.15579593"><ele>1516</ele><speed>8.50</speed><time>2016-06-21T14:05:41Z</time><pdop>3.0</pdop><geoidheight>53.00</geoidheight><course>16.0</course><type>1</type></trkpt>
      <trkpt lat="39.25689768" lon="-6.15576328"><ele>1516</ele><speed>8.25</speed><time>2016-06-21T14:05:42Z</time><pdop>4.0</pdop><geoidheight>53.00</geoidheight><course>19.2</course><type>1</type></trkpt>
      <trkpt lat="39.25696629" lon="-6.15572373"><ele>1517</ele><speed>8.25</speed><time>2016-06-21T14:05:43Z</time><pdop>4.0</pdop><geoidheight>53.00</geoidheight><course>23.6</course><type>1</type></trkpt>
      <trkpt lat="39.25702327" lon="-6.15566613"><ele>1518</ele><speed>8.00</speed><time>2016-06-21T14:05:44Z</time><pdop>3.0</pdop><geoidheight>53.00</geoidheight><course>36.8</course><type>1</type></trkpt>
      <trkpt lat="39.25705812" lon="-6.15558462"><ele>1518</ele><speed>8.00</speed><time>2016-06-21T14:05:45Z</time><pdop>3.0</pdop><geoidheight>53.00</geoidheight><course>58.7</course><type>1</type></trkpt>
      <trkpt lat="39.25706093" lon="-6.15547995"><ele>1518</ele><speed>8.75</speed><time>2016-06-21T14:05:46Z</time><pdop>3.0</pdop><geoidheight>53.00</geoidheight><course>86.4</course><type>1</type></trkpt>
      <trkpt lat="39.25702761" lon="-6.15537903"><ele>1518</ele><speed>9.50</speed><time>2016-06-21T14:05:47Z</time><pdop>3.0</pdop><geoidheight>53.00</geoidheight><course>109.6</course><type>1</type></trkpt>
      <trkpt lat="39.25698975" lon="-6.15527923"><ele>1519</ele><speed>9.50</speed><time>2016-06-21T14:05:48Z</time><pdop>4.0</pdop><geoidheight>53.00</geoidheight><course>115.5</course><type>1</type></trkpt>
      <trkpt lat="39.25693433" lon="-6.15520135"><ele>1519</ele><speed>9.00</speed><time>2016-06-21T14:05:49Z</time><pdop>5.0</pdop><geoidheight>53.00</geoidheight><course>125.7</course><type>1</type></trkpt>
      <trkpt lat="39.25684765" lon="-6.15528886"><ele>1520</ele><speed>7.50</speed><time>2016-06-21T14:05:50Z</time><pdop>3.0</pdop><geoidheight>53.00</geoidheight><course>182.7</course><type>1</type></trkpt>
      <trkpt lat="39.2567848" lon="-6.15531788"><ele>1521</ele><speed>7.75</speed><time>2016-06-21T14:05:51Z</time><pdop>3.0</pdop><geoidheight>53.00</geoidheight><course>201.8</course><type>1</type></trkpt>
      <trkpt lat="39.25671654" lon="-6.1553742"><ele>1521</ele><speed>8.50</speed><time>2016-06-21T14:05:52Z</time><pdop>3.0</pdop><geoidheight>53.00</geoidheight><course>209.5</course><type>1</type></trkpt>
      <trkpt lat="39.25665072" lon="-6.15544475"><ele>1522</ele><speed>9.25</speed><time>2016-06-21T14:05:53Z</time><pdop>3.0</pdop><geoidheight>53.00</geoidheight><course>217.9</course><type>1</type></trkpt>
      <trkpt lat="39.25659623" lon="-6.15553583"><ele>1522</ele><speed>9.75</speed><time>2016-06-21T14:05:54Z</time><pdop>3.0</pdop><geoidheight>53.00</geoidheight><course>228.9</course><type>1</type></trkpt>
      <trkpt lat="39.25655697" lon="-6.155645"><ele>1523</ele><speed>10.25</speed><time>2016-06-21T14:05:55Z</time><pdop>3.0</pdop><geoidheight>53.00</geoidheight><course>244.2</course><type>1</type></trkpt>
      <trkpt lat="39.25653675" lon="-6.15576423"><ele>1524</ele><speed>10.50</speed><time>2016-06-21T14:05:56Z</time><pdop>3.0</pdop><geoidheight>53.00</geoidheight><course>256.1</course><type>1</type></trkpt>
      <trkpt lat="39.25653014" lon="-6.15587776"><ele>1526</ele><speed>10.00</speed><time>2016-06-21T14:05:57Z</time><pdop>3.0</pdop><geoidheight>53.00</geoidheight><course>264.7</course><type>1</type></trkpt>
      <trkpt lat="39.25653082" lon="-6.15599103"><ele>1527</ele><speed>9.75</speed><time>2016-06-21T14:05:58Z</time><pdop>3.0</pdop><geoidheight>53.00</geoidheight><course>269.9</course><type>1</type></trkpt>
      <trkpt lat="39.25653952" lon="-6.15610828"><ele>1527</ele><speed>10.00</speed><time>2016-06-21T14:05:59Z</time><pdop>4.0</pdop><geoidheight>53.00</geoidheight><course>274.9</course><type>1</type></trkpt>
      <trkpt lat="39.25656024" lon="-6.15622548"><ele>1527</ele><speed>10.25</speed><time>2016-06-21T14:06:00Z</time><pdop>4.0</pdop><geoidheight>53.00</geoidheight><course>281.7</course><type>1</type></trkpt>
      <trkpt lat="39.25658587" lon="-6.15634473"><ele>1527</ele><speed>10.50</speed><time>2016-06-21T14:06:01Z</time><pdop>4.0</pdop><geoidheight>53.00</geoidheight><course>285.0</course><type>1</type></trkpt>
      <trkpt lat="39.25665217" lon="-6.15644174"><ele>1528</ele><speed>10.50</speed><time>2016-06-21T14:06:02Z</time><pdop>3.0</pdop><geoidheight>53.00</geoidheight><course>302.6</course><type>1</type></trkpt>
      <trkpt lat="39.25672183" lon="-6.15652106"><ele>1529</ele><speed>10.25</speed><time>2016-06-21T14:06:03Z</time><pdop>3.0</pdop><geoidheight>53.00</geoidheight><course>313.6</course><type>1</type></trkpt>
      <trkpt lat="39.2567939" lon="-6.15658586"><ele>1530</ele><speed>10.00</speed><time>2016-06-21T14:06:04Z</time><pdop>3.0</pdop><geoidheight>53.00</geoidheight><course>323.4</course><type>1</type></trkpt>
      <trkpt lat="39.25686697" lon="-6.15663143"><ele>1531</ele><speed>9.25</speed><time>2016-06-21T14:06:05Z</time><pdop>3.0</pdop><geoidheight>53.00</geoidheight><course>334.0</course><type>1</type></trkpt>
      <trkpt lat="39.25694472" lon="-6.15665523"><ele>1531</ele><speed>8.75</speed><time>2016-06-21T14:06:06Z</time><pdop>3.0</pdop><geoidheight>53.00</geoidheight><course>345.7</course><type>1</type></trkpt>
      <trkpt lat="39.25702649" lon="-6.15665054"><ele>1530</ele><speed>9.00</speed><time>2016-06-21T14:06:07Z</time><pdop>3.0</pdop><geoidheight>53.00</geoidheight><course>359.8</course><type>1</type></trkpt>
      <trkpt lat="39.25710794" lon="-6.15661527"><ele>1529</ele><speed>9.75</speed><time>2016-06-21T14:06:08Z</time><pdop>3.0</pdop><geoidheight>53.00</geoidheight><course>14.2</course><type>1</type></trkpt>
      <trkpt lat="39.2571811" lon="-6.156557"><ele>1530</ele><speed>9.75</speed><time>2016-06-21T14:06:09Z</time><pdop>4.0</pdop><geoidheight>53.00</geoidheight><course>29.3</course><type>1</type></trkpt>
      <trkpt lat="39.2572259" lon="-6.15647591"><ele>1531</ele><speed>8.75</speed><time>2016-06-21T14:06:10Z</time><pdop>3.0</pdop><geoidheight>53.00</geoidheight><course>49.2</course><type>1</type></trkpt>
      <trkpt lat="39.25724791" lon="-6.15639397"><ele>1533</ele><speed>7.50</speed><time>2016-06-21T14:06:11Z</time><pdop>3.0</pdop><geoidheight>53.00</geoidheight><course>70.3</course><type>1</type></trkpt>
      <trkpt lat="39.25724787" lon="-6.15631372"><ele>1533</ele><speed>7.00</speed><time>2016-06-21T14:06:12Z</time><pdop>3.0</pdop><geoidheight>53.00</geoidheight><course>87.7</course><type>1</type></trkpt>
      <trkpt lat="39.25724192" lon="-6.15623475"><ele>1534</ele><speed>6.75</speed><time>2016-06-21T14:06:13Z</time><pdop>3.0</pdop><geoidheight>53.00</geoidheight><course>92.6</course><type>1</type></trkpt>
      <trkpt lat="39.25724598" lon="-6.15614892"><ele>1534</ele><speed>7.00</speed><time>2016-06-21T14:06:14Z</time><pdop>3.0</pdop><geoidheight>53.00</geoidheight><course>83.9</course><type>1</type></trkpt>
      <trkpt lat="39.25726478" lon="-6.15607209"><ele>1534</ele><speed>7.00</speed><time>2016-06-21T14:06:15Z</time><pdop>3.0</pdop><geoidheight>53.00</geoidheight><course>72.3</course><type>1</type></trkpt>
      <trkpt lat="39.25728974" lon="-6.15600596"><ele>1535</ele><speed>6.50</speed><time>2016-06-21T14:06:16Z</time><pdop>3.0</pdop><geoidheight>53.00</geoidheight><course>64.4</course><type>1</type></trkpt>
      <trkpt lat="39.25732244" lon="-6.15594192"><ele>1535</ele><speed>6.75</speed><time>2016-06-21T14:06:17Z</time><pdop>3.0</pdop><geoidheight>53.00</geoidheight><course>59.4</course><type>1</type></trkpt>
      <trkpt lat="39.25735355" lon="-6.15587"><ele>1535</ele><speed>7.00</speed><time>2016-06-21T14:06:18Z</time><pdop>3.0</pdop><geoidheight>53.00</geoidheight><course>59.6</course><type>1</type></trkpt>
      <trkpt lat="39.25738224" lon="-6.15579262"><ele>1535</ele><speed>7.50</speed><time>2016-06-21T14:06:19Z</time><pdop>3.0</pdop><geoidheight>53.00</geoidheight><course>63.4</course><type>1</type></trkpt>
      <trkpt lat="39.25740195" lon="-6.15571249"><ele>1536</ele><speed>7.25</speed><time>2016-06-21T14:06:20Z</time><pdop>3.0</pdop><geoidheight>53.00</geoidheight><course>68.5</course><type>1</type></trkpt>
      <trkpt lat="39.25741623" lon="-6.15563196"><ele>1537</ele><speed>7.00</speed><time>2016-06-21T14:06:21Z</time><pdop>3.0</pdop><geoidheight>53.00</geoidheight><course>74.9</course><type>1</type></trkpt>
      <trkpt lat="39.25742647" lon="-6.15555069"><ele>1538</ele><speed>7.25</speed><time>2016-06-21T14:06:22Z</time><pdop>3.0</pdop><geoidheight>53.00</geoidheight><course>81.1</course><type>1</type></trkpt>
      <trkpt lat="39.25743301" lon="-6.15546412"><ele>1539</ele><speed>7.50</speed><time>2016-06-21T14:06:23Z</time><pdop>3.0</pdop><geoidheight>53.00</geoidheight><course>84.6</course><type>1</type></trkpt>
      <trkpt lat="39.25743415" lon="-6.15537381"><ele>1540</ele><speed>7.75</speed><time>2016-06-21T14:06:24Z</time><pdop>3.0</pdop><geoidheight>53.00</geoidheight><course>90.3</course><type>1</type></trkpt>
      <trkpt lat="39.25741474" lon="-6.15528996"><ele>1541</ele><speed>7.75</speed><time>2016-06-21T14:06:25Z</time><pdop>3.0</pdop><geoidheight>53.00</geoidheight><course>104.4</course><type>1</type></trkpt>
      <trkpt lat="39.257371" lon="-6.15522203"><ele>1540</ele><speed>7.75</speed><time>2016-06-21T14:06:26Z</time><pdop>3.0</pdop><geoidheight>53.00</geoidheight><course>127.7</course><type>1</type></trkpt>
      <trkpt lat="39.25730108" lon="-6.15518239"><ele>1540</ele><speed>8.25</speed><time>2016-06-21T14:06:27Z</time><pdop>3.0</pdop><geoidheight>53.00</geoidheight><course>153.7</course><type>1</type></trkpt>
      <trkpt lat="39.25721959" lon="-6.15517654"><ele>1540</ele><speed>9.00</speed><time>2016-06-21T14:06:28Z</time><pdop>3.0</pdop><geoidheight>53.00</geoidheight><course>174.4</course><type>1</type></trkpt>
      <trkpt lat="39.25713883" lon="-6.15520506"><ele>1540</ele><speed>9.25</speed><time>2016-06-21T14:06:29Z</time><pdop>4.0</pdop><geoidheight>53.00</geoidheight><course>192.4</course><type>1</type></trkpt>
      <trkpt lat="39.25701666" lon="-6.1553607"><ele>1540</ele><speed>9.50</speed><time>2016-06-21T14:06:31Z</time><pdop>3.0</pdop><geoidheight>53.00</geoidheight><course>231.2</course><type>1</type></trkpt>
      <trkpt lat="39.25698213" lon="-6.15547293"><ele>1540</ele><speed>10.50</speed><time>2016-06-21T14:06:32Z</time><pdop>3.0</pdop><geoidheight>53.00</geoidheight><course>247.2</course><type>1</type></trkpt>
      <trkpt lat="39.25697222" lon="-6.15560339"><ele>1540</ele><speed>11.25</speed><time>2016-06-21T14:06:33Z</time><pdop>3.0</pdop><geoidheight>53.00</geoidheight><course>263.4</course><type>1</type></trkpt>
      <trkpt lat="39.25699517" lon="-6.15572489"><ele>1540</ele><speed>11.00</speed><time>2016-06-21T14:06:34Z</time><pdop>3.0</pdop><geoidheight>53.00</geoidheight><course>281.0</course><type>1</type></trkpt>
      <trkpt lat="39.25705031" lon="-6.15583256"><ele>1541</ele><speed>10.75</speed><time>2016-06-21T14:06:35Z</time><pdop>3.0</pdop><geoidheight>53.00</geoidheight><course>299.3</course><type>1</type></trkpt>
      <trkpt lat="39.25711661" lon="-6.15591734"><ele>1542</ele><speed>10.50</speed><time>2016-06-21T14:06:36Z</time><pdop>3.0</pdop><geoidheight>53.00</geoidheight><course>313.2</course><type>1</type></trkpt>
      <trkpt lat="39.2571923" lon="-6.15598214"><ele>1542</ele><speed>10.00</speed><time>2016-06-21T14:06:37Z</time><pdop>3.0</pdop><geoidheight>53.00</geoidheight><course>321.5</course><type>1</type></trkpt>
      <trkpt lat="39.25726647" lon="-6.15605244"><ele>1544</ele><speed>10.25</speed><time>2016-06-21T14:06:38Z</time><pdop>3.0</pdop><geoidheight>53.00</geoidheight><course>324.0</course><type>1</type></trkpt>
      <trkpt lat="39.25734303" lon="-6.15612019"><ele>1544</ele><speed>10.50</speed><time>2016-06-21T14:06:39Z</time><pdop>4.0</pdop><geoidheight>53.00</geoidheight><course>325.2</course><type>1</type></trkpt>
      <trkpt lat="39.25742336" lon="-6.15618448"><ele>1545</ele><speed>10.50</speed><time>2016-06-21T14:06:40Z</time><pdop>3.0</pdop><geoidheight>53.00</geoidheight><course>327.2</course><type>1</type></trkpt>
      <trkpt lat="39.25750275" lon="-6.15624385"><ele>1547</ele><speed>10.25</speed><time>2016-06-21T14:06:41Z</time><pdop>3.0</pdop><geoidheight>53.00</geoidheight><course>330.0</course><type>1</type></trkpt>
      <trkpt lat="39.257579989999996" lon="-6.15630361"><ele>1548</ele><speed>10.00</speed><time>2016-06-21T14:06:42Z</time><pdop>4.0</pdop><geoidheight>53.00</geoidheight><course>329.0</course><type>1</type></trkpt>
      <trkpt lat="39.25765469" lon="-6.15636705"><ele>1548</ele><speed>10.00</speed><time>2016-06-21T14:06:43Z</time><pdop>3.0</pdop><geoidheight>53.00</geoidheight><course>327.6</course><type>1</type></trkpt>
      <trkpt lat="39.25773032" lon="-6.15642643"><ele>1548</ele><speed>9.75</speed><time>2016-06-21T14:06:44Z</time><pdop>3.0</pdop><geoidheight>53.00</geoidheight><course>328.3</course><type>1</type></trkpt>
      <trkpt lat="39.25781309" lon="-6.15646485"><ele>1548</ele><speed>9.75</speed><time>2016-06-21T14:06:45Z</time><pdop>3.0</pdop><geoidheight>53.00</geoidheight><course>337.3</course><type>1</type></trkpt>
      <trkpt lat="39.25790335" lon="-6.15647727"><ele>1548</ele><speed>10.00</speed><time>2016-06-21T14:06:46Z</time><pdop>3.0</pdop><geoidheight>53.00</geoidheight><course>351.8</course><type>1</type></trkpt>
      <trkpt lat="39.25799489" lon="-6.1564587"><ele>1547</ele><speed>10.25</speed><time>2016-06-21T14:06:47Z</time><pdop>3.0</pdop><geoidheight>53.00</geoidheight><course>6.9</course><type>1</type></trkpt>
      <trkpt lat="39.25807507" lon="-6.15641608"><ele>1548</ele><speed>9.75</speed><time>2016-06-21T14:06:48Z</time><pdop>4.0</pdop><geoidheight>53.00</geoidheight><course>20.0</course><type>1</type></trkpt>
      <trkpt lat="39.25813903" lon="-6.15635547"><ele>1549</ele><speed>9.00</speed><time>2016-06-21T14:06:49Z</time><pdop>3.0</pdop><geoidheight>53.00</geoidheight><course>34.4</course><type>1</type></trkpt>
      <trkpt lat="39.25818523" lon="-6.15628517"><ele>1550</ele><speed>8.00</speed><time>2016-06-21T14:06:50Z</time><pdop>3.0</pdop><geoidheight>53.00</geoidheight><course>48.3</course><type>1</type></trkpt>
      <trkpt lat="39.25821709" lon="-6.15620093"><ele>1550</ele><speed>7.75</speed><time>2016-06-21T14:06:51Z</time><pdop>3.0</pdop><geoidheight>53.00</geoidheight><course>62.9</course><type>1</type></trkpt>
      <trkpt lat="39.25823373" lon="-6.15610937"><ele>1551</ele><speed>8.00</speed><time>2016-06-21T14:06:52Z</time><pdop>3.0</pdop><geoidheight>53.00</geoidheight><course>72.6</course><type>1</type></trkpt>
      <trkpt lat="39.25824575" lon="-6.15601693"><ele>1552</ele><speed>8.25</speed><time>2016-06-21T14:06:53Z</time><pdop>3.0</pdop><geoidheight>53.00</geoidheight><course>80.2</course><type>1</type></trkpt>
      <trkpt lat="39.25824416" lon="-6.1559211"><ele>1554</ele><speed>8.25</speed><time>2016-06-21T14:06:54Z</time><pdop>3.0</pdop><geoidheight>53.00</geoidheight><course>88.7</course><type>1</type></trkpt>
      <trkpt lat="39.25822862" lon="-6.15583007"><ele>1556</ele><speed>7.75</speed><time>2016-06-21T14:06:55Z</time><pdop>3.0</pdop><geoidheight>53.00</geoidheight><course>101.0</course><type>1</type></trkpt>
      <trkpt lat="39.25820042" lon="-6.15574993"><ele>1558</ele><speed>7.50</speed><time>2016-06-21T14:06:56Z</time><pdop>3.0</pdop><geoidheight>53.00</geoidheight><course>112.8</course><type>1</type></trkpt>
      <trkpt lat="39.25816965" lon="-6.15568631"><ele>1560</ele><speed>7.00</speed><time>2016-06-21T14:06:57Z</time><pdop>3.0</pdop><geoidheight>53.00</geoidheight><course>123.3</course><type>1</type></trkpt>
      <trkpt lat="39.25813039" lon="-6.15563476"><ele>1562</ele><speed>6.50</speed><time>2016-06-21T14:06:58Z</time><pdop>3.0</pdop><geoidheight>53.00</geoidheight><course>135.5</course><type>1</type></trkpt>
      <trkpt lat="39.25807887" lon="-6.15559835"><ele>1563</ele><speed>6.50</speed><time>2016-06-21T14:06:59Z</time><pdop>3.0</pdop><geoidheight>53.00</geoidheight><course>151.3</course><type>1</type></trkpt>
      <trkpt lat="39.2580124" lon="-6.15558547"><ele>1563</ele><speed>7.25</speed><time>2016-06-21T14:07:00Z</time><pdop>3.0</pdop><geoidheight>53.00</geoidheight><course>167.6</course><type>1</type></trkpt>
      <trkpt lat="39.25794251" lon="-6.15560039"><ele>1563</ele><speed>8.00</speed><time>2016-06-21T14:07:01Z</time><pdop>3.0</pdop><geoidheight>53.00</geoidheight><course>186.5</course><type>1</type></trkpt>
      <trkpt lat="39.25787111" lon="-6.15563091"><ele>1563</ele><speed>8.50</speed><time>2016-06-21T14:07:02Z</time><pdop>4.0</pdop><geoidheight>53.00</geoidheight><course>196.4</course><type>1</type></trkpt>
      <trkpt lat="39.25781247" lon="-6.15573591"><ele>1563</ele><speed>10.00</speed><time>2016-06-21T14:07:03Z</time><pdop>3.0</pdop><geoidheight>53.00</geoidheight><course>225.4</course><type>1</type></trkpt>
      <trkpt lat="39.25776615" lon="-6.15585082"><ele>1563</ele><speed>10.75</speed><time>2016-06-21T14:07:04Z</time><pdop>3.0</pdop><geoidheight>53.00</geoidheight><course>241.6</course><type>1</type></trkpt>
      <trkpt lat="39.25774686" lon="-6.15597754"><ele>1562</ele><speed>10.75</speed><time>2016-06-21T14:07:05Z</time><pdop>3.0</pdop><geoidheight>53.00</geoidheight><course>256.5</course><type>1</type></trkpt>
      <trkpt lat="39.25775002" lon="-6.15610148"><ele>1562</ele><speed>10.50</speed><time>2016-06-21T14:07:06Z</time><pdop>4.0</pdop><geoidheight>53.00</geoidheight><course>270.0</course><type>1</type></trkpt>
      <trkpt lat="39.25778084" lon="-6.15622199"><ele>1562</ele><speed>10.75</speed><time>2016-06-21T14:07:07Z</time><pdop>4.0</pdop><geoidheight>53.00</geoidheight><course>284.5</course><type>1</type></trkpt>
      <trkpt lat="39.25784299" lon="-6.15632739"><ele>1563</ele><speed>11.25</speed><time>2016-06-21T14:07:08Z</time><pdop>3.0</pdop><geoidheight>53.00</geoidheight><course>302.4</course><type>1</type></trkpt>
      <trkpt lat="39.25792358" lon="-6.15640695"><ele>1565</ele><speed>11.00</speed><time>2016-06-21T14:07:09Z</time><pdop>3.0</pdop><geoidheight>53.00</geoidheight><course>318.9</course><type>1</type></trkpt>
      <trkpt lat="39.25801319" lon="-6.15644723"><ele>1565</ele><speed>10.25</speed><time>2016-06-21T14:07:10Z</time><pdop>3.0</pdop><geoidheight>53.00</geoidheight><course>336.8</course><type>1</type></trkpt>
      <trkpt lat="39.25809851" lon="-6.15645807"><ele>1567</ele><speed>9.75</speed><time>2016-06-21T14:07:11Z</time><pdop>3.0</pdop><geoidheight>53.00</geoidheight><course>352.1</course><type>1</type></trkpt>
      <trkpt lat="39.25817784" lon="-6.15644509"><ele>1569</ele><speed>8.75</speed><time>2016-06-21T14:07:12Z</time><pdop>3.0</pdop><geoidheight>53.00</geoidheight><course>6.3</course><type>1</type></trkpt>
      <trkpt lat="39.25824576" lon="-6.15641153"><ele>1571</ele><speed>8.00</speed><time>2016-06-21T14:07:13Z</time><pdop>3.0</pdop><geoidheight>53.00</geoidheight><course>22.3</course><type>1</type></trkpt>
      <trkpt lat="39.25829884" lon="-6.1563472"><ele>1572</ele><speed>8.00</speed><time>2016-06-21T14:07:14Z</time><pdop>3.0</pdop><geoidheight>53.00</geoidheight><course>38.3</course><type>1</type></trkpt>
      <trkpt lat="39.25833666" lon="-6.15626533"><ele>1574</ele><speed>8.25</speed><time>2016-06-21T14:07:15Z</time><pdop>3.0</pdop><geoidheight>53.00</geoidheight><course>56.5</course><type>1</type></trkpt>
      <trkpt lat="39.25834391" lon="-6.15617436"><ele>1575</ele><speed>8.00</speed><time>2016-06-21T14:07:16Z</time><pdop>3.0</pdop><geoidheight>53.00</geoidheight><course>78.2</course><type>1</type></trkpt>
      <trkpt lat="39.25832513" lon="-6.15608554"><ele>1576</ele><speed>8.00</speed><time>2016-06-21T14:07:17Z</time><pdop>3.0</pdop><geoidheight>53.00</geoidheight><course>102.4</course><type>1</type></trkpt>
      <trkpt lat="39.25828619" lon="-6.15601651"><ele>1577</ele><speed>7.50</speed><time>2016-06-21T14:07:18Z</time><pdop>4.0</pdop><geoidheight>53.00</geoidheight><course>122.9</course><type>1</type></trkpt>
      <trkpt lat="39.25823601" lon="-6.15596701"><ele>1579</ele><speed>6.75</speed><time>2016-06-21T14:07:19Z</time><pdop>3.0</pdop><geoidheight>53.00</geoidheight><course>139.2</course><type>1</type></trkpt>
      <trkpt lat="39.25814272" lon="-6.15591882"><ele>1581</ele><speed>5.50</speed><time>2016-06-21T14:07:21Z</time><pdop>4.0</pdop><geoidheight>53.00</geoidheight><course>163.7</course><type>1</type></trkpt>
      <trkpt lat="39.25801576" lon="-6.15593406"><ele>1581</ele><speed>7.50</speed><time>2016-06-21T14:07:23Z</time><pdop>3.0</pdop><geoidheight>53.00</geoidheight><course>189.6</course><type>1</type></trkpt>
      <trkpt lat="39.2579484" lon="-6.1559767"><ele>1580</ele><speed>8.75</speed><time>2016-06-21T14:07:24Z</time><pdop>3.0</pdop><geoidheight>53.00</geoidheight><course>203.8</course><type>1</type></trkpt>
      <trkpt lat="39.25787899" lon="-6.15604959"><ele>1581</ele><speed>9.75</speed><time>2016-06-21T14:07:25Z</time><pdop>3.0</pdop><geoidheight>53.00</geoidheight><course>218.5</course><type>1</type></trkpt>
      <trkpt lat="39.25782301" lon="-6.1561569"><ele>1581</ele><speed>10.75</speed><time>2016-06-21T14:07:26Z</time><pdop>3.0</pdop><geoidheight>53.00</geoidheight><course>235.0</course><type>1</type></trkpt>
      <trkpt lat="39.25779509" lon="-6.15628309"><ele>1581</ele><speed>11.00</speed><time>2016-06-21T14:07:27Z</time><pdop>3.0</pdop><geoidheight>53.00</geoidheight><course>252.6</course><type>1</type></trkpt>
      <trkpt lat="39.25777703" lon="-6.15640826"><ele>1581</ele><speed>11.00</speed><time>2016-06-21T14:07:28Z</time><pdop>4.0</pdop><geoidheight>53.00</geoidheight><course>259.2</course><type>1</type></trkpt>
      <trkpt lat="39.25783112" lon="-6.15652709"><ele>1582</ele><speed>10.75</speed><time>2016-06-21T14:07:29Z</time><pdop>3.0</pdop><geoidheight>53.00</geoidheight><course>286.6</course><type>1</type></trkpt>
      <trkpt lat="39.25788083" lon="-6.15663079"><ele>1582</ele><speed>10.50</speed><time>2016-06-21T14:07:30Z</time><pdop>3.0</pdop><geoidheight>53.00</geoidheight><course>299.5</course><type>1</type></trkpt>
      <trkpt lat="39.25794107" lon="-6.15671225"><ele>1582</ele><speed>10.00</speed><time>2016-06-21T14:07:31Z</time><pdop>3.0</pdop><geoidheight>53.00</geoidheight><course>313.0</course><type>1</type></trkpt>
      <trkpt lat="39.2580219" lon="-6.15676885"><ele>1582</ele><speed>10.25</speed><time>2016-06-21T14:07:32Z</time><pdop>3.0</pdop><geoidheight>53.00</geoidheight><course>329.2</course><type>1</type></trkpt>
      <trkpt lat="39.25811364" lon="-6.15679742"><ele>1583</ele><speed>10.25</speed><time>2016-06-21T14:07:33Z</time><pdop>3.0</pdop><geoidheight>53.00</geoidheight><course>344.6</course><type>1</type></trkpt>
      <trkpt lat="39.25820239" lon="-6.1568073"><ele>1584</ele><speed>10.00</speed><time>2016-06-21T14:07:34Z</time><pdop>3.0</pdop><geoidheight>53.00</geoidheight><course>355.8</course><type>1</type></trkpt>
      <trkpt lat="39.25828926" lon="-6.15680489"><ele>1586</ele><speed>9.75</speed><time>2016-06-21T14:07:35Z</time><pdop>3.0</pdop><geoidheight>53.00</geoidheight><course>1.6</course><type>1</type></trkpt>
      <trkpt lat="39.25837098" lon="-6.15680196"><ele>1587</ele><speed>9.25</speed><time>2016-06-21T14:07:36Z</time><pdop>3.0</pdop><geoidheight>53.00</geoidheight><course>2.4</course><type>1</type></trkpt>
      <trkpt lat="39.25845541" lon="-6.15680141"><ele>1588</ele><speed>9.00</speed><time>2016-06-21T14:07:37Z</time><pdop>3.0</pdop><geoidheight>53.00</geoidheight><course>0.8</course><type>1</type></trkpt>
      <trkpt lat="39.25853832" lon="-6.1567915"><ele>1590</ele><speed>9.00</speed><time>2016-06-21T14:07:38Z</time><pdop>3.0</pdop><geoidheight>53.00</geoidheight><course>3.6</course><type>1</type></trkpt>
      <trkpt lat="39.25861905" lon="-6.15676971"><ele>1590</ele><speed>9.25</speed><time>2016-06-21T14:07:39Z</time><pdop>3.0</pdop><geoidheight>53.00</geoidheight><course>11.1</course><type>1</type></trkpt>
      <trkpt lat="39.25869407" lon="-6.15673124"><ele>1591</ele><speed>9.00</speed><time>2016-06-21T14:07:40Z</time><pdop>4.0</pdop><geoidheight>53.00</geoidheight><course>20.0</course><type>1</type></trkpt>
      <trkpt lat="39.25876414" lon="-6.15667469"><ele>1591</ele><speed>9.00</speed><time>2016-06-21T14:07:41Z</time><pdop>4.0</pdop><geoidheight>53.00</geoidheight><course>30.3</course><type>1</type></trkpt>
      <trkpt lat="39.25881741" lon="-6.15660161"><ele>1593</ele><speed>8.50</speed><time>2016-06-21T14:07:42Z</time><pdop>3.0</pdop><geoidheight>53.00</geoidheight><course>43.5</course><type>1</type></trkpt>
      <trkpt lat="39.25885014" lon="-6.15652919"><ele>1595</ele><speed>7.25</speed><time>2016-06-21T14:07:43Z</time><pdop>3.0</pdop><geoidheight>53.00</geoidheight><course>60.1</course><type>1</type></trkpt>
      <trkpt lat="39.25885821" lon="-6.15645238"><ele>1596</ele><speed>6.50</speed><time>2016-06-21T14:07:44Z</time><pdop>3.0</pdop><geoidheight>53.00</geoidheight><course>78.6</course><type>1</type></trkpt>
      <trkpt lat="39.25885071" lon="-6.15637877"><ele>1597</ele><speed>6.50</speed><time>2016-06-21T14:07:45Z</time><pdop>3.0</pdop><geoidheight>53.00</geoidheight><course>91.7</course><type>1</type></trkpt>
      <trkpt lat="39.25883414" lon="-6.15630241"><ele>1598</ele><speed>6.75</speed><time>2016-06-21T14:07:46Z</time><pdop>3.0</pdop><geoidheight>53.00</geoidheight><course>103.9</course><type>1</type></trkpt>
      <trkpt lat="39.25880268" lon="-6.15622873"><ele>1598</ele><speed>7.25</speed><time>2016-06-21T14:07:47Z</time><pdop>3.0</pdop><geoidheight>53.00</geoidheight><course>119.3</course><type>1</type></trkpt>
      <trkpt lat="39.25875105" lon="-6.1561715"><ele>1599</ele><speed>7.75</speed><time>2016-06-21T14:07:48Z</time><pdop>3.0</pdop><geoidheight>53.00</geoidheight><course>137.4</course><type>1</type></trkpt>
      <trkpt lat="39.25868581" lon="-6.15613578"><ele>1600</ele><speed>7.75</speed><time>2016-06-21T14:07:49Z</time><pdop>3.0</pdop><geoidheight>53.00</geoidheight><course>155.6</course><type>1</type></trkpt>
      <trkpt lat="39.25861727" lon="-6.15612972"><ele>1602</ele><speed>7.75</speed><time>2016-06-21T14:07:50Z</time><pdop>3.0</pdop><geoidheight>53.00</geoidheight><course>173.9</course><type>1</type></trkpt>
      <trkpt lat="39.25855019" lon="-6.15614532"><ele>1602</ele><speed>7.75</speed><time>2016-06-21T14:07:51Z</time><pdop>4.0</pdop><geoidheight>53.00</geoidheight><course>188.7</course><type>1</type></trkpt>
      <trkpt lat="39.25848631" lon="-6.15619056"><ele>1604</ele><speed>8.00</speed><time>2016-06-21T14:07:52Z</time><pdop>3.0</pdop><geoidheight>53.00</geoidheight><course>205.1</course><type>1</type></trkpt>
      <trkpt lat="39.25842693" lon="-6.15625317"><ele>1605</ele><speed>8.50</speed><time>2016-06-21T14:07:53Z</time><pdop>3.0</pdop><geoidheight>53.00</geoidheight><course>217.0</course><type>1</type></trkpt>
      <trkpt lat="39.25836969" lon="-6.15633658"><ele>1605</ele><speed>9.25</speed><time>2016-06-21T14:07:54Z</time><pdop>3.0</pdop><geoidheight>53.00</geoidheight><course>228.8</course><type>1</type></trkpt>
      <trkpt lat="39.25831385" lon="-6.15656626"><ele>1606</ele><speed>10.50</speed><time>2016-06-21T14:07:56Z</time><pdop>3.0</pdop><geoidheight>53.00</geoidheight><course>257.4</course><type>1</type></trkpt>
      <trkpt lat="39.25833337" lon="-6.15683051"><ele>1608</ele><speed>11.75</speed><time>2016-06-21T14:07:58Z</time><pdop>3.0</pdop><geoidheight>53.00</geoidheight><course>277.4</course><type>1</type></trkpt>
      <trkpt lat="39.25836683" lon="-6.15695556"><ele>1609</ele><speed>11.25</speed><time>2016-06-21T14:07:59Z</time><pdop>4.0</pdop><geoidheight>53.00</geoidheight><course>287.7</course><type>1</type></trkpt>
      <trkpt lat="39.25842272" lon="-6.15705791"><ele>1610</ele><speed>10.75</speed><time>2016-06-21T14:08:00Z</time><pdop>3.0</pdop><geoidheight>53.00</geoidheight><course>302.1</course><type>1</type></trkpt>
      <trkpt lat="39.25849101" lon="-6.15713983"><ele>1611</ele><speed>10.25</speed><time>2016-06-21T14:08:01Z</time><pdop>3.0</pdop><geoidheight>53.00</geoidheight><course>314.9</course><type>1</type></trkpt>
      <trkpt lat="39.25856327" lon="-6.1571981"><ele>1612</ele><speed>9.75</speed><time>2016-06-21T14:08:02Z</time><pdop>3.0</pdop><geoidheight>53.00</geoidheight><course>327.6</course><type>1</type></trkpt>
      <trkpt lat="39.25864122" lon="-6.1572334"><ele>1613</ele><speed>9.25</speed><time>2016-06-21T14:08:03Z</time><pdop>3.0</pdop><geoidheight>53.00</geoidheight><course>339.0</course><type>1</type></trkpt>
      <trkpt lat="39.25872319" lon="-6.15725136"><ele>1613</ele><speed>9.25</speed><time>2016-06-21T14:08:04Z</time><pdop>3.0</pdop><geoidheight>53.00</geoidheight><course>349.9</course><type>1</type></trkpt>
      <trkpt lat="39.2588115" lon="-6.15725709"><ele>1614</ele><speed>9.75</speed><time>2016-06-21T14:08:05Z</time><pdop>3.0</pdop><geoidheight>53.00</geoidheight><course>357.0</course><type>1</type></trkpt>
      <trkpt lat="39.25890249" lon="-6.15724194"><ele>1614</ele><speed>10.00</speed><time>2016-06-21T14:08:06Z</time><pdop>3.0</pdop><geoidheight>53.00</geoidheight><course>4.4</course><type>1</type></trkpt>
      <trkpt lat="39.25898744" lon="-6.15721781"><ele>1615</ele><speed>9.75</speed><time>2016-06-21T14:08:07Z</time><pdop>3.0</pdop><geoidheight>53.00</geoidheight><course>12.7</course><type>1</type></trkpt>
      <trkpt lat="39.25906139" lon="-6.15717117"><ele>1616</ele><speed>9.25</speed><time>2016-06-21T14:08:08Z</time><pdop>3.0</pdop><geoidheight>53.00</geoidheight><course>23.3</course><type>1</type></trkpt>
      <trkpt lat="39.25912027" lon="-6.15711028"><ele>1617</ele><speed>8.50</speed><time>2016-06-21T14:08:09Z</time><pdop>4.0</pdop><geoidheight>53.00</geoidheight><course>35.3</course><type>1</type></trkpt>
      <trkpt lat="39.25918449" lon="-6.15695444"><ele>1618</ele><speed>7.25</speed><time>2016-06-21T14:08:11Z</time><pdop>3.0</pdop><geoidheight>53.00</geoidheight><course>65.1</course><type>1</type></trkpt>
      <trkpt lat="39.25919702" lon="-6.1568701"><ele>1620</ele><speed>7.25</speed><time>2016-06-21T14:08:12Z</time><pdop>3.0</pdop><geoidheight>53.00</geoidheight><course>78.6</course><type>1</type></trkpt>
      <trkpt lat="39.25918959" lon="-6.15679386"><ele>1620</ele><speed>6.75</speed><time>2016-06-21T14:08:13Z</time><pdop>3.0</pdop><geoidheight>53.00</geoidheight><course>94.1</course><type>1</type></trkpt>
      <trkpt lat="39.25911716" lon="-6.15666805"><ele>1620</ele><speed>6.75</speed><time>2016-06-21T14:08:15Z</time><pdop>3.0</pdop><geoidheight>53.00</geoidheight><course>132.8</course><type>1</type></trkpt>
      <trkpt lat="39.2590567" lon="-6.15662382"><ele>1621</ele><speed>7.75</speed><time>2016-06-21T14:08:16Z</time><pdop>3.0</pdop><geoidheight>53.00</geoidheight><course>148.0</course><type>1</type></trkpt>
      <trkpt lat="39.25898715" lon="-6.15659047"><ele>1622</ele><speed>8.50</speed><time>2016-06-21T14:08:17Z</time><pdop>3.0</pdop><geoidheight>53.00</geoidheight><course>161.3</course><type>1</type></trkpt>
      <trkpt lat="39.25891204" lon="-6.15658478"><ele>1623</ele><speed>8.25</speed><time>2016-06-21T14:08:18Z</time><pdop>3.0</pdop><geoidheight>53.00</geoidheight><course>174.1</course><type>1</type></trkpt>
      <trkpt lat="39.25884643" lon="-6.15659916"><ele>1625</ele><speed>7.75</speed><time>2016-06-21T14:08:19Z</time><pdop>3.0</pdop><geoidheight>53.00</geoidheight><course>186.9</course><type>1</type></trkpt>
      <trkpt lat="39.258784" lon="-6.15662459"><ele>1626</ele><speed>7.25</speed><time>2016-06-21T14:08:20Z</time><pdop>3.0</pdop><geoidheight>53.00</geoidheight><course>197.3</course><type>1</type></trkpt>
      <trkpt lat="39.25872445" lon="-6.15666051"><ele>1626</ele><speed>7.25</speed><time>2016-06-21T14:08:21Z</time><pdop>4.0</pdop><geoidheight>53.00</geoidheight><course>203.7</course><type>1</type></trkpt>
      <trkpt lat="39.25866275" lon="-6.15671491"><ele>1627</ele><speed>7.75</speed><time>2016-06-21T14:08:22Z</time><pdop>3.0</pdop><geoidheight>53.00</geoidheight><course>211.5</course><type>1</type></trkpt>
      <trkpt lat="39.25860655" lon="-6.1567795"><ele>1627</ele><speed>8.50</speed><time>2016-06-21T14:08:23Z</time><pdop>3.0</pdop><geoidheight>53.00</geoidheight><course>219.2</course><type>1</type></trkpt>
      <trkpt lat="39.25855572" lon="-6.15686247"><ele>1627</ele><speed>9.00</speed><time>2016-06-21T14:08:24Z</time><pdop>3.0</pdop><geoidheight>53.00</geoidheight><course>228.7</course><type>1</type></trkpt>
      <trkpt lat="39.25852042" lon="-6.15695949"><ele>1628</ele><speed>9.50</speed><time>2016-06-21T14:08:25Z</time><pdop>3.0</pdop><geoidheight>53.00</geoidheight><course>241.5</course><type>1</type></trkpt>
      <trkpt lat="39.25850144" lon="-6.15706982"><ele>1628</ele><speed>9.75</speed><time>2016-06-21T14:08:26Z</time><pdop>3.0</pdop><geoidheight>53.00</geoidheight><course>255.4</course><type>1</type></trkpt>
      <trkpt lat="39.25850043" lon="-6.15718847"><ele>1627</ele><speed>10.25</speed><time>2016-06-21T14:08:27Z</time><pdop>4.0</pdop><geoidheight>53.00</geoidheight><course>268.9</course><type>1</type></trkpt>
      <trkpt lat="39.25850676" lon="-6.15731309"><ele>1627</ele><speed>10.75</speed><time>2016-06-21T14:08:28Z</time><pdop>4.0</pdop><geoidheight>53.00</geoidheight><course>273.9</course><type>1</type></trkpt>
      <trkpt lat="39.25853579" lon="-6.15744199"><ele>1627</ele><speed>11.25</speed><time>2016-06-21T14:08:29Z</time><pdop>5.0</pdop><geoidheight>53.00</geoidheight><course>282.0</course><type>1</type></trkpt>
      <trkpt lat="39.25861925" lon="-6.15753086"><ele>1628</ele><speed>11.00</speed><time>2016-06-21T14:08:30Z</time><pdop>3.0</pdop><geoidheight>53.00</geoidheight><course>303.3</course><type>1</type></trkpt>
      <trkpt lat="39.25868892" lon="-6.15761086"><ele>1628</ele><speed>10.25</speed><time>2016-06-21T14:08:31Z</time><pdop>4.0</pdop><geoidheight>53.00</geoidheight><course>319.7</course><type>1</type></trkpt>
      <trkpt lat="39.25875807" lon="-6.15765269"><ele>1628</ele><speed>9.00</speed><time>2016-06-21T14:08:32Z</time><pdop>4.0</pdop><geoidheight>53.00</geoidheight><course>330.6</course><type>1</type></trkpt>
      <trkpt lat="39.25885332" lon="-6.15763141"><ele>1628</ele><speed>9.50</speed><time>2016-06-21T14:08:33Z</time><pdop>3.0</pdop><geoidheight>53.00</geoidheight><course>358.0</course><type>1</type></trkpt>
      <trkpt lat="39.25893789" lon="-6.1576144"><ele>1628</ele><speed>9.25</speed><time>2016-06-21T14:08:34Z</time><pdop>3.0</pdop><geoidheight>53.00</geoidheight><course>10.0</course><type>1</type></trkpt>
      <trkpt lat="39.25901967" lon="-6.15758333"><ele>1629</ele><speed>9.00</speed><time>2016-06-21T14:08:35Z</time><pdop>3.0</pdop><geoidheight>53.00</geoidheight><course>16.0</course><type>1</type></trkpt>
      <trkpt lat="39.25908804" lon="-6.15755614"><ele>1630</ele><speed>8.50</speed><time>2016-06-21T14:08:36Z</time><pdop>3.0</pdop><geoidheight>53.00</geoidheight><course>19.6</course><type>1</type></trkpt>
      <trkpt lat="39.2591528" lon="-6.15751703"><ele>1631</ele><speed>8.00</speed><time>2016-06-21T14:08:37Z</time><pdop>3.0</pdop><geoidheight>53.00</geoidheight><course>24.8</course><type>1</type></trkpt>
      <trkpt lat="39.25921003" lon="-6.1574684"><ele>1631</ele><speed>7.75</speed><time>2016-06-21T14:08:38Z</time><pdop>3.0</pdop><geoidheight>53.00</geoidheight><course>32.1</course><type>1</type></trkpt>
      <trkpt lat="39.25926045" lon="-6.15740249"><ele>1631</ele><speed>7.75</speed><time>2016-06-21T14:08:39Z</time><pdop>3.0</pdop><geoidheight>53.00</geoidheight><course>41.1</course><type>1</type></trkpt>
      <trkpt lat="39.2593015" lon="-6.15733058"><ele>1631</ele><speed>7.75</speed><time>2016-06-21T14:08:40Z</time><pdop>3.0</pdop><geoidheight>53.00</geoidheight><course>50.0</course><type>1</type></trkpt>
      <trkpt lat="39.25933514" lon="-6.15725284"><ele>1632</ele><speed>7.50</speed><time>2016-06-21T14:08:41Z</time><pdop>3.0</pdop><geoidheight>53.00</geoidheight><course>59.1</course><type>1</type></trkpt>
      <trkpt lat="39.25935428" lon="-6.15717211"><ele>1631</ele><speed>7.25</speed><time>2016-06-21T14:08:42Z</time><pdop>3.0</pdop><geoidheight>53.00</geoidheight><course>68.3</course><type>1</type></trkpt>
      <trkpt lat="39.25936591" lon="-6.1570958"><ele>1631</ele><speed>7.00</speed><time>2016-06-21T14:08:43Z</time><pdop>3.0</pdop><geoidheight>53.00</geoidheight><course>78.0</course><type>1</type></trkpt>
      <trkpt lat="39.25936105" lon="-6.15701326"><ele>1631</ele><speed>7.00</speed><time>2016-06-21T14:08:44Z</time><pdop>3.0</pdop><geoidheight>53.00</geoidheight><course>90.4</course><type>1</type></trkpt>
      <trkpt lat="39.25928382" lon="-6.15684493"><ele>1630</ele><speed>9.00</speed><time>2016-06-21T14:08:46Z</time><pdop>3.0</pdop><geoidheight>53.00</geoidheight><course>127.1</course><type>1</type></trkpt>
      <trkpt lat="39.25921301" lon="-6.15677202"><ele>1631</ele><speed>10.00</speed><time>2016-06-21T14:08:47Z</time><pdop>3.0</pdop><geoidheight>53.00</geoidheight><course>141.1</course><type>1</type></trkpt>
      <trkpt lat="39.25913399" lon="-6.15671791"><ele>1634</ele><speed>10.00</speed><time>2016-06-21T14:08:48Z</time><pdop>3.0</pdop><geoidheight>53.00</geoidheight><course>151.2</course><type>1</type></trkpt>
      <trkpt lat="39.25906347" lon="-6.15668178"><ele>1637</ele><speed>8.50</speed><time>2016-06-21T14:08:49Z</time><pdop>3.0</pdop><geoidheight>53.00</geoidheight><course>157.7</course><type>1</type></trkpt>
      <trkpt lat="39.25900506" lon="-6.15665795"><ele>1639</ele><speed>7.00</speed><time>2016-06-21T14:08:50Z</time><pdop>3.0</pdop><geoidheight>53.00</geoidheight><course>161.2</course><type>1</type></trkpt>
      <trkpt lat="39.25894933" lon="-6.15663727"><ele>1640</ele><speed>6.50</speed><time>2016-06-21T14:08:51Z</time><pdop>3.0</pdop><geoidheight>53.00</geoidheight><course>162.4</course><type>1</type></trkpt>
      <trkpt lat="39.25889168" lon="-6.15661574"><ele>1640</ele><speed>6.75</speed><time>2016-06-21T14:08:52Z</time><pdop>3.0</pdop><geoidheight>53.00</geoidheight><course>163.6</course><type>1</type></trkpt>
      <trkpt lat="39.2588234" lon="-6.15659919"><ele>1639</ele><speed>7.25</speed><time>2016-06-21T14:08:53Z</time><pdop>3.0</pdop><geoidheight>53.00</geoidheight><course>168.9</course><type>1</type></trkpt>
      <trkpt lat="39.25875416" lon="-6.15660637"><ele>1639</ele><speed>7.50</speed><time>2016-06-21T14:08:54Z</time><pdop>3.0</pdop><geoidheight>53.00</geoidheight><course>182.2</course><type>1</type></trkpt>
      <trkpt lat="39.25867798" lon="-6.15663462"><ele>1638</ele><speed>8.50</speed><time>2016-06-21T14:08:55Z</time><pdop>3.0</pdop><geoidheight>53.00</geoidheight><course>193.1</course><type>1</type></trkpt>
      <trkpt lat="39.2585967" lon="-6.15667884"><ele>1638</ele><speed>10.00</speed><time>2016-06-21T14:08:56Z</time><pdop>3.0</pdop><geoidheight>53.00</geoidheight><course>200.5</course><type>1</type></trkpt>
      <trkpt lat="39.25851884" lon="-6.15675069"><ele>1638</ele><speed>10.50</speed><time>2016-06-21T14:08:57Z</time><pdop>3.0</pdop><geoidheight>53.00</geoidheight><course>213.7</course><type>1</type></trkpt>
      <trkpt lat="39.2584681" lon="-6.15685687"><ele>1638</ele><speed>11.00</speed><time>2016-06-21T14:08:58Z</time><pdop>3.0</pdop><geoidheight>53.00</geoidheight><course>235.4</course><type>1</type></trkpt>
      <trkpt lat="39.25844886" lon="-6.15699537"><ele>1638</ele><speed>11.75</speed><time>2016-06-21T14:08:59Z</time><pdop>4.0</pdop><geoidheight>53.00</geoidheight><course>256.2</course><type>1</type></trkpt>
      <trkpt lat="39.25846971" lon="-6.15713002"><ele>1638</ele><speed>12.00</speed><time>2016-06-21T14:09:00Z</time><pdop>3.0</pdop><geoidheight>53.00</geoidheight><course>277.4</course><type>1</type></trkpt>
      <trkpt lat="39.25852235" lon="-6.15724179"><ele>1639</ele><speed>11.25</speed><time>2016-06-21T14:09:01Z</time><pdop>3.0</pdop><geoidheight>53.00</geoidheight><course>299.3</course><type>1</type></trkpt>
      <trkpt lat="39.25858028" lon="-6.15733668"><ele>1639</ele><speed>10.50</speed><time>2016-06-21T14:09:02Z</time><pdop>4.0</pdop><geoidheight>53.00</geoidheight><course>307.7</course><type>1</type></trkpt>
      <trkpt lat="39.2586756" lon="-6.15733818"><ele>1639</ele><speed>9.50</speed><time>2016-06-21T14:09:03Z</time><pdop>3.0</pdop><geoidheight>53.00</geoidheight><course>342.0</course><type>1</type></trkpt>
      <trkpt lat="39.25875524" lon="-6.15734097"><ele>1638</ele><speed>9.00</speed><time>2016-06-21T14:09:04Z</time><pdop>3.0</pdop><geoidheight>53.00</geoidheight><course>357.9</course><type>1</type></trkpt>
      <trkpt lat="39.25883491" lon="-6.15732424"><ele>1639</ele><speed>9.00</speed><time>2016-06-21T14:09:05Z</time><pdop>3.0</pdop><geoidheight>53.00</geoidheight><course>7.5</course><type>1</type></trkpt>
      <trkpt lat="39.25891505" lon="-6.15729495"><ele>1639</ele><speed>9.25</speed><time>2016-06-21T14:09:06Z</time><pdop>3.0</pdop><geoidheight>53.00</geoidheight><course>14.9</course><type>1</type></trkpt>
      <trkpt lat="39.25899117" lon="-6.15725526"><ele>1640</ele><speed>9.00</speed><time>2016-06-21T14:09:07Z</time><pdop>3.0</pdop><geoidheight>53.00</geoidheight><course>22.6</course><type>1</type></trkpt>
      <trkpt lat="39.25905493" lon="-6.15719689"><ele>1640</ele><speed>8.75</speed><time>2016-06-21T14:09:08Z</time><pdop>3.0</pdop><geoidheight>53.00</geoidheight><course>32.4</course><type>1</type></trkpt>
      <trkpt lat="39.2591053" lon="-6.15712663"><ele>1641</ele><speed>8.25</speed><time>2016-06-21T14:09:09Z</time><pdop>3.0</pdop><geoidheight>53.00</geoidheight><course>45.0</course><type>1</type></trkpt>
      <trkpt lat="39.25914363" lon="-6.15705595"><ele>1642</ele><speed>7.50</speed><time>2016-06-21T14:09:10Z</time><pdop>3.0</pdop><geoidheight>53.00</geoidheight><course>53.7</course><type>1</type></trkpt>
      <trkpt lat="39.25918294" lon="-6.15699075"><ele>1642</ele><speed>7.00</speed><time>2016-06-21T14:09:11Z</time><pdop>3.0</pdop><geoidheight>53.00</geoidheight><course>51.5</course><type>1</type></trkpt>
      <trkpt lat="39.25923324" lon="-6.15693881"><ele>1642</ele><speed>7.25</speed><time>2016-06-21T14:09:12Z</time><pdop>3.0</pdop><geoidheight>53.00</geoidheight><course>41.5</course><type>1</type></trkpt>
      <trkpt lat="39.25930566" lon="-6.15689211"><ele>1642</ele><speed>8.50</speed><time>2016-06-21T14:09:13Z</time><pdop>3.0</pdop><geoidheight>53.00</geoidheight><course>27.7</course><type>1</type></trkpt>
      <trkpt lat="39.25938799" lon="-6.15685818"><ele>1642</ele><speed>9.50</speed><time>2016-06-21T14:09:14Z</time><pdop>4.0</pdop><geoidheight>53.00</geoidheight><course>18.1</course><type>1</type></trkpt>
      <trkpt lat="39.25948661" lon="-6.15684057"><ele>1643</ele><speed>10.50</speed><time>2016-06-21T14:09:15Z</time><pdop>3.0</pdop><geoidheight>53.00</geoidheight><course>9.4</course><type>1</type></trkpt>
      <trkpt lat="39.25957483" lon="-6.15682822"><ele>1645</ele><speed>9.75</speed><time>2016-06-21T14:09:16Z</time><pdop>3.0</pdop><geoidheight>53.00</geoidheight><course>6.6</course><type>1</type></trkpt>
      <trkpt lat="39.25965708" lon="-6.15681453"><ele>1647</ele><speed>9.00</speed><time>2016-06-21T14:09:17Z</time><pdop>3.0</pdop><geoidheight>53.00</geoidheight><course>7.1</course><type>1</type></trkpt>
      <trkpt lat="39.259731" lon="-6.15679906"><ele>1649</ele><speed>8.25</speed><time>2016-06-21T14:09:18Z</time><pdop>3.0</pdop><geoidheight>53.00</geoidheight><course>8.5</course><type>1</type></trkpt>
      <trkpt lat="39.25980204" lon="-6.15678419"><ele>1650</ele><speed>8.00</speed><time>2016-06-21T14:09:19Z</time><pdop>3.0</pdop><geoidheight>53.00</geoidheight><course>9.8</course><type>1</type></trkpt>
      <trkpt lat="39.25987" lon="-6.15675862"><ele>1651</ele><speed>7.75</speed><time>2016-06-21T14:09:20Z</time><pdop>4.0</pdop><geoidheight>53.00</geoidheight><course>16.3</course><type>1</type></trkpt>
      <trkpt lat="39.25992542" lon="-6.15670425"><ele>1652</ele><speed>7.50</speed><time>2016-06-21T14:09:21Z</time><pdop>3.0</pdop><geoidheight>53.00</geoidheight><course>35.6</course><type>1</type></trkpt>
      <trkpt lat="39.25995528" lon="-6.1566187"><ele>1651</ele><speed>8.25</speed><time>2016-06-21T14:09:22Z</time><pdop>3.0</pdop><geoidheight>53.00</geoidheight><course>62.5</course><type>1</type></trkpt>
      <trkpt lat="39.25995836" lon="-6.15650747"><ele>1651</ele><speed>9.50</speed><time>2016-06-21T14:09:23Z</time><pdop>3.0</pdop><geoidheight>53.00</geoidheight><course>84.5</course><type>1</type></trkpt>
      <trkpt lat="39.25993514" lon="-6.15639762"><ele>1654</ele><speed>9.75</speed><time>2016-06-21T14:09:24Z</time><pdop>3.0</pdop><geoidheight>53.00</geoidheight><course>103.4</course><type>1</type></trkpt>
      <trkpt lat="39.25989085" lon="-6.15630851"><ele>1657</ele><speed>9.00</speed><time>2016-06-21T14:09:25Z</time><pdop>3.0</pdop><geoidheight>53.00</geoidheight><course>119.8</course><type>1</type></trkpt>
      <trkpt lat="39.25983596" lon="-6.156254"><ele>1659</ele><speed>7.75</speed><time>2016-06-21T14:09:26Z</time><pdop>3.0</pdop><geoidheight>53.00</geoidheight><course>140.5</course><type>1</type></trkpt>
      <trkpt lat="39.25977287" lon="-6.15623314"><ele>1660</ele><speed>7.25</speed><time>2016-06-21T14:09:27Z</time><pdop>3.0</pdop><geoidheight>53.00</geoidheight><course>163.0</course><type>1</type></trkpt>
      <trkpt lat="39.25970744" lon="-6.15623442"><ele>1661</ele><speed>7.50</speed><time>2016-06-21T14:09:28Z</time><pdop>3.0</pdop><geoidheight>53.00</geoidheight><course>180.1</course><type>1</type></trkpt>
      <trkpt lat="39.25963867" lon="-6.15626214"><ele>1662</ele><speed>8.00</speed><time>2016-06-21T14:09:29Z</time><pdop>3.0</pdop><geoidheight>53.00</geoidheight><course>195.4</course><type>1</type></trkpt>
      <trkpt lat="39.25957516" lon="-6.15631662"><ele>1662</ele><speed>8.50</speed><time>2016-06-21T14:09:30Z</time><pdop>4.0</pdop><geoidheight>53.00</geoidheight><course>210.5</course><type>1</type></trkpt>
      <trkpt lat="39.25951331" lon="-6.15641368"><ele>1662</ele><speed>10.00</speed><time>2016-06-21T14:09:31Z</time><pdop>3.0</pdop><geoidheight>53.00</geoidheight><course>227.7</course><type>1</type></trkpt>
      <trkpt lat="39.25947378" lon="-6.15652604"><ele>1663</ele><speed>10.75</speed><time>2016-06-21T14:09:32Z</time><pdop>3.0</pdop><geoidheight>53.00</geoidheight><course>242.7</course><type>1</type></trkpt>
      <trkpt lat="39.25945774" lon="-6.15664859"><ele>1666</ele><speed>10.50</speed><time>2016-06-21T14:09:33Z</time><pdop>3.0</pdop><geoidheight>53.00</geoidheight><course>259.4</course><type>1</type></trkpt>
      <trkpt lat="39.25945355" lon="-6.1567752"><ele>1666</ele><speed>10.75</speed><time>2016-06-21T14:09:34Z</time><pdop>4.0</pdop><geoidheight>53.00</geoidheight><course>266.4</course><type>1</type></trkpt>
      <trkpt lat="39.25951381" lon="-6.15686708"><ele>1668</ele><speed>10.00</speed><time>2016-06-21T14:09:35Z</time><pdop>3.0</pdop><geoidheight>53.00</geoidheight><course>294.5</course><type>1</type></trkpt>
      <trkpt lat="39.25957247" lon="-6.1569543"><ele>1668</ele><speed>10.00</speed><time>2016-06-21T14:09:36Z</time><pdop>3.0</pdop><geoidheight>53.00</geoidheight><course>306.9</course><type>1</type></trkpt>
      <trkpt lat="39.25963585" lon="-6.15702877"><ele>1669</ele><speed>9.50</speed><time>2016-06-21T14:09:37Z</time><pdop>3.0</pdop><geoidheight>53.00</geoidheight><course>314.8</course><type>1</type></trkpt>
      <trkpt lat="39.25970533" lon="-6.15708967"><ele>1670</ele><speed>9.50</speed><time>2016-06-21T14:09:38Z</time><pdop>3.0</pdop><geoidheight>53.00</geoidheight><course>325.4</course><type>1</type></trkpt>
      <trkpt lat="39.25978329" lon="-6.15711738"><ele>1671</ele><speed>9.25</speed><time>2016-06-21T14:09:39Z</time><pdop>3.0</pdop><geoidheight>53.00</geoidheight><course>341.2</course><type>1</type></trkpt>
      <trkpt lat="39.25994698" lon="-6.15704519"><ele>1668</ele><speed>9.75</speed><time>2016-06-21T14:09:41Z</time><pdop>4.0</pdop><geoidheight>53.00</geoidheight><course>29.0</course><type>1</type></trkpt>
      <trkpt lat="39.2599939" lon="-6.15694851"><ele>1669</ele><speed>9.75</speed><time>2016-06-21T14:09:42Z</time><pdop>3.0</pdop><geoidheight>53.00</geoidheight><course>54.7</course><type>1</type></trkpt>
      <trkpt lat="39.26000631" lon="-6.15684426"><ele>1670</ele><speed>9.00</speed><time>2016-06-21T14:09:43Z</time><pdop>3.0</pdop><geoidheight>53.00</geoidheight><course>77.4</course><type>1</type></trkpt>
      <trkpt lat="39.25998913" lon="-6.15675082"><ele>1670</ele><speed>8.00</speed><time>2016-06-21T14:09:44Z</time><pdop>3.0</pdop><geoidheight>53.00</geoidheight><course>101.0</course><type>1</type></trkpt>
      <trkpt lat="39.25994976" lon="-6.15667107"><ele>1670</ele><speed>8.00</speed><time>2016-06-21T14:09:45Z</time><pdop>3.0</pdop><geoidheight>53.00</geoidheight><course>120.7</course><type>1</type></trkpt>
      <trkpt lat="39.25989411" lon="-6.15660401"><ele>1670</ele><speed>8.50</speed><time>2016-06-21T14:09:46Z</time><pdop>3.0</pdop><geoidheight>53.00</geoidheight><course>135.5</course><type>1</type></trkpt>
      <trkpt lat="39.25982366" lon="-6.15655235"><ele>1671</ele><speed>9.00</speed><time>2016-06-21T14:09:47Z</time><pdop>3.0</pdop><geoidheight>53.00</geoidheight><course>148.3</course><type>1</type></trkpt>
      <trkpt lat="39.25974205" lon="-6.15652214"><ele>1672</ele><speed>9.25</speed><time>2016-06-21T14:09:48Z</time><pdop>3.0</pdop><geoidheight>53.00</geoidheight><course>162.4</course><type>1</type></trkpt>
      <trkpt lat="39.25958023" lon="-6.15655635"><ele>1675</ele><speed>9.00</speed><time>2016-06-21T14:09:50Z</time><pdop>3.0</pdop><geoidheight>53.00</geoidheight><course>194.2</course><type>1</type></trkpt>
      <trkpt lat="39.25950858" lon="-6.15660242"><ele>1676</ele><speed>8.50</speed><time>2016-06-21T14:09:51Z</time><pdop>3.0</pdop><geoidheight>53.00</geoidheight><course>203.3</course><type>1</type></trkpt>
      <trkpt lat="39.25944366" lon="-6.15664835"><ele>1678</ele><speed>7.75</speed><time>2016-06-21T14:09:52Z</time><pdop>3.0</pdop><geoidheight>53.00</geoidheight><course>206.0</course><type>1</type></trkpt>
      <trkpt lat="39.25938609" lon="-6.15668259"><ele>1679</ele><speed>7.25</speed><time>2016-06-21T14:09:53Z</time><pdop>3.0</pdop><geoidheight>53.00</geoidheight><course>206.0</course><type>1</type></trkpt>
      <trkpt lat="39.25933705" lon="-6.15673397"><ele>1681</ele><speed>7.25</speed><time>2016-06-21T14:09:54Z</time><pdop>3.0</pdop><geoidheight>53.00</geoidheight><course>214.0</course><type>1</type></trkpt>
      <trkpt lat="39.25929024" lon="-6.1568081"><ele>1682</ele><speed>8.25</speed><time>2016-06-21T14:09:55Z</time><pdop>3.0</pdop><geoidheight>53.00</geoidheight><course>228.3</course><type>1</type></trkpt>
      <trkpt lat="39.25925252" lon="-6.15690721"><ele>1684</ele><speed>9.50</speed><time>2016-06-21T14:09:56Z</time><pdop>3.0</pdop><geoidheight>53.00</geoidheight><course>241.4</course><type>1</type></trkpt>
      <trkpt lat="39.25922597" lon="-6.15702037"><ele>1688</ele><speed>10.25</speed><time>2016-06-21T14:09:57Z</time><pdop>3.0</pdop><geoidheight>53.00</geoidheight><course>252.3</course><type>1</type></trkpt>
      <trkpt lat="39.2592166" lon="-6.15714161"><ele>1692</ele><speed>10.00</speed><time>2016-06-21T14:09:58Z</time><pdop>3.0</pdop><geoidheight>53.00</geoidheight><course>263.6</course><type>1</type></trkpt>
      <trkpt lat="39.25921629" lon="-6.15726186"><ele>1695</ele><speed>10.25</speed><time>2016-06-21T14:09:59Z</time><pdop>4.0</pdop><geoidheight>53.00</geoidheight><course>268.3</course><type>1</type></trkpt>
      <trkpt lat="39.25923213" lon="-6.15738535"><ele>1696</ele><speed>10.50</speed><time>2016-06-21T14:10:00Z</time><pdop>5.0</pdop><geoidheight>53.00</geoidheight><course>275.8</course><type>1</type></trkpt>
      <trkpt lat="39.25926909" lon="-6.15749743"><ele>1696</ele><speed>10.50</speed><time>2016-06-21T14:10:01Z</time><pdop>5.0</pdop><geoidheight>53.00</geoidheight><course>285.5</course><type>1</type></trkpt>
      <trkpt lat="39.2593556" lon="-6.15755766"><ele>1695</ele><speed>10.00</speed><time>2016-06-21T14:10:02Z</time><pdop>3.0</pdop><geoidheight>53.00</geoidheight><course>309.3</course><type>1</type></trkpt>
      <trkpt lat="39.25942429" lon="-6.15765586"><ele>1695</ele><speed>11.50</speed><time>2016-06-21T14:10:03Z</time><pdop>3.0</pdop><geoidheight>53.00</geoidheight><course>312.2</course><type>1</type></trkpt>
      <trkpt lat="39.25950031" lon="-6.15775229"><ele>1695</ele><speed>12.00</speed><time>2016-06-21T14:10:04Z</time><pdop>3.0</pdop><geoidheight>53.00</geoidheight><course>315.7</course><type>1</type></trkpt>
      <trkpt lat="39.25958699" lon="-6.15781352"><ele>1696</ele><speed>10.75</speed><time>2016-06-21T14:10:05Z</time><pdop>4.0</pdop><geoidheight>53.00</geoidheight><course>327.1</course><type>1</type></trkpt>
      <trkpt lat="39.25967575" lon="-6.15781603"><ele>1696</ele><speed>9.75</speed><time>2016-06-21T14:10:06Z</time><pdop>3.0</pdop><geoidheight>53.00</geoidheight><course>351.9</course><type>1</type></trkpt>
      <trkpt lat="39.25975489" lon="-6.15777575"><ele>1695</ele><speed>9.25</speed><time>2016-06-21T14:10:07Z</time><pdop>3.0</pdop><geoidheight>53.00</geoidheight><course>17.3</course><type>1</type></trkpt>
      <trkpt lat="39.25982628" lon="-6.15770406"><ele>1695</ele><speed>10.00</speed><time>2016-06-21T14:10:08Z</time><pdop>3.0</pdop><geoidheight>53.00</geoidheight><course>37.3</course><type>1</type></trkpt>
      <trkpt lat="39.25988591" lon="-6.15761381"><ele>1695</ele><speed>10.00</speed><time>2016-06-21T14:10:09Z</time><pdop>3.0</pdop><geoidheight>53.00</geoidheight><course>47.0</course><type>1</type></trkpt>
      <trkpt lat="39.25992654" lon="-6.15752456"><ele>1695</ele><speed>9.00</speed><time>2016-06-21T14:10:10Z</time><pdop>3.0</pdop><geoidheight>53.00</geoidheight><course>56.7</course><type>1</type></trkpt>
      <trkpt lat="39.25994543" lon="-6.15744702"><ele>1696</ele><speed>7.50</speed><time>2016-06-21T14:10:11Z</time><pdop>3.0</pdop><geoidheight>53.00</geoidheight><course>74.0</course><type>1</type></trkpt>
      <trkpt lat="39.25994174" lon="-6.15735959"><ele>1695</ele><speed>7.25</speed><time>2016-06-21T14:10:12Z</time><pdop>3.0</pdop><geoidheight>53.00</geoidheight><course>92.2</course><type>1</type></trkpt>
      <trkpt lat="39.2599245" lon="-6.15727046"><ele>1695</ele><speed>7.75</speed><time>2016-06-21T14:10:13Z</time><pdop>3.0</pdop><geoidheight>53.00</geoidheight><course>102.1</course><type>1</type></trkpt>
      <trkpt lat="39.25989939" lon="-6.15719023"><ele>1696</ele><speed>7.50</speed><time>2016-06-21T14:10:14Z</time><pdop>3.0</pdop><geoidheight>53.00</geoidheight><course>109.1</course><type>1</type></trkpt>
      <trkpt lat="39.25986247" lon="-6.15712208"><ele>1696</ele><speed>7.00</speed><time>2016-06-21T14:10:15Z</time><pdop>3.0</pdop><geoidheight>53.00</geoidheight><course>121.2</course><type>1</type></trkpt>
      <trkpt lat="39.2598128" lon="-6.15706916"><ele>1696</ele><speed>7.25</speed><time>2016-06-21T14:10:16Z</time><pdop>3.0</pdop><geoidheight>53.00</geoidheight><course>139.1</course><type>1</type></trkpt>
      <trkpt lat="39.25974743" lon="-6.15703528"><ele>1696</ele><speed>7.75</speed><time>2016-06-21T14:10:17Z</time><pdop>3.0</pdop><geoidheight>53.00</geoidheight><course>157.0</course><type>1</type></trkpt>
      <trkpt lat="39.25966989" lon="-6.15704066"><ele>1697</ele><speed>8.50</speed><time>2016-06-21T14:10:18Z</time><pdop>3.0</pdop><geoidheight>53.00</geoidheight><course>179.1</course><type>1</type></trkpt>
      <trkpt lat="39.2595956" lon="-6.1570745"><ele>1697</ele><speed>8.75</speed><time>2016-06-21T14:10:19Z</time><pdop>4.0</pdop><geoidheight>53.00</geoidheight><course>198.8</course><type>1</type></trkpt>
      <trkpt lat="39.25954064" lon="-6.15714965"><ele>1699</ele><speed>9.00</speed><time>2016-06-21T14:10:20Z</time><pdop>3.0</pdop><geoidheight>53.00</geoidheight><course>220.8</course><type>1</type></trkpt>
      <trkpt lat="39.25949756" lon="-6.15724302"><ele>1700</ele><speed>9.25</speed><time>2016-06-21T14:10:21Z</time><pdop>3.0</pdop><geoidheight>53.00</geoidheight><course>235.9</course><type>1</type></trkpt>
      <trkpt lat="39.25946613" lon="-6.15734934"><ele>1701</ele><speed>9.50</speed><time>2016-06-21T14:10:22Z</time><pdop>3.0</pdop><geoidheight>53.00</geoidheight><course>248.0</course><type>1</type></trkpt>
      <trkpt lat="39.25944509" lon="-6.15745918"><ele>1703</ele><speed>9.75</speed><time>2016-06-21T14:10:23Z</time><pdop>3.0</pdop><geoidheight>53.00</geoidheight><course>255.7</course><type>1</type></trkpt>
      <trkpt lat="39.2594299" lon="-6.15756311"><ele>1706</ele><speed>9.25</speed><time>2016-06-21T14:10:24Z</time><pdop>3.0</pdop><geoidheight>53.00</geoidheight><course>258.2</course><type>1</type></trkpt>
      <trkpt lat="39.2594138" lon="-6.15765891"><ele>1709</ele><speed>8.50</speed><time>2016-06-21T14:10:25Z</time><pdop>3.0</pdop><geoidheight>53.00</geoidheight><course>256.6</course><type>1</type></trkpt>
      <trkpt lat="39.25938293" lon="-6.15774106"><ele>1711</ele><speed>7.75</speed><time>2016-06-21T14:10:26Z</time><pdop>4.0</pdop><geoidheight>53.00</geoidheight><course>247.2</course><type>1</type></trkpt>
      <trkpt lat="39.25933858" lon="-6.15780535"><ele>1712</ele><speed>7.50</speed><time>2016-06-21T14:10:27Z</time><pdop>3.0</pdop><geoidheight>53.00</geoidheight><course>231.0</course><type>1</type></trkpt>
      <trkpt lat="39.25927913" lon="-6.15785261"><ele>1712</ele><speed>7.75</speed><time>2016-06-21T14:10:28Z</time><pdop>3.0</pdop><geoidheight>53.00</geoidheight><course>213.5</course><type>1</type></trkpt>
      <trkpt lat="39.25920554" lon="-6.15789755"><ele>1713</ele><speed>8.75</speed><time>2016-06-21T14:10:29Z</time><pdop>3.0</pdop><geoidheight>53.00</geoidheight><course>207.0</course><type>1</type></trkpt>
      <trkpt lat="39.25913937" lon="-6.15795485"><ele>1715</ele><speed>8.75</speed><time>2016-06-21T14:10:30Z</time><pdop>3.0</pdop><geoidheight>53.00</geoidheight><course>213.4</course><type>1</type></trkpt>
      <trkpt lat="39.25908814" lon="-6.15803466"><ele>1717</ele><speed>9.00</speed><time>2016-06-21T14:10:31Z</time><pdop>3.0</pdop><geoidheight>53.00</geoidheight><course>229.6</course><type>1</type></trkpt>
      <trkpt lat="39.25905846" lon="-6.15813741"><ele>1718</ele><speed>9.50</speed><time>2016-06-21T14:10:32Z</time><pdop>4.0</pdop><geoidheight>53.00</geoidheight><course>246.7</course><type>1</type></trkpt>
      <trkpt lat="39.25904334" lon="-6.15824734"><ele>1718</ele><speed>9.75</speed><time>2016-06-21T14:10:33Z</time><pdop>4.0</pdop><geoidheight>53.00</geoidheight><course>257.6</course><type>1</type></trkpt>
      <trkpt lat="39.25908874" lon="-6.15838241"><ele>1719</ele><speed>11.25</speed><time>2016-06-21T14:10:34Z</time><pdop>3.0</pdop><geoidheight>53.00</geoidheight><course>283.4</course><type>1</type></trkpt>
      <trkpt lat="39.25914503" lon="-6.1584913"><ele>1719</ele><speed>11.25</speed><time>2016-06-21T14:10:35Z</time><pdop>3.0</pdop><geoidheight>53.00</geoidheight><course>301.7</course><type>1</type></trkpt>
      <trkpt lat="39.25921102" lon="-6.15858369"><ele>1719</ele><speed>10.75</speed><time>2016-06-21T14:10:36Z</time><pdop>4.0</pdop><geoidheight>53.00</geoidheight><course>310.4</course><type>1</type></trkpt>
      <trkpt lat="39.25930742" lon="-6.158598"><ele>1718</ele><speed>10.00</speed><time>2016-06-21T14:10:37Z</time><pdop>3.0</pdop><geoidheight>53.00</geoidheight><course>339.6</course><type>1</type></trkpt>
      <trkpt lat="39.259397129999996" lon="-6.15859816"><ele>1717</ele><speed>9.75</speed><time>2016-06-21T14:10:38Z</time><pdop>3.0</pdop><geoidheight>53.00</geoidheight><course>358.7</course><type>1</type></trkpt>
      <trkpt lat="39.2594741" lon="-6.15857467"><ele>1717</ele><speed>9.00</speed><time>2016-06-21T14:10:39Z</time><pdop>3.0</pdop><geoidheight>53.00</geoidheight><course>12.5</course><type>1</type></trkpt>
      <trkpt lat="39.25954541" lon="-6.15853115"><ele>1716</ele><speed>8.75</speed><time>2016-06-21T14:10:40Z</time><pdop>3.0</pdop><geoidheight>53.00</geoidheight><course>24.8</course><type>1</type></trkpt>
      <trkpt lat="39.25961197" lon="-6.15847249"><ele>1715</ele><speed>9.25</speed><time>2016-06-21T14:10:41Z</time><pdop>4.0</pdop><geoidheight>53.00</geoidheight><course>33.3</course><type>1</type></trkpt>
      <trkpt lat="39.25967753" lon="-6.15839965"><ele>1713</ele><speed>9.50</speed><time>2016-06-21T14:10:42Z</time><pdop>3.0</pdop><geoidheight>53.00</geoidheight><course>39.5</course><type>1</type></trkpt>
      <trkpt lat="39.25982374" lon="-6.15809226"><ele>1714</ele><speed>10.75</speed><time>2016-06-21T14:10:45Z</time><pdop>3.0</pdop><geoidheight>53.00</geoidheight><course>66.8</course><type>1</type></trkpt>
      <trkpt lat="39.25984423" lon="-6.15798247"><ele>1717</ele><speed>10.00</speed><time>2016-06-21T14:10:46Z</time><pdop>3.0</pdop><geoidheight>53.00</geoidheight><course>74.2</course><type>1</type></trkpt>
      <trkpt lat="39.25985634" lon="-6.15787686"><ele>1719</ele><speed>9.25</speed><time>2016-06-21T14:10:47Z</time><pdop>3.0</pdop><geoidheight>53.00</geoidheight><course>80.8</course><type>1</type></trkpt>
      <trkpt lat="39.25983809" lon="-6.15767558"><ele>1721</ele><speed>8.75</speed><time>2016-06-21T14:10:49Z</time><pdop>3.0</pdop><geoidheight>53.00</geoidheight><course>101.4</course><type>1</type></trkpt>
      <trkpt lat="39.25979698" lon="-6.15757162"><ele>1722</ele><speed>9.75</speed><time>2016-06-21T14:10:50Z</time><pdop>4.0</pdop><geoidheight>53.00</geoidheight><course>115.4</course><type>1</type></trkpt>
      <trkpt lat="39.25965902" lon="-6.15741904"><ele>1724</ele><speed>9.75</speed><time>2016-06-21T14:10:52Z</time><pdop>4.0</pdop><geoidheight>53.00</geoidheight><course>146.1</course><type>1</type></trkpt>
      <trkpt lat="39.25957056" lon="-6.15737331"><ele>1728</ele><speed>10.25</speed><time>2016-06-21T14:10:53Z</time><pdop>3.0</pdop><geoidheight>53.00</geoidheight><course>157.1</course><type>1</type></trkpt>
      <trkpt lat="39.2594112" lon="-6.15734586"><ele>1736</ele><speed>8.50</speed><time>2016-06-21T14:10:55Z</time><pdop>3.0</pdop><geoidheight>53.00</geoidheight><course>173.9</course><type>1</type></trkpt>
      <trkpt lat="39.2593445" lon="-6.15735223"><ele>1740</ele><speed>7.50</speed><time>2016-06-21T14:10:56Z</time><pdop>3.0</pdop><geoidheight>53.00</geoidheight><course>182.2</course><type>1</type></trkpt>
      <trkpt lat="39.25924402" lon="-6.15744008"><ele>1745</ele><speed>6.75</speed><time>2016-06-21T14:10:58Z</time><pdop>4.0</pdop><geoidheight>53.00</geoidheight><course>223.7</course><type>1</type></trkpt>
      <trkpt lat="39.25919276" lon="-6.15762308"><ele>1748</ele><speed>8.75</speed><time>2016-06-21T14:11:00Z</time><pdop>3.0</pdop><geoidheight>53.00</geoidheight><course>252.7</course><type>1</type></trkpt>
      <trkpt lat="39.25922208" lon="-6.15784791"><ele>1752</ele><speed>10.50</speed><time>2016-06-21T14:11:02Z</time><pdop>3.0</pdop><geoidheight>53.00</geoidheight><course>286.8</course><type>1</type></trkpt>
      <trkpt lat="39.25928723" lon="-6.15794766"><ele>1755</ele><speed>11.00</speed><time>2016-06-21T14:11:03Z</time><pdop>3.0</pdop><geoidheight>53.00</geoidheight><course>307.2</course><type>1</type></trkpt>
      <trkpt lat="39.25937175" lon="-6.15801196"><ele>1757</ele><speed>10.50</speed><time>2016-06-21T14:11:04Z</time><pdop>4.0</pdop><geoidheight>53.00</geoidheight><course>325.3</course><type>1</type></trkpt>
      <trkpt lat="39.25953708" lon="-6.15804079"><ele>1764</ele><speed>8.75</speed><time>2016-06-21T14:11:06Z</time><pdop>3.0</pdop><geoidheight>53.00</geoidheight><course>357.7</course><type>1</type></trkpt>
      <trkpt lat="39.2596063" lon="-6.1580227"><ele>1768</ele><speed>8.00</speed><time>2016-06-21T14:11:07Z</time><pdop>3.0</pdop><geoidheight>53.00</geoidheight><course>12.4</course><type>1</type></trkpt>
      <trkpt lat="39.2596668" lon="-6.15797927"><ele>1771</ele><speed>7.50</speed><time>2016-06-21T14:11:08Z</time><pdop>4.0</pdop><geoidheight>53.00</geoidheight><course>27.7</course><type>1</type></trkpt>
      <trkpt lat="39.25974426" lon="-6.15782899"><ele>1775</ele><speed>8.00</speed><time>2016-06-21T14:11:10Z</time><pdop>3.0</pdop><geoidheight>53.00</geoidheight><course>64.4</course><type>1</type></trkpt>
      <trkpt lat="39.25974002" lon="-6.15762199"><ele>1779</ele><speed>9.00</speed><time>2016-06-21T14:11:12Z</time><pdop>3.0</pdop><geoidheight>53.00</geoidheight><course>96.3</course><type>1</type></trkpt>
      <trkpt lat="39.25970606" lon="-6.15752886"><ele>1781</ele><speed>9.00</speed><time>2016-06-21T14:11:13Z</time><pdop>3.0</pdop><geoidheight>53.00</geoidheight><course>114.2</course><type>1</type></trkpt>
      <trkpt lat="39.25958695" lon="-6.15738385"><ele>1786</ele><speed>9.00</speed><time>2016-06-21T14:11:15Z</time><pdop>3.0</pdop><geoidheight>53.00</geoidheight><course>141.0</course><type>1</type></trkpt>
      <trkpt lat="39.25951282" lon="-6.15734212"><ele>1788</ele><speed>9.00</speed><time>2016-06-21T14:11:16Z</time><pdop>3.0</pdop><geoidheight>53.00</geoidheight><course>155.1</course><type>1</type></trkpt>
      <trkpt lat="39.25935626" lon="-6.15734779"><ele>1792</ele><speed>9.00</speed><time>2016-06-21T14:11:18Z</time><pdop>3.0</pdop><geoidheight>53.00</geoidheight><course>189.8</course><type>1</type></trkpt>
      <trkpt lat="39.25928079" lon="-6.15740902"><ele>1794</ele><speed>9.75</speed><time>2016-06-21T14:11:19Z</time><pdop>3.0</pdop><geoidheight>53.00</geoidheight><course>208.5</course><type>1</type></trkpt>
      <trkpt lat="39.25922493" lon="-6.15749496"><ele>1797</ele><speed>9.75</speed><time>2016-06-21T14:11:20Z</time><pdop>3.0</pdop><geoidheight>53.00</geoidheight><course>227.3</course><type>1</type></trkpt>
      <trkpt lat="39.25919544" lon="-6.15759478"><ele>1800</ele><speed>9.50</speed><time>2016-06-21T14:11:21Z</time><pdop>3.0</pdop><geoidheight>53.00</geoidheight><course>246.4</course><type>1</type></trkpt>
      <trkpt lat="39.2592103" lon="-6.15780993"><ele>1804</ele><speed>9.50</speed><time>2016-06-21T14:11:23Z</time><pdop>4.0</pdop><geoidheight>53.00</geoidheight><course>280.4</course><type>1</type></trkpt>
      <trkpt lat="39.25931075" lon="-6.15798906"><ele>1810</ele><speed>9.75</speed><time>2016-06-21T14:11:25Z</time><pdop>4.0</pdop><geoidheight>53.00</geoidheight><course>310.0</course><type>1</type></trkpt>
      <trkpt lat="39.25938028" lon="-6.15806486"><ele>1810</ele><speed>10.00</speed><time>2016-06-21T14:11:26Z</time><pdop>4.0</pdop><geoidheight>53.00</geoidheight><course>316.8</course><type>1</type></trkpt>
      <trkpt lat="39.25954435" lon="-6.15813947"><ele>1814</ele><speed>10.00</speed><time>2016-06-21T14:11:28Z</time><pdop>4.0</pdop><geoidheight>53.00</geoidheight><course>346.1</course><type>1</type></trkpt>
      <trkpt lat="39.25971218" lon="-6.15808969"><ele>1817</ele><speed>9.25</speed><time>2016-06-21T14:11:30Z</time><pdop>4.0</pdop><geoidheight>53.00</geoidheight><course>17.0</course><type>1</type></trkpt>
      <trkpt lat="39.25979622" lon="-6.15787404"><ele>1823</ele><speed>9.50</speed><time>2016-06-21T14:11:32Z</time><pdop>3.0</pdop><geoidheight>53.00</geoidheight><course>66.9</course><type>1</type></trkpt>
      <trkpt lat="39.25979802" lon="-6.15768285"><ele>1829</ele><speed>8.25</speed><time>2016-06-21T14:11:34Z</time><pdop>3.0</pdop><geoidheight>53.00</geoidheight><course>97.4</course><type>1</type></trkpt>
      <trkpt lat="39.25977201" lon="-6.15759831"><ele>1831</ele><speed>8.25</speed><time>2016-06-21T14:11:35Z</time><pdop>3.0</pdop><geoidheight>53.00</geoidheight><course>109.4</course><type>1</type></trkpt>
      <trkpt lat="39.25973198" lon="-6.15751492"><ele>1833</ele><speed>8.50</speed><time>2016-06-21T14:11:36Z</time><pdop>3.0</pdop><geoidheight>53.00</geoidheight><course>121.9</course><type>1</type></trkpt>
      <trkpt lat="39.25959571" lon="-6.15739522"><ele>1837</ele><speed>9.25</speed><time>2016-06-21T14:11:38Z</time><pdop>3.0</pdop><geoidheight>53.00</geoidheight><course>152.4</course><type>1</type></trkpt>
      <trkpt lat="39.25942087" lon="-6.15737897"><ele>1842</ele><speed>9.75</speed><time>2016-06-21T14:11:40Z</time><pdop>3.0</pdop><geoidheight>53.00</geoidheight><course>179.8</course><type>1</type></trkpt>
      <trkpt lat="39.259334869999996" lon="-6.15739263"><ele>1844</ele><speed>9.50</speed><time>2016-06-21T14:11:41Z</time><pdop>3.0</pdop><geoidheight>53.00</geoidheight><course>186.5</course><type>1</type></trkpt>
      <trkpt lat="39.25925457" lon="-6.15741707"><ele>1846</ele><speed>9.25</speed><time>2016-06-21T14:11:42Z</time><pdop>3.0</pdop><geoidheight>53.00</geoidheight><course>192.8</course><type>1</type></trkpt>
      <trkpt lat="39.25908924" lon="-6.15751456"><ele>1850</ele><speed>10.50</speed><time>2016-06-21T14:11:44Z</time><pdop>4.0</pdop><geoidheight>53.00</geoidheight><course>206.4</course><type>1</type></trkpt>
      <trkpt lat="39.25895689" lon="-6.1576844"><ele>1857</ele><speed>10.25</speed><time>2016-06-21T14:11:46Z</time><pdop>3.0</pdop><geoidheight>53.00</geoidheight><course>227.3</course><type>1</type></trkpt>
      <trkpt lat="39.25889942" lon="-6.15789867"><ele>1862</ele><speed>9.75</speed><time>2016-06-21T14:11:48Z</time><pdop>4.0</pdop><geoidheight>53.00</geoidheight><course>258.7</course><type>1</type></trkpt>
      <trkpt lat="39.2588921" lon="-6.15800756"><ele>1862</ele><speed>9.75</speed><time>2016-06-21T14:11:49Z</time><pdop>4.0</pdop><geoidheight>53.00</geoidheight><course>266.2</course><type>1</type></trkpt>
      <trkpt lat="39.25893196" lon="-6.15811568"><ele>1863</ele><speed>9.75</speed><time>2016-06-21T14:11:50Z</time><pdop>4.0</pdop><geoidheight>53.00</geoidheight><course>287.2</course><type>1</type></trkpt>
      <trkpt lat="39.25905468" lon="-6.15829665"><ele>1866</ele><speed>10.25</speed><time>2016-06-21T14:11:52Z</time><pdop>4.0</pdop><geoidheight>53.00</geoidheight><course>314.2</course><type>1</type></trkpt>
      <trkpt lat="39.25913884" lon="-6.15836401"><ele>1869</ele><speed>10.75</speed><time>2016-06-21T14:11:53Z</time><pdop>3.0</pdop><geoidheight>53.00</geoidheight><course>329.0</course><type>1</type></trkpt>
      <trkpt lat="39.25932033" lon="-6.15840287"><ele>1874</ele><speed>9.75</speed><time>2016-06-21T14:11:55Z</time><pdop>4.0</pdop><geoidheight>53.00</geoidheight><course>359.6</course><type>1</type></trkpt>
      <trkpt lat="39.25939962" lon="-6.15836465"><ele>1873</ele><speed>9.25</speed><time>2016-06-21T14:11:56Z</time><pdop>4.0</pdop><geoidheight>53.00</geoidheight><course>19.4</course><type>1</type></trkpt>
      <trkpt lat="39.25947385" lon="-6.15831821"><ele>1875</ele><speed>9.00</speed><time>2016-06-21T14:11:57Z</time><pdop>4.0</pdop><geoidheight>53.00</geoidheight><course>25.6</course><type>1</type></trkpt>
      <trkpt lat="39.25949401" lon="-6.15813302"><ele>1879</ele><speed>7.75</speed><time>2016-06-21T14:11:59Z</time><pdop>4.0</pdop><geoidheight>53.00</geoidheight><course>82.2</course><type>1</type></trkpt>
      <trkpt lat="39.25926325" lon="-6.15800445"><ele>1886</ele><speed>9.75</speed><time>2016-06-21T14:12:02Z</time><pdop>3.0</pdop><geoidheight>53.00</geoidheight><course>163.4</course><type>1</type></trkpt>
      <trkpt lat="39.25917626" lon="-6.15798143"><ele>1890</ele><speed>9.75</speed><time>2016-06-21T14:12:03Z</time><pdop>4.0</pdop><geoidheight>53.00</geoidheight><course>167.5</course><type>1</type></trkpt>
      <trkpt lat="39.25909942" lon="-6.15795517"><ele>1894</ele><speed>9.00</speed><time>2016-06-21T14:12:04Z</time><pdop>3.0</pdop><geoidheight>53.00</geoidheight><course>167.2</course><type>1</type></trkpt>
      <trkpt lat="39.25895832" lon="-6.15794572"><ele>1900</ele><speed>8.25</speed><time>2016-06-21T14:12:06Z</time><pdop>3.0</pdop><geoidheight>53.00</geoidheight><course>185.6</course><type>1</type></trkpt>
      <trkpt lat="39.25889342" lon="-6.15798402"><ele>1903</ele><speed>8.25</speed><time>2016-06-21T14:12:07Z</time><pdop>4.0</pdop><geoidheight>53.00</geoidheight><course>202.4</course><type>1</type></trkpt>
      <trkpt lat="39.25882153" lon="-6.1580526"><ele>1905</ele><speed>9.50</speed><time>2016-06-21T14:12:08Z</time><pdop>4.0</pdop><geoidheight>53.00</geoidheight><course>214.9</course><type>1</type></trkpt>
      <trkpt lat="39.25872518" lon="-6.15820854"><ele>1911</ele><speed>9.25</speed><time>2016-06-21T14:12:10Z</time><pdop>3.0</pdop><geoidheight>53.00</geoidheight><course>236.6</course><type>1</type></trkpt>
      <trkpt lat="39.25867286" lon="-6.15841993"><ele>1914</ele><speed>9.50</speed><time>2016-06-21T14:12:12Z</time><pdop>4.0</pdop><geoidheight>53.00</geoidheight><course>258.9</course><type>1</type></trkpt>
      <trkpt lat="39.25869126" lon="-6.15866213"><ele>1905</ele><speed>10.50</speed><time>2016-06-21T14:12:14Z</time><pdop>4.0</pdop><geoidheight>53.00</geoidheight><course>277.9</course><type>1</type></trkpt>
      <trkpt lat="39.25873035" lon="-6.15877091"><ele>1911</ele><speed>10.50</speed><time>2016-06-21T14:12:15Z</time><pdop>4.0</pdop><geoidheight>53.00</geoidheight><course>291.4</course><type>1</type></trkpt>
      <trkpt lat="39.25886029" lon="-6.15894452"><ele>1919</ele><speed>10.25</speed><time>2016-06-21T14:12:17Z</time><pdop>3.0</pdop><geoidheight>53.00</geoidheight><course>317.6</course><type>1</type></trkpt>
      <trkpt lat="39.25901201" lon="-6.15905305"><ele>1926</ele><speed>9.25</speed><time>2016-06-21T14:12:19Z</time><pdop>3.0</pdop><geoidheight>53.00</geoidheight><course>334.4</course><type>1</type></trkpt>
      <trkpt lat="39.25917576" lon="-6.15907451"><ele>1934</ele><speed>9.00</speed><time>2016-06-21T14:12:21Z</time><pdop>3.0</pdop><geoidheight>53.00</geoidheight><course>359.6</course><type>1</type></trkpt>
      <trkpt lat="39.2592869" lon="-6.15898567"><ele>1939</ele><speed>7.25</speed><time>2016-06-21T14:12:23Z</time><pdop>3.0</pdop><geoidheight>53.00</geoidheight><course>43.3</course><type>1</type></trkpt>
      <trkpt lat="39.25931028" lon="-6.15890415"><ele>1941</ele><speed>7.75</speed><time>2016-06-21T14:12:24Z</time><pdop>4.0</pdop><geoidheight>53.00</geoidheight><course>68.2</course><type>1</type></trkpt>
      <trkpt lat="39.25926982" lon="-6.15872289"><ele>1947</ele><speed>8.50</speed><time>2016-06-21T14:12:26Z</time><pdop>3.0</pdop><geoidheight>53.00</geoidheight><course>111.2</course><type>1</type></trkpt>
      <trkpt lat="39.25920924" lon="-6.15865749"><ele>1950</ele><speed>8.75</speed><time>2016-06-21T14:12:27Z</time><pdop>3.0</pdop><geoidheight>53.00</geoidheight><course>134.9</course><type>1</type></trkpt>
      <trkpt lat="39.25913285" lon="-6.15861494"><ele>1953</ele><speed>9.00</speed><time>2016-06-21T14:12:28Z</time><pdop>3.0</pdop><geoidheight>53.00</geoidheight><course>156.1</course><type>1</type></trkpt>
      <trkpt lat="39.25896497" lon="-6.15861925"><ele>1960</ele><speed>9.50</speed><time>2016-06-21T14:12:30Z</time><pdop>3.0</pdop><geoidheight>53.00</geoidheight><course>184.6</course><type>1</type></trkpt>
      <trkpt lat="39.25888818" lon="-6.15865178"><ele>1963</ele><speed>9.25</speed><time>2016-06-21T14:12:31Z</time><pdop>3.0</pdop><geoidheight>53.00</geoidheight><course>196.9</course><type>1</type></trkpt>
      <trkpt lat="39.25881425" lon="-6.15871984"><ele>1958</ele><speed>10.00</speed><time>2016-06-21T14:12:32Z</time><pdop>3.0</pdop><geoidheight>53.00</geoidheight><course>213.4</course><type>1</type></trkpt>
      <trkpt lat="39.25875592" lon="-6.15881745"><ele>1964</ele><speed>10.25</speed><time>2016-06-21T14:12:33Z</time><pdop>3.0</pdop><geoidheight>53.00</geoidheight><course>230.6</course><type>1</type></trkpt>
      <trkpt lat="39.25870722" lon="-6.15907107"><ele>1971</ele><speed>11.50</speed><time>2016-06-21T14:12:35Z</time><pdop>3.0</pdop><geoidheight>53.00</geoidheight><course>262.7</course><type>1</type></trkpt>
      <trkpt lat="39.25870085" lon="-6.15920345"><ele>1972</ele><speed>11.50</speed><time>2016-06-21T14:12:36Z</time><pdop>4.0</pdop><geoidheight>53.00</geoidheight><course>267.2</course><type>1</type></trkpt>
      <trkpt lat="39.25879763" lon="-6.15940341"><ele>1976</ele><speed>9.75</speed><time>2016-06-21T14:12:38Z</time><pdop>4.0</pdop><geoidheight>53.00</geoidheight><course>298.1</course><type>1</type></trkpt>
      <trkpt lat="39.25887069" lon="-6.1594681"><ele>1976</ele><speed>9.75</speed><time>2016-06-21T14:12:39Z</time><pdop>4.0</pdop><geoidheight>53.00</geoidheight><course>317.2</course><type>1</type></trkpt>
      <trkpt lat="39.25905486" lon="-6.15955883"><ele>1982</ele><speed>10.25</speed><time>2016-06-21T14:12:41Z</time><pdop>5.0</pdop><geoidheight>53.00</geoidheight><course>336.6</course><type>1</type></trkpt>
      <trkpt lat="39.25913254" lon="-6.15951975"><ele>1986</ele><speed>8.50</speed><time>2016-06-21T14:12:42Z</time><pdop>4.0</pdop><geoidheight>53.00</geoidheight><course>3.2</course><type>1</type></trkpt>
      <trkpt lat="39.25920548" lon="-6.15949881"><ele>1988</ele><speed>7.75</speed><time>2016-06-21T14:12:43Z</time><pdop>4.0</pdop><geoidheight>53.00</geoidheight><course>13.3</course><type>1</type></trkpt>
      <trkpt lat="39.25923625" lon="-6.15941992"><ele>1992</ele><speed>7.00</speed><time>2016-06-21T14:12:44Z</time><pdop>3.0</pdop><geoidheight>53.00</geoidheight><course>45.4</course><type>1</type></trkpt>
      <trkpt lat="39.2592462" lon="-6.15925896"><ele>1999</ele><speed>7.50</speed><time>2016-06-21T14:12:46Z</time><pdop>3.0</pdop><geoidheight>53.00</geoidheight><course>98.0</course><type>1</type></trkpt>
      <trkpt lat="39.25913458" lon="-6.15911575"><ele>2003</ele><speed>8.75</speed><time>2016-06-21T14:12:48Z</time><pdop>4.0</pdop><geoidheight>53.00</geoidheight><course>141.7</course><type>1</type></trkpt>
      <trkpt lat="39.25904416" lon="-6.15909468"><ele>2006</ele><speed>9.75</speed><time>2016-06-21T14:12:49Z</time><pdop>3.0</pdop><geoidheight>53.00</geoidheight><course>165.9</course><type>1</type></trkpt>
      <trkpt lat="39.25895174" lon="-6.15910755"><ele>2009</ele><speed>10.25</speed><time>2016-06-21T14:12:50Z</time><pdop>3.0</pdop><geoidheight>53.00</geoidheight><course>184.3</course><type>1</type></trkpt>
      <trkpt lat="39.2588631" lon="-6.15911452"><ele>2011</ele><speed>10.00</speed><time>2016-06-21T14:12:51Z</time><pdop>4.0</pdop><geoidheight>53.00</geoidheight><course>184.3</course><type>1</type></trkpt>
      <trkpt lat="39.25876834" lon="-6.15915155"><ele>2012</ele><speed>10.75</speed><time>2016-06-21T14:12:52Z</time><pdop>5.0</pdop><geoidheight>53.00</geoidheight><course>189.4</course><type>1</type></trkpt>
      <trkpt lat="39.25871266" lon="-6.15930966"><ele>2016</ele><speed>11.00</speed><time>2016-06-21T14:12:53Z</time><pdop>3.0</pdop><geoidheight>53.00</geoidheight><course>222.2</course><type>1</type></trkpt>
      <trkpt lat="39.25862382" lon="-6.15952956"><ele>2020</ele><speed>10.75</speed><time>2016-06-21T14:12:55Z</time><pdop>3.0</pdop><geoidheight>53.00</geoidheight><course>245.2</course><type>1</type></trkpt>
      <trkpt lat="39.25859077" lon="-6.15965144"><ele>2021</ele><speed>10.75</speed><time>2016-06-21T14:12:56Z</time><pdop>4.0</pdop><geoidheight>53.00</geoidheight><course>252.9</course><type>1</type></trkpt>
      <trkpt lat="39.25862361" lon="-6.1599151"><ele>2024</ele><speed>12.25</speed><time>2016-06-21T14:12:58Z</time><pdop>3.0</pdop><geoidheight>53.00</geoidheight><course>284.6</course><type>1</type></trkpt>
      <trkpt lat="39.25868235" lon="-6.16003181"><ele>2024</ele><speed>11.75</speed><time>2016-06-21T14:12:59Z</time><pdop>4.0</pdop><geoidheight>53.00</geoidheight><course>300.1</course><type>1</type></trkpt>
      <trkpt lat="39.25879614" lon="-6.16022569"><ele>2025</ele><speed>10.50</speed><time>2016-06-21T14:13:01Z</time><pdop>5.0</pdop><geoidheight>53.00</geoidheight><course>307.2</course><type>1</type></trkpt>
      <trkpt lat="39.25891977" lon="-6.16022339"><ele>2030</ele><speed>10.00</speed><time>2016-06-21T14:13:02Z</time><pdop>3.0</pdop><geoidheight>53.00</geoidheight><course>340.1</course><type>1</type></trkpt>
      <trkpt lat="39.25907252" lon="-6.16023331"><ele>2038</ele><speed>7.75</speed><time>2016-06-21T14:13:04Z</time><pdop>3.0</pdop><geoidheight>53.00</geoidheight><course>5.9</course><type>1</type></trkpt>
      <trkpt lat="39.25918692" lon="-6.16016533"><ele>2043</ele><speed>6.50</speed><time>2016-06-21T14:13:06Z</time><pdop>3.0</pdop><geoidheight>53.00</geoidheight><course>34.3</course><type>1</type></trkpt>
      <trkpt lat="39.25923111" lon="-6.16002604"><ele>2049</ele><speed>6.50</speed><time>2016-06-21T14:13:08Z</time><pdop>3.0</pdop><geoidheight>53.00</geoidheight><course>75.8</course><type>1</type></trkpt>
      <trkpt lat="39.25912338" lon="-6.15979085"><ele>2057</ele><speed>8.50</speed><time>2016-06-21T14:13:11Z</time><pdop>3.0</pdop><geoidheight>53.00</geoidheight><course>133.4</course><type>1</type></trkpt>
      <trkpt lat="39.25906739" lon="-6.15974008"><ele>2060</ele><speed>7.50</speed><time>2016-06-21T14:13:12Z</time><pdop>4.0</pdop><geoidheight>53.00</geoidheight><course>144.3</course><type>1</type></trkpt>
      <trkpt lat="39.25898351" lon="-6.15972651"><ele>2063</ele><speed>8.25</speed><time>2016-06-21T14:13:13Z</time><pdop>3.0</pdop><geoidheight>53.00</geoidheight><course>168.1</course><type>1</type></trkpt>
      <trkpt lat="39.25881946" lon="-6.15976191"><ele>2067</ele><speed>9.75</speed><time>2016-06-21T14:13:15Z</time><pdop>3.0</pdop><geoidheight>53.00</geoidheight><course>193.5</course><type>1</type></trkpt>
      <trkpt lat="39.25873957" lon="-6.15981228"><ele>2069</ele><speed>10.25</speed><time>2016-06-21T14:13:16Z</time><pdop>4.0</pdop><geoidheight>53.00</geoidheight><course>204.6</course><type>1</type></trkpt>
      <trkpt lat="39.25865631" lon="-6.15986121"><ele>2070</ele><speed>10.25</speed><time>2016-06-21T14:13:17Z</time><pdop>5.0</pdop><geoidheight>53.00</geoidheight><course>204.6</course><type>1</type></trkpt>
      <trkpt lat="39.25861554" lon="-6.16000623"><ele>2074</ele><speed>10.75</speed><time>2016-06-21T14:13:18Z</time><pdop>3.0</pdop><geoidheight>53.00</geoidheight><course>236.3</course><type>1</type></trkpt>
      <trkpt lat="39.2585762" lon="-6.16024253"><ele>2077</ele><speed>10.25</speed><time>2016-06-21T14:13:20Z</time><pdop>4.0</pdop><geoidheight>53.00</geoidheight><course>259.2</course><type>1</type></trkpt>
      <trkpt lat="39.25874321" lon="-6.16057479"><ele>2081</ele><speed>11.00</speed><time>2016-06-21T14:13:23Z</time><pdop>4.0</pdop><geoidheight>53.00</geoidheight><course>312.8</course><type>1</type></trkpt>
      <trkpt lat="39.25881261" lon="-6.16064035"><ele>2083</ele><speed>9.75</speed><time>2016-06-21T14:13:24Z</time><pdop>4.0</pdop><geoidheight>53.00</geoidheight><course>321.9</course><type>1</type></trkpt>
      <trkpt lat="39.25890715" lon="-6.16064952"><ele>2086</ele><speed>9.50</speed><time>2016-06-21T14:13:25Z</time><pdop>3.0</pdop><geoidheight>53.00</geoidheight><course>349.0</course><type>1</type></trkpt>
      <trkpt lat="39.25901934" lon="-6.16061768"><ele>2090</ele><speed>6.50</speed><time>2016-06-21T14:13:27Z</time><pdop>4.0</pdop><geoidheight>53.00</geoidheight><course>18.4</course><type>1</type></trkpt>
      <trkpt lat="39.25907321" lon="-6.16051042"><ele>2097</ele><speed>6.00</speed><time>2016-06-21T14:13:29Z</time><pdop>3.0</pdop><geoidheight>53.00</geoidheight><course>67.7</course><type>1</type></trkpt>
      <trkpt lat="39.25903715" lon="-6.16035206"><ele>2101</ele><speed>7.75</speed><time>2016-06-21T14:13:31Z</time><pdop>3.0</pdop><geoidheight>53.00</geoidheight><course>111.7</course><type>1</type></trkpt>
      <trkpt lat="39.25901148" lon="-6.16026924"><ele>2103</ele><speed>7.75</speed><time>2016-06-21T14:13:32Z</time><pdop>4.0</pdop><geoidheight>53.00</geoidheight><course>111.7</course><type>1</type></trkpt>
      <trkpt lat="39.25883549" lon="-6.16021411"><ele>2107</ele><speed>8.75</speed><time>2016-06-21T14:13:34Z</time><pdop>3.0</pdop><geoidheight>53.00</geoidheight><course>167.7</course><type>1</type></trkpt>
      <trkpt lat="39.25875658" lon="-6.16021018"><ele>2110</ele><speed>9.00</speed><time>2016-06-21T14:13:35Z</time><pdop>3.0</pdop><geoidheight>53.00</geoidheight><course>179.2</course><type>1</type></trkpt>
      <trkpt lat="39.25867499" lon="-6.16021916"><ele>2112</ele><speed>9.00</speed><time>2016-06-21T14:13:36Z</time><pdop>3.0</pdop><geoidheight>53.00</geoidheight><course>185.6</course><type>1</type></trkpt>
      <trkpt lat="39.25859277" lon="-6.16024757"><ele>2114</ele><speed>9.25</speed><time>2016-06-21T14:13:37Z</time><pdop>3.0</pdop><geoidheight>53.00</geoidheight><course>194.5</course><type>1</type></trkpt>
      <trkpt lat="39.25843959" lon="-6.16038767"><ele>2117</ele><speed>10.75</speed><time>2016-06-21T14:13:39Z</time><pdop>4.0</pdop><geoidheight>53.00</geoidheight><course>220.5</course><type>1</type></trkpt>
      <trkpt lat="39.25838398" lon="-6.16050017"><ele>2119</ele><speed>11.50</speed><time>2016-06-21T14:13:40Z</time><pdop>3.0</pdop><geoidheight>53.00</geoidheight><course>234.9</course><type>1</type></trkpt>
      <trkpt lat="39.2583438" lon="-6.16062809"><ele>2121</ele><speed>11.75</speed><time>2016-06-21T14:13:41Z</time><pdop>3.0</pdop><geoidheight>53.00</geoidheight><course>246.2</course><type>1</type></trkpt>
      <trkpt lat="39.25833594" lon="-6.16089614"><ele>2124</ele><speed>11.50</speed><time>2016-06-21T14:13:43Z</time><pdop>3.0</pdop><geoidheight>53.00</geoidheight><course>273.8</course><type>1</type></trkpt>
      <trkpt lat="39.25834289" lon="-6.16102943"><ele>2126</ele><speed>11.50</speed><time>2016-06-21T14:13:44Z</time><pdop>5.0</pdop><geoidheight>53.00</geoidheight><course>273.8</course><type>1</type></trkpt>
      <trkpt lat="39.25842417" lon="-6.1611197"><ele>2128</ele><speed>10.75</speed><time>2016-06-21T14:13:45Z</time><pdop>3.0</pdop><geoidheight>53.00</geoidheight><course>300.8</course><type>1</type></trkpt>
      <trkpt lat="39.25847765" lon="-6.16120351"><ele>2130</ele><speed>9.75</speed><time>2016-06-21T14:13:46Z</time><pdop>3.0</pdop><geoidheight>53.00</geoidheight><course>306.5</course><type>1</type></trkpt>
      <trkpt lat="39.25858593" lon="-6.16134267"><ele>2135</ele><speed>8.25</speed><time>2016-06-21T14:13:48Z</time><pdop>3.0</pdop><geoidheight>53.00</geoidheight><course>318.0</course><type>1</type></trkpt>
      <trkpt lat="39.25865488" lon="-6.16138565"><ele>2136</ele><speed>8.50</speed><time>2016-06-21T14:13:49Z</time><pdop>3.0</pdop><geoidheight>53.00</geoidheight><course>333.1</course><type>1</type></trkpt>
      <trkpt lat="39.25879923" lon="-6.16139961"><ele>2139</ele><speed>7.50</speed><time>2016-06-21T14:13:51Z</time><pdop>3.0</pdop><geoidheight>53.00</geoidheight><course>2.2</course><type>1</type></trkpt>
      <trkpt lat="39.25888723" lon="-6.16133995"><ele>2144</ele><speed>5.25</speed><time>2016-06-21T14:13:53Z</time><pdop>3.0</pdop><geoidheight>53.00</geoidheight><course>35.6</course><type>1</type></trkpt>
      <trkpt lat="39.25890107" lon="-6.16122056"><ele>2148</ele><speed>5.75</speed><time>2016-06-21T14:13:55Z</time><pdop>3.0</pdop><geoidheight>53.00</geoidheight><course>93.5</course><type>1</type></trkpt>
      <trkpt lat="39.25883429" lon="-6.16109115"><ele>2149</ele><speed>6.50</speed><time>2016-06-21T14:13:57Z</time><pdop>3.0</pdop><geoidheight>53.00</geoidheight><course>128.0</course><type>1</type></trkpt>
      <trkpt lat="39.25879144" lon="-6.16103821"><ele>2151</ele><speed>6.50</speed><time>2016-06-21T14:13:58Z</time><pdop>3.0</pdop><geoidheight>53.00</geoidheight><course>134.4</course><type>1</type></trkpt>
      <trkpt lat="39.25875065" lon="-6.16098295"><ele>2153</ele><speed>6.50</speed><time>2016-06-21T14:13:59Z</time><pdop>3.0</pdop><geoidheight>53.00</geoidheight><course>133.4</course><type>1</type></trkpt>
      <trkpt lat="39.25871093" lon="-6.16093053"><ele>2155</ele><speed>6.25</speed><time>2016-06-21T14:14:00Z</time><pdop>3.0</pdop><geoidheight>53.00</geoidheight><course>134.4</course><type>1</type></trkpt>
      <trkpt lat="39.25866856" lon="-6.16088012"><ele>2157</ele><speed>6.25</speed><time>2016-06-21T14:14:01Z</time><pdop>3.0</pdop><geoidheight>53.00</geoidheight><course>135.1</course><type>1</type></trkpt>
      <trkpt lat="39.25857848" lon="-6.16076305"><ele>2160</ele><speed>7.25</speed><time>2016-06-21T14:14:03Z</time><pdop>3.0</pdop><geoidheight>53.00</geoidheight><course>133.2</course><type>1</type></trkpt>
      <trkpt lat="39.25848836" lon="-6.16062558"><ele>2163</ele><speed>7.75</speed><time>2016-06-21T14:14:05Z</time><pdop>3.0</pdop><geoidheight>53.00</geoidheight><course>127.8</course><type>1</type></trkpt>
      <trkpt lat="39.25839855" lon="-6.16049039"><ele>2166</ele><speed>7.50</speed><time>2016-06-21T14:14:07Z</time><pdop>3.0</pdop><geoidheight>53.00</geoidheight><course>133.4</course><type>1</type></trkpt>
      <trkpt lat="39.25834426" lon="-6.16043232"><ele>2167</ele><speed>7.75</speed><time>2016-06-21T14:14:08Z</time><pdop>3.0</pdop><geoidheight>53.00</geoidheight><course>139.2</course><type>1</type></trkpt>
      <trkpt lat="39.25828286" lon="-6.16037287"><ele>2168</ele><speed>8.50</speed><time>2016-06-21T14:14:09Z</time><pdop>3.0</pdop><geoidheight>53.00</geoidheight><course>142.6</course><type>1</type></trkpt>
      <trkpt lat="39.25821715" lon="-6.16030989"><ele>2168</ele><speed>9.00</speed><time>2016-06-21T14:14:10Z</time><pdop>4.0</pdop><geoidheight>53.00</geoidheight><course>144.9</course><type>1</type></trkpt>
      <trkpt lat="39.25807264" lon="-6.16019092"><ele>2171</ele><speed>9.25</speed><time>2016-06-21T14:14:12Z</time><pdop>3.0</pdop><geoidheight>53.00</geoidheight><course>149.0</course><type>1</type></trkpt>
      <trkpt lat="39.25799404" lon="-6.16014596"><ele>2173</ele><speed>9.50</speed><time>2016-06-21T14:14:13Z</time><pdop>3.0</pdop><geoidheight>53.00</geoidheight><course>154.9</course><type>1</type></trkpt>
      <trkpt lat="39.25790718" lon="-6.16011006"><ele>2174</ele><speed>9.75</speed><time>2016-06-21T14:14:14Z</time><pdop>3.0</pdop><geoidheight>53.00</geoidheight><course>162.2</course><type>1</type></trkpt>
      <trkpt lat="39.25772611" lon="-6.1600976"><ele>2178</ele><speed>10.25</speed><time>2016-06-21T14:14:16Z</time><pdop>3.0</pdop><geoidheight>53.00</geoidheight><course>181.9</course><type>1</type></trkpt>
      <trkpt lat="39.25754859" lon="-6.16017847"><ele>2182</ele><speed>10.25</speed><time>2016-06-21T14:14:18Z</time><pdop>4.0</pdop><geoidheight>53.00</geoidheight><course>204.2</course><type>1</type></trkpt>
      <trkpt lat="39.25741828" lon="-6.1603905"><ele>2184</ele><speed>11.75</speed><time>2016-06-21T14:14:20Z</time><pdop>3.0</pdop><geoidheight>53.00</geoidheight><course>237.1</course><type>1</type></trkpt>
      <trkpt lat="39.25737857" lon="-6.16051389"><ele>2184</ele><speed>11.50</speed><time>2016-06-21T14:14:21Z</time><pdop>4.0</pdop><geoidheight>53.00</geoidheight><course>243.7</course><type>1</type></trkpt>
      <trkpt lat="39.25743551" lon="-6.16082245"><ele>2188</ele><speed>12.25</speed><time>2016-06-21T14:14:23Z</time><pdop>3.0</pdop><geoidheight>53.00</geoidheight><course>283.9</course><type>1</type></trkpt>
      <trkpt lat="39.25753245" lon="-6.16102993"><ele>2192</ele><speed>10.00</speed><time>2016-06-21T14:14:25Z</time><pdop>3.0</pdop><geoidheight>53.00</geoidheight><course>304.9</course><type>1</type></trkpt>
      <trkpt lat="39.257591239999996" lon="-6.16110541"><ele>2190</ele><speed>9.25</speed><time>2016-06-21T14:14:26Z</time><pdop>3.0</pdop><geoidheight>53.00</geoidheight><course>313.4</course><type>1</type></trkpt>
      <trkpt lat="39.25765878" lon="-6.16116511"><ele>2192</ele><speed>9.00</speed><time>2016-06-21T14:14:27Z</time><pdop>3.0</pdop><geoidheight>53.00</geoidheight><course>323.7</course><type>1</type></trkpt>
      <trkpt lat="39.25779721" lon="-6.1612158"><ele>2196</ele><speed>7.75</speed><time>2016-06-21T14:14:29Z</time><pdop>3.0</pdop><geoidheight>53.00</geoidheight><course>351.4</course><type>1</type></trkpt>
      <trkpt lat="39.25793258" lon="-6.16116968"><ele>2200</ele><speed>8.00</speed><time>2016-06-21T14:14:31Z</time><pdop>3.0</pdop><geoidheight>53.00</geoidheight><course>20.8</course><type>1</type></trkpt>
      <trkpt lat="39.25801139" lon="-6.16104872"><ele>2205</ele><speed>6.50</speed><time>2016-06-21T14:14:33Z</time><pdop>3.0</pdop><geoidheight>53.00</geoidheight><course>59.1</course><type>1</type></trkpt>
      <trkpt lat="39.25801162" lon="-6.16090254"><ele>2209</ele><speed>6.75</speed><time>2016-06-21T14:14:35Z</time><pdop>3.0</pdop><geoidheight>53.00</geoidheight><course>97.0</course><type>1</type></trkpt>
      <trkpt lat="39.25793122" lon="-6.16074493"><ele>2211</ele><speed>8.25</speed><time>2016-06-21T14:14:37Z</time><pdop>3.0</pdop><geoidheight>53.00</geoidheight><course>126.2</course><type>1</type></trkpt>
      <trkpt lat="39.25786411" lon="-6.16068486"><ele>2213</ele><speed>9.00</speed><time>2016-06-21T14:14:38Z</time><pdop>3.0</pdop><geoidheight>53.00</geoidheight><course>142.2</course><type>1</type></trkpt>
      <trkpt lat="39.25777986" lon="-6.16064313"><ele>2214</ele><speed>9.75</speed><time>2016-06-21T14:14:39Z</time><pdop>3.0</pdop><geoidheight>53.00</geoidheight><course>157.4</course><type>1</type></trkpt>
      <trkpt lat="39.25768945" lon="-6.1606224"><ele>2215</ele><speed>10.00</speed><time>2016-06-21T14:14:40Z</time><pdop>4.0</pdop><geoidheight>53.00</geoidheight><course>168.1</course><type>1</type></trkpt>
      <trkpt lat="39.25751229" lon="-6.16063129"><ele>2218</ele><speed>10.00</speed><time>2016-06-21T14:14:42Z</time><pdop>3.0</pdop><geoidheight>53.00</geoidheight><course>185.7</course><type>1</type></trkpt>
      <trkpt lat="39.2573447" lon="-6.16074762"><ele>2219</ele><speed>11.25</speed><time>2016-06-21T14:14:44Z</time><pdop>3.0</pdop><geoidheight>53.00</geoidheight><course>214.4</course><type>1</type></trkpt>
      <trkpt lat="39.2572795" lon="-6.1608628"><ele>2219</ele><speed>12.25</speed><time>2016-06-21T14:14:45Z</time><pdop>3.0</pdop><geoidheight>53.00</geoidheight><course>230.9</course><type>1</type></trkpt>
      <trkpt lat="39.25723642" lon="-6.16100218"><ele>2219</ele><speed>12.75</speed><time>2016-06-21T14:14:46Z</time><pdop>3.0</pdop><geoidheight>53.00</geoidheight><course>247.2</course><type>1</type></trkpt>
      <trkpt lat="39.25726365" lon="-6.16128337"><ele>2222</ele><speed>12.00</speed><time>2016-06-21T14:14:48Z</time><pdop>3.0</pdop><geoidheight>53.00</geoidheight><course>284.5</course><type>1</type></trkpt>
      <trkpt lat="39.25731365" lon="-6.16138544"><ele>2222</ele><speed>10.50</speed><time>2016-06-21T14:14:49Z</time><pdop>4.0</pdop><geoidheight>53.00</geoidheight><course>299.6</course><type>1</type></trkpt>
      <trkpt lat="39.25738131" lon="-6.16146016"><ele>2224</ele><speed>9.75</speed><time>2016-06-21T14:14:50Z</time><pdop>4.0</pdop><geoidheight>53.00</geoidheight><course>317.4</course><type>1</type></trkpt>
      <trkpt lat="39.25752858" lon="-6.16150484"><ele>2225</ele><speed>8.25</speed><time>2016-06-21T14:14:52Z</time><pdop>3.0</pdop><geoidheight>53.00</geoidheight><course>352.2</course><type>1</type></trkpt>
      <trkpt lat="39.2576821" lon="-6.16146371"><ele>2226</ele><speed>8.75</speed><time>2016-06-21T14:14:54Z</time><pdop>4.0</pdop><geoidheight>53.00</geoidheight><course>16.6</course><type>1</type></trkpt>
      <trkpt lat="39.2577421" lon="-6.16141691"><ele>2229</ele><speed>8.25</speed><time>2016-06-21T14:14:55Z</time><pdop>3.0</pdop><geoidheight>53.00</geoidheight><course>28.9</course><type>1</type></trkpt>
      <trkpt lat="39.25783034" lon="-6.16129123"><ele>2234</ele><speed>7.00</speed><time>2016-06-21T14:14:57Z</time><pdop>3.0</pdop><geoidheight>53.00</geoidheight><course>52.7</course><type>1</type></trkpt>
      <trkpt lat="39.25785576" lon="-6.1612204"><ele>2236</ele><speed>7.00</speed><time>2016-06-21T14:14:58Z</time><pdop>3.0</pdop><geoidheight>53.00</geoidheight><course>65.3</course><type>1</type></trkpt>
      <trkpt lat="39.25787055" lon="-6.16114162"><ele>2237</ele><speed>6.75</speed><time>2016-06-21T14:14:59Z</time><pdop>3.0</pdop><geoidheight>53.00</geoidheight><course>74.3</course><type>1</type></trkpt>
      <trkpt lat="39.25787993" lon="-6.16106632"><ele>2239</ele><speed>6.75</speed><time>2016-06-21T14:15:00Z</time><pdop>3.0</pdop><geoidheight>53.00</geoidheight><course>78.3</course><type>1</type></trkpt>
      <trkpt lat="39.25788883" lon="-6.16098622"><ele>2240</ele><speed>7.00</speed><time>2016-06-21T14:15:01Z</time><pdop>3.0</pdop><geoidheight>53.00</geoidheight><course>81.6</course><type>1</type></trkpt>
      <trkpt lat="39.25788079" lon="-6.16081896"><ele>2243</ele><speed>7.25</speed><time>2016-06-21T14:15:03Z</time><pdop>3.0</pdop><geoidheight>53.00</geoidheight><course>96.1</course><type>1</type></trkpt>
      <trkpt lat="39.25785891" lon="-6.16073623"><ele>2244</ele><speed>7.50</speed><time>2016-06-21T14:15:04Z</time><pdop>3.0</pdop><geoidheight>53.00</geoidheight><course>104.3</course><type>1</type></trkpt>
      <trkpt lat="39.25783127" lon="-6.1606477"><ele>2245</ele><speed>7.75</speed><time>2016-06-21T14:15:05Z</time><pdop>3.0</pdop><geoidheight>53.00</geoidheight><course>111.1</course><type>1</type></trkpt>
      <trkpt lat="39.25775831" lon="-6.16049416"><ele>2248</ele><speed>7.50</speed><time>2016-06-21T14:15:07Z</time><pdop>3.0</pdop><geoidheight>53.00</geoidheight><course>125.6</course><type>1</type></trkpt>
      <trkpt lat="39.25770844" lon="-6.16042801"><ele>2248</ele><speed>7.75</speed><time>2016-06-21T14:15:08Z</time><pdop>3.0</pdop><geoidheight>53.00</geoidheight><course>134.2</course><type>1</type></trkpt>
      <trkpt lat="39.25758508" lon="-6.16031979"><ele>2250</ele><speed>8.50</speed><time>2016-06-21T14:15:10Z</time><pdop>3.0</pdop><geoidheight>53.00</geoidheight><course>147.6</course><type>1</type></trkpt>
      <trkpt lat="39.25750993" lon="-6.16027654"><ele>2251</ele><speed>9.00</speed><time>2016-06-21T14:15:11Z</time><pdop>4.0</pdop><geoidheight>53.00</geoidheight><course>154.0</course><type>1</type></trkpt>
      <trkpt lat="39.25734668" lon="-6.1602133"><ele>2253</ele><speed>9.75</speed><time>2016-06-21T14:15:13Z</time><pdop>3.0</pdop><geoidheight>53.00</geoidheight><course>165.5</course><type>1</type></trkpt>
      <trkpt lat="39.25725641" lon="-6.16019908"><ele>2254</ele><speed>10.25</speed><time>2016-06-21T14:15:14Z</time><pdop>3.0</pdop><geoidheight>53.00</geoidheight><course>170.7</course><type>1</type></trkpt>
      <trkpt lat="39.25705833" lon="-6.16019769"><ele>2257</ele><speed>11.00</speed><time>2016-06-21T14:15:16Z</time><pdop>3.0</pdop><geoidheight>53.00</geoidheight><course>182.6</course><type>1</type></trkpt>
      <trkpt lat="39.25686154" lon="-6.16025994"><ele>2260</ele><speed>11.25</speed><time>2016-06-21T14:15:18Z</time><pdop>3.0</pdop><geoidheight>53.00</geoidheight><course>196.0</course><type>1</type></trkpt>
      <trkpt lat="39.25676994" lon="-6.16031625"><ele>2261</ele><speed>11.50</speed><time>2016-06-21T14:15:19Z</time><pdop>3.0</pdop><geoidheight>53.00</geoidheight><course>203.3</course><type>1</type></trkpt>
      <trkpt lat="39.25660369" lon="-6.1604771"><ele>2262</ele><speed>11.75</speed><time>2016-06-21T14:15:21Z</time><pdop>3.0</pdop><geoidheight>53.00</geoidheight><course>217.5</course><type>1</type></trkpt>
      <trkpt lat="39.25646281" lon="-6.16066294"><ele>2264</ele><speed>11.00</speed><time>2016-06-21T14:15:23Z</time><pdop>3.0</pdop><geoidheight>53.00</geoidheight><course>228.4</course><type>1</type></trkpt>
      <trkpt lat="39.25640255" lon="-6.16076407"><ele>2264</ele><speed>11.25</speed><time>2016-06-21T14:15:24Z</time><pdop>3.0</pdop><geoidheight>53.00</geoidheight><course>232.5</course><type>1</type></trkpt>
      <trkpt lat="39.2563483" lon="-6.16088117"><ele>2265</ele><speed>12.00</speed><time>2016-06-21T14:15:25Z</time><pdop>3.0</pdop><geoidheight>53.00</geoidheight><course>237.0</course><type>1</type></trkpt>
      <trkpt lat="39.25629751" lon="-6.16101304"><ele>2266</ele><speed>12.50</speed><time>2016-06-21T14:15:26Z</time><pdop>3.0</pdop><geoidheight>53.00</geoidheight><course>241.7</course><type>1</type></trkpt>
      <trkpt lat="39.25625108" lon="-6.16114802"><ele>2268</ele><speed>12.75</speed><time>2016-06-21T14:15:27Z</time><pdop>3.0</pdop><geoidheight>53.00</geoidheight><course>244.5</course><type>1</type></trkpt>
      <trkpt lat="39.25620456" lon="-6.16128372"><ele>2271</ele><speed>12.50</speed><time>2016-06-21T14:15:28Z</time><pdop>3.0</pdop><geoidheight>53.00</geoidheight><course>245.2</course><type>1</type></trkpt>
      <trkpt lat="39.2561558" lon="-6.16141601"><ele>2273</ele><speed>12.50</speed><time>2016-06-21T14:15:29Z</time><pdop>3.0</pdop><geoidheight>53.00</geoidheight><course>245.2</course><type>1</type></trkpt>
      <trkpt lat="39.25611062" lon="-6.16154849"><ele>2275</ele><speed>12.50</speed><time>2016-06-21T14:15:30Z</time><pdop>3.0</pdop><geoidheight>53.00</geoidheight><course>246.2</course><type>1</type></trkpt>
      <trkpt lat="39.2560434" lon="-6.16180713"><ele>2279</ele><speed>11.50</speed><time>2016-06-21T14:15:32Z</time><pdop>3.0</pdop><geoidheight>53.00</geoidheight><course>252.4</course><type>1</type></trkpt>
      <trkpt lat="39.25602636" lon="-6.16192949"><ele>2280</ele><speed>11.00</speed><time>2016-06-21T14:15:33Z</time><pdop>3.0</pdop><geoidheight>53.00</geoidheight><course>259.2</course><type>1</type></trkpt>
      <trkpt lat="39.25601961" lon="-6.162055"><ele>2281</ele><speed>10.75</speed><time>2016-06-21T14:15:34Z</time><pdop>4.0</pdop><geoidheight>53.00</geoidheight><course>264.7</course><type>1</type></trkpt>
      <trkpt lat="39.25605885" lon="-6.16218228"><ele>2281</ele><speed>11.25</speed><time>2016-06-21T14:15:35Z</time><pdop>4.0</pdop><geoidheight>53.00</geoidheight><course>283.4</course><type>1</type></trkpt>
      <trkpt lat="39.2561734" lon="-6.1624042"><ele>2282</ele><speed>11.50</speed><time>2016-06-21T14:15:37Z</time><pdop>3.0</pdop><geoidheight>53.00</geoidheight><course>305.4</course><type>1</type></trkpt>
      <trkpt lat="39.25624313" lon="-6.16247942"><ele>2283</ele><speed>10.50</speed><time>2016-06-21T14:15:38Z</time><pdop>3.0</pdop><geoidheight>53.00</geoidheight><course>317.3</course><type>1</type></trkpt>
      <trkpt lat="39.2563182" lon="-6.16251846"><ele>2285</ele><speed>9.00</speed><time>2016-06-21T14:15:39Z</time><pdop>3.0</pdop><geoidheight>53.00</geoidheight><course>334.8</course><type>1</type></trkpt>
      <trkpt lat="39.25646198" lon="-6.1625061"><ele>2288</ele><speed>8.00</speed><time>2016-06-21T14:15:41Z</time><pdop>3.0</pdop><geoidheight>53.00</geoidheight><course>9.4</course><type>1</type></trkpt>
      <trkpt lat="39.25652511" lon="-6.16247639"><ele>2290</ele><speed>7.25</speed><time>2016-06-21T14:15:42Z</time><pdop>4.0</pdop><geoidheight>53.00</geoidheight><course>17.2</course><type>1</type></trkpt>
      <trkpt lat="39.25661696" lon="-6.16239442"><ele>2297</ele><speed>6.00</speed><time>2016-06-21T14:15:44Z</time><pdop>4.0</pdop><geoidheight>53.00</geoidheight><course>35.0</course><type>1</type></trkpt>
      <trkpt lat="39.25666521" lon="-6.16232018"><ele>2302</ele><speed>4.50</speed><time>2016-06-21T14:15:46Z</time><pdop>4.0</pdop><geoidheight>53.00</geoidheight><course>51.3</course><type>1</type></trkpt>
      <trkpt lat="39.25668567" lon="-6.16223261"><ele>2305</ele><speed>3.75</speed><time>2016-06-21T14:15:48Z</time><pdop>3.0</pdop><geoidheight>53.00</geoidheight><course>83.7</course><type>1</type></trkpt>
      <trkpt lat="39.25655252" lon="-6.16206255"><ele>2307</ele><speed>8.25</speed><time>2016-06-21T14:15:51Z</time><pdop>3.0</pdop><geoidheight>53.00</geoidheight><course>146.4</course><type>1</type></trkpt>
      <trkpt lat="39.25647439" lon="-6.16202577"><ele>2309</ele><speed>9.25</speed><time>2016-06-21T14:15:52Z</time><pdop>3.0</pdop><geoidheight>53.00</geoidheight><course>158.6</course><type>1</type></trkpt>
      <trkpt lat="39.25638297" lon="-6.16200512"><ele>2312</ele><speed>10.00</speed><time>2016-06-21T14:15:53Z</time><pdop>3.0</pdop><geoidheight>53.00</geoidheight><course>169.9</course><type>1</type></trkpt>
      <trkpt lat="39.25628774" lon="-6.16201347"><ele>2315</ele><speed>10.50</speed><time>2016-06-21T14:15:54Z</time><pdop>3.0</pdop><geoidheight>53.00</geoidheight><course>182.3</course><type>1</type></trkpt>
      <trkpt lat="39.25619678" lon="-6.16205298"><ele>2318</ele><speed>10.75</speed><time>2016-06-21T14:15:55Z</time><pdop>3.0</pdop><geoidheight>53.00</geoidheight><course>196.8</course><type>1</type></trkpt>
      <trkpt lat="39.25605929" lon="-6.16220872"><ele>2322</ele><speed>10.25</speed><time>2016-06-21T14:15:57Z</time><pdop>3.0</pdop><geoidheight>53.00</geoidheight><course>227.6</course><type>1</type></trkpt>
      <trkpt lat="39.25598512" lon="-6.16245543"><ele>2324</ele><speed>11.50</speed><time>2016-06-21T14:15:59Z</time><pdop>3.0</pdop><geoidheight>53.00</geoidheight><course>252.2</course><type>1</type></trkpt>
      <trkpt lat="39.25597866" lon="-6.16259033"><ele>2324</ele><speed>11.75</speed><time>2016-06-21T14:16:00Z</time><pdop>4.0</pdop><geoidheight>53.00</geoidheight><course>264.4</course><type>1</type></trkpt>
      <trkpt lat="39.25600902" lon="-6.16271275"><ele>2325</ele><speed>11.25</speed><time>2016-06-21T14:16:01Z</time><pdop>3.0</pdop><geoidheight>53.00</geoidheight><course>283.6</course><type>1</type></trkpt>
      <trkpt lat="39.25603257" lon="-6.16283838"><ele>2325</ele><speed>11.25</speed><time>2016-06-21T14:16:02Z</time><pdop>4.0</pdop><geoidheight>53.00</geoidheight><course>283.6</course><type>1</type></trkpt>
      <trkpt lat="39.25622375" lon="-6.16297675"><ele>2325</ele><speed>11.00</speed><time>2016-06-21T14:16:04Z</time><pdop>3.0</pdop><geoidheight>53.00</geoidheight><course>327.8</course><type>1</type></trkpt>
      <trkpt lat="39.25639439" lon="-6.16304707"><ele>2329</ele><speed>9.50</speed><time>2016-06-21T14:16:06Z</time><pdop>3.0</pdop><geoidheight>53.00</geoidheight><course>345.9</course><type>1</type></trkpt>
      <trkpt lat="39.25656016" lon="-6.16308164"><ele>2334</ele><speed>9.25</speed><time>2016-06-21T14:16:08Z</time><pdop>3.0</pdop><geoidheight>53.00</geoidheight><course>350.4</course><type>1</type></trkpt>
      <trkpt lat="39.25672334" lon="-6.16313153"><ele>2339</ele><speed>9.25</speed><time>2016-06-21T14:16:10Z</time><pdop>3.0</pdop><geoidheight>53.00</geoidheight><course>344.7</course><type>1</type></trkpt>
      <trkpt lat="39.25679832" lon="-6.16315321"><ele>2340</ele><speed>8.50</speed><time>2016-06-21T14:16:11Z</time><pdop>3.0</pdop><geoidheight>53.00</geoidheight><course>347.1</course><type>1</type></trkpt>
      <trkpt lat="39.256868419999996" lon="-6.16315383"><ele>2341</ele><speed>7.75</speed><time>2016-06-21T14:16:12Z</time><pdop>4.0</pdop><geoidheight>53.00</geoidheight><course>357.9</course><type>1</type></trkpt>
      <trkpt lat="39.25696382" lon="-6.16305953"><ele>2341</ele><speed>6.75</speed><time>2016-06-21T14:16:14Z</time><pdop>3.0</pdop><geoidheight>53.00</geoidheight><course>47.4</course><type>1</type></trkpt>
      <trkpt lat="39.2569666" lon="-6.16291404"><ele>2342</ele><speed>6.25</speed><time>2016-06-21T14:16:16Z</time><pdop>3.0</pdop><geoidheight>53.00</geoidheight><course>95.4</course><type>1</type></trkpt>
      <trkpt lat="39.25693491" lon="-6.16284881"><ele>2342</ele><speed>6.50</speed><time>2016-06-21T14:16:17Z</time><pdop>3.0</pdop><geoidheight>53.00</geoidheight><course>116.8</course><type>1</type></trkpt>
      <trkpt lat="39.25688671" lon="-6.16279182"><ele>2342</ele><speed>7.25</speed><time>2016-06-21T14:16:18Z</time><pdop>3.0</pdop><geoidheight>53.00</geoidheight><course>135.9</course><type>1</type></trkpt>
      <trkpt lat="39.25672908" lon="-6.16273952"><ele>2341</ele><speed>9.50</speed><time>2016-06-21T14:16:20Z</time><pdop>3.0</pdop><geoidheight>53.00</geoidheight><course>172.9</course><type>1</type></trkpt>
      <trkpt lat="39.25663462" lon="-6.16277518"><ele>2340</ele><speed>10.75</speed><time>2016-06-21T14:16:21Z</time><pdop>3.0</pdop><geoidheight>53.00</geoidheight><course>194.0</course><type>1</type></trkpt>
      <trkpt lat="39.25654546" lon="-6.16285338"><ele>2340</ele><speed>11.75</speed><time>2016-06-21T14:16:22Z</time><pdop>3.0</pdop><geoidheight>53.00</geoidheight><course>212.5</course><type>1</type></trkpt>
      <trkpt lat="39.25642189" lon="-6.16308422"><ele>2342</ele><speed>12.25</speed><time>2016-06-21T14:16:24Z</time><pdop>3.0</pdop><geoidheight>53.00</geoidheight><course>239.1</course><type>1</type></trkpt>
      <trkpt lat="39.25637399" lon="-6.16319814"><ele>2345</ele><speed>11.25</speed><time>2016-06-21T14:16:25Z</time><pdop>3.0</pdop><geoidheight>53.00</geoidheight><course>242.6</course><type>1</type></trkpt>
      <trkpt lat="39.25632752" lon="-6.16330338"><ele>2347</ele><speed>10.50</speed><time>2016-06-21T14:16:26Z</time><pdop>4.0</pdop><geoidheight>53.00</geoidheight><course>240.8</course><type>1</type></trkpt>
      <trkpt lat="39.2562284" lon="-6.16350629"><ele>2350</ele><speed>10.25</speed><time>2016-06-21T14:16:28Z</time><pdop>3.0</pdop><geoidheight>53.00</geoidheight><course>237.9</course><type>1</type></trkpt>
      <trkpt lat="39.25618386" lon="-6.16361549"><ele>2352</ele><speed>10.75</speed><time>2016-06-21T14:16:29Z</time><pdop>3.0</pdop><geoidheight>53.00</geoidheight><course>240.6</course><type>1</type></trkpt>
      <trkpt lat="39.25613977" lon="-6.16372982"><ele>2354</ele><speed>11.00</speed><time>2016-06-21T14:16:30Z</time><pdop>3.0</pdop><geoidheight>53.00</geoidheight><course>243.5</course><type>1</type></trkpt>
      <trkpt lat="39.25610615" lon="-6.16385501"><ele>2356</ele><speed>11.50</speed><time>2016-06-21T14:16:31Z</time><pdop>3.0</pdop><geoidheight>53.00</geoidheight><course>249.2</course><type>1</type></trkpt>
      <trkpt lat="39.25608269" lon="-6.1639885"><ele>2357</ele><speed>11.75</speed><time>2016-06-21T14:16:32Z</time><pdop>3.0</pdop><geoidheight>53.00</geoidheight><course>255.6</course><type>1</type></trkpt>
      <trkpt lat="39.25607657" lon="-6.16412231"><ele>2359</ele><speed>11.75</speed><time>2016-06-21T14:16:33Z</time><pdop>4.0</pdop><geoidheight>53.00</geoidheight><course>265.1</course><type>1</type></trkpt>
      <trkpt lat="39.25610475" lon="-6.16440196"><ele>2360</ele><speed>12.25</speed><time>2016-06-21T14:16:35Z</time><pdop>5.0</pdop><geoidheight>53.00</geoidheight><course>278.2</course><type>1</type></trkpt>
      <trkpt lat="39.25622845" lon="-6.16464381"><ele>2365</ele><speed>11.50</speed><time>2016-06-21T14:16:37Z</time><pdop>3.0</pdop><geoidheight>53.00</geoidheight><course>303.7</course><type>1</type></trkpt>
      <trkpt lat="39.25628551" lon="-6.16475396"><ele>2367</ele><speed>11.50</speed><time>2016-06-21T14:16:38Z</time><pdop>5.0</pdop><geoidheight>53.00</geoidheight><course>303.7</course><type>1</type></trkpt>
      <trkpt lat="39.25637438" lon="-6.16476172"><ele>2368</ele><speed>9.50</speed><time>2016-06-21T14:16:39Z</time><pdop>3.0</pdop><geoidheight>53.00</geoidheight><course>333.1</course><type>1</type></trkpt>
      <trkpt lat="39.25644886" lon="-6.16477916"><ele>2371</ele><speed>8.50</speed><time>2016-06-21T14:16:40Z</time><pdop>3.0</pdop><geoidheight>53.00</geoidheight><course>348.2</course><type>1</type></trkpt>
      <trkpt lat="39.25651224" lon="-6.16477095"><ele>2373</ele><speed>7.25</speed><time>2016-06-21T14:16:41Z</time><pdop>3.0</pdop><geoidheight>53.00</geoidheight><course>3.8</course><type>1</type></trkpt>
      <trkpt lat="39.2565959" lon="-6.16469172"><ele>2375</ele><speed>5.75</speed><time>2016-06-21T14:16:43Z</time><pdop>3.0</pdop><geoidheight>53.00</geoidheight><course>44.5</course><type>1</type></trkpt>
      <trkpt lat="39.25662153" lon="-6.16455769"><ele>2375</ele><speed>6.00</speed><time>2016-06-21T14:16:45Z</time><pdop>3.0</pdop><geoidheight>53.00</geoidheight><course>84.8</course><type>1</type></trkpt>
      <trkpt lat="39.25659938" lon="-6.16447881"><ele>2375</ele><speed>6.75</speed><time>2016-06-21T14:16:46Z</time><pdop>3.0</pdop><geoidheight>53.00</geoidheight><course>103.7</course><type>1</type></trkpt>
      <trkpt lat="39.25655998" lon="-6.16440103"><ele>2365</ele><speed>7.50</speed><time>2016-06-21T14:16:47Z</time><pdop>3.0</pdop><geoidheight>53.00</geoidheight><course>121.2</course><type>1</type></trkpt>
      <trkpt lat="39.25649994" lon="-6.16433882"><ele>2370</ele><speed>8.50</speed><time>2016-06-21T14:16:48Z</time><pdop>3.0</pdop><geoidheight>53.00</geoidheight><course>138.6</course><type>1</type></trkpt>
      <trkpt lat="39.25642172" lon="-6.16429218"><ele>2374</ele><speed>9.50</speed><time>2016-06-21T14:16:49Z</time><pdop>3.0</pdop><geoidheight>53.00</geoidheight><course>155.9</course><type>1</type></trkpt>
      <trkpt lat="39.25623376" lon="-6.16428709"><ele>2379</ele><speed>10.50</speed><time>2016-06-21T14:16:51Z</time><pdop>3.0</pdop><geoidheight>53.00</geoidheight><course>183.4</course><type>1</type></trkpt>
      <trkpt lat="39.25614052" lon="-6.16431716"><ele>2382</ele><speed>10.75</speed><time>2016-06-21T14:16:52Z</time><pdop>3.0</pdop><geoidheight>53.00</geoidheight><course>193.9</course><type>1</type></trkpt>
      <trkpt lat="39.25596107" lon="-6.16445724"><ele>2385</ele><speed>12.00</speed><time>2016-06-21T14:16:54Z</time><pdop>3.0</pdop><geoidheight>53.00</geoidheight><course>214.9</course><type>1</type></trkpt>
      <trkpt lat="39.25588414" lon="-6.16456938"><ele>2386</ele><speed>12.75</speed><time>2016-06-21T14:16:55Z</time><pdop>3.0</pdop><geoidheight>53.00</geoidheight><course>228.0</course><type>1</type></trkpt>
      <trkpt lat="39.25580322" lon="-6.16487653"><ele>2389</ele><speed>14.25</speed><time>2016-06-21T14:16:57Z</time><pdop>3.0</pdop><geoidheight>53.00</geoidheight><course>254.9</course><type>1</type></trkpt>
      <trkpt lat="39.25580353" lon="-6.16503587"><ele>2391</ele><speed>13.75</speed><time>2016-06-21T14:16:58Z</time><pdop>3.0</pdop><geoidheight>53.00</geoidheight><course>268.7</course><type>1</type></trkpt>
      <trkpt lat="39.25583151" lon="-6.16517986"><ele>2392</ele><speed>12.75</speed><time>2016-06-21T14:16:59Z</time><pdop>3.0</pdop><geoidheight>53.00</geoidheight><course>282.4</course><type>1</type></trkpt>
      <trkpt lat="39.25594953" lon="-6.16542852"><ele>2393</ele><speed>12.50</speed><time>2016-06-21T14:17:01Z</time><pdop>3.0</pdop><geoidheight>53.00</geoidheight><course>304.2</course><type>1</type></trkpt>
      <trkpt lat="39.25611302" lon="-6.16561305"><ele>2396</ele><speed>11.75</speed><time>2016-06-21T14:17:03Z</time><pdop>3.0</pdop><geoidheight>53.00</geoidheight><course>323.3</course><type>1</type></trkpt>
      <trkpt lat="39.25628" lon="-6.16564484"><ele>2399</ele><speed>9.00</speed><time>2016-06-21T14:17:05Z</time><pdop>3.0</pdop><geoidheight>53.00</geoidheight><course>359.7</course><type>1</type></trkpt>
      <trkpt lat="39.25636029" lon="-6.16564529"><ele>2400</ele><speed>9.00</speed><time>2016-06-21T14:17:06Z</time><pdop>5.0</pdop><geoidheight>53.00</geoidheight><course>359.7</course><type>1</type></trkpt>
      <trkpt lat="39.25641813" lon="-6.16553122"><ele>2403</ele><speed>5.25</speed><time>2016-06-21T14:17:08Z</time><pdop>4.0</pdop><geoidheight>53.00</geoidheight><course>45.5</course><type>1</type></trkpt>
      <trkpt lat="39.25646059" lon="-6.16543267"><ele>2405</ele><speed>4.75</speed><time>2016-06-21T14:17:10Z</time><pdop>4.0</pdop><geoidheight>53.00</geoidheight><course>59.3</course><type>1</type></trkpt>
      <trkpt lat="39.2563582" lon="-6.16524053"><ele>2403</ele><speed>8.00</speed><time>2016-06-21T14:17:13Z</time><pdop>3.0</pdop><geoidheight>53.00</geoidheight><course>135.8</course><type>1</type></trkpt>
      <trkpt lat="39.25630719" lon="-6.16517675"><ele>2403</ele><speed>8.00</speed><time>2016-06-21T14:17:14Z</time><pdop>4.0</pdop><geoidheight>53.00</geoidheight><course>135.8</course><type>1</type></trkpt>
      <trkpt lat="39.25617101" lon="-6.16522366"><ele>2403</ele><speed>11.25</speed><time>2016-06-21T14:17:15Z</time><pdop>4.0</pdop><geoidheight>53.00</geoidheight><course>184.7</course><type>1</type></trkpt>
      <trkpt lat="39.25596754" lon="-6.16541485"><ele>2406</ele><speed>14.00</speed><time>2016-06-21T14:17:17Z</time><pdop>3.0</pdop><geoidheight>53.00</geoidheight><course>222.5</course><type>1</type></trkpt>
      <trkpt lat="39.25590281" lon="-6.16554339"><ele>2407</ele><speed>13.25</speed><time>2016-06-21T14:17:18Z</time><pdop>4.0</pdop><geoidheight>53.00</geoidheight><course>234.6</course><type>1</type></trkpt>
      <trkpt lat="39.25586664" lon="-6.16567182"><ele>2409</ele><speed>11.75</speed><time>2016-06-21T14:17:19Z</time><pdop>3.0</pdop><geoidheight>53.00</geoidheight><course>246.7</course><type>1</type></trkpt>
      <trkpt lat="39.25582993" lon="-6.16591933"><ele>2411</ele><speed>10.75</speed><time>2016-06-21T14:17:21Z</time><pdop>4.0</pdop><geoidheight>53.00</geoidheight><course>260.7</course><type>1</type></trkpt>
      <trkpt lat="39.25586094" lon="-6.16604486"><ele>2410</ele><speed>11.25</speed><time>2016-06-21T14:17:22Z</time><pdop>3.0</pdop><geoidheight>53.00</geoidheight><course>279.7</course><type>1</type></trkpt>
      <trkpt lat="39.25597439" lon="-6.16628222"><ele>2411</ele><speed>12.25</speed><time>2016-06-21T14:17:24Z</time><pdop>3.0</pdop><geoidheight>53.00</geoidheight><course>305.2</course><type>1</type></trkpt>
      <trkpt lat="39.25610444" lon="-6.16647624"><ele>2413</ele><speed>10.75</speed><time>2016-06-21T14:17:26Z</time><pdop>4.0</pdop><geoidheight>53.00</geoidheight><course>312.3</course><type>1</type></trkpt>
      <trkpt lat="39.25617294" lon="-6.16655186"><ele>2413</ele><speed>10.00</speed><time>2016-06-21T14:17:27Z</time><pdop>3.0</pdop><geoidheight>53.00</geoidheight><course>317.6</course><type>1</type></trkpt>
      <trkpt lat="39.2562396" lon="-6.1666301"><ele>2414</ele><speed>10.00</speed><time>2016-06-21T14:17:28Z</time><pdop>5.0</pdop><geoidheight>53.00</geoidheight><course>317.6</course><type>1</type></trkpt>
      <trkpt lat="39.25632356" lon="-6.16669643"><ele>2413</ele><speed>10.75</speed><time>2016-06-21T14:17:29Z</time><pdop>4.0</pdop><geoidheight>53.00</geoidheight><course>322.7</course><type>1</type></trkpt>
      <trkpt lat="39.25640347" lon="-6.16678086"><ele>2414</ele><speed>11.50</speed><time>2016-06-21T14:17:30Z</time><pdop>4.0</pdop><geoidheight>53.00</geoidheight><course>321.8</course><type>1</type></trkpt>
      <trkpt lat="39.2565675" lon="-6.16693405"><ele>2416</ele><speed>11.00</speed><time>2016-06-21T14:17:32Z</time><pdop>3.0</pdop><geoidheight>53.00</geoidheight><course>326.2</course><type>1</type></trkpt>
      <trkpt lat="39.25665553" lon="-6.16699154"><ele>2417</ele><speed>10.75</speed><time>2016-06-21T14:17:33Z</time><pdop>4.0</pdop><geoidheight>53.00</geoidheight><course>332.2</course><type>1</type></trkpt>
      <trkpt lat="39.25674376" lon="-6.1670477"><ele>2417</ele><speed>10.75</speed><time>2016-06-21T14:17:34Z</time><pdop>4.0</pdop><geoidheight>53.00</geoidheight><course>334.1</course><type>1</type></trkpt>
      <trkpt lat="39.25682832" lon="-6.16709973"><ele>2418</ele><speed>10.50</speed><time>2016-06-21T14:17:35Z</time><pdop>4.0</pdop><geoidheight>53.00</geoidheight><course>334.9</course><type>1</type></trkpt>
      <trkpt lat="39.2570219" lon="-6.16719512"><ele>2419</ele><speed>11.00</speed><time>2016-06-21T14:17:37Z</time><pdop>4.0</pdop><geoidheight>53.00</geoidheight><course>339.2</course><type>1</type></trkpt>
      <trkpt lat="39.25711203" lon="-6.16722756"><ele>2420</ele><speed>11.00</speed><time>2016-06-21T14:17:38Z</time><pdop>4.0</pdop><geoidheight>53.00</geoidheight><course>342.8</course><type>1</type></trkpt>
      <trkpt lat="39.25721081" lon="-6.16725346"><ele>2420</ele><speed>10.75</speed><time>2016-06-21T14:17:39Z</time><pdop>4.0</pdop><geoidheight>53.00</geoidheight><course>345.2</course><type>1</type></trkpt>
      <trkpt lat="39.25731109" lon="-6.16729377"><ele>2421</ele><speed>11.00</speed><time>2016-06-21T14:17:40Z</time><pdop>4.0</pdop><geoidheight>53.00</geoidheight><course>342.0</course><type>1</type></trkpt>
      <trkpt lat="39.25750703" lon="-6.16737497"><ele>2422</ele><speed>11.25</speed><time>2016-06-21T14:17:42Z</time><pdop>3.0</pdop><geoidheight>53.00</geoidheight><course>340.7</course><type>1</type></trkpt>
      <trkpt lat="39.25768449" lon="-6.16742747"><ele>2423</ele><speed>10.25</speed><time>2016-06-21T14:17:44Z</time><pdop>4.0</pdop><geoidheight>53.00</geoidheight><course>349.1</course><type>1</type></trkpt>
      <trkpt lat="39.25785105" lon="-6.16744684"><ele>2423</ele><speed>9.25</speed><time>2016-06-21T14:17:46Z</time><pdop>3.0</pdop><geoidheight>53.00</geoidheight><course>358.1</course><type>1</type></trkpt>
      <trkpt lat="39.25793801" lon="-6.16744421"><ele>2422</ele><speed>9.50</speed><time>2016-06-21T14:17:47Z</time><pdop>4.0</pdop><geoidheight>53.00</geoidheight><course>1.7</course><type>1</type></trkpt>
      <trkpt lat="39.25811721" lon="-6.16742649"><ele>2421</ele><speed>10.25</speed><time>2016-06-21T14:17:49Z</time><pdop>3.0</pdop><geoidheight>53.00</geoidheight><course>5.4</course><type>1</type></trkpt>
      <trkpt lat="39.25828093" lon="-6.16739034"><ele>2423</ele><speed>9.50</speed><time>2016-06-21T14:17:51Z</time><pdop>4.0</pdop><geoidheight>53.00</geoidheight><course>7.9</course><type>1</type></trkpt>
      <trkpt lat="39.25835428" lon="-6.16736927"><ele>2423</ele><speed>8.50</speed><time>2016-06-21T14:17:52Z</time><pdop>3.0</pdop><geoidheight>53.00</geoidheight><course>9.4</course><type>1</type></trkpt>
      <trkpt lat="39.25849122" lon="-6.16731179"><ele>2420</ele><speed>8.00</speed><time>2016-06-21T14:17:54Z</time><pdop>3.0</pdop><geoidheight>53.00</geoidheight><course>18.9</course><type>1</type></trkpt>
      <trkpt lat="39.25855747" lon="-6.16727121"><ele>2418</ele><speed>8.25</speed><time>2016-06-21T14:17:55Z</time><pdop>3.0</pdop><geoidheight>53.00</geoidheight><course>25.2</course><type>1</type></trkpt>
      <trkpt lat="39.25869873" lon="-6.16722473"><ele>2418</ele><speed>7.75</speed><time>2016-06-21T14:17:57Z</time><pdop>3.0</pdop><geoidheight>53.00</geoidheight><course>10.1</course><type>1</type></trkpt>
      <trkpt lat="39.25885526" lon="-6.16730328"><ele>2416</ele><speed>10.00</speed><time>2016-06-21T14:17:59Z</time><pdop>3.0</pdop><geoidheight>53.00</geoidheight><course>331.4</course><type>1</type></trkpt>
      <trkpt lat="39.25893424" lon="-6.16735874"><ele>2414</ele><speed>10.00</speed><time>2016-06-21T14:18:00Z</time><pdop>5.0</pdop><geoidheight>53.00</geoidheight><course>331.4</course><type>1</type></trkpt>
      <trkpt lat="39.25900719" lon="-6.16747569"><ele>2415</ele><speed>11.25</speed><time>2016-06-21T14:18:01Z</time><pdop>4.0</pdop><geoidheight>53.00</geoidheight><course>317.7</course><type>1</type></trkpt>
      <trkpt lat="39.25912508" lon="-6.16765655"><ele>2416</ele><speed>10.25</speed><time>2016-06-21T14:18:03Z</time><pdop>4.0</pdop><geoidheight>53.00</geoidheight><course>307.3</course><type>1</type></trkpt>
      <trkpt lat="39.25917611" lon="-6.16775899"><ele>2415</ele><speed>10.50</speed><time>2016-06-21T14:18:04Z</time><pdop>3.0</pdop><geoidheight>53.00</geoidheight><course>302.9</course><type>1</type></trkpt>
      <trkpt lat="39.25929802" lon="-6.16798832"><ele>2412</ele><speed>12.25</speed><time>2016-06-21T14:18:06Z</time><pdop>4.0</pdop><geoidheight>53.00</geoidheight><course>305.8</course><type>1</type></trkpt>
      <trkpt lat="39.25936959" lon="-6.16809523"><ele>2412</ele><speed>12.25</speed><time>2016-06-21T14:18:07Z</time><pdop>3.0</pdop><geoidheight>53.00</geoidheight><course>309.6</course><type>1</type></trkpt>
      <trkpt lat="39.25950441" lon="-6.16829549"><ele>2412</ele><speed>11.00</speed><time>2016-06-21T14:18:09Z</time><pdop>4.0</pdop><geoidheight>53.00</geoidheight><course>312.3</course><type>1</type></trkpt>
      <trkpt lat="39.2596249" lon="-6.16846025"><ele>2412</ele><speed>10.00</speed><time>2016-06-21T14:18:11Z</time><pdop>4.0</pdop><geoidheight>53.00</geoidheight><course>310.7</course><type>1</type></trkpt>
      <trkpt lat="39.25993283" lon="-6.16884401"><ele>2413</ele><speed>12.00</speed><time>2016-06-21T14:18:15Z</time><pdop>4.0</pdop><geoidheight>53.00</geoidheight><course>319.5</course><type>1</type></trkpt>
      <trkpt lat="39.26000529" lon="-6.1689331"><ele>2414</ele><speed>11.25</speed><time>2016-06-21T14:18:16Z</time><pdop>3.0</pdop><geoidheight>53.00</geoidheight><course>317.8</course><type>1</type></trkpt>
      <trkpt lat="39.26014764" lon="-6.16912666"><ele>2415</ele><speed>12.00</speed><time>2016-06-21T14:18:18Z</time><pdop>4.0</pdop><geoidheight>53.00</geoidheight><course>312.8</course><type>1</type></trkpt>
      <trkpt lat="39.26038562" lon="-6.16944489"><ele>2415</ele><speed>12.50</speed><time>2016-06-21T14:18:21Z</time><pdop>3.0</pdop><geoidheight>53.00</geoidheight><course>312.2</course><type>1</type></trkpt>
      <trkpt lat="39.26046063" lon="-6.16955642"><ele>2415</ele><speed>12.75</speed><time>2016-06-21T14:18:22Z</time><pdop>4.0</pdop><geoidheight>53.00</geoidheight><course>311.3</course><type>1</type></trkpt>
      <trkpt lat="39.26053687" lon="-6.16966937"><ele>2415</ele><speed>13.00</speed><time>2016-06-21T14:18:23Z</time><pdop>4.0</pdop><geoidheight>53.00</geoidheight><course>311.7</course><type>1</type></trkpt>
      <trkpt lat="39.26062207" lon="-6.1697683"><ele>2413</ele><speed>12.75</speed><time>2016-06-21T14:18:24Z</time><pdop>3.0</pdop><geoidheight>53.00</geoidheight><course>316.7</course><type>1</type></trkpt>
      <trkpt lat="39.26070549" lon="-6.16986603"><ele>2411</ele><speed>13.00</speed><time>2016-06-21T14:18:25Z</time><pdop>3.0</pdop><geoidheight>53.00</geoidheight><course>317.5</course><type>1</type></trkpt>
      <trkpt lat="39.26078877" lon="-6.16997519"><ele>2411</ele><speed>13.25</speed><time>2016-06-21T14:18:26Z</time><pdop>4.0</pdop><geoidheight>53.00</geoidheight><course>315.0</course><type>1</type></trkpt>
      <trkpt lat="39.26087138" lon="-6.17007972"><ele>2410</ele><speed>13.00</speed><time>2016-06-21T14:18:27Z</time><pdop>3.0</pdop><geoidheight>53.00</geoidheight><course>315.0</course><type>1</type></trkpt>
      <trkpt lat="39.26095172" lon="-6.17017655"><ele>2410</ele><speed>12.50</speed><time>2016-06-21T14:18:28Z</time><pdop>3.0</pdop><geoidheight>53.00</geoidheight><course>315.8</course><type>1</type></trkpt>
      <trkpt lat="39.26103548" lon="-6.17027177"><ele>2408</ele><speed>12.25</speed><time>2016-06-21T14:18:29Z</time><pdop>3.0</pdop><geoidheight>53.00</geoidheight><course>318.2</course><type>1</type></trkpt>
      <trkpt lat="39.26121058" lon="-6.1704598"><ele>2405</ele><speed>12.75</speed><time>2016-06-21T14:18:31Z</time><pdop>3.0</pdop><geoidheight>53.00</geoidheight><course>320.7</course><type>1</type></trkpt>
      <trkpt lat="39.2613034" lon="-6.17055638"><ele>2404</ele><speed>13.00</speed><time>2016-06-21T14:18:32Z</time><pdop>4.0</pdop><geoidheight>53.00</geoidheight><course>320.5</course><type>1</type></trkpt>
      <trkpt lat="39.26139614" lon="-6.17064984"><ele>2403</ele><speed>13.00</speed><time>2016-06-21T14:18:33Z</time><pdop>3.0</pdop><geoidheight>53.00</geoidheight><course>320.8</course><type>1</type></trkpt>
      <trkpt lat="39.26157358" lon="-6.17084235"><ele>2400</ele><speed>12.75</speed><time>2016-06-21T14:18:35Z</time><pdop>4.0</pdop><geoidheight>53.00</geoidheight><course>319.1</course><type>1</type></trkpt>
      <trkpt lat="39.26166341" lon="-6.17094157"><ele>2398</ele><speed>12.75</speed><time>2016-06-21T14:18:36Z</time><pdop>3.0</pdop><geoidheight>53.00</geoidheight><course>319.1</course><type>1</type></trkpt>
      <trkpt lat="39.26175432" lon="-6.17103811"><ele>2396</ele><speed>13.25</speed><time>2016-06-21T14:18:37Z</time><pdop>3.0</pdop><geoidheight>53.00</geoidheight><course>319.7</course><type>1</type></trkpt>
      <trkpt lat="39.26185278" lon="-6.17113609"><ele>2393</ele><speed>13.50</speed><time>2016-06-21T14:18:38Z</time><pdop>3.0</pdop><geoidheight>53.00</geoidheight><course>321.2</course><type>1</type></trkpt>
      <trkpt lat="39.26204201" lon="-6.17131303"><ele>2391</ele><speed>12.75</speed><time>2016-06-21T14:18:40Z</time><pdop>3.0</pdop><geoidheight>53.00</geoidheight><course>325.1</course><type>1</type></trkpt>
      <trkpt lat="39.26221926" lon="-6.17146646"><ele>2387</ele><speed>11.75</speed><time>2016-06-21T14:18:42Z</time><pdop>3.0</pdop><geoidheight>53.00</geoidheight><course>326.2</course><type>1</type></trkpt>
      <trkpt lat="39.26240762" lon="-6.17164243"><ele>2382</ele><speed>13.00</speed><time>2016-06-21T14:18:44Z</time><pdop>4.0</pdop><geoidheight>53.00</geoidheight><course>323.5</course><type>1</type></trkpt>
      <trkpt lat="39.26250542" lon="-6.17173143"><ele>2380</ele><speed>13.50</speed><time>2016-06-21T14:18:45Z</time><pdop>3.0</pdop><geoidheight>53.00</geoidheight><course>324.5</course><type>1</type></trkpt>
      <trkpt lat="39.26260489" lon="-6.17182102"><ele>2378</ele><speed>13.50</speed><time>2016-06-21T14:18:46Z</time><pdop>3.0</pdop><geoidheight>53.00</geoidheight><course>325.4</course><type>1</type></trkpt>
      <trkpt lat="39.26270293" lon="-6.17190401"><ele>2376</ele><speed>13.25</speed><time>2016-06-21T14:18:47Z</time><pdop>3.0</pdop><geoidheight>53.00</geoidheight><course>327.0</course><type>1</type></trkpt>
      <trkpt lat="39.26280214" lon="-6.171981"><ele>2374</ele><speed>12.75</speed><time>2016-06-21T14:18:48Z</time><pdop>3.0</pdop><geoidheight>53.00</geoidheight><course>328.4</course><type>1</type></trkpt>
      <trkpt lat="39.26289723" lon="-6.17205863"><ele>2372</ele><speed>12.50</speed><time>2016-06-21T14:18:49Z</time><pdop>3.0</pdop><geoidheight>53.00</geoidheight><course>328.0</course><type>1</type></trkpt>
      <trkpt lat="39.26299479" lon="-6.17213581"><ele>2370</ele><speed>12.75</speed><time>2016-06-21T14:18:50Z</time><pdop>3.0</pdop><geoidheight>53.00</geoidheight><course>326.7</course><type>1</type></trkpt>
      <trkpt lat="39.26309342" lon="-6.17222226"><ele>2368</ele><speed>13.25</speed><time>2016-06-21T14:18:51Z</time><pdop>3.0</pdop><geoidheight>53.00</geoidheight><course>325.7</course><type>1</type></trkpt>
      <trkpt lat="39.26319218" lon="-6.17231144"><ele>2366</ele><speed>13.25</speed><time>2016-06-21T14:18:52Z</time><pdop>3.0</pdop><geoidheight>53.00</geoidheight><course>325.1</course><type>1</type></trkpt>
      <trkpt lat="39.26328658" lon="-6.17239637"><ele>2365</ele><speed>12.75</speed><time>2016-06-21T14:18:53Z</time><pdop>4.0</pdop><geoidheight>53.00</geoidheight><course>325.1</course><type>1</type></trkpt>
      <trkpt lat="39.26338594" lon="-6.17248142"><ele>2363</ele><speed>13.00</speed><time>2016-06-21T14:18:54Z</time><pdop>3.0</pdop><geoidheight>53.00</geoidheight><course>325.4</course><type>1</type></trkpt>
      <trkpt lat="39.26348152" lon="-6.17256529"><ele>2361</ele><speed>13.25</speed><time>2016-06-21T14:18:55Z</time><pdop>3.0</pdop><geoidheight>53.00</geoidheight><course>326.2</course><type>1</type></trkpt>
      <trkpt lat="39.26358416" lon="-6.17265633"><ele>2359</ele><speed>13.75</speed><time>2016-06-21T14:18:56Z</time><pdop>3.0</pdop><geoidheight>53.00</geoidheight><course>325.7</course><type>1</type></trkpt>
      <trkpt lat="39.26368294" lon="-6.17274749"><ele>2358</ele><speed>13.75</speed><time>2016-06-21T14:18:57Z</time><pdop>3.0</pdop><geoidheight>53.00</geoidheight><course>323.6</course><type>1</type></trkpt>
      <trkpt lat="39.26377882" lon="-6.172846"><ele>2358</ele><speed>13.50</speed><time>2016-06-21T14:18:58Z</time><pdop>4.0</pdop><geoidheight>53.00</geoidheight><course>322.1</course><type>1</type></trkpt>
      <trkpt lat="39.26386553" lon="-6.17293914"><ele>2358</ele><speed>13.00</speed><time>2016-06-21T14:18:59Z</time><pdop>3.0</pdop><geoidheight>53.00</geoidheight><course>320.4</course><type>1</type></trkpt>
      <trkpt lat="39.26395531" lon="-6.17302975"><ele>2356</ele><speed>12.75</speed><time>2016-06-21T14:19:00Z</time><pdop>3.0</pdop><geoidheight>53.00</geoidheight><course>319.9</course><type>1</type></trkpt>
      <trkpt lat="39.26404027" lon="-6.17312578"><ele>2356</ele><speed>12.75</speed><time>2016-06-21T14:19:01Z</time><pdop>3.0</pdop><geoidheight>53.00</geoidheight><course>319.3</course><type>1</type></trkpt>
      <trkpt lat="39.26413218" lon="-6.1732202"><ele>2354</ele><speed>13.00</speed><time>2016-06-21T14:19:02Z</time><pdop>3.0</pdop><geoidheight>53.00</geoidheight><course>320.0</course><type>1</type></trkpt>
      <trkpt lat="39.26432185" lon="-6.17340954"><ele>2353</ele><speed>13.50</speed><time>2016-06-21T14:19:04Z</time><pdop>3.0</pdop><geoidheight>53.00</geoidheight><course>322.0</course><type>1</type></trkpt>
      <trkpt lat="39.26441352" lon="-6.17350776"><ele>2353</ele><speed>13.00</speed><time>2016-06-21T14:19:05Z</time><pdop>4.0</pdop><geoidheight>53.00</geoidheight><course>320.5</course><type>1</type></trkpt>
      <trkpt lat="39.26450399" lon="-6.17360384"><ele>2353</ele><speed>13.00</speed><time>2016-06-21T14:19:06Z</time><pdop>5.0</pdop><geoidheight>53.00</geoidheight><course>320.5</course><type>1</type></trkpt>
      <trkpt lat="39.26458149" lon="-6.17370087"><ele>2350</ele><speed>12.75</speed><time>2016-06-21T14:19:07Z</time><pdop>3.0</pdop><geoidheight>53.00</geoidheight><course>318.5</course><type>1</type></trkpt>
      <trkpt lat="39.26466712" lon="-6.17379825"><ele>2348</ele><speed>12.75</speed><time>2016-06-21T14:19:08Z</time><pdop>5.0</pdop><geoidheight>53.00</geoidheight><course>318.5</course><type>1</type></trkpt>
      <trkpt lat="39.26478054" lon="-6.17390946"><ele>2346</ele><speed>14.75</speed><time>2016-06-21T14:19:09Z</time><pdop>4.0</pdop><geoidheight>53.00</geoidheight><course>322.5</course><type>1</type></trkpt>
      <trkpt lat="39.26497936" lon="-6.17412317"><ele>2347</ele><speed>14.00</speed><time>2016-06-21T14:19:11Z</time><pdop>3.0</pdop><geoidheight>53.00</geoidheight><course>318.6</course><type>1</type></trkpt>
      <trkpt lat="39.26515543" lon="-6.17431772"><ele>2345</ele><speed>12.50</speed><time>2016-06-21T14:19:13Z</time><pdop>3.0</pdop><geoidheight>53.00</geoidheight><course>319.4</course><type>1</type></trkpt>
      <trkpt lat="39.26532802" lon="-6.17449664"><ele>2343</ele><speed>12.00</speed><time>2016-06-21T14:19:15Z</time><pdop>3.0</pdop><geoidheight>53.00</geoidheight><course>321.2</course><type>1</type></trkpt>
      <trkpt lat="39.26540549" lon="-6.17458279"><ele>2342</ele><speed>11.50</speed><time>2016-06-21T14:19:16Z</time><pdop>4.0</pdop><geoidheight>53.00</geoidheight><course>318.9</course><type>1</type></trkpt>
      <trkpt lat="39.2655631" lon="-6.17479392"><ele>2339</ele><speed>13.00</speed><time>2016-06-21T14:19:18Z</time><pdop>4.0</pdop><geoidheight>53.00</geoidheight><course>312.9</course><type>1</type></trkpt>
      <trkpt lat="39.26571913" lon="-6.17503625"><ele>2339</ele><speed>13.50</speed><time>2016-06-21T14:19:20Z</time><pdop>6.0</pdop><geoidheight>53.00</geoidheight><course>309.9</course><type>1</type></trkpt>
      <trkpt lat="39.26579783" lon="-6.17515953"><ele>2337</ele><speed>14.25</speed><time>2016-06-21T14:19:21Z</time><pdop>4.0</pdop><geoidheight>53.00</geoidheight><course>309.5</course><type>1</type></trkpt>
      <trkpt lat="39.26588691" lon="-6.17529177"><ele>2336</ele><speed>15.00</speed><time>2016-06-21T14:19:22Z</time><pdop>3.0</pdop><geoidheight>53.00</geoidheight><course>310.0</course><type>1</type></trkpt>
      <trkpt lat="39.26607385" lon="-6.17555366"><ele>2336</ele><speed>15.25</speed><time>2016-06-21T14:19:24Z</time><pdop>3.0</pdop><geoidheight>53.00</geoidheight><course>313.2</course><type>1</type></trkpt>
      <trkpt lat="39.26616749" lon="-6.17568379"><ele>2336</ele><speed>15.25</speed><time>2016-06-21T14:19:25Z</time><pdop>5.0</pdop><geoidheight>53.00</geoidheight><course>312.4</course><type>1</type></trkpt>
      <trkpt lat="39.26634311" lon="-6.17588494"><ele>2333</ele><speed>13.50</speed><time>2016-06-21T14:19:27Z</time><pdop>3.0</pdop><geoidheight>53.00</geoidheight><course>316.3</course><type>1</type></trkpt>
      <trkpt lat="39.26653524" lon="-6.17609884"><ele>2329</ele><speed>15.00</speed><time>2016-06-21T14:19:29Z</time><pdop>3.0</pdop><geoidheight>53.00</geoidheight><course>320.9</course><type>1</type></trkpt>
      <trkpt lat="39.26664238" lon="-6.17620715"><ele>2327</ele><speed>15.00</speed><time>2016-06-21T14:19:30Z</time><pdop>3.0</pdop><geoidheight>53.00</geoidheight><course>321.8</course><type>1</type></trkpt>
      <trkpt lat="39.26674374" lon="-6.17630391"><ele>2327</ele><speed>14.25</speed><time>2016-06-21T14:19:31Z</time><pdop>3.0</pdop><geoidheight>53.00</geoidheight><course>322.5</course><type>1</type></trkpt>
      <trkpt lat="39.26694761" lon="-6.17649131"><ele>2323</ele><speed>14.00</speed><time>2016-06-21T14:19:33Z</time><pdop>3.0</pdop><geoidheight>53.00</geoidheight><course>323.2</course><type>1</type></trkpt>
      <trkpt lat="39.26705204" lon="-6.17659639"><ele>2326</ele><speed>14.75</speed><time>2016-06-21T14:19:34Z</time><pdop>3.0</pdop><geoidheight>53.00</geoidheight><course>322.2</course><type>1</type></trkpt>
      <trkpt lat="39.2671599" lon="-6.17670275"><ele>2322</ele><speed>15.25</speed><time>2016-06-21T14:19:35Z</time><pdop>3.0</pdop><geoidheight>53.00</geoidheight><course>321.7</course><type>1</type></trkpt>
      <trkpt lat="39.26733937" lon="-6.17693934"><ele>2332</ele><speed>15.00</speed><time>2016-06-21T14:19:37Z</time><pdop>5.0</pdop><geoidheight>53.00</geoidheight><course>322.9</course><type>1</type></trkpt>
      <trkpt lat="39.26744758" lon="-6.17704241"><ele>2332</ele><speed>15.00</speed><time>2016-06-21T14:19:38Z</time><pdop>6.0</pdop><geoidheight>53.00</geoidheight><course>323.0</course><type>1</type></trkpt>
      <trkpt lat="39.26767025" lon="-6.17724224"><ele>2335</ele><speed>15.00</speed><time>2016-06-21T14:19:40Z</time><pdop>7.0</pdop><geoidheight>53.00</geoidheight><course>323.1</course><type>1</type></trkpt>
      <trkpt lat="39.2678254" lon="-6.1774109"><ele>2315</ele><speed>13.75</speed><time>2016-06-21T14:19:42Z</time><pdop>4.0</pdop><geoidheight>53.00</geoidheight><course>319.2</course><type>1</type></trkpt>
      <trkpt lat="39.26791813" lon="-6.17749802"><ele>2315</ele><speed>13.25</speed><time>2016-06-21T14:19:43Z</time><pdop>4.0</pdop><geoidheight>53.00</geoidheight><course>321.3</course><type>1</type></trkpt>
      <trkpt lat="39.27157578" lon="-6.1802734"><ele>2245</ele><speed>13.09</speed><time>2016-06-21T14:20:19Z</time><pdop>7.0</pdop><geoidheight>53.00</geoidheight><course>332.2</course><type>1</type></trkpt>
      <trkpt lat="39.27172518" lon="-6.18037481"><ele>2243</ele><speed>13.09</speed><time>2016-06-21T14:20:21Z</time><pdop>9.0</pdop><geoidheight>53.00</geoidheight><course>332.2</course><type>1</type></trkpt>
      <trkpt lat="39.27183995" lon="-6.18047851"><ele>2245</ele><speed>12.50</speed><time>2016-06-21T14:20:22Z</time><pdop>5.0</pdop><geoidheight>53.00</geoidheight><course>323.5</course><type>1</type></trkpt>
      <trkpt lat="39.27192183" lon="-6.1805638"><ele>2244</ele><speed>13.00</speed><time>2016-06-21T14:20:23Z</time><pdop>4.0</pdop><geoidheight>53.00</geoidheight><course>319.1</course><type>1</type></trkpt>
      <trkpt lat="39.27208844" lon="-6.18078423"><ele>2242</ele><speed>13.25</speed><time>2016-06-21T14:20:25Z</time><pdop>4.0</pdop><geoidheight>53.00</geoidheight><course>315.6</course><type>1</type></trkpt>
      <trkpt lat="39.2721656" lon="-6.18088869"><ele>2242</ele><speed>13.00</speed><time>2016-06-21T14:20:26Z</time><pdop>5.0</pdop><geoidheight>53.00</geoidheight><course>317.4</course><type>1</type></trkpt>
      <trkpt lat="39.27234023" lon="-6.18111113"><ele>2238</ele><speed>13.75</speed><time>2016-06-21T14:20:28Z</time><pdop>3.0</pdop><geoidheight>53.00</geoidheight><course>313.2</course><type>1</type></trkpt>
      <trkpt lat="39.27243059" lon="-6.18123035"><ele>2236</ele><speed>14.00</speed><time>2016-06-21T14:20:29Z</time><pdop>3.0</pdop><geoidheight>53.00</geoidheight><course>313.3</course><type>1</type></trkpt>
      <trkpt lat="39.27252768" lon="-6.18134514"><ele>2234</ele><speed>14.00</speed><time>2016-06-21T14:20:30Z</time><pdop>3.0</pdop><geoidheight>53.00</geoidheight><course>314.3</course><type>1</type></trkpt>
      <trkpt lat="39.27270991" lon="-6.18156804"><ele>2231</ele><speed>14.00</speed><time>2016-06-21T14:20:32Z</time><pdop>5.0</pdop><geoidheight>53.00</geoidheight><course>314.0</course><type>1</type></trkpt>
      <trkpt lat="39.2727972" lon="-6.1816809"><ele>2229</ele><speed>14.00</speed><time>2016-06-21T14:20:33Z</time><pdop>7.0</pdop><geoidheight>53.00</geoidheight><course>312.8</course><type>1</type></trkpt>
      <trkpt lat="39.27290018" lon="-6.18184478"><ele>2228</ele><speed>16.25</speed><time>2016-06-21T14:20:34Z</time><pdop>3.0</pdop><geoidheight>53.00</geoidheight><course>308.3</course><type>1</type></trkpt>
      <trkpt lat="39.27307871" lon="-6.18213729"><ele>2227</ele><speed>15.75</speed><time>2016-06-21T14:20:36Z</time><pdop>4.0</pdop><geoidheight>53.00</geoidheight><course>309.2</course><type>1</type></trkpt>
      <trkpt lat="39.27324747" lon="-6.18240331"><ele>2225</ele><speed>14.75</speed><time>2016-06-21T14:20:38Z</time><pdop>4.0</pdop><geoidheight>53.00</geoidheight><course>308.6</course><type>1</type></trkpt>
      <trkpt lat="39.27333463" lon="-6.18253761"><ele>2221</ele><speed>15.00</speed><time>2016-06-21T14:20:39Z</time><pdop>3.0</pdop><geoidheight>53.00</geoidheight><course>308.6</course><type>1</type></trkpt>
      <trkpt lat="39.27341686" lon="-6.18268102"><ele>2219</ele><speed>15.50</speed><time>2016-06-21T14:20:40Z</time><pdop>3.0</pdop><geoidheight>53.00</geoidheight><course>307.4</course><type>1</type></trkpt>
      <trkpt lat="39.27359839" lon="-6.18295526"><ele>2215</ele><speed>15.50</speed><time>2016-06-21T14:20:42Z</time><pdop>3.0</pdop><geoidheight>53.00</geoidheight><course>309.7</course><type>1</type></trkpt>
      <trkpt lat="39.27368788" lon="-6.18308402"><ele>2214</ele><speed>15.25</speed><time>2016-06-21T14:20:43Z</time><pdop>4.0</pdop><geoidheight>53.00</geoidheight><course>310.9</course><type>1</type></trkpt>
      <trkpt lat="39.27377655" lon="-6.18321466"><ele>2213</ele><speed>15.00</speed><time>2016-06-21T14:20:44Z</time><pdop>4.0</pdop><geoidheight>53.00</geoidheight><course>311.8</course><type>1</type></trkpt>
      <trkpt lat="39.27396478" lon="-6.18347678"><ele>2207</ele><speed>15.75</speed><time>2016-06-21T14:20:46Z</time><pdop>3.0</pdop><geoidheight>53.00</geoidheight><course>311.5</course><type>1</type></trkpt>
      <trkpt lat="39.27416174" lon="-6.18372317"><ele>2204</ele><speed>15.25</speed><time>2016-06-21T14:20:48Z</time><pdop>5.0</pdop><geoidheight>53.00</geoidheight><course>317.8</course><type>1</type></trkpt>
      <trkpt lat="39.27424096" lon="-6.18385924"><ele>2218</ele><speed>15.00</speed><time>2016-06-21T14:20:49Z</time><pdop>4.0</pdop><geoidheight>53.00</geoidheight><course>312.4</course><type>1</type></trkpt>
      <trkpt lat="39.27432234" lon="-6.1839968"><ele>2215</ele><speed>15.25</speed><time>2016-06-21T14:20:50Z</time><pdop>5.0</pdop><geoidheight>53.00</geoidheight><course>308.2</course><type>1</type></trkpt>
      <trkpt lat="39.27439789" lon="-6.18414724"><ele>2213</ele><speed>15.75</speed><time>2016-06-21T14:20:51Z</time><pdop>6.0</pdop><geoidheight>53.00</geoidheight><course>304.0</course><type>1</type></trkpt>
      <trkpt lat="39.27449614" lon="-6.18423579"><ele>2207</ele><speed>15.00</speed><time>2016-06-21T14:20:52Z</time><pdop>4.0</pdop><geoidheight>53.00</geoidheight><course>312.5</course><type>1</type></trkpt>
      <trkpt lat="39.27469318" lon="-6.18449701"><ele>2203</ele><speed>15.25</speed><time>2016-06-21T14:20:54Z</time><pdop>5.0</pdop><geoidheight>53.00</geoidheight><course>314.4</course><type>1</type></trkpt>
      <trkpt lat="39.27479137" lon="-6.18462337"><ele>2202</ele><speed>15.25</speed><time>2016-06-21T14:20:55Z</time><pdop>6.0</pdop><geoidheight>53.00</geoidheight><course>315.6</course><type>1</type></trkpt>
      <trkpt lat="39.27498651" lon="-6.18486951"><ele>2200</ele><speed>14.75</speed><time>2016-06-21T14:20:57Z</time><pdop>6.0</pdop><geoidheight>53.00</geoidheight><course>315.5</course><type>1</type></trkpt>
      <trkpt lat="39.2750756" lon="-6.18497938"><ele>2197</ele><speed>14.50</speed><time>2016-06-21T14:20:58Z</time><pdop>5.0</pdop><geoidheight>53.00</geoidheight><course>316.0</course><type>1</type></trkpt>
      <trkpt lat="39.27526552" lon="-6.18520078"><ele>2194</ele><speed>14.50</speed><time>2016-06-21T14:21:00Z</time><pdop>5.0</pdop><geoidheight>53.00</geoidheight><course>316.4</course><type>1</type></trkpt>
      <trkpt lat="39.27545811" lon="-6.18543254"><ele>2191</ele><speed>15.25</speed><time>2016-06-21T14:21:02Z</time><pdop>5.0</pdop><geoidheight>53.00</geoidheight><course>318.6</course><type>1</type></trkpt>
      <trkpt lat="39.27556613" lon="-6.18555126"><ele>2188</ele><speed>15.50</speed><time>2016-06-21T14:21:03Z</time><pdop>5.0</pdop><geoidheight>53.00</geoidheight><course>319.7</course><type>1</type></trkpt>
      <trkpt lat="39.27567408" lon="-6.18567239"><ele>2187</ele><speed>16.00</speed><time>2016-06-21T14:21:04Z</time><pdop>5.0</pdop><geoidheight>53.00</geoidheight><course>319.2</course><type>1</type></trkpt>
      <trkpt lat="39.27587758" lon="-6.1859067"><ele>2186</ele><speed>15.25</speed><time>2016-06-21T14:21:06Z</time><pdop>5.0</pdop><geoidheight>53.00</geoidheight><course>318.4</course><type>1</type></trkpt>
      <trkpt lat="39.27597921" lon="-6.18602501"><ele>2186</ele><speed>15.00</speed><time>2016-06-21T14:21:07Z</time><pdop>5.0</pdop><geoidheight>53.00</geoidheight><course>317.6</course><type>1</type></trkpt>
      <trkpt lat="39.27607967" lon="-6.18613243"><ele>2185</ele><speed>14.75</speed><time>2016-06-21T14:21:08Z</time><pdop>4.0</pdop><geoidheight>53.00</geoidheight><course>317.9</course><type>1</type></trkpt>
      <trkpt lat="39.27628899" lon="-6.18634039"><ele>2180</ele><speed>14.75</speed><time>2016-06-21T14:21:10Z</time><pdop>4.0</pdop><geoidheight>53.00</geoidheight><course>319.5</course><type>1</type></trkpt>
      <trkpt lat="39.27647904" lon="-6.18657042"><ele>2180</ele><speed>14.25</speed><time>2016-06-21T14:21:12Z</time><pdop>4.0</pdop><geoidheight>53.00</geoidheight><course>316.7</course><type>1</type></trkpt>
      <trkpt lat="39.27657545" lon="-6.18666757"><ele>2178</ele><speed>14.00</speed><time>2016-06-21T14:21:13Z</time><pdop>4.0</pdop><geoidheight>53.00</geoidheight><course>317.8</course><type>1</type></trkpt>
      <trkpt lat="39.27667502" lon="-6.18677402"><ele>2178</ele><speed>14.25</speed><time>2016-06-21T14:21:14Z</time><pdop>5.0</pdop><geoidheight>53.00</geoidheight><course>318.4</course><type>1</type></trkpt>
      <trkpt lat="39.27677569" lon="-6.18687386"><ele>2177</ele><speed>14.25</speed><time>2016-06-21T14:21:15Z</time><pdop>5.0</pdop><geoidheight>53.00</geoidheight><course>318.8</course><type>1</type></trkpt>
      <trkpt lat="39.27687056" lon="-6.18697712"><ele>2174</ele><speed>14.25</speed><time>2016-06-21T14:21:16Z</time><pdop>4.0</pdop><geoidheight>53.00</geoidheight><course>317.5</course><type>1</type></trkpt>
      <trkpt lat="39.27707106" lon="-6.18718539"><ele>2172</ele><speed>14.25</speed><time>2016-06-21T14:21:18Z</time><pdop>4.0</pdop><geoidheight>53.00</geoidheight><course>316.9</course><type>1</type></trkpt>
      <trkpt lat="39.27724726" lon="-6.18739867"><ele>2172</ele><speed>13.00</speed><time>2016-06-21T14:21:20Z</time><pdop>4.0</pdop><geoidheight>53.00</geoidheight><course>317.6</course><type>1</type></trkpt>
      <trkpt lat="39.2774226" lon="-6.18761091"><ele>2169</ele><speed>13.25</speed><time>2016-06-21T14:21:22Z</time><pdop>4.0</pdop><geoidheight>53.00</geoidheight><course>316.4</course><type>1</type></trkpt>
      <trkpt lat="39.27751848" lon="-6.18775043"><ele>2168</ele><speed>15.25</speed><time>2016-06-21T14:21:23Z</time><pdop>4.0</pdop><geoidheight>53.00</geoidheight><course>313.6</course><type>1</type></trkpt>
      <trkpt lat="39.27772669" lon="-6.18800389"><ele>2166</ele><speed>15.00</speed><time>2016-06-21T14:21:25Z</time><pdop>4.0</pdop><geoidheight>53.00</geoidheight><course>317.3</course><type>1</type></trkpt>
      <trkpt lat="39.27792158" lon="-6.18821122"><ele>2164</ele><speed>14.00</speed><time>2016-06-21T14:21:27Z</time><pdop>4.0</pdop><geoidheight>53.00</geoidheight><course>317.1</course><type>1</type></trkpt>
      <trkpt lat="39.27801293" lon="-6.18832431"><ele>2161</ele><speed>14.00</speed><time>2016-06-21T14:21:28Z</time><pdop>4.0</pdop><geoidheight>53.00</geoidheight><course>317.2</course><type>1</type></trkpt>
      <trkpt lat="39.27810554" lon="-6.18843304"><ele>2160</ele><speed>14.00</speed><time>2016-06-21T14:21:29Z</time><pdop>4.0</pdop><geoidheight>53.00</geoidheight><course>319.6</course><type>1</type></trkpt>
      <trkpt lat="39.27829814" lon="-6.18861925"><ele>2159</ele><speed>14.25</speed><time>2016-06-21T14:21:31Z</time><pdop>4.0</pdop><geoidheight>53.00</geoidheight><course>325.4</course><type>1</type></trkpt>
      <trkpt lat="39.27850116" lon="-6.18880153"><ele>2157</ele><speed>13.50</speed><time>2016-06-21T14:21:33Z</time><pdop>4.0</pdop><geoidheight>53.00</geoidheight><course>323.8</course><type>1</type></trkpt>
      <trkpt lat="39.27859252" lon="-6.18888663"><ele>2156</ele><speed>13.00</speed><time>2016-06-21T14:21:34Z</time><pdop>3.0</pdop><geoidheight>53.00</geoidheight><course>323.5</course><type>1</type></trkpt>
      <trkpt lat="39.2786801" lon="-6.18896722"><ele>2154</ele><speed>12.50</speed><time>2016-06-21T14:21:35Z</time><pdop>4.0</pdop><geoidheight>54.00</geoidheight><course>323.8</course><type>1</type></trkpt>
      <trkpt lat="39.27887326" lon="-6.18911983"><ele>2151</ele><speed>13.00</speed><time>2016-06-21T14:21:37Z</time><pdop>4.0</pdop><geoidheight>54.00</geoidheight><course>329.1</course><type>1</type></trkpt>
      <trkpt lat="39.27908356" lon="-6.18928269"><ele>2148</ele><speed>14.00</speed><time>2016-06-21T14:21:39Z</time><pdop>4.0</pdop><geoidheight>54.00</geoidheight><course>329.6</course><type>1</type></trkpt>
      <trkpt lat="39.27929039" lon="-6.18943964"><ele>2146</ele><speed>13.25</speed><time>2016-06-21T14:21:41Z</time><pdop>4.0</pdop><geoidheight>54.00</geoidheight><course>330.1</course><type>1</type></trkpt>
      <trkpt lat="39.27939991" lon="-6.18947532"><ele>2140</ele><speed>13.00</speed><time>2016-06-21T14:21:42Z</time><pdop>4.0</pdop><geoidheight>54.00</geoidheight><course>331.7</course><type>1</type></trkpt>
      <trkpt lat="39.27960672" lon="-6.18964388"><ele>2139</ele><speed>13.75</speed><time>2016-06-21T14:21:44Z</time><pdop>4.0</pdop><geoidheight>54.00</geoidheight><course>326.6</course><type>1</type></trkpt>
      <trkpt lat="39.27970623" lon="-6.18970259"><ele>2138</ele><speed>12.75</speed><time>2016-06-21T14:21:45Z</time><pdop>4.0</pdop><geoidheight>54.00</geoidheight><course>330.1</course><type>1</type></trkpt>
      <trkpt lat="39.27991577" lon="-6.18991097"><ele>2136</ele><speed>14.00</speed><time>2016-06-21T14:21:47Z</time><pdop>4.0</pdop><geoidheight>54.00</geoidheight><course>325.0</course><type>1</type></trkpt>
      <trkpt lat="39.28002078" lon="-6.18999386"><ele>2134</ele><speed>13.75</speed><time>2016-06-21T14:21:48Z</time><pdop>3.0</pdop><geoidheight>54.00</geoidheight><course>328.3</course><type>1</type></trkpt>
      <trkpt lat="39.2802286" lon="-6.19014598"><ele>2129</ele><speed>13.75</speed><time>2016-06-21T14:21:50Z</time><pdop>6.0</pdop><geoidheight>54.00</geoidheight><course>328.1</course><type>1</type></trkpt>
      <trkpt lat="39.28033334" lon="-6.19023511"><ele>2127</ele><speed>14.75</speed><time>2016-06-21T14:21:51Z</time><pdop>4.0</pdop><geoidheight>54.00</geoidheight><course>325.8</course><type>1</type></trkpt>
      <trkpt lat="39.28055207" lon="-6.19041788"><ele>2123</ele><speed>14.50</speed><time>2016-06-21T14:21:53Z</time><pdop>4.0</pdop><geoidheight>54.00</geoidheight><course>326.3</course><type>1</type></trkpt>
      <trkpt lat="39.28076759" lon="-6.19059672"><ele>2121</ele><speed>14.25</speed><time>2016-06-21T14:21:55Z</time><pdop>4.0</pdop><geoidheight>54.00</geoidheight><course>326.9</course><type>1</type></trkpt>
      <trkpt lat="39.28097749" lon="-6.19076322"><ele>2118</ele><speed>14.00</speed><time>2016-06-21T14:21:57Z</time><pdop>5.0</pdop><geoidheight>54.00</geoidheight><course>326.6</course><type>1</type></trkpt>
      <trkpt lat="39.28108293" lon="-6.19085904"><ele>2116</ele><speed>14.25</speed><time>2016-06-21T14:21:58Z</time><pdop>4.0</pdop><geoidheight>54.00</geoidheight><course>325.8</course><type>1</type></trkpt>
      <trkpt lat="39.28119715" lon="-6.19095628"><ele>2113</ele><speed>14.75</speed><time>2016-06-21T14:21:59Z</time><pdop>4.0</pdop><geoidheight>54.00</geoidheight><course>327.1</course><type>1</type></trkpt>
      <trkpt lat="39.28142297" lon="-6.19114744"><ele>2110</ele><speed>15.00</speed><time>2016-06-21T14:22:01Z</time><pdop>4.0</pdop><geoidheight>54.00</geoidheight><course>327.5</course><type>1</type></trkpt>
      <trkpt lat="39.28153473" lon="-6.19124811"><ele>2109</ele><speed>14.75</speed><time>2016-06-21T14:22:02Z</time><pdop>4.0</pdop><geoidheight>54.00</geoidheight><course>325.1</course><type>1</type></trkpt>
      <trkpt lat="39.28176127" lon="-6.19144894"><ele>2105</ele><speed>15.25</speed><time>2016-06-21T14:22:04Z</time><pdop>4.0</pdop><geoidheight>54.00</geoidheight><course>325.1</course><type>1</type></trkpt>
      <trkpt lat="39.28199788" lon="-6.19160431"><ele>2100</ele><speed>15.00</speed><time>2016-06-21T14:22:06Z</time><pdop>3.0</pdop><geoidheight>54.00</geoidheight><course>333.2</course><type>1</type></trkpt>
      <trkpt lat="39.28211751" lon="-6.19168784"><ele>2098</ele><speed>15.00</speed><time>2016-06-21T14:22:07Z</time><pdop>4.0</pdop><geoidheight>54.00</geoidheight><course>332.7</course><type>1</type></trkpt>
      <trkpt lat="39.28223439" lon="-6.19177505"><ele>2098</ele><speed>15.00</speed><time>2016-06-21T14:22:08Z</time><pdop>4.0</pdop><geoidheight>54.00</geoidheight><course>331.7</course><type>1</type></trkpt>
      <trkpt lat="39.28236299" lon="-6.19183754"><ele>2095</ele><speed>15.50</speed><time>2016-06-21T14:22:09Z</time><pdop>4.0</pdop><geoidheight>54.00</geoidheight><course>334.1</course><type>1</type></trkpt>
      <trkpt lat="39.28262069" lon="-6.19198381"><ele>2094</ele><speed>15.25</speed><time>2016-06-21T14:22:11Z</time><pdop>4.0</pdop><geoidheight>54.00</geoidheight><course>335.3</course><type>1</type></trkpt>
      <trkpt lat="39.2828583" lon="-6.19210046"><ele>2091</ele><speed>14.00</speed><time>2016-06-21T14:22:13Z</time><pdop>3.0</pdop><geoidheight>54.00</geoidheight><course>336.6</course><type>1</type></trkpt>
      <trkpt lat="39.28297612" lon="-6.19215524"><ele>2090</ele><speed>13.75</speed><time>2016-06-21T14:22:14Z</time><pdop>4.0</pdop><geoidheight>54.00</geoidheight><course>339.2</course><type>1</type></trkpt>
      <trkpt lat="39.28322256" lon="-6.1922761"><ele>2085</ele><speed>14.75</speed><time>2016-06-21T14:22:16Z</time><pdop>4.0</pdop><geoidheight>54.00</geoidheight><course>337.9</course><type>1</type></trkpt>
      <trkpt lat="39.28334435" lon="-6.19234655"><ele>2083</ele><speed>15.25</speed><time>2016-06-21T14:22:17Z</time><pdop>4.0</pdop><geoidheight>54.00</geoidheight><course>335.5</course><type>1</type></trkpt>
      <trkpt lat="39.28346463" lon="-6.19242498"><ele>2081</ele><speed>15.00</speed><time>2016-06-21T14:22:18Z</time><pdop>4.0</pdop><geoidheight>54.00</geoidheight><course>333.8</course><type>1</type></trkpt>
      <trkpt lat="39.283694" lon="-6.19258517"><ele>2081</ele><speed>14.50</speed><time>2016-06-21T14:22:20Z</time><pdop>6.0</pdop><geoidheight>54.00</geoidheight><course>331.4</course><type>1</type></trkpt>
      <trkpt lat="39.28379804" lon="-6.1926684"><ele>2080</ele><speed>13.75</speed><time>2016-06-21T14:22:21Z</time><pdop>3.0</pdop><geoidheight>54.00</geoidheight><course>330.8</course><type>1</type></trkpt>
      <trkpt lat="39.28390912" lon="-6.19273309"><ele>2079</ele><speed>13.75</speed><time>2016-06-21T14:22:22Z</time><pdop>3.0</pdop><geoidheight>54.00</geoidheight><course>335.1</course><type>1</type></trkpt>
      <trkpt lat="39.28402576" lon="-6.19279018"><ele>2077</ele><speed>14.00</speed><time>2016-06-21T14:22:23Z</time><pdop>3.0</pdop><geoidheight>54.00</geoidheight><course>338.3</course><type>1</type></trkpt>
      <trkpt lat="39.28425425" lon="-6.19292088"><ele>2076</ele><speed>14.00</speed><time>2016-06-21T14:22:25Z</time><pdop>4.0</pdop><geoidheight>54.00</geoidheight><course>334.8</course><type>1</type></trkpt>
      <trkpt lat="39.28447575" lon="-6.19308043"><ele>2075</ele><speed>14.00</speed><time>2016-06-21T14:22:27Z</time><pdop>4.0</pdop><geoidheight>54.00</geoidheight><course>330.7</course><type>1</type></trkpt>
      <trkpt lat="39.28457889" lon="-6.19315503"><ele>2072</ele><speed>13.75</speed><time>2016-06-21T14:22:28Z</time><pdop>3.0</pdop><geoidheight>54.00</geoidheight><course>329.4</course><type>1</type></trkpt>
      <trkpt lat="39.28467799" lon="-6.19322905"><ele>2071</ele><speed>13.50</speed><time>2016-06-21T14:22:29Z</time><pdop>3.0</pdop><geoidheight>54.00</geoidheight><course>330.3</course><type>1</type></trkpt>
      <trkpt lat="39.28477663" lon="-6.19330551"><ele>2069</ele><speed>13.25</speed><time>2016-06-21T14:22:30Z</time><pdop>3.0</pdop><geoidheight>54.00</geoidheight><course>329.8</course><type>1</type></trkpt>
      <trkpt lat="39.28496733" lon="-6.19347003"><ele>2068</ele><speed>12.75</speed><time>2016-06-21T14:22:32Z</time><pdop>4.0</pdop><geoidheight>54.00</geoidheight><course>327.0</course><type>1</type></trkpt>
      <trkpt lat="39.28505867" lon="-6.19355355"><ele>2068</ele><speed>12.75</speed><time>2016-06-21T14:22:33Z</time><pdop>4.0</pdop><geoidheight>54.00</geoidheight><course>325.7</course><type>1</type></trkpt>
      <trkpt lat="39.28517766" lon="-6.19363993"><ele>2065</ele><speed>14.00</speed><time>2016-06-21T14:22:34Z</time><pdop>3.0</pdop><geoidheight>54.00</geoidheight><course>328.1</course><type>1</type></trkpt>
      <trkpt lat="39.2853935" lon="-6.19380162"><ele>2063</ele><speed>13.25</speed><time>2016-06-21T14:22:36Z</time><pdop>3.0</pdop><geoidheight>54.00</geoidheight><course>330.3</course><type>1</type></trkpt>
      <trkpt lat="39.28549541" lon="-6.19387575"><ele>2061</ele><speed>12.75</speed><time>2016-06-21T14:22:37Z</time><pdop>4.0</pdop><geoidheight>54.00</geoidheight><course>328.8</course><type>1</type></trkpt>
      <trkpt lat="39.28558941" lon="-6.19394922"><ele>2060</ele><speed>12.25</speed><time>2016-06-21T14:22:38Z</time><pdop>4.0</pdop><geoidheight>54.00</geoidheight><course>328.0</course><type>1</type></trkpt>
      <trkpt lat="39.28578731" lon="-6.19409746"><ele>2058</ele><speed>12.75</speed><time>2016-06-21T14:22:40Z</time><pdop>4.0</pdop><geoidheight>54.00</geoidheight><course>328.9</course><type>1</type></trkpt>
      <trkpt lat="39.2858856" lon="-6.19417374"><ele>2057</ele><speed>12.75</speed><time>2016-06-21T14:22:41Z</time><pdop>7.0</pdop><geoidheight>54.00</geoidheight><course>328.9</course><type>1</type></trkpt>
      <trkpt lat="39.28612928" lon="-6.19433996"><ele>2052</ele><speed>14.00</speed><time>2016-06-21T14:22:43Z</time><pdop>5.0</pdop><geoidheight>54.00</geoidheight><course>330.1</course><type>1</type></trkpt>
      <trkpt lat="39.28622973" lon="-6.19442335"><ele>2051</ele><speed>13.50</speed><time>2016-06-21T14:22:44Z</time><pdop>5.0</pdop><geoidheight>54.00</geoidheight><course>328.1</course><type>1</type></trkpt>
      <trkpt lat="39.28642659" lon="-6.19458361"><ele>2046</ele><speed>12.75</speed><time>2016-06-21T14:22:46Z</time><pdop>3.0</pdop><geoidheight>54.00</geoidheight><course>329.7</course><type>1</type></trkpt>
      <trkpt lat="39.28663568" lon="-6.19471379"><ele>2043</ele><speed>13.25</speed><time>2016-06-21T14:22:48Z</time><pdop>4.0</pdop><geoidheight>54.00</geoidheight><course>334.7</course><type>1</type></trkpt>
      <trkpt lat="39.28674557" lon="-6.1947849"><ele>2041</ele><speed>13.50</speed><time>2016-06-21T14:22:49Z</time><pdop>4.0</pdop><geoidheight>54.00</geoidheight><course>333.0</course><type>1</type></trkpt>
      <trkpt lat="39.28685554" lon="-6.19486256"><ele>2039</ele><speed>13.75</speed><time>2016-06-21T14:22:50Z</time><pdop>4.0</pdop><geoidheight>54.00</geoidheight><course>331.4</course><type>1</type></trkpt>
      <trkpt lat="39.28695996" lon="-6.19494143"><ele>2038</ele><speed>13.50</speed><time>2016-06-21T14:22:51Z</time><pdop>3.0</pdop><geoidheight>54.00</geoidheight><course>330.7</course><type>1</type></trkpt>
      <trkpt lat="39.2870653" lon="-6.19502182"><ele>2036</ele><speed>13.25</speed><time>2016-06-21T14:22:52Z</time><pdop>4.0</pdop><geoidheight>54.00</geoidheight><course>329.8</course><type>1</type></trkpt>
      <trkpt lat="39.28716539" lon="-6.19509593"><ele>2035</ele><speed>13.00</speed><time>2016-06-21T14:22:53Z</time><pdop>4.0</pdop><geoidheight>54.00</geoidheight><course>330.2</course><type>1</type></trkpt>
      <trkpt lat="39.28738385" lon="-6.19527875"><ele>2031</ele><speed>14.25</speed><time>2016-06-21T14:22:55Z</time><pdop>3.0</pdop><geoidheight>54.00</geoidheight><course>326.8</course><type>1</type></trkpt>
      <trkpt lat="39.28748355" lon="-6.19536879"><ele>2029</ele><speed>14.00</speed><time>2016-06-21T14:22:56Z</time><pdop>3.0</pdop><geoidheight>54.00</geoidheight><course>325.4</course><type>1</type></trkpt>
      <trkpt lat="39.28758835" lon="-6.19545701"><ele>2027</ele><speed>13.50</speed><time>2016-06-21T14:22:57Z</time><pdop>3.0</pdop><geoidheight>54.00</geoidheight><course>326.2</course><type>1</type></trkpt>
      <trkpt lat="39.287801" lon="-6.19561715"><ele>2021</ele><speed>13.75</speed><time>2016-06-21T14:22:59Z</time><pdop>3.0</pdop><geoidheight>54.00</geoidheight><course>330.6</course><type>1</type></trkpt>
      <trkpt lat="39.28791773" lon="-6.19569563"><ele>2018</ele><speed>14.25</speed><time>2016-06-21T14:23:00Z</time><pdop>3.0</pdop><geoidheight>54.00</geoidheight><course>331.8</course><type>1</type></trkpt>
      <trkpt lat="39.28814084" lon="-6.19584262"><ele>2014</ele><speed>13.75</speed><time>2016-06-21T14:23:02Z</time><pdop>3.0</pdop><geoidheight>54.00</geoidheight><course>333.5</course><type>1</type></trkpt>
      <trkpt lat="39.28824801" lon="-6.1959044"><ele>2012</ele><speed>12.75</speed><time>2016-06-21T14:23:03Z</time><pdop>3.0</pdop><geoidheight>54.00</geoidheight><course>334.8</course><type>1</type></trkpt>
      <trkpt lat="39.28835325" lon="-6.19596258"><ele>2010</ele><speed>12.25</speed><time>2016-06-21T14:23:04Z</time><pdop>3.0</pdop><geoidheight>54.00</geoidheight><course>335.7</course><type>1</type></trkpt>
      <trkpt lat="39.28857889" lon="-6.19609876"><ele>2003</ele><speed>14.00</speed><time>2016-06-21T14:23:06Z</time><pdop>3.0</pdop><geoidheight>54.00</geoidheight><course>333.1</course><type>1</type></trkpt>
      <trkpt lat="39.28869603" lon="-6.19617544"><ele>2001</ele><speed>14.50</speed><time>2016-06-21T14:23:07Z</time><pdop>4.0</pdop><geoidheight>54.00</geoidheight><course>332.9</course><type>1</type></trkpt>
      <trkpt lat="39.28881801" lon="-6.19624261"><ele>2000</ele><speed>14.50</speed><time>2016-06-21T14:23:08Z</time><pdop>4.0</pdop><geoidheight>54.00</geoidheight><course>336.1</course><type>1</type></trkpt>
      <trkpt lat="39.28892991" lon="-6.19629253"><ele>1999</ele><speed>13.25</speed><time>2016-06-21T14:23:09Z</time><pdop>4.0</pdop><geoidheight>54.00</geoidheight><course>339.2</course><type>1</type></trkpt>
      <trkpt lat="39.28903262" lon="-6.19633776"><ele>1998</ele><speed>12.25</speed><time>2016-06-21T14:23:10Z</time><pdop>4.0</pdop><geoidheight>54.00</geoidheight><course>340.2</course><type>1</type></trkpt>
      <trkpt lat="39.28924158" lon="-6.19646655"><ele>1992</ele><speed>13.00</speed><time>2016-06-21T14:23:12Z</time><pdop>3.0</pdop><geoidheight>54.00</geoidheight><course>333.5</course><type>1</type></trkpt>
      <trkpt lat="39.28934747" lon="-6.19652924"><ele>1988</ele><speed>13.25</speed><time>2016-06-21T14:23:13Z</time><pdop>3.0</pdop><geoidheight>54.00</geoidheight><course>333.8</course><type>1</type></trkpt>
      <trkpt lat="39.2894577" lon="-6.19658536"><ele>1985</ele><speed>13.25</speed><time>2016-06-21T14:23:14Z</time><pdop>3.0</pdop><geoidheight>54.00</geoidheight><course>336.7</course><type>1</type></trkpt>
      <trkpt lat="39.28968038" lon="-6.19670031"><ele>1980</ele><speed>13.00</speed><time>2016-06-21T14:23:16Z</time><pdop>4.0</pdop><geoidheight>54.00</geoidheight><course>337.0</course><type>1</type></trkpt>
      <trkpt lat="39.28979268" lon="-6.19676243"><ele>1977</ele><speed>13.00</speed><time>2016-06-21T14:23:17Z</time><pdop>3.0</pdop><geoidheight>54.00</geoidheight><course>335.4</course><type>1</type></trkpt>
      <trkpt lat="39.28989988" lon="-6.19682562"><ele>1975</ele><speed>13.00</speed><time>2016-06-21T14:23:18Z</time><pdop>5.0</pdop><geoidheight>54.00</geoidheight><course>335.4</course><type>1</type></trkpt>
      <trkpt lat="39.2900988" lon="-6.1969051"><ele>1973</ele><speed>12.00</speed><time>2016-06-21T14:23:20Z</time><pdop>7.0</pdop><geoidheight>54.00</geoidheight><course>340.7</course><type>1</type></trkpt>
      <trkpt lat="39.29021976" lon="-6.19693686"><ele>1972</ele><speed>12.00</speed><time>2016-06-21T14:23:21Z</time><pdop>4.0</pdop><geoidheight>54.00</geoidheight><course>343.4</course><type>1</type></trkpt>
      <trkpt lat="39.29032817" lon="-6.19699725"><ele>1968</ele><speed>12.50</speed><time>2016-06-21T14:23:22Z</time><pdop>3.0</pdop><geoidheight>54.00</geoidheight><course>338.4</course><type>1</type></trkpt>
      <trkpt lat="39.29043474" lon="-6.19705001"><ele>1966</ele><speed>12.50</speed><time>2016-06-21T14:23:23Z</time><pdop>4.0</pdop><geoidheight>54.00</geoidheight><course>339.0</course><type>1</type></trkpt>
      <trkpt lat="39.29064205" lon="-6.19712393"><ele>1963</ele><speed>12.00</speed><time>2016-06-21T14:23:25Z</time><pdop>4.0</pdop><geoidheight>54.00</geoidheight><course>345.9</course><type>1</type></trkpt>
      <trkpt lat="39.29086189" lon="-6.19717699"><ele>1963</ele><speed>12.00</speed><time>2016-06-21T14:23:27Z</time><pdop>5.0</pdop><geoidheight>54.00</geoidheight><course>349.3</course><type>1</type></trkpt>
      <trkpt lat="39.29097169" lon="-6.19720611"><ele>1961</ele><speed>12.00</speed><time>2016-06-21T14:23:28Z</time><pdop>4.0</pdop><geoidheight>54.00</geoidheight><course>348.8</course><type>1</type></trkpt>
      <trkpt lat="39.29119868" lon="-6.19727507"><ele>1957</ele><speed>12.25</speed><time>2016-06-21T14:23:30Z</time><pdop>4.0</pdop><geoidheight>54.00</geoidheight><course>347.9</course><type>1</type></trkpt>
      <trkpt lat="39.29131323" lon="-6.19730694"><ele>1954</ele><speed>12.50</speed><time>2016-06-21T14:23:31Z</time><pdop>4.0</pdop><geoidheight>54.00</geoidheight><course>349.1</course><type>1</type></trkpt>
      <trkpt lat="39.29143312" lon="-6.197329"><ele>1954</ele><speed>12.50</speed><time>2016-06-21T14:23:32Z</time><pdop>4.0</pdop><geoidheight>54.00</geoidheight><course>351.9</course><type>1</type></trkpt>
      <trkpt lat="39.29165378" lon="-6.19738055"><ele>1949</ele><speed>12.25</speed><time>2016-06-21T14:23:34Z</time><pdop>3.0</pdop><geoidheight>54.00</geoidheight><course>349.8</course><type>1</type></trkpt>
      <trkpt lat="39.29175836" lon="-6.19739825"><ele>1947</ele><speed>12.00</speed><time>2016-06-21T14:23:35Z</time><pdop>4.0</pdop><geoidheight>54.00</geoidheight><course>351.6</course><type>1</type></trkpt>
      <trkpt lat="39.29186151" lon="-6.19741087"><ele>1945</ele><speed>11.75</speed><time>2016-06-21T14:23:36Z</time><pdop>4.0</pdop><geoidheight>54.00</geoidheight><course>353.1</course><type>1</type></trkpt>
      <trkpt lat="39.2919723" lon="-6.19743172"><ele>1943</ele><speed>11.75</speed><time>2016-06-21T14:23:37Z</time><pdop>3.0</pdop><geoidheight>54.00</geoidheight><course>352.4</course><type>1</type></trkpt>
      <trkpt lat="39.29207451" lon="-6.19746591"><ele>1938</ele><speed>11.75</speed><time>2016-06-21T14:23:38Z</time><pdop>4.0</pdop><geoidheight>54.00</geoidheight><course>351.8</course><type>1</type></trkpt>
      <trkpt lat="39.29228405" lon="-6.19749896"><ele>1933</ele><speed>11.50</speed><time>2016-06-21T14:23:40Z</time><pdop>3.0</pdop><geoidheight>54.00</geoidheight><course>352.3</course><type>1</type></trkpt>
      <trkpt lat="39.29238335" lon="-6.19750566"><ele>1931</ele><speed>11.25</speed><time>2016-06-21T14:23:41Z</time><pdop>4.0</pdop><geoidheight>54.00</geoidheight><course>355.3</course><type>1</type></trkpt>
      <trkpt lat="39.29248548" lon="-6.1975177"><ele>1929</ele><speed>11.50</speed><time>2016-06-21T14:23:42Z</time><pdop>4.0</pdop><geoidheight>54.00</geoidheight><course>353.7</course><type>1</type></trkpt>
      <trkpt lat="39.29259215" lon="-6.197559"><ele>1924</ele><speed>12.00</speed><time>2016-06-21T14:23:43Z</time><pdop>3.0</pdop><geoidheight>54.00</geoidheight><course>348.7</course><type>1</type></trkpt>
      <trkpt lat="39.29280204" lon="-6.1976134"><ele>1921</ele><speed>12.00</speed><time>2016-06-21T14:23:45Z</time><pdop>4.0</pdop><geoidheight>54.00</geoidheight><course>347.9</course><type>1</type></trkpt>
      <trkpt lat="39.29290858" lon="-6.19764068"><ele>1920</ele><speed>12.00</speed><time>2016-06-21T14:23:46Z</time><pdop>4.0</pdop><geoidheight>54.00</geoidheight><course>348.8</course><type>1</type></trkpt>
      <trkpt lat="39.2931289" lon="-6.19772386"><ele>1914</ele><speed>12.50</speed><time>2016-06-21T14:23:48Z</time><pdop>3.0</pdop><geoidheight>54.00</geoidheight><course>344.2</course><type>1</type></trkpt>
      <trkpt lat="39.29323691" lon="-6.19777689"><ele>1911</ele><speed>12.50</speed><time>2016-06-21T14:23:49Z</time><pdop>4.0</pdop><geoidheight>54.00</geoidheight><course>342.5</course><type>1</type></trkpt>
      <trkpt lat="39.29345687" lon="-6.19786594"><ele>1907</ele><speed>12.25</speed><time>2016-06-21T14:23:51Z</time><pdop>4.0</pdop><geoidheight>54.00</geoidheight><course>344.2</course><type>1</type></trkpt>
      <trkpt lat="39.29356536" lon="-6.19790048"><ele>1906</ele><speed>12.00</speed><time>2016-06-21T14:23:52Z</time><pdop>5.0</pdop><geoidheight>54.00</geoidheight><course>346.6</course><type>1</type></trkpt>
      <trkpt lat="39.29378954" lon="-6.19799551"><ele>1900</ele><speed>13.00</speed><time>2016-06-21T14:23:54Z</time><pdop>4.0</pdop><geoidheight>54.00</geoidheight><course>341.5</course><type>1</type></trkpt>
      <trkpt lat="39.29390598" lon="-6.19808719"><ele>1892</ele><speed>13.25</speed><time>2016-06-21T14:23:55Z</time><pdop>4.0</pdop><geoidheight>54.00</geoidheight><course>338.1</course><type>1</type></trkpt>
      <trkpt lat="39.29401582" lon="-6.19814953"><ele>1889</ele><speed>13.25</speed><time>2016-06-21T14:23:56Z</time><pdop>4.0</pdop><geoidheight>54.00</geoidheight><course>336.5</course><type>1</type></trkpt>
      <trkpt lat="39.29412272" lon="-6.19820763"><ele>1885</ele><speed>12.75</speed><time>2016-06-21T14:23:57Z</time><pdop>4.0</pdop><geoidheight>54.00</geoidheight><course>337.9</course><type>1</type></trkpt>
      <trkpt lat="39.29423064" lon="-6.19825656"><ele>1882</ele><speed>12.25</speed><time>2016-06-21T14:23:58Z</time><pdop>4.0</pdop><geoidheight>54.00</geoidheight><course>340.8</course><type>1</type></trkpt>
      <trkpt lat="39.29444998" lon="-6.19835342"><ele>1878</ele><speed>12.50</speed><time>2016-06-21T14:24:00Z</time><pdop>4.0</pdop><geoidheight>54.00</geoidheight><course>341.7</course><type>1</type></trkpt>
      <trkpt lat="39.29456165" lon="-6.19845248"><ele>1869</ele><speed>12.75</speed><time>2016-06-21T14:24:01Z</time><pdop>4.0</pdop><geoidheight>54.00</geoidheight><course>337.5</course><type>1</type></trkpt>
      <trkpt lat="39.29466473" lon="-6.19852209"><ele>1865</ele><speed>12.25</speed><time>2016-06-21T14:24:02Z</time><pdop>4.0</pdop><geoidheight>54.00</geoidheight><course>338.1</course><type>1</type></trkpt>
      <trkpt lat="39.2948693" lon="-6.19860132"><ele>1859</ele><speed>11.75</speed><time>2016-06-21T14:24:04Z</time><pdop>4.0</pdop><geoidheight>54.00</geoidheight><course>345.5</course><type>1</type></trkpt>
      <trkpt lat="39.29496495" lon="-6.19861901"><ele>1857</ele><speed>11.25</speed><time>2016-06-21T14:24:05Z</time><pdop>4.0</pdop><geoidheight>54.00</geoidheight><course>348.9</course><type>1</type></trkpt>
      <trkpt lat="39.29507086" lon="-6.19866883"><ele>1851</ele><speed>11.75</speed><time>2016-06-21T14:24:06Z</time><pdop>3.0</pdop><geoidheight>54.00</geoidheight><course>342.5</course><type>1</type></trkpt>
      <trkpt lat="39.29529202" lon="-6.19877295"><ele>1843</ele><speed>12.75</speed><time>2016-06-21T14:24:08Z</time><pdop>4.0</pdop><geoidheight>54.00</geoidheight><course>342.8</course><type>1</type></trkpt>
      <trkpt lat="39.29540212" lon="-6.19880907"><ele>1840</ele><speed>12.75</speed><time>2016-06-21T14:24:09Z</time><pdop>4.0</pdop><geoidheight>54.00</geoidheight><course>346.6</course><type>1</type></trkpt>
      <trkpt lat="39.29551256" lon="-6.19883549"><ele>1837</ele><speed>12.25</speed><time>2016-06-21T14:24:10Z</time><pdop>3.0</pdop><geoidheight>54.00</geoidheight><course>349.3</course><type>1</type></trkpt>
      <trkpt lat="39.29572838" lon="-6.1988964"><ele>1830</ele><speed>12.00</speed><time>2016-06-21T14:24:12Z</time><pdop>3.0</pdop><geoidheight>54.00</geoidheight><course>347.2</course><type>1</type></trkpt>
      <trkpt lat="39.29594639" lon="-6.19895664"><ele>1826</ele><speed>12.25</speed><time>2016-06-21T14:24:14Z</time><pdop>4.0</pdop><geoidheight>54.00</geoidheight><course>348.4</course><type>1</type></trkpt>
      <trkpt lat="39.29606682" lon="-6.19897672"><ele>1826</ele><speed>12.75</speed><time>2016-06-21T14:24:15Z</time><pdop>5.0</pdop><geoidheight>54.00</geoidheight><course>350.8</course><type>1</type></trkpt>
      <trkpt lat="39.29619554" lon="-6.19902602"><ele>1821</ele><speed>14.00</speed><time>2016-06-21T14:24:16Z</time><pdop>3.0</pdop><geoidheight>54.00</geoidheight><course>347.4</course><type>1</type></trkpt>
      <trkpt lat="39.29642423" lon="-6.19911306"><ele>1818</ele><speed>14.00</speed><time>2016-06-21T14:24:18Z</time><pdop>4.0</pdop><geoidheight>54.00</geoidheight><course>343.3</course><type>1</type></trkpt>
      <trkpt lat="39.29654521" lon="-6.1991624"><ele>1817</ele><speed>13.75</speed><time>2016-06-21T14:24:19Z</time><pdop>4.0</pdop><geoidheight>54.00</geoidheight><course>342.5</course><type>1</type></trkpt>
      <trkpt lat="39.29678874" lon="-6.19924445"><ele>1816</ele><speed>14.00</speed><time>2016-06-21T14:24:21Z</time><pdop>6.0</pdop><geoidheight>54.00</geoidheight><course>345.2</course><type>1</type></trkpt>
      <trkpt lat="39.29690543" lon="-6.19932525"><ele>1802</ele><speed>13.50</speed><time>2016-06-21T14:24:22Z</time><pdop>3.0</pdop><geoidheight>54.00</geoidheight><course>348.7</course><type>1</type></trkpt>
      <trkpt lat="39.29702668" lon="-6.19936764"><ele>1798</ele><speed>14.00</speed><time>2016-06-21T14:24:23Z</time><pdop>3.0</pdop><geoidheight>54.00</geoidheight><course>347.1</course><type>1</type></trkpt>
      <trkpt lat="39.29727887" lon="-6.19946691"><ele>1790</ele><speed>14.50</speed><time>2016-06-21T14:24:25Z</time><pdop>4.0</pdop><geoidheight>54.00</geoidheight><course>344.0</course><type>1</type></trkpt>
      <trkpt lat="39.29740417" lon="-6.19950744"><ele>1788</ele><speed>14.00</speed><time>2016-06-21T14:24:26Z</time><pdop>4.0</pdop><geoidheight>54.00</geoidheight><course>346.2</course><type>1</type></trkpt>
      <trkpt lat="39.29752319" lon="-6.19955708"><ele>1786</ele><speed>13.75</speed><time>2016-06-21T14:24:27Z</time><pdop>5.0</pdop><geoidheight>54.00</geoidheight><course>344.9</course><type>1</type></trkpt>
      <trkpt lat="39.29764271" lon="-6.19957094"><ele>1784</ele><speed>13.75</speed><time>2016-06-21T14:24:28Z</time><pdop>4.0</pdop><geoidheight>54.00</geoidheight><course>350.6</course><type>1</type></trkpt>
      <trkpt lat="39.29788183" lon="-6.19963065"><ele>1781</ele><speed>13.50</speed><time>2016-06-21T14:24:30Z</time><pdop>4.0</pdop><geoidheight>54.00</geoidheight><course>351.5</course><type>1</type></trkpt>
      <trkpt lat="39.29799697" lon="-6.19963169"><ele>1776</ele><speed>13.75</speed><time>2016-06-21T14:24:31Z</time><pdop>3.0</pdop><geoidheight>54.00</geoidheight><course>354.7</course><type>1</type></trkpt>
      <trkpt lat="39.29810784" lon="-6.19964277"><ele>1773</ele><speed>13.00</speed><time>2016-06-21T14:24:32Z</time><pdop>3.0</pdop><geoidheight>54.00</geoidheight><course>357.5</course><type>1</type></trkpt>
      <trkpt lat="39.29834563" lon="-6.19965405"><ele>1766</ele><speed>14.00</speed><time>2016-06-21T14:24:34Z</time><pdop>3.0</pdop><geoidheight>54.00</geoidheight><course>357.0</course><type>1</type></trkpt>
      <trkpt lat="39.29847569" lon="-6.19967943"><ele>1762</ele><speed>14.50</speed><time>2016-06-21T14:24:35Z</time><pdop>3.0</pdop><geoidheight>54.00</geoidheight><course>353.4</course><type>1</type></trkpt>
      <trkpt lat="39.29860786" lon="-6.19970932"><ele>1760</ele><speed>14.75</speed><time>2016-06-21T14:24:36Z</time><pdop>3.0</pdop><geoidheight>54.00</geoidheight><course>350.8</course><type>1</type></trkpt>
      <trkpt lat="39.29886187" lon="-6.19976774"><ele>1757</ele><speed>14.25</speed><time>2016-06-21T14:24:38Z</time><pdop>3.0</pdop><geoidheight>54.00</geoidheight><course>349.1</course><type>1</type></trkpt>
      <trkpt lat="39.29899039" lon="-6.19977734"><ele>1756</ele><speed>14.00</speed><time>2016-06-21T14:24:39Z</time><pdop>4.0</pdop><geoidheight>54.00</geoidheight><course>355.6</course><type>1</type></trkpt>
      <trkpt lat="39.29910619" lon="-6.19982686"><ele>1756</ele><speed>13.50</speed><time>2016-06-21T14:24:40Z</time><pdop>4.0</pdop><geoidheight>54.00</geoidheight><course>347.5</course><type>1</type></trkpt>
      <trkpt lat="39.29923271" lon="-6.19986908"><ele>1755</ele><speed>13.75</speed><time>2016-06-21T14:24:41Z</time><pdop>3.0</pdop><geoidheight>54.00</geoidheight><course>344.5</course><type>1</type></trkpt>
      <trkpt lat="39.29948022" lon="-6.19997521"><ele>1753</ele><speed>14.00</speed><time>2016-06-21T14:24:43Z</time><pdop>4.0</pdop><geoidheight>54.00</geoidheight><course>341.4</course><type>1</type></trkpt>
      <trkpt lat="39.2995912" lon="-6.2000082"><ele>1753</ele><speed>13.25</speed><time>2016-06-21T14:24:44Z</time><pdop>3.0</pdop><geoidheight>54.00</geoidheight><course>345.7</course><type>1</type></trkpt>
      <trkpt lat="39.29970562" lon="-6.20003571"><ele>1751</ele><speed>12.50</speed><time>2016-06-21T14:24:45Z</time><pdop>4.0</pdop><geoidheight>54.00</geoidheight><course>348.4</course><type>1</type></trkpt>
      <trkpt lat="39.29992141" lon="-6.2001004"><ele>1747</ele><speed>12.75</speed><time>2016-06-21T14:24:47Z</time><pdop>3.0</pdop><geoidheight>54.00</geoidheight><course>347.6</course><type>1</type></trkpt>
      <trkpt lat="39.300043" lon="-6.20012923"><ele>1745</ele><speed>13.50</speed><time>2016-06-21T14:24:48Z</time><pdop>3.0</pdop><geoidheight>54.00</geoidheight><course>349.8</course><type>1</type></trkpt>
      <trkpt lat="39.3001752" lon="-6.20014453"><ele>1744</ele><speed>14.75</speed><time>2016-06-21T14:24:49Z</time><pdop>4.0</pdop><geoidheight>54.00</geoidheight><course>354.6</course><type>1</type></trkpt>
      <trkpt lat="39.30042298" lon="-6.20015999"><ele>1745</ele><speed>13.25</speed><time>2016-06-21T14:24:51Z</time><pdop>4.0</pdop><geoidheight>54.00</geoidheight><course>355.6</course><type>1</type></trkpt>
      <trkpt lat="39.30053171" lon="-6.20017574"><ele>1745</ele><speed>12.25</speed><time>2016-06-21T14:24:52Z</time><pdop>4.0</pdop><geoidheight>54.00</geoidheight><course>353.8</course><type>1</type></trkpt>
      <trkpt lat="39.30063218" lon="-6.2001985"><ele>1745</ele><speed>11.50</speed><time>2016-06-21T14:24:53Z</time><pdop>4.0</pdop><geoidheight>54.00</geoidheight><course>351.4</course><type>1</type></trkpt>
      <trkpt lat="39.3007411" lon="-6.20021392"><ele>1743</ele><speed>12.00</speed><time>2016-06-21T14:24:54Z</time><pdop>4.0</pdop><geoidheight>54.00</geoidheight><course>353.2</course><type>1</type></trkpt>
      <trkpt lat="39.30098106" lon="-6.20024467"><ele>1740</ele><speed>13.75</speed><time>2016-06-21T14:24:56Z</time><pdop>3.0</pdop><geoidheight>54.00</geoidheight><course>354.5</course><type>1</type></trkpt>
      <trkpt lat="39.30110466" lon="-6.20026044"><ele>1739</ele><speed>13.75</speed><time>2016-06-21T14:24:57Z</time><pdop>4.0</pdop><geoidheight>54.00</geoidheight><course>354.4</course><type>1</type></trkpt>
      <trkpt lat="39.3012297" lon="-6.20028145"><ele>1739</ele><speed>14.00</speed><time>2016-06-21T14:24:58Z</time><pdop>4.0</pdop><geoidheight>54.00</geoidheight><course>353.2</course><type>1</type></trkpt>
      <trkpt lat="39.30133616" lon="-6.2003139"><ele>1739</ele><speed>13.25</speed><time>2016-06-21T14:24:59Z</time><pdop>4.0</pdop><geoidheight>54.00</geoidheight><course>349.2</course><type>1</type></trkpt>
      <trkpt lat="39.30155396" lon="-6.20038845"><ele>1736</ele><speed>12.50</speed><time>2016-06-21T14:25:01Z</time><pdop>3.0</pdop><geoidheight>54.00</geoidheight><course>346.2</course><type>1</type></trkpt>
      <trkpt lat="39.30166759" lon="-6.20041933"><ele>1734</ele><speed>13.00</speed><time>2016-06-21T14:25:02Z</time><pdop>4.0</pdop><geoidheight>54.00</geoidheight><course>348.3</course><type>1</type></trkpt>
      <trkpt lat="39.30178984" lon="-6.20044983"><ele>1732</ele><speed>13.75</speed><time>2016-06-21T14:25:03Z</time><pdop>3.0</pdop><geoidheight>54.00</geoidheight><course>349.9</course><type>1</type></trkpt>
      <trkpt lat="39.30204084" lon="-6.20050003"><ele>1730</ele><speed>14.00</speed><time>2016-06-21T14:25:05Z</time><pdop>3.0</pdop><geoidheight>54.00</geoidheight><course>351.6</course><type>1</type></trkpt>
      <trkpt lat="39.30216677" lon="-6.20052382"><ele>1729</ele><speed>13.75</speed><time>2016-06-21T14:25:06Z</time><pdop>4.0</pdop><geoidheight>54.00</geoidheight><course>351.4</course><type>1</type></trkpt>
      <trkpt lat="39.3022859" lon="-6.20055185"><ele>1729</ele><speed>13.50</speed><time>2016-06-21T14:25:07Z</time><pdop>4.0</pdop><geoidheight>54.00</geoidheight><course>349.9</course><type>1</type></trkpt>
      <trkpt lat="39.30251053" lon="-6.20061773"><ele>1728</ele><speed>12.50</speed><time>2016-06-21T14:25:09Z</time><pdop>3.0</pdop><geoidheight>54.00</geoidheight><course>347.1</course><type>1</type></trkpt>
      <trkpt lat="39.30261585" lon="-6.20065468"><ele>1727</ele><speed>12.00</speed><time>2016-06-21T14:25:10Z</time><pdop>3.0</pdop><geoidheight>54.00</geoidheight><course>346.7</course><type>1</type></trkpt>
      <trkpt lat="39.30272134" lon="-6.20067903"><ele>1726</ele><speed>11.75</speed><time>2016-06-21T14:25:11Z</time><pdop>3.0</pdop><geoidheight>54.00</geoidheight><course>348.4</course><type>1</type></trkpt>
      <trkpt lat="39.3028247" lon="-6.20069903"><ele>1724</ele><speed>11.75</speed><time>2016-06-21T14:25:12Z</time><pdop>3.0</pdop><geoidheight>54.00</geoidheight><course>351.3</course><type>1</type></trkpt>
      <trkpt lat="39.30293236" lon="-6.20071358"><ele>1723</ele><speed>12.25</speed><time>2016-06-21T14:25:13Z</time><pdop>3.0</pdop><geoidheight>54.00</geoidheight><course>352.9</course><type>1</type></trkpt>
      <trkpt lat="39.30316242" lon="-6.20076532"><ele>1721</ele><speed>13.00</speed><time>2016-06-21T14:25:15Z</time><pdop>3.0</pdop><geoidheight>54.00</geoidheight><course>349.5</course><type>1</type></trkpt>
      <trkpt lat="39.30328175" lon="-6.20080199"><ele>1720</ele><speed>13.50</speed><time>2016-06-21T14:25:16Z</time><pdop>4.0</pdop><geoidheight>54.00</geoidheight><course>346.2</course><type>1</type></trkpt>
      <trkpt lat="39.30336713" lon="-6.20082496"><ele>1719</ele><speed>11.25</speed><time>2016-06-21T14:25:17Z</time><pdop>3.0</pdop><geoidheight>54.00</geoidheight><course>348.4</course><type>1</type></trkpt>
      <trkpt lat="39.30346293" lon="-6.2008483"><ele>1716</ele><speed>10.75</speed><time>2016-06-21T14:25:18Z</time><pdop>3.0</pdop><geoidheight>54.00</geoidheight><course>350.9</course><type>1</type></trkpt>
      <trkpt lat="39.30368153" lon="-6.2008788"><ele>1712</ele><speed>12.50</speed><time>2016-06-21T14:25:20Z</time><pdop>3.0</pdop><geoidheight>54.00</geoidheight><course>354.3</course><type>1</type></trkpt>
      <trkpt lat="39.30379909" lon="-6.20090144"><ele>1711</ele><speed>13.00</speed><time>2016-06-21T14:25:21Z</time><pdop>3.0</pdop><geoidheight>54.00</geoidheight><course>352.3</course><type>1</type></trkpt>
      <trkpt lat="39.30391265" lon="-6.20092541"><ele>1711</ele><speed>12.75</speed><time>2016-06-21T14:25:22Z</time><pdop>4.0</pdop><geoidheight>54.00</geoidheight><course>350.1</course><type>1</type></trkpt>
      <trkpt lat="39.3040112" lon="-6.20095787"><ele>1711</ele><speed>11.50</speed><time>2016-06-21T14:25:23Z</time><pdop>3.0</pdop><geoidheight>54.00</geoidheight><course>347.4</course><type>1</type></trkpt>
      <trkpt lat="39.3042072" lon="-6.20100312"><ele>1709</ele><speed>11.00</speed><time>2016-06-21T14:25:25Z</time><pdop>3.0</pdop><geoidheight>54.00</geoidheight><course>350.7</course><type>1</type></trkpt>
      <trkpt lat="39.30442259" lon="-6.20104169"><ele>1705</ele><speed>12.00</speed><time>2016-06-21T14:25:27Z</time><pdop>4.0</pdop><geoidheight>54.00</geoidheight><course>353.2</course><type>1</type></trkpt>
      <trkpt lat="39.30453317" lon="-6.20105703"><ele>1703</ele><speed>12.25</speed><time>2016-06-21T14:25:28Z</time><pdop>4.0</pdop><geoidheight>54.00</geoidheight><course>353.2</course><type>1</type></trkpt>
      <trkpt lat="39.304641" lon="-6.2010715"><ele>1702</ele><speed>12.00</speed><time>2016-06-21T14:25:29Z</time><pdop>3.0</pdop><geoidheight>54.00</geoidheight><course>354.0</course><type>1</type></trkpt>
      <trkpt lat="39.30474564" lon="-6.2010724"><ele>1701</ele><speed>11.50</speed><time>2016-06-21T14:25:30Z</time><pdop>3.0</pdop><geoidheight>54.00</geoidheight><course>356.5</course><type>1</type></trkpt>
      <trkpt lat="39.30485181" lon="-6.20105925"><ele>1698</ele><speed>11.75</speed><time>2016-06-21T14:25:31Z</time><pdop>3.0</pdop><geoidheight>54.00</geoidheight><course>1.4</course><type>1</type></trkpt>
      <trkpt lat="39.30508464" lon="-6.20103074"><ele>1694</ele><speed>12.25</speed><time>2016-06-21T14:25:33Z</time><pdop>3.0</pdop><geoidheight>54.00</geoidheight><course>4.7</course><type>1</type></trkpt>
      <trkpt lat="39.30518971" lon="-6.20102487"><ele>1693</ele><speed>11.75</speed><time>2016-06-21T14:25:34Z</time><pdop>3.0</pdop><geoidheight>54.00</geoidheight><course>2.7</course><type>1</type></trkpt>
      <trkpt lat="39.30529032" lon="-6.2010265"><ele>1692</ele><speed>11.50</speed><time>2016-06-21T14:25:35Z</time><pdop>3.0</pdop><geoidheight>54.00</geoidheight><course>0.0</course><type>1</type></trkpt>
      <trkpt lat="39.30539247" lon="-6.20102519"><ele>1690</ele><speed>11.25</speed><time>2016-06-21T14:25:36Z</time><pdop>3.0</pdop><geoidheight>54.00</geoidheight><course>359.8</course><type>1</type></trkpt>
      <trkpt lat="39.3055824" lon="-6.20101139"><ele>1687</ele><speed>10.25</speed><time>2016-06-21T14:25:38Z</time><pdop>4.0</pdop><geoidheight>54.00</geoidheight><course>2.4</course><type>1</type></trkpt>
      <trkpt lat="39.30566265" lon="-6.20100869"><ele>1685</ele><speed>9.00</speed><time>2016-06-21T14:25:39Z</time><pdop>4.0</pdop><geoidheight>54.00</geoidheight><course>1.9</course><type>1</type></trkpt>
      <trkpt lat="39.30581574" lon="-6.20099956"><ele>1678</ele><speed>8.50</speed><time>2016-06-21T14:25:41Z</time><pdop>3.0</pdop><geoidheight>54.00</geoidheight><course>1.0</course><type>1</type></trkpt>
      <trkpt lat="39.30589573" lon="-6.20098857"><ele>1673</ele><speed>9.00</speed><time>2016-06-21T14:25:42Z</time><pdop>3.0</pdop><geoidheight>54.00</geoidheight><course>4.6</course><type>1</type></trkpt>
      <trkpt lat="39.30597965" lon="-6.20096992"><ele>1669</ele><speed>9.50</speed><time>2016-06-21T14:25:43Z</time><pdop>3.0</pdop><geoidheight>54.00</geoidheight><course>8.8</course><type>1</type></trkpt>
      <trkpt lat="39.30606294" lon="-6.20094855"><ele>1666</ele><speed>9.25</speed><time>2016-06-21T14:25:44Z</time><pdop>3.0</pdop><geoidheight>54.00</geoidheight><course>10.3</course><type>1</type></trkpt>
      <trkpt lat="39.30620571" lon="-6.20092281"><ele>1662</ele><speed>8.00</speed><time>2016-06-21T14:25:46Z</time><pdop>3.0</pdop><geoidheight>54.00</geoidheight><course>6.2</course><type>1</type></trkpt>
      <trkpt lat="39.30627711" lon="-6.2009126"><ele>1658</ele><speed>8.00</speed><time>2016-06-21T14:25:47Z</time><pdop>3.0</pdop><geoidheight>54.00</geoidheight><course>7.5</course><type>1</type></trkpt>
      <trkpt lat="39.30644918" lon="-6.20088256"><ele>1650</ele><speed>9.50</speed><time>2016-06-21T14:25:49Z</time><pdop>3.0</pdop><geoidheight>54.00</geoidheight><course>7.9</course><type>1</type></trkpt>
      <trkpt lat="39.30653504" lon="-6.20086953"><ele>1647</ele><speed>9.75</speed><time>2016-06-21T14:25:50Z</time><pdop>3.0</pdop><geoidheight>54.00</geoidheight><course>7.7</course><type>1</type></trkpt>
      <trkpt lat="39.30661704" lon="-6.20085821"><ele>1644</ele><speed>9.50</speed><time>2016-06-21T14:25:51Z</time><pdop>3.0</pdop><geoidheight>54.00</geoidheight><course>7.9</course><type>1</type></trkpt>
      <trkpt lat="39.30669958" lon="-6.20084238"><ele>1640</ele><speed>9.75</speed><time>2016-06-21T14:25:52Z</time><pdop>4.0</pdop><geoidheight>54.00</geoidheight><course>10.5</course><type>1</type></trkpt>
      <trkpt lat="39.30688009" lon="-6.20076921"><ele>1633</ele><speed>10.75</speed><time>2016-06-21T14:25:54Z</time><pdop>3.0</pdop><geoidheight>54.00</geoidheight><course>18.1</course><type>1</type></trkpt>
      <trkpt lat="39.30697027" lon="-6.20073092"><ele>1631</ele><speed>10.50</speed><time>2016-06-21T14:25:55Z</time><pdop>4.0</pdop><geoidheight>54.00</geoidheight><course>18.0</course><type>1</type></trkpt>
      <trkpt lat="39.30714273" lon="-6.20068473"><ele>1625</ele><speed>9.50</speed><time>2016-06-21T14:25:57Z</time><pdop>3.0</pdop><geoidheight>54.00</geoidheight><course>11.8</course><type>1</type></trkpt>
      <trkpt lat="39.3072301" lon="-6.20066185"><ele>1621</ele><speed>10.00</speed><time>2016-06-21T14:25:58Z</time><pdop>3.0</pdop><geoidheight>54.00</geoidheight><course>11.2</course><type>1</type></trkpt>
      <trkpt lat="39.30732492" lon="-6.20063978"><ele>1616</ele><speed>10.50</speed><time>2016-06-21T14:25:59Z</time><pdop>3.0</pdop><geoidheight>54.00</geoidheight><course>10.8</course><type>1</type></trkpt>
      <trkpt lat="39.30742299" lon="-6.20061535"><ele>1613</ele><speed>11.00</speed><time>2016-06-21T14:26:00Z</time><pdop>3.0</pdop><geoidheight>54.00</geoidheight><course>11.4</course><type>1</type></trkpt>
      <trkpt lat="39.30751237" lon="-6.20059585"><ele>1612</ele><speed>10.50</speed><time>2016-06-21T14:26:01Z</time><pdop>3.0</pdop><geoidheight>54.00</geoidheight><course>11.2</course><type>1</type></trkpt>
      <trkpt lat="39.30759263" lon="-6.2005824"><ele>1611</ele><speed>9.25</speed><time>2016-06-21T14:26:02Z</time><pdop>3.0</pdop><geoidheight>54.00</geoidheight><course>9.3</course><type>1</type></trkpt>
      <trkpt lat="39.30773719" lon="-6.2005629"><ele>1608</ele><speed>8.00</speed><time>2016-06-21T14:26:04Z</time><pdop>4.0</pdop><geoidheight>54.00</geoidheight><course>6.8</course><type>1</type></trkpt>
      <trkpt lat="39.30790684" lon="-6.20055813"><ele>1601</ele><speed>10.00</speed><time>2016-06-21T14:26:06Z</time><pdop>3.0</pdop><geoidheight>54.00</geoidheight><course>2.0</course><type>1</type></trkpt>
      <trkpt lat="39.30810797" lon="-6.20054919"><ele>1595</ele><speed>11.50</speed><time>2016-06-21T14:26:08Z</time><pdop>3.0</pdop><geoidheight>54.00</geoidheight><course>3.3</course><type>1</type></trkpt>
      <trkpt lat="39.30831164" lon="-6.20051318"><ele>1593</ele><speed>11.25</speed><time>2016-06-21T14:26:10Z</time><pdop>4.0</pdop><geoidheight>54.00</geoidheight><course>8.9</course><type>1</type></trkpt>
      <trkpt lat="39.30851617" lon="-6.20049461"><ele>1590</ele><speed>11.50</speed><time>2016-06-21T14:26:12Z</time><pdop>3.0</pdop><geoidheight>54.00</geoidheight><course>2.6</course><type>1</type></trkpt>
      <trkpt lat="39.30862538" lon="-6.20049598"><ele>1588</ele><speed>12.50</speed><time>2016-06-21T14:26:13Z</time><pdop>3.0</pdop><geoidheight>54.00</geoidheight><course>0.2</course><type>1</type></trkpt>
      <trkpt lat="39.30874272" lon="-6.20049038"><ele>1588</ele><speed>12.75</speed><time>2016-06-21T14:26:14Z</time><pdop>3.0</pdop><geoidheight>54.00</geoidheight><course>2.3</course><type>1</type></trkpt>
      <trkpt lat="39.30894237" lon="-6.20046439"><ele>1587</ele><speed>10.50</speed><time>2016-06-21T14:26:16Z</time><pdop>3.0</pdop><geoidheight>54.00</geoidheight><course>6.5</course><type>1</type></trkpt>
      <trkpt lat="39.30913011" lon="-6.20045342"><ele>1585</ele><speed>10.50</speed><time>2016-06-21T14:26:18Z</time><pdop>3.0</pdop><geoidheight>54.00</geoidheight><course>2.8</course><type>1</type></trkpt>
      <trkpt lat="39.30922766" lon="-6.20044839"><ele>1583</ele><speed>10.75</speed><time>2016-06-21T14:26:19Z</time><pdop>3.0</pdop><geoidheight>54.00</geoidheight><course>1.5</course><type>1</type></trkpt>
      <trkpt lat="39.30932984" lon="-6.20044739"><ele>1581</ele><speed>11.25</speed><time>2016-06-21T14:26:20Z</time><pdop>3.0</pdop><geoidheight>54.00</geoidheight><course>0.9</course><type>1</type></trkpt>
      <trkpt lat="39.30954749" lon="-6.20044154"><ele>1577</ele><speed>12.00</speed><time>2016-06-21T14:26:22Z</time><pdop>3.0</pdop><geoidheight>54.00</geoidheight><course>1.0</course><type>1</type></trkpt>
      <trkpt lat="39.30965597" lon="-6.20043892"><ele>1576</ele><speed>12.00</speed><time>2016-06-21T14:26:23Z</time><pdop>3.0</pdop><geoidheight>54.00</geoidheight><course>0.3</course><type>1</type></trkpt>
      <trkpt lat="39.30986023" lon="-6.20046002"><ele>1574</ele><speed>11.50</speed><time>2016-06-21T14:26:25Z</time><pdop>3.0</pdop><geoidheight>54.00</geoidheight><course>355.3</course><type>1</type></trkpt>
      <trkpt lat="39.31007418" lon="-6.20046994"><ele>1570</ele><speed>11.75</speed><time>2016-06-21T14:26:27Z</time><pdop>3.0</pdop><geoidheight>54.00</geoidheight><course>359.5</course><type>1</type></trkpt>
      <trkpt lat="39.31018119" lon="-6.2004607"><ele>1568</ele><speed>11.75</speed><time>2016-06-21T14:26:28Z</time><pdop>3.0</pdop><geoidheight>54.00</geoidheight><course>3.6</course><type>1</type></trkpt>
      <trkpt lat="39.31029305" lon="-6.20044562"><ele>1565</ele><speed>12.25</speed><time>2016-06-21T14:26:29Z</time><pdop>3.0</pdop><geoidheight>54.00</geoidheight><course>5.0</course><type>1</type></trkpt>
      <trkpt lat="39.31040664" lon="-6.20043368"><ele>1564</ele><speed>12.50</speed><time>2016-06-21T14:26:30Z</time><pdop>3.0</pdop><geoidheight>54.00</geoidheight><course>3.3</course><type>1</type></trkpt>
      <trkpt lat="39.31051052" lon="-6.20042646"><ele>1562</ele><speed>12.00</speed><time>2016-06-21T14:26:31Z</time><pdop>3.0</pdop><geoidheight>54.00</geoidheight><course>2.7</course><type>1</type></trkpt>
      <trkpt lat="39.31070826" lon="-6.20041408"><ele>1558</ele><speed>10.50</speed><time>2016-06-21T14:26:33Z</time><pdop>4.0</pdop><geoidheight>54.00</geoidheight><course>3.6</course><type>1</type></trkpt>
      <trkpt lat="39.31079971" lon="-6.20040019"><ele>1555</ele><speed>10.50</speed><time>2016-06-21T14:26:34Z</time><pdop>3.0</pdop><geoidheight>54.00</geoidheight><course>4.9</course><type>1</type></trkpt>
      <trkpt lat="39.3109919" lon="-6.20037015"><ele>1549</ele><speed>10.50</speed><time>2016-06-21T14:26:36Z</time><pdop>3.0</pdop><geoidheight>54.00</geoidheight><course>6.5</course><type>1</type></trkpt>
      <trkpt lat="39.31108425" lon="-6.20035865"><ele>1546</ele><speed>10.25</speed><time>2016-06-21T14:26:37Z</time><pdop>3.0</pdop><geoidheight>54.00</geoidheight><course>6.1</course><type>1</type></trkpt>
      <trkpt lat="39.31127152" lon="-6.20033618"><ele>1543</ele><speed>10.50</speed><time>2016-06-21T14:26:39Z</time><pdop>3.0</pdop><geoidheight>54.00</geoidheight><course>5.2</course><type>1</type></trkpt>
      <trkpt lat="39.31146007" lon="-6.20031212"><ele>1540</ele><speed>10.50</speed><time>2016-06-21T14:26:41Z</time><pdop>5.0</pdop><geoidheight>54.00</geoidheight><course>5.7</course><type>1</type></trkpt>
      <trkpt lat="39.31156083" lon="-6.20030143"><ele>1538</ele><speed>10.75</speed><time>2016-06-21T14:26:42Z</time><pdop>3.0</pdop><geoidheight>54.00</geoidheight><course>4.4</course><type>1</type></trkpt>
      <trkpt lat="39.31165718" lon="-6.20029179"><ele>1537</ele><speed>10.75</speed><time>2016-06-21T14:26:43Z</time><pdop>5.0</pdop><geoidheight>54.00</geoidheight><course>4.4</course><type>1</type></trkpt>
      <trkpt lat="39.31175898" lon="-6.20028078"><ele>1536</ele><speed>11.25</speed><time>2016-06-21T14:26:44Z</time><pdop>4.0</pdop><geoidheight>54.00</geoidheight><course>5.7</course><type>1</type></trkpt>
      <trkpt lat="39.311953" lon="-6.20024629"><ele>1534</ele><speed>11.00</speed><time>2016-06-21T14:26:46Z</time><pdop>4.0</pdop><geoidheight>54.00</geoidheight><course>8.6</course><type>1</type></trkpt>
      <trkpt lat="39.31213386" lon="-6.20021536"><ele>1530</ele><speed>10.50</speed><time>2016-06-21T14:26:48Z</time><pdop>3.0</pdop><geoidheight>54.00</geoidheight><course>7.6</course><type>1</type></trkpt>
      <trkpt lat="39.31232927" lon="-6.20018331"><ele>1526</ele><speed>11.25</speed><time>2016-06-21T14:26:50Z</time><pdop>4.0</pdop><geoidheight>54.00</geoidheight><course>9.0</course><type>1</type></trkpt>
      <trkpt lat="39.3125458" lon="-6.20015735"><ele>1521</ele><speed>12.25</speed><time>2016-06-21T14:26:52Z</time><pdop>3.0</pdop><geoidheight>54.00</geoidheight><course>4.5</course><type>1</type></trkpt>
      <trkpt lat="39.31274021" lon="-6.20013805"><ele>1519</ele><speed>10.50</speed><time>2016-06-21T14:26:54Z</time><pdop>3.0</pdop><geoidheight>54.00</geoidheight><course>4.2</course><type>1</type></trkpt>
      <trkpt lat="39.31282883" lon="-6.20012993"><ele>1517</ele><speed>10.00</speed><time>2016-06-21T14:26:55Z</time><pdop>3.0</pdop><geoidheight>54.00</geoidheight><course>4.4</course><type>1</type></trkpt>
      <trkpt lat="39.3130232" lon="-6.20010007"><ele>1510</ele><speed>11.00</speed><time>2016-06-21T14:26:57Z</time><pdop>3.0</pdop><geoidheight>54.00</geoidheight><course>7.9</course><type>1</type></trkpt>
      <trkpt lat="39.31312572" lon="-6.20007595"><ele>1508</ele><speed>11.25</speed><time>2016-06-21T14:26:58Z</time><pdop>3.0</pdop><geoidheight>54.00</geoidheight><course>9.9</course><type>1</type></trkpt>
      <trkpt lat="39.3132261" lon="-6.20004371"><ele>1506</ele><speed>11.50</speed><time>2016-06-21T14:26:59Z</time><pdop>3.0</pdop><geoidheight>54.00</geoidheight><course>12.0</course><type>1</type></trkpt>
      <trkpt lat="39.31341098" lon="-6.1999962"><ele>1504</ele><speed>10.00</speed><time>2016-06-21T14:27:01Z</time><pdop>3.0</pdop><geoidheight>54.00</geoidheight><course>11.2</course><type>1</type></trkpt>
      <trkpt lat="39.31349066" lon="-6.19997618"><ele>1502</ele><speed>9.25</speed><time>2016-06-21T14:27:02Z</time><pdop>3.0</pdop><geoidheight>54.00</geoidheight><course>10.5</course><type>1</type></trkpt>
      <trkpt lat="39.31356735" lon="-6.19994523"><ele>1499</ele><speed>9.00</speed><time>2016-06-21T14:27:03Z</time><pdop>4.0</pdop><geoidheight>54.00</geoidheight><course>16.1</course><type>1</type></trkpt>
      <trkpt lat="39.313724" lon="-6.19983411"><ele>1495</ele><speed>10.00</speed><time>2016-06-21T14:27:05Z</time><pdop>4.0</pdop><geoidheight>54.00</geoidheight><course>31.4</course><type>1</type></trkpt>
      <trkpt lat="39.31534837" lon="-6.19970445"><ele>1481</ele><speed>13.83</speed><time>2016-06-21T14:27:21Z</time><pdop>6.0</pdop><geoidheight>54.00</geoidheight><course>0.1</course><type>1</type></trkpt>
      <trkpt lat="39.31552669" lon="-6.19970403"><ele>1479</ele><speed>13.83</speed><time>2016-06-21T14:27:23Z</time><pdop>7.0</pdop><geoidheight>54.00</geoidheight><course>0.1</course><type>1</type></trkpt>
      <trkpt lat="39.31569667" lon="-6.19963154"><ele>1474</ele><speed>12.75</speed><time>2016-06-21T14:27:24Z</time><pdop>4.0</pdop><geoidheight>54.00</geoidheight><course>0.5</course><type>1</type></trkpt>
      <trkpt lat="39.31593067" lon="-6.19964203"><ele>1473</ele><speed>12.25</speed><time>2016-06-21T14:27:26Z</time><pdop>3.0</pdop><geoidheight>54.00</geoidheight><course>358.6</course><type>1</type></trkpt>
      <trkpt lat="39.31604449" lon="-6.19963209"><ele>1472</ele><speed>12.75</speed><time>2016-06-21T14:27:27Z</time><pdop>4.0</pdop><geoidheight>54.00</geoidheight><course>1.1</course><type>1</type></trkpt>
      <trkpt lat="39.31628436" lon="-6.19960958"><ele>1470</ele><speed>13.75</speed><time>2016-06-21T14:27:29Z</time><pdop>3.0</pdop><geoidheight>54.00</geoidheight><course>3.8</course><type>1</type></trkpt>
      <trkpt lat="39.31638952" lon="-6.19960369"><ele>1472</ele><speed>13.25</speed><time>2016-06-21T14:27:30Z</time><pdop>3.0</pdop><geoidheight>54.00</geoidheight><course>3.4</course><type>1</type></trkpt>
      <trkpt lat="39.31649665" lon="-6.19959305"><ele>1475</ele><speed>12.50</speed><time>2016-06-21T14:27:31Z</time><pdop>3.0</pdop><geoidheight>54.00</geoidheight><course>2.1</course><type>1</type></trkpt>
      <trkpt lat="39.31668669" lon="-6.19959329"><ele>1478</ele><speed>10.25</speed><time>2016-06-21T14:27:33Z</time><pdop>3.0</pdop><geoidheight>54.00</geoidheight><course>357.5</course><type>1</type></trkpt>
      <trkpt lat="39.31678059" lon="-6.19960392"><ele>1478</ele><speed>10.00</speed><time>2016-06-21T14:27:34Z</time><pdop>3.0</pdop><geoidheight>54.00</geoidheight><course>356.0</course><type>1</type></trkpt>
      <trkpt lat="39.31694499" lon="-6.1995999"><ele>1477</ele><speed>9.00</speed><time>2016-06-21T14:27:36Z</time><pdop>3.0</pdop><geoidheight>54.00</geoidheight><course>6.0</course><type>1</type></trkpt>
      <trkpt lat="39.31701958" lon="-6.19956586"><ele>1476</ele><speed>8.25</speed><time>2016-06-21T14:27:37Z</time><pdop>3.0</pdop><geoidheight>54.00</geoidheight><course>21.2</course><type>1</type></trkpt>
      <trkpt lat="39.317088" lon="-6.19943871"><ele>1476</ele><speed>6.50</speed><time>2016-06-21T14:27:39Z</time><pdop>3.0</pdop><geoidheight>54.00</geoidheight><course>66.5</course><type>1</type></trkpt>
      <trkpt lat="39.31705855" lon="-6.19933727"><ele>1476</ele><speed>4.25</speed><time>2016-06-21T14:27:41Z</time><pdop>3.0</pdop><geoidheight>54.00</geoidheight><course>122.2</course><type>1</type></trkpt>
      <trkpt lat="39.31699207" lon="-6.19930323"><ele>1478</ele><speed>3.75</speed><time>2016-06-21T14:27:43Z</time><pdop>4.0</pdop><geoidheight>54.00</geoidheight><course>169.4</course><type>1</type></trkpt>
      <trkpt lat="39.31684671" lon="-6.19941139"><ele>1476</ele><speed>8.50</speed><time>2016-06-21T14:27:45Z</time><pdop>3.0</pdop><geoidheight>54.00</geoidheight><course>213.1</course><type>1</type></trkpt>
      <trkpt lat="39.31678475" lon="-6.19947942"><ele>1476</ele><speed>9.00</speed><time>2016-06-21T14:27:46Z</time><pdop>3.0</pdop><geoidheight>54.00</geoidheight><course>221.4</course><type>1</type></trkpt>
      <trkpt lat="39.31667014" lon="-6.19961514"><ele>1478</ele><speed>8.00</speed><time>2016-06-21T14:27:48Z</time><pdop>4.0</pdop><geoidheight>54.00</geoidheight><course>221.0</course><type>1</type></trkpt>
      <trkpt lat="39.31653428" lon="-6.19971605"><ele>1480</ele><speed>5.50</speed><time>2016-06-21T14:27:51Z</time><pdop>3.0</pdop><geoidheight>54.00</geoidheight><course>205.5</course><type>1</type></trkpt>
      <trkpt lat="39.31645775" lon="-6.19977237"><ele>1481</ele><speed>4.75</speed><time>2016-06-21T14:27:53Z</time><pdop>3.0</pdop><geoidheight>54.00</geoidheight><course>213.5</course><type>1</type></trkpt>
      <trkpt lat="39.31639261" lon="-6.19986753"><ele>1480</ele><speed>6.00</speed><time>2016-06-21T14:27:55Z</time><pdop>3.0</pdop><geoidheight>54.00</geoidheight><course>230.6</course><type>1</type></trkpt>
      <trkpt lat="39.31635256" lon="-6.19995106"><ele>1478</ele><speed>8.25</speed><time>2016-06-21T14:27:56Z</time><pdop>3.0</pdop><geoidheight>54.00</geoidheight><course>238.8</course><type>1</type></trkpt>
      <trkpt lat="39.31628474" lon="-6.20021326"><ele>1477</ele><speed>12.75</speed><time>2016-06-21T14:27:58Z</time><pdop>3.0</pdop><geoidheight>54.00</geoidheight><course>255.1</course><type>1</type></trkpt>
      <trkpt lat="39.31627777" lon="-6.2003765"><ele>1476</ele><speed>13.25</speed><time>2016-06-21T14:27:59Z</time><pdop>3.0</pdop><geoidheight>54.00</geoidheight><course>265.1</course><type>1</type></trkpt>
      <trkpt lat="39.31632053" lon="-6.20071599"><ele>1473</ele><speed>15.00</speed><time>2016-06-21T14:28:01Z</time><pdop>3.0</pdop><geoidheight>54.00</geoidheight><course>282.8</course><type>1</type></trkpt>
      <trkpt lat="39.31637457" lon="-6.20090127"><ele>1472</ele><speed>17.00</speed><time>2016-06-21T14:28:02Z</time><pdop>4.0</pdop><geoidheight>54.00</geoidheight><course>290.2</course><type>1</type></trkpt>
      <trkpt lat="39.31646484" lon="-6.20107824"><ele>1470</ele><speed>18.00</speed><time>2016-06-21T14:28:03Z</time><pdop>3.0</pdop><geoidheight>54.00</geoidheight><course>301.8</course><type>1</type></trkpt>
      <trkpt lat="39.31668093" lon="-6.20136566"><ele>1469</ele><speed>16.75</speed><time>2016-06-21T14:28:05Z</time><pdop>3.0</pdop><geoidheight>54.00</geoidheight><course>317.3</course><type>1</type></trkpt>
      <trkpt lat="39.31678954" lon="-6.20147475"><ele>1469</ele><speed>15.25</speed><time>2016-06-21T14:28:06Z</time><pdop>4.0</pdop><geoidheight>54.00</geoidheight><course>321.8</course><type>1</type></trkpt>
      <trkpt lat="39.31689442" lon="-6.20156184"><ele>1468</ele><speed>14.00</speed><time>2016-06-21T14:28:07Z</time><pdop>4.0</pdop><geoidheight>54.00</geoidheight><course>326.7</course><type>1</type></trkpt>
      <trkpt lat="39.31711794" lon="-6.20169064"><ele>1464</ele><speed>13.50</speed><time>2016-06-21T14:28:09Z</time><pdop>3.0</pdop><geoidheight>54.00</geoidheight><course>338.2</course><type>1</type></trkpt>
      <trkpt lat="39.31723704" lon="-6.20172599"><ele>1461</ele><speed>13.50</speed><time>2016-06-21T14:28:10Z</time><pdop>3.0</pdop><geoidheight>54.00</geoidheight><course>346.0</course><type>1</type></trkpt>
      <trkpt lat="39.31746726" lon="-6.2017308"><ele>1457</ele><speed>12.50</speed><time>2016-06-21T14:28:12Z</time><pdop>4.0</pdop><geoidheight>54.00</geoidheight><course>1.3</course><type>1</type></trkpt>
      <trkpt lat="39.31757343" lon="-6.2017167"><ele>1457</ele><speed>12.00</speed><time>2016-06-21T14:28:13Z</time><pdop>4.0</pdop><geoidheight>54.00</geoidheight><course>4.8</course><type>1</type></trkpt>
      <trkpt lat="39.31767182" lon="-6.20170551"><ele>1456</ele><speed>11.25</speed><time>2016-06-21T14:28:14Z</time><pdop>4.0</pdop><geoidheight>54.00</geoidheight><course>4.4</course><type>1</type></trkpt>
      <trkpt lat="39.31782648" lon="-6.20168816"><ele>1456</ele><speed>8.25</speed><time>2016-06-21T14:28:16Z</time><pdop>4.0</pdop><geoidheight>54.00</geoidheight><course>2.3</course><type>1</type></trkpt>
      <trkpt lat="39.31794645" lon="-6.20163262"><ele>1454</ele><speed>7.25</speed><time>2016-06-21T14:28:18Z</time><pdop>4.0</pdop><geoidheight>54.00</geoidheight><course>24.2</course><type>1</type></trkpt>
      <trkpt lat="39.31804642" lon="-6.2015149"><ele>1449</ele><speed>7.50</speed><time>2016-06-21T14:28:20Z</time><pdop>3.0</pdop><geoidheight>54.00</geoidheight><course>43.3</course><type>1</type></trkpt>
      <trkpt lat="39.31812832" lon="-6.20139223"><ele>1457</ele><speed>6.75</speed><time>2016-06-21T14:28:22Z</time><pdop>3.0</pdop><geoidheight>54.00</geoidheight><course>53.5</course><type>1</type></trkpt>
      <trkpt lat="39.31815855" lon="-6.20132934"><ele>1453</ele><speed>6.25</speed><time>2016-06-21T14:28:23Z</time><pdop>3.0</pdop><geoidheight>54.00</geoidheight><course>57.0</course><type>1</type></trkpt>
      <trkpt lat="39.31818941" lon="-6.20126999"><ele>1450</ele><speed>6.00</speed><time>2016-06-21T14:28:24Z</time><pdop>3.0</pdop><geoidheight>54.00</geoidheight><course>56.3</course><type>1</type></trkpt>
      <trkpt lat="39.3182532" lon="-6.20116666"><ele>1448</ele><speed>5.75</speed><time>2016-06-21T14:28:26Z</time><pdop>3.0</pdop><geoidheight>54.00</geoidheight><course>47.7</course><type>1</type></trkpt>
      <trkpt lat="39.31831319" lon="-6.20107176"><ele>1446</ele><speed>5.25</speed><time>2016-06-21T14:28:28Z</time><pdop>3.0</pdop><geoidheight>54.00</geoidheight><course>51.1</course><type>1</type></trkpt>
      <trkpt lat="39.31833885" lon="-6.20095614"><ele>1443</ele><speed>5.50</speed><time>2016-06-21T14:28:30Z</time><pdop>3.0</pdop><geoidheight>54.00</geoidheight><course>76.0</course><type>1</type></trkpt>
      <trkpt lat="39.31833995" lon="-6.20088531"><ele>1442</ele><speed>6.25</speed><time>2016-06-21T14:28:31Z</time><pdop>3.0</pdop><geoidheight>54.00</geoidheight><course>87.7</course><type>1</type></trkpt>
      <trkpt lat="39.31833276" lon="-6.20080911"><ele>1441</ele><speed>6.50</speed><time>2016-06-21T14:28:32Z</time><pdop>3.0</pdop><geoidheight>54.00</geoidheight><course>98.8</course><type>1</type></trkpt>
      <trkpt lat="39.31829303" lon="-6.20064527"><ele>1441</ele><speed>4.25</speed><time>2016-06-21T14:28:35Z</time><pdop>3.0</pdop><geoidheight>54.00</geoidheight><course>111.4</course><type>1</type></trkpt>
      <trkpt lat="39.31825453" lon="-6.20055317"><ele>1444</ele><speed>4.75</speed><time>2016-06-21T14:28:37Z</time><pdop>3.0</pdop><geoidheight>54.00</geoidheight><course>119.6</course><type>1</type></trkpt>
      <trkpt lat="39.31821011" lon="-6.20048306"><ele>1443</ele><speed>4.00</speed><time>2016-06-21T14:28:39Z</time><pdop>4.0</pdop><geoidheight>54.00</geoidheight><course>135.9</course><type>1</type></trkpt>
      <trkpt lat="39.31808452" lon="-6.20037318"><ele>1446</ele><speed>4.50</speed><time>2016-06-21T14:28:43Z</time><pdop>3.0</pdop><geoidheight>54.00</geoidheight><course>145.7</course><type>1</type></trkpt>
      <trkpt lat="39.31796587" lon="-6.20039679"><ele>1454</ele><speed>4.75</speed><time>2016-06-21T14:28:46Z</time><pdop>4.0</pdop><geoidheight>54.00</geoidheight><course>194.7</course><type>1</type></trkpt>
      <trkpt lat="39.31792255" lon="-6.20048455"><ele>1457</ele><speed>6.50</speed><time>2016-06-21T14:28:47Z</time><pdop>3.0</pdop><geoidheight>54.00</geoidheight><course>227.2</course><type>1</type></trkpt>
      <trkpt lat="39.31783771" lon="-6.20064727"><ele>1456</ele><speed>8.25</speed><time>2016-06-21T14:28:49Z</time><pdop>3.0</pdop><geoidheight>54.00</geoidheight><course>235.7</course><type>1</type></trkpt>
      <trkpt lat="39.31774274" lon="-6.20089046"><ele>1462</ele><speed>12.25</speed><time>2016-06-21T14:28:51Z</time><pdop>3.0</pdop><geoidheight>54.00</geoidheight><course>246.5</course><type>1</type></trkpt>
      <trkpt lat="39.31772994" lon="-6.20120257"><ele>1466</ele><speed>13.50</speed><time>2016-06-21T14:28:53Z</time><pdop>3.0</pdop><geoidheight>54.00</geoidheight><course>271.7</course><type>1</type></trkpt>
      <trkpt lat="39.31782377" lon="-6.20150295"><ele>1468</ele><speed>14.25</speed><time>2016-06-21T14:28:55Z</time><pdop>3.0</pdop><geoidheight>54.00</geoidheight><course>296.3</course><type>1</type></trkpt>
      <trkpt lat="39.31790732" lon="-6.20163706"><ele>1469</ele><speed>14.75</speed><time>2016-06-21T14:28:56Z</time><pdop>3.0</pdop><geoidheight>54.00</geoidheight><course>307.2</course><type>1</type></trkpt>
      <trkpt lat="39.31810378" lon="-6.20183165"><ele>1469</ele><speed>13.25</speed><time>2016-06-21T14:28:58Z</time><pdop>4.0</pdop><geoidheight>54.00</geoidheight><course>324.7</course><type>1</type></trkpt>
      <trkpt lat="39.31820399" lon="-6.20185519"><ele>1464</ele><speed>11.50</speed><time>2016-06-21T14:28:59Z</time><pdop>4.0</pdop><geoidheight>54.00</geoidheight><course>339.7</course><type>1</type></trkpt>
      <trkpt lat="39.31829641" lon="-6.20182212"><ele>1466</ele><speed>10.25</speed><time>2016-06-21T14:29:00Z</time><pdop>5.0</pdop><geoidheight>54.00</geoidheight><course>356.2</course><type>1</type></trkpt>
      <trkpt lat="39.3183724" lon="-6.20171584"><ele>1469</ele><speed>9.50</speed><time>2016-06-21T14:29:01Z</time><pdop>3.0</pdop><geoidheight>54.00</geoidheight><course>27.4</course><type>1</type></trkpt>
      <trkpt lat="39.31851055" lon="-6.20161529"><ele>1473</ele><speed>8.25</speed><time>2016-06-21T14:29:03Z</time><pdop>3.0</pdop><geoidheight>54.00</geoidheight><course>25.4</course><type>1</type></trkpt>
      <trkpt lat="39.31858314" lon="-6.20156791"><ele>1474</ele><speed>8.50</speed><time>2016-06-21T14:29:04Z</time><pdop>4.0</pdop><geoidheight>54.00</geoidheight><course>23.6</course><type>1</type></trkpt>
      <trkpt lat="39.31865709" lon="-6.20152492"><ele>1476</ele><speed>8.50</speed><time>2016-06-21T14:29:05Z</time><pdop>3.0</pdop><geoidheight>54.00</geoidheight><course>21.7</course><type>1</type></trkpt>
      <trkpt lat="39.31878013" lon="-6.20144277"><ele>1479</ele><speed>7.00</speed><time>2016-06-21T14:29:07Z</time><pdop>3.0</pdop><geoidheight>54.00</geoidheight><course>32.8</course><type>1</type></trkpt>
      <trkpt lat="39.31881205" lon="-6.20138434"><ele>1480</ele><speed>6.00</speed><time>2016-06-21T14:29:08Z</time><pdop>3.0</pdop><geoidheight>54.00</geoidheight><course>54.8</course><type>1</type></trkpt>
      <trkpt lat="39.3188176" lon="-6.20131163"><ele>1480</ele><speed>6.00</speed><time>2016-06-21T14:29:09Z</time><pdop>3.0</pdop><geoidheight>54.00</geoidheight><course>79.8</course><type>1</type></trkpt>
      <trkpt lat="39.31876108" lon="-6.20120555"><ele>1482</ele><speed>5.50</speed><time>2016-06-21T14:29:11Z</time><pdop>3.0</pdop><geoidheight>54.00</geoidheight><course>137.4</course><type>1</type></trkpt>
      <trkpt lat="39.31859036" lon="-6.20131005"><ele>1489</ele><speed>8.25</speed><time>2016-06-21T14:29:14Z</time><pdop>3.0</pdop><geoidheight>54.00</geoidheight><course>221.8</course><type>1</type></trkpt>
      <trkpt lat="39.31850989" lon="-6.20154242"><ele>1491</ele><speed>11.75</speed><time>2016-06-21T14:29:16Z</time><pdop>3.0</pdop><geoidheight>54.00</geoidheight><course>250.1</course><type>1</type></trkpt>
      <trkpt lat="39.31849605" lon="-6.20169618"><ele>1492</ele><speed>13.25</speed><time>2016-06-21T14:29:17Z</time><pdop>3.0</pdop><geoidheight>54.00</geoidheight><course>261.7</course><type>1</type></trkpt>
      <trkpt lat="39.31850526" lon="-6.20186726"><ele>1495</ele><speed>14.50</speed><time>2016-06-21T14:29:18Z</time><pdop>4.0</pdop><geoidheight>54.00</geoidheight><course>273.7</course><type>1</type></trkpt>
      <trkpt lat="39.31862775" lon="-6.20221522"><ele>1498</ele><speed>17.00</speed><time>2016-06-21T14:29:20Z</time><pdop>3.0</pdop><geoidheight>54.00</geoidheight><course>298.4</course><type>1</type></trkpt>
      <trkpt lat="39.31882871" lon="-6.20252133"><ele>1499</ele><speed>17.25</speed><time>2016-06-21T14:29:22Z</time><pdop>5.0</pdop><geoidheight>54.00</geoidheight><course>311.8</course><type>1</type></trkpt>
      <trkpt lat="39.31897191" lon="-6.20254142"><ele>1500</ele><speed>15.50</speed><time>2016-06-21T14:29:23Z</time><pdop>3.0</pdop><geoidheight>54.00</geoidheight><course>334.8</course><type>1</type></trkpt>
      <trkpt lat="39.31909653" lon="-6.20257065"><ele>1501</ele><speed>14.25</speed><time>2016-06-21T14:29:24Z</time><pdop>3.0</pdop><geoidheight>54.00</geoidheight><course>350.5</course><type>1</type></trkpt>
      <trkpt lat="39.31928703" lon="-6.20250593"><ele>1504</ele><speed>10.25</speed><time>2016-06-21T14:29:26Z</time><pdop>3.0</pdop><geoidheight>54.00</geoidheight><course>22.8</course><type>1</type></trkpt>
      <trkpt lat="39.31935949" lon="-6.20239489"><ele>1509</ele><speed>5.75</speed><time>2016-06-21T14:29:28Z</time><pdop>3.0</pdop><geoidheight>54.00</geoidheight><course>61.2</course><type>1</type></trkpt>
      <trkpt lat="39.31932856" lon="-6.2023347"><ele>1511</ele><speed>3.25</speed><time>2016-06-21T14:29:30Z</time><pdop>3.0</pdop><geoidheight>54.00</geoidheight><course>141.3</course><type>1</type></trkpt>
      <trkpt lat="39.31923503" lon="-6.20234429"><ele>1515</ele><speed>5.75</speed><time>2016-06-21T14:29:32Z</time><pdop>3.0</pdop><geoidheight>54.00</geoidheight><course>188.7</course><type>1</type></trkpt>
      <trkpt lat="39.31913938" lon="-6.20245326"><ele>1520</ele><speed>7.75</speed><time>2016-06-21T14:29:34Z</time><pdop>3.0</pdop><geoidheight>54.00</geoidheight><course>227.9</course><type>1</type></trkpt>
      <trkpt lat="39.31910034" lon="-6.2025546"><ele>1521</ele><speed>9.75</speed><time>2016-06-21T14:29:35Z</time><pdop>3.0</pdop><geoidheight>54.00</geoidheight><course>241.3</course><type>1</type></trkpt>
      <trkpt lat="39.31906826" lon="-6.20268055"><ele>1523</ele><speed>11.25</speed><time>2016-06-21T14:29:36Z</time><pdop>3.0</pdop><geoidheight>54.00</geoidheight><course>250.8</course><type>1</type></trkpt>
      <trkpt lat="39.31904458" lon="-6.20282105"><ele>1525</ele><speed>12.50</speed><time>2016-06-21T14:29:37Z</time><pdop>4.0</pdop><geoidheight>54.00</geoidheight><course>256.4</course><type>1</type></trkpt>
      <trkpt lat="39.31903698" lon="-6.20315855"><ele>1522</ele><speed>15.00</speed><time>2016-06-21T14:29:39Z</time><pdop>3.0</pdop><geoidheight>54.00</geoidheight><course>270.8</course><type>1</type></trkpt>
      <trkpt lat="39.31906551" lon="-6.20334205"><ele>1524</ele><speed>16.00</speed><time>2016-06-21T14:29:40Z</time><pdop>4.0</pdop><geoidheight>54.00</geoidheight><course>280.3</course><type>1</type></trkpt>
      <trkpt lat="39.319221" lon="-6.20367518"><ele>1529</ele><speed>16.50</speed><time>2016-06-21T14:29:42Z</time><pdop>3.0</pdop><geoidheight>54.00</geoidheight><course>308.2</course><type>1</type></trkpt>
      <trkpt lat="39.31932031" lon="-6.20380415"><ele>1530</ele><speed>15.50</speed><time>2016-06-21T14:29:43Z</time><pdop>4.0</pdop><geoidheight>54.00</geoidheight><course>314.3</course><type>1</type></trkpt>
      <trkpt lat="39.31942937" lon="-6.20386367"><ele>1531</ele><speed>13.25</speed><time>2016-06-21T14:29:44Z</time><pdop>4.0</pdop><geoidheight>54.00</geoidheight><course>328.4</course><type>1</type></trkpt>
      <trkpt lat="39.3195461" lon="-6.20387052"><ele>1531</ele><speed>12.25</speed><time>2016-06-21T14:29:45Z</time><pdop>5.0</pdop><geoidheight>54.00</geoidheight><course>343.2</course><type>1</type></trkpt>
      <trkpt lat="39.31969097" lon="-6.20372479"><ele>1534</ele><speed>9.25</speed><time>2016-06-21T14:29:47Z</time><pdop>4.0</pdop><geoidheight>54.00</geoidheight><course>22.5</course><type>1</type></trkpt>
      <trkpt lat="39.31969" lon="-6.20361782"><ele>1539</ele><speed>2.50</speed><time>2016-06-21T14:29:50Z</time><pdop>3.0</pdop><geoidheight>54.00</geoidheight><course>124.9</course><type>1</type></trkpt>
      <trkpt lat="39.31961949" lon="-6.2036041"><ele>1541</ele><speed>4.00</speed><time>2016-06-21T14:29:52Z</time><pdop>3.0</pdop><geoidheight>54.00</geoidheight><course>176.6</course><type>1</type></trkpt>
      <trkpt lat="39.31952226" lon="-6.20364833"><ele>1543</ele><speed>6.00</speed><time>2016-06-21T14:29:54Z</time><pdop>4.0</pdop><geoidheight>54.00</geoidheight><course>206.4</course><type>1</type></trkpt>
      <trkpt lat="39.3194284" lon="-6.20378448"><ele>1547</ele><speed>8.25</speed><time>2016-06-21T14:29:56Z</time><pdop>3.0</pdop><geoidheight>54.00</geoidheight><course>233.8</course><type>1</type></trkpt>
      <trkpt lat="39.3193684" lon="-6.20400869"><ele>1548</ele><speed>10.50</speed><time>2016-06-21T14:29:58Z</time><pdop>4.0</pdop><geoidheight>54.00</geoidheight><course>252.9</course><type>1</type></trkpt>
      <trkpt lat="39.31935429" lon="-6.20413921"><ele>1549</ele><speed>11.25</speed><time>2016-06-21T14:29:59Z</time><pdop>3.0</pdop><geoidheight>54.00</geoidheight><course>260.5</course><type>1</type></trkpt>
      <trkpt lat="39.31935969" lon="-6.20443811"><ele>1549</ele><speed>13.50</speed><time>2016-06-21T14:30:01Z</time><pdop>3.0</pdop><geoidheight>54.00</geoidheight><course>273.3</course><type>1</type></trkpt>
      <trkpt lat="39.31937683" lon="-6.20460942"><ele>1548</ele><speed>14.75</speed><time>2016-06-21T14:30:02Z</time><pdop>3.0</pdop><geoidheight>54.00</geoidheight><course>278.3</course><type>1</type></trkpt>
      <trkpt lat="39.31941078" lon="-6.20479371"><ele>1549</ele><speed>16.25</speed><time>2016-06-21T14:30:03Z</time><pdop>4.0</pdop><geoidheight>54.00</geoidheight><course>283.4</course><type>1</type></trkpt>
      <trkpt lat="39.31954868" lon="-6.20513221"><ele>1553</ele><speed>16.75</speed><time>2016-06-21T14:30:05Z</time><pdop>3.0</pdop><geoidheight>54.00</geoidheight><course>301.2</course><type>1</type></trkpt>
      <trkpt lat="39.31964244" lon="-6.20525868"><ele>1556</ele><speed>15.50</speed><time>2016-06-21T14:30:06Z</time><pdop>3.0</pdop><geoidheight>54.00</geoidheight><course>312.4</course><type>1</type></trkpt>
      <trkpt lat="39.31974055" lon="-6.20535174"><ele>1557</ele><speed>13.75</speed><time>2016-06-21T14:30:07Z</time><pdop>3.0</pdop><geoidheight>54.00</geoidheight><course>322.0</course><type>1</type></trkpt>
      <trkpt lat="39.31994755" lon="-6.2054424"><ele>1558</ele><speed>11.75</speed><time>2016-06-21T14:30:09Z</time><pdop>3.0</pdop><geoidheight>54.00</geoidheight><course>343.1</course><type>1</type></trkpt>
      <trkpt lat="39.32004155" lon="-6.20545406"><ele>1558</ele><speed>10.50</speed><time>2016-06-21T14:30:10Z</time><pdop>3.0</pdop><geoidheight>54.00</geoidheight><course>353.8</course><type>1</type></trkpt>
      <trkpt lat="39.32018758" lon="-6.20540868"><ele>1540</ele><speed>7.75</speed><time>2016-06-21T14:30:12Z</time><pdop>3.0</pdop><geoidheight>54.00</geoidheight><course>21.5</course><type>1</type></trkpt>
      <trkpt lat="39.32022232" lon="-6.20531011"><ele>1549</ele><speed>4.75</speed><time>2016-06-21T14:30:14Z</time><pdop>4.0</pdop><geoidheight>54.00</geoidheight><course>85.1</course><type>1</type></trkpt>
      <trkpt lat="39.32014896" lon="-6.20522147"><ele>1554</ele><speed>5.25</speed><time>2016-06-21T14:30:16Z</time><pdop>4.0</pdop><geoidheight>54.00</geoidheight><course>139.7</course><type>1</type></trkpt>
      <trkpt lat="39.3200277" lon="-6.20529035"><ele>1560</ele><speed>4.25</speed><time>2016-06-21T14:30:19Z</time><pdop>3.0</pdop><geoidheight>54.00</geoidheight><course>207.5</course><type>1</type></trkpt>
      <trkpt lat="39.31995634" lon="-6.20530612"><ele>1559</ele><speed>4.25</speed><time>2016-06-21T14:30:21Z</time><pdop>3.0</pdop><geoidheight>54.00</geoidheight><course>183.7</course><type>1</type></trkpt>
      <trkpt lat="39.31986068" lon="-6.2053447"><ele>1560</ele><speed>6.00</speed><time>2016-06-21T14:30:23Z</time><pdop>3.0</pdop><geoidheight>54.00</geoidheight><course>203.5</course><type>1</type></trkpt>
      <trkpt lat="39.31980119" lon="-6.2053888"><ele>1561</ele><speed>7.25</speed><time>2016-06-21T14:30:24Z</time><pdop>3.0</pdop><geoidheight>54.00</geoidheight><course>212.1</course><type>1</type></trkpt>
      <trkpt lat="39.31974507" lon="-6.20543097"><ele>1564</ele><speed>7.25</speed><time>2016-06-21T14:30:25Z</time><pdop>3.0</pdop><geoidheight>54.00</geoidheight><course>212.0</course><type>1</type></trkpt>
      <trkpt lat="39.31965484" lon="-6.2054892"><ele>1567</ele><speed>4.75</speed><time>2016-06-21T14:30:27Z</time><pdop>3.0</pdop><geoidheight>54.00</geoidheight><course>204.6</course><type>1</type></trkpt>
      <trkpt lat="39.31956401" lon="-6.20556221"><ele>1568</ele><speed>6.25</speed><time>2016-06-21T14:30:29Z</time><pdop>3.0</pdop><geoidheight>54.00</geoidheight><course>214.4</course><type>1</type></trkpt>
      <trkpt lat="39.31951655" lon="-6.2056251"><ele>1570</ele><speed>7.50</speed><time>2016-06-21T14:30:30Z</time><pdop>3.0</pdop><geoidheight>54.00</geoidheight><course>225.1</course><type>1</type></trkpt>
      <trkpt lat="39.31948204" lon="-6.20571414"><ele>1572</ele><speed>8.50</speed><time>2016-06-21T14:30:31Z</time><pdop>3.0</pdop><geoidheight>54.00</geoidheight><course>240.8</course><type>1</type></trkpt>
      <trkpt lat="39.31946129" lon="-6.20581892"><ele>1574</ele><speed>9.25</speed><time>2016-06-21T14:30:32Z</time><pdop>3.0</pdop><geoidheight>54.00</geoidheight><course>253.9</course><type>1</type></trkpt>
      <trkpt lat="39.31945364" lon="-6.20606214"><ele>1577</ele><speed>11.25</speed><time>2016-06-21T14:30:34Z</time><pdop>3.0</pdop><geoidheight>54.00</geoidheight><course>270.0</course><type>1</type></trkpt>
      <trkpt lat="39.31949805" lon="-6.20637397"><ele>1578</ele><speed>14.25</speed><time>2016-06-21T14:30:36Z</time><pdop>3.0</pdop><geoidheight>54.00</geoidheight><course>283.7</course><type>1</type></trkpt>
      <trkpt lat="39.31955433" lon="-6.20653666"><ele>1579</ele><speed>15.25</speed><time>2016-06-21T14:30:37Z</time><pdop>3.0</pdop><geoidheight>54.00</geoidheight><course>293.4</course><type>1</type></trkpt>
      <trkpt lat="39.31973599" lon="-6.20678956"><ele>1576</ele><speed>14.75</speed><time>2016-06-21T14:30:39Z</time><pdop>4.0</pdop><geoidheight>54.00</geoidheight><course>315.9</course><type>1</type></trkpt>
      <trkpt lat="39.31994321" lon="-6.20689038"><ele>1580</ele><speed>11.75</speed><time>2016-06-21T14:30:41Z</time><pdop>3.0</pdop><geoidheight>54.00</geoidheight><course>345.1</course><type>1</type></trkpt>
      <trkpt lat="39.32004119" lon="-6.20689112"><ele>1580</ele><speed>10.75</speed><time>2016-06-21T14:30:42Z</time><pdop>4.0</pdop><geoidheight>54.00</geoidheight><course>356.2</course><type>1</type></trkpt>
      <trkpt lat="39.32012391" lon="-6.20688121"><ele>1581</ele><speed>9.00</speed><time>2016-06-21T14:30:43Z</time><pdop>3.0</pdop><geoidheight>54.00</geoidheight><course>7.3</course><type>1</type></trkpt>
      <trkpt lat="39.32020808" lon="-6.20680751"><ele>1550</ele><speed>5.25</speed><time>2016-06-21T14:30:45Z</time><pdop>3.0</pdop><geoidheight>54.00</geoidheight><course>46.4</course><type>1</type></trkpt>
      <trkpt lat="39.32019821" lon="-6.20672097"><ele>1571</ele><speed>3.75</speed><time>2016-06-21T14:30:47Z</time><pdop>3.0</pdop><geoidheight>54.00</geoidheight><course>111.6</course><type>1</type></trkpt>
      <trkpt lat="39.32014477" lon="-6.20664169"><ele>1583</ele><speed>3.00</speed><time>2016-06-21T14:30:50Z</time><pdop>3.0</pdop><geoidheight>54.00</geoidheight><course>139.7</course><type>1</type></trkpt>
      <trkpt lat="39.32007241" lon="-6.20661062"><ele>1589</ele><speed>3.00</speed><time>2016-06-21T14:30:53Z</time><pdop>3.0</pdop><geoidheight>54.00</geoidheight><course>184.5</course><type>1</type></trkpt>
      <trkpt lat="39.31999745" lon="-6.20666582"><ele>1590</ele><speed>5.25</speed><time>2016-06-21T14:30:55Z</time><pdop>3.0</pdop><geoidheight>54.00</geoidheight><course>214.5</course><type>1</type></trkpt>
      <trkpt lat="39.31990916" lon="-6.20677919"><ele>1590</ele><speed>7.50</speed><time>2016-06-21T14:30:57Z</time><pdop>3.0</pdop><geoidheight>54.00</geoidheight><course>227.8</course><type>1</type></trkpt>
      <trkpt lat="39.31983601" lon="-6.20699386"><ele>1590</ele><speed>11.00</speed><time>2016-06-21T14:30:59Z</time><pdop>3.0</pdop><geoidheight>54.00</geoidheight><course>251.1</course><type>1</type></trkpt>
      <trkpt lat="39.3198249" lon="-6.20714379"><ele>1590</ele><speed>12.75</speed><time>2016-06-21T14:31:00Z</time><pdop>3.0</pdop><geoidheight>54.00</geoidheight><course>262.8</course><type>1</type></trkpt>
      <trkpt lat="39.31983342" lon="-6.20730458"><ele>1589</ele><speed>13.75</speed><time>2016-06-21T14:31:01Z</time><pdop>3.0</pdop><geoidheight>54.00</geoidheight><course>274.0</course><type>1</type></trkpt>
      <trkpt lat="39.31992268" lon="-6.20761513"><ele>1589</ele><speed>14.50</speed><time>2016-06-21T14:31:03Z</time><pdop>4.0</pdop><geoidheight>54.00</geoidheight><course>293.3</course><type>1</type></trkpt>
      <trkpt lat="39.31999475" lon="-6.20775598"><ele>1589</ele><speed>14.50</speed><time>2016-06-21T14:31:04Z</time><pdop>3.0</pdop><geoidheight>54.00</geoidheight><course>301.7</course><type>1</type></trkpt>
      <trkpt lat="39.32018222" lon="-6.20800819"><ele>1591</ele><speed>15.25</speed><time>2016-06-21T14:31:06Z</time><pdop>3.0</pdop><geoidheight>54.00</geoidheight><course>316.0</course><type>1</type></trkpt>
      <trkpt lat="39.32038435" lon="-6.20820636"><ele>1593</ele><speed>13.75</speed><time>2016-06-21T14:31:08Z</time><pdop>4.0</pdop><geoidheight>54.00</geoidheight><course>323.2</course><type>1</type></trkpt>
      <trkpt lat="39.32058208" lon="-6.20840736"><ele>1596</ele><speed>14.25</speed><time>2016-06-21T14:31:10Z</time><pdop>3.0</pdop><geoidheight>54.00</geoidheight><course>319.9</course><type>1</type></trkpt>
      <trkpt lat="39.32068261" lon="-6.20851871"><ele>1597</ele><speed>14.75</speed><time>2016-06-21T14:31:11Z</time><pdop>3.0</pdop><geoidheight>54.00</geoidheight><course>319.2</course><type>1</type></trkpt>
      <trkpt lat="39.3207865" lon="-6.20862821"><ele>1598</ele><speed>14.50</speed><time>2016-06-21T14:31:12Z</time><pdop>3.0</pdop><geoidheight>54.00</geoidheight><course>320.4</course><type>1</type></trkpt>
      <trkpt lat="39.32098645" lon="-6.20875764"><ele>1598</ele><speed>12.00</speed><time>2016-06-21T14:31:14Z</time><pdop>3.0</pdop><geoidheight>54.00</geoidheight><course>337.5</course><type>1</type></trkpt>
      <trkpt lat="39.3210824" lon="-6.20877171"><ele>1597</ele><speed>10.75</speed><time>2016-06-21T14:31:15Z</time><pdop>3.0</pdop><geoidheight>54.00</geoidheight><course>353.4</course><type>1</type></trkpt>
      <trkpt lat="39.32125404" lon="-6.20870407"><ele>1595</ele><speed>9.50</speed><time>2016-06-21T14:31:17Z</time><pdop>4.0</pdop><geoidheight>54.00</geoidheight><course>21.9</course><type>1</type></trkpt>
      <trkpt lat="39.32131549" lon="-6.20864393"><ele>1597</ele><speed>8.25</speed><time>2016-06-21T14:31:18Z</time><pdop>3.0</pdop><geoidheight>54.00</geoidheight><course>34.3</course><type>1</type></trkpt>
      <trkpt lat="39.32137521" lon="-6.2085261"><ele>1598</ele><speed>5.50</speed><time>2016-06-21T14:31:20Z</time><pdop>3.0</pdop><geoidheight>54.00</geoidheight><course>65.8</course><type>1</type></trkpt>
      <trkpt lat="39.32136602" lon="-6.20843814"><ele>1599</ele><speed>3.50</speed><time>2016-06-21T14:31:22Z</time><pdop>4.0</pdop><geoidheight>54.00</geoidheight><course>102.2</course><type>1</type></trkpt>
      <trkpt lat="39.32127636" lon="-6.2084529"><ele>1601</ele><speed>3.75</speed><time>2016-06-21T14:31:26Z</time><pdop>3.0</pdop><geoidheight>54.00</geoidheight><course>227.9</course><type>1</type></trkpt>
      <trkpt lat="39.32120382" lon="-6.20855291"><ele>1600</ele><speed>6.25</speed><time>2016-06-21T14:31:28Z</time><pdop>3.0</pdop><geoidheight>54.00</geoidheight><course>227.7</course><type>1</type></trkpt>
      <trkpt lat="39.32116345" lon="-6.20862886"><ele>1600</ele><speed>8.00</speed><time>2016-06-21T14:31:29Z</time><pdop>3.0</pdop><geoidheight>54.00</geoidheight><course>234.4</course><type>1</type></trkpt>
      <trkpt lat="39.32112696" lon="-6.2087372"><ele>1599</ele><speed>10.00</speed><time>2016-06-21T14:31:30Z</time><pdop>3.0</pdop><geoidheight>54.00</geoidheight><course>245.4</course><type>1</type></trkpt>
      <trkpt lat="39.32109884" lon="-6.20905119"><ele>1597</ele><speed>14.50</speed><time>2016-06-21T14:31:32Z</time><pdop>3.0</pdop><geoidheight>54.00</geoidheight><course>266.8</course><type>1</type></trkpt>
      <trkpt lat="39.32109162" lon="-6.20921825"><ele>1597</ele><speed>14.50</speed><time>2016-06-21T14:31:33Z</time><pdop>5.0</pdop><geoidheight>54.00</geoidheight><course>266.8</course><type>1</type></trkpt>
      <trkpt lat="39.32126665" lon="-6.20956659"><ele>1597</ele><speed>16.25</speed><time>2016-06-21T14:31:35Z</time><pdop>4.0</pdop><geoidheight>54.00</geoidheight><course>303.2</course><type>1</type></trkpt>
      <trkpt lat="39.32138161" lon="-6.20967714"><ele>1599</ele><speed>16.00</speed><time>2016-06-21T14:31:36Z</time><pdop>3.0</pdop><geoidheight>54.00</geoidheight><course>319.8</course><type>1</type></trkpt>
      <trkpt lat="39.32150268" lon="-6.20976421"><ele>1598</ele><speed>15.50</speed><time>2016-06-21T14:31:37Z</time><pdop>3.0</pdop><geoidheight>54.00</geoidheight><course>329.1</course><type>1</type></trkpt>
      <trkpt lat="39.3217336" lon="-6.20985422"><ele>1597</ele><speed>12.75</speed><time>2016-06-21T14:31:39Z</time><pdop>4.0</pdop><geoidheight>54.00</geoidheight><course>347.5</course><type>1</type></trkpt>
      <trkpt lat="39.3218332" lon="-6.20985189"><ele>1596</ele><speed>11.25</speed><time>2016-06-21T14:31:40Z</time><pdop>4.0</pdop><geoidheight>54.00</geoidheight><course>359.1</course><type>1</type></trkpt>
      <trkpt lat="39.3219109" lon="-6.20983061"><ele>1596</ele><speed>9.00</speed><time>2016-06-21T14:31:41Z</time><pdop>3.0</pdop><geoidheight>54.00</geoidheight><course>9.7</course><type>1</type></trkpt>
      <trkpt lat="39.32197155" lon="-6.20979618"><ele>1595</ele><speed>7.50</speed><time>2016-06-21T14:31:42Z</time><pdop>3.0</pdop><geoidheight>54.00</geoidheight><course>23.7</course><type>1</type></trkpt>
      <trkpt lat="39.32201743" lon="-6.20974766"><ele>1593</ele><speed>6.75</speed><time>2016-06-21T14:31:43Z</time><pdop>3.0</pdop><geoidheight>54.00</geoidheight><course>35.7</course><type>1</type></trkpt>
      <trkpt lat="39.32209586" lon="-6.20964917"><ele>1592</ele><speed>6.00</speed><time>2016-06-21T14:31:45Z</time><pdop>3.0</pdop><geoidheight>54.00</geoidheight><course>47.0</course><type>1</type></trkpt>
      <trkpt lat="39.32215784" lon="-6.20954681"><ele>1591</ele><speed>5.75</speed><time>2016-06-21T14:31:47Z</time><pdop>3.0</pdop><geoidheight>54.00</geoidheight><course>51.4</course><type>1</type></trkpt>
      <trkpt lat="39.32217523" lon="-6.20945433"><ele>1592</ele><speed>3.50</speed><time>2016-06-21T14:31:49Z</time><pdop>3.0</pdop><geoidheight>54.00</geoidheight><course>86.1</course><type>1</type></trkpt>
      <trkpt lat="39.32210878" lon="-6.20944045"><ele>1592</ele><speed>4.25</speed><time>2016-06-21T14:31:51Z</time><pdop>3.0</pdop><geoidheight>54.00</geoidheight><course>182.8</course><type>1</type></trkpt>
      <trkpt lat="39.32203636" lon="-6.20946505"><ele>1594</ele><speed>3.25</speed><time>2016-06-21T14:31:53Z</time><pdop>4.0</pdop><geoidheight>54.00</geoidheight><course>194.6</course><type>1</type></trkpt>
      <trkpt lat="39.32196521" lon="-6.20937094"><ele>1588</ele><speed>3.75</speed><time>2016-06-21T14:31:58Z</time><pdop>4.0</pdop><geoidheight>54.00</geoidheight><course>120.3</course><type>1</type></trkpt>
      <trkpt lat="39.32190991" lon="-6.20927344"><ele>1589</ele><speed>3.25</speed><time>2016-06-21T14:32:01Z</time><pdop>4.0</pdop><geoidheight>54.00</geoidheight><course>128.6</course><type>1</type></trkpt>
      <trkpt lat="39.32186732" lon="-6.20918383"><ele>1587</ele><speed>2.75</speed><time>2016-06-21T14:32:05Z</time><pdop>4.0</pdop><geoidheight>54.00</geoidheight><course>123.0</course><type>1</type></trkpt>
      <trkpt lat="39.3218092" lon="-6.20910275"><ele>1586</ele><speed>3.25</speed><time>2016-06-21T14:32:08Z</time><pdop>4.0</pdop><geoidheight>54.00</geoidheight><course>136.0</course><type>1</type></trkpt>
      <trkpt lat="39.32175615" lon="-6.20902114"><ele>1582</ele><speed>3.25</speed><time>2016-06-21T14:32:11Z</time><pdop>3.0</pdop><geoidheight>54.00</geoidheight><course>130.8</course><type>1</type></trkpt>
      <trkpt lat="39.32165165" lon="-6.20897569"><ele>1583</ele><speed>4.25</speed><time>2016-06-21T14:32:14Z</time><pdop>3.0</pdop><geoidheight>54.00</geoidheight><course>168.5</course><type>1</type></trkpt>
      <trkpt lat="39.32157548" lon="-6.20899883"><ele>1583</ele><speed>4.00</speed><time>2016-06-21T14:32:16Z</time><pdop>3.0</pdop><geoidheight>54.00</geoidheight><course>192.5</course><type>1</type></trkpt>
      <trkpt lat="39.32150988" lon="-6.20902661"><ele>1583</ele><speed>3.75</speed><time>2016-06-21T14:32:18Z</time><pdop>3.0</pdop><geoidheight>54.00</geoidheight><course>190.7</course><type>1</type></trkpt>
      <trkpt lat="39.32144267" lon="-6.20902524"><ele>1583</ele><speed>3.75</speed><time>2016-06-21T14:32:20Z</time><pdop>4.0</pdop><geoidheight>54.00</geoidheight><course>176.6</course><type>1</type></trkpt>
      <trkpt lat="39.32137579" lon="-6.20902471"><ele>1583</ele><speed>3.75</speed><time>2016-06-21T14:32:22Z</time><pdop>3.0</pdop><geoidheight>54.00</geoidheight><course>180.4</course><type>1</type></trkpt>
      <trkpt lat="39.32131777" lon="-6.20902628"><ele>1581</ele><speed>3.25</speed><time>2016-06-21T14:32:24Z</time><pdop>3.0</pdop><geoidheight>54.00</geoidheight><course>179.3</course><type>1</type></trkpt>
      <trkpt lat="39.32125705" lon="-6.20901269"><ele>1579</ele><speed>3.75</speed><time>2016-06-21T14:32:26Z</time><pdop>3.0</pdop><geoidheight>54.00</geoidheight><course>171.5</course><type>1</type></trkpt>
      <trkpt lat="39.3211933" lon="-6.20899466"><ele>1564</ele><speed>3.50</speed><time>2016-06-21T14:32:28Z</time><pdop>3.0</pdop><geoidheight>54.00</geoidheight><course>167.6</course><type>1</type></trkpt>
      <trkpt lat="39.32116812" lon="-6.20885945"><ele>1568</ele><speed>3.50</speed><time>2016-06-21T14:32:32Z</time><pdop>4.0</pdop><geoidheight>54.00</geoidheight><course>81.2</course><type>1</type></trkpt>
      <trkpt lat="39.32130178" lon="-6.20876032"><ele>1569</ele><speed>5.25</speed><time>2016-06-21T14:32:34Z</time><pdop>4.0</pdop><geoidheight>54.00</geoidheight><course>32.8</course><type>1</type></trkpt>
      <trkpt lat="39.32146832" lon="-6.20871552"><ele>1569</ele><speed>8.25</speed><time>2016-06-21T14:32:36Z</time><pdop>4.0</pdop><geoidheight>54.00</geoidheight><course>13.9</course><type>1</type></trkpt>
      <trkpt lat="39.32154322" lon="-6.20868851"><ele>1568</ele><speed>8.25</speed><time>2016-06-21T14:32:37Z</time><pdop>4.0</pdop><geoidheight>54.00</geoidheight><course>14.7</course><type>1</type></trkpt>
      <trkpt lat="39.32162916" lon="-6.20865955"><ele>1565</ele><speed>9.25</speed><time>2016-06-21T14:32:38Z</time><pdop>3.0</pdop><geoidheight>54.00</geoidheight><course>12.7</course><type>1</type></trkpt>
      <trkpt lat="39.32181978" lon="-6.20860444"><ele>1562</ele><speed>11.00</speed><time>2016-06-21T14:32:40Z</time><pdop>3.0</pdop><geoidheight>54.00</geoidheight><course>11.4</course><type>1</type></trkpt>
      <trkpt lat="39.32191817" lon="-6.20858276"><ele>1562</ele><speed>10.75</speed><time>2016-06-21T14:32:41Z</time><pdop>4.0</pdop><geoidheight>54.00</geoidheight><course>9.7</course><type>1</type></trkpt>
      <trkpt lat="39.32201076" lon="-6.20856692"><ele>1561</ele><speed>10.50</speed><time>2016-06-21T14:32:42Z</time><pdop>4.0</pdop><geoidheight>54.00</geoidheight><course>8.6</course><type>1</type></trkpt>
      <trkpt lat="39.32210061" lon="-6.20855207"><ele>1560</ele><speed>10.25</speed><time>2016-06-21T14:32:43Z</time><pdop>4.0</pdop><geoidheight>54.00</geoidheight><course>9.3</course><type>1</type></trkpt>
      <trkpt lat="39.32228167" lon="-6.20850844"><ele>1557</ele><speed>10.25</speed><time>2016-06-21T14:32:45Z</time><pdop>3.0</pdop><geoidheight>54.00</geoidheight><course>12.6</course><type>1</type></trkpt>
      <trkpt lat="39.3223731" lon="-6.20847522"><ele>1555</ele><speed>10.50</speed><time>2016-06-21T14:32:46Z</time><pdop>3.0</pdop><geoidheight>54.00</geoidheight><course>15.5</course><type>1</type></trkpt>
      <trkpt lat="39.32246174" lon="-6.20843423"><ele>1554</ele><speed>10.25</speed><time>2016-06-21T14:32:47Z</time><pdop>3.0</pdop><geoidheight>54.00</geoidheight><course>19.0</course><type>1</type></trkpt>
      <trkpt lat="39.32254277" lon="-6.20838696"><ele>1552</ele><speed>9.75</speed><time>2016-06-21T14:32:48Z</time><pdop>3.0</pdop><geoidheight>54.00</geoidheight><course>23.5</course><type>1</type></trkpt>
      <trkpt lat="39.32261886" lon="-6.20833513"><ele>1551</ele><speed>9.50</speed><time>2016-06-21T14:32:49Z</time><pdop>3.0</pdop><geoidheight>54.00</geoidheight><course>28.0</course><type>1</type></trkpt>
      <trkpt lat="39.32275671" lon="-6.20821134"><ele>1547</ele><speed>9.25</speed><time>2016-06-21T14:32:51Z</time><pdop>3.0</pdop><geoidheight>54.00</geoidheight><course>36.4</course><type>1</type></trkpt>
      <trkpt lat="39.3228173" lon="-6.20814285"><ele>1545</ele><speed>9.25</speed><time>2016-06-21T14:32:52Z</time><pdop>3.0</pdop><geoidheight>54.00</geoidheight><course>42.3</course><type>1</type></trkpt>
      <trkpt lat="39.3228757" lon="-6.20806889"><ele>1544</ele><speed>9.25</speed><time>2016-06-21T14:32:53Z</time><pdop>3.0</pdop><geoidheight>54.00</geoidheight><course>45.7</course><type>1</type></trkpt>
      <trkpt lat="39.32297275" lon="-6.20795042"><ele>1541</ele><speed>7.00</speed><time>2016-06-21T14:32:55Z</time><pdop>3.0</pdop><geoidheight>54.00</geoidheight><course>44.2</course><type>1</type></trkpt>
      <trkpt lat="39.32301541" lon="-6.20789363"><ele>1539</ele><speed>7.00</speed><time>2016-06-21T14:32:56Z</time><pdop>3.0</pdop><geoidheight>54.00</geoidheight><course>48.0</course><type>1</type></trkpt>
      <trkpt lat="39.32309941" lon="-6.2077443"><ele>1534</ele><speed>8.25</speed><time>2016-06-21T14:32:58Z</time><pdop>3.0</pdop><geoidheight>54.00</geoidheight><course>55.0</course><type>1</type></trkpt>
      <trkpt lat="39.32314606" lon="-6.20766407"><ele>1532</ele><speed>8.50</speed><time>2016-06-21T14:32:59Z</time><pdop>3.0</pdop><geoidheight>54.00</geoidheight><course>54.8</course><type>1</type></trkpt>
      <trkpt lat="39.32318657" lon="-6.20758678"><ele>1532</ele><speed>8.00</speed><time>2016-06-21T14:33:00Z</time><pdop>3.0</pdop><geoidheight>54.00</geoidheight><course>55.0</course><type>1</type></trkpt>
      <trkpt lat="39.32322182" lon="-6.2075174"><ele>1531</ele><speed>7.25</speed><time>2016-06-21T14:33:01Z</time><pdop>3.0</pdop><geoidheight>54.00</geoidheight><course>55.0</course><type>1</type></trkpt>
      <trkpt lat="39.32325998" lon="-6.20745437"><ele>1531</ele><speed>6.50</speed><time>2016-06-21T14:33:02Z</time><pdop>3.0</pdop><geoidheight>54.00</geoidheight><course>51.6</course><type>1</type></trkpt>
      <trkpt lat="39.32336171" lon="-6.2073488"><ele>1527</ele><speed>7.75</speed><time>2016-06-21T14:33:04Z</time><pdop>3.0</pdop><geoidheight>54.00</geoidheight><course>36.0</course><type>1</type></trkpt>
      <trkpt lat="39.32347349" lon="-6.20722128"><ele>1525</ele><speed>8.00</speed><time>2016-06-21T14:33:06Z</time><pdop>3.0</pdop><geoidheight>54.00</geoidheight><course>43.1</course><type>1</type></trkpt>
      <trkpt lat="39.32351749" lon="-6.20716429"><ele>1523</ele><speed>7.25</speed><time>2016-06-21T14:33:07Z</time><pdop>3.0</pdop><geoidheight>54.00</geoidheight><course>46.4</course><type>1</type></trkpt>
      <trkpt lat="39.32356076" lon="-6.20711218"><ele>1522</ele><speed>6.75</speed><time>2016-06-21T14:33:08Z</time><pdop>3.0</pdop><geoidheight>54.00</geoidheight><course>43.7</course><type>1</type></trkpt>
      <trkpt lat="39.32360679" lon="-6.20705053"><ele>1521</ele><speed>7.25</speed><time>2016-06-21T14:33:09Z</time><pdop>4.0</pdop><geoidheight>54.00</geoidheight><course>44.8</course><type>1</type></trkpt>
      <trkpt lat="39.32370517" lon="-6.20692508"><ele>1518</ele><speed>7.75</speed><time>2016-06-21T14:33:11Z</time><pdop>3.0</pdop><geoidheight>54.00</geoidheight><course>45.2</course><type>1</type></trkpt>
      <trkpt lat="39.32375613" lon="-6.20686333"><ele>1517</ele><speed>8.00</speed><time>2016-06-21T14:33:12Z</time><pdop>3.0</pdop><geoidheight>54.00</geoidheight><course>43.2</course><type>1</type></trkpt>
      <trkpt lat="39.32380869" lon="-6.20680787"><ele>1515</ele><speed>7.50</speed><time>2016-06-21T14:33:13Z</time><pdop>3.0</pdop><geoidheight>54.00</geoidheight><course>40.5</course><type>1</type></trkpt>
      <trkpt lat="39.32392648" lon="-6.2067013"><ele>1510</ele><speed>8.25</speed><time>2016-06-21T14:33:15Z</time><pdop>3.0</pdop><geoidheight>54.00</geoidheight><course>36.4</course><type>1</type></trkpt>
      <trkpt lat="39.32398446" lon="-6.20662293"><ele>1508</ele><speed>9.25</speed><time>2016-06-21T14:33:16Z</time><pdop>4.0</pdop><geoidheight>54.00</geoidheight><course>45.3</course><type>1</type></trkpt>
      <trkpt lat="39.3240555" lon="-6.20642481"><ele>1507</ele><speed>9.25</speed><time>2016-06-21T14:33:18Z</time><pdop>3.0</pdop><geoidheight>54.00</geoidheight><course>72.5</course><type>1</type></trkpt>
      <trkpt lat="39.32406216" lon="-6.20632698"><ele>1508</ele><speed>8.25</speed><time>2016-06-21T14:33:19Z</time><pdop>3.0</pdop><geoidheight>54.00</geoidheight><course>82.0</course><type>1</type></trkpt>
      <trkpt lat="39.32407343" lon="-6.20610159"><ele>1509</ele><speed>6.25</speed><time>2016-06-21T14:33:22Z</time><pdop>3.0</pdop><geoidheight>54.00</geoidheight><course>84.0</course><type>1</type></trkpt>
      <trkpt lat="39.32407706" lon="-6.20602201"><ele>1509</ele><speed>6.75</speed><time>2016-06-21T14:33:23Z</time><pdop>3.0</pdop><geoidheight>54.00</geoidheight><course>84.8</course><type>1</type></trkpt>
      <trkpt lat="39.32407372" lon="-6.20594503"><ele>1509</ele><speed>6.75</speed><time>2016-06-21T14:33:24Z</time><pdop>3.0</pdop><geoidheight>54.00</geoidheight><course>92.3</course><type>1</type></trkpt>
      <trkpt lat="39.3240312" lon="-6.20579343"><ele>1510</ele><speed>7.00</speed><time>2016-06-21T14:33:26Z</time><pdop>3.0</pdop><geoidheight>54.00</geoidheight><course>113.3</course><type>1</type></trkpt>
      <trkpt lat="39.32400522" lon="-6.20572504"><ele>1511</ele><speed>6.50</speed><time>2016-06-21T14:33:27Z</time><pdop>3.0</pdop><geoidheight>54.00</geoidheight><course>115.4</course><type>1</type></trkpt>
      <trkpt lat="39.32396895" lon="-6.20560683"><ele>1512</ele><speed>5.25</speed><time>2016-06-21T14:33:29Z</time><pdop>4.0</pdop><geoidheight>54.00</geoidheight><course>110.8</course><type>1</type></trkpt>
      <trkpt lat="39.3238758" lon="-6.20546483"><ele>1512</ele><speed>5.75</speed><time>2016-06-21T14:33:32Z</time><pdop>3.0</pdop><geoidheight>54.00</geoidheight><course>144.1</course><type>1</type></trkpt>
      <trkpt lat="39.32381931" lon="-6.20543988"><ele>1512</ele><speed>6.25</speed><time>2016-06-21T14:33:33Z</time><pdop>3.0</pdop><geoidheight>54.00</geoidheight><course>158.4</course><type>1</type></trkpt>
      <trkpt lat="39.32375909" lon="-6.20544048"><ele>1513</ele><speed>6.50</speed><time>2016-06-21T14:33:34Z</time><pdop>3.0</pdop><geoidheight>54.00</geoidheight><course>177.5</course><type>1</type></trkpt>
      <trkpt lat="39.32365448" lon="-6.20553104"><ele>1514</ele><speed>7.25</speed><time>2016-06-21T14:33:36Z</time><pdop>3.0</pdop><geoidheight>54.00</geoidheight><course>222.1</course><type>1</type></trkpt>
      <trkpt lat="39.32361418" lon="-6.20562159"><ele>1513</ele><speed>8.75</speed><time>2016-06-21T14:33:37Z</time><pdop>3.0</pdop><geoidheight>54.00</geoidheight><course>239.6</course><type>1</type></trkpt>
      <trkpt lat="39.32359839" lon="-6.20588195"><ele>1510</ele><speed>11.25</speed><time>2016-06-21T14:33:39Z</time><pdop>3.0</pdop><geoidheight>54.00</geoidheight><course>271.6</course><type>1</type></trkpt>
      <trkpt lat="39.32363046" lon="-6.20601946"><ele>1510</ele><speed>12.25</speed><time>2016-06-21T14:33:40Z</time><pdop>3.0</pdop><geoidheight>54.00</geoidheight><course>286.5</course><type>1</type></trkpt>
      <trkpt lat="39.32367394" lon="-6.20615873"><ele>1510</ele><speed>12.75</speed><time>2016-06-21T14:33:41Z</time><pdop>4.0</pdop><geoidheight>54.00</geoidheight><course>292.4</course><type>1</type></trkpt>
      <trkpt lat="39.32385792" lon="-6.20633986"><ele>1510</ele><speed>13.00</speed><time>2016-06-21T14:33:43Z</time><pdop>3.0</pdop><geoidheight>54.00</geoidheight><course>323.7</course><type>1</type></trkpt>
      <trkpt lat="39.32396289" lon="-6.2064003"><ele>1512</ele><speed>12.75</speed><time>2016-06-21T14:33:44Z</time><pdop>3.0</pdop><geoidheight>54.00</geoidheight><course>334.0</course><type>1</type></trkpt>
      <trkpt lat="39.32406684" lon="-6.20644096"><ele>1513</ele><speed>12.25</speed><time>2016-06-21T14:33:45Z</time><pdop>3.0</pdop><geoidheight>54.00</geoidheight><course>341.0</course><type>1</type></trkpt>
      <trkpt lat="39.32426779" lon="-6.20647894"><ele>1515</ele><speed>11.25</speed><time>2016-06-21T14:33:47Z</time><pdop>3.0</pdop><geoidheight>54.00</geoidheight><course>355.3</course><type>1</type></trkpt>
      <trkpt lat="39.32436603" lon="-6.20646789"><ele>1515</ele><speed>11.00</speed><time>2016-06-21T14:33:48Z</time><pdop>3.0</pdop><geoidheight>54.00</geoidheight><course>5.8</course><type>1</type></trkpt>
      <trkpt lat="39.32445767" lon="-6.20643257"><ele>1515</ele><speed>10.75</speed><time>2016-06-21T14:33:49Z</time><pdop>3.0</pdop><geoidheight>54.00</geoidheight><course>16.9</course><type>1</type></trkpt>
      <trkpt lat="39.32459973" lon="-6.20630815"><ele>1517</ele><speed>9.00</speed><time>2016-06-21T14:33:51Z</time><pdop>3.0</pdop><geoidheight>54.00</geoidheight><course>40.8</course><type>1</type></trkpt>
      <trkpt lat="39.32463947" lon="-6.20623405"><ele>1516</ele><speed>7.75</speed><time>2016-06-21T14:33:52Z</time><pdop>3.0</pdop><geoidheight>54.00</geoidheight><course>53.8</course><type>1</type></trkpt>
      <trkpt lat="39.32466131" lon="-6.20615823"><ele>1516</ele><speed>7.00</speed><time>2016-06-21T14:33:53Z</time><pdop>3.0</pdop><geoidheight>54.00</geoidheight><course>69.5</course><type>1</type></trkpt>
      <trkpt lat="39.32465325" lon="-6.20601546"><ele>1518</ele><speed>5.50</speed><time>2016-06-21T14:33:55Z</time><pdop>3.0</pdop><geoidheight>54.00</geoidheight><course>100.0</course><type>1</type></trkpt>
      <trkpt lat="39.32458209" lon="-6.20594651"><ele>1518</ele><speed>5.25</speed><time>2016-06-21T14:33:57Z</time><pdop>3.0</pdop><geoidheight>54.00</geoidheight><course>151.7</course><type>1</type></trkpt>
      <trkpt lat="39.32446712" lon="-6.20593286"><ele>1518</ele><speed>7.00</speed><time>2016-06-21T14:33:59Z</time><pdop>3.0</pdop><geoidheight>54.00</geoidheight><course>180.8</course><type>1</type></trkpt>
      <trkpt lat="39.324316519999996" lon="-6.20599697"><ele>1519</ele><speed>8.75</speed><time>2016-06-21T14:34:01Z</time><pdop>3.0</pdop><geoidheight>54.00</geoidheight><course>202.7</course><type>1</type></trkpt>
      <trkpt lat="39.32420331" lon="-6.20615832"><ele>1521</ele><speed>9.25</speed><time>2016-06-21T14:34:03Z</time><pdop>4.0</pdop><geoidheight>54.00</geoidheight><course>235.6</course><type>1</type></trkpt>
      <trkpt lat="39.3241772" lon="-6.20626634"><ele>1521</ele><speed>9.75</speed><time>2016-06-21T14:34:04Z</time><pdop>3.0</pdop><geoidheight>54.00</geoidheight><course>250.8</course><type>1</type></trkpt>
      <trkpt lat="39.32416805" lon="-6.2063877"><ele>1521</ele><speed>10.00</speed><time>2016-06-21T14:34:05Z</time><pdop>3.0</pdop><geoidheight>54.00</geoidheight><course>264.2</course><type>1</type></trkpt>
      <trkpt lat="39.32421888" lon="-6.20664443"><ele>1521</ele><speed>11.75</speed><time>2016-06-21T14:34:07Z</time><pdop>3.0</pdop><geoidheight>54.00</geoidheight><course>287.7</course><type>1</type></trkpt>
      <trkpt lat="39.32427591" lon="-6.20677048"><ele>1521</ele><speed>12.25</speed><time>2016-06-21T14:34:08Z</time><pdop>4.0</pdop><geoidheight>54.00</geoidheight><course>299.1</course><type>1</type></trkpt>
      <trkpt lat="39.3243604" lon="-6.20687008"><ele>1521</ele><speed>12.50</speed><time>2016-06-21T14:34:09Z</time><pdop>3.0</pdop><geoidheight>54.00</geoidheight><course>313.5</course><type>1</type></trkpt>
      <trkpt lat="39.32455757" lon="-6.2070117"><ele>1521</ele><speed>12.75</speed><time>2016-06-21T14:34:11Z</time><pdop>4.0</pdop><geoidheight>54.00</geoidheight><course>332.1</course><type>1</type></trkpt>
      <trkpt lat="39.3246707" lon="-6.20698865"><ele>1521</ele><speed>12.00</speed><time>2016-06-21T14:34:12Z</time><pdop>3.0</pdop><geoidheight>54.00</geoidheight><course>355.4</course><type>1</type></trkpt>
      <trkpt lat="39.32477467" lon="-6.20697054"><ele>1522</ele><speed>11.50</speed><time>2016-06-21T14:34:13Z</time><pdop>3.0</pdop><geoidheight>54.00</geoidheight><course>6.5</course><type>1</type></trkpt>
      <trkpt lat="39.32495987" lon="-6.20690353"><ele>1524</ele><speed>10.50</speed><time>2016-06-21T14:34:15Z</time><pdop>3.0</pdop><geoidheight>54.00</geoidheight><course>18.5</course><type>1</type></trkpt>
      <trkpt lat="39.32504823" lon="-6.20685913"><ele>1525</ele><speed>10.25</speed><time>2016-06-21T14:34:16Z</time><pdop>3.0</pdop><geoidheight>54.00</geoidheight><course>21.4</course><type>1</type></trkpt>
      <trkpt lat="39.32512903" lon="-6.20680922"><ele>1525</ele><speed>9.75</speed><time>2016-06-21T14:34:17Z</time><pdop>3.0</pdop><geoidheight>54.00</geoidheight><course>24.5</course><type>1</type></trkpt>
      <trkpt lat="39.32525602" lon="-6.20670501"><ele>1526</ele><speed>8.00</speed><time>2016-06-21T14:34:19Z</time><pdop>3.0</pdop><geoidheight>54.00</geoidheight><course>36.4</course><type>1</type></trkpt>
      <trkpt lat="39.3253052" lon="-6.20664377"><ele>1527</ele><speed>7.50</speed><time>2016-06-21T14:34:20Z</time><pdop>3.0</pdop><geoidheight>54.00</geoidheight><course>45.5</course><type>1</type></trkpt>
      <trkpt lat="39.32533778" lon="-6.20657772"><ele>1527</ele><speed>6.75</speed><time>2016-06-21T14:34:21Z</time><pdop>3.0</pdop><geoidheight>54.00</geoidheight><course>56.5</course><type>1</type></trkpt>
      <trkpt lat="39.32533856" lon="-6.2064573"><ele>1528</ele><speed>4.75</speed><time>2016-06-21T14:34:23Z</time><pdop>3.0</pdop><geoidheight>54.00</geoidheight><course>95.2</course><type>1</type></trkpt>
      <trkpt lat="39.32526411" lon="-6.20638589"><ele>1528</ele><speed>5.50</speed><time>2016-06-21T14:34:25Z</time><pdop>3.0</pdop><geoidheight>54.00</geoidheight><course>149.3</course><type>1</type></trkpt>
      <trkpt lat="39.32515696" lon="-6.20635317"><ele>1530</ele><speed>5.75</speed><time>2016-06-21T14:34:27Z</time><pdop>3.0</pdop><geoidheight>54.00</geoidheight><course>168.8</course><type>1</type></trkpt>
      <trkpt lat="39.32507259" lon="-6.20634902"><ele>1533</ele><speed>4.50</speed><time>2016-06-21T14:34:29Z</time><pdop>3.0</pdop><geoidheight>54.00</geoidheight><course>177.1</course><type>1</type></trkpt>
      <trkpt lat="39.3249895" lon="-6.2063366"><ele>1535</ele><speed>4.75</speed><time>2016-06-21T14:34:31Z</time><pdop>4.0</pdop><geoidheight>54.00</geoidheight><course>174.1</course><type>1</type></trkpt>
      <trkpt lat="39.3248947" lon="-6.20636685"><ele>1537</ele><speed>5.50</speed><time>2016-06-21T14:34:33Z</time><pdop>3.0</pdop><geoidheight>54.00</geoidheight><course>201.1</course><type>1</type></trkpt>
      <trkpt lat="39.3248149" lon="-6.2065098"><ele>1539</ele><speed>8.25</speed><time>2016-06-21T14:34:35Z</time><pdop>3.0</pdop><geoidheight>54.00</geoidheight><course>239.9</course><type>1</type></trkpt>
      <trkpt lat="39.32479201" lon="-6.20673029"><ele>1541</ele><speed>9.75</speed><time>2016-06-21T14:34:37Z</time><pdop>3.0</pdop><geoidheight>54.00</geoidheight><course>265.2</course><type>1</type></trkpt>
      <trkpt lat="39.32480335" lon="-6.20685917"><ele>1541</ele><speed>10.75</speed><time>2016-06-21T14:34:38Z</time><pdop>3.0</pdop><geoidheight>54.00</geoidheight><course>274.5</course><type>1</type></trkpt>
      <trkpt lat="39.32487634" lon="-6.20712271"><ele>1543</ele><speed>12.75</speed><time>2016-06-21T14:34:40Z</time><pdop>4.0</pdop><geoidheight>54.00</geoidheight><course>294.9</course><type>1</type></trkpt>
      <trkpt lat="39.32504482" lon="-6.20735273"><ele>1546</ele><speed>13.25</speed><time>2016-06-21T14:34:42Z</time><pdop>3.0</pdop><geoidheight>54.00</geoidheight><course>316.1</course><type>1</type></trkpt>
      <trkpt lat="39.32513253" lon="-6.20741932"><ele>1547</ele><speed>11.50</speed><time>2016-06-21T14:34:43Z</time><pdop>3.0</pdop><geoidheight>54.00</geoidheight><course>327.7</course><type>1</type></trkpt>
      <trkpt lat="39.32522035" lon="-6.20745209"><ele>1548</ele><speed>10.25</speed><time>2016-06-21T14:34:44Z</time><pdop>4.0</pdop><geoidheight>54.00</geoidheight><course>340.7</course><type>1</type></trkpt>
      <trkpt lat="39.32531266" lon="-6.20745505"><ele>1547</ele><speed>10.00</speed><time>2016-06-21T14:34:45Z</time><pdop>3.0</pdop><geoidheight>54.00</geoidheight><course>355.7</course><type>1</type></trkpt>
      <trkpt lat="39.32540605" lon="-6.20744091"><ele>1547</ele><speed>10.50</speed><time>2016-06-21T14:34:46Z</time><pdop>3.0</pdop><geoidheight>54.00</geoidheight><course>5.9</course><type>1</type></trkpt>
      <trkpt lat="39.32557151" lon="-6.20734547"><ele>1548</ele><speed>10.00</speed><time>2016-06-21T14:34:48Z</time><pdop>3.0</pdop><geoidheight>54.00</geoidheight><course>29.4</course><type>1</type></trkpt>
      <trkpt lat="39.32562787" lon="-6.20726831"><ele>1547</ele><speed>9.00</speed><time>2016-06-21T14:34:49Z</time><pdop>3.0</pdop><geoidheight>54.00</geoidheight><course>46.9</course><type>1</type></trkpt>
      <trkpt lat="39.32565675" lon="-6.20718472"><ele>1548</ele><speed>8.00</speed><time>2016-06-21T14:34:50Z</time><pdop>3.0</pdop><geoidheight>54.00</geoidheight><course>66.5</course><type>1</type></trkpt>
      <trkpt lat="39.32566069" lon="-6.20710424"><ele>1548</ele><speed>7.00</speed><time>2016-06-21T14:34:51Z</time><pdop>3.0</pdop><geoidheight>54.00</geoidheight><course>83.7</course><type>1</type></trkpt>
      <trkpt lat="39.3256288" lon="-6.20697502"><ele>1549</ele><speed>5.50</speed><time>2016-06-21T14:34:53Z</time><pdop>3.0</pdop><geoidheight>54.00</geoidheight><course>115.5</course><type>1</type></trkpt>
      <trkpt lat="39.32554201" lon="-6.20692225"><ele>1550</ele><speed>5.25</speed><time>2016-06-21T14:34:55Z</time><pdop>4.0</pdop><geoidheight>54.00</geoidheight><course>163.1</course><type>1</type></trkpt>
      <trkpt lat="39.32543377" lon="-6.20700065"><ele>1552</ele><speed>7.25</speed><time>2016-06-21T14:34:57Z</time><pdop>3.0</pdop><geoidheight>54.00</geoidheight><course>216.5</course><type>1</type></trkpt>
      <trkpt lat="39.32539187" lon="-6.20708451"><ele>1553</ele><speed>8.50</speed><time>2016-06-21T14:34:58Z</time><pdop>3.0</pdop><geoidheight>54.00</geoidheight><course>235.2</course><type>1</type></trkpt>
      <trkpt lat="39.32536516" lon="-6.20718995"><ele>1554</ele><speed>9.50</speed><time>2016-06-21T14:34:59Z</time><pdop>3.0</pdop><geoidheight>54.00</geoidheight><course>252.0</course><type>1</type></trkpt>
      <trkpt lat="39.32537681" lon="-6.20743189"><ele>1555</ele><speed>10.50</speed><time>2016-06-21T14:35:01Z</time><pdop>3.0</pdop><geoidheight>54.00</geoidheight><course>277.8</course><type>1</type></trkpt>
      <trkpt lat="39.32540804" lon="-6.20755371"><ele>1556</ele><speed>11.00</speed><time>2016-06-21T14:35:02Z</time><pdop>3.0</pdop><geoidheight>54.00</geoidheight><course>288.2</course><type>1</type></trkpt>
      <trkpt lat="39.32555126" lon="-6.20778617"><ele>1556</ele><speed>13.50</speed><time>2016-06-21T14:35:04Z</time><pdop>3.0</pdop><geoidheight>54.00</geoidheight><course>311.7</course><type>1</type></trkpt>
      <trkpt lat="39.32565369" lon="-6.20788237"><ele>1556</ele><speed>13.75</speed><time>2016-06-21T14:35:05Z</time><pdop>3.0</pdop><geoidheight>54.00</geoidheight><course>322.4</course><type>1</type></trkpt>
      <trkpt lat="39.32587315" lon="-6.20801904"><ele>1559</ele><speed>13.50</speed><time>2016-06-21T14:35:07Z</time><pdop>3.0</pdop><geoidheight>54.00</geoidheight><course>334.7</course><type>1</type></trkpt>
      <trkpt lat="39.32597947" lon="-6.20807176"><ele>1560</ele><speed>12.50</speed><time>2016-06-21T14:35:08Z</time><pdop>3.0</pdop><geoidheight>54.00</geoidheight><course>337.3</course><type>1</type></trkpt>
      <trkpt lat="39.32608009" lon="-6.20810861"><ele>1561</ele><speed>11.75</speed><time>2016-06-21T14:35:09Z</time><pdop>3.0</pdop><geoidheight>54.00</geoidheight><course>342.4</course><type>1</type></trkpt>
      <trkpt lat="39.32627748" lon="-6.20812427"><ele>1561</ele><speed>10.75</speed><time>2016-06-21T14:35:11Z</time><pdop>3.0</pdop><geoidheight>54.00</geoidheight><course>0.3</course><type>1</type></trkpt>
      <trkpt lat="39.326369389999996" lon="-6.20810002"><ele>1561</ele><speed>10.50</speed><time>2016-06-21T14:35:12Z</time><pdop>3.0</pdop><geoidheight>54.00</geoidheight><course>10.9</course><type>1</type></trkpt>
      <trkpt lat="39.32645264" lon="-6.20805326"><ele>1560</ele><speed>10.25</speed><time>2016-06-21T14:35:13Z</time><pdop>4.0</pdop><geoidheight>54.00</geoidheight><course>21.6</course><type>1</type></trkpt>
      <trkpt lat="39.32656194" lon="-6.20791753"><ele>1561</ele><speed>8.25</speed><time>2016-06-21T14:35:15Z</time><pdop>3.0</pdop><geoidheight>54.00</geoidheight><course>49.5</course><type>1</type></trkpt>
      <trkpt lat="39.32659627" lon="-6.20778122"><ele>1562</ele><speed>6.00</speed><time>2016-06-21T14:35:17Z</time><pdop>3.0</pdop><geoidheight>54.00</geoidheight><course>78.2</course><type>1</type></trkpt>
      <trkpt lat="39.32656433" lon="-6.20767453"><ele>1561</ele><speed>4.75</speed><time>2016-06-21T14:35:19Z</time><pdop>3.0</pdop><geoidheight>54.00</geoidheight><course>117.7</course><type>1</type></trkpt>
      <trkpt lat="39.32647868" lon="-6.20761879"><ele>1560</ele><speed>5.75</speed><time>2016-06-21T14:35:21Z</time><pdop>4.0</pdop><geoidheight>54.00</geoidheight><course>159.0</course><type>1</type></trkpt>
      <trkpt lat="39.3264145" lon="-6.20761475"><ele>1560</ele><speed>7.00</speed><time>2016-06-21T14:35:22Z</time><pdop>3.0</pdop><geoidheight>54.00</geoidheight><course>174.6</course><type>1</type></trkpt>
      <trkpt lat="39.32628819" lon="-6.2076081"><ele>1560</ele><speed>7.00</speed><time>2016-06-21T14:35:24Z</time><pdop>3.0</pdop><geoidheight>54.00</geoidheight><course>174.9</course><type>1</type></trkpt>
      <trkpt lat="39.32622489" lon="-6.20759519"><ele>1560</ele><speed>7.00</speed><time>2016-06-21T14:35:25Z</time><pdop>3.0</pdop><geoidheight>54.00</geoidheight><course>171.2</course><type>1</type></trkpt>
      <trkpt lat="39.32615848" lon="-6.20758599"><ele>1561</ele><speed>7.25</speed><time>2016-06-21T14:35:26Z</time><pdop>3.0</pdop><geoidheight>54.00</geoidheight><course>173.5</course><type>1</type></trkpt>
      <trkpt lat="39.32601853" lon="-6.2075713"><ele>1560</ele><speed>7.75</speed><time>2016-06-21T14:35:28Z</time><pdop>3.0</pdop><geoidheight>54.00</geoidheight><course>175.2</course><type>1</type></trkpt>
      <trkpt lat="39.32595179" lon="-6.20756112"><ele>1559</ele><speed>7.50</speed><time>2016-06-21T14:35:29Z</time><pdop>3.0</pdop><geoidheight>54.00</geoidheight><course>172.1</course><type>1</type></trkpt>
      <trkpt lat="39.32583038" lon="-6.20751541"><ele>1557</ele><speed>7.00</speed><time>2016-06-21T14:35:31Z</time><pdop>3.0</pdop><geoidheight>54.00</geoidheight><course>162.5</course><type>1</type></trkpt>
      <trkpt lat="39.32577652" lon="-6.20748552"><ele>1555</ele><speed>6.75</speed><time>2016-06-21T14:35:32Z</time><pdop>3.0</pdop><geoidheight>54.00</geoidheight><course>156.5</course><type>1</type></trkpt>
      <trkpt lat="39.32566653" lon="-6.20741184"><ele>1552</ele><speed>7.00</speed><time>2016-06-21T14:35:34Z</time><pdop>4.0</pdop><geoidheight>54.00</geoidheight><course>151.4</course><type>1</type></trkpt>
      <trkpt lat="39.32556187" lon="-6.20731139"><ele>1553</ele><speed>3.75</speed><time>2016-06-21T14:35:37Z</time><pdop>4.0</pdop><geoidheight>54.00</geoidheight><course>134.1</course><type>1</type></trkpt>
      <trkpt lat="39.32553475" lon="-6.20722779"><ele>1549</ele><speed>3.75</speed><time>2016-06-21T14:35:39Z</time><pdop>3.0</pdop><geoidheight>54.00</geoidheight><course>111.6</course><type>1</type></trkpt>
      <trkpt lat="39.32548147" lon="-6.20711891"><ele>1544</ele><speed>3.75</speed><time>2016-06-21T14:35:42Z</time><pdop>3.0</pdop><geoidheight>54.00</geoidheight><course>135.8</course><type>1</type></trkpt>
      <trkpt lat="39.32538879" lon="-6.20712135"><ele>1540</ele><speed>5.50</speed><time>2016-06-21T14:35:44Z</time><pdop>3.0</pdop><geoidheight>54.00</geoidheight><course>187.5</course><type>1</type></trkpt>
      <trkpt lat="39.32528189" lon="-6.20724839"><ele>1536</ele><speed>9.00</speed><time>2016-06-21T14:35:46Z</time><pdop>3.0</pdop><geoidheight>54.00</geoidheight><course>231.5</course><type>1</type></trkpt>
      <trkpt lat="39.32524313" lon="-6.20736779"><ele>1534</ele><speed>11.25</speed><time>2016-06-21T14:35:47Z</time><pdop>3.0</pdop><geoidheight>54.00</geoidheight><course>247.2</course><type>1</type></trkpt>
      <trkpt lat="39.32522386" lon="-6.20752245"><ele>1533</ele><speed>13.00</speed><time>2016-06-21T14:35:48Z</time><pdop>3.0</pdop><geoidheight>54.00</geoidheight><course>259.8</course><type>1</type></trkpt>
      <trkpt lat="39.32523008" lon="-6.20768757"><ele>1532</ele><speed>14.00</speed><time>2016-06-21T14:35:49Z</time><pdop>4.0</pdop><geoidheight>54.00</geoidheight><course>271.8</course><type>1</type></trkpt>
      <trkpt lat="39.32533002" lon="-6.20800095"><ele>1529</ele><speed>14.50</speed><time>2016-06-21T14:35:51Z</time><pdop>3.0</pdop><geoidheight>54.00</geoidheight><course>297.0</course><type>1</type></trkpt>
      <trkpt lat="39.32541246" lon="-6.20812316"><ele>1528</ele><speed>14.25</speed><time>2016-06-21T14:35:52Z</time><pdop>3.0</pdop><geoidheight>54.00</geoidheight><course>309.2</course><type>1</type></trkpt>
      <trkpt lat="39.32561099" lon="-6.20831665"><ele>1528</ele><speed>13.75</speed><time>2016-06-21T14:35:54Z</time><pdop>4.0</pdop><geoidheight>54.00</geoidheight><course>326.1</course><type>1</type></trkpt>
      <trkpt lat="39.32572327" lon="-6.20837406"><ele>1525</ele><speed>13.25</speed><time>2016-06-21T14:35:55Z</time><pdop>4.0</pdop><geoidheight>54.00</geoidheight><course>335.0</course><type>1</type></trkpt>
      <trkpt lat="39.32594644" lon="-6.20845142"><ele>1522</ele><speed>12.50</speed><time>2016-06-21T14:35:57Z</time><pdop>3.0</pdop><geoidheight>54.00</geoidheight><course>346.4</course><type>1</type></trkpt>
      <trkpt lat="39.32615169" lon="-6.2084905"><ele>1519</ele><speed>11.25</speed><time>2016-06-21T14:35:59Z</time><pdop>4.0</pdop><geoidheight>54.00</geoidheight><course>352.1</course><type>1</type></trkpt>
      <trkpt lat="39.32625126" lon="-6.20851233"><ele>1517</ele><speed>11.00</speed><time>2016-06-21T14:36:00Z</time><pdop>3.0</pdop><geoidheight>54.00</geoidheight><course>349.0</course><type>1</type></trkpt>
      <trkpt lat="39.32635225" lon="-6.20853817"><ele>1516</ele><speed>11.25</speed><time>2016-06-21T14:36:01Z</time><pdop>3.0</pdop><geoidheight>54.00</geoidheight><course>349.3</course><type>1</type></trkpt>
      <trkpt lat="39.32645035" lon="-6.20856124"><ele>1515</ele><speed>11.25</speed><time>2016-06-21T14:36:02Z</time><pdop>4.0</pdop><geoidheight>54.00</geoidheight><course>350.4</course><type>1</type></trkpt>
      <trkpt lat="39.3266433" lon="-6.2086224"><ele>1513</ele><speed>11.00</speed><time>2016-06-21T14:36:04Z</time><pdop>3.0</pdop><geoidheight>54.00</geoidheight><course>344.3</course><type>1</type></trkpt>
      <trkpt lat="39.32674465" lon="-6.20866064"><ele>1512</ele><speed>12.00</speed><time>2016-06-21T14:36:05Z</time><pdop>3.0</pdop><geoidheight>54.00</geoidheight><course>343.8</course><type>1</type></trkpt>
      <trkpt lat="39.32696586" lon="-6.20870864"><ele>1509</ele><speed>12.00</speed><time>2016-06-21T14:36:07Z</time><pdop>3.0</pdop><geoidheight>54.00</geoidheight><course>352.0</course><type>1</type></trkpt>
      <trkpt lat="39.32706734" lon="-6.20871604"><ele>1508</ele><speed>11.50</speed><time>2016-06-21T14:36:08Z</time><pdop>3.0</pdop><geoidheight>54.00</geoidheight><course>354.1</course><type>1</type></trkpt>
      <trkpt lat="39.32716617" lon="-6.20872856"><ele>1506</ele><speed>11.25</speed><time>2016-06-21T14:36:09Z</time><pdop>3.0</pdop><geoidheight>54.00</geoidheight><course>354.1</course><type>1</type></trkpt>
      <trkpt lat="39.32737602" lon="-6.20875973"><ele>1502</ele><speed>11.50</speed><time>2016-06-21T14:36:11Z</time><pdop>3.0</pdop><geoidheight>54.00</geoidheight><course>353.4</course><type>1</type></trkpt>
      <trkpt lat="39.3274768" lon="-6.20876968"><ele>1501</ele><speed>11.25</speed><time>2016-06-21T14:36:12Z</time><pdop>3.0</pdop><geoidheight>54.00</geoidheight><course>355.4</course><type>1</type></trkpt>
      <trkpt lat="39.3275786" lon="-6.2087795"><ele>1499</ele><speed>11.25</speed><time>2016-06-21T14:36:13Z</time><pdop>3.0</pdop><geoidheight>54.00</geoidheight><course>355.1</course><type>1</type></trkpt>
      <trkpt lat="39.32768199" lon="-6.20879301"><ele>1498</ele><speed>11.50</speed><time>2016-06-21T14:36:14Z</time><pdop>3.0</pdop><geoidheight>54.00</geoidheight><course>353.2</course><type>1</type></trkpt>
      <trkpt lat="39.32789425" lon="-6.20884214"><ele>1495</ele><speed>12.00</speed><time>2016-06-21T14:36:16Z</time><pdop>3.0</pdop><geoidheight>54.00</geoidheight><course>349.0</course><type>1</type></trkpt>
      <trkpt lat="39.32800094" lon="-6.20887971"><ele>1494</ele><speed>12.25</speed><time>2016-06-21T14:36:17Z</time><pdop>3.0</pdop><geoidheight>54.00</geoidheight><course>344.7</course><type>1</type></trkpt>
      <trkpt lat="39.32810635" lon="-6.20891904"><ele>1492</ele><speed>12.25</speed><time>2016-06-21T14:36:18Z</time><pdop>3.0</pdop><geoidheight>54.00</geoidheight><course>343.9</course><type>1</type></trkpt>
      <trkpt lat="39.32831447" lon="-6.20900214"><ele>1491</ele><speed>12.25</speed><time>2016-06-21T14:36:20Z</time><pdop>4.0</pdop><geoidheight>54.00</geoidheight><course>342.6</course><type>1</type></trkpt>
      <trkpt lat="39.32841362" lon="-6.2090522"><ele>1490</ele><speed>12.00</speed><time>2016-06-21T14:36:21Z</time><pdop>4.0</pdop><geoidheight>54.00</geoidheight><course>340.4</course><type>1</type></trkpt>
      <trkpt lat="39.32860975" lon="-6.20914122"><ele>1488</ele><speed>11.50</speed><time>2016-06-21T14:36:23Z</time><pdop>4.0</pdop><geoidheight>54.00</geoidheight><course>341.7</course><type>1</type></trkpt>
      <trkpt lat="39.32870855" lon="-6.20918059"><ele>1486</ele><speed>11.50</speed><time>2016-06-21T14:36:24Z</time><pdop>4.0</pdop><geoidheight>54.00</geoidheight><course>342.2</course><type>1</type></trkpt>
      <trkpt lat="39.32881055" lon="-6.20922775"><ele>1486</ele><speed>11.75</speed><time>2016-06-21T14:36:25Z</time><pdop>4.0</pdop><geoidheight>54.00</geoidheight><course>340.5</course><type>1</type></trkpt>
      <trkpt lat="39.32891645" lon="-6.20927547"><ele>1485</ele><speed>12.25</speed><time>2016-06-21T14:36:26Z</time><pdop>3.0</pdop><geoidheight>54.00</geoidheight><course>340.8</course><type>1</type></trkpt>
      <trkpt lat="39.32901325" lon="-6.20931946"><ele>1485</ele><speed>11.75</speed><time>2016-06-21T14:36:27Z</time><pdop>3.0</pdop><geoidheight>54.00</geoidheight><course>340.1</course><type>1</type></trkpt>
      <trkpt lat="39.32910973" lon="-6.20938052"><ele>1484</ele><speed>11.50</speed><time>2016-06-21T14:36:28Z</time><pdop>3.0</pdop><geoidheight>54.00</geoidheight><course>333.8</course><type>1</type></trkpt>
      <trkpt lat="39.32919784" lon="-6.20946778"><ele>1484</ele><speed>12.00</speed><time>2016-06-21T14:36:29Z</time><pdop>3.0</pdop><geoidheight>54.00</geoidheight><course>324.8</course><type>1</type></trkpt>
      <trkpt lat="39.32935983" lon="-6.20966726"><ele>1484</ele><speed>12.50</speed><time>2016-06-21T14:36:31Z</time><pdop>3.0</pdop><geoidheight>54.00</geoidheight><course>317.1</course><type>1</type></trkpt>
      <trkpt lat="39.3294517" lon="-6.20976492"><ele>1483</ele><speed>12.75</speed><time>2016-06-21T14:36:32Z</time><pdop>3.0</pdop><geoidheight>54.00</geoidheight><course>319.5</course><type>1</type></trkpt>
      <trkpt lat="39.32954999" lon="-6.20985642"><ele>1483</ele><speed>13.25</speed><time>2016-06-21T14:36:33Z</time><pdop>4.0</pdop><geoidheight>54.00</geoidheight><course>322.5</course><type>1</type></trkpt>
      <trkpt lat="39.32965486" lon="-6.20992905"><ele>1481</ele><speed>13.25</speed><time>2016-06-21T14:36:34Z</time><pdop>3.0</pdop><geoidheight>54.00</geoidheight><course>329.6</course><type>1</type></trkpt>
      <trkpt lat="39.32987256" lon="-6.21000778"><ele>1480</ele><speed>12.50</speed><time>2016-06-21T14:36:36Z</time><pdop>3.0</pdop><geoidheight>54.00</geoidheight><course>349.2</course><type>1</type></trkpt>
      <trkpt lat="39.33004749" lon="-6.20999717"><ele>1481</ele><speed>9.25</speed><time>2016-06-21T14:36:38Z</time><pdop>3.0</pdop><geoidheight>54.00</geoidheight><course>5.4</course><type>1</type></trkpt>
      <trkpt lat="39.3301276" lon="-6.20998781"><ele>1481</ele><speed>8.75</speed><time>2016-06-21T14:36:39Z</time><pdop>3.0</pdop><geoidheight>54.00</geoidheight><course>5.3</course><type>1</type></trkpt>
      <trkpt lat="39.33029648" lon="-6.20996322"><ele>1479</ele><speed>9.50</speed><time>2016-06-21T14:36:41Z</time><pdop>3.0</pdop><geoidheight>54.00</geoidheight><course>9.0</course><type>1</type></trkpt>
      <trkpt lat="39.33037979" lon="-6.20992614"><ele>1478</ele><speed>9.75</speed><time>2016-06-21T14:36:42Z</time><pdop>4.0</pdop><geoidheight>54.00</geoidheight><course>18.8</course><type>1</type></trkpt>
      <trkpt lat="39.33045205" lon="-6.20986521"><ele>1476</ele><speed>9.50</speed><time>2016-06-21T14:36:43Z</time><pdop>3.0</pdop><geoidheight>54.00</geoidheight><course>32.5</course><type>1</type></trkpt>
      <trkpt lat="39.33053251" lon="-6.20970644"><ele>1476</ele><speed>8.00</speed><time>2016-06-21T14:36:45Z</time><pdop>3.0</pdop><geoidheight>54.00</geoidheight><course>63.6</course><type>1</type></trkpt>
      <trkpt lat="39.33054034" lon="-6.20962939"><ele>1477</ele><speed>6.75</speed><time>2016-06-21T14:36:46Z</time><pdop>3.0</pdop><geoidheight>54.00</geoidheight><course>79.7</course><type>1</type></trkpt>
      <trkpt lat="39.33056046" lon="-6.20947003"><ele>1480</ele><speed>4.00</speed><time>2016-06-21T14:36:49Z</time><pdop>3.0</pdop><geoidheight>54.00</geoidheight><course>68.3</course><type>1</type></trkpt>
      <trkpt lat="39.33058752" lon="-6.20938926"><ele>1478</ele><speed>3.75</speed><time>2016-06-21T14:36:51Z</time><pdop>3.0</pdop><geoidheight>54.00</geoidheight><course>64.1</course><type>1</type></trkpt>
      <trkpt lat="39.3305621" lon="-6.20930278"><ele>1476</ele><speed>4.25</speed><time>2016-06-21T14:36:53Z</time><pdop>3.0</pdop><geoidheight>54.00</geoidheight><course>121.3</course><type>1</type></trkpt>
      <trkpt lat="39.33048738" lon="-6.20930058"><ele>1477</ele><speed>4.25</speed><time>2016-06-21T14:36:55Z</time><pdop>3.0</pdop><geoidheight>54.00</geoidheight><course>190.3</course><type>1</type></trkpt>
      <trkpt lat="39.33041832" lon="-6.20938393"><ele>1477</ele><speed>5.25</speed><time>2016-06-21T14:36:57Z</time><pdop>3.0</pdop><geoidheight>54.00</geoidheight><course>225.5</course><type>1</type></trkpt>
      <trkpt lat="39.33034994" lon="-6.20945362"><ele>1475</ele><speed>5.00</speed><time>2016-06-21T14:36:59Z</time><pdop>3.0</pdop><geoidheight>54.00</geoidheight><course>215.4</course><type>1</type></trkpt>
      <trkpt lat="39.33027587" lon="-6.2095182"><ele>1474</ele><speed>5.25</speed><time>2016-06-21T14:37:01Z</time><pdop>3.0</pdop><geoidheight>54.00</geoidheight><course>214.6</course><type>1</type></trkpt>
      <trkpt lat="39.33020349" lon="-6.20957966"><ele>1473</ele><speed>4.25</speed><time>2016-06-21T14:37:03Z</time><pdop>3.0</pdop><geoidheight>54.00</geoidheight><course>210.8</course><type>1</type></trkpt>
      <trkpt lat="39.33014021" lon="-6.20959824"><ele>1470</ele><speed>2.50</speed><time>2016-06-21T14:37:06Z</time><pdop>3.0</pdop><geoidheight>54.00</geoidheight><course>175.4</course><type>1</type></trkpt>
      <trkpt lat="39.33009928" lon="-6.20952765"><ele>1467</ele><speed>3.25</speed><time>2016-06-21T14:37:09Z</time><pdop>3.0</pdop><geoidheight>54.00</geoidheight><course>103.1</course><type>1</type></trkpt>
      <trkpt lat="39.33014654" lon="-6.20939378"><ele>1464</ele><speed>4.50</speed><time>2016-06-21T14:37:12Z</time><pdop>3.0</pdop><geoidheight>54.00</geoidheight><course>59.5</course><type>1</type></trkpt>
      <trkpt lat="39.33021432" lon="-6.20928689"><ele>1462</ele><speed>5.75</speed><time>2016-06-21T14:37:14Z</time><pdop>4.0</pdop><geoidheight>54.00</geoidheight><course>47.5</course><type>1</type></trkpt>
      <trkpt lat="39.33031194" lon="-6.2091803"><ele>1462</ele><speed>6.75</speed><time>2016-06-21T14:37:16Z</time><pdop>4.0</pdop><geoidheight>54.00</geoidheight><course>39.9</course><type>1</type></trkpt>
      <trkpt lat="39.33039931" lon="-6.20906711"><ele>1461</ele><speed>6.50</speed><time>2016-06-21T14:37:18Z</time><pdop>3.0</pdop><geoidheight>54.00</geoidheight><course>44.3</course><type>1</type></trkpt>
      <trkpt lat="39.33049249" lon="-6.20895961"><ele>1462</ele><speed>6.75</speed><time>2016-06-21T14:37:20Z</time><pdop>4.0</pdop><geoidheight>54.00</geoidheight><course>39.9</course><type>1</type></trkpt>
      <trkpt lat="39.33060338" lon="-6.208866"><ele>1462</ele><speed>7.25</speed><time>2016-06-21T14:37:22Z</time><pdop>3.0</pdop><geoidheight>54.00</geoidheight><course>30.8</course><type>1</type></trkpt>
      <trkpt lat="39.33071433" lon="-6.20879585"><ele>1460</ele><speed>7.00</speed><time>2016-06-21T14:37:24Z</time><pdop>3.0</pdop><geoidheight>54.00</geoidheight><course>24.7</course><type>1</type></trkpt>
      <trkpt lat="39.33078157" lon="-6.20876154"><ele>1459</ele><speed>7.75</speed><time>2016-06-21T14:37:25Z</time><pdop>3.0</pdop><geoidheight>54.00</geoidheight><course>19.7</course><type>1</type></trkpt>
      <trkpt lat="39.33094475" lon="-6.20873834"><ele>1455</ele><speed>9.75</speed><time>2016-06-21T14:37:27Z</time><pdop>4.0</pdop><geoidheight>54.00</geoidheight><course>4.2</course><type>1</type></trkpt>
      <trkpt lat="39.33104631" lon="-6.20873698"><ele>1454</ele><speed>10.75</speed><time>2016-06-21T14:37:28Z</time><pdop>3.0</pdop><geoidheight>54.00</geoidheight><course>0.9</course><type>1</type></trkpt>
      <trkpt lat="39.33124838" lon="-6.20874234"><ele>1452</ele><speed>11.00</speed><time>2016-06-21T14:37:30Z</time><pdop>3.0</pdop><geoidheight>54.00</geoidheight><course>357.0</course><type>1</type></trkpt>
      <trkpt lat="39.33146012" lon="-6.20881765"><ele>1450</ele><speed>12.25</speed><time>2016-06-21T14:37:32Z</time><pdop>4.0</pdop><geoidheight>54.00</geoidheight><course>342.1</course><type>1</type></trkpt>
      <trkpt lat="39.33157083" lon="-6.20888277"><ele>1447</ele><speed>13.50</speed><time>2016-06-21T14:37:33Z</time><pdop>3.0</pdop><geoidheight>54.00</geoidheight><course>337.2</course><type>1</type></trkpt>
      <trkpt lat="39.33168211" lon="-6.20894915"><ele>1446</ele><speed>14.00</speed><time>2016-06-21T14:37:34Z</time><pdop>3.0</pdop><geoidheight>54.00</geoidheight><course>335.4</course><type>1</type></trkpt>
      <trkpt lat="39.33180153" lon="-6.20902052"><ele>1444</ele><speed>14.25</speed><time>2016-06-21T14:37:35Z</time><pdop>3.0</pdop><geoidheight>54.00</geoidheight><course>335.8</course><type>1</type></trkpt>
      <trkpt lat="39.331923" lon="-6.20908909"><ele>1442</ele><speed>14.50</speed><time>2016-06-21T14:37:36Z</time><pdop>3.0</pdop><geoidheight>54.00</geoidheight><course>337.0</course><type>1</type></trkpt>
      <trkpt lat="39.33216176" lon="-6.20921267"><ele>1440</ele><speed>14.25</speed><time>2016-06-21T14:37:38Z</time><pdop>3.0</pdop><geoidheight>54.00</geoidheight><course>339.4</course><type>1</type></trkpt>
      <trkpt lat="39.33228051" lon="-6.20925568"><ele>1440</ele><speed>13.75</speed><time>2016-06-21T14:37:39Z</time><pdop>3.0</pdop><geoidheight>54.00</geoidheight><course>342.5</course><type>1</type></trkpt>
      <trkpt lat="39.33238975" lon="-6.20929101"><ele>1440</ele><speed>12.75</speed><time>2016-06-21T14:37:40Z</time><pdop>4.0</pdop><geoidheight>54.00</geoidheight><course>346.4</course><type>1</type></trkpt>
      <trkpt lat="39.33260455" lon="-6.20934119"><ele>1436</ele><speed>12.25</speed><time>2016-06-21T14:37:42Z</time><pdop>3.0</pdop><geoidheight>54.00</geoidheight><course>349.7</course><type>1</type></trkpt>
      <trkpt lat="39.33271723" lon="-6.20936488"><ele>1434</ele><speed>12.75</speed><time>2016-06-21T14:37:43Z</time><pdop>3.0</pdop><geoidheight>54.00</geoidheight><course>350.4</course><type>1</type></trkpt>
      <trkpt lat="39.3329531" lon="-6.20938528"><ele>1433</ele><speed>13.25</speed><time>2016-06-21T14:37:45Z</time><pdop>3.0</pdop><geoidheight>54.00</geoidheight><course>359.0</course><type>1</type></trkpt>
      <trkpt lat="39.33317343" lon="-6.2093465"><ele>1436</ele><speed>12.00</speed><time>2016-06-21T14:37:47Z</time><pdop>3.0</pdop><geoidheight>54.00</geoidheight><course>10.8</course><type>1</type></trkpt>
      <trkpt lat="39.33325919" lon="-6.20930407"><ele>1440</ele><speed>10.25</speed><time>2016-06-21T14:37:48Z</time><pdop>4.0</pdop><geoidheight>54.00</geoidheight><course>20.4</course><type>1</type></trkpt>
      <trkpt lat="39.33331233" lon="-6.20925951"><ele>1445</ele><speed>7.50</speed><time>2016-06-21T14:37:49Z</time><pdop>3.0</pdop><geoidheight>54.00</geoidheight><course>31.1</course><type>1</type></trkpt>
      <trkpt lat="39.33338596" lon="-6.20920464"><ele>1449</ele><speed>4.50</speed><time>2016-06-21T14:37:51Z</time><pdop>4.0</pdop><geoidheight>54.00</geoidheight><course>27.4</course><type>1</type></trkpt>
      <trkpt lat="39.33347052" lon="-6.20915677"><ele>1447</ele><speed>5.25</speed><time>2016-06-21T14:37:53Z</time><pdop>3.0</pdop><geoidheight>54.00</geoidheight><course>29.0</course><type>1</type></trkpt>
      <trkpt lat="39.33351872" lon="-6.20901441"><ele>1446</ele><speed>7.00</speed><time>2016-06-21T14:37:55Z</time><pdop>3.0</pdop><geoidheight>54.00</geoidheight><course>76.2</course><type>1</type></trkpt>
      <trkpt lat="39.33349132" lon="-6.20892764"><ele>1446</ele><speed>7.50</speed><time>2016-06-21T14:37:56Z</time><pdop>3.0</pdop><geoidheight>54.00</geoidheight><course>108.3</course><type>1</type></trkpt>
      <trkpt lat="39.33343703" lon="-6.20886309"><ele>1446</ele><speed>8.25</speed><time>2016-06-21T14:37:57Z</time><pdop>3.0</pdop><geoidheight>54.00</geoidheight><course>135.2</course><type>1</type></trkpt>
      <trkpt lat="39.33329535" lon="-6.20879236"><ele>1449</ele><speed>8.25</speed><time>2016-06-21T14:37:59Z</time><pdop>3.0</pdop><geoidheight>54.00</geoidheight><course>161.0</course><type>1</type></trkpt>
      <trkpt lat="39.33323552" lon="-6.20877301"><ele>1451</ele><speed>7.00</speed><time>2016-06-21T14:38:00Z</time><pdop>3.0</pdop><geoidheight>54.00</geoidheight><course>165.6</course><type>1</type></trkpt>
      <trkpt lat="39.33318185" lon="-6.20876359"><ele>1451</ele><speed>6.25</speed><time>2016-06-21T14:38:01Z</time><pdop>3.0</pdop><geoidheight>54.00</geoidheight><course>169.2</course><type>1</type></trkpt>
      <trkpt lat="39.33306546" lon="-6.20875577"><ele>1450</ele><speed>6.50</speed><time>2016-06-21T14:38:03Z</time><pdop>3.0</pdop><geoidheight>54.00</geoidheight><course>176.0</course><type>1</type></trkpt>
      <trkpt lat="39.33299769" lon="-6.2087656"><ele>1450</ele><speed>7.00</speed><time>2016-06-21T14:38:04Z</time><pdop>3.0</pdop><geoidheight>54.00</geoidheight><course>184.0</course><type>1</type></trkpt>
      <trkpt lat="39.33287462" lon="-6.20887344"><ele>1449</ele><speed>8.75</speed><time>2016-06-21T14:38:06Z</time><pdop>4.0</pdop><geoidheight>54.00</geoidheight><course>221.1</course><type>1</type></trkpt>
      <trkpt lat="39.3328379" lon="-6.20897487"><ele>1448</ele><speed>9.75</speed><time>2016-06-21T14:38:07Z</time><pdop>3.0</pdop><geoidheight>54.00</geoidheight><course>241.2</course><type>1</type></trkpt>
      <trkpt lat="39.33281667" lon="-6.20920842"><ele>1447</ele><speed>9.75</speed><time>2016-06-21T14:38:09Z</time><pdop>4.0</pdop><geoidheight>54.00</geoidheight><course>265.8</course><type>1</type></trkpt>
      <trkpt lat="39.33287618" lon="-6.20932268"><ele>1446</ele><speed>10.50</speed><time>2016-06-21T14:38:10Z</time><pdop>3.0</pdop><geoidheight>54.00</geoidheight><course>295.2</course><type>1</type></trkpt>
      <trkpt lat="39.33294753" lon="-6.20941194"><ele>1445</ele><speed>10.75</speed><time>2016-06-21T14:38:11Z</time><pdop>3.0</pdop><geoidheight>54.00</geoidheight><course>314.3</course><type>1</type></trkpt>
      <trkpt lat="39.33310912" lon="-6.20948755"><ele>1445</ele><speed>8.50</speed><time>2016-06-21T14:38:13Z</time><pdop>3.0</pdop><geoidheight>54.00</geoidheight><course>345.0</course><type>1</type></trkpt>
      <trkpt lat="39.33317234" lon="-6.20949479"><ele>1445</ele><speed>7.00</speed><time>2016-06-21T14:38:14Z</time><pdop>4.0</pdop><geoidheight>54.00</geoidheight><course>351.9</course><type>1</type></trkpt>
      <trkpt lat="39.33323772" lon="-6.20950161"><ele>1445</ele><speed>7.25</speed><time>2016-06-21T14:38:15Z</time><pdop>3.0</pdop><geoidheight>54.00</geoidheight><course>352.8</course><type>1</type></trkpt>
      <trkpt lat="39.33339578" lon="-6.20953695"><ele>1443</ele><speed>9.50</speed><time>2016-06-21T14:38:17Z</time><pdop>3.0</pdop><geoidheight>54.00</geoidheight><course>348.8</course><type>1</type></trkpt>
      <trkpt lat="39.3334954" lon="-6.2095533"><ele>1443</ele><speed>10.75</speed><time>2016-06-21T14:38:18Z</time><pdop>3.0</pdop><geoidheight>54.00</geoidheight><course>352.5</course><type>1</type></trkpt>
      <trkpt lat="39.33370967" lon="-6.20957238"><ele>1445</ele><speed>11.50</speed><time>2016-06-21T14:38:20Z</time><pdop>4.0</pdop><geoidheight>54.00</geoidheight><course>355.8</course><type>1</type></trkpt>
      <trkpt lat="39.3338913" lon="-6.209632"><ele>1449</ele><speed>10.50</speed><time>2016-06-21T14:38:22Z</time><pdop>5.0</pdop><geoidheight>54.00</geoidheight><course>346.7</course><type>1</type></trkpt>
      <trkpt lat="39.33407789" lon="-6.20971809"><ele>1449</ele><speed>11.00</speed><time>2016-06-21T14:38:24Z</time><pdop>5.0</pdop><geoidheight>54.00</geoidheight><course>342.2</course><type>1</type></trkpt>
      <trkpt lat="39.33417199" lon="-6.20976809"><ele>1450</ele><speed>11.00</speed><time>2016-06-21T14:38:25Z</time><pdop>4.0</pdop><geoidheight>54.00</geoidheight><course>337.5</course><type>1</type></trkpt>
      <trkpt lat="39.33426311" lon="-6.20981671"><ele>1451</ele><speed>11.00</speed><time>2016-06-21T14:38:26Z</time><pdop>6.0</pdop><geoidheight>54.00</geoidheight><course>337.5</course><type>1</type></trkpt>
      <trkpt lat="39.33431226" lon="-6.20992671"><ele>1452</ele><speed>10.50</speed><time>2016-06-21T14:38:27Z</time><pdop>4.0</pdop><geoidheight>54.00</geoidheight><course>315.4</course><type>1</type></trkpt>
      <trkpt lat="39.33438884" lon="-6.21012447"><ele>1452</ele><speed>9.00</speed><time>2016-06-21T14:38:29Z</time><pdop>4.0</pdop><geoidheight>54.00</geoidheight><course>289.8</course><type>1</type></trkpt>
      <trkpt lat="39.33438292" lon="-6.2103238"><ele>1454</ele><speed>8.25</speed><time>2016-06-21T14:38:31Z</time><pdop>4.0</pdop><geoidheight>54.00</geoidheight><course>262.7</course><type>1</type></trkpt>
      <trkpt lat="39.33435503" lon="-6.21041183"><ele>1455</ele><speed>7.50</speed><time>2016-06-21T14:38:32Z</time><pdop>4.0</pdop><geoidheight>54.00</geoidheight><course>249.4</course><type>1</type></trkpt>
      <trkpt lat="39.33430366" lon="-6.21047848"><ele>1455</ele><speed>7.50</speed><time>2016-06-21T14:38:33Z</time><pdop>4.0</pdop><geoidheight>54.00</geoidheight><course>232.3</course><type>1</type></trkpt>
      <trkpt lat="39.33419452" lon="-6.21061887"><ele>1456</ele><speed>8.50</speed><time>2016-06-21T14:38:35Z</time><pdop>3.0</pdop><geoidheight>54.00</geoidheight><course>223.5</course><type>1</type></trkpt>
      <trkpt lat="39.33413945" lon="-6.21068614"><ele>1456</ele><speed>8.50</speed><time>2016-06-21T14:38:36Z</time><pdop>4.0</pdop><geoidheight>54.00</geoidheight><course>223.5</course><type>1</type></trkpt>
      <trkpt lat="39.33410142" lon="-6.21077718"><ele>1457</ele><speed>8.25</speed><time>2016-06-21T14:38:37Z</time><pdop>4.0</pdop><geoidheight>54.00</geoidheight><course>234.7</course><type>1</type></trkpt>
      <trkpt lat="39.33408841" lon="-6.21087264"><ele>1457</ele><speed>8.25</speed><time>2016-06-21T14:38:38Z</time><pdop>3.0</pdop><geoidheight>54.00</geoidheight><course>252.8</course><type>1</type></trkpt>
      <trkpt lat="39.33409017" lon="-6.21097372"><ele>1457</ele><speed>8.50</speed><time>2016-06-21T14:38:39Z</time><pdop>3.0</pdop><geoidheight>54.00</geoidheight><course>269.8</course><type>1</type></trkpt>
      <trkpt lat="39.33411164" lon="-6.21108495"><ele>1457</ele><speed>9.75</speed><time>2016-06-21T14:38:40Z</time><pdop>4.0</pdop><geoidheight>54.00</geoidheight><course>282.7</course><type>1</type></trkpt>
      <trkpt lat="39.33415498" lon="-6.21119763"><ele>1457</ele><speed>10.50</speed><time>2016-06-21T14:38:41Z</time><pdop>4.0</pdop><geoidheight>54.00</geoidheight><course>293.6</course><type>1</type></trkpt>
      <trkpt lat="39.33423082" lon="-6.2112907"><ele>1456</ele><speed>11.00</speed><time>2016-06-21T14:38:42Z</time><pdop>3.0</pdop><geoidheight>54.00</geoidheight><course>310.7</course><type>1</type></trkpt>
      <trkpt lat="39.33431391" lon="-6.21136057"><ele>1455</ele><speed>11.25</speed><time>2016-06-21T14:38:43Z</time><pdop>3.0</pdop><geoidheight>54.00</geoidheight><course>324.9</course><type>1</type></trkpt>
      <trkpt lat="39.33452229" lon="-6.21140695"><ele>1452</ele><speed>12.00</speed><time>2016-06-21T14:38:45Z</time><pdop>3.0</pdop><geoidheight>54.00</geoidheight><course>354.8</course><type>1</type></trkpt>
      <trkpt lat="39.33463261" lon="-6.21140505"><ele>1452</ele><speed>12.50</speed><time>2016-06-21T14:38:46Z</time><pdop>3.0</pdop><geoidheight>54.00</geoidheight><course>1.7</course><type>1</type></trkpt>
      <trkpt lat="39.33474399" lon="-6.21140042"><ele>1452</ele><speed>12.50</speed><time>2016-06-21T14:38:47Z</time><pdop>3.0</pdop><geoidheight>54.00</geoidheight><course>2.7</course><type>1</type></trkpt>
      <trkpt lat="39.33495367" lon="-6.21138339"><ele>1453</ele><speed>11.50</speed><time>2016-06-21T14:38:49Z</time><pdop>4.0</pdop><geoidheight>54.00</geoidheight><course>5.4</course><type>1</type></trkpt>
      <trkpt lat="39.33504493" lon="-6.21135791"><ele>1454</ele><speed>10.75</speed><time>2016-06-21T14:38:50Z</time><pdop>3.0</pdop><geoidheight>54.00</geoidheight><course>10.4</course><type>1</type></trkpt>
      <trkpt lat="39.33514136" lon="-6.21132748"><ele>1454</ele><speed>11.25</speed><time>2016-06-21T14:38:51Z</time><pdop>3.0</pdop><geoidheight>54.00</geoidheight><course>13.4</course><type>1</type></trkpt>
      <trkpt lat="39.33533769" lon="-6.21126292"><ele>1455</ele><speed>11.00</speed><time>2016-06-21T14:38:53Z</time><pdop>3.0</pdop><geoidheight>54.00</geoidheight><course>12.7</course><type>1</type></trkpt>
      <trkpt lat="39.33544039" lon="-6.21124562"><ele>1456</ele><speed>11.50</speed><time>2016-06-21T14:38:54Z</time><pdop>3.0</pdop><geoidheight>54.00</geoidheight><course>6.9</course><type>1</type></trkpt>
      <trkpt lat="39.33555151" lon="-6.21124575"><ele>1457</ele><speed>12.00</speed><time>2016-06-21T14:38:55Z</time><pdop>3.0</pdop><geoidheight>54.00</geoidheight><course>0.1</course><type>1</type></trkpt>
      <trkpt lat="39.33566276" lon="-6.21126214"><ele>1458</ele><speed>12.25</speed><time>2016-06-21T14:38:56Z</time><pdop>3.0</pdop><geoidheight>54.00</geoidheight><course>353.6</course><type>1</type></trkpt>
      <trkpt lat="39.3358782" lon="-6.2113168"><ele>1459</ele><speed>12.25</speed><time>2016-06-21T14:38:58Z</time><pdop>4.0</pdop><geoidheight>54.00</geoidheight><course>348.7</course><type>1</type></trkpt>
      <trkpt lat="39.33597205" lon="-6.21131788"><ele>1462</ele><speed>11.25</speed><time>2016-06-21T14:38:59Z</time><pdop>4.0</pdop><geoidheight>54.00</geoidheight><course>355.0</course><type>1</type></trkpt>
      <trkpt lat="39.33606419" lon="-6.21133157"><ele>1464</ele><speed>10.50</speed><time>2016-06-21T14:39:00Z</time><pdop>3.0</pdop><geoidheight>54.00</geoidheight><course>353.4</course><type>1</type></trkpt>
      <trkpt lat="39.33615461" lon="-6.21135637"><ele>1466</ele><speed>10.00</speed><time>2016-06-21T14:39:01Z</time><pdop>3.0</pdop><geoidheight>54.00</geoidheight><course>349.5</course><type>1</type></trkpt>
      <trkpt lat="39.336243" lon="-6.21137738"><ele>1467</ele><speed>10.25</speed><time>2016-06-21T14:39:02Z</time><pdop>3.0</pdop><geoidheight>54.00</geoidheight><course>348.7</course><type>1</type></trkpt>
      <trkpt lat="39.3364178" lon="-6.21139957"><ele>1470</ele><speed>9.00</speed><time>2016-06-21T14:39:04Z</time><pdop>3.0</pdop><geoidheight>54.00</geoidheight><course>356.9</course><type>1</type></trkpt>
      <trkpt lat="39.33648603" lon="-6.2113907"><ele>1470</ele><speed>7.75</speed><time>2016-06-21T14:39:05Z</time><pdop>3.0</pdop><geoidheight>54.00</geoidheight><course>5.7</course><type>1</type></trkpt>
      <trkpt lat="39.3365561" lon="-6.21136258"><ele>1470</ele><speed>8.00</speed><time>2016-06-21T14:39:06Z</time><pdop>4.0</pdop><geoidheight>54.00</geoidheight><course>16.3</course><type>1</type></trkpt>
      <trkpt lat="39.33670739" lon="-6.21126185"><ele>1470</ele><speed>9.50</speed><time>2016-06-21T14:39:08Z</time><pdop>3.0</pdop><geoidheight>54.00</geoidheight><course>32.3</course><type>1</type></trkpt>
      <trkpt lat="39.33674848" lon="-6.21118996"><ele>1471</ele><speed>7.75</speed><time>2016-06-21T14:39:09Z</time><pdop>3.0</pdop><geoidheight>54.00</geoidheight><course>46.8</course><type>1</type></trkpt>
      <trkpt lat="39.33676306" lon="-6.21112015"><ele>1470</ele><speed>6.50</speed><time>2016-06-21T14:39:10Z</time><pdop>3.0</pdop><geoidheight>54.00</geoidheight><course>71.4</course><type>1</type></trkpt>
      <trkpt lat="39.33674285" lon="-6.21104704"><ele>1468</ele><speed>6.50</speed><time>2016-06-21T14:39:11Z</time><pdop>3.0</pdop><geoidheight>54.00</geoidheight><course>102.8</course><type>1</type></trkpt>
      <trkpt lat="39.33670131" lon="-6.21099097"><ele>1467</ele><speed>7.00</speed><time>2016-06-21T14:39:12Z</time><pdop>3.0</pdop><geoidheight>54.00</geoidheight><course>130.3</course><type>1</type></trkpt>
      <trkpt lat="39.33664931" lon="-6.21093958"><ele>1466</ele><speed>7.25</speed><time>2016-06-21T14:39:13Z</time><pdop>4.0</pdop><geoidheight>54.00</geoidheight><course>142.2</course><type>1</type></trkpt>
      <trkpt lat="39.3364994" lon="-6.21103783"><ele>1463</ele><speed>9.25</speed><time>2016-06-21T14:39:15Z</time><pdop>3.0</pdop><geoidheight>54.00</geoidheight><course>206.9</course><type>1</type></trkpt>
      <trkpt lat="39.33643249" lon="-6.21112936"><ele>1461</ele><speed>10.50</speed><time>2016-06-21T14:39:16Z</time><pdop>3.0</pdop><geoidheight>54.00</geoidheight><course>224.2</course><type>1</type></trkpt>
      <trkpt lat="39.33637494" lon="-6.21124451"><ele>1461</ele><speed>11.75</speed><time>2016-06-21T14:39:17Z</time><pdop>4.0</pdop><geoidheight>54.00</geoidheight><course>236.1</course><type>1</type></trkpt>
      <trkpt lat="39.33628023" lon="-6.21148958"><ele>1461</ele><speed>11.75</speed><time>2016-06-21T14:39:19Z</time><pdop>3.0</pdop><geoidheight>54.00</geoidheight><course>245.6</course><type>1</type></trkpt>
      <trkpt lat="39.33625178" lon="-6.21161687"><ele>1462</ele><speed>11.25</speed><time>2016-06-21T14:39:20Z</time><pdop>3.0</pdop><geoidheight>54.00</geoidheight><course>251.9</course><type>1</type></trkpt>
      <trkpt lat="39.33623451" lon="-6.2117374"><ele>1462</ele><speed>10.75</speed><time>2016-06-21T14:39:21Z</time><pdop>3.0</pdop><geoidheight>54.00</geoidheight><course>259.3</course><type>1</type></trkpt>
      <trkpt lat="39.33621208" lon="-6.21186018"><ele>1464</ele><speed>10.75</speed><time>2016-06-21T14:39:22Z</time><pdop>3.0</pdop><geoidheight>54.00</geoidheight><course>259.0</course><type>1</type></trkpt>
      <trkpt lat="39.33618422" lon="-6.21197217"><ele>1464</ele><speed>10.00</speed><time>2016-06-21T14:39:23Z</time><pdop>3.0</pdop><geoidheight>54.00</geoidheight><course>253.2</course><type>1</type></trkpt>
      <trkpt lat="39.33611394" lon="-6.21216186"><ele>1465</ele><speed>9.00</speed><time>2016-06-21T14:39:25Z</time><pdop>3.0</pdop><geoidheight>54.00</geoidheight><course>245.2</course><type>1</type></trkpt>
      <trkpt lat="39.3360841" lon="-6.21225543"><ele>1466</ele><speed>8.75</speed><time>2016-06-21T14:39:26Z</time><pdop>3.0</pdop><geoidheight>54.00</geoidheight><course>247.8</course><type>1</type></trkpt>
      <trkpt lat="39.33604903" lon="-6.2124229"><ele>1468</ele><speed>7.50</speed><time>2016-06-21T14:39:28Z</time><pdop>3.0</pdop><geoidheight>54.00</geoidheight><course>255.9</course><type>1</type></trkpt>
      <trkpt lat="39.33603164" lon="-6.21250586"><ele>1467</ele><speed>7.25</speed><time>2016-06-21T14:39:29Z</time><pdop>3.0</pdop><geoidheight>54.00</geoidheight><course>255.9</course><type>1</type></trkpt>
      <trkpt lat="39.33601042" lon="-6.21258823"><ele>1467</ele><speed>7.50</speed><time>2016-06-21T14:39:30Z</time><pdop>3.0</pdop><geoidheight>54.00</geoidheight><course>252.9</course><type>1</type></trkpt>
      <trkpt lat="39.33598863" lon="-6.2127699"><ele>1467</ele><speed>8.25</speed><time>2016-06-21T14:39:32Z</time><pdop>3.0</pdop><geoidheight>54.00</geoidheight><course>264.7</course><type>1</type></trkpt>
      <trkpt lat="39.33600518" lon="-6.21287891"><ele>1466</ele><speed>9.50</speed><time>2016-06-21T14:39:33Z</time><pdop>3.0</pdop><geoidheight>54.00</geoidheight><course>279.7</course><type>1</type></trkpt>
      <trkpt lat="39.33611053" lon="-6.2131102"><ele>1465</ele><speed>11.75</speed><time>2016-06-21T14:39:35Z</time><pdop>4.0</pdop><geoidheight>54.00</geoidheight><course>303.3</course><type>1</type></trkpt>
      <trkpt lat="39.33620394" lon="-6.2131978"><ele>1464</ele><speed>12.50</speed><time>2016-06-21T14:39:36Z</time><pdop>3.0</pdop><geoidheight>54.00</geoidheight><course>319.2</course><type>1</type></trkpt>
      <trkpt lat="39.33629986" lon="-6.2132591"><ele>1464</ele><speed>12.00</speed><time>2016-06-21T14:39:37Z</time><pdop>3.0</pdop><geoidheight>54.00</geoidheight><course>333.1</course><type>1</type></trkpt>
      <trkpt lat="39.33650173" lon="-6.21325798"><ele>1463</ele><speed>11.00</speed><time>2016-06-21T14:39:39Z</time><pdop>3.0</pdop><geoidheight>54.00</geoidheight><course>6.2</course><type>1</type></trkpt>
      <trkpt lat="39.33667794" lon="-6.21315868"><ele>1462</ele><speed>10.50</speed><time>2016-06-21T14:39:41Z</time><pdop>3.0</pdop><geoidheight>54.00</geoidheight><course>23.7</course><type>1</type></trkpt>
      <trkpt lat="39.336763499999996" lon="-6.21311355"><ele>1462</ele><speed>10.25</speed><time>2016-06-21T14:39:42Z</time><pdop>4.0</pdop><geoidheight>54.00</geoidheight><course>21.0</course><type>1</type></trkpt>
      <trkpt lat="39.33685549" lon="-6.21307835"><ele>1462</ele><speed>10.50</speed><time>2016-06-21T14:39:43Z</time><pdop>4.0</pdop><geoidheight>54.00</geoidheight><course>17.3</course><type>1</type></trkpt>
      <trkpt lat="39.33704083" lon="-6.21300213"><ele>1461</ele><speed>11.00</speed><time>2016-06-21T14:39:45Z</time><pdop>4.0</pdop><geoidheight>54.00</geoidheight><course>18.2</course><type>1</type></trkpt>
      <trkpt lat="39.33713374" lon="-6.21295748"><ele>1462</ele><speed>11.25</speed><time>2016-06-21T14:39:46Z</time><pdop>4.0</pdop><geoidheight>54.00</geoidheight><course>20.1</course><type>1</type></trkpt>
      <trkpt lat="39.3372263" lon="-6.21291582"><ele>1462</ele><speed>11.00</speed><time>2016-06-21T14:39:47Z</time><pdop>4.0</pdop><geoidheight>54.00</geoidheight><course>19.9</course><type>1</type></trkpt>
      <trkpt lat="39.33741201" lon="-6.21283101"><ele>1463</ele><speed>10.75</speed><time>2016-06-21T14:39:49Z</time><pdop>4.0</pdop><geoidheight>54.00</geoidheight><course>19.7</course><type>1</type></trkpt>
      <trkpt lat="39.33749896" lon="-6.21278417"><ele>1463</ele><speed>10.50</speed><time>2016-06-21T14:39:50Z</time><pdop>4.0</pdop><geoidheight>54.00</geoidheight><course>21.7</course><type>1</type></trkpt>
      <trkpt lat="39.33769312" lon="-6.21267315"><ele>1462</ele><speed>11.75</speed><time>2016-06-21T14:39:52Z</time><pdop>4.0</pdop><geoidheight>54.00</geoidheight><course>24.4</course><type>1</type></trkpt>
      <trkpt lat="39.33789829" lon="-6.21257615"><ele>1463</ele><speed>12.00</speed><time>2016-06-21T14:39:54Z</time><pdop>4.0</pdop><geoidheight>54.00</geoidheight><course>18.6</course><type>1</type></trkpt>
      <trkpt lat="39.33798095" lon="-6.21253489"><ele>1464</ele><speed>10.25</speed><time>2016-06-21T14:39:55Z</time><pdop>3.0</pdop><geoidheight>54.00</geoidheight><course>21.0</course><type>1</type></trkpt>
      <trkpt lat="39.33804643" lon="-6.21248778"><ele>1464</ele><speed>9.00</speed><time>2016-06-21T14:39:56Z</time><pdop>4.0</pdop><geoidheight>54.00</geoidheight><course>28.4</course><type>1</type></trkpt>
      <trkpt lat="39.33818345" lon="-6.21233724"><ele>1463</ele><speed>10.25</speed><time>2016-06-21T14:39:58Z</time><pdop>4.0</pdop><geoidheight>54.00</geoidheight><course>41.2</course><type>1</type></trkpt>
      <trkpt lat="39.33832509" lon="-6.21218978"><ele>1467</ele><speed>9.50</speed><time>2016-06-21T14:40:00Z</time><pdop>3.0</pdop><geoidheight>54.00</geoidheight><course>36.5</course><type>1</type></trkpt>
      <trkpt lat="39.33846301" lon="-6.21211038"><ele>1470</ele><speed>8.75</speed><time>2016-06-21T14:40:02Z</time><pdop>4.0</pdop><geoidheight>54.00</geoidheight><course>22.5</course><type>1</type></trkpt>
      <trkpt lat="39.33854678" lon="-6.21210613"><ele>1472</ele><speed>9.25</speed><time>2016-06-21T14:40:03Z</time><pdop>3.0</pdop><geoidheight>54.00</geoidheight><course>6.5</course><type>1</type></trkpt>
      <trkpt lat="39.33872822" lon="-6.212168"><ele>1474</ele><speed>10.25</speed><time>2016-06-21T14:40:05Z</time><pdop>3.0</pdop><geoidheight>54.00</geoidheight><course>340.1</course><type>1</type></trkpt>
      <trkpt lat="39.33881156" lon="-6.21223338"><ele>1475</ele><speed>10.50</speed><time>2016-06-21T14:40:06Z</time><pdop>3.0</pdop><geoidheight>54.00</geoidheight><course>330.6</course><type>1</type></trkpt>
      <trkpt lat="39.33896151" lon="-6.21237381"><ele>1476</ele><speed>10.25</speed><time>2016-06-21T14:40:08Z</time><pdop>4.0</pdop><geoidheight>54.00</geoidheight><course>322.2</course><type>1</type></trkpt>
      <trkpt lat="39.33902647" lon="-6.21245976"><ele>1476</ele><speed>10.75</speed><time>2016-06-21T14:40:09Z</time><pdop>4.0</pdop><geoidheight>54.00</geoidheight><course>315.7</course><type>1</type></trkpt>
      <trkpt lat="39.3391318" lon="-6.21270913"><ele>1477</ele><speed>12.25</speed><time>2016-06-21T14:40:11Z</time><pdop>4.0</pdop><geoidheight>54.00</geoidheight><course>297.5</course><type>1</type></trkpt>
      <trkpt lat="39.33914682" lon="-6.21284538"><ele>1478</ele><speed>11.75</speed><time>2016-06-21T14:40:12Z</time><pdop>4.0</pdop><geoidheight>54.00</geoidheight><course>285.4</course><type>1</type></trkpt>
      <trkpt lat="39.33909949" lon="-6.213098"><ele>1482</ele><speed>10.00</speed><time>2016-06-21T14:40:14Z</time><pdop>4.0</pdop><geoidheight>54.00</geoidheight><course>259.4</course><type>1</type></trkpt>
      <trkpt lat="39.33907397" lon="-6.21318259"><ele>1486</ele><speed>8.25</speed><time>2016-06-21T14:40:15Z</time><pdop>3.0</pdop><geoidheight>54.00</geoidheight><course>250.9</course><type>1</type></trkpt>
      <trkpt lat="39.33903492" lon="-6.21326899"><ele>1487</ele><speed>8.00</speed><time>2016-06-21T14:40:16Z</time><pdop>3.0</pdop><geoidheight>54.00</geoidheight><course>241.8</course><type>1</type></trkpt>
      <trkpt lat="39.33893572" lon="-6.2133771"><ele>1490</ele><speed>6.75</speed><time>2016-06-21T14:40:18Z</time><pdop>3.0</pdop><geoidheight>54.00</geoidheight><course>212.1</course><type>1</type></trkpt>
      <trkpt lat="39.33881808" lon="-6.21330556"><ele>1492</ele><speed>5.25</speed><time>2016-06-21T14:40:21Z</time><pdop>3.0</pdop><geoidheight>54.00</geoidheight><course>126.3</course><type>1</type></trkpt>
      <trkpt lat="39.33881974" lon="-6.21323546"><ele>1493</ele><speed>5.75</speed><time>2016-06-21T14:40:22Z</time><pdop>3.0</pdop><geoidheight>54.00</geoidheight><course>94.0</course><type>1</type></trkpt>
      <trkpt lat="39.33889919" lon="-6.21309712"><ele>1495</ele><speed>8.00</speed><time>2016-06-21T14:40:24Z</time><pdop>3.0</pdop><geoidheight>54.00</geoidheight><course>49.7</course><type>1</type></trkpt>
      <trkpt lat="39.33896525" lon="-6.21303259"><ele>1495</ele><speed>9.00</speed><time>2016-06-21T14:40:25Z</time><pdop>3.0</pdop><geoidheight>54.00</geoidheight><course>35.6</course><type>1</type></trkpt>
      <trkpt lat="39.33913531" lon="-6.21297598"><ele>1497</ele><speed>10.00</speed><time>2016-06-21T14:40:27Z</time><pdop>3.0</pdop><geoidheight>54.00</geoidheight><course>9.3</course><type>1</type></trkpt>
      <trkpt lat="39.33923603" lon="-6.21298619"><ele>1499</ele><speed>11.00</speed><time>2016-06-21T14:40:28Z</time><pdop>3.0</pdop><geoidheight>54.00</geoidheight><course>356.9</course><type>1</type></trkpt>
      <trkpt lat="39.33943687" lon="-6.21310682"><ele>1501</ele><speed>12.50</speed><time>2016-06-21T14:40:30Z</time><pdop>3.0</pdop><geoidheight>54.00</geoidheight><course>328.8</course><type>1</type></trkpt>
      <trkpt lat="39.33951082" lon="-6.21321127"><ele>1503</ele><speed>12.50</speed><time>2016-06-21T14:40:31Z</time><pdop>3.0</pdop><geoidheight>54.00</geoidheight><course>314.5</course><type>1</type></trkpt>
      <trkpt lat="39.3395941" lon="-6.21344851"><ele>1506</ele><speed>11.25</speed><time>2016-06-21T14:40:33Z</time><pdop>4.0</pdop><geoidheight>54.00</geoidheight><course>290.7</course><type>1</type></trkpt>
      <trkpt lat="39.33960761" lon="-6.21356415"><ele>1507</ele><speed>10.25</speed><time>2016-06-21T14:40:34Z</time><pdop>4.0</pdop><geoidheight>54.00</geoidheight><course>280.8</course><type>1</type></trkpt>
      <trkpt lat="39.3396031" lon="-6.21367985"><ele>1509</ele><speed>9.75</speed><time>2016-06-21T14:40:35Z</time><pdop>4.0</pdop><geoidheight>54.00</geoidheight><course>268.7</course><type>1</type></trkpt>
      <trkpt lat="39.33954203" lon="-6.21387262"><ele>1512</ele><speed>8.50</speed><time>2016-06-21T14:40:37Z</time><pdop>3.0</pdop><geoidheight>54.00</geoidheight><course>242.7</course><type>1</type></trkpt>
      <trkpt lat="39.33944285" lon="-6.21395483"><ele>1515</ele><speed>6.25</speed><time>2016-06-21T14:40:39Z</time><pdop>3.0</pdop><geoidheight>54.00</geoidheight><course>201.9</course><type>1</type></trkpt>
      <trkpt lat="39.33936687" lon="-6.21391233"><ele>1516</ele><speed>4.75</speed><time>2016-06-21T14:40:41Z</time><pdop>3.0</pdop><geoidheight>54.00</geoidheight><course>148.2</course><type>1</type></trkpt>
      <trkpt lat="39.33934826" lon="-6.21380652"><ele>1517</ele><speed>5.00</speed><time>2016-06-21T14:40:43Z</time><pdop>4.0</pdop><geoidheight>54.00</geoidheight><course>96.7</course><type>1</type></trkpt>
      <trkpt lat="39.33943337" lon="-6.21360184"><ele>1519</ele><speed>7.50</speed><time>2016-06-21T14:40:46Z</time><pdop>3.0</pdop><geoidheight>54.00</geoidheight><course>50.5</course><type>1</type></trkpt>
      <trkpt lat="39.33950017" lon="-6.21354479"><ele>1520</ele><speed>8.75</speed><time>2016-06-21T14:40:47Z</time><pdop>3.0</pdop><geoidheight>54.00</geoidheight><course>34.0</course><type>1</type></trkpt>
      <trkpt lat="39.33958477" lon="-6.21350242"><ele>1522</ele><speed>10.00</speed><time>2016-06-21T14:40:48Z</time><pdop>3.0</pdop><geoidheight>54.00</geoidheight><course>19.5</course><type>1</type></trkpt>
      <trkpt lat="39.33968399" lon="-6.21347449"><ele>1523</ele><speed>10.75</speed><time>2016-06-21T14:40:49Z</time><pdop>3.0</pdop><geoidheight>54.00</geoidheight><course>10.1</course><type>1</type></trkpt>
      <trkpt lat="39.33978833" lon="-6.21347404"><ele>1525</ele><speed>11.50</speed><time>2016-06-21T14:40:50Z</time><pdop>4.0</pdop><geoidheight>54.00</geoidheight><course>0.9</course><type>1</type></trkpt>
      <trkpt lat="39.33998367" lon="-6.21353456"><ele>1528</ele><speed>11.00</speed><time>2016-06-21T14:40:52Z</time><pdop>4.0</pdop><geoidheight>54.00</geoidheight><course>343.0</course><type>1</type></trkpt>
      <trkpt lat="39.34013828" lon="-6.2136495"><ele>1532</ele><speed>10.00</speed><time>2016-06-21T14:40:54Z</time><pdop>3.0</pdop><geoidheight>54.00</geoidheight><course>326.6</course><type>1</type></trkpt>
      <trkpt lat="39.34020826" lon="-6.21373335"><ele>1532</ele><speed>10.50</speed><time>2016-06-21T14:40:55Z</time><pdop>3.0</pdop><geoidheight>54.00</geoidheight><course>317.3</course><type>1</type></trkpt>
      <trkpt lat="39.34030391" lon="-6.213968"><ele>1533</ele><speed>11.75</speed><time>2016-06-21T14:40:57Z</time><pdop>4.0</pdop><geoidheight>54.00</geoidheight><course>293.3</course><type>1</type></trkpt>
      <trkpt lat="39.34032147" lon="-6.21410868"><ele>1534</ele><speed>11.75</speed><time>2016-06-21T14:40:58Z</time><pdop>4.0</pdop><geoidheight>54.00</geoidheight><course>282.3</course><type>1</type></trkpt>
      <trkpt lat="39.34030317" lon="-6.21423087"><ele>1535</ele><speed>10.50</speed><time>2016-06-21T14:40:59Z</time><pdop>4.0</pdop><geoidheight>54.00</geoidheight><course>266.5</course><type>1</type></trkpt>
      <trkpt lat="39.34019477" lon="-6.21437522"><ele>1543</ele><speed>6.75</speed><time>2016-06-21T14:41:01Z</time><pdop>3.0</pdop><geoidheight>54.00</geoidheight><course>229.2</course><type>1</type></trkpt>
      <trkpt lat="39.34010253" lon="-6.21454946"><ele>1547</ele><speed>6.75</speed><time>2016-06-21T14:41:04Z</time><pdop>3.0</pdop><geoidheight>54.00</geoidheight><course>239.8</course><type>1</type></trkpt>
      <trkpt lat="39.34007586" lon="-6.21464187"><ele>1548</ele><speed>8.25</speed><time>2016-06-21T14:41:05Z</time><pdop>3.0</pdop><geoidheight>54.00</geoidheight><course>249.8</course><type>1</type></trkpt>
      <trkpt lat="39.34007971" lon="-6.21487932"><ele>1550</ele><speed>10.50</speed><time>2016-06-21T14:41:07Z</time><pdop>4.0</pdop><geoidheight>54.00</geoidheight><course>278.3</course><type>1</type></trkpt>
      <trkpt lat="39.34018585" lon="-6.21510125"><ele>1551</ele><speed>11.75</speed><time>2016-06-21T14:41:09Z</time><pdop>4.0</pdop><geoidheight>54.00</geoidheight><course>304.5</course><type>1</type></trkpt>
      <trkpt lat="39.34033696" lon="-6.21515261"><ele>1551</ele><speed>14.00</speed><time>2016-06-21T14:41:10Z</time><pdop>3.0</pdop><geoidheight>54.00</geoidheight><course>331.9</course><type>1</type></trkpt>
      <trkpt lat="39.34046191" lon="-6.21519484"><ele>1552</ele><speed>14.00</speed><time>2016-06-21T14:41:11Z</time><pdop>3.0</pdop><geoidheight>54.00</geoidheight><course>343.7</course><type>1</type></trkpt>
      <trkpt lat="39.34057721" lon="-6.2152174"><ele>1555</ele><speed>13.00</speed><time>2016-06-21T14:41:12Z</time><pdop>3.0</pdop><geoidheight>54.00</geoidheight><course>350.9</course><type>1</type></trkpt>
      <trkpt lat="39.34078742" lon="-6.21525761"><ele>1562</ele><speed>11.50</speed><time>2016-06-21T14:41:14Z</time><pdop>3.0</pdop><geoidheight>54.00</geoidheight><course>352.4</course><type>1</type></trkpt>
      <trkpt lat="39.34087652" lon="-6.21527635"><ele>1566</ele><speed>10.25</speed><time>2016-06-21T14:41:15Z</time><pdop>3.0</pdop><geoidheight>54.00</geoidheight><course>354.6</course><type>1</type></trkpt>
      <trkpt lat="39.34102583" lon="-6.21523432"><ele>1568</ele><speed>8.25</speed><time>2016-06-21T14:41:17Z</time><pdop>3.0</pdop><geoidheight>54.00</geoidheight><course>20.9</course><type>1</type></trkpt>
      <trkpt lat="39.34107468" lon="-6.21516601"><ele>1569</ele><speed>8.00</speed><time>2016-06-21T14:41:18Z</time><pdop>3.0</pdop><geoidheight>54.00</geoidheight><course>45.2</course><type>1</type></trkpt>
      <trkpt lat="39.34109416" lon="-6.21508551"><ele>1570</ele><speed>7.50</speed><time>2016-06-21T14:41:19Z</time><pdop>3.0</pdop><geoidheight>54.00</geoidheight><course>71.4</course><type>1</type></trkpt>
      <trkpt lat="39.34104263" lon="-6.21495304"><ele>1573</ele><speed>6.25</speed><time>2016-06-21T14:41:21Z</time><pdop>3.0</pdop><geoidheight>54.00</geoidheight><course>128.0</course><type>1</type></trkpt>
      <trkpt lat="39.34095634" lon="-6.21491556"><ele>1576</ele><speed>4.75</speed><time>2016-06-21T14:41:23Z</time><pdop>3.0</pdop><geoidheight>54.00</geoidheight><course>166.6</course><type>1</type></trkpt>
      <trkpt lat="39.34084764" lon="-6.21496441"><ele>1578</ele><speed>6.75</speed><time>2016-06-21T14:41:25Z</time><pdop>3.0</pdop><geoidheight>54.00</geoidheight><course>203.1</course><type>1</type></trkpt>
      <trkpt lat="39.34074671" lon="-6.21508425"><ele>1582</ele><speed>7.75</speed><time>2016-06-21T14:41:27Z</time><pdop>3.0</pdop><geoidheight>54.00</geoidheight><course>228.2</course><type>1</type></trkpt>
      <trkpt lat="39.340717" lon="-6.21515546"><ele>1584</ele><speed>7.25</speed><time>2016-06-21T14:41:28Z</time><pdop>3.0</pdop><geoidheight>54.00</geoidheight><course>241.8</course><type>1</type></trkpt>
      <trkpt lat="39.34068473" lon="-6.21532624"><ele>1586</ele><speed>7.75</speed><time>2016-06-21T14:41:30Z</time><pdop>3.0</pdop><geoidheight>54.00</geoidheight><course>259.5</course><type>1</type></trkpt>
      <trkpt lat="39.34068286" lon="-6.21543837"><ele>1587</ele><speed>9.25</speed><time>2016-06-21T14:41:31Z</time><pdop>4.0</pdop><geoidheight>54.00</geoidheight><course>267.4</course><type>1</type></trkpt>
      <trkpt lat="39.34070234" lon="-6.21557136"><ele>1587</ele><speed>11.25</speed><time>2016-06-21T14:41:32Z</time><pdop>3.0</pdop><geoidheight>54.00</geoidheight><course>279.9</course><type>1</type></trkpt>
      <trkpt lat="39.34080971" lon="-6.2158317"><ele>1590</ele><speed>13.00</speed><time>2016-06-21T14:41:34Z</time><pdop>3.0</pdop><geoidheight>54.00</geoidheight><course>301.1</course><type>1</type></trkpt>
      <trkpt lat="39.34095292" lon="-6.21604638"><ele>1595</ele><speed>12.00</speed><time>2016-06-21T14:41:36Z</time><pdop>3.0</pdop><geoidheight>54.00</geoidheight><course>312.5</course><type>1</type></trkpt>
      <trkpt lat="39.34103437" lon="-6.21613607"><ele>1596</ele><speed>12.00</speed><time>2016-06-21T14:41:37Z</time><pdop>3.0</pdop><geoidheight>54.00</geoidheight><course>318.7</course><type>1</type></trkpt>
      <trkpt lat="39.34123585" lon="-6.21625764"><ele>1599</ele><speed>12.50</speed><time>2016-06-21T14:41:39Z</time><pdop>3.0</pdop><geoidheight>54.00</geoidheight><course>338.6</course><type>1</type></trkpt>
      <trkpt lat="39.34134767" lon="-6.21627981"><ele>1600</ele><speed>12.50</speed><time>2016-06-21T14:41:40Z</time><pdop>3.0</pdop><geoidheight>54.00</geoidheight><course>348.9</course><type>1</type></trkpt>
      <trkpt lat="39.34154995" lon="-6.21626866"><ele>1605</ele><speed>10.75</speed><time>2016-06-21T14:41:42Z</time><pdop>3.0</pdop><geoidheight>54.00</geoidheight><course>5.8</course><type>1</type></trkpt>
      <trkpt lat="39.34162432" lon="-6.21623677"><ele>1608</ele><speed>8.75</speed><time>2016-06-21T14:41:43Z</time><pdop>3.0</pdop><geoidheight>54.00</geoidheight><course>16.9</course><type>1</type></trkpt>
      <trkpt lat="39.34168956" lon="-6.21615016"><ele>1613</ele><speed>4.75</speed><time>2016-06-21T14:41:45Z</time><pdop>3.0</pdop><geoidheight>54.00</geoidheight><course>59.6</course><type>1</type></trkpt>
      <trkpt lat="39.34168144" lon="-6.21605679"><ele>1615</ele><speed>4.00</speed><time>2016-06-21T14:41:47Z</time><pdop>3.0</pdop><geoidheight>54.00</geoidheight><course>106.6</course><type>1</type></trkpt>
      <trkpt lat="39.34160431" lon="-6.21602596"><ele>1617</ele><speed>5.00</speed><time>2016-06-21T14:41:49Z</time><pdop>3.0</pdop><geoidheight>54.00</geoidheight><course>170.4</course><type>1</type></trkpt>
      <trkpt lat="39.34147657" lon="-6.21608391"><ele>1619</ele><speed>8.00</speed><time>2016-06-21T14:41:51Z</time><pdop>3.0</pdop><geoidheight>54.00</geoidheight><course>207.1</course><type>1</type></trkpt>
      <trkpt lat="39.34142627" lon="-6.21616149"><ele>1620</ele><speed>8.75</speed><time>2016-06-21T14:41:52Z</time><pdop>3.0</pdop><geoidheight>54.00</geoidheight><course>227.9</course><type>1</type></trkpt>
      <trkpt lat="39.34139193" lon="-6.21626495"><ele>1622</ele><speed>9.75</speed><time>2016-06-21T14:41:53Z</time><pdop>3.0</pdop><geoidheight>54.00</geoidheight><course>245.9</course><type>1</type></trkpt>
      <trkpt lat="39.34137055" lon="-6.21650122"><ele>1627</ele><speed>10.25</speed><time>2016-06-21T14:41:55Z</time><pdop>3.0</pdop><geoidheight>54.00</geoidheight><course>267.0</course><type>1</type></trkpt>
      <trkpt lat="39.34137974" lon="-6.21662295"><ele>1630</ele><speed>10.50</speed><time>2016-06-21T14:41:56Z</time><pdop>3.0</pdop><geoidheight>54.00</geoidheight><course>274.1</course><type>1</type></trkpt>
      <trkpt lat="39.34140237" lon="-6.21674554"><ele>1631</ele><speed>10.75</speed><time>2016-06-21T14:41:57Z</time><pdop>3.0</pdop><geoidheight>54.00</geoidheight><course>282.6</course><type>1</type></trkpt>
      <trkpt lat="39.3415244" lon="-6.21697779"><ele>1634</ele><speed>12.50</speed><time>2016-06-21T14:41:59Z</time><pdop>3.0</pdop><geoidheight>54.00</geoidheight><course>309.5</course><type>1</type></trkpt>
      <trkpt lat="39.34162433" lon="-6.21708091"><ele>1635</ele><speed>14.00</speed><time>2016-06-21T14:42:00Z</time><pdop>3.0</pdop><geoidheight>54.00</geoidheight><course>320.8</course><type>1</type></trkpt>
      <trkpt lat="39.34174029" lon="-6.21716279"><ele>1637</ele><speed>14.50</speed><time>2016-06-21T14:42:01Z</time><pdop>3.0</pdop><geoidheight>54.00</geoidheight><course>330.0</course><type>1</type></trkpt>
      <trkpt lat="39.34195894" lon="-6.217228"><ele>1644</ele><speed>12.00</speed><time>2016-06-21T14:42:03Z</time><pdop>3.0</pdop><geoidheight>54.00</geoidheight><course>350.6</course><type>1</type></trkpt>
      <trkpt lat="39.34212797" lon="-6.21719958"><ele>1649</ele><speed>8.75</speed><time>2016-06-21T14:42:05Z</time><pdop>3.0</pdop><geoidheight>54.00</geoidheight><course>11.9</course><type>1</type></trkpt>
      <trkpt lat="39.34218724" lon="-6.2171638"><ele>1651</ele><speed>7.25</speed><time>2016-06-21T14:42:06Z</time><pdop>3.0</pdop><geoidheight>54.00</geoidheight><course>25.0</course><type>1</type></trkpt>
      <trkpt lat="39.34223686" lon="-6.2170599"><ele>1654</ele><speed>5.25</speed><time>2016-06-21T14:42:08Z</time><pdop>3.0</pdop><geoidheight>54.00</geoidheight><course>74.4</course><type>1</type></trkpt>
      <trkpt lat="39.3421821" lon="-6.21698463"><ele>1655</ele><speed>4.50</speed><time>2016-06-21T14:42:10Z</time><pdop>3.0</pdop><geoidheight>54.00</geoidheight><course>151.4</course><type>1</type></trkpt>
      <trkpt lat="39.34201231" lon="-6.21711317"><ele>1660</ele><speed>8.50</speed><time>2016-06-21T14:42:13Z</time><pdop>3.0</pdop><geoidheight>54.00</geoidheight><course>223.5</course><type>1</type></trkpt>
      <trkpt lat="39.34196957" lon="-6.21720031"><ele>1663</ele><speed>9.00</speed><time>2016-06-21T14:42:14Z</time><pdop>3.0</pdop><geoidheight>54.00</geoidheight><course>236.2</course><type>1</type></trkpt>
      <trkpt lat="39.34193026" lon="-6.21739704"><ele>1668</ele><speed>9.25</speed><time>2016-06-21T14:42:16Z</time><pdop>3.0</pdop><geoidheight>54.00</geoidheight><course>262.8</course><type>1</type></trkpt>
      <trkpt lat="39.3419564" lon="-6.2176401"><ele>1669</ele><speed>10.50</speed><time>2016-06-21T14:42:18Z</time><pdop>3.0</pdop><geoidheight>54.00</geoidheight><course>281.1</course><type>1</type></trkpt>
      <trkpt lat="39.34204177" lon="-6.21787791"><ele>1674</ele><speed>11.25</speed><time>2016-06-21T14:42:20Z</time><pdop>3.0</pdop><geoidheight>54.00</geoidheight><course>297.4</course><type>1</type></trkpt>
      <trkpt lat="39.34210814" lon="-6.21798171"><ele>1676</ele><speed>11.50</speed><time>2016-06-21T14:42:21Z</time><pdop>3.0</pdop><geoidheight>54.00</geoidheight><course>308.2</course><type>1</type></trkpt>
      <trkpt lat="39.34218712" lon="-6.21806113"><ele>1678</ele><speed>11.00</speed><time>2016-06-21T14:42:22Z</time><pdop>3.0</pdop><geoidheight>54.00</geoidheight><course>321.1</course><type>1</type></trkpt>
      <trkpt lat="39.34237083" lon="-6.21814269"><ele>1681</ele><speed>10.50</speed><time>2016-06-21T14:42:24Z</time><pdop>3.0</pdop><geoidheight>54.00</geoidheight><course>345.0</course><type>1</type></trkpt>
      <trkpt lat="39.34257152" lon="-6.21812702"><ele>1683</ele><speed>11.50</speed><time>2016-06-21T14:42:26Z</time><pdop>3.0</pdop><geoidheight>54.00</geoidheight><course>5.9</course><type>1</type></trkpt>
      <trkpt lat="39.34277171" lon="-6.21804486"><ele>1686</ele><speed>11.75</speed><time>2016-06-21T14:42:28Z</time><pdop>4.0</pdop><geoidheight>54.00</geoidheight><course>18.7</course><type>1</type></trkpt>
      <trkpt lat="39.34285907" lon="-6.21792461"><ele>1692</ele><speed>6.25</speed><time>2016-06-21T14:42:30Z</time><pdop>3.0</pdop><geoidheight>54.00</geoidheight><course>46.0</course><type>1</type></trkpt>
      <trkpt lat="39.3428173" lon="-6.2177989"><ele>1694</ele><speed>4.75</speed><time>2016-06-21T14:42:33Z</time><pdop>3.0</pdop><geoidheight>54.00</geoidheight><course>136.8</course><type>1</type></trkpt>
      <trkpt lat="39.34271122" lon="-6.2177769"><ele>1695</ele><speed>6.00</speed><time>2016-06-21T14:42:35Z</time><pdop>4.0</pdop><geoidheight>54.00</geoidheight><course>175.9</course><type>1</type></trkpt>
      <trkpt lat="39.34260559" lon="-6.21795426"><ele>1698</ele><speed>9.50</speed><time>2016-06-21T14:42:37Z</time><pdop>3.0</pdop><geoidheight>54.00</geoidheight><course>236.0</course><type>1</type></trkpt>
      <trkpt lat="39.34257304" lon="-6.2180716"><ele>1700</ele><speed>10.75</speed><time>2016-06-21T14:42:38Z</time><pdop>3.0</pdop><geoidheight>54.00</geoidheight><course>249.4</course><type>1</type></trkpt>
      <trkpt lat="39.34256773" lon="-6.21831333"><ele>1706</ele><speed>10.25</speed><time>2016-06-21T14:42:40Z</time><pdop>3.0</pdop><geoidheight>54.00</geoidheight><course>272.7</course><type>1</type></trkpt>
      <trkpt lat="39.34258592" lon="-6.21842437"><ele>1708</ele><speed>10.00</speed><time>2016-06-21T14:42:41Z</time><pdop>3.0</pdop><geoidheight>54.00</geoidheight><course>282.0</course><type>1</type></trkpt>
      <trkpt lat="39.34266459" lon="-6.21865963"><ele>1711</ele><speed>11.75</speed><time>2016-06-21T14:42:43Z</time><pdop>3.0</pdop><geoidheight>54.00</geoidheight><course>295.7</course><type>1</type></trkpt>
      <trkpt lat="39.34271952" lon="-6.21878177"><ele>1712</ele><speed>12.25</speed><time>2016-06-21T14:42:44Z</time><pdop>4.0</pdop><geoidheight>54.00</geoidheight><course>300.0</course><type>1</type></trkpt>
      <trkpt lat="39.34280445" lon="-6.2188804"><ele>1714</ele><speed>12.75</speed><time>2016-06-21T14:42:45Z</time><pdop>3.0</pdop><geoidheight>54.00</geoidheight><course>313.2</course><type>1</type></trkpt>
      <trkpt lat="39.34299399" lon="-6.21903552"><ele>1717</ele><speed>12.25</speed><time>2016-06-21T14:42:47Z</time><pdop>3.0</pdop><geoidheight>54.00</geoidheight><course>331.6</course><type>1</type></trkpt>
      <trkpt lat="39.34319853" lon="-6.21909693"><ele>1721</ele><speed>11.75</speed><time>2016-06-21T14:42:49Z</time><pdop>3.0</pdop><geoidheight>54.00</geoidheight><course>350.5</course><type>1</type></trkpt>
      <trkpt lat="39.34329916" lon="-6.21910571"><ele>1717</ele><speed>11.25</speed><time>2016-06-21T14:42:50Z</time><pdop>3.0</pdop><geoidheight>54.00</geoidheight><course>357.4</course><type>1</type></trkpt>
      <trkpt lat="39.34339747" lon="-6.21909616"><ele>1721</ele><speed>10.75</speed><time>2016-06-21T14:42:51Z</time><pdop>3.0</pdop><geoidheight>54.00</geoidheight><course>4.0</course><type>1</type></trkpt>
      <trkpt lat="39.34356511" lon="-6.21902131"><ele>1726</ele><speed>9.25</speed><time>2016-06-21T14:42:53Z</time><pdop>3.0</pdop><geoidheight>54.00</geoidheight><course>23.8</course><type>1</type></trkpt>
      <trkpt lat="39.34361255" lon="-6.21895035"><ele>1729</ele><speed>8.00</speed><time>2016-06-21T14:42:54Z</time><pdop>3.0</pdop><geoidheight>54.00</geoidheight><course>44.6</course><type>1</type></trkpt>
      <trkpt lat="39.34365184" lon="-6.21880396"><ele>1732</ele><speed>6.75</speed><time>2016-06-21T14:42:56Z</time><pdop>4.0</pdop><geoidheight>54.00</geoidheight><course>69.6</course><type>1</type></trkpt>
      <trkpt lat="39.34358454" lon="-6.21875555"><ele>1732</ele><speed>5.75</speed><time>2016-06-21T14:42:57Z</time><pdop>3.0</pdop><geoidheight>54.00</geoidheight><course>124.6</course><type>1</type></trkpt>
      <trkpt lat="39.34348515" lon="-6.21872389"><ele>1734</ele><speed>6.00</speed><time>2016-06-21T14:42:59Z</time><pdop>3.0</pdop><geoidheight>54.00</geoidheight><course>178.1</course><type>1</type></trkpt>
      <trkpt lat="39.34342388" lon="-6.21876707"><ele>1734</ele><speed>7.75</speed><time>2016-06-21T14:43:00Z</time><pdop>3.0</pdop><geoidheight>54.00</geoidheight><course>206.9</course><type>1</type></trkpt>
      <trkpt lat="39.34336332" lon="-6.21885149"><ele>1735</ele><speed>9.50</speed><time>2016-06-21T14:43:01Z</time><pdop>3.0</pdop><geoidheight>54.00</geoidheight><course>225.5</course><type>1</type></trkpt>
      <trkpt lat="39.34328219" lon="-6.21906893"><ele>1737</ele><speed>10.75</speed><time>2016-06-21T14:43:03Z</time><pdop>4.0</pdop><geoidheight>54.00</geoidheight><course>248.6</course><type>1</type></trkpt>
      <trkpt lat="39.34327859" lon="-6.2191972699999996"><ele>1738</ele><speed>10.75</speed><time>2016-06-21T14:43:04Z</time><pdop>3.0</pdop><geoidheight>54.00</geoidheight><course>264.0</course><type>1</type></trkpt>
      <trkpt lat="39.34328838" lon="-6.21933272"><ele>1739</ele><speed>11.50</speed><time>2016-06-21T14:43:05Z</time><pdop>3.0</pdop><geoidheight>54.00</geoidheight><course>274.3</course><type>1</type></trkpt>
      <trkpt lat="39.34334967" lon="-6.21959425"><ele>1742</ele><speed>12.00</speed><time>2016-06-21T14:43:07Z</time><pdop>3.0</pdop><geoidheight>54.00</geoidheight><course>291.8</course><type>1</type></trkpt>
      <trkpt lat="39.34341471" lon="-6.21971233"><ele>1743</ele><speed>12.50</speed><time>2016-06-21T14:43:08Z</time><pdop>3.0</pdop><geoidheight>54.00</geoidheight><course>304.5</course><type>1</type></trkpt>
      <trkpt lat="39.34360065" lon="-6.21990443"><ele>1745</ele><speed>13.25</speed><time>2016-06-21T14:43:10Z</time><pdop>3.0</pdop><geoidheight>54.00</geoidheight><course>323.1</course><type>1</type></trkpt>
      <trkpt lat="39.34369391" lon="-6.21998593"><ele>1747</ele><speed>12.50</speed><time>2016-06-21T14:43:11Z</time><pdop>3.0</pdop><geoidheight>54.00</geoidheight><course>325.9</course><type>1</type></trkpt>
      <trkpt lat="39.34386631" lon="-6.22013639"><ele>1751</ele><speed>11.50</speed><time>2016-06-21T14:43:13Z</time><pdop>3.0</pdop><geoidheight>54.00</geoidheight><course>325.2</course><type>1</type></trkpt>
      <trkpt lat="39.34394532" lon="-6.22021284"><ele>1752</ele><speed>11.00</speed><time>2016-06-21T14:43:14Z</time><pdop>4.0</pdop><geoidheight>54.00</geoidheight><course>322.8</course><type>1</type></trkpt>
      <trkpt lat="39.34410105" lon="-6.22034052"><ele>1755</ele><speed>10.25</speed><time>2016-06-21T14:43:16Z</time><pdop>3.0</pdop><geoidheight>54.00</geoidheight><course>331.4</course><type>1</type></trkpt>
      <trkpt lat="39.34426793" lon="-6.22036365"><ele>1756</ele><speed>9.00</speed><time>2016-06-21T14:43:18Z</time><pdop>3.0</pdop><geoidheight>54.00</geoidheight><course>359.5</course><type>1</type></trkpt>
      <trkpt lat="39.34434158" lon="-6.2203382"><ele>1757</ele><speed>8.50</speed><time>2016-06-21T14:43:19Z</time><pdop>3.0</pdop><geoidheight>54.00</geoidheight><course>13.9</course><type>1</type></trkpt>
      <trkpt lat="39.34440311" lon="-6.22029573"><ele>1759</ele><speed>7.75</speed><time>2016-06-21T14:43:20Z</time><pdop>4.0</pdop><geoidheight>54.00</geoidheight><course>26.5</course><type>1</type></trkpt>
      <trkpt lat="39.34445173" lon="-6.22018764"><ele>1764</ele><speed>5.25</speed><time>2016-06-21T14:43:22Z</time><pdop>3.0</pdop><geoidheight>54.00</geoidheight><course>67.0</course><type>1</type></trkpt>
      <trkpt lat="39.34443996" lon="-6.22009916"><ele>1767</ele><speed>4.00</speed><time>2016-06-21T14:43:24Z</time><pdop>4.0</pdop><geoidheight>54.00</geoidheight><course>112.4</course><type>1</type></trkpt>
      <trkpt lat="39.34436892" lon="-6.2200623"><ele>1771</ele><speed>4.25</speed><time>2016-06-21T14:43:26Z</time><pdop>3.0</pdop><geoidheight>54.00</geoidheight><course>168.7</course><type>1</type></trkpt>
      <trkpt lat="39.34425896" lon="-6.22010723"><ele>1774</ele><speed>7.25</speed><time>2016-06-21T14:43:28Z</time><pdop>3.0</pdop><geoidheight>54.00</geoidheight><course>202.1</course><type>1</type></trkpt>
      <trkpt lat="39.34419367" lon="-6.22016132"><ele>1776</ele><speed>8.75</speed><time>2016-06-21T14:43:29Z</time><pdop>3.0</pdop><geoidheight>54.00</geoidheight><course>211.7</course><type>1</type></trkpt>
      <trkpt lat="39.34409165" lon="-6.22034078"><ele>1778</ele><speed>9.50</speed><time>2016-06-21T14:43:31Z</time><pdop>3.0</pdop><geoidheight>54.00</geoidheight><course>237.9</course><type>1</type></trkpt>
      <trkpt lat="39.34406546" lon="-6.22044714"><ele>1780</ele><speed>9.75</speed><time>2016-06-21T14:43:32Z</time><pdop>3.0</pdop><geoidheight>54.00</geoidheight><course>252.3</course><type>1</type></trkpt>
      <trkpt lat="39.34405428" lon="-6.22056612"><ele>1782</ele><speed>10.25</speed><time>2016-06-21T14:43:33Z</time><pdop>3.0</pdop><geoidheight>54.00</geoidheight><course>262.7</course><type>1</type></trkpt>
      <trkpt lat="39.34408267" lon="-6.22083018"><ele>1782</ele><speed>11.50</speed><time>2016-06-21T14:43:35Z</time><pdop>3.0</pdop><geoidheight>54.00</geoidheight><course>280.3</course><type>1</type></trkpt>
      <trkpt lat="39.34411759" lon="-6.22096545"><ele>1784</ele><speed>12.00</speed><time>2016-06-21T14:43:36Z</time><pdop>3.0</pdop><geoidheight>54.00</geoidheight><course>287.7</course><type>1</type></trkpt>
      <trkpt lat="39.34416247" lon="-6.22109083"><ele>1785</ele><speed>12.00</speed><time>2016-06-21T14:43:37Z</time><pdop>4.0</pdop><geoidheight>54.00</geoidheight><course>294.6</course><type>1</type></trkpt>
      <trkpt lat="39.34421718" lon="-6.22120768"><ele>1785</ele><speed>11.75</speed><time>2016-06-21T14:43:38Z</time><pdop>4.0</pdop><geoidheight>54.00</geoidheight><course>299.9</course><type>1</type></trkpt>
      <trkpt lat="39.34435053" lon="-6.22142296"><ele>1787</ele><speed>12.25</speed><time>2016-06-21T14:43:40Z</time><pdop>3.0</pdop><geoidheight>54.00</geoidheight><course>311.7</course><type>1</type></trkpt>
      <trkpt lat="39.34443306" lon="-6.221508"><ele>1789</ele><speed>11.75</speed><time>2016-06-21T14:43:41Z</time><pdop>4.0</pdop><geoidheight>54.00</geoidheight><course>320.8</course><type>1</type></trkpt>
      <trkpt lat="39.34452389" lon="-6.221548"><ele>1789</ele><speed>10.75</speed><time>2016-06-21T14:43:42Z</time><pdop>3.0</pdop><geoidheight>54.00</geoidheight><course>336.5</course><type>1</type></trkpt>
      <trkpt lat="39.34460632" lon="-6.2215604"><ele>1790</ele><speed>9.50</speed><time>2016-06-21T14:43:43Z</time><pdop>3.0</pdop><geoidheight>54.00</geoidheight><course>351.0</course><type>1</type></trkpt>
      <trkpt lat="39.34476928" lon="-6.22151819"><ele>1793</ele><speed>9.25</speed><time>2016-06-21T14:43:45Z</time><pdop>4.0</pdop><geoidheight>54.00</geoidheight><course>14.1</course><type>1</type></trkpt>
      <trkpt lat="39.34484908" lon="-6.22149282"><ele>1795</ele><speed>9.25</speed><time>2016-06-21T14:43:46Z</time><pdop>4.0</pdop><geoidheight>54.00</geoidheight><course>14.1</course><type>1</type></trkpt>
      <trkpt lat="39.34499679" lon="-6.22146764"><ele>1801</ele><speed>8.00</speed><time>2016-06-21T14:43:48Z</time><pdop>4.0</pdop><geoidheight>54.00</geoidheight><course>4.7</course><type>1</type></trkpt>
      <trkpt lat="39.34510026" lon="-6.22141677"><ele>1806</ele><speed>5.75</speed><time>2016-06-21T14:43:50Z</time><pdop>4.0</pdop><geoidheight>54.00</geoidheight><course>26.7</course><type>1</type></trkpt>
      <trkpt lat="39.34504596" lon="-6.22123675"><ele>1808</ele><speed>7.50</speed><time>2016-06-21T14:43:53Z</time><pdop>3.0</pdop><geoidheight>54.00</geoidheight><course>137.9</course><type>1</type></trkpt>
      <trkpt lat="39.34496595" lon="-6.22122316"><ele>1812</ele><speed>8.25</speed><time>2016-06-21T14:43:54Z</time><pdop>3.0</pdop><geoidheight>54.00</geoidheight><course>169.4</course><type>1</type></trkpt>
      <trkpt lat="39.34484818" lon="-6.22132345"><ele>1821</ele><speed>7.75</speed><time>2016-06-21T14:43:56Z</time><pdop>3.0</pdop><geoidheight>54.00</geoidheight><course>219.9</course><type>1</type></trkpt>
      <trkpt lat="39.3448079" lon="-6.22139754"><ele>1823</ele><speed>7.75</speed><time>2016-06-21T14:43:57Z</time><pdop>3.0</pdop><geoidheight>54.00</geoidheight><course>232.2</course><type>1</type></trkpt>
      <trkpt lat="39.3447677" lon="-6.22148006"><ele>1824</ele><speed>8.25</speed><time>2016-06-21T14:43:58Z</time><pdop>3.0</pdop><geoidheight>54.00</geoidheight><course>235.9</course><type>1</type></trkpt>
      <trkpt lat="39.34468356" lon="-6.22166542"><ele>1825</ele><speed>9.25</speed><time>2016-06-21T14:44:00Z</time><pdop>4.0</pdop><geoidheight>54.00</geoidheight><course>240.7</course><type>1</type></trkpt>
      <trkpt lat="39.34465459" lon="-6.22180003"><ele>1827</ele><speed>11.75</speed><time>2016-06-21T14:44:01Z</time><pdop>3.0</pdop><geoidheight>54.00</geoidheight><course>253.2</course><type>1</type></trkpt>
      <trkpt lat="39.34465397" lon="-6.22194141"><ele>1828</ele><speed>12.25</speed><time>2016-06-21T14:44:02Z</time><pdop>3.0</pdop><geoidheight>54.00</geoidheight><course>268.2</course><type>1</type></trkpt>
      <trkpt lat="39.34470995" lon="-6.22221022"><ele>1830</ele><speed>12.25</speed><time>2016-06-21T14:44:04Z</time><pdop>4.0</pdop><geoidheight>54.00</geoidheight><course>289.5</course><type>1</type></trkpt>
      <trkpt lat="39.34475364" lon="-6.22233392"><ele>1832</ele><speed>12.00</speed><time>2016-06-21T14:44:05Z</time><pdop>3.0</pdop><geoidheight>54.00</geoidheight><course>294.8</course><type>1</type></trkpt>
      <trkpt lat="39.344853" lon="-6.22255988"><ele>1835</ele><speed>11.25</speed><time>2016-06-21T14:44:07Z</time><pdop>3.0</pdop><geoidheight>54.00</geoidheight><course>300.1</course><type>1</type></trkpt>
      <trkpt lat="39.34490554" lon="-6.22267174"><ele>1836</ele><speed>11.25</speed><time>2016-06-21T14:44:08Z</time><pdop>3.0</pdop><geoidheight>54.00</geoidheight><course>301.4</course><type>1</type></trkpt>
      <trkpt lat="39.34502327" lon="-6.22291357"><ele>1839</ele><speed>12.50</speed><time>2016-06-21T14:44:10Z</time><pdop>3.0</pdop><geoidheight>54.00</geoidheight><course>303.3</course><type>1</type></trkpt>
      <trkpt lat="39.34515734" lon="-6.22310994"><ele>1843</ele><speed>11.00</speed><time>2016-06-21T14:44:12Z</time><pdop>3.0</pdop><geoidheight>54.00</geoidheight><course>314.7</course><type>1</type></trkpt>
      <trkpt lat="39.3452897" lon="-6.2232334"><ele>1847</ele><speed>8.50</speed><time>2016-06-21T14:44:14Z</time><pdop>3.0</pdop><geoidheight>54.00</geoidheight><course>327.8</course><type>1</type></trkpt>
      <trkpt lat="39.34535315" lon="-6.2232697"><ele>1848</ele><speed>8.00</speed><time>2016-06-21T14:44:15Z</time><pdop>3.0</pdop><geoidheight>54.00</geoidheight><course>334.4</course><type>1</type></trkpt>
      <trkpt lat="39.34547908" lon="-6.22326701"><ele>1848</ele><speed>6.75</speed><time>2016-06-21T14:44:17Z</time><pdop>4.0</pdop><geoidheight>54.00</geoidheight><course>8.7</course><type>1</type></trkpt>
      <trkpt lat="39.34555856" lon="-6.223159"><ele>1849</ele><speed>6.50</speed><time>2016-06-21T14:44:19Z</time><pdop>3.0</pdop><geoidheight>54.00</geoidheight><course>54.2</course><type>1</type></trkpt>
      <trkpt lat="39.34558158" lon="-6.22302591"><ele>1853</ele><speed>5.75</speed><time>2016-06-21T14:44:21Z</time><pdop>4.0</pdop><geoidheight>54.00</geoidheight><course>80.0</course><type>1</type></trkpt>
      <trkpt lat="39.34552799" lon="-6.22296658"><ele>1857</ele><speed>4.50</speed><time>2016-06-21T14:44:23Z</time><pdop>3.0</pdop><geoidheight>54.00</geoidheight><course>147.8</course><type>1</type></trkpt>
      <trkpt lat="39.34541398" lon="-6.22298478"><ele>1861</ele><speed>6.75</speed><time>2016-06-21T14:44:25Z</time><pdop>3.0</pdop><geoidheight>54.00</geoidheight><course>193.7</course><type>1</type></trkpt>
      <trkpt lat="39.34530281" lon="-6.22310815"><ele>1863</ele><speed>8.25</speed><time>2016-06-21T14:44:27Z</time><pdop>3.0</pdop><geoidheight>54.00</geoidheight><course>226.0</course><type>1</type></trkpt>
      <trkpt lat="39.34521791" lon="-6.22330333"><ele>1865</ele><speed>10.00</speed><time>2016-06-21T14:44:29Z</time><pdop>4.0</pdop><geoidheight>54.00</geoidheight><course>242.3</course><type>1</type></trkpt>
      <trkpt lat="39.34518856" lon="-6.2234176"><ele>1867</ele><speed>10.50</speed><time>2016-06-21T14:44:30Z</time><pdop>3.0</pdop><geoidheight>54.00</geoidheight><course>250.1</course><type>1</type></trkpt>
      <trkpt lat="39.34517216" lon="-6.22354303"><ele>1869</ele><speed>10.75</speed><time>2016-06-21T14:44:31Z</time><pdop>3.0</pdop><geoidheight>54.00</geoidheight><course>259.5</course><type>1</type></trkpt>
      <trkpt lat="39.34517597" lon="-6.22367327"><ele>1870</ele><speed>11.00</speed><time>2016-06-21T14:44:32Z</time><pdop>3.0</pdop><geoidheight>54.00</geoidheight><course>270.6</course><type>1</type></trkpt>
      <trkpt lat="39.34522717" lon="-6.2239513"><ele>1872</ele><speed>12.75</speed><time>2016-06-21T14:44:34Z</time><pdop>3.0</pdop><geoidheight>54.00</geoidheight><course>285.8</course><type>1</type></trkpt>
      <trkpt lat="39.34526443" lon="-6.22410097"><ele>1873</ele><speed>13.50</speed><time>2016-06-21T14:44:35Z</time><pdop>3.0</pdop><geoidheight>54.00</geoidheight><course>288.2</course><type>1</type></trkpt>
      <trkpt lat="39.34530807" lon="-6.22424838"><ele>1749</ele><speed>13.50</speed><time>2016-06-21T14:44:36Z</time><pdop>3.0</pdop><geoidheight>54.00</geoidheight><course>291.5</course><type>1</type></trkpt>
      <trkpt lat="39.34542233" lon="-6.22448483"><ele>1828</ele><speed>11.75</speed><time>2016-06-21T14:44:38Z</time><pdop>3.0</pdop><geoidheight>54.00</geoidheight><course>307.3</course><type>1</type></trkpt>
      <trkpt lat="39.34557922" lon="-6.22463923"><ele>1847</ele><speed>10.75</speed><time>2016-06-21T14:44:40Z</time><pdop>3.0</pdop><geoidheight>54.00</geoidheight><course>325.4</course><type>1</type></trkpt>
      <trkpt lat="39.34571628" lon="-6.22471598"><ele>1866</ele><speed>7.50</speed><time>2016-06-21T14:44:42Z</time><pdop>3.0</pdop><geoidheight>54.00</geoidheight><course>340.7</course><type>1</type></trkpt>
      <trkpt lat="39.34582522" lon="-6.22468461"><ele>1868</ele><speed>6.25</speed><time>2016-06-21T14:44:44Z</time><pdop>3.0</pdop><geoidheight>54.00</geoidheight><course>22.3</course><type>1</type></trkpt>
      <trkpt lat="39.34586351" lon="-6.2246323"><ele>1868</ele><speed>6.00</speed><time>2016-06-21T14:44:45Z</time><pdop>3.0</pdop><geoidheight>54.00</geoidheight><course>45.4</course><type>1</type></trkpt>
      <trkpt lat="39.34586073" lon="-6.22451155"><ele>1868</ele><speed>5.50</speed><time>2016-06-21T14:44:47Z</time><pdop>3.0</pdop><geoidheight>54.00</geoidheight><course>104.0</course><type>1</type></trkpt>
      <trkpt lat="39.34575637" lon="-6.22442611"><ele>1872</ele><speed>6.75</speed><time>2016-06-21T14:44:49Z</time><pdop>3.0</pdop><geoidheight>54.00</geoidheight><course>156.2</course><type>1</type></trkpt>
      <trkpt lat="39.34562876" lon="-6.22443582"><ele>1877</ele><speed>7.00</speed><time>2016-06-21T14:44:51Z</time><pdop>3.0</pdop><geoidheight>54.00</geoidheight><course>186.9</course><type>1</type></trkpt>
      <trkpt lat="39.34553197" lon="-6.22447507"><ele>1881</ele><speed>5.25</speed><time>2016-06-21T14:44:53Z</time><pdop>3.0</pdop><geoidheight>54.00</geoidheight><course>196.9</course><type>1</type></trkpt>
      <trkpt lat="39.3454365" lon="-6.22449465"><ele>1883</ele><speed>5.50</speed><time>2016-06-21T14:44:55Z</time><pdop>3.0</pdop><geoidheight>54.00</geoidheight><course>186.8</course><type>1</type></trkpt>
      <trkpt lat="39.3453244" lon="-6.22454123"><ele>1886</ele><speed>6.25</speed><time>2016-06-21T14:44:57Z</time><pdop>3.0</pdop><geoidheight>54.00</geoidheight><course>200.6</course><type>1</type></trkpt>
      <trkpt lat="39.34527761" lon="-6.22459274"><ele>1888</ele><speed>6.75</speed><time>2016-06-21T14:44:58Z</time><pdop>3.0</pdop><geoidheight>54.00</geoidheight><course>217.0</course><type>1</type></trkpt>
      <trkpt lat="39.34523756" lon="-6.22466693"><ele>1890</ele><speed>7.50</speed><time>2016-06-21T14:44:59Z</time><pdop>3.0</pdop><geoidheight>54.00</geoidheight><course>232.8</course><type>1</type></trkpt>
      <trkpt lat="39.34520823" lon="-6.22476001"><ele>1892</ele><speed>8.50</speed><time>2016-06-21T14:45:00Z</time><pdop>3.0</pdop><geoidheight>54.00</geoidheight><course>246.1</course><type>1</type></trkpt>
      <trkpt lat="39.34519916" lon="-6.22499277"><ele>1897</ele><speed>10.75</speed><time>2016-06-21T14:45:02Z</time><pdop>3.0</pdop><geoidheight>54.00</geoidheight><course>272.8</course><type>1</type></trkpt>
      <trkpt lat="39.34521273" lon="-6.225122"><ele>1897</ele><speed>11.00</speed><time>2016-06-21T14:45:03Z</time><pdop>4.0</pdop><geoidheight>54.00</geoidheight><course>276.9</course><type>1</type></trkpt>
      <trkpt lat="39.34537901" lon="-6.22534298"><ele>1901</ele><speed>12.25</speed><time>2016-06-21T14:45:05Z</time><pdop>3.0</pdop><geoidheight>54.00</geoidheight><course>316.1</course><type>1</type></trkpt>
      <trkpt lat="39.3455492" lon="-6.22546433"><ele>1899</ele><speed>10.50</speed><time>2016-06-21T14:45:07Z</time><pdop>3.0</pdop><geoidheight>54.00</geoidheight><course>334.9</course><type>1</type></trkpt>
      <trkpt lat="39.34563326" lon="-6.22549875"><ele>1902</ele><speed>9.75</speed><time>2016-06-21T14:45:08Z</time><pdop>3.0</pdop><geoidheight>54.00</geoidheight><course>340.9</course><type>1</type></trkpt>
      <trkpt lat="39.34571524" lon="-6.22551271"><ele>1904</ele><speed>9.25</speed><time>2016-06-21T14:45:09Z</time><pdop>3.0</pdop><geoidheight>54.00</geoidheight><course>349.7</course><type>1</type></trkpt>
      <trkpt lat="39.34579283" lon="-6.22550733"><ele>1906</ele><speed>8.50</speed><time>2016-06-21T14:45:10Z</time><pdop>3.0</pdop><geoidheight>54.00</geoidheight><course>0.2</course><type>1</type></trkpt>
      <trkpt lat="39.34585681" lon="-6.22548283"><ele>1907</ele><speed>7.50</speed><time>2016-06-21T14:45:11Z</time><pdop>3.0</pdop><geoidheight>54.00</geoidheight><course>14.2</course><type>1</type></trkpt>
      <trkpt lat="39.34591082" lon="-6.22539884"><ele>1909</ele><speed>4.25</speed><time>2016-06-21T14:45:13Z</time><pdop>3.0</pdop><geoidheight>54.00</geoidheight><course>70.8</course><type>1</type></trkpt>
      <trkpt lat="39.3457833" lon="-6.22531383"><ele>1911</ele><speed>6.25</speed><time>2016-06-21T14:45:16Z</time><pdop>3.0</pdop><geoidheight>54.00</geoidheight><course>171.7</course><type>1</type></trkpt>
      <trkpt lat="39.34567887" lon="-6.22536231"><ele>1916</ele><speed>6.00</speed><time>2016-06-21T14:45:18Z</time><pdop>3.0</pdop><geoidheight>54.00</geoidheight><course>202.0</course><type>1</type></trkpt>
      <trkpt lat="39.34562957" lon="-6.22539162"><ele>1919</ele><speed>5.75</speed><time>2016-06-21T14:45:19Z</time><pdop>3.0</pdop><geoidheight>54.00</geoidheight><course>205.7</course><type>1</type></trkpt>
      <trkpt lat="39.34553832" lon="-6.22546195"><ele>1922</ele><speed>6.00</speed><time>2016-06-21T14:45:21Z</time><pdop>3.0</pdop><geoidheight>54.00</geoidheight><course>213.9</course><type>1</type></trkpt>
      <trkpt lat="39.34549317" lon="-6.22551375"><ele>1924</ele><speed>6.75</speed><time>2016-06-21T14:45:22Z</time><pdop>3.0</pdop><geoidheight>54.00</geoidheight><course>221.6</course><type>1</type></trkpt>
      <trkpt lat="39.34541882" lon="-6.22566143"><ele>1926</ele><speed>7.75</speed><time>2016-06-21T14:45:24Z</time><pdop>3.0</pdop><geoidheight>54.00</geoidheight><course>241.3</course><type>1</type></trkpt>
      <trkpt lat="39.34539986" lon="-6.2257653"><ele>1927</ele><speed>9.00</speed><time>2016-06-21T14:45:25Z</time><pdop>3.0</pdop><geoidheight>54.00</geoidheight><course>253.8</course><type>1</type></trkpt>
      <trkpt lat="39.34540256" lon="-6.2258939"><ele>1927</ele><speed>10.75</speed><time>2016-06-21T14:45:26Z</time><pdop>3.0</pdop><geoidheight>54.00</geoidheight><course>270.4</course><type>1</type></trkpt>
      <trkpt lat="39.34545344" lon="-6.22614404"><ele>1928</ele><speed>11.00</speed><time>2016-06-21T14:45:28Z</time><pdop>4.0</pdop><geoidheight>54.00</geoidheight><course>286.0</course><type>1</type></trkpt>
      <trkpt lat="39.34557469" lon="-6.22624811"><ele>1932</ele><speed>12.50</speed><time>2016-06-21T14:45:29Z</time><pdop>4.0</pdop><geoidheight>54.00</geoidheight><course>312.9</course><type>1</type></trkpt>
      <trkpt lat="39.3456693" lon="-6.22632115"><ele>1934</ele><speed>12.00</speed><time>2016-06-21T14:45:30Z</time><pdop>3.0</pdop><geoidheight>54.00</geoidheight><course>326.2</course><type>1</type></trkpt>
      <trkpt lat="39.34576402" lon="-6.22637286"><ele>1937</ele><speed>11.50</speed><time>2016-06-21T14:45:31Z</time><pdop>3.0</pdop><geoidheight>54.00</geoidheight><course>336.2</course><type>1</type></trkpt>
      <trkpt lat="39.34593382" lon="-6.22642063"><ele>1939</ele><speed>9.25</speed><time>2016-06-21T14:45:33Z</time><pdop>3.0</pdop><geoidheight>54.00</geoidheight><course>348.6</course><type>1</type></trkpt>
      <trkpt lat="39.34601874" lon="-6.22643233"><ele>1940</ele><speed>9.00</speed><time>2016-06-21T14:45:34Z</time><pdop>3.0</pdop><geoidheight>54.00</geoidheight><course>350.3</course><type>1</type></trkpt>
      <trkpt lat="39.34617064" lon="-6.22645471"><ele>1941</ele><speed>8.25</speed><time>2016-06-21T14:45:36Z</time><pdop>3.0</pdop><geoidheight>54.00</geoidheight><course>354.2</course><type>1</type></trkpt>
      <trkpt lat="39.34623854" lon="-6.22644694"><ele>1941</ele><speed>7.50</speed><time>2016-06-21T14:45:37Z</time><pdop>4.0</pdop><geoidheight>54.00</geoidheight><course>4.0</course><type>1</type></trkpt>
      <trkpt lat="39.34633295" lon="-6.22636747"><ele>1942</ele><speed>6.00</speed><time>2016-06-21T14:45:39Z</time><pdop>3.0</pdop><geoidheight>54.00</geoidheight><course>41.4</course><type>1</type></trkpt>
      <trkpt lat="39.34635633" lon="-6.22618791"><ele>1946</ele><speed>5.00</speed><time>2016-06-21T14:45:42Z</time><pdop>3.0</pdop><geoidheight>54.00</geoidheight><course>100.3</course><type>1</type></trkpt>
      <trkpt lat="39.34629051" lon="-6.22613008"><ele>1949</ele><speed>4.50</speed><time>2016-06-21T14:45:44Z</time><pdop>3.0</pdop><geoidheight>54.00</geoidheight><course>154.0</course><type>1</type></trkpt>
      <trkpt lat="39.34617358" lon="-6.22617064"><ele>1950</ele><speed>7.25</speed><time>2016-06-21T14:45:46Z</time><pdop>4.0</pdop><geoidheight>54.00</geoidheight><course>201.1</course><type>1</type></trkpt>
      <trkpt lat="39.34611386" lon="-6.22623407"><ele>1952</ele><speed>8.25</speed><time>2016-06-21T14:45:47Z</time><pdop>3.0</pdop><geoidheight>54.00</geoidheight><course>217.5</course><type>1</type></trkpt>
      <trkpt lat="39.34603563" lon="-6.22642284"><ele>1951</ele><speed>9.25</speed><time>2016-06-21T14:45:49Z</time><pdop>4.0</pdop><geoidheight>54.00</geoidheight><course>247.9</course><type>1</type></trkpt>
      <trkpt lat="39.34603217" lon="-6.22666673"><ele>1954</ele><speed>11.50</speed><time>2016-06-21T14:45:51Z</time><pdop>3.0</pdop><geoidheight>54.00</geoidheight><course>274.8</course><type>1</type></trkpt>
      <trkpt lat="39.34612491" lon="-6.22693201"><ele>1955</ele><speed>12.75</speed><time>2016-06-21T14:45:53Z</time><pdop>3.0</pdop><geoidheight>54.00</geoidheight><course>298.3</course><type>1</type></trkpt>
      <trkpt lat="39.34619641" lon="-6.22704987"><ele>1957</ele><speed>13.00</speed><time>2016-06-21T14:45:54Z</time><pdop>3.0</pdop><geoidheight>54.00</geoidheight><course>307.3</course><type>1</type></trkpt>
      <trkpt lat="39.34627797" lon="-6.2271506"><ele>1959</ele><speed>12.50</speed><time>2016-06-21T14:45:55Z</time><pdop>3.0</pdop><geoidheight>54.00</geoidheight><course>315.2</course><type>1</type></trkpt>
      <trkpt lat="39.34643828" lon="-6.22730564"><ele>1960</ele><speed>10.75</speed><time>2016-06-21T14:45:57Z</time><pdop>4.0</pdop><geoidheight>54.00</geoidheight><course>324.2</course><type>1</type></trkpt>
      <trkpt lat="39.34651139" lon="-6.22737385"><ele>1960</ele><speed>9.75</speed><time>2016-06-21T14:45:58Z</time><pdop>3.0</pdop><geoidheight>54.00</geoidheight><course>324.4</course><type>1</type></trkpt>
      <trkpt lat="39.34667159" lon="-6.22749124"><ele>1960</ele><speed>10.25</speed><time>2016-06-21T14:46:00Z</time><pdop>3.0</pdop><geoidheight>54.00</geoidheight><course>333.2</course><type>1</type></trkpt>
      <trkpt lat="39.34675856" lon="-6.2275282"><ele>1960</ele><speed>10.00</speed><time>2016-06-21T14:46:01Z</time><pdop>3.0</pdop><geoidheight>54.00</geoidheight><course>340.6</course><type>1</type></trkpt>
      <trkpt lat="39.34683314" lon="-6.22753775"><ele>1960</ele><speed>8.50</speed><time>2016-06-21T14:46:02Z</time><pdop>3.0</pdop><geoidheight>54.00</geoidheight><course>350.7</course><type>1</type></trkpt>
      <trkpt lat="39.34693263" lon="-6.22749641"><ele>1960</ele><speed>5.25</speed><time>2016-06-21T14:46:04Z</time><pdop>3.0</pdop><geoidheight>54.00</geoidheight><course>28.6</course><type>1</type></trkpt>
      <trkpt lat="39.34695252" lon="-6.22740932"><ele>1960</ele><speed>4.25</speed><time>2016-06-21T14:46:06Z</time><pdop>3.0</pdop><geoidheight>54.00</geoidheight><course>90.6</course><type>1</type></trkpt>
      <trkpt lat="39.34686557" lon="-6.2273573"><ele>1959</ele><speed>5.50</speed><time>2016-06-21T14:46:08Z</time><pdop>4.0</pdop><geoidheight>54.00</geoidheight><course>160.1</course><type>1</type></trkpt>
      <trkpt lat="39.34678575" lon="-6.22743341"><ele>1960</ele><speed>8.75</speed><time>2016-06-21T14:46:09Z</time><pdop>4.0</pdop><geoidheight>54.00</geoidheight><course>204.1</course><type>1</type></trkpt>
      <trkpt lat="39.34673271" lon="-6.22750914"><ele>1961</ele><speed>9.00</speed><time>2016-06-21T14:46:10Z</time><pdop>3.0</pdop><geoidheight>54.00</geoidheight><course>225.1</course><type>1</type></trkpt>
      <trkpt lat="39.34666627" lon="-6.22769575"><ele>1963</ele><speed>9.25</speed><time>2016-06-21T14:46:12Z</time><pdop>3.0</pdop><geoidheight>54.00</geoidheight><course>250.8</course><type>1</type></trkpt>
      <trkpt lat="39.34665738" lon="-6.22780633"><ele>1964</ele><speed>9.25</speed><time>2016-06-21T14:46:13Z</time><pdop>4.0</pdop><geoidheight>54.00</geoidheight><course>261.8</course><type>1</type></trkpt>
      <trkpt lat="39.34665114" lon="-6.22803756"><ele>1963</ele><speed>10.00</speed><time>2016-06-21T14:46:15Z</time><pdop>3.0</pdop><geoidheight>54.00</geoidheight><course>268.1</course><type>1</type></trkpt>
      <trkpt lat="39.34664166" lon="-6.22829616"><ele>1961</ele><speed>11.50</speed><time>2016-06-21T14:46:17Z</time><pdop>4.0</pdop><geoidheight>54.00</geoidheight><course>268.1</course><type>1</type></trkpt>
      <trkpt lat="39.3466471" lon="-6.22843721"><ele>1959</ele><speed>12.00</speed><time>2016-06-21T14:46:18Z</time><pdop>3.0</pdop><geoidheight>54.00</geoidheight><course>271.8</course><type>1</type></trkpt>
      <trkpt lat="39.3466633" lon="-6.22873426"><ele>1956</ele><speed>13.00</speed><time>2016-06-21T14:46:20Z</time><pdop>3.0</pdop><geoidheight>54.00</geoidheight><course>275.1</course><type>1</type></trkpt>
      <trkpt lat="39.34667538" lon="-6.22905009"><ele>1953</ele><speed>13.75</speed><time>2016-06-21T14:46:22Z</time><pdop>3.0</pdop><geoidheight>54.00</geoidheight><course>270.4</course><type>1</type></trkpt>
      <trkpt lat="39.34666236" lon="-6.22921055"><ele>1951</ele><speed>14.00</speed><time>2016-06-21T14:46:23Z</time><pdop>3.0</pdop><geoidheight>54.00</geoidheight><course>265.2</course><type>1</type></trkpt>
      <trkpt lat="39.34664167" lon="-6.22937195"><ele>1951</ele><speed>14.25</speed><time>2016-06-21T14:46:24Z</time><pdop>4.0</pdop><geoidheight>54.00</geoidheight><course>260.9</course><type>1</type></trkpt>
      <trkpt lat="39.34658633" lon="-6.22969139"><ele>1950</ele><speed>13.75</speed><time>2016-06-21T14:46:26Z</time><pdop>4.0</pdop><geoidheight>54.00</geoidheight><course>258.1</course><type>1</type></trkpt>
      <trkpt lat="39.34655873" lon="-6.22984541"><ele>1950</ele><speed>13.75</speed><time>2016-06-21T14:46:27Z</time><pdop>4.0</pdop><geoidheight>54.00</geoidheight><course>257.1</course><type>1</type></trkpt>
      <trkpt lat="39.34652471" lon="-6.22999968"><ele>1949</ele><speed>13.75</speed><time>2016-06-21T14:46:28Z</time><pdop>4.0</pdop><geoidheight>54.00</geoidheight><course>255.6</course><type>1</type></trkpt>
      <trkpt lat="39.34646016" lon="-6.23030516"><ele>1949</ele><speed>13.75</speed><time>2016-06-21T14:46:30Z</time><pdop>4.0</pdop><geoidheight>54.00</geoidheight><course>255.2</course><type>1</type></trkpt>
      <trkpt lat="39.34642719" lon="-6.23045729"><ele>1950</ele><speed>13.50</speed><time>2016-06-21T14:46:31Z</time><pdop>3.0</pdop><geoidheight>54.00</geoidheight><course>254.8</course><type>1</type></trkpt>
      <trkpt lat="39.34636552" lon="-6.23072719"><ele>1952</ele><speed>11.75</speed><time>2016-06-21T14:46:33Z</time><pdop>3.0</pdop><geoidheight>54.00</geoidheight><course>252.0</course><type>1</type></trkpt>
      <trkpt lat="39.34629496" lon="-6.23098097"><ele>1951</ele><speed>11.50</speed><time>2016-06-21T14:46:35Z</time><pdop>3.0</pdop><geoidheight>54.00</geoidheight><course>248.2</course><type>1</type></trkpt>
      <trkpt lat="39.34625557" lon="-6.23111104"><ele>1952</ele><speed>12.00</speed><time>2016-06-21T14:46:36Z</time><pdop>3.0</pdop><geoidheight>54.00</geoidheight><course>247.3</course><type>1</type></trkpt>
      <trkpt lat="39.34617505" lon="-6.23137283"><ele>1953</ele><speed>12.00</speed><time>2016-06-21T14:46:38Z</time><pdop>3.0</pdop><geoidheight>54.00</geoidheight><course>249.1</course><type>1</type></trkpt>
      <trkpt lat="39.34614222" lon="-6.23149754"><ele>1954</ele><speed>11.50</speed><time>2016-06-21T14:46:39Z</time><pdop>3.0</pdop><geoidheight>54.00</geoidheight><course>251.0</course><type>1</type></trkpt>
      <trkpt lat="39.34610832" lon="-6.23162446"><ele>1955</ele><speed>11.50</speed><time>2016-06-21T14:46:40Z</time><pdop>5.0</pdop><geoidheight>54.00</geoidheight><course>251.0</course><type>1</type></trkpt>
      <trkpt lat="39.34608222" lon="-6.2317443"><ele>1955</ele><speed>11.25</speed><time>2016-06-21T14:46:41Z</time><pdop>4.0</pdop><geoidheight>54.00</geoidheight><course>251.5</course><type>1</type></trkpt>
      <trkpt lat="39.34600382" lon="-6.23200791"><ele>1859</ele><speed>12.75</speed><time>2016-06-21T14:46:43Z</time><pdop>4.0</pdop><geoidheight>54.00</geoidheight><course>248.6</course><type>1</type></trkpt>
      <trkpt lat="39.34595484" lon="-6.23214463"><ele>1897</ele><speed>12.75</speed><time>2016-06-21T14:46:44Z</time><pdop>4.0</pdop><geoidheight>54.00</geoidheight><course>246.3</course><type>1</type></trkpt>
      <trkpt lat="39.3459016" lon="-6.23227952"><ele>1920</ele><speed>12.50</speed><time>2016-06-21T14:46:45Z</time><pdop>3.0</pdop><geoidheight>54.00</geoidheight><course>244.2</course><type>1</type></trkpt>
      <trkpt lat="39.34585936" lon="-6.23239342"><ele>1934</ele><speed>11.00</speed><time>2016-06-21T14:46:46Z</time><pdop>4.0</pdop><geoidheight>54.00</geoidheight><course>246.2</course><type>1</type></trkpt>
      <trkpt lat="39.34579247" lon="-6.23261121"><ele>1951</ele><speed>9.75</speed><time>2016-06-21T14:46:48Z</time><pdop>3.0</pdop><geoidheight>54.00</geoidheight><course>246.0</course><type>1</type></trkpt>
      <trkpt lat="39.34574975" lon="-6.2327086"><ele>1956</ele><speed>9.75</speed><time>2016-06-21T14:46:49Z</time><pdop>3.0</pdop><geoidheight>54.00</geoidheight><course>239.5</course><type>1</type></trkpt>
      <trkpt lat="39.34570493" lon="-6.23280673"><ele>1958</ele><speed>9.75</speed><time>2016-06-21T14:46:50Z</time><pdop>4.0</pdop><geoidheight>54.00</geoidheight><course>239.5</course><type>1</type></trkpt>
      <trkpt lat="39.34566795" lon="-6.23291902"><ele>1963</ele><speed>10.50</speed><time>2016-06-21T14:46:51Z</time><pdop>3.0</pdop><geoidheight>54.00</geoidheight><course>245.7</course><type>1</type></trkpt>
      <trkpt lat="39.34564006" lon="-6.23319303"><ele>1966</ele><speed>12.25</speed><time>2016-06-21T14:46:53Z</time><pdop>3.0</pdop><geoidheight>54.00</geoidheight><course>266.7</course><type>1</type></trkpt>
      <trkpt lat="39.34565061" lon="-6.23334515"><ele>1968</ele><speed>13.00</speed><time>2016-06-21T14:46:54Z</time><pdop>3.0</pdop><geoidheight>54.00</geoidheight><course>275.0</course><type>1</type></trkpt>
      <trkpt lat="39.34567692" lon="-6.23349061"><ele>1970</ele><speed>13.25</speed><time>2016-06-21T14:46:55Z</time><pdop>3.0</pdop><geoidheight>54.00</geoidheight><course>283.5</course><type>1</type></trkpt>
      <trkpt lat="39.34572239" lon="-6.23363336"><ele>1971</ele><speed>13.00</speed><time>2016-06-21T14:46:56Z</time><pdop>4.0</pdop><geoidheight>54.00</geoidheight><course>290.7</course><type>1</type></trkpt>
      <trkpt lat="39.34577908" lon="-6.23376162"><ele>1971</ele><speed>12.50</speed><time>2016-06-21T14:46:57Z</time><pdop>4.0</pdop><geoidheight>54.00</geoidheight><course>295.8</course><type>1</type></trkpt>
      <trkpt lat="39.34601922" lon="-6.23394292"><ele>1974</ele><speed>14.25</speed><time>2016-06-21T14:46:59Z</time><pdop>3.0</pdop><geoidheight>54.00</geoidheight><course>327.8</course><type>1</type></trkpt>
      <trkpt lat="39.34613395" lon="-6.23399214"><ele>1976</ele><speed>13.25</speed><time>2016-06-21T14:47:00Z</time><pdop>3.0</pdop><geoidheight>54.00</geoidheight><course>339.1</course><type>1</type></trkpt>
      <trkpt lat="39.34632245" lon="-6.23399303"><ele>1982</ele><speed>10.25</speed><time>2016-06-21T14:47:02Z</time><pdop>3.0</pdop><geoidheight>54.00</geoidheight><course>7.4</course><type>1</type></trkpt>
      <trkpt lat="39.34640356" lon="-6.23395703"><ele>1983</ele><speed>9.25</speed><time>2016-06-21T14:47:03Z</time><pdop>4.0</pdop><geoidheight>54.00</geoidheight><course>19.1</course><type>1</type></trkpt>
      <trkpt lat="39.34646986" lon="-6.23391549"><ele>1986</ele><speed>8.25</speed><time>2016-06-21T14:47:04Z</time><pdop>3.0</pdop><geoidheight>54.00</geoidheight><course>24.9</course><type>1</type></trkpt>
      <trkpt lat="39.34656526" lon="-6.23384508"><ele>1991</ele><speed>5.25</speed><time>2016-06-21T14:47:06Z</time><pdop>3.0</pdop><geoidheight>54.00</geoidheight><course>32.6</course><type>1</type></trkpt>
      <trkpt lat="39.34660755" lon="-6.23369464"><ele>1993</ele><speed>5.00</speed><time>2016-06-21T14:47:09Z</time><pdop>3.0</pdop><geoidheight>54.00</geoidheight><course>85.8</course><type>1</type></trkpt>
      <trkpt lat="39.34655295" lon="-6.23360446"><ele>1994</ele><speed>4.75</speed><time>2016-06-21T14:47:11Z</time><pdop>3.0</pdop><geoidheight>54.00</geoidheight><course>137.6</course><type>1</type></trkpt>
      <trkpt lat="39.34649496" lon="-6.23359608"><ele>1995</ele><speed>5.50</speed><time>2016-06-21T14:47:12Z</time><pdop>3.0</pdop><geoidheight>54.00</geoidheight><course>169.3</course><type>1</type></trkpt>
      <trkpt lat="39.34643053" lon="-6.23361044"><ele>1995</ele><speed>6.75</speed><time>2016-06-21T14:47:13Z</time><pdop>3.0</pdop><geoidheight>54.00</geoidheight><course>189.0</course><type>1</type></trkpt>
      <trkpt lat="39.34628221" lon="-6.23365565"><ele>1999</ele><speed>8.50</speed><time>2016-06-21T14:47:15Z</time><pdop>3.0</pdop><geoidheight>54.00</geoidheight><course>192.1</course><type>1</type></trkpt>
      <trkpt lat="39.34620886" lon="-6.23367645"><ele>2002</ele><speed>8.25</speed><time>2016-06-21T14:47:16Z</time><pdop>3.0</pdop><geoidheight>54.00</geoidheight><course>192.8</course><type>1</type></trkpt>
      <trkpt lat="39.34608059" lon="-6.23373187"><ele>2006</ele><speed>7.50</speed><time>2016-06-21T14:47:18Z</time><pdop>5.0</pdop><geoidheight>54.00</geoidheight><course>198.8</course><type>1</type></trkpt>
      <trkpt lat="39.34603182" lon="-6.23380981"><ele>2007</ele><speed>8.00</speed><time>2016-06-21T14:47:19Z</time><pdop>3.0</pdop><geoidheight>54.00</geoidheight><course>219.0</course><type>1</type></trkpt>
      <trkpt lat="39.34597494" lon="-6.23386904"><ele>2008</ele><speed>8.00</speed><time>2016-06-21T14:47:20Z</time><pdop>5.0</pdop><geoidheight>54.00</geoidheight><course>219.0</course><type>1</type></trkpt>
      <trkpt lat="39.34587317" lon="-6.23407061"><ele>2008</ele><speed>9.75</speed><time>2016-06-21T14:47:22Z</time><pdop>5.0</pdop><geoidheight>54.00</geoidheight><course>232.9</course><type>1</type></trkpt>
      <trkpt lat="39.34583757" lon="-6.23419655"><ele>2010</ele><speed>10.75</speed><time>2016-06-21T14:47:23Z</time><pdop>3.0</pdop><geoidheight>54.00</geoidheight><course>243.0</course><type>1</type></trkpt>
      <trkpt lat="39.34579394" lon="-6.23430659"><ele>2010</ele><speed>10.75</speed><time>2016-06-21T14:47:24Z</time><pdop>5.0</pdop><geoidheight>54.00</geoidheight><course>243.0</course><type>1</type></trkpt>
      <trkpt lat="39.34577536" lon="-6.23444311"><ele>2010</ele><speed>11.50</speed><time>2016-06-21T14:47:25Z</time><pdop>3.0</pdop><geoidheight>54.00</geoidheight><course>254.5</course><type>1</type></trkpt>
      <trkpt lat="39.34573322" lon="-6.23472884"><ele>2011</ele><speed>12.75</speed><time>2016-06-21T14:47:27Z</time><pdop>3.0</pdop><geoidheight>54.00</geoidheight><course>261.3</course><type>1</type></trkpt>
      <trkpt lat="39.34572808" lon="-6.2348784"><ele>2012</ele><speed>12.75</speed><time>2016-06-21T14:47:28Z</time><pdop>3.0</pdop><geoidheight>54.00</geoidheight><course>266.6</course><type>1</type></trkpt>
      <trkpt lat="39.34573727" lon="-6.23502929"><ele>2012</ele><speed>12.75</speed><time>2016-06-21T14:47:29Z</time><pdop>3.0</pdop><geoidheight>54.00</geoidheight><course>273.6</course><type>1</type></trkpt>
      <trkpt lat="39.34575725" lon="-6.23518062"><ele>2013</ele><speed>13.25</speed><time>2016-06-21T14:47:30Z</time><pdop>3.0</pdop><geoidheight>54.00</geoidheight><course>280.1</course><type>1</type></trkpt>
      <trkpt lat="39.34579099" lon="-6.23533246"><ele>2014</ele><speed>13.75</speed><time>2016-06-21T14:47:31Z</time><pdop>3.0</pdop><geoidheight>54.00</geoidheight><course>285.4</course><type>1</type></trkpt>
      <trkpt lat="39.34589765" lon="-6.23562045"><ele>2015</ele><speed>13.50</speed><time>2016-06-21T14:47:33Z</time><pdop>3.0</pdop><geoidheight>54.00</geoidheight><course>298.5</course><type>1</type></trkpt>
      <trkpt lat="39.34597485" lon="-6.23574138"><ele>2016</ele><speed>13.50</speed><time>2016-06-21T14:47:34Z</time><pdop>3.0</pdop><geoidheight>54.00</geoidheight><course>308.1</course><type>1</type></trkpt>
      <trkpt lat="39.34617054" lon="-6.23591926"><ele>2019</ele><speed>13.25</speed><time>2016-06-21T14:47:36Z</time><pdop>3.0</pdop><geoidheight>54.00</geoidheight><course>328.4</course><type>1</type></trkpt>
      <trkpt lat="39.34627862" lon="-6.23597877"><ele>2021</ele><speed>13.00</speed><time>2016-06-21T14:47:37Z</time><pdop>3.0</pdop><geoidheight>54.00</geoidheight><course>336.3</course><type>1</type></trkpt>
      <trkpt lat="39.34638426" lon="-6.23602467"><ele>2022</ele><speed>12.50</speed><time>2016-06-21T14:47:38Z</time><pdop>3.0</pdop><geoidheight>54.00</geoidheight><course>341.2</course><type>1</type></trkpt>
      <trkpt lat="39.34658304" lon="-6.23605913"><ele>2025</ele><speed>10.75</speed><time>2016-06-21T14:47:40Z</time><pdop>3.0</pdop><geoidheight>54.00</geoidheight><course>354.7</course><type>1</type></trkpt>
      <trkpt lat="39.34667177" lon="-6.23604933"><ele>2028</ele><speed>10.00</speed><time>2016-06-21T14:47:41Z</time><pdop>3.0</pdop><geoidheight>54.00</geoidheight><course>3.9</course><type>1</type></trkpt>
      <trkpt lat="39.34675611" lon="-6.23602117"><ele>2029</ele><speed>9.50</speed><time>2016-06-21T14:47:42Z</time><pdop>4.0</pdop><geoidheight>54.00</geoidheight><course>13.6</course><type>1</type></trkpt>
      <trkpt lat="39.34687617" lon="-6.23592857"><ele>2034</ele><speed>7.25</speed><time>2016-06-21T14:47:44Z</time><pdop>3.0</pdop><geoidheight>54.00</geoidheight><course>36.0</course><type>1</type></trkpt>
      <trkpt lat="39.34693485" lon="-6.23582657"><ele>2037</ele><speed>5.25</speed><time>2016-06-21T14:47:46Z</time><pdop>4.0</pdop><geoidheight>54.00</geoidheight><course>57.6</course><type>1</type></trkpt>
      <trkpt lat="39.34690563" lon="-6.23574601"><ele>2039</ele><speed>4.25</speed><time>2016-06-21T14:47:48Z</time><pdop>3.0</pdop><geoidheight>54.00</geoidheight><course>124.6</course><type>1</type></trkpt>
      <trkpt lat="39.34679421" lon="-6.23573235"><ele>2041</ele><speed>6.50</speed><time>2016-06-21T14:47:50Z</time><pdop>3.0</pdop><geoidheight>54.00</geoidheight><course>183.2</course><type>1</type></trkpt>
      <trkpt lat="39.34672663" lon="-6.23577104"><ele>2041</ele><speed>8.00</speed><time>2016-06-21T14:47:51Z</time><pdop>4.0</pdop><geoidheight>54.00</geoidheight><course>202.2</course><type>1</type></trkpt>
      <trkpt lat="39.34666103" lon="-6.23585405"><ele>2041</ele><speed>10.00</speed><time>2016-06-21T14:47:52Z</time><pdop>3.0</pdop><geoidheight>54.00</geoidheight><course>220.9</course><type>1</type></trkpt>
      <trkpt lat="39.34656611" lon="-6.23610216"><ele>2042</ele><speed>12.25</speed><time>2016-06-21T14:47:54Z</time><pdop>3.0</pdop><geoidheight>54.00</geoidheight><course>248.1</course><type>1</type></trkpt>
      <trkpt lat="39.34655044" lon="-6.23625155"><ele>2043</ele><speed>13.00</speed><time>2016-06-21T14:47:55Z</time><pdop>3.0</pdop><geoidheight>54.00</geoidheight><course>260.1</course><type>1</type></trkpt>
      <trkpt lat="39.34655071" lon="-6.23640874"><ele>2044</ele><speed>13.50</speed><time>2016-06-21T14:47:56Z</time><pdop>3.0</pdop><geoidheight>54.00</geoidheight><course>268.5</course><type>1</type></trkpt>
      <trkpt lat="39.34655778" lon="-6.23656138"><ele>2045</ele><speed>13.50</speed><time>2016-06-21T14:47:57Z</time><pdop>3.0</pdop><geoidheight>54.00</geoidheight><course>273.5</course><type>1</type></trkpt>
      <trkpt lat="39.34657765" lon="-6.23686897"><ele>2047</ele><speed>13.50</speed><time>2016-06-21T14:47:59Z</time><pdop>3.0</pdop><geoidheight>54.00</geoidheight><course>275.3</course><type>1</type></trkpt>
      <trkpt lat="39.34659279" lon="-6.23702022"><ele>2049</ele><speed>13.25</speed><time>2016-06-21T14:48:00Z</time><pdop>4.0</pdop><geoidheight>54.00</geoidheight><course>277.3</course><type>1</type></trkpt>
      <trkpt lat="39.34660235" lon="-6.23717547"><ele>2050</ele><speed>13.25</speed><time>2016-06-21T14:48:01Z</time><pdop>4.0</pdop><geoidheight>54.00</geoidheight><course>274.9</course><type>1</type></trkpt>
      <trkpt lat="39.34659199" lon="-6.23748657"><ele>2053</ele><speed>13.50</speed><time>2016-06-21T14:48:03Z</time><pdop>4.0</pdop><geoidheight>54.00</geoidheight><course>265.0</course><type>1</type></trkpt>
      <trkpt lat="39.34655524" lon="-6.23777858"><ele>2056</ele><speed>12.75</speed><time>2016-06-21T14:48:05Z</time><pdop>4.0</pdop><geoidheight>54.00</geoidheight><course>259.2</course><type>1</type></trkpt>
      <trkpt lat="39.34652453" lon="-6.23792353"><ele>2058</ele><speed>12.75</speed><time>2016-06-21T14:48:06Z</time><pdop>4.0</pdop><geoidheight>54.00</geoidheight><course>255.4</course><type>1</type></trkpt>
      <trkpt lat="39.34649078" lon="-6.23806168"><ele>2059</ele><speed>12.50</speed><time>2016-06-21T14:48:07Z</time><pdop>3.0</pdop><geoidheight>54.00</geoidheight><course>252.3</course><type>1</type></trkpt>
      <trkpt lat="39.34646297" lon="-6.23819232"><ele>2060</ele><speed>11.75</speed><time>2016-06-21T14:48:08Z</time><pdop>4.0</pdop><geoidheight>54.00</geoidheight><course>254.2</course><type>1</type></trkpt>
      <trkpt lat="39.34645139" lon="-6.23846622"><ele>2060</ele><speed>12.25</speed><time>2016-06-21T14:48:10Z</time><pdop>3.0</pdop><geoidheight>54.00</geoidheight><course>273.3</course><type>1</type></trkpt>
      <trkpt lat="39.34646776" lon="-6.23862327"><ele>2060</ele><speed>13.50</speed><time>2016-06-21T14:48:11Z</time><pdop>4.0</pdop><geoidheight>54.00</geoidheight><course>277.2</course><type>1</type></trkpt>
      <trkpt lat="39.34649455" lon="-6.23877906"><ele>2060</ele><speed>14.00</speed><time>2016-06-21T14:48:12Z</time><pdop>4.0</pdop><geoidheight>54.00</geoidheight><course>282.0</course><type>1</type></trkpt>
      <trkpt lat="39.34669958" lon="-6.23896608"><ele>2064</ele><speed>12.75</speed><time>2016-06-21T14:48:14Z</time><pdop>3.0</pdop><geoidheight>54.00</geoidheight><course>319.7</course><type>1</type></trkpt>
      <trkpt lat="39.34678609" lon="-6.23903062"><ele>2065</ele><speed>11.50</speed><time>2016-06-21T14:48:15Z</time><pdop>4.0</pdop><geoidheight>54.00</geoidheight><course>329.5</course><type>1</type></trkpt>
      <trkpt lat="39.34686824" lon="-6.23907389"><ele>2068</ele><speed>10.25</speed><time>2016-06-21T14:48:16Z</time><pdop>3.0</pdop><geoidheight>54.00</geoidheight><course>338.6</course><type>1</type></trkpt>
      <trkpt lat="39.34695454" lon="-6.23910666"><ele>2070</ele><speed>10.00</speed><time>2016-06-21T14:48:17Z</time><pdop>3.0</pdop><geoidheight>54.00</geoidheight><course>345.9</course><type>1</type></trkpt>
      <trkpt lat="39.34713132" lon="-6.23915112"><ele>2072</ele><speed>10.00</speed><time>2016-06-21T14:48:19Z</time><pdop>5.0</pdop><geoidheight>54.00</geoidheight><course>349.6</course><type>1</type></trkpt>
      <trkpt lat="39.34721187" lon="-6.23914009"><ele>2072</ele><speed>9.00</speed><time>2016-06-21T14:48:20Z</time><pdop>3.0</pdop><geoidheight>54.00</geoidheight><course>358.6</course><type>1</type></trkpt>
      <trkpt lat="39.3472928" lon="-6.23914265"><ele>2073</ele><speed>9.00</speed><time>2016-06-21T14:48:21Z</time><pdop>5.0</pdop><geoidheight>54.00</geoidheight><course>358.6</course><type>1</type></trkpt>
      <trkpt lat="39.34742649" lon="-6.23901011"><ele>2077</ele><speed>5.50</speed><time>2016-06-21T14:48:24Z</time><pdop>5.0</pdop><geoidheight>54.00</geoidheight><course>38.3</course><type>1</type></trkpt>
      <trkpt lat="39.34733245" lon="-6.23891293"><ele>2079</ele><speed>4.75</speed><time>2016-06-21T14:48:27Z</time><pdop>3.0</pdop><geoidheight>54.00</geoidheight><course>151.8</course><type>1</type></trkpt>
      <trkpt lat="39.34724134" lon="-6.23887676"><ele>2081</ele><speed>5.25</speed><time>2016-06-21T14:48:29Z</time><pdop>5.0</pdop><geoidheight>54.00</geoidheight><course>162.2</course><type>1</type></trkpt>
      <trkpt lat="39.34713343" lon="-6.23893326"><ele>2084</ele><speed>6.25</speed><time>2016-06-21T14:48:31Z</time><pdop>4.0</pdop><geoidheight>54.00</geoidheight><course>201.5</course><type>1</type></trkpt>
      <trkpt lat="39.34702057" lon="-6.23903688"><ele>2086</ele><speed>7.50</speed><time>2016-06-21T14:48:33Z</time><pdop>3.0</pdop><geoidheight>54.00</geoidheight><course>216.9</course><type>1</type></trkpt>
      <trkpt lat="39.34690757" lon="-6.23917971"><ele>2089</ele><speed>9.25</speed><time>2016-06-21T14:48:35Z</time><pdop>3.0</pdop><geoidheight>54.00</geoidheight><course>228.7</course><type>1</type></trkpt>
      <trkpt lat="39.34686125" lon="-6.2392852"><ele>2089</ele><speed>10.25</speed><time>2016-06-21T14:48:36Z</time><pdop>3.0</pdop><geoidheight>54.00</geoidheight><course>240.3</course><type>1</type></trkpt>
      <trkpt lat="39.34682365" lon="-6.23941326"><ele>2089</ele><speed>11.75</speed><time>2016-06-21T14:48:37Z</time><pdop>3.0</pdop><geoidheight>54.00</geoidheight><course>248.2</course><type>1</type></trkpt>
      <trkpt lat="39.34678475" lon="-6.23953857"><ele>2089</ele><speed>11.75</speed><time>2016-06-21T14:48:38Z</time><pdop>4.0</pdop><geoidheight>54.00</geoidheight><course>248.2</course><type>1</type></trkpt>
      <trkpt lat="39.3467955" lon="-6.23968796"><ele>2090</ele><speed>12.00</speed><time>2016-06-21T14:48:39Z</time><pdop>3.0</pdop><geoidheight>54.00</geoidheight><course>266.2</course><type>1</type></trkpt>
      <trkpt lat="39.34678823" lon="-6.23982799"><ele>2090</ele><speed>12.00</speed><time>2016-06-21T14:48:40Z</time><pdop>5.0</pdop><geoidheight>54.00</geoidheight><course>266.2</course><type>1</type></trkpt>
      <trkpt lat="39.34682917" lon="-6.23998847"><ele>2089</ele><speed>13.25</speed><time>2016-06-21T14:48:41Z</time><pdop>4.0</pdop><geoidheight>54.00</geoidheight><course>278.5</course><type>1</type></trkpt>
      <trkpt lat="39.34698454" lon="-6.24023538"><ele>2089</ele><speed>13.25</speed><time>2016-06-21T14:48:43Z</time><pdop>3.0</pdop><geoidheight>54.00</geoidheight><course>308.3</course><type>1</type></trkpt>
      <trkpt lat="39.34707673" lon="-6.2403331"><ele>2089</ele><speed>13.25</speed><time>2016-06-21T14:48:44Z</time><pdop>4.0</pdop><geoidheight>54.00</geoidheight><course>319.9</course><type>1</type></trkpt>
      <trkpt lat="39.34718078" lon="-6.24040202"><ele>2089</ele><speed>13.00</speed><time>2016-06-21T14:48:45Z</time><pdop>3.0</pdop><geoidheight>54.00</geoidheight><course>330.8</course><type>1</type></trkpt>
      <trkpt lat="39.34738276" lon="-6.24045693"><ele>2090</ele><speed>11.25</speed><time>2016-06-21T14:48:47Z</time><pdop>3.0</pdop><geoidheight>54.00</geoidheight><course>352.3</course><type>1</type></trkpt>
      <trkpt lat="39.34747552" lon="-6.24044476"><ele>2091</ele><speed>10.25</speed><time>2016-06-21T14:48:48Z</time><pdop>3.0</pdop><geoidheight>54.00</geoidheight><course>5.0</course><type>1</type></trkpt>
      <trkpt lat="39.34761704" lon="-6.24036832"><ele>2094</ele><speed>7.50</speed><time>2016-06-21T14:48:50Z</time><pdop>3.0</pdop><geoidheight>54.00</geoidheight><course>24.6</course><type>1</type></trkpt>
      <trkpt lat="39.34777555" lon="-6.24023447"><ele>2095</ele><speed>7.00</speed><time>2016-06-21T14:48:53Z</time><pdop>6.0</pdop><geoidheight>54.00</geoidheight><course>32.2</course><type>1</type></trkpt>
      <trkpt lat="39.34792493" lon="-6.24010836"><ele>2098</ele><speed>6.50</speed><time>2016-06-21T14:48:56Z</time><pdop>6.0</pdop><geoidheight>54.00</geoidheight><course>29.6</course><type>1</type></trkpt>
      <trkpt lat="39.34804615" lon="-6.23997814"><ele>2097</ele><speed>5.75</speed><time>2016-06-21T14:48:59Z</time><pdop>3.0</pdop><geoidheight>54.00</geoidheight><course>51.7</course><type>1</type></trkpt>
      <trkpt lat="39.34806017" lon="-6.23985178"><ele>2097</ele><speed>5.50</speed><time>2016-06-21T14:49:01Z</time><pdop>4.0</pdop><geoidheight>54.00</geoidheight><course>80.7</course><type>1</type></trkpt>
      <trkpt lat="39.34797844" lon="-6.23978808"><ele>2098</ele><speed>4.75</speed><time>2016-06-21T14:49:03Z</time><pdop>3.0</pdop><geoidheight>54.00</geoidheight><course>143.1</course><type>1</type></trkpt>
      <trkpt lat="39.34788404" lon="-6.2397898"><ele>2100</ele><speed>5.25</speed><time>2016-06-21T14:49:05Z</time><pdop>3.0</pdop><geoidheight>54.00</geoidheight><course>189.1</course><type>1</type></trkpt>
      <trkpt lat="39.34778722" lon="-6.23987153"><ele>2101</ele><speed>6.75</speed><time>2016-06-21T14:49:07Z</time><pdop>3.0</pdop><geoidheight>54.00</geoidheight><course>215.6</course><type>1</type></trkpt>
      <trkpt lat="39.34768013" lon="-6.23999839"><ele>2100</ele><speed>8.50</speed><time>2016-06-21T14:49:09Z</time><pdop>3.0</pdop><geoidheight>54.00</geoidheight><course>224.2</course><type>1</type></trkpt>
      <trkpt lat="39.34762581" lon="-6.24006643"><ele>2100</ele><speed>8.50</speed><time>2016-06-21T14:49:10Z</time><pdop>5.0</pdop><geoidheight>54.00</geoidheight><course>224.2</course><type>1</type></trkpt>
      <trkpt lat="39.34758251" lon="-6.24018983"><ele>2099</ele><speed>10.25</speed><time>2016-06-21T14:49:11Z</time><pdop>3.0</pdop><geoidheight>54.00</geoidheight><course>237.4</course><type>1</type></trkpt>
      <trkpt lat="39.34753429" lon="-6.2403062"><ele>2098</ele><speed>11.00</speed><time>2016-06-21T14:49:12Z</time><pdop>3.0</pdop><geoidheight>54.00</geoidheight><course>240.0</course><type>1</type></trkpt>
      <trkpt lat="39.34748314" lon="-6.24042703"><ele>2098</ele><speed>11.75</speed><time>2016-06-21T14:49:13Z</time><pdop>3.0</pdop><geoidheight>54.00</geoidheight><course>240.4</course><type>1</type></trkpt>
      <trkpt lat="39.34738139" lon="-6.24067404"><ele>2097</ele><speed>12.00</speed><time>2016-06-21T14:49:15Z</time><pdop>3.0</pdop><geoidheight>54.00</geoidheight><course>242.2</course><type>1</type></trkpt>
      <trkpt lat="39.34729304" lon="-6.24092126"><ele>2096</ele><speed>11.75</speed><time>2016-06-21T14:49:17Z</time><pdop>3.0</pdop><geoidheight>54.00</geoidheight><course>243.8</course><type>1</type></trkpt>
      <trkpt lat="39.34719666" lon="-6.24118652"><ele>2094</ele><speed>12.75</speed><time>2016-06-21T14:49:19Z</time><pdop>3.0</pdop><geoidheight>54.00</geoidheight><course>245.7</course><type>1</type></trkpt>
      <trkpt lat="39.34714957" lon="-6.2413208"><ele>2093</ele><speed>12.75</speed><time>2016-06-21T14:49:20Z</time><pdop>5.0</pdop><geoidheight>54.00</geoidheight><course>245.7</course><type>1</type></trkpt>
      <trkpt lat="39.34712166" lon="-6.24145938"><ele>2095</ele><speed>12.25</speed><time>2016-06-21T14:49:21Z</time><pdop>3.0</pdop><geoidheight>54.00</geoidheight><course>251.1</course><type>1</type></trkpt>
      <trkpt lat="39.34708809" lon="-6.24159538"><ele>2095</ele><speed>12.00</speed><time>2016-06-21T14:49:22Z</time><pdop>3.0</pdop><geoidheight>54.00</geoidheight><course>252.3</course><type>1</type></trkpt>
      <trkpt lat="39.34701874" lon="-6.24187166"><ele>2097</ele><speed>12.75</speed><time>2016-06-21T14:49:24Z</time><pdop>3.0</pdop><geoidheight>54.00</geoidheight><course>251.2</course><type>1</type></trkpt>
      <trkpt lat="39.34693674" lon="-6.24213279"><ele>2103</ele><speed>12.00</speed><time>2016-06-21T14:49:26Z</time><pdop>4.0</pdop><geoidheight>54.00</geoidheight><course>247.6</course><type>1</type></trkpt>
      <trkpt lat="39.34688652" lon="-6.24222159"><ele>2106</ele><speed>10.25</speed><time>2016-06-21T14:49:27Z</time><pdop>3.0</pdop><geoidheight>54.00</geoidheight><course>240.6</course><type>1</type></trkpt>
      <trkpt lat="39.3467907" lon="-6.24240387"><ele>2108</ele><speed>9.25</speed><time>2016-06-21T14:49:29Z</time><pdop>3.0</pdop><geoidheight>54.00</geoidheight><course>234.1</course><type>1</type></trkpt>
      <trkpt lat="39.34673963" lon="-6.24247375"><ele>2111</ele><speed>8.25</speed><time>2016-06-21T14:49:30Z</time><pdop>4.0</pdop><geoidheight>54.00</geoidheight><course>227.1</course><type>1</type></trkpt>
      <trkpt lat="39.34661199" lon="-6.2425378"><ele>2116</ele><speed>4.25</speed><time>2016-06-21T14:49:33Z</time><pdop>4.0</pdop><geoidheight>54.00</geoidheight><course>195.5</course><type>1</type></trkpt>
      <trkpt lat="39.34652314" lon="-6.24262023"><ele>2119</ele><speed>6.50</speed><time>2016-06-21T14:49:35Z</time><pdop>3.0</pdop><geoidheight>54.00</geoidheight><course>219.5</course><type>1</type></trkpt>
      <trkpt lat="39.34646543" lon="-6.24268429"><ele>2120</ele><speed>8.00</speed><time>2016-06-21T14:49:36Z</time><pdop>3.0</pdop><geoidheight>54.00</geoidheight><course>223.2</course><type>1</type></trkpt>
      <trkpt lat="39.34640751" lon="-6.2427601"><ele>2122</ele><speed>9.25</speed><time>2016-06-21T14:49:37Z</time><pdop>3.0</pdop><geoidheight>54.00</geoidheight><course>226.4</course><type>1</type></trkpt>
      <trkpt lat="39.34635308" lon="-6.24285414"><ele>2123</ele><speed>10.00</speed><time>2016-06-21T14:49:38Z</time><pdop>3.0</pdop><geoidheight>54.00</geoidheight><course>233.8</course><type>1</type></trkpt>
      <trkpt lat="39.34631774" lon="-6.24296898"><ele>2124</ele><speed>10.75</speed><time>2016-06-21T14:49:39Z</time><pdop>3.0</pdop><geoidheight>54.00</geoidheight><course>250.1</course><type>1</type></trkpt>
      <trkpt lat="39.34630277" lon="-6.24310852"><ele>2125</ele><speed>12.25</speed><time>2016-06-21T14:49:40Z</time><pdop>3.0</pdop><geoidheight>54.00</geoidheight><course>262.3</course><type>1</type></trkpt>
      <trkpt lat="39.34630356" lon="-6.24326716"><ele>2125</ele><speed>13.50</speed><time>2016-06-21T14:49:41Z</time><pdop>3.0</pdop><geoidheight>54.00</geoidheight><course>270.2</course><type>1</type></trkpt>
      <trkpt lat="39.34632805" lon="-6.24358824"><ele>2126</ele><speed>14.00</speed><time>2016-06-21T14:49:43Z</time><pdop>5.0</pdop><geoidheight>54.00</geoidheight><course>275.7</course><type>1</type></trkpt>
      <trkpt lat="39.34638086" lon="-6.24371382"><ele>2127</ele><speed>12.50</speed><time>2016-06-21T14:49:44Z</time><pdop>3.0</pdop><geoidheight>54.00</geoidheight><course>289.3</course><type>1</type></trkpt>
      <trkpt lat="39.34648645" lon="-6.24397126"><ele>2129</ele><speed>13.00</speed><time>2016-06-21T14:49:46Z</time><pdop>3.0</pdop><geoidheight>54.00</geoidheight><course>299.8</course><type>1</type></trkpt>
      <trkpt lat="39.34654639" lon="-6.24410774"><ele>2131</ele><speed>13.50</speed><time>2016-06-21T14:49:47Z</time><pdop>3.0</pdop><geoidheight>54.00</geoidheight><course>300.1</course><type>1</type></trkpt>
      <trkpt lat="39.34660257" lon="-6.24424932"><ele>2133</ele><speed>13.75</speed><time>2016-06-21T14:49:48Z</time><pdop>3.0</pdop><geoidheight>54.00</geoidheight><course>297.9</course><type>1</type></trkpt>
      <trkpt lat="39.34666534" lon="-6.24438234"><ele>2134</ele><speed>13.25</speed><time>2016-06-21T14:49:49Z</time><pdop>4.0</pdop><geoidheight>54.00</geoidheight><course>299.3</course><type>1</type></trkpt>
      <trkpt lat="39.34679241" lon="-6.24462896"><ele>2140</ele><speed>12.25</speed><time>2016-06-21T14:49:51Z</time><pdop>3.0</pdop><geoidheight>54.00</geoidheight><course>306.6</course><type>1</type></trkpt>
      <trkpt lat="39.34685837" lon="-6.24474356"><ele>2142</ele><speed>12.25</speed><time>2016-06-21T14:49:52Z</time><pdop>5.0</pdop><geoidheight>54.00</geoidheight><course>306.6</course><type>1</type></trkpt>
      <trkpt lat="39.34695168" lon="-6.24479028"><ele>2143</ele><speed>11.50</speed><time>2016-06-21T14:49:53Z</time><pdop>3.0</pdop><geoidheight>54.00</geoidheight><course>325.4</course><type>1</type></trkpt>
      <trkpt lat="39.34713356" lon="-6.2448888"><ele>2147</ele><speed>11.00</speed><time>2016-06-21T14:49:55Z</time><pdop>3.0</pdop><geoidheight>54.00</geoidheight><course>344.4</course><type>1</type></trkpt>
      <trkpt lat="39.34722512" lon="-6.24489672"><ele>2149</ele><speed>10.25</speed><time>2016-06-21T14:49:56Z</time><pdop>3.0</pdop><geoidheight>54.00</geoidheight><course>352.7</course><type>1</type></trkpt>
      <trkpt lat="39.34730278" lon="-6.24488436"><ele>2151</ele><speed>8.75</speed><time>2016-06-21T14:49:57Z</time><pdop>4.0</pdop><geoidheight>54.00</geoidheight><course>3.9</course><type>1</type></trkpt>
      <trkpt lat="39.34739653" lon="-6.2448011"><ele>2156</ele><speed>6.00</speed><time>2016-06-21T14:49:59Z</time><pdop>3.0</pdop><geoidheight>54.00</geoidheight><course>40.2</course><type>1</type></trkpt>
      <trkpt lat="39.34743513" lon="-6.24467698"><ele>2159</ele><speed>5.75</speed><time>2016-06-21T14:50:01Z</time><pdop>3.0</pdop><geoidheight>54.00</geoidheight><course>75.7</course><type>1</type></trkpt>
      <trkpt lat="39.34743226" lon="-6.24454482"><ele>2160</ele><speed>5.50</speed><time>2016-06-21T14:50:03Z</time><pdop>4.0</pdop><geoidheight>54.00</geoidheight><course>93.3</course><type>1</type></trkpt>
      <trkpt lat="39.34727616" lon="-6.24453905"><ele>2166</ele><speed>7.25</speed><time>2016-06-21T14:50:05Z</time><pdop>3.0</pdop><geoidheight>54.00</geoidheight><course>176.6</course><type>1</type></trkpt>
      <trkpt lat="39.34713836" lon="-6.24461285"><ele>2170</ele><speed>8.75</speed><time>2016-06-21T14:50:07Z</time><pdop>3.0</pdop><geoidheight>54.00</geoidheight><course>209.3</course><type>1</type></trkpt>
      <trkpt lat="39.34707812" lon="-6.2446625"><ele>2170</ele><speed>8.00</speed><time>2016-06-21T14:50:08Z</time><pdop>4.0</pdop><geoidheight>54.00</geoidheight><course>210.8</course><type>1</type></trkpt>
      <trkpt lat="39.34703514" lon="-6.24475477"><ele>2171</ele><speed>8.75</speed><time>2016-06-21T14:50:09Z</time><pdop>4.0</pdop><geoidheight>54.00</geoidheight><course>230.1</course><type>1</type></trkpt>
      <trkpt lat="39.34699898" lon="-6.24486849"><ele>2173</ele><speed>10.00</speed><time>2016-06-21T14:50:10Z</time><pdop>3.0</pdop><geoidheight>54.00</geoidheight><course>244.8</course><type>1</type></trkpt>
      <trkpt lat="39.3469705" lon="-6.24513838"><ele>2173</ele><speed>12.50</speed><time>2016-06-21T14:50:12Z</time><pdop>4.0</pdop><geoidheight>54.00</geoidheight><course>266.0</course><type>1</type></trkpt>
      <trkpt lat="39.34697729" lon="-6.24530217"><ele>2173</ele><speed>14.00</speed><time>2016-06-21T14:50:13Z</time><pdop>3.0</pdop><geoidheight>54.00</geoidheight><course>273.4</course><type>1</type></trkpt>
      <trkpt lat="39.34700097" lon="-6.24547308"><ele>2175</ele><speed>15.00</speed><time>2016-06-21T14:50:14Z</time><pdop>3.0</pdop><geoidheight>54.00</geoidheight><course>279.3</course><type>1</type></trkpt>
      <trkpt lat="39.3470913" lon="-6.24579675"><ele>2180</ele><speed>14.50</speed><time>2016-06-21T14:50:16Z</time><pdop>3.0</pdop><geoidheight>54.00</geoidheight><course>293.2</course><type>1</type></trkpt>
      <trkpt lat="39.34715811" lon="-6.24592449"><ele>2183</ele><speed>13.50</speed><time>2016-06-21T14:50:17Z</time><pdop>3.0</pdop><geoidheight>54.00</geoidheight><course>302.3</course><type>1</type></trkpt>
      <trkpt lat="39.34723133" lon="-6.24603534"><ele>2185</ele><speed>12.75</speed><time>2016-06-21T14:50:18Z</time><pdop>3.0</pdop><geoidheight>54.00</geoidheight><course>309.7</course><type>1</type></trkpt>
      <trkpt lat="39.34740416" lon="-6.24622369"><ele>2189</ele><speed>12.50</speed><time>2016-06-21T14:50:20Z</time><pdop>4.0</pdop><geoidheight>54.00</geoidheight><course>320.9</course><type>1</type></trkpt>
      <trkpt lat="39.34759125" lon="-6.24636723"><ele>2195</ele><speed>11.75</speed><time>2016-06-21T14:50:22Z</time><pdop>3.0</pdop><geoidheight>54.00</geoidheight><course>333.8</course><type>1</type></trkpt>
      <trkpt lat="39.34776475" lon="-6.2463957"><ele>2199</ele><speed>9.25</speed><time>2016-06-21T14:50:24Z</time><pdop>3.0</pdop><geoidheight>54.00</geoidheight><course>358.0</course><type>1</type></trkpt>
      <trkpt lat="39.34783614" lon="-6.2463789"><ele>2201</ele><speed>8.00</speed><time>2016-06-21T14:50:25Z</time><pdop>3.0</pdop><geoidheight>54.00</geoidheight><course>10.9</course><type>1</type></trkpt>
      <trkpt lat="39.34789591" lon="-6.24634341"><ele>2203</ele><speed>7.00</speed><time>2016-06-21T14:50:26Z</time><pdop>3.0</pdop><geoidheight>54.00</geoidheight><course>24.8</course><type>1</type></trkpt>
      <trkpt lat="39.34794303" lon="-6.24625882"><ele>2206</ele><speed>4.25</speed><time>2016-06-21T14:50:28Z</time><pdop>4.0</pdop><geoidheight>54.00</geoidheight><course>61.7</course><type>1</type></trkpt>
      <trkpt lat="39.34784777" lon="-6.24624171"><ele>2208</ele><speed>5.00</speed><time>2016-06-21T14:50:30Z</time><pdop>3.0</pdop><geoidheight>54.00</geoidheight><course>170.3</course><type>1</type></trkpt>
      <trkpt lat="39.34774595" lon="-6.24626344"><ele>2213</ele><speed>6.00</speed><time>2016-06-21T14:50:32Z</time><pdop>3.0</pdop><geoidheight>54.00</geoidheight><course>194.7</course><type>1</type></trkpt>
      <trkpt lat="39.3476292" lon="-6.24636674"><ele>2216</ele><speed>8.25</speed><time>2016-06-21T14:50:34Z</time><pdop>3.0</pdop><geoidheight>54.00</geoidheight><course>215.8</course><type>1</type></trkpt>
      <trkpt lat="39.34756585" lon="-6.24643891"><ele>2217</ele><speed>9.25</speed><time>2016-06-21T14:50:35Z</time><pdop>3.0</pdop><geoidheight>54.00</geoidheight><course>220.2</course><type>1</type></trkpt>
      <trkpt lat="39.34749914" lon="-6.2465255"><ele>2219</ele><speed>10.00</speed><time>2016-06-21T14:50:36Z</time><pdop>3.0</pdop><geoidheight>54.00</geoidheight><course>224.6</course><type>1</type></trkpt>
      <trkpt lat="39.34738895" lon="-6.24673753"><ele>2224</ele><speed>11.50</speed><time>2016-06-21T14:50:38Z</time><pdop>3.0</pdop><geoidheight>54.00</geoidheight><course>238.9</course><type>1</type></trkpt>
      <trkpt lat="39.34734303" lon="-6.24687236"><ele>2226</ele><speed>12.50</speed><time>2016-06-21T14:50:39Z</time><pdop>3.0</pdop><geoidheight>54.00</geoidheight><course>245.6</course><type>1</type></trkpt>
      <trkpt lat="39.3472835" lon="-6.24716739"><ele>2232</ele><speed>13.25</speed><time>2016-06-21T14:50:41Z</time><pdop>3.0</pdop><geoidheight>54.00</geoidheight><course>257.4</course><type>1</type></trkpt>
      <trkpt lat="39.34728503" lon="-6.24745676"><ele>2236</ele><speed>12.50</speed><time>2016-06-21T14:50:43Z</time><pdop>3.0</pdop><geoidheight>54.00</geoidheight><course>273.8</course><type>1</type></trkpt>
      <trkpt lat="39.3473124" lon="-6.24759965"><ele>2237</ele><speed>12.75</speed><time>2016-06-21T14:50:44Z</time><pdop>3.0</pdop><geoidheight>54.00</geoidheight><course>282.9</course><type>1</type></trkpt>
      <trkpt lat="39.34736013" lon="-6.24774414"><ele>2239</ele><speed>13.50</speed><time>2016-06-21T14:50:45Z</time><pdop>3.0</pdop><geoidheight>54.00</geoidheight><course>292.3</course><type>1</type></trkpt>
      <trkpt lat="39.34750764" lon="-6.24800128"><ele>2244</ele><speed>13.75</speed><time>2016-06-21T14:50:47Z</time><pdop>3.0</pdop><geoidheight>54.00</geoidheight><course>308.7</course><type>1</type></trkpt>
      <trkpt lat="39.34758986" lon="-6.24809817"><ele>2246</ele><speed>12.50</speed><time>2016-06-21T14:50:48Z</time><pdop>3.0</pdop><geoidheight>54.00</geoidheight><course>316.1</course><type>1</type></trkpt>
      <trkpt lat="39.34775707" lon="-6.24822929"><ele>2250</ele><speed>10.75</speed><time>2016-06-21T14:50:50Z</time><pdop>3.0</pdop><geoidheight>54.00</geoidheight><course>330.0</course><type>1</type></trkpt>
      <trkpt lat="39.34783648" lon="-6.24827069"><ele>2252</ele><speed>9.75</speed><time>2016-06-21T14:50:51Z</time><pdop>3.0</pdop><geoidheight>54.00</geoidheight><course>338.0</course><type>1</type></trkpt>
      <trkpt lat="39.34790838" lon="-6.2482897"><ele>2254</ele><speed>8.25</speed><time>2016-06-21T14:50:52Z</time><pdop>3.0</pdop><geoidheight>54.00</geoidheight><course>347.6</course><type>1</type></trkpt>
      <trkpt lat="39.34797325" lon="-6.24828442"><ele>2254</ele><speed>7.50</speed><time>2016-06-21T14:50:53Z</time><pdop>4.0</pdop><geoidheight>54.00</geoidheight><course>2.3</course><type>1</type></trkpt>
      <trkpt lat="39.34806419" lon="-6.24819495"><ele>2254</ele><speed>6.25</speed><time>2016-06-21T14:50:55Z</time><pdop>3.0</pdop><geoidheight>54.00</geoidheight><course>44.1</course><type>1</type></trkpt>
      <trkpt lat="39.348078" lon="-6.24808309"><ele>2258</ele><speed>4.50</speed><time>2016-06-21T14:50:57Z</time><pdop>4.0</pdop><geoidheight>54.00</geoidheight><course>85.7</course><type>1</type></trkpt>
      <trkpt lat="39.34799416" lon="-6.2480336"><ele>2264</ele><speed>4.00</speed><time>2016-06-21T14:51:00Z</time><pdop>3.0</pdop><geoidheight>54.00</geoidheight><course>173.1</course><type>1</type></trkpt>
      <trkpt lat="39.34786832" lon="-6.24805216"><ele>2265</ele><speed>7.25</speed><time>2016-06-21T14:51:02Z</time><pdop>3.0</pdop><geoidheight>54.00</geoidheight><course>189.9</course><type>1</type></trkpt>
      <trkpt lat="39.3477989" lon="-6.24808814"><ele>2267</ele><speed>8.25</speed><time>2016-06-21T14:51:03Z</time><pdop>4.0</pdop><geoidheight>54.00</geoidheight><course>201.7</course><type>1</type></trkpt>
      <trkpt lat="39.34772793" lon="-6.2481577"><ele>2269</ele><speed>9.50</speed><time>2016-06-21T14:51:04Z</time><pdop>3.0</pdop><geoidheight>54.00</geoidheight><course>215.3</course><type>1</type></trkpt>
      <trkpt lat="39.34766866" lon="-6.24824768"><ele>2271</ele><speed>10.25</speed><time>2016-06-21T14:51:05Z</time><pdop>3.0</pdop><geoidheight>54.00</geoidheight><course>227.0</course><type>1</type></trkpt>
      <trkpt lat="39.34761295" lon="-6.24835383"><ele>2272</ele><speed>11.00</speed><time>2016-06-21T14:51:06Z</time><pdop>3.0</pdop><geoidheight>54.00</geoidheight><course>235.5</course><type>1</type></trkpt>
      <trkpt lat="39.34756382" lon="-6.24847502"><ele>2273</ele><speed>11.50</speed><time>2016-06-21T14:51:07Z</time><pdop>3.0</pdop><geoidheight>54.00</geoidheight><course>241.1</course><type>1</type></trkpt>
      <trkpt lat="39.34747854" lon="-6.24875826"><ele>2276</ele><speed>13.75</speed><time>2016-06-21T14:51:09Z</time><pdop>3.0</pdop><geoidheight>54.00</geoidheight><course>250.1</course><type>1</type></trkpt>
      <trkpt lat="39.34746525" lon="-6.24909433"><ele>2280</ele><speed>14.75</speed><time>2016-06-21T14:51:11Z</time><pdop>3.0</pdop><geoidheight>54.00</geoidheight><course>272.0</course><type>1</type></trkpt>
      <trkpt lat="39.34749672" lon="-6.24925613"><ele>2282</ele><speed>14.25</speed><time>2016-06-21T14:51:12Z</time><pdop>3.0</pdop><geoidheight>54.00</geoidheight><course>283.0</course><type>1</type></trkpt>
      <trkpt lat="39.34754731" lon="-6.24939586"><ele>2283</ele><speed>13.50</speed><time>2016-06-21T14:51:13Z</time><pdop>3.0</pdop><geoidheight>54.00</geoidheight><course>293.8</course><type>1</type></trkpt>
      <trkpt lat="39.34768798" lon="-6.24964097"><ele>2285</ele><speed>13.25</speed><time>2016-06-21T14:51:15Z</time><pdop>3.0</pdop><geoidheight>54.00</geoidheight><course>308.5</course><type>1</type></trkpt>
      <trkpt lat="39.3478692" lon="-6.24981815"><ele>2286</ele><speed>12.50</speed><time>2016-06-21T14:51:17Z</time><pdop>3.0</pdop><geoidheight>54.00</geoidheight><course>327.3</course><type>1</type></trkpt>
      <trkpt lat="39.34796564" lon="-6.24986463"><ele>2286</ele><speed>11.50</speed><time>2016-06-21T14:51:18Z</time><pdop>4.0</pdop><geoidheight>54.00</geoidheight><course>337.5</course><type>1</type></trkpt>
      <trkpt lat="39.34804643" lon="-6.24987762"><ele>2286</ele><speed>9.50</speed><time>2016-06-21T14:51:19Z</time><pdop>3.0</pdop><geoidheight>54.00</geoidheight><course>350.1</course><type>1</type></trkpt>
      <trkpt lat="39.34817193" lon="-6.24982226"><ele>2285</ele><speed>7.25</speed><time>2016-06-21T14:51:21Z</time><pdop>4.0</pdop><geoidheight>54.00</geoidheight><course>24.3</course><type>1</type></trkpt>
      <trkpt lat="39.348233" lon="-6.24962908"><ele>2282</ele><speed>5.75</speed><time>2016-06-21T14:51:24Z</time><pdop>3.0</pdop><geoidheight>54.00</geoidheight><course>78.8</course><type>1</type></trkpt>
      <trkpt lat="39.3482065" lon="-6.24949791"><ele>2284</ele><speed>6.00</speed><time>2016-06-21T14:51:26Z</time><pdop>4.0</pdop><geoidheight>54.00</geoidheight><course>107.4</course><type>1</type></trkpt>
      <trkpt lat="39.34812093" lon="-6.24948979"><ele>2285</ele><speed>6.75</speed><time>2016-06-21T14:51:27Z</time><pdop>3.0</pdop><geoidheight>54.00</geoidheight><course>155.9</course><type>1</type></trkpt>
      <trkpt lat="39.34803925" lon="-6.2494787"><ele>2287</ele><speed>8.25</speed><time>2016-06-21T14:51:28Z</time><pdop>3.0</pdop><geoidheight>54.00</geoidheight><course>170.8</course><type>1</type></trkpt>
      <trkpt lat="39.34795781" lon="-6.24948003"><ele>2289</ele><speed>9.00</speed><time>2016-06-21T14:51:29Z</time><pdop>3.0</pdop><geoidheight>54.00</geoidheight><course>180.4</course><type>1</type></trkpt>
      <trkpt lat="39.34780391" lon="-6.24955739"><ele>2291</ele><speed>9.50</speed><time>2016-06-21T14:51:31Z</time><pdop>3.0</pdop><geoidheight>54.00</geoidheight><course>205.7</course><type>1</type></trkpt>
      <trkpt lat="39.3477291" lon="-6.24964054"><ele>2292</ele><speed>10.75</speed><time>2016-06-21T14:51:32Z</time><pdop>3.0</pdop><geoidheight>54.00</geoidheight><course>219.7</course><type>1</type></trkpt>
      <trkpt lat="39.34765701" lon="-6.24974844"><ele>2293</ele><speed>12.25</speed><time>2016-06-21T14:51:33Z</time><pdop>3.0</pdop><geoidheight>54.00</geoidheight><course>227.8</course><type>1</type></trkpt>
      <trkpt lat="39.34759278" lon="-6.24987367"><ele>2295</ele><speed>12.75</speed><time>2016-06-21T14:51:34Z</time><pdop>3.0</pdop><geoidheight>54.00</geoidheight><course>235.9</course><type>1</type></trkpt>
      <trkpt lat="39.34752934" lon="-6.25012699"><ele>2300</ele><speed>11.25</speed><time>2016-06-21T14:51:36Z</time><pdop>3.0</pdop><geoidheight>54.00</geoidheight><course>256.6</course><type>1</type></trkpt>
      <trkpt lat="39.34753306" lon="-6.25025051"><ele>2301</ele><speed>10.50</speed><time>2016-06-21T14:51:37Z</time><pdop>3.0</pdop><geoidheight>54.00</geoidheight><course>269.8</course><type>1</type></trkpt>
      <trkpt lat="39.34754579" lon="-6.25037982"><ele>2302</ele><speed>11.25</speed><time>2016-06-21T14:51:38Z</time><pdop>4.0</pdop><geoidheight>54.00</geoidheight><course>277.0</course><type>1</type></trkpt>
      <trkpt lat="39.34764322" lon="-6.25061477"><ele>2302</ele><speed>11.50</speed><time>2016-06-21T14:51:40Z</time><pdop>4.0</pdop><geoidheight>54.00</geoidheight><course>297.3</course><type>1</type></trkpt>
      <trkpt lat="39.34773606" lon="-6.2508507"><ele>2304</ele><speed>11.50</speed><time>2016-06-21T14:51:42Z</time><pdop>4.0</pdop><geoidheight>54.00</geoidheight><course>295.6</course><type>1</type></trkpt>
      <trkpt lat="39.34777952" lon="-6.25097777"><ele>2304</ele><speed>11.75</speed><time>2016-06-21T14:51:43Z</time><pdop>3.0</pdop><geoidheight>54.00</geoidheight><course>294.4</course><type>1</type></trkpt>
      <trkpt lat="39.34783259" lon="-6.25110674"><ele>2304</ele><speed>12.25</speed><time>2016-06-21T14:51:44Z</time><pdop>3.0</pdop><geoidheight>54.00</geoidheight><course>298.0</course><type>1</type></trkpt>
      <trkpt lat="39.3479645" lon="-6.25131221"><ele>2304</ele><speed>11.50</speed><time>2016-06-21T14:51:46Z</time><pdop>3.0</pdop><geoidheight>54.00</geoidheight><course>314.6</course><type>1</type></trkpt>
      <trkpt lat="39.34804463" lon="-6.25137962"><ele>2303</ele><speed>10.75</speed><time>2016-06-21T14:51:47Z</time><pdop>3.0</pdop><geoidheight>54.00</geoidheight><course>325.4</course><type>1</type></trkpt>
      <trkpt lat="39.3481259" lon="-6.25141353"><ele>2302</ele><speed>9.50</speed><time>2016-06-21T14:51:48Z</time><pdop>3.0</pdop><geoidheight>54.00</geoidheight><course>337.6</course><type>1</type></trkpt>
      <trkpt lat="39.34820001" lon="-6.25141833"><ele>2300</ele><speed>8.25</speed><time>2016-06-21T14:51:49Z</time><pdop>3.0</pdop><geoidheight>54.00</geoidheight><course>354.8</course><type>1</type></trkpt>
      <trkpt lat="39.34826873" lon="-6.2513884"><ele>2299</ele><speed>8.00</speed><time>2016-06-21T14:51:50Z</time><pdop>4.0</pdop><geoidheight>54.00</geoidheight><course>15.8</course><type>1</type></trkpt>
      <trkpt lat="39.3483029" lon="-6.25127103"><ele>2299</ele><speed>5.50</speed><time>2016-06-21T14:51:52Z</time><pdop>4.0</pdop><geoidheight>54.00</geoidheight><course>79.7</course><type>1</type></trkpt>
      <trkpt lat="39.3482276" lon="-6.25118812"><ele>2299</ele><speed>5.75</speed><time>2016-06-21T14:51:54Z</time><pdop>3.0</pdop><geoidheight>54.00</geoidheight><course>149.7</course><type>1</type></trkpt>
      <trkpt lat="39.34808421" lon="-6.25118015"><ele>2299</ele><speed>8.00</speed><time>2016-06-21T14:51:56Z</time><pdop>4.0</pdop><geoidheight>54.00</geoidheight><course>181.1</course><type>1</type></trkpt>
      <trkpt lat="39.34791319" lon="-6.25126037"><ele>2300</ele><speed>10.50</speed><time>2016-06-21T14:51:58Z</time><pdop>3.0</pdop><geoidheight>54.00</geoidheight><course>201.8</course><type>1</type></trkpt>
      <trkpt lat="39.34783138" lon="-6.25133487"><ele>2300</ele><speed>10.75</speed><time>2016-06-21T14:51:59Z</time><pdop>3.0</pdop><geoidheight>54.00</geoidheight><course>213.2</course><type>1</type></trkpt>
      <trkpt lat="39.34776331" lon="-6.25143249"><ele>2300</ele><speed>11.00</speed><time>2016-06-21T14:52:00Z</time><pdop>3.0</pdop><geoidheight>54.00</geoidheight><course>225.6</course><type>1</type></trkpt>
      <trkpt lat="39.34770806" lon="-6.25155077"><ele>2300</ele><speed>11.75</speed><time>2016-06-21T14:52:01Z</time><pdop>3.0</pdop><geoidheight>54.00</geoidheight><course>237.9</course><type>1</type></trkpt>
      <trkpt lat="39.34764433" lon="-6.25183575"><ele>2300</ele><speed>13.00</speed><time>2016-06-21T14:52:03Z</time><pdop>3.0</pdop><geoidheight>54.00</geoidheight><course>258.9</course><type>1</type></trkpt>
      <trkpt lat="39.34764416" lon="-6.25198426"><ele>2300</ele><speed>13.00</speed><time>2016-06-21T14:52:04Z</time><pdop>3.0</pdop><geoidheight>54.00</geoidheight><course>269.5</course><type>1</type></trkpt>
      <trkpt lat="39.34766584" lon="-6.25212997"><ele>2301</ele><speed>13.00</speed><time>2016-06-21T14:52:05Z</time><pdop>3.0</pdop><geoidheight>54.00</geoidheight><course>279.4</course><type>1</type></trkpt>
      <trkpt lat="39.3477445" lon="-6.25239606"><ele>2301</ele><speed>12.00</speed><time>2016-06-21T14:52:07Z</time><pdop>3.0</pdop><geoidheight>54.00</geoidheight><course>291.5</course><type>1</type></trkpt>
      <trkpt lat="39.34779216" lon="-6.25251551"><ele>2301</ele><speed>11.75</speed><time>2016-06-21T14:52:08Z</time><pdop>3.0</pdop><geoidheight>54.00</geoidheight><course>295.8</course><type>1</type></trkpt>
      <trkpt lat="39.34784505" lon="-6.25262944"><ele>2300</ele><speed>11.50</speed><time>2016-06-21T14:52:09Z</time><pdop>3.0</pdop><geoidheight>54.00</geoidheight><course>299.6</course><type>1</type></trkpt>
      <trkpt lat="39.34796113" lon="-6.25284916"><ele>2299</ele><speed>11.75</speed><time>2016-06-21T14:52:11Z</time><pdop>3.0</pdop><geoidheight>54.00</geoidheight><course>303.9</course><type>1</type></trkpt>
      <trkpt lat="39.34802328" lon="-6.25296457"><ele>2298</ele><speed>12.25</speed><time>2016-06-21T14:52:12Z</time><pdop>3.0</pdop><geoidheight>54.00</geoidheight><course>303.1</course><type>1</type></trkpt>
      <trkpt lat="39.3481535" lon="-6.25321156"><ele>2296</ele><speed>13.00</speed><time>2016-06-21T14:52:14Z</time><pdop>3.0</pdop><geoidheight>54.00</geoidheight><course>302.9</course><type>1</type></trkpt>
      <trkpt lat="39.34821919" lon="-6.25333631"><ele>2296</ele><speed>12.75</speed><time>2016-06-21T14:52:15Z</time><pdop>3.0</pdop><geoidheight>54.00</geoidheight><course>303.4</course><type>1</type></trkpt>
      <trkpt lat="39.34828537" lon="-6.25345529"><ele>2295</ele><speed>12.50</speed><time>2016-06-21T14:52:16Z</time><pdop>3.0</pdop><geoidheight>54.00</geoidheight><course>304.7</course><type>1</type></trkpt>
      <trkpt lat="39.34835153" lon="-6.25357565"><ele>2295</ele><speed>12.75</speed><time>2016-06-21T14:52:17Z</time><pdop>3.0</pdop><geoidheight>54.00</geoidheight><course>304.9</course><type>1</type></trkpt>
      <trkpt lat="39.34848046" lon="-6.25381154"><ele>2293</ele><speed>12.50</speed><time>2016-06-21T14:52:19Z</time><pdop>3.0</pdop><geoidheight>54.00</geoidheight><course>305.5</course><type>1</type></trkpt>
      <trkpt lat="39.34854794" lon="-6.25393217"><ele>2293</ele><speed>12.50</speed><time>2016-06-21T14:52:20Z</time><pdop>3.0</pdop><geoidheight>54.00</geoidheight><course>305.2</course><type>1</type></trkpt>
      <trkpt lat="39.34861211" lon="-6.25405085"><ele>2292</ele><speed>12.50</speed><time>2016-06-21T14:52:21Z</time><pdop>3.0</pdop><geoidheight>54.00</geoidheight><course>304.5</course><type>1</type></trkpt>
      <trkpt lat="39.34867817" lon="-6.25416928"><ele>2292</ele><speed>12.75</speed><time>2016-06-21T14:52:22Z</time><pdop>3.0</pdop><geoidheight>54.00</geoidheight><course>304.8</course><type>1</type></trkpt>
      <trkpt lat="39.34880571" lon="-6.25440453"><ele>2292</ele><speed>12.00</speed><time>2016-06-21T14:52:24Z</time><pdop>3.0</pdop><geoidheight>54.00</geoidheight><course>304.4</course><type>1</type></trkpt>
      <trkpt lat="39.34886268" lon="-6.25451129"><ele>2292</ele><speed>11.25</speed><time>2016-06-21T14:52:25Z</time><pdop>3.0</pdop><geoidheight>54.00</geoidheight><course>304.2</course><type>1</type></trkpt>
      <trkpt lat="39.34891895" lon="-6.25461535"><ele>2291</ele><speed>11.00</speed><time>2016-06-21T14:52:26Z</time><pdop>3.0</pdop><geoidheight>54.00</geoidheight><course>304.8</course><type>1</type></trkpt>
      <trkpt lat="39.34898254" lon="-6.25472476"><ele>2290</ele><speed>11.75</speed><time>2016-06-21T14:52:27Z</time><pdop>4.0</pdop><geoidheight>54.00</geoidheight><course>305.8</course><type>1</type></trkpt>
      <trkpt lat="39.3490519" lon="-6.25483964"><ele>2290</ele><speed>12.50</speed><time>2016-06-21T14:52:28Z</time><pdop>4.0</pdop><geoidheight>54.00</geoidheight><course>307.8</course><type>1</type></trkpt>
      <trkpt lat="39.34920419" lon="-6.25507146"><ele>2289</ele><speed>13.00</speed><time>2016-06-21T14:52:30Z</time><pdop>6.0</pdop><geoidheight>54.00</geoidheight><course>310.6</course><type>1</type></trkpt>
      <trkpt lat="39.34935258" lon="-6.25525717"><ele>2291</ele><speed>11.75</speed><time>2016-06-21T14:52:32Z</time><pdop>5.0</pdop><geoidheight>54.00</geoidheight><course>314.2</course><type>1</type></trkpt>
      <trkpt lat="39.34949523" lon="-6.25545602"><ele>2289</ele><speed>12.00</speed><time>2016-06-21T14:52:34Z</time><pdop>3.0</pdop><geoidheight>54.00</geoidheight><course>313.5</course><type>1</type></trkpt>
      <trkpt lat="39.34957334" lon="-6.25555958"><ele>2288</ele><speed>12.25</speed><time>2016-06-21T14:52:35Z</time><pdop>3.0</pdop><geoidheight>54.00</geoidheight><course>314.1</course><type>1</type></trkpt>
      <trkpt lat="39.34965227" lon="-6.25567005"><ele>2287</ele><speed>12.75</speed><time>2016-06-21T14:52:36Z</time><pdop>3.0</pdop><geoidheight>54.00</geoidheight><course>313.4</course><type>1</type></trkpt>
      <trkpt lat="39.34973046" lon="-6.25578298"><ele>2287</ele><speed>13.00</speed><time>2016-06-21T14:52:37Z</time><pdop>3.0</pdop><geoidheight>54.00</geoidheight><course>312.0</course><type>1</type></trkpt>
      <trkpt lat="39.34988983" lon="-6.25599989"><ele>2285</ele><speed>12.75</speed><time>2016-06-21T14:52:39Z</time><pdop>3.0</pdop><geoidheight>54.00</geoidheight><course>314.6</course><type>1</type></trkpt>
      <trkpt lat="39.34997329" lon="-6.25609398"><ele>2283</ele><speed>12.50</speed><time>2016-06-21T14:52:40Z</time><pdop>3.0</pdop><geoidheight>54.00</geoidheight><course>317.2</course><type>1</type></trkpt>
      <trkpt lat="39.35005522" lon="-6.25618808"><ele>2281</ele><speed>12.50</speed><time>2016-06-21T14:52:41Z</time><pdop>3.0</pdop><geoidheight>54.00</geoidheight><course>318.8</course><type>1</type></trkpt>
      <trkpt lat="39.3502329" lon="-6.25638384"><ele>2277</ele><speed>12.75</speed><time>2016-06-21T14:52:43Z</time><pdop>3.0</pdop><geoidheight>54.00</geoidheight><course>318.5</course><type>1</type></trkpt>
      <trkpt lat="39.35031814" lon="-6.25648091"><ele>2276</ele><speed>13.00</speed><time>2016-06-21T14:52:44Z</time><pdop>3.0</pdop><geoidheight>54.00</geoidheight><course>318.4</course><type>1</type></trkpt>
      <trkpt lat="39.35040483" lon="-6.25657641"><ele>2275</ele><speed>12.50</speed><time>2016-06-21T14:52:45Z</time><pdop>3.0</pdop><geoidheight>54.00</geoidheight><course>318.7</course><type>1</type></trkpt>
      <trkpt lat="39.35057731" lon="-6.25676504"><ele>2272</ele><speed>12.50</speed><time>2016-06-21T14:52:47Z</time><pdop>4.0</pdop><geoidheight>54.00</geoidheight><course>320.0</course><type>1</type></trkpt>
      <trkpt lat="39.35075031" lon="-6.25696405"><ele>2270</ele><speed>12.75</speed><time>2016-06-21T14:52:49Z</time><pdop>4.0</pdop><geoidheight>54.00</geoidheight><course>317.6</course><type>1</type></trkpt>
      <trkpt lat="39.35083427" lon="-6.2570689"><ele>2269</ele><speed>12.75</speed><time>2016-06-21T14:52:50Z</time><pdop>4.0</pdop><geoidheight>54.00</geoidheight><course>315.8</course><type>1</type></trkpt>
      <trkpt lat="39.35099834" lon="-6.25726991"><ele>2264</ele><speed>12.75</speed><time>2016-06-21T14:52:52Z</time><pdop>3.0</pdop><geoidheight>54.00</geoidheight><course>315.8</course><type>1</type></trkpt>
      <trkpt lat="39.35116295" lon="-6.25747981"><ele>2259</ele><speed>13.25</speed><time>2016-06-21T14:52:54Z</time><pdop>3.0</pdop><geoidheight>54.00</geoidheight><course>315.0</course><type>1</type></trkpt>
      <trkpt lat="39.35125338" lon="-6.25758782"><ele>2257</ele><speed>13.75</speed><time>2016-06-21T14:52:55Z</time><pdop>3.0</pdop><geoidheight>54.00</geoidheight><course>316.2</course><type>1</type></trkpt>
      <trkpt lat="39.35134279" lon="-6.25768867"><ele>2255</ele><speed>13.25</speed><time>2016-06-21T14:52:56Z</time><pdop>4.0</pdop><geoidheight>54.00</geoidheight><course>317.7</course><type>1</type></trkpt>
      <trkpt lat="39.3515018" lon="-6.25787836"><ele>2252</ele><speed>11.75</speed><time>2016-06-21T14:52:58Z</time><pdop>3.0</pdop><geoidheight>54.00</geoidheight><course>316.2</course><type>1</type></trkpt>
      <trkpt lat="39.35157399" lon="-6.25797928"><ele>2250</ele><speed>11.75</speed><time>2016-06-21T14:52:59Z</time><pdop>3.0</pdop><geoidheight>54.00</geoidheight><course>313.5</course><type>1</type></trkpt>
      <trkpt lat="39.35173356" lon="-6.25819829"><ele>2246</ele><speed>13.25</speed><time>2016-06-21T14:53:01Z</time><pdop>4.0</pdop><geoidheight>54.00</geoidheight><course>313.1</course><type>1</type></trkpt>
      <trkpt lat="39.35181748" lon="-6.25830308"><ele>2245</ele><speed>13.25</speed><time>2016-06-21T14:53:02Z</time><pdop>3.0</pdop><geoidheight>54.00</geoidheight><course>315.2</course><type>1</type></trkpt>
      <trkpt lat="39.35197798" lon="-6.25850245"><ele>2243</ele><speed>12.00</speed><time>2016-06-21T14:53:04Z</time><pdop>3.0</pdop><geoidheight>54.00</geoidheight><course>314.7</course><type>1</type></trkpt>
      <trkpt lat="39.35204867" lon="-6.25860502"><ele>2243</ele><speed>11.75</speed><time>2016-06-21T14:53:05Z</time><pdop>4.0</pdop><geoidheight>54.00</geoidheight><course>312.0</course><type>1</type></trkpt>
      <trkpt lat="39.35212089" lon="-6.25871416"><ele>2242</ele><speed>12.00</speed><time>2016-06-21T14:53:06Z</time><pdop>4.0</pdop><geoidheight>54.00</geoidheight><course>310.7</course><type>1</type></trkpt>
      <trkpt lat="39.3522768" lon="-6.25895737"><ele>2236</ele><speed>13.75</speed><time>2016-06-21T14:53:08Z</time><pdop>3.0</pdop><geoidheight>54.00</geoidheight><course>311.4</course><type>1</type></trkpt>
      <trkpt lat="39.35236462" lon="-6.25907192"><ele>2235</ele><speed>14.00</speed><time>2016-06-21T14:53:09Z</time><pdop>3.0</pdop><geoidheight>54.00</geoidheight><course>313.8</course><type>1</type></trkpt>
      <trkpt lat="39.35245176" lon="-6.25918661"><ele>2233</ele><speed>14.00</speed><time>2016-06-21T14:53:10Z</time><pdop>3.0</pdop><geoidheight>54.00</geoidheight><course>313.5</course><type>1</type></trkpt>
      <trkpt lat="39.35259844" lon="-6.25940912"><ele>2232</ele><speed>12.25</speed><time>2016-06-21T14:53:12Z</time><pdop>3.0</pdop><geoidheight>54.00</geoidheight><course>309.0</course><type>1</type></trkpt>
      <trkpt lat="39.35273964" lon="-6.25964854"><ele>2228</ele><speed>13.00</speed><time>2016-06-21T14:53:14Z</time><pdop>4.0</pdop><geoidheight>54.00</geoidheight><course>307.5</course><type>1</type></trkpt>
      <trkpt lat="39.35289321" lon="-6.25988961"><ele>2222</ele><speed>13.50</speed><time>2016-06-21T14:53:16Z</time><pdop>3.0</pdop><geoidheight>54.00</geoidheight><course>309.8</course><type>1</type></trkpt>
      <trkpt lat="39.35296833" lon="-6.26000662"><ele>2220</ele><speed>13.00</speed><time>2016-06-21T14:53:17Z</time><pdop>3.0</pdop><geoidheight>54.00</geoidheight><course>310.4</course><type>1</type></trkpt>
      <trkpt lat="39.35304109" lon="-6.2601124"><ele>2218</ele><speed>12.50</speed><time>2016-06-21T14:53:18Z</time><pdop>3.0</pdop><geoidheight>54.00</geoidheight><course>311.9</course><type>1</type></trkpt>
      <trkpt lat="39.35311568" lon="-6.26021245"><ele>2215</ele><speed>12.00</speed><time>2016-06-21T14:53:19Z</time><pdop>3.0</pdop><geoidheight>54.00</geoidheight><course>314.0</course><type>1</type></trkpt>
      <trkpt lat="39.35327436" lon="-6.26041094"><ele>2209</ele><speed>12.50</speed><time>2016-06-21T14:53:21Z</time><pdop>3.0</pdop><geoidheight>54.00</geoidheight><course>314.9</course><type>1</type></trkpt>
      <trkpt lat="39.35335568" lon="-6.26051156"><ele>2206</ele><speed>12.50</speed><time>2016-06-21T14:53:22Z</time><pdop>3.0</pdop><geoidheight>54.00</geoidheight><course>316.0</course><type>1</type></trkpt>
      <trkpt lat="39.35352124" lon="-6.26067922"><ele>2200</ele><speed>11.50</speed><time>2016-06-21T14:53:24Z</time><pdop>3.0</pdop><geoidheight>54.00</geoidheight><course>324.0</course><type>1</type></trkpt>
      <trkpt lat="39.35369467" lon="-6.26083338"><ele>2194</ele><speed>11.75</speed><time>2016-06-21T14:53:26Z</time><pdop>3.0</pdop><geoidheight>54.00</geoidheight><course>326.1</course><type>1</type></trkpt>
      <trkpt lat="39.35377935" lon="-6.26090697"><ele>2192</ele><speed>11.25</speed><time>2016-06-21T14:53:27Z</time><pdop>3.0</pdop><geoidheight>54.00</geoidheight><course>326.8</course><type>1</type></trkpt>
      <trkpt lat="39.35386305" lon="-6.2609738"><ele>2190</ele><speed>10.75</speed><time>2016-06-21T14:53:28Z</time><pdop>3.0</pdop><geoidheight>54.00</geoidheight><course>328.2</course><type>1</type></trkpt>
      <trkpt lat="39.35401662" lon="-6.26111759"><ele>2186</ele><speed>10.75</speed><time>2016-06-21T14:53:30Z</time><pdop>3.0</pdop><geoidheight>54.00</geoidheight><course>322.5</course><type>1</type></trkpt>
      <trkpt lat="39.35409665" lon="-6.26120564"><ele>2184</ele><speed>11.75</speed><time>2016-06-21T14:53:31Z</time><pdop>3.0</pdop><geoidheight>54.00</geoidheight><course>318.9</course><type>1</type></trkpt>
      <trkpt lat="39.35426727" lon="-6.26140083"><ele>2182</ele><speed>12.75</speed><time>2016-06-21T14:53:33Z</time><pdop>4.0</pdop><geoidheight>54.00</geoidheight><course>318.2</course><type>1</type></trkpt>
      <trkpt lat="39.35443433" lon="-6.26159789"><ele>2180</ele><speed>12.75</speed><time>2016-06-21T14:53:35Z</time><pdop>3.0</pdop><geoidheight>54.00</geoidheight><course>316.9</course><type>1</type></trkpt>
      <trkpt lat="39.35456968" lon="-6.26182795"><ele>2179</ele><speed>12.50</speed><time>2016-06-21T14:53:37Z</time><pdop>4.0</pdop><geoidheight>54.00</geoidheight><course>304.5</course><type>1</type></trkpt>
      <trkpt lat="39.35463104" lon="-6.26195601"><ele>2179</ele><speed>12.75</speed><time>2016-06-21T14:53:38Z</time><pdop>4.0</pdop><geoidheight>54.00</geoidheight><course>302.9</course><type>1</type></trkpt>
      <trkpt lat="39.35478912" lon="-6.26221448"><ele>2175</ele><speed>13.75</speed><time>2016-06-21T14:53:40Z</time><pdop>3.0</pdop><geoidheight>54.00</geoidheight><course>310.8</course><type>1</type></trkpt>
      <trkpt lat="39.3548769" lon="-6.26233223"><ele>2173</ele><speed>14.00</speed><time>2016-06-21T14:53:41Z</time><pdop>3.0</pdop><geoidheight>54.00</geoidheight><course>313.5</course><type>1</type></trkpt>
      <trkpt lat="39.35496352" lon="-6.26245091"><ele>2172</ele><speed>14.00</speed><time>2016-06-21T14:53:42Z</time><pdop>4.0</pdop><geoidheight>54.00</geoidheight><course>312.8</course><type>1</type></trkpt>
      <trkpt lat="39.35505187" lon="-6.26256732"><ele>2170</ele><speed>14.25</speed><time>2016-06-21T14:53:43Z</time><pdop>3.0</pdop><geoidheight>54.00</geoidheight><course>310.4</course><type>1</type></trkpt>
      <trkpt lat="39.35520767" lon="-6.26282615"><ele>2167</ele><speed>14.00</speed><time>2016-06-21T14:53:45Z</time><pdop>3.0</pdop><geoidheight>54.00</geoidheight><course>305.8</course><type>1</type></trkpt>
      <trkpt lat="39.35528482" lon="-6.26296428"><ele>2166</ele><speed>14.25</speed><time>2016-06-21T14:53:46Z</time><pdop>4.0</pdop><geoidheight>54.00</geoidheight><course>306.4</course><type>1</type></trkpt>
      <trkpt lat="39.35545705" lon="-6.26321388"><ele>2165</ele><speed>14.25</speed><time>2016-06-21T14:53:48Z</time><pdop>3.0</pdop><geoidheight>54.00</geoidheight><course>312.2</course><type>1</type></trkpt>
      <trkpt lat="39.35554352" lon="-6.26333055"><ele>2164</ele><speed>13.75</speed><time>2016-06-21T14:53:49Z</time><pdop>3.0</pdop><geoidheight>54.00</geoidheight><course>312.7</course><type>1</type></trkpt>
      <trkpt lat="39.35562256" lon="-6.26344555"><ele>2163</ele><speed>13.25</speed><time>2016-06-21T14:53:50Z</time><pdop>3.0</pdop><geoidheight>54.00</geoidheight><course>312.4</course><type>1</type></trkpt>
      <trkpt lat="39.35578248" lon="-6.26366139"><ele>2161</ele><speed>13.25</speed><time>2016-06-21T14:53:52Z</time><pdop>4.0</pdop><geoidheight>54.00</geoidheight><course>312.3</course><type>1</type></trkpt>
      <trkpt lat="39.355867429999996" lon="-6.26377895"><ele>2160</ele><speed>13.75</speed><time>2016-06-21T14:53:53Z</time><pdop>3.0</pdop><geoidheight>54.00</geoidheight><course>313.1</course><type>1</type></trkpt>
      <trkpt lat="39.35595553" lon="-6.26390119"><ele>2158</ele><speed>14.25</speed><time>2016-06-21T14:53:54Z</time><pdop>3.0</pdop><geoidheight>54.00</geoidheight><course>313.4</course><type>1</type></trkpt>
      <trkpt lat="39.3561287" lon="-6.26412512"><ele>2157</ele><speed>13.75</speed><time>2016-06-21T14:53:56Z</time><pdop>3.0</pdop><geoidheight>54.00</geoidheight><course>313.8</course><type>1</type></trkpt>
      <trkpt lat="39.35620907" lon="-6.26423677"><ele>2157</ele><speed>13.00</speed><time>2016-06-21T14:53:57Z</time><pdop>4.0</pdop><geoidheight>54.00</geoidheight><course>312.8</course><type>1</type></trkpt>
      <trkpt lat="39.35637024" lon="-6.26445874"><ele>2153</ele><speed>13.50</speed><time>2016-06-21T14:53:59Z</time><pdop>3.0</pdop><geoidheight>54.00</geoidheight><course>311.9</course><type>1</type></trkpt>
      <trkpt lat="39.35644837" lon="-6.26458995"><ele>2152</ele><speed>14.50</speed><time>2016-06-21T14:54:00Z</time><pdop>3.0</pdop><geoidheight>54.00</geoidheight><course>308.8</course><type>1</type></trkpt>
      <trkpt lat="39.35653139" lon="-6.26472663"><ele>2151</ele><speed>15.00</speed><time>2016-06-21T14:54:01Z</time><pdop>4.0</pdop><geoidheight>54.00</geoidheight><course>308.0</course><type>1</type></trkpt>
      <trkpt lat="39.35669947" lon="-6.26498702"><ele>2148</ele><speed>14.25</speed><time>2016-06-21T14:54:03Z</time><pdop>3.0</pdop><geoidheight>54.00</geoidheight><course>310.6</course><type>1</type></trkpt>
      <trkpt lat="39.35687923" lon="-6.26521484"><ele>2142</ele><speed>14.00</speed><time>2016-06-21T14:54:05Z</time><pdop>3.0</pdop><geoidheight>54.00</geoidheight><course>316.9</course><type>1</type></trkpt>
      <trkpt lat="39.35697556" lon="-6.26531585"><ele>2139</ele><speed>13.75</speed><time>2016-06-21T14:54:06Z</time><pdop>3.0</pdop><geoidheight>54.00</geoidheight><course>319.7</course><type>1</type></trkpt>
      <trkpt lat="39.35707461" lon="-6.26540622"><ele>2137</ele><speed>13.50</speed><time>2016-06-21T14:54:07Z</time><pdop>3.0</pdop><geoidheight>54.00</geoidheight><course>324.2</course><type>1</type></trkpt>
      <trkpt lat="39.35727058" lon="-6.2655479"><ele>2131</ele><speed>12.25</speed><time>2016-06-21T14:54:09Z</time><pdop>3.0</pdop><geoidheight>54.00</geoidheight><course>329.6</course><type>1</type></trkpt>
      <trkpt lat="39.35735539" lon="-6.26562215"><ele>2129</ele><speed>11.50</speed><time>2016-06-21T14:54:10Z</time><pdop>3.0</pdop><geoidheight>54.00</geoidheight><course>325.9</course><type>1</type></trkpt>
      <trkpt lat="39.35743059" lon="-6.26570133"><ele>2128</ele><speed>11.00</speed><time>2016-06-21T14:54:11Z</time><pdop>3.0</pdop><geoidheight>54.00</geoidheight><course>320.8</course><type>1</type></trkpt>
      <trkpt lat="39.35757199" lon="-6.26588636"><ele>2121</ele><speed>11.50</speed><time>2016-06-21T14:54:13Z</time><pdop>3.0</pdop><geoidheight>54.00</geoidheight><course>314.4</course><type>1</type></trkpt>
      <trkpt lat="39.3576497" lon="-6.26599537"><ele>2117</ele><speed>12.50</speed><time>2016-06-21T14:54:14Z</time><pdop>3.0</pdop><geoidheight>54.00</geoidheight><course>313.2</course><type>1</type></trkpt>
      <trkpt lat="39.35781033" lon="-6.26623048"><ele>2112</ele><speed>13.25</speed><time>2016-06-21T14:54:16Z</time><pdop>6.0</pdop><geoidheight>54.00</geoidheight><course>311.2</course><type>1</type></trkpt>
      <trkpt lat="39.35794729" lon="-6.26650396"><ele>2108</ele><speed>13.75</speed><time>2016-06-21T14:54:18Z</time><pdop>3.0</pdop><geoidheight>54.00</geoidheight><course>303.8</course><type>1</type></trkpt>
      <trkpt lat="39.35801698" lon="-6.26663378"><ele>2104</ele><speed>13.75</speed><time>2016-06-21T14:54:19Z</time><pdop>3.0</pdop><geoidheight>54.00</geoidheight><course>303.5</course><type>1</type></trkpt>
      <trkpt lat="39.35815917" lon="-6.26691541"><ele>2100</ele><speed>14.50</speed><time>2016-06-21T14:54:21Z</time><pdop>3.0</pdop><geoidheight>54.00</geoidheight><course>303.7</course><type>1</type></trkpt>
      <trkpt lat="39.35822738" lon="-6.26705485"><ele>2099</ele><speed>14.25</speed><time>2016-06-21T14:54:22Z</time><pdop>3.0</pdop><geoidheight>54.00</geoidheight><course>302.1</course><type>1</type></trkpt>
      <trkpt lat="39.35828894" lon="-6.26719292"><ele>2099</ele><speed>13.75</speed><time>2016-06-21T14:54:23Z</time><pdop>4.0</pdop><geoidheight>54.00</geoidheight><course>300.0</course><type>1</type></trkpt>
      <trkpt lat="39.35840546" lon="-6.26746829"><ele>2098</ele><speed>13.50</speed><time>2016-06-21T14:54:25Z</time><pdop>5.0</pdop><geoidheight>54.00</geoidheight><course>298.8</course><type>1</type></trkpt>
      <trkpt lat="39.3584634" lon="-6.2676075"><ele>2096</ele><speed>13.50</speed><time>2016-06-21T14:54:26Z</time><pdop>3.0</pdop><geoidheight>54.00</geoidheight><course>300.3</course><type>1</type></trkpt>
      <trkpt lat="39.35852645" lon="-6.26774051"><ele>2094</ele><speed>13.75</speed><time>2016-06-21T14:54:27Z</time><pdop>3.0</pdop><geoidheight>54.00</geoidheight><course>301.1</course><type>1</type></trkpt>
      <trkpt lat="39.3586583" lon="-6.26801653"><ele>2090</ele><speed>14.25</speed><time>2016-06-21T14:54:29Z</time><pdop>3.0</pdop><geoidheight>54.00</geoidheight><course>301.5</course><type>1</type></trkpt>
      <trkpt lat="39.35872407" lon="-6.26815758"><ele>2088</ele><speed>14.00</speed><time>2016-06-21T14:54:30Z</time><pdop>3.0</pdop><geoidheight>54.00</geoidheight><course>301.2</course><type>1</type></trkpt>
      <trkpt lat="39.35887723" lon="-6.26842074"><ele>2084</ele><speed>14.25</speed><time>2016-06-21T14:54:32Z</time><pdop>3.0</pdop><geoidheight>54.00</geoidheight><course>307.4</course><type>1</type></trkpt>
      <trkpt lat="39.35902769" lon="-6.26867301"><ele>2082</ele><speed>13.75</speed><time>2016-06-21T14:54:34Z</time><pdop>3.0</pdop><geoidheight>54.00</geoidheight><course>307.2</course><type>1</type></trkpt>
      <trkpt lat="39.35910302" lon="-6.26879315"><ele>2081</ele><speed>13.25</speed><time>2016-06-21T14:54:35Z</time><pdop>3.0</pdop><geoidheight>54.00</geoidheight><course>307.5</course><type>1</type></trkpt>
      <trkpt lat="39.35917005" lon="-6.26891435"><ele>2080</ele><speed>13.25</speed><time>2016-06-21T14:54:36Z</time><pdop>4.0</pdop><geoidheight>54.00</geoidheight><course>306.1</course><type>1</type></trkpt>
      <trkpt lat="39.35930834" lon="-6.26915136"><ele>2078</ele><speed>12.50</speed><time>2016-06-21T14:54:38Z</time><pdop>3.0</pdop><geoidheight>54.00</geoidheight><course>307.0</course><type>1</type></trkpt>
      <trkpt lat="39.35937192" lon="-6.2692659"><ele>2076</ele><speed>12.25</speed><time>2016-06-21T14:54:39Z</time><pdop>3.0</pdop><geoidheight>54.00</geoidheight><course>306.5</course><type>1</type></trkpt>
      <trkpt lat="39.35943409" lon="-6.26938356"><ele>2075</ele><speed>12.25</speed><time>2016-06-21T14:54:40Z</time><pdop>3.0</pdop><geoidheight>54.00</geoidheight><course>305.9</course><type>1</type></trkpt>
      <trkpt lat="39.35956404" lon="-6.26962938"><ele>2073</ele><speed>13.00</speed><time>2016-06-21T14:54:42Z</time><pdop>3.0</pdop><geoidheight>54.00</geoidheight><course>304.2</course><type>1</type></trkpt>
      <trkpt lat="39.35963174" lon="-6.26975024"><ele>2072</ele><speed>12.75</speed><time>2016-06-21T14:54:43Z</time><pdop>3.0</pdop><geoidheight>54.00</geoidheight><course>305.5</course><type>1</type></trkpt>
      <trkpt lat="39.35969807" lon="-6.26985836"><ele>2070</ele><speed>12.25</speed><time>2016-06-21T14:54:44Z</time><pdop>3.0</pdop><geoidheight>54.00</geoidheight><course>307.8</course><type>1</type></trkpt>
      <trkpt lat="39.35976604" lon="-6.26995838"><ele>2069</ele><speed>11.75</speed><time>2016-06-21T14:54:45Z</time><pdop>3.0</pdop><geoidheight>54.00</geoidheight><course>310.2</course><type>1</type></trkpt>
      <trkpt lat="39.35984323" lon="-6.270063"><ele>2069</ele><speed>12.25</speed><time>2016-06-21T14:54:46Z</time><pdop>4.0</pdop><geoidheight>54.00</geoidheight><course>310.9</course><type>1</type></trkpt>
      <trkpt lat="39.35991541" lon="-6.27016411"><ele>2069</ele><speed>12.00</speed><time>2016-06-21T14:54:47Z</time><pdop>3.0</pdop><geoidheight>54.00</geoidheight><course>312.4</course><type>1</type></trkpt>
      <trkpt lat="39.36005593" lon="-6.27036568"><ele>2069</ele><speed>11.25</speed><time>2016-06-21T14:54:49Z</time><pdop>3.0</pdop><geoidheight>54.00</geoidheight><course>311.7</course><type>1</type></trkpt>
      <trkpt lat="39.36012297" lon="-6.27046277"><ele>2068</ele><speed>11.25</speed><time>2016-06-21T14:54:50Z</time><pdop>3.0</pdop><geoidheight>54.00</geoidheight><course>311.3</course><type>1</type></trkpt>
      <trkpt lat="39.36025046" lon="-6.27068783"><ele>2068</ele><speed>12.00</speed><time>2016-06-21T14:54:52Z</time><pdop>4.0</pdop><geoidheight>54.00</geoidheight><course>304.8</course><type>1</type></trkpt>
      <trkpt lat="39.36038624" lon="-6.27091911"><ele>2065</ele><speed>12.50</speed><time>2016-06-21T14:54:54Z</time><pdop>3.0</pdop><geoidheight>54.00</geoidheight><course>306.3</course><type>1</type></trkpt>
      <trkpt lat="39.36045346" lon="-6.27104007"><ele>2065</ele><speed>12.75</speed><time>2016-06-21T14:54:55Z</time><pdop>4.0</pdop><geoidheight>54.00</geoidheight><course>306.3</course><type>1</type></trkpt>
      <trkpt lat="39.36052151" lon="-6.2711547"><ele>2064</ele><speed>12.50</speed><time>2016-06-21T14:54:56Z</time><pdop>3.0</pdop><geoidheight>54.00</geoidheight><course>307.8</course><type>1</type></trkpt>
      <trkpt lat="39.36066033" lon="-6.27138017"><ele>2061</ele><speed>12.50</speed><time>2016-06-21T14:54:58Z</time><pdop>3.0</pdop><geoidheight>54.00</geoidheight><course>306.9</course><type>1</type></trkpt>
      <trkpt lat="39.36072904" lon="-6.27151245"><ele>2060</ele><speed>13.50</speed><time>2016-06-21T14:54:59Z</time><pdop>3.0</pdop><geoidheight>54.00</geoidheight><course>303.6</course><type>1</type></trkpt>
      <trkpt lat="39.36079885" lon="-6.27164545"><ele>2060</ele><speed>14.00</speed><time>2016-06-21T14:55:00Z</time><pdop>3.0</pdop><geoidheight>54.00</geoidheight><course>303.1</course><type>1</type></trkpt>
      <trkpt lat="39.36086907" lon="-6.27176971"><ele>2061</ele><speed>13.50</speed><time>2016-06-21T14:55:01Z</time><pdop>3.0</pdop><geoidheight>54.00</geoidheight><course>306.2</course><type>1</type></trkpt>
      <trkpt lat="39.3610075" lon="-6.27198663"><ele>2061</ele><speed>12.25</speed><time>2016-06-21T14:55:03Z</time><pdop>4.0</pdop><geoidheight>54.00</geoidheight><course>310.4</course><type>1</type></trkpt>
      <trkpt lat="39.36116043" lon="-6.27222366"><ele>2060</ele><speed>13.50</speed><time>2016-06-21T14:55:05Z</time><pdop>3.0</pdop><geoidheight>54.00</geoidheight><course>309.2</course><type>1</type></trkpt>
      <trkpt lat="39.3612351" lon="-6.27235577"><ele>2059</ele><speed>14.00</speed><time>2016-06-21T14:55:06Z</time><pdop>3.0</pdop><geoidheight>54.00</geoidheight><course>306.3</course><type>1</type></trkpt>
      <trkpt lat="39.36137033" lon="-6.27262559"><ele>2060</ele><speed>14.00</speed><time>2016-06-21T14:55:08Z</time><pdop>3.0</pdop><geoidheight>54.00</geoidheight><course>301.8</course><type>1</type></trkpt>
      <trkpt lat="39.36143966" lon="-6.27275786"><ele>2060</ele><speed>13.75</speed><time>2016-06-21T14:55:09Z</time><pdop>3.0</pdop><geoidheight>54.00</geoidheight><course>303.6</course><type>1</type></trkpt>
      <trkpt lat="39.36150915" lon="-6.27288046"><ele>2060</ele><speed>13.25</speed><time>2016-06-21T14:55:10Z</time><pdop>3.0</pdop><geoidheight>54.00</geoidheight><course>305.2</course><type>1</type></trkpt>
      <trkpt lat="39.36164977" lon="-6.27312768"><ele>2059</ele><speed>13.25</speed><time>2016-06-21T14:55:12Z</time><pdop>3.0</pdop><geoidheight>54.00</geoidheight><course>306.1</course><type>1</type></trkpt>
      <trkpt lat="39.36172389" lon="-6.27325256"><ele>2058</ele><speed>13.50</speed><time>2016-06-21T14:55:13Z</time><pdop>3.0</pdop><geoidheight>54.00</geoidheight><course>306.5</course><type>1</type></trkpt>
      <trkpt lat="39.36180081" lon="-6.27337701"><ele>2057</ele><speed>13.50</speed><time>2016-06-21T14:55:14Z</time><pdop>3.0</pdop><geoidheight>54.00</geoidheight><course>306.9</course><type>1</type></trkpt>
      <trkpt lat="39.36193761" lon="-6.2736471"><ele>2056</ele><speed>14.00</speed><time>2016-06-21T14:55:16Z</time><pdop>3.0</pdop><geoidheight>54.00</geoidheight><course>301.3</course><type>1</type></trkpt>
      <trkpt lat="39.36200259" lon="-6.27377638"><ele>2055</ele><speed>13.50</speed><time>2016-06-21T14:55:17Z</time><pdop>3.0</pdop><geoidheight>54.00</geoidheight><course>303.3</course><type>1</type></trkpt>
      <trkpt lat="39.36213618" lon="-6.27398277"><ele>2053</ele><speed>11.00</speed><time>2016-06-21T14:55:19Z</time><pdop>3.0</pdop><geoidheight>54.00</geoidheight><course>311.4</course><type>1</type></trkpt>
      <trkpt lat="39.36220126" lon="-6.27407006"><ele>2050</ele><speed>10.75</speed><time>2016-06-21T14:55:20Z</time><pdop>3.0</pdop><geoidheight>54.00</geoidheight><course>310.8</course><type>1</type></trkpt>
      <trkpt lat="39.36232362" lon="-6.27430495"><ele>2042</ele><speed>13.00</speed><time>2016-06-21T14:55:22Z</time><pdop>3.0</pdop><geoidheight>54.00</geoidheight><course>302.7</course><type>1</type></trkpt>
      <trkpt lat="39.36238786" lon="-6.27444254"><ele>2040</ele><speed>13.75</speed><time>2016-06-21T14:55:23Z</time><pdop>4.0</pdop><geoidheight>54.00</geoidheight><course>301.9</course><type>1</type></trkpt>
      <trkpt lat="39.36245787" lon="-6.27458099"><ele>2038</ele><speed>14.00</speed><time>2016-06-21T14:55:24Z</time><pdop>3.0</pdop><geoidheight>54.00</geoidheight><course>302.9</course><type>1</type></trkpt>
      <trkpt lat="39.36259169" lon="-6.27481922"><ele>2035</ele><speed>12.50</speed><time>2016-06-21T14:55:26Z</time><pdop>3.0</pdop><geoidheight>54.00</geoidheight><course>306.8</course><type>1</type></trkpt>
      <trkpt lat="39.36272391" lon="-6.27505032"><ele>2031</ele><speed>12.50</speed><time>2016-06-21T14:55:28Z</time><pdop>3.0</pdop><geoidheight>54.00</geoidheight><course>305.5</course><type>1</type></trkpt>
      <trkpt lat="39.36278486" lon="-6.27517419"><ele>2029</ele><speed>12.50</speed><time>2016-06-21T14:55:29Z</time><pdop>3.0</pdop><geoidheight>54.00</geoidheight><course>303.5</course><type>1</type></trkpt>
      <trkpt lat="39.36284886" lon="-6.2752957"><ele>2027</ele><speed>12.50</speed><time>2016-06-21T14:55:30Z</time><pdop>3.0</pdop><geoidheight>54.00</geoidheight><course>302.6</course><type>1</type></trkpt>
      <trkpt lat="39.36297423" lon="-6.27552414"><ele>2022</ele><speed>12.00</speed><time>2016-06-21T14:55:32Z</time><pdop>3.0</pdop><geoidheight>54.00</geoidheight><course>306.9</course><type>1</type></trkpt>
      <trkpt lat="39.36304131" lon="-6.27563119"><ele>2020</ele><speed>11.75</speed><time>2016-06-21T14:55:33Z</time><pdop>3.0</pdop><geoidheight>54.00</geoidheight><course>308.1</course><type>1</type></trkpt>
      <trkpt lat="39.36316302" lon="-6.27584427"><ele>2014</ele><speed>11.50</speed><time>2016-06-21T14:55:35Z</time><pdop>3.0</pdop><geoidheight>54.00</geoidheight><course>305.2</course><type>1</type></trkpt>
      <trkpt lat="39.36322446" lon="-6.27594684"><ele>2011</ele><speed>11.25</speed><time>2016-06-21T14:55:36Z</time><pdop>3.0</pdop><geoidheight>54.00</geoidheight><course>306.5</course><type>1</type></trkpt>
      <trkpt lat="39.36336234" lon="-6.27617151"><ele>2009</ele><speed>12.50</speed><time>2016-06-21T14:55:38Z</time><pdop>4.0</pdop><geoidheight>54.00</geoidheight><course>309.4</course><type>1</type></trkpt>
      <trkpt lat="39.36343929" lon="-6.27627816"><ele>2008</ele><speed>12.50</speed><time>2016-06-21T14:55:39Z</time><pdop>3.0</pdop><geoidheight>54.00</geoidheight><course>311.7</course><type>1</type></trkpt>
      <trkpt lat="39.36350818" lon="-6.27638409"><ele>2007</ele><speed>12.00</speed><time>2016-06-21T14:55:40Z</time><pdop>3.0</pdop><geoidheight>54.00</geoidheight><course>310.8</course><type>1</type></trkpt>
      <trkpt lat="39.36363315" lon="-6.27658595"><ele>2006</ele><speed>11.00</speed><time>2016-06-21T14:55:42Z</time><pdop>3.0</pdop><geoidheight>54.00</geoidheight><course>306.6</course><type>1</type></trkpt>
      <trkpt lat="39.36376143" lon="-6.27679826"><ele>2002</ele><speed>12.00</speed><time>2016-06-21T14:55:44Z</time><pdop>3.0</pdop><geoidheight>54.00</geoidheight><course>307.9</course><type>1</type></trkpt>
      <trkpt lat="39.3639062" lon="-6.2770316"><ele>2000</ele><speed>13.00</speed><time>2016-06-21T14:55:46Z</time><pdop>4.0</pdop><geoidheight>54.00</geoidheight><course>309.1</course><type>1</type></trkpt>
      <trkpt lat="39.36398424" lon="-6.27714809"><ele>2000</ele><speed>13.25</speed><time>2016-06-21T14:55:47Z</time><pdop>4.0</pdop><geoidheight>54.00</geoidheight><course>309.7</course><type>1</type></trkpt>
      <trkpt lat="39.36406223" lon="-6.27725319"><ele>2000</ele><speed>12.75</speed><time>2016-06-21T14:55:48Z</time><pdop>4.0</pdop><geoidheight>54.00</geoidheight><course>312.2</course><type>1</type></trkpt>
      <trkpt lat="39.36415054" lon="-6.27733409"><ele>1998</ele><speed>12.00</speed><time>2016-06-21T14:55:49Z</time><pdop>3.0</pdop><geoidheight>54.00</geoidheight><course>319.4</course><type>1</type></trkpt>
      <trkpt lat="39.36431732" lon="-6.27750158"><ele>1994</ele><speed>11.75</speed><time>2016-06-21T14:55:51Z</time><pdop>3.0</pdop><geoidheight>54.00</geoidheight><course>320.9</course><type>1</type></trkpt>
      <trkpt lat="39.36439603" lon="-6.27758489"><ele>1992</ele><speed>11.25</speed><time>2016-06-21T14:55:52Z</time><pdop>4.0</pdop><geoidheight>54.00</geoidheight><course>319.9</course><type>1</type></trkpt>
      <trkpt lat="39.36447414" lon="-6.2776752"><ele>1990</ele><speed>11.50</speed><time>2016-06-21T14:55:53Z</time><pdop>3.0</pdop><geoidheight>54.00</geoidheight><course>317.4</course><type>1</type></trkpt>
      <trkpt lat="39.36463426" lon="-6.27786218"><ele>1984</ele><speed>12.50</speed><time>2016-06-21T14:55:55Z</time><pdop>3.0</pdop><geoidheight>54.00</geoidheight><course>316.9</course><type>1</type></trkpt>
      <trkpt lat="39.36472193" lon="-6.27795894"><ele>1982</ele><speed>13.00</speed><time>2016-06-21T14:55:56Z</time><pdop>3.0</pdop><geoidheight>54.00</geoidheight><course>318.5</course><type>1</type></trkpt>
      <trkpt lat="39.36480916" lon="-6.27805659"><ele>1981</ele><speed>12.75</speed><time>2016-06-21T14:55:57Z</time><pdop>3.0</pdop><geoidheight>54.00</geoidheight><course>318.9</course><type>1</type></trkpt>
      <trkpt lat="39.36495715" lon="-6.27825117"><ele>1977</ele><speed>11.50</speed><time>2016-06-21T14:55:59Z</time><pdop>3.0</pdop><geoidheight>54.00</geoidheight><course>312.8</course><type>1</type></trkpt>
      <trkpt lat="39.36502191" lon="-6.27835089"><ele>1976</ele><speed>11.25</speed><time>2016-06-21T14:56:00Z</time><pdop>4.0</pdop><geoidheight>54.00</geoidheight><course>310.9</course><type>1</type></trkpt>
      <trkpt lat="39.36509196" lon="-6.27844982"><ele>1976</ele><speed>11.25</speed><time>2016-06-21T14:56:01Z</time><pdop>5.0</pdop><geoidheight>54.00</geoidheight><course>312.3</course><type>1</type></trkpt>
      <trkpt lat="39.3652497" lon="-6.27865381"><ele>1972</ele><speed>12.75</speed><time>2016-06-21T14:56:03Z</time><pdop>3.0</pdop><geoidheight>54.00</geoidheight><course>316.1</course><type>1</type></trkpt>
      <trkpt lat="39.36532345" lon="-6.27875578"><ele>1970</ele><speed>12.50</speed><time>2016-06-21T14:56:04Z</time><pdop>3.0</pdop><geoidheight>54.00</geoidheight><course>310.8</course><type>1</type></trkpt>
      <trkpt lat="39.36542732" lon="-6.27898775"><ele>1969</ele><speed>11.50</speed><time>2016-06-21T14:56:06Z</time><pdop>4.0</pdop><geoidheight>54.00</geoidheight><course>298.2</course><type>1</type></trkpt>
      <trkpt lat="39.36548773" lon="-6.2790867"><ele>1965</ele><speed>10.75</speed><time>2016-06-21T14:56:07Z</time><pdop>3.0</pdop><geoidheight>54.00</geoidheight><course>304.3</course><type>1</type></trkpt>
      <trkpt lat="39.3655479" lon="-6.27919498"><ele>1963</ele><speed>11.50</speed><time>2016-06-21T14:56:08Z</time><pdop>4.0</pdop><geoidheight>54.00</geoidheight><course>305.1</course><type>1</type></trkpt>
      <trkpt lat="39.36561234" lon="-6.2793081"><ele>1963</ele><speed>11.75</speed><time>2016-06-21T14:56:09Z</time><pdop>4.0</pdop><geoidheight>54.00</geoidheight><course>307.4</course><type>1</type></trkpt>
      <trkpt lat="39.36577387" lon="-6.27951641"><ele>1958</ele><speed>12.50</speed><time>2016-06-21T14:56:11Z</time><pdop>3.0</pdop><geoidheight>54.00</geoidheight><course>310.4</course><type>1</type></trkpt>
      <trkpt lat="39.36583596" lon="-6.27961934"><ele>1956</ele><speed>11.50</speed><time>2016-06-21T14:56:12Z</time><pdop>3.0</pdop><geoidheight>54.00</geoidheight><course>308.6</course><type>1</type></trkpt>
      <trkpt lat="39.36589678" lon="-6.27971819"><ele>1955</ele><speed>10.75</speed><time>2016-06-21T14:56:13Z</time><pdop>3.0</pdop><geoidheight>54.00</geoidheight><course>307.9</course><type>1</type></trkpt>
      <trkpt lat="39.36601959" lon="-6.27991998"><ele>1954</ele><speed>11.00</speed><time>2016-06-21T14:56:15Z</time><pdop>5.0</pdop><geoidheight>54.00</geoidheight><course>308.5</course><type>1</type></trkpt>
      <trkpt lat="39.36607485" lon="-6.28006874"><ele>1953</ele><speed>12.75</speed><time>2016-06-21T14:56:16Z</time><pdop>4.0</pdop><geoidheight>54.00</geoidheight><course>301.1</course><type>1</type></trkpt>
      <trkpt lat="39.36617928" lon="-6.28030501"><ele>1949</ele><speed>11.75</speed><time>2016-06-21T14:56:18Z</time><pdop>3.0</pdop><geoidheight>54.00</geoidheight><course>300.0</course><type>1</type></trkpt>
      <trkpt lat="39.36623213" lon="-6.28041794"><ele>1946</ele><speed>11.50</speed><time>2016-06-21T14:56:19Z</time><pdop>3.0</pdop><geoidheight>54.00</geoidheight><course>300.0</course><type>1</type></trkpt>
      <trkpt lat="39.36628567" lon="-6.28052993"><ele>1942</ele><speed>11.75</speed><time>2016-06-21T14:56:20Z</time><pdop>3.0</pdop><geoidheight>54.00</geoidheight><course>298.8</course><type>1</type></trkpt>
      <trkpt lat="39.36633761" lon="-6.28065104"><ele>1939</ele><speed>12.25</speed><time>2016-06-21T14:56:21Z</time><pdop>4.0</pdop><geoidheight>54.00</geoidheight><course>296.9</course><type>1</type></trkpt>
      <trkpt lat="39.36638235" lon="-6.28078158"><ele>1936</ele><speed>13.00</speed><time>2016-06-21T14:56:22Z</time><pdop>3.0</pdop><geoidheight>54.00</geoidheight><course>293.5</course><type>1</type></trkpt>
      <trkpt lat="39.36645718" lon="-6.28107535"><ele>1931</ele><speed>13.25</speed><time>2016-06-21T14:56:24Z</time><pdop>3.0</pdop><geoidheight>54.00</geoidheight><course>288.9</course><type>1</type></trkpt>
      <trkpt lat="39.36649833" lon="-6.28122112"><ele>1927</ele><speed>13.25</speed><time>2016-06-21T14:56:25Z</time><pdop>3.0</pdop><geoidheight>54.00</geoidheight><course>290.5</course><type>1</type></trkpt>
      <trkpt lat="39.36660374" lon="-6.2815187"><ele>1920</ele><speed>14.00</speed><time>2016-06-21T14:56:27Z</time><pdop>3.0</pdop><geoidheight>54.00</geoidheight><course>296.4</course><type>1</type></trkpt>
      <trkpt lat="39.36665904" lon="-6.28165707"><ele>1917</ele><speed>14.00</speed><time>2016-06-21T14:56:28Z</time><pdop>3.0</pdop><geoidheight>54.00</geoidheight><course>295.3</course><type>1</type></trkpt>
      <trkpt lat="39.36670827" lon="-6.28179956"><ele>1915</ele><speed>13.25</speed><time>2016-06-21T14:56:29Z</time><pdop>3.0</pdop><geoidheight>54.00</geoidheight><course>292.4</course><type>1</type></trkpt>
      <trkpt lat="39.36674521" lon="-6.28193092"><ele>1913</ele><speed>12.75</speed><time>2016-06-21T14:56:30Z</time><pdop>3.0</pdop><geoidheight>54.00</geoidheight><course>289.4</course><type>1</type></trkpt>
      <trkpt lat="39.3668233" lon="-6.28219929"><ele>1907</ele><speed>12.25</speed><time>2016-06-21T14:56:32Z</time><pdop>4.0</pdop><geoidheight>54.00</geoidheight><course>290.6</course><type>1</type></trkpt>
      <trkpt lat="39.36691301" lon="-6.28248226"><ele>1899</ele><speed>13.25</speed><time>2016-06-21T14:56:34Z</time><pdop>4.0</pdop><geoidheight>54.00</geoidheight><course>293.4</course><type>1</type></trkpt>
      <trkpt lat="39.36696512" lon="-6.28262067"><ele>1897</ele><speed>13.25</speed><time>2016-06-21T14:56:35Z</time><pdop>4.0</pdop><geoidheight>54.00</geoidheight><course>294.3</course><type>1</type></trkpt>
      <trkpt lat="39.36701399" lon="-6.28275339"><ele>1895</ele><speed>12.75</speed><time>2016-06-21T14:56:36Z</time><pdop>5.0</pdop><geoidheight>54.00</geoidheight><course>294.8</course><type>1</type></trkpt>
      <trkpt lat="39.36706487" lon="-6.28288627"><ele>1893</ele><speed>12.50</speed><time>2016-06-21T14:56:37Z</time><pdop>5.0</pdop><geoidheight>54.00</geoidheight><course>297.5</course><type>1</type></trkpt>
      <trkpt lat="39.3671824" lon="-6.2831381"><ele>1891</ele><speed>12.50</speed><time>2016-06-21T14:56:39Z</time><pdop>4.0</pdop><geoidheight>54.00</geoidheight><course>300.6</course><type>1</type></trkpt>
      <trkpt lat="39.36723969" lon="-6.28326453"><ele>1890</ele><speed>13.00</speed><time>2016-06-21T14:56:40Z</time><pdop>4.0</pdop><geoidheight>54.00</geoidheight><course>299.2</course><type>1</type></trkpt>
      <trkpt lat="39.36729683" lon="-6.28340507"><ele>1890</ele><speed>13.50</speed><time>2016-06-21T14:56:41Z</time><pdop>3.0</pdop><geoidheight>54.00</geoidheight><course>298.3</course><type>1</type></trkpt>
      <trkpt lat="39.36740946" lon="-6.28368388"><ele>1890</ele><speed>13.50</speed><time>2016-06-21T14:56:43Z</time><pdop>3.0</pdop><geoidheight>54.00</geoidheight><course>298.3</course><type>1</type></trkpt>
      <trkpt lat="39.36746418" lon="-6.2838169"><ele>1891</ele><speed>13.00</speed><time>2016-06-21T14:56:44Z</time><pdop>3.0</pdop><geoidheight>54.00</geoidheight><course>298.2</course><type>1</type></trkpt>
      <trkpt lat="39.36751567" lon="-6.28394197"><ele>1893</ele><speed>12.50</speed><time>2016-06-21T14:56:45Z</time><pdop>3.0</pdop><geoidheight>54.00</geoidheight><course>297.7</course><type>1</type></trkpt>
      <trkpt lat="39.36762882" lon="-6.284183"><ele>1897</ele><speed>12.25</speed><time>2016-06-21T14:56:47Z</time><pdop>3.0</pdop><geoidheight>54.00</geoidheight><course>302.5</course><type>1</type></trkpt>
      <trkpt lat="39.3677498" lon="-6.28440574"><ele>1899</ele><speed>11.75</speed><time>2016-06-21T14:56:49Z</time><pdop>4.0</pdop><geoidheight>54.00</geoidheight><course>302.5</course><type>1</type></trkpt>
      <trkpt lat="39.36785427" lon="-6.28453312"><ele>1901</ele><speed>8.25</speed><time>2016-06-21T14:56:51Z</time><pdop>3.0</pdop><geoidheight>54.00</geoidheight><course>315.8</course><type>1</type></trkpt>
      <trkpt lat="39.36799049" lon="-6.28463257"><ele>1900</ele><speed>8.75</speed><time>2016-06-21T14:56:53Z</time><pdop>3.0</pdop><geoidheight>54.00</geoidheight><course>334.2</course><type>1</type></trkpt>
      <trkpt lat="39.36807534" lon="-6.28466578"><ele>1899</ele><speed>9.50</speed><time>2016-06-21T14:56:54Z</time><pdop>3.0</pdop><geoidheight>54.00</geoidheight><course>344.0</course><type>1</type></trkpt>
      <trkpt lat="39.36825657" lon="-6.28461808"><ele>1898</ele><speed>10.00</speed><time>2016-06-21T14:56:56Z</time><pdop>4.0</pdop><geoidheight>54.00</geoidheight><course>17.6</course><type>1</type></trkpt>
      <trkpt lat="39.36832291" lon="-6.28454422"><ele>1898</ele><speed>9.75</speed><time>2016-06-21T14:56:57Z</time><pdop>3.0</pdop><geoidheight>54.00</geoidheight><course>38.3</course><type>1</type></trkpt>
      <trkpt lat="39.36838709" lon="-6.28438631"><ele>1899</ele><speed>7.00</speed><time>2016-06-21T14:56:59Z</time><pdop>3.0</pdop><geoidheight>54.00</geoidheight><course>64.2</course><type>1</type></trkpt>
      <trkpt lat="39.3684181" lon="-6.28431015"><ele>1898</ele><speed>7.00</speed><time>2016-06-21T14:57:00Z</time><pdop>4.0</pdop><geoidheight>54.00</geoidheight><course>62.8</course><type>1</type></trkpt>
      <trkpt lat="39.36849348" lon="-6.28405065"><ele>1896</ele><speed>8.50</speed><time>2016-06-21T14:57:03Z</time><pdop>3.0</pdop><geoidheight>54.00</geoidheight><course>77.8</course><type>1</type></trkpt>
      <trkpt lat="39.36846187" lon="-6.28389134"><ele>1896</ele><speed>6.50</speed><time>2016-06-21T14:57:05Z</time><pdop>3.0</pdop><geoidheight>54.00</geoidheight><course>111.7</course><type>1</type></trkpt>
      <trkpt lat="39.36836983" lon="-6.28383416"><ele>1894</ele><speed>5.50</speed><time>2016-06-21T14:57:07Z</time><pdop>3.0</pdop><geoidheight>54.00</geoidheight><course>166.0</course><type>1</type></trkpt>
      <trkpt lat="39.36830973" lon="-6.2838478"><ele>1892</ele><speed>6.50</speed><time>2016-06-21T14:57:08Z</time><pdop>3.0</pdop><geoidheight>54.00</geoidheight><course>187.7</course><type>1</type></trkpt>
      <trkpt lat="39.36816485" lon="-6.28387563"><ele>1889</ele><speed>8.00</speed><time>2016-06-21T14:57:10Z</time><pdop>3.0</pdop><geoidheight>54.00</geoidheight><course>186.3</course><type>1</type></trkpt>
      <trkpt lat="39.36809613" lon="-6.28388849"><ele>1889</ele><speed>7.75</speed><time>2016-06-21T14:57:11Z</time><pdop>3.0</pdop><geoidheight>54.00</geoidheight><course>187.7</course><type>1</type></trkpt>
      <trkpt lat="39.36802222" lon="-6.28390786"><ele>1890</ele><speed>8.00</speed><time>2016-06-21T14:57:12Z</time><pdop>3.0</pdop><geoidheight>54.00</geoidheight><course>190.3</course><type>1</type></trkpt>
      <trkpt lat="39.36788343" lon="-6.28395883"><ele>1890</ele><speed>8.25</speed><time>2016-06-21T14:57:14Z</time><pdop>3.0</pdop><geoidheight>54.00</geoidheight><course>200.8</course><type>1</type></trkpt>
      <trkpt lat="39.36782205" lon="-6.28401671"><ele>1888</ele><speed>8.50</speed><time>2016-06-21T14:57:15Z</time><pdop>3.0</pdop><geoidheight>54.00</geoidheight><course>215.1</course><type>1</type></trkpt>
      <trkpt lat="39.36775651" lon="-6.28409101"><ele>1888</ele><speed>9.75</speed><time>2016-06-21T14:57:16Z</time><pdop>4.0</pdop><geoidheight>54.00</geoidheight><course>220.4</course><type>1</type></trkpt>
      <trkpt lat="39.36761709" lon="-6.28428496"><ele>1890</ele><speed>11.00</speed><time>2016-06-21T14:57:18Z</time><pdop>3.0</pdop><geoidheight>54.00</geoidheight><course>226.7</course><type>1</type></trkpt>
      <trkpt lat="39.36755756" lon="-6.28436307"><ele>1891</ele><speed>9.50</speed><time>2016-06-21T14:57:19Z</time><pdop>3.0</pdop><geoidheight>54.00</geoidheight><course>225.3</course><type>1</type></trkpt>
      <trkpt lat="39.36750595" lon="-6.28442436"><ele>1893</ele><speed>8.00</speed><time>2016-06-21T14:57:20Z</time><pdop>3.0</pdop><geoidheight>54.00</geoidheight><course>223.6</course><type>1</type></trkpt>
      <trkpt lat="39.36746325" lon="-6.28449015"><ele>1893</ele><speed>7.50</speed><time>2016-06-21T14:57:21Z</time><pdop>3.0</pdop><geoidheight>54.00</geoidheight><course>227.4</course><type>1</type></trkpt>
      <trkpt lat="39.36739669" lon="-6.28466816"><ele>1893</ele><speed>8.75</speed><time>2016-06-21T14:57:23Z</time><pdop>3.0</pdop><geoidheight>54.00</geoidheight><course>246.5</course><type>1</type></trkpt>
      <trkpt lat="39.36739027" lon="-6.28478153"><ele>1894</ele><speed>9.50</speed><time>2016-06-21T14:57:24Z</time><pdop>3.0</pdop><geoidheight>54.00</geoidheight><course>263.2</course><type>1</type></trkpt>
      <trkpt lat="39.36745729" lon="-6.28498049"><ele>1895</ele><speed>9.50</speed><time>2016-06-21T14:57:26Z</time><pdop>4.0</pdop><geoidheight>54.00</geoidheight><course>299.9</course><type>1</type></trkpt>
      <trkpt lat="39.36755153" lon="-6.28504456"><ele>1896</ele><speed>10.50</speed><time>2016-06-21T14:57:27Z</time><pdop>3.0</pdop><geoidheight>54.00</geoidheight><course>323.1</course><type>1</type></trkpt>
      <trkpt lat="39.36764274" lon="-6.28509521"><ele>1897</ele><speed>10.75</speed><time>2016-06-21T14:57:28Z</time><pdop>4.0</pdop><geoidheight>54.00</geoidheight><course>334.7</course><type>1</type></trkpt>
      <trkpt lat="39.3677264" lon="-6.28511512"><ele>1898</ele><speed>9.25</speed><time>2016-06-21T14:57:29Z</time><pdop>3.0</pdop><geoidheight>54.00</geoidheight><course>347.7</course><type>1</type></trkpt>
      <trkpt lat="39.36785866" lon="-6.28507624"><ele>1898</ele><speed>7.50</speed><time>2016-06-21T14:57:31Z</time><pdop>3.0</pdop><geoidheight>54.00</geoidheight><course>19.3</course><type>1</type></trkpt>
      <trkpt lat="39.36792194" lon="-6.28502907"><ele>1897</ele><speed>7.75</speed><time>2016-06-21T14:57:32Z</time><pdop>4.0</pdop><geoidheight>54.00</geoidheight><course>26.9</course><type>1</type></trkpt>
      <trkpt lat="39.3680382" lon="-6.28480653"><ele>1895</ele><speed>8.25</speed><time>2016-06-21T14:57:35Z</time><pdop>3.0</pdop><geoidheight>54.00</geoidheight><course>71.7</course><type>1</type></trkpt>
      <trkpt lat="39.36803987" lon="-6.28470567"><ele>1894</ele><speed>8.50</speed><time>2016-06-21T14:57:36Z</time><pdop>3.0</pdop><geoidheight>54.00</geoidheight><course>86.0</course><type>1</type></trkpt>
      <trkpt lat="39.36803787" lon="-6.28450934"><ele>1894</ele><speed>8.50</speed><time>2016-06-21T14:57:38Z</time><pdop>4.0</pdop><geoidheight>54.00</geoidheight><course>90.9</course><type>1</type></trkpt>
      <trkpt lat="39.3680362" lon="-6.28441824"><ele>1894</ele><speed>8.00</speed><time>2016-06-21T14:57:39Z</time><pdop>3.0</pdop><geoidheight>54.00</geoidheight><course>92.4</course><type>1</type></trkpt>
      <trkpt lat="39.36803469" lon="-6.28433355"><ele>1893</ele><speed>7.25</speed><time>2016-06-21T14:57:40Z</time><pdop>3.0</pdop><geoidheight>54.00</geoidheight><course>91.3</course><type>1</type></trkpt>
      <trkpt lat="39.36802365" lon="-6.28415778"><ele>1892</ele><speed>8.00</speed><time>2016-06-21T14:57:42Z</time><pdop>3.0</pdop><geoidheight>54.00</geoidheight><course>97.2</course><type>1</type></trkpt>
      <trkpt lat="39.36799927" lon="-6.2840618599999996"><ele>1890</ele><speed>8.50</speed><time>2016-06-21T14:57:43Z</time><pdop>3.0</pdop><geoidheight>54.00</geoidheight><course>107.5</course><type>1</type></trkpt>
      <trkpt lat="39.367967" lon="-6.2839744"><ele>1889</ele><speed>8.25</speed><time>2016-06-21T14:57:44Z</time><pdop>4.0</pdop><geoidheight>54.00</geoidheight><course>114.4</course><type>1</type></trkpt>
      <trkpt lat="39.36782618" lon="-6.28380541"><ele>1881</ele><speed>7.50</speed><time>2016-06-21T14:57:47Z</time><pdop>3.0</pdop><geoidheight>54.00</geoidheight><course>140.3</course><type>1</type></trkpt>
      <trkpt lat="39.36776609" lon="-6.28374684"><ele>1879</ele><speed>8.25</speed><time>2016-06-21T14:57:48Z</time><pdop>3.0</pdop><geoidheight>54.00</geoidheight><course>141.3</course><type>1</type></trkpt>
      <trkpt lat="39.36769785" lon="-6.28370167"><ele>1876</ele><speed>8.50</speed><time>2016-06-21T14:57:49Z</time><pdop>3.0</pdop><geoidheight>54.00</geoidheight><course>150.5</course><type>1</type></trkpt>
      <trkpt lat="39.3676167" lon="-6.28368967"><ele>1874</ele><speed>9.00</speed><time>2016-06-21T14:57:50Z</time><pdop>3.0</pdop><geoidheight>54.00</geoidheight><course>171.6</course><type>1</type></trkpt>
      <trkpt lat="39.36752946" lon="-6.28372958"><ele>1870</ele><speed>10.25</speed><time>2016-06-21T14:57:51Z</time><pdop>3.0</pdop><geoidheight>54.00</geoidheight><course>196.5</course><type>1</type></trkpt>
      <trkpt lat="39.36739229" lon="-6.28396029"><ele>1863</ele><speed>12.75</speed><time>2016-06-21T14:57:53Z</time><pdop>3.0</pdop><geoidheight>54.00</geoidheight><course>238.6</course><type>1</type></trkpt>
      <trkpt lat="39.367366" lon="-6.28411022"><ele>1860</ele><speed>13.00</speed><time>2016-06-21T14:57:54Z</time><pdop>4.0</pdop><geoidheight>54.00</geoidheight><course>255.1</course><type>1</type></trkpt>
      <trkpt lat="39.36736378" lon="-6.28425698"><ele>1859</ele><speed>12.50</speed><time>2016-06-21T14:57:55Z</time><pdop>4.0</pdop><geoidheight>54.00</geoidheight><course>265.6</course><type>1</type></trkpt>
      <trkpt lat="39.36743383" lon="-6.28448564"><ele>1851</ele><speed>10.75</speed><time>2016-06-21T14:57:57Z</time><pdop>3.0</pdop><geoidheight>54.00</geoidheight><course>286.4</course><type>1</type></trkpt>
      <trkpt lat="39.36746838" lon="-6.28460724"><ele>1849</ele><speed>11.00</speed><time>2016-06-21T14:57:58Z</time><pdop>4.0</pdop><geoidheight>54.00</geoidheight><course>287.2</course><type>1</type></trkpt>
      <trkpt lat="39.36749828" lon="-6.28473429"><ele>1849</ele><speed>11.25</speed><time>2016-06-21T14:57:59Z</time><pdop>5.0</pdop><geoidheight>54.00</geoidheight><course>287.0</course><type>1</type></trkpt>
      <trkpt lat="39.36756025" lon="-6.28499448"><ele>1848</ele><speed>11.50</speed><time>2016-06-21T14:58:01Z</time><pdop>3.0</pdop><geoidheight>54.00</geoidheight><course>285.8</course><type>1</type></trkpt>
      <trkpt lat="39.36761469" lon="-6.28525111"><ele>1849</ele><speed>11.00</speed><time>2016-06-21T14:58:03Z</time><pdop>3.0</pdop><geoidheight>54.00</geoidheight><course>284.7</course><type>1</type></trkpt>
      <trkpt lat="39.36763869" lon="-6.28538006"><ele>1849</ele><speed>11.00</speed><time>2016-06-21T14:58:04Z</time><pdop>3.0</pdop><geoidheight>54.00</geoidheight><course>286.3</course><type>1</type></trkpt>
      <trkpt lat="39.36772603" lon="-6.28561293"><ele>1851</ele><speed>10.75</speed><time>2016-06-21T14:58:06Z</time><pdop>3.0</pdop><geoidheight>54.00</geoidheight><course>297.4</course><type>1</type></trkpt>
      <trkpt lat="39.36777749" lon="-6.2857211"><ele>1852</ele><speed>11.00</speed><time>2016-06-21T14:58:07Z</time><pdop>3.0</pdop><geoidheight>54.00</geoidheight><course>300.8</course><type>1</type></trkpt>
      <trkpt lat="39.36783371" lon="-6.28583275"><ele>1853</ele><speed>11.25</speed><time>2016-06-21T14:58:08Z</time><pdop>3.0</pdop><geoidheight>54.00</geoidheight><course>302.2</course><type>1</type></trkpt>
      <trkpt lat="39.36793553" lon="-6.28606962"><ele>1854</ele><speed>11.50</speed><time>2016-06-21T14:58:10Z</time><pdop>4.0</pdop><geoidheight>54.00</geoidheight><course>298.6</course><type>1</type></trkpt>
      <trkpt lat="39.36797978" lon="-6.28619023"><ele>1854</ele><speed>11.50</speed><time>2016-06-21T14:58:11Z</time><pdop>5.0</pdop><geoidheight>54.00</geoidheight><course>296.5</course><type>1</type></trkpt>
      <trkpt lat="39.36802659" lon="-6.28632044"><ele>1854</ele><speed>11.75</speed><time>2016-06-21T14:58:12Z</time><pdop>5.0</pdop><geoidheight>54.00</geoidheight><course>296.1</course><type>1</type></trkpt>
      <trkpt lat="39.36811225" lon="-6.28659069"><ele>1855</ele><speed>12.50</speed><time>2016-06-21T14:58:14Z</time><pdop>5.0</pdop><geoidheight>54.00</geoidheight><course>292.1</course><type>1</type></trkpt>
      <trkpt lat="39.36814682" lon="-6.28673051"><ele>1856</ele><speed>12.50</speed><time>2016-06-21T14:58:15Z</time><pdop>4.0</pdop><geoidheight>54.00</geoidheight><course>289.9</course><type>1</type></trkpt>
      <trkpt lat="39.36818332" lon="-6.28686399"><ele>1856</ele><speed>12.25</speed><time>2016-06-21T14:58:16Z</time><pdop>4.0</pdop><geoidheight>54.00</geoidheight><course>289.2</course><type>1</type></trkpt>
      <trkpt lat="39.36825768" lon="-6.28713769"><ele>1855</ele><speed>12.50</speed><time>2016-06-21T14:58:18Z</time><pdop>3.0</pdop><geoidheight>54.00</geoidheight><course>291.8</course><type>1</type></trkpt>
      <trkpt lat="39.36830704" lon="-6.28726994"><ele>1857</ele><speed>12.75</speed><time>2016-06-21T14:58:19Z</time><pdop>4.0</pdop><geoidheight>54.00</geoidheight><course>295.9</course><type>1</type></trkpt>
      <trkpt lat="39.36836954" lon="-6.28740389"><ele>1860</ele><speed>13.00</speed><time>2016-06-21T14:58:20Z</time><pdop>3.0</pdop><geoidheight>54.00</geoidheight><course>299.4</course><type>1</type></trkpt>
      <trkpt lat="39.36849027" lon="-6.28765543"><ele>1866</ele><speed>12.75</speed><time>2016-06-21T14:58:22Z</time><pdop>3.0</pdop><geoidheight>54.00</geoidheight><course>301.1</course><type>1</type></trkpt>
      <trkpt lat="39.36855161" lon="-6.28777276"><ele>1869</ele><speed>12.25</speed><time>2016-06-21T14:58:23Z</time><pdop>3.0</pdop><geoidheight>54.00</geoidheight><course>303.3</course><type>1</type></trkpt>
      <trkpt lat="39.36861734" lon="-6.28786822"><ele>1872</ele><speed>11.25</speed><time>2016-06-21T14:58:24Z</time><pdop>3.0</pdop><geoidheight>54.00</geoidheight><course>311.7</course><type>1</type></trkpt>
      <trkpt lat="39.36877882" lon="-6.2879983"><ele>1874</ele><speed>10.75</speed><time>2016-06-21T14:58:26Z</time><pdop>4.0</pdop><geoidheight>54.00</geoidheight><course>334.1</course><type>1</type></trkpt>
      <trkpt lat="39.36887197" lon="-6.28803359"><ele>1876</ele><speed>11.00</speed><time>2016-06-21T14:58:27Z</time><pdop>3.0</pdop><geoidheight>54.00</geoidheight><course>344.7</course><type>1</type></trkpt>
      <trkpt lat="39.36895865" lon="-6.28803483"><ele>1878</ele><speed>9.75</speed><time>2016-06-21T14:58:28Z</time><pdop>3.0</pdop><geoidheight>54.00</geoidheight><course>358.9</course><type>1</type></trkpt>
      <trkpt lat="39.36907" lon="-6.28792859"><ele>1879</ele><speed>7.50</speed><time>2016-06-21T14:58:30Z</time><pdop>3.0</pdop><geoidheight>54.00</geoidheight><course>46.0</course><type>1</type></trkpt>
      <trkpt lat="39.3690879" lon="-6.28784529"><ele>1880</ele><speed>7.25</speed><time>2016-06-21T14:58:31Z</time><pdop>3.0</pdop><geoidheight>54.00</geoidheight><course>70.9</course><type>1</type></trkpt>
      <trkpt lat="39.36907535" lon="-6.28770573"><ele>1883</ele><speed>5.75</speed><time>2016-06-21T14:58:33Z</time><pdop>4.0</pdop><geoidheight>54.00</geoidheight><course>104.6</course><type>1</type></trkpt>
      <trkpt lat="39.36890669" lon="-6.28765154"><ele>1888</ele><speed>6.75</speed><time>2016-06-21T14:58:36Z</time><pdop>3.0</pdop><geoidheight>54.00</geoidheight><course>177.9</course><type>1</type></trkpt>
      <trkpt lat="39.3687709" lon="-6.28772867"><ele>1891</ele><speed>8.50</speed><time>2016-06-21T14:58:38Z</time><pdop>3.0</pdop><geoidheight>54.00</geoidheight><course>209.3</course><type>1</type></trkpt>
      <trkpt lat="39.36871156" lon="-6.2878133"><ele>1892</ele><speed>9.50</speed><time>2016-06-21T14:58:39Z</time><pdop>3.0</pdop><geoidheight>54.00</geoidheight><course>225.4</course><type>1</type></trkpt>
      <trkpt lat="39.36866639" lon="-6.28792609"><ele>1894</ele><speed>10.25</speed><time>2016-06-21T14:58:40Z</time><pdop>3.0</pdop><geoidheight>54.00</geoidheight><course>240.6</course><type>1</type></trkpt>
      <trkpt lat="39.36863822" lon="-6.2881661"><ele>1897</ele><speed>10.50</speed><time>2016-06-21T14:58:42Z</time><pdop>3.0</pdop><geoidheight>54.00</geoidheight><course>266.4</course><type>1</type></trkpt>
      <trkpt lat="39.36865237" lon="-6.28829381"><ele>1898</ele><speed>11.00</speed><time>2016-06-21T14:58:43Z</time><pdop>3.0</pdop><geoidheight>54.00</geoidheight><course>276.9</course><type>1</type></trkpt>
      <trkpt lat="39.36867648" lon="-6.28843357"><ele>1898</ele><speed>12.00</speed><time>2016-06-21T14:58:44Z</time><pdop>4.0</pdop><geoidheight>54.00</geoidheight><course>281.5</course><type>1</type></trkpt>
      <trkpt lat="39.36879188" lon="-6.28869941"><ele>1901</ele><speed>13.25</speed><time>2016-06-21T14:58:46Z</time><pdop>3.0</pdop><geoidheight>54.00</geoidheight><course>298.3</course><type>1</type></trkpt>
      <trkpt lat="39.36884828" lon="-6.28882942"><ele>1903</ele><speed>13.00</speed><time>2016-06-21T14:58:47Z</time><pdop>3.0</pdop><geoidheight>54.00</geoidheight><course>299.8</course><type>1</type></trkpt>
      <trkpt lat="39.36890116" lon="-6.28895769"><ele>1905</ele><speed>12.75</speed><time>2016-06-21T14:58:48Z</time><pdop>3.0</pdop><geoidheight>54.00</geoidheight><course>297.9</course><type>1</type></trkpt>
      <trkpt lat="39.36901576" lon="-6.28921868"><ele>1906</ele><speed>13.25</speed><time>2016-06-21T14:58:50Z</time><pdop>4.0</pdop><geoidheight>54.00</geoidheight><course>298.9</course><type>1</type></trkpt>
      <trkpt lat="39.36915332" lon="-6.28946273"><ele>1909</ele><speed>12.50</speed><time>2016-06-21T14:58:52Z</time><pdop>4.0</pdop><geoidheight>54.00</geoidheight><course>308.2</course><type>1</type></trkpt>
      <trkpt lat="39.36923292" lon="-6.2895525899999996"><ele>1910</ele><speed>11.75</speed><time>2016-06-21T14:58:53Z</time><pdop>3.0</pdop><geoidheight>54.00</geoidheight><course>316.0</course><type>1</type></trkpt>
      <trkpt lat="39.3693131" lon="-6.28962166"><ele>1910</ele><speed>10.75</speed><time>2016-06-21T14:58:54Z</time><pdop>3.0</pdop><geoidheight>54.00</geoidheight><course>324.0</course><type>1</type></trkpt>
      <trkpt lat="39.36947666" lon="-6.28970432"><ele>1909</ele><speed>9.75</speed><time>2016-06-21T14:58:56Z</time><pdop>3.0</pdop><geoidheight>54.00</geoidheight><course>342.1</course><type>1</type></trkpt>
      <trkpt lat="39.36956787" lon="-6.28971091"><ele>1908</ele><speed>10.00</speed><time>2016-06-21T14:58:57Z</time><pdop>3.0</pdop><geoidheight>54.00</geoidheight><course>355.9</course><type>1</type></trkpt>
      <trkpt lat="39.36965435" lon="-6.28968358"><ele>1908</ele><speed>10.25</speed><time>2016-06-21T14:58:58Z</time><pdop>4.0</pdop><geoidheight>54.00</geoidheight><course>13.5</course><type>1</type></trkpt>
      <trkpt lat="39.36976823" lon="-6.2895371"><ele>1910</ele><speed>8.25</speed><time>2016-06-21T14:59:00Z</time><pdop>3.0</pdop><geoidheight>54.00</geoidheight><course>50.7</course><type>1</type></trkpt>
      <trkpt lat="39.36978572" lon="-6.28946731"><ele>1911</ele><speed>6.50</speed><time>2016-06-21T14:59:01Z</time><pdop>3.0</pdop><geoidheight>54.00</geoidheight><course>73.0</course><type>1</type></trkpt>
      <trkpt lat="39.3696753" lon="-6.28933252"><ele>1913</ele><speed>6.25</speed><time>2016-06-21T14:59:04Z</time><pdop>3.0</pdop><geoidheight>54.00</geoidheight><course>157.8</course><type>1</type></trkpt>
      <trkpt lat="39.36955455" lon="-6.289382"><ele>1915</ele><speed>7.50</speed><time>2016-06-21T14:59:06Z</time><pdop>3.0</pdop><geoidheight>54.00</geoidheight><course>207.4</course><type>1</type></trkpt>
      <trkpt lat="39.36950433" lon="-6.28946261"><ele>1916</ele><speed>8.75</speed><time>2016-06-21T14:59:07Z</time><pdop>3.0</pdop><geoidheight>54.00</geoidheight><course>229.6</course><type>1</type></trkpt>
      <trkpt lat="39.36946916" lon="-6.28957085"><ele>1917</ele><speed>9.75</speed><time>2016-06-21T14:59:08Z</time><pdop>3.0</pdop><geoidheight>54.00</geoidheight><course>244.8</course><type>1</type></trkpt>
      <trkpt lat="39.36947009" lon="-6.28985214"><ele>1917</ele><speed>12.25</speed><time>2016-06-21T14:59:10Z</time><pdop>3.0</pdop><geoidheight>54.00</geoidheight><course>274.9</course><type>1</type></trkpt>
      <trkpt lat="39.36950885" lon="-6.28999095"><ele>1918</ele><speed>12.75</speed><time>2016-06-21T14:59:11Z</time><pdop>3.0</pdop><geoidheight>54.00</geoidheight><course>288.2</course><type>1</type></trkpt>
      <trkpt lat="39.36955968" lon="-6.29011315"><ele>1918</ele><speed>12.00</speed><time>2016-06-21T14:59:12Z</time><pdop>3.0</pdop><geoidheight>54.00</geoidheight><course>297.1</course><type>1</type></trkpt>
      <trkpt lat="39.3696554" lon="-6.29034749"><ele>1917</ele><speed>11.75</speed><time>2016-06-21T14:59:14Z</time><pdop>4.0</pdop><geoidheight>54.00</geoidheight><course>298.6</course><type>1</type></trkpt>
      <trkpt lat="39.36971556" lon="-6.29045873"><ele>1916</ele><speed>11.75</speed><time>2016-06-21T14:59:15Z</time><pdop>3.0</pdop><geoidheight>54.00</geoidheight><course>303.1</course><type>1</type></trkpt>
      <trkpt lat="39.3697771" lon="-6.29057019"><ele>1915</ele><speed>11.75</speed><time>2016-06-21T14:59:16Z</time><pdop>4.0</pdop><geoidheight>54.00</geoidheight><course>306.0</course><type>1</type></trkpt>
      <trkpt lat="39.36992923" lon="-6.29076286"><ele>1915</ele><speed>11.75</speed><time>2016-06-21T14:59:18Z</time><pdop>4.0</pdop><geoidheight>54.00</geoidheight><course>313.8</course><type>1</type></trkpt>
      <trkpt lat="39.36999818" lon="-6.29084689"><ele>1915</ele><speed>11.25</speed><time>2016-06-21T14:59:19Z</time><pdop>4.0</pdop><geoidheight>54.00</geoidheight><course>314.9</course><type>1</type></trkpt>
      <trkpt lat="39.37007311" lon="-6.2909359"><ele>1915</ele><speed>11.25</speed><time>2016-06-21T14:59:20Z</time><pdop>4.0</pdop><geoidheight>54.00</geoidheight><course>315.3</course><type>1</type></trkpt>
      <trkpt lat="39.37015348" lon="-6.29102586"><ele>1915</ele><speed>11.75</speed><time>2016-06-21T14:59:21Z</time><pdop>3.0</pdop><geoidheight>54.00</geoidheight><course>317.8</course><type>1</type></trkpt>
      <trkpt lat="39.37023492" lon="-6.2911161"><ele>1915</ele><speed>12.25</speed><time>2016-06-21T14:59:22Z</time><pdop>3.0</pdop><geoidheight>54.00</geoidheight><course>319.8</course><type>1</type></trkpt>
      <trkpt lat="39.37042618" lon="-6.29128953"><ele>1918</ele><speed>12.75</speed><time>2016-06-21T14:59:24Z</time><pdop>3.0</pdop><geoidheight>54.00</geoidheight><course>324.7</course><type>1</type></trkpt>
      <trkpt lat="39.37051654" lon="-6.29135798"><ele>1921</ele><speed>11.75</speed><time>2016-06-21T14:59:25Z</time><pdop>3.0</pdop><geoidheight>54.00</geoidheight><course>328.4</course><type>1</type></trkpt>
      <trkpt lat="39.37059875" lon="-6.29141678"><ele>1923</ele><speed>10.75</speed><time>2016-06-21T14:59:26Z</time><pdop>3.0</pdop><geoidheight>54.00</geoidheight><course>332.7</course><type>1</type></trkpt>
      <trkpt lat="39.37076489" lon="-6.29153359"><ele>1925</ele><speed>10.50</speed><time>2016-06-21T14:59:28Z</time><pdop>3.0</pdop><geoidheight>54.00</geoidheight><course>330.3</course><type>1</type></trkpt>
      <trkpt lat="39.37086052" lon="-6.29159775"><ele>1925</ele><speed>11.75</speed><time>2016-06-21T14:59:29Z</time><pdop>3.0</pdop><geoidheight>54.00</geoidheight><course>331.5</course><type>1</type></trkpt>
      <trkpt lat="39.37096275" lon="-6.29165892"><ele>1925</ele><speed>12.50</speed><time>2016-06-21T14:59:30Z</time><pdop>3.0</pdop><geoidheight>54.00</geoidheight><course>334.6</course><type>1</type></trkpt>
      <trkpt lat="39.37116957" lon="-6.29179649"><ele>1928</ele><speed>12.75</speed><time>2016-06-21T14:59:32Z</time><pdop>3.0</pdop><geoidheight>54.00</geoidheight><course>332.1</course><type>1</type></trkpt>
      <trkpt lat="39.37126777" lon="-6.29186441"><ele>1929</ele><speed>12.50</speed><time>2016-06-21T14:59:33Z</time><pdop>3.0</pdop><geoidheight>54.00</geoidheight><course>330.9</course><type>1</type></trkpt>
      <trkpt lat="39.37136233" lon="-6.29193239"><ele>1931</ele><speed>12.00</speed><time>2016-06-21T14:59:34Z</time><pdop>3.0</pdop><geoidheight>54.00</geoidheight><course>331.8</course><type>1</type></trkpt>
      <trkpt lat="39.37154663" lon="-6.29203846"><ele>1933</ele><speed>11.25</speed><time>2016-06-21T14:59:36Z</time><pdop>3.0</pdop><geoidheight>54.00</geoidheight><course>337.8</course><type>1</type></trkpt>
      <trkpt lat="39.37164376" lon="-6.29208705"><ele>1933</ele><speed>11.50</speed><time>2016-06-21T14:59:37Z</time><pdop>3.0</pdop><geoidheight>54.00</geoidheight><course>339.7</course><type>1</type></trkpt>
      <trkpt lat="39.37174424" lon="-6.2921273"><ele>1933</ele><speed>11.75</speed><time>2016-06-21T14:59:38Z</time><pdop>3.0</pdop><geoidheight>54.00</geoidheight><course>341.7</course><type>1</type></trkpt>
      <trkpt lat="39.37184545" lon="-6.29216122"><ele>1934</ele><speed>11.75</speed><time>2016-06-21T14:59:39Z</time><pdop>3.0</pdop><geoidheight>54.00</geoidheight><course>344.4</course><type>1</type></trkpt>
      <trkpt lat="39.37194943" lon="-6.29218994"><ele>1934</ele><speed>11.75</speed><time>2016-06-21T14:59:40Z</time><pdop>3.0</pdop><geoidheight>54.00</geoidheight><course>347.2</course><type>1</type></trkpt>
      <trkpt lat="39.37216019" lon="-6.29223838"><ele>1935</ele><speed>11.75</speed><time>2016-06-21T14:59:42Z</time><pdop>3.0</pdop><geoidheight>54.00</geoidheight><course>350.1</course><type>1</type></trkpt>
      <trkpt lat="39.37226502" lon="-6.29225941"><ele>1936</ele><speed>11.75</speed><time>2016-06-21T14:59:43Z</time><pdop>3.0</pdop><geoidheight>54.00</geoidheight><course>350.7</course><type>1</type></trkpt>
      <trkpt lat="39.37237071" lon="-6.29227517"><ele>1936</ele><speed>11.75</speed><time>2016-06-21T14:59:44Z</time><pdop>3.0</pdop><geoidheight>54.00</geoidheight><course>353.2</course><type>1</type></trkpt>
      <trkpt lat="39.3725887" lon="-6.29228785"><ele>1936</ele><speed>12.25</speed><time>2016-06-21T14:59:46Z</time><pdop>4.0</pdop><geoidheight>54.00</geoidheight><course>357.9</course><type>1</type></trkpt>
      <trkpt lat="39.37270069" lon="-6.29229588"><ele>1937</ele><speed>12.25</speed><time>2016-06-21T14:59:47Z</time><pdop>4.0</pdop><geoidheight>54.00</geoidheight><course>356.3</course><type>1</type></trkpt>
      <trkpt lat="39.37281913" lon="-6.29232149"><ele>1939</ele><speed>13.00</speed><time>2016-06-21T14:59:48Z</time><pdop>3.0</pdop><geoidheight>54.00</geoidheight><course>352.2</course><type>1</type></trkpt>
      <trkpt lat="39.37293047" lon="-6.29234939"><ele>1940</ele><speed>12.75</speed><time>2016-06-21T14:59:49Z</time><pdop>4.0</pdop><geoidheight>54.00</geoidheight><course>348.9</course><type>1</type></trkpt>
      <trkpt lat="39.37303176" lon="-6.29238634"><ele>1942</ele><speed>12.00</speed><time>2016-06-21T14:59:50Z</time><pdop>4.0</pdop><geoidheight>54.00</geoidheight><course>346.6</course><type>1</type></trkpt>
      <trkpt lat="39.37323051" lon="-6.29243881"><ele>1943</ele><speed>11.50</speed><time>2016-06-21T14:59:52Z</time><pdop>3.0</pdop><geoidheight>54.00</geoidheight><course>348.8</course><type>1</type></trkpt>
      <trkpt lat="39.37333143" lon="-6.292457"><ele>1943</ele><speed>11.25</speed><time>2016-06-21T14:59:53Z</time><pdop>3.0</pdop><geoidheight>54.00</geoidheight><course>352.3</course><type>1</type></trkpt>
      <trkpt lat="39.37343044" lon="-6.29246477"><ele>1943</ele><speed>11.25</speed><time>2016-06-21T14:59:54Z</time><pdop>3.0</pdop><geoidheight>54.00</geoidheight><course>357.2</course><type>1</type></trkpt>
      <trkpt lat="39.37361888" lon="-6.29241043"><ele>1943</ele><speed>10.25</speed><time>2016-06-21T14:59:56Z</time><pdop>4.0</pdop><geoidheight>54.00</geoidheight><course>14.7</course><type>1</type></trkpt>
      <trkpt lat="39.37368528" lon="-6.29235598"><ele>1943</ele><speed>9.25</speed><time>2016-06-21T14:59:57Z</time><pdop>3.0</pdop><geoidheight>54.00</geoidheight><course>26.0</course><type>1</type></trkpt>
      <trkpt lat="39.37375065" lon="-6.29229853"><ele>1944</ele><speed>8.50</speed><time>2016-06-21T14:59:58Z</time><pdop>3.0</pdop><geoidheight>54.00</geoidheight><course>33.9</course><type>1</type></trkpt>
      <trkpt lat="39.37383182" lon="-6.29217897"><ele>1946</ele><speed>6.25</speed><time>2016-06-21T15:00:00Z</time><pdop>3.0</pdop><geoidheight>54.00</geoidheight><course>50.0</course><type>1</type></trkpt>
      <trkpt lat="39.37385349" lon="-6.29206905"><ele>1947</ele><speed>4.75</speed><time>2016-06-21T15:00:02Z</time><pdop>3.0</pdop><geoidheight>54.00</geoidheight><course>85.0</course><type>1</type></trkpt>
      <trkpt lat="39.37381344" lon="-6.29197788"><ele>1948</ele><speed>4.50</speed><time>2016-06-21T15:00:04Z</time><pdop>3.0</pdop><geoidheight>54.00</geoidheight><course>127.9</course><type>1</type></trkpt>
      <trkpt lat="39.37365886" lon="-6.29198585"><ele>1952</ele><speed>6.75</speed><time>2016-06-21T15:00:07Z</time><pdop>3.0</pdop><geoidheight>54.00</geoidheight><course>199.0</course><type>1</type></trkpt>
      <trkpt lat="39.37360208" lon="-6.29204123"><ele>1953</ele><speed>7.50</speed><time>2016-06-21T15:00:08Z</time><pdop>3.0</pdop><geoidheight>54.00</geoidheight><course>215.6</course><type>1</type></trkpt>
      <trkpt lat="39.37355408" lon="-6.29212618"><ele>1955</ele><speed>8.50</speed><time>2016-06-21T15:00:09Z</time><pdop>3.0</pdop><geoidheight>54.00</geoidheight><course>231.1</course><type>1</type></trkpt>
      <trkpt lat="39.37349537" lon="-6.29236122"><ele>1956</ele><speed>11.00</speed><time>2016-06-21T15:00:11Z</time><pdop>3.0</pdop><geoidheight>54.00</geoidheight><course>256.8</course><type>1</type></trkpt>
      <trkpt lat="39.37349564" lon="-6.29250451"><ele>1957</ele><speed>12.25</speed><time>2016-06-21T15:00:12Z</time><pdop>3.0</pdop><geoidheight>54.00</geoidheight><course>268.4</course><type>1</type></trkpt>
      <trkpt lat="39.37350679" lon="-6.29266039"><ele>1956</ele><speed>13.50</speed><time>2016-06-21T15:00:13Z</time><pdop>4.0</pdop><geoidheight>54.00</geoidheight><course>275.1</course><type>1</type></trkpt>
      <trkpt lat="39.37362744" lon="-6.29293804"><ele>1958</ele><speed>13.50</speed><time>2016-06-21T15:00:15Z</time><pdop>4.0</pdop><geoidheight>54.00</geoidheight><course>299.0</course><type>1</type></trkpt>
      <trkpt lat="39.37372382" lon="-6.29304726"><ele>1958</ele><speed>13.50</speed><time>2016-06-21T15:00:16Z</time><pdop>3.0</pdop><geoidheight>54.00</geoidheight><course>313.6</course><type>1</type></trkpt>
      <trkpt lat="39.37381535" lon="-6.29314055"><ele>1959</ele><speed>13.00</speed><time>2016-06-21T15:00:17Z</time><pdop>3.0</pdop><geoidheight>54.00</geoidheight><course>321.9</course><type>1</type></trkpt>
      <trkpt lat="39.37400221" lon="-6.29326946"><ele>1960</ele><speed>11.75</speed><time>2016-06-21T15:00:19Z</time><pdop>4.0</pdop><geoidheight>54.00</geoidheight><course>335.4</course><type>1</type></trkpt>
      <trkpt lat="39.374182" lon="-6.29330272"><ele>1960</ele><speed>10.00</speed><time>2016-06-21T15:00:21Z</time><pdop>3.0</pdop><geoidheight>54.00</geoidheight><course>355.9</course><type>1</type></trkpt>
      <trkpt lat="39.37426531" lon="-6.29328237"><ele>1960</ele><speed>9.25</speed><time>2016-06-21T15:00:22Z</time><pdop>3.0</pdop><geoidheight>54.00</geoidheight><course>8.0</course><type>1</type></trkpt>
      <trkpt lat="39.37433918" lon="-6.29324526"><ele>1959</ele><speed>8.75</speed><time>2016-06-21T15:00:23Z</time><pdop>4.0</pdop><geoidheight>54.00</geoidheight><course>20.5</course><type>1</type></trkpt>
      <trkpt lat="39.37443333" lon="-6.29311066"><ele>1959</ele><speed>7.75</speed><time>2016-06-21T15:00:25Z</time><pdop>3.0</pdop><geoidheight>54.00</geoidheight><course>53.3</course><type>1</type></trkpt>
      <trkpt lat="39.37445185" lon="-6.29303779"><ele>1960</ele><speed>6.75</speed><time>2016-06-21T15:00:26Z</time><pdop>3.0</pdop><geoidheight>54.00</geoidheight><course>71.7</course><type>1</type></trkpt>
      <trkpt lat="39.37443373" lon="-6.29292856"><ele>1962</ele><speed>4.50</speed><time>2016-06-21T15:00:28Z</time><pdop>3.0</pdop><geoidheight>54.00</geoidheight><course>113.1</course><type>1</type></trkpt>
      <trkpt lat="39.37437962" lon="-6.29285219"><ele>1964</ele><speed>4.25</speed><time>2016-06-21T15:00:30Z</time><pdop>3.0</pdop><geoidheight>54.00</geoidheight><course>134.0</course><type>1</type></trkpt>
      <trkpt lat="39.37430829" lon="-6.2928004"><ele>1965</ele><speed>4.75</speed><time>2016-06-21T15:00:32Z</time><pdop>3.0</pdop><geoidheight>54.00</geoidheight><course>154.6</course><type>1</type></trkpt>
      <trkpt lat="39.37420455" lon="-6.29279669"><ele>1966</ele><speed>6.00</speed><time>2016-06-21T15:00:34Z</time><pdop>3.0</pdop><geoidheight>54.00</geoidheight><course>182.3</course><type>1</type></trkpt>
      <trkpt lat="39.37408404" lon="-6.29287316"><ele>1969</ele><speed>7.50</speed><time>2016-06-21T15:00:36Z</time><pdop>3.0</pdop><geoidheight>54.00</geoidheight><course>210.8</course><type>1</type></trkpt>
      <trkpt lat="39.37403584" lon="-6.29293997"><ele>1970</ele><speed>8.25</speed><time>2016-06-21T15:00:37Z</time><pdop>3.0</pdop><geoidheight>54.00</geoidheight><course>225.5</course><type>1</type></trkpt>
      <trkpt lat="39.37399394" lon="-6.29303452"><ele>1971</ele><speed>8.75</speed><time>2016-06-21T15:00:38Z</time><pdop>3.0</pdop><geoidheight>54.00</geoidheight><course>238.2</course><type>1</type></trkpt>
      <trkpt lat="39.37396494" lon="-6.2931366"><ele>1972</ele><speed>9.25</speed><time>2016-06-21T15:00:39Z</time><pdop>4.0</pdop><geoidheight>54.00</geoidheight><course>248.2</course><type>1</type></trkpt>
      <trkpt lat="39.37394505" lon="-6.29324581"><ele>1973</ele><speed>9.50</speed><time>2016-06-21T15:00:40Z</time><pdop>3.0</pdop><geoidheight>54.00</geoidheight><course>256.6</course><type>1</type></trkpt>
      <trkpt lat="39.3739365" lon="-6.2935014"><ele>1973</ele><speed>11.00</speed><time>2016-06-21T15:00:42Z</time><pdop>3.0</pdop><geoidheight>54.00</geoidheight><course>270.1</course><type>1</type></trkpt>
      <trkpt lat="39.37394842" lon="-6.29363772"><ele>1972</ele><speed>12.00</speed><time>2016-06-21T15:00:43Z</time><pdop>3.0</pdop><geoidheight>54.00</geoidheight><course>276.7</course><type>1</type></trkpt>
      <trkpt lat="39.37401297" lon="-6.29393898"><ele>1971</ele><speed>13.75</speed><time>2016-06-21T15:00:45Z</time><pdop>3.0</pdop><geoidheight>54.00</geoidheight><course>287.2</course><type>1</type></trkpt>
      <trkpt lat="39.37406629" lon="-6.29408808"><ele>1971</ele><speed>14.25</speed><time>2016-06-21T15:00:46Z</time><pdop>3.0</pdop><geoidheight>54.00</geoidheight><course>294.5</course><type>1</type></trkpt>
      <trkpt lat="39.37413859" lon="-6.29422445"><ele>1971</ele><speed>14.00</speed><time>2016-06-21T15:00:47Z</time><pdop>3.0</pdop><geoidheight>54.00</geoidheight><course>303.3</course><type>1</type></trkpt>
      <trkpt lat="39.37422039" lon="-6.29433775"><ele>1972</ele><speed>13.25</speed><time>2016-06-21T15:00:48Z</time><pdop>4.0</pdop><geoidheight>54.00</geoidheight><course>311.5</course><type>1</type></trkpt>
      <trkpt lat="39.37439359" lon="-6.29452692"><ele>1971</ele><speed>12.50</speed><time>2016-06-21T15:00:50Z</time><pdop>4.0</pdop><geoidheight>54.00</geoidheight><course>319.2</course><type>1</type></trkpt>
      <trkpt lat="39.37447904" lon="-6.29462749"><ele>1971</ele><speed>12.75</speed><time>2016-06-21T15:00:51Z</time><pdop>4.0</pdop><geoidheight>54.00</geoidheight><course>318.1</course><type>1</type></trkpt>
      <trkpt lat="39.37456537" lon="-6.29473112"><ele>1971</ele><speed>12.75</speed><time>2016-06-21T15:00:52Z</time><pdop>4.0</pdop><geoidheight>54.00</geoidheight><course>317.2</course><type>1</type></trkpt>
      <trkpt lat="39.37474027" lon="-6.29488067"><ele>1969</ele><speed>11.50</speed><time>2016-06-21T15:00:54Z</time><pdop>3.0</pdop><geoidheight>54.00</geoidheight><course>329.8</course><type>1</type></trkpt>
      <trkpt lat="39.37483671" lon="-6.29491253"><ele>1967</ele><speed>11.00</speed><time>2016-06-21T15:00:55Z</time><pdop>3.0</pdop><geoidheight>54.00</geoidheight><course>341.8</course><type>1</type></trkpt>
      <trkpt lat="39.37493398" lon="-6.29492685"><ele>1966</ele><speed>11.00</speed><time>2016-06-21T15:00:56Z</time><pdop>3.0</pdop><geoidheight>54.00</geoidheight><course>351.8</course><type>1</type></trkpt>
      <trkpt lat="39.37511483" lon="-6.29490842"><ele>1966</ele><speed>9.75</speed><time>2016-06-21T15:00:58Z</time><pdop>4.0</pdop><geoidheight>54.00</geoidheight><course>8.0</course><type>1</type></trkpt>
      <trkpt lat="39.37517303" lon="-6.2948712"><ele>1966</ele><speed>7.75</speed><time>2016-06-21T15:00:59Z</time><pdop>3.0</pdop><geoidheight>54.00</geoidheight><course>22.7</course><type>1</type></trkpt>
      <trkpt lat="39.37521958" lon="-6.29481548"><ele>1964</ele><speed>6.75</speed><time>2016-06-21T15:01:00Z</time><pdop>3.0</pdop><geoidheight>54.00</geoidheight><course>39.6</course><type>1</type></trkpt>
      <trkpt lat="39.37528139" lon="-6.29470678"><ele>1963</ele><speed>5.75</speed><time>2016-06-21T15:01:02Z</time><pdop>3.0</pdop><geoidheight>54.00</geoidheight><course>56.8</course><type>1</type></trkpt>
      <trkpt lat="39.37530209" lon="-6.29460346"><ele>1963</ele><speed>4.25</speed><time>2016-06-21T15:01:04Z</time><pdop>3.0</pdop><geoidheight>54.00</geoidheight><course>79.1</course><type>1</type></trkpt>
      <trkpt lat="39.37526081" lon="-6.29450066"><ele>1960</ele><speed>5.25</speed><time>2016-06-21T15:01:06Z</time><pdop>3.0</pdop><geoidheight>54.00</geoidheight><course>125.2</course><type>1</type></trkpt>
      <trkpt lat="39.37516089" lon="-6.29444795"><ele>1960</ele><speed>6.25</speed><time>2016-06-21T15:01:08Z</time><pdop>3.0</pdop><geoidheight>54.00</geoidheight><course>165.0</course><type>1</type></trkpt>
      <trkpt lat="39.37510086" lon="-6.29444351"><ele>1959</ele><speed>6.50</speed><time>2016-06-21T15:01:09Z</time><pdop>3.0</pdop><geoidheight>54.00</geoidheight><course>176.1</course><type>1</type></trkpt>
      <trkpt lat="39.374981149999996" lon="-6.29445575"><ele>1958</ele><speed>6.75</speed><time>2016-06-21T15:01:11Z</time><pdop>3.0</pdop><geoidheight>54.00</geoidheight><course>184.8</course><type>1</type></trkpt>
      <trkpt lat="39.37491819" lon="-6.29447297"><ele>1958</ele><speed>6.75</speed><time>2016-06-21T15:01:12Z</time><pdop>3.0</pdop><geoidheight>54.00</geoidheight><course>191.8</course><type>1</type></trkpt>
      <trkpt lat="39.37485994" lon="-6.29451371"><ele>1958</ele><speed>7.25</speed><time>2016-06-21T15:01:13Z</time><pdop>3.0</pdop><geoidheight>54.00</geoidheight><course>205.9</course><type>1</type></trkpt>
      <trkpt lat="39.37476477" lon="-6.29466905"><ele>1957</ele><speed>9.00</speed><time>2016-06-21T15:01:15Z</time><pdop>4.0</pdop><geoidheight>54.00</geoidheight><course>235.1</course><type>1</type></trkpt>
      <trkpt lat="39.37472742" lon="-6.29478402"><ele>1956</ele><speed>10.50</speed><time>2016-06-21T15:01:16Z</time><pdop>3.0</pdop><geoidheight>54.00</geoidheight><course>246.3</course><type>1</type></trkpt>
      <trkpt lat="39.37470105" lon="-6.29491597"><ele>1956</ele><speed>11.50</speed><time>2016-06-21T15:01:17Z</time><pdop>3.0</pdop><geoidheight>54.00</geoidheight><course>255.4</course><type>1</type></trkpt>
      <trkpt lat="39.37471014" lon="-6.29519752"><ele>1956</ele><speed>12.00</speed><time>2016-06-21T15:01:19Z</time><pdop>3.0</pdop><geoidheight>54.00</geoidheight><course>276.4</course><type>1</type></trkpt>
      <trkpt lat="39.3747412" lon="-6.29533879"><ele>1954</ele><speed>12.75</speed><time>2016-06-21T15:01:20Z</time><pdop>3.0</pdop><geoidheight>54.00</geoidheight><course>284.8</course><type>1</type></trkpt>
      <trkpt lat="39.37478377" lon="-6.2954927"><ele>1953</ele><speed>14.00</speed><time>2016-06-21T15:01:21Z</time><pdop>4.0</pdop><geoidheight>54.00</geoidheight><course>288.6</course><type>1</type></trkpt>
      <trkpt lat="39.37487147" lon="-6.29580841"><ele>1952</ele><speed>14.25</speed><time>2016-06-21T15:01:23Z</time><pdop>3.0</pdop><geoidheight>54.00</geoidheight><course>288.8</course><type>1</type></trkpt>
      <trkpt lat="39.37490827" lon="-6.29594925"><ele>1951</ele><speed>13.00</speed><time>2016-06-21T15:01:24Z</time><pdop>3.0</pdop><geoidheight>54.00</geoidheight><course>289.0</course><type>1</type></trkpt>
      <trkpt lat="39.37494764" lon="-6.29607695"><ele>1950</ele><speed>12.00</speed><time>2016-06-21T15:01:25Z</time><pdop>3.0</pdop><geoidheight>54.00</geoidheight><course>292.0</course><type>1</type></trkpt>
      <trkpt lat="39.37504123" lon="-6.29633167"><ele>1950</ele><speed>12.25</speed><time>2016-06-21T15:01:27Z</time><pdop>5.0</pdop><geoidheight>54.00</geoidheight><course>296.4</course><type>1</type></trkpt>
      <trkpt lat="39.37510001" lon="-6.29645774"><ele>1949</ele><speed>12.75</speed><time>2016-06-21T15:01:28Z</time><pdop>4.0</pdop><geoidheight>54.00</geoidheight><course>299.8</course><type>1</type></trkpt>
      <trkpt lat="39.37517332" lon="-6.29659295"><ele>1949</ele><speed>13.50</speed><time>2016-06-21T15:01:29Z</time><pdop>4.0</pdop><geoidheight>54.00</geoidheight><course>303.3</course><type>1</type></trkpt>
      <trkpt lat="39.37532812" lon="-6.29683605"><ele>1946</ele><speed>13.25</speed><time>2016-06-21T15:01:31Z</time><pdop>3.0</pdop><geoidheight>54.00</geoidheight><course>309.4</course><type>1</type></trkpt>
      <trkpt lat="39.37540546" lon="-6.29695607"><ele>1945</ele><speed>13.00</speed><time>2016-06-21T15:01:32Z</time><pdop>3.0</pdop><geoidheight>54.00</geoidheight><course>310.1</course><type>1</type></trkpt>
      <trkpt lat="39.37548316" lon="-6.29706412"><ele>1944</ele><speed>12.75</speed><time>2016-06-21T15:01:33Z</time><pdop>3.0</pdop><geoidheight>54.00</geoidheight><course>310.5</course><type>1</type></trkpt>
      <trkpt lat="39.37562978" lon="-6.2973273"><ele>1942</ele><speed>14.00</speed><time>2016-06-21T15:01:35Z</time><pdop>4.0</pdop><geoidheight>54.00</geoidheight><course>304.4</course><type>1</type></trkpt>
      <trkpt lat="39.3757082" lon="-6.29743295"><ele>1939</ele><speed>13.50</speed><time>2016-06-21T15:01:36Z</time><pdop>3.0</pdop><geoidheight>54.00</geoidheight><course>308.7</course><type>1</type></trkpt>
      <trkpt lat="39.37584113" lon="-6.29766296"><ele>1935</ele><speed>12.25</speed><time>2016-06-21T15:01:38Z</time><pdop>4.0</pdop><geoidheight>54.00</geoidheight><course>305.6</course><type>1</type></trkpt>
      <trkpt lat="39.37590205" lon="-6.29779359"><ele>1935</ele><speed>12.75</speed><time>2016-06-21T15:01:39Z</time><pdop>4.0</pdop><geoidheight>54.00</geoidheight><course>302.6</course><type>1</type></trkpt>
      <trkpt lat="39.37596715" lon="-6.29792376"><ele>1935</ele><speed>13.00</speed><time>2016-06-21T15:01:40Z</time><pdop>5.0</pdop><geoidheight>54.00</geoidheight><course>302.8</course><type>1</type></trkpt>
      <trkpt lat="39.37604587" lon="-6.2980062"><ele>1931</ele><speed>12.50</speed><time>2016-06-21T15:01:41Z</time><pdop>3.0</pdop><geoidheight>54.00</geoidheight><course>308.7</course><type>1</type></trkpt>
      <trkpt lat="39.37618448" lon="-6.29821301"><ele>1928</ele><speed>12.00</speed><time>2016-06-21T15:01:43Z</time><pdop>4.0</pdop><geoidheight>54.00</geoidheight><course>309.4</course><type>1</type></trkpt>
      <trkpt lat="39.3762657" lon="-6.29830576"><ele>1925</ele><speed>12.00</speed><time>2016-06-21T15:01:44Z</time><pdop>3.0</pdop><geoidheight>54.00</geoidheight><course>313.5</course><type>1</type></trkpt>
      <trkpt lat="39.37634349" lon="-6.29840185"><ele>1924</ele><speed>12.25</speed><time>2016-06-21T15:01:45Z</time><pdop>4.0</pdop><geoidheight>54.00</geoidheight><course>314.0</course><type>1</type></trkpt>
      <trkpt lat="39.37649025" lon="-6.29857544"><ele>1922</ele><speed>11.25</speed><time>2016-06-21T15:01:47Z</time><pdop>3.0</pdop><geoidheight>54.00</geoidheight><course>315.5</course><type>1</type></trkpt>
      <trkpt lat="39.37655921" lon="-6.29866453"><ele>1920</ele><speed>10.75</speed><time>2016-06-21T15:01:48Z</time><pdop>3.0</pdop><geoidheight>54.00</geoidheight><course>315.6</course><type>1</type></trkpt>
      <trkpt lat="39.37663037" lon="-6.29875743"><ele>1919</ele><speed>11.25</speed><time>2016-06-21T15:01:49Z</time><pdop>4.0</pdop><geoidheight>54.00</geoidheight><course>314.0</course><type>1</type></trkpt>
      <trkpt lat="39.37679337" lon="-6.29895099"><ele>1915</ele><speed>12.50</speed><time>2016-06-21T15:01:51Z</time><pdop>3.0</pdop><geoidheight>54.00</geoidheight><course>317.3</course><type>1</type></trkpt>
      <trkpt lat="39.37687877" lon="-6.29904801"><ele>1914</ele><speed>12.50</speed><time>2016-06-21T15:01:52Z</time><pdop>4.0</pdop><geoidheight>54.00</geoidheight><course>317.3</course><type>1</type></trkpt>
      <trkpt lat="39.37703639" lon="-6.29924028"><ele>1914</ele><speed>11.75</speed><time>2016-06-21T15:01:54Z</time><pdop>5.0</pdop><geoidheight>54.00</geoidheight><course>315.4</course><type>1</type></trkpt>
      <trkpt lat="39.37710906" lon="-6.29933122"><ele>1914</ele><speed>11.50</speed><time>2016-06-21T15:01:55Z</time><pdop>5.0</pdop><geoidheight>54.00</geoidheight><course>314.6</course><type>1</type></trkpt>
      <trkpt lat="39.37717992" lon="-6.29944413"><ele>1910</ele><speed>12.00</speed><time>2016-06-21T15:01:56Z</time><pdop>3.0</pdop><geoidheight>54.00</geoidheight><course>310.8</course><type>1</type></trkpt>
      <trkpt lat="39.37733683" lon="-6.29963948"><ele>1905</ele><speed>12.75</speed><time>2016-06-21T15:01:58Z</time><pdop>3.0</pdop><geoidheight>54.00</geoidheight><course>310.1</course><type>1</type></trkpt>
      <trkpt lat="39.37740671" lon="-6.29975061"><ele>1904</ele><speed>12.50</speed><time>2016-06-21T15:01:59Z</time><pdop>3.0</pdop><geoidheight>54.00</geoidheight><course>308.6</course><type>1</type></trkpt>
      <trkpt lat="39.37747021" lon="-6.29987099"><ele>1903</ele><speed>12.25</speed><time>2016-06-21T15:02:00Z</time><pdop>4.0</pdop><geoidheight>54.00</geoidheight><course>305.8</course><type>1</type></trkpt>
      <trkpt lat="39.37759211" lon="-6.30010093"><ele>1901</ele><speed>12.50</speed><time>2016-06-21T15:02:02Z</time><pdop>4.0</pdop><geoidheight>54.00</geoidheight><course>304.8</course><type>1</type></trkpt>
      <trkpt lat="39.37766636" lon="-6.30021956"><ele>1900</ele><speed>12.75</speed><time>2016-06-21T15:02:03Z</time><pdop>4.0</pdop><geoidheight>54.00</geoidheight><course>309.3</course><type>1</type></trkpt>
      <trkpt lat="39.37775486" lon="-6.30031504"><ele>1898</ele><speed>13.00</speed><time>2016-06-21T15:02:04Z</time><pdop>3.0</pdop><geoidheight>54.00</geoidheight><course>316.2</course><type>1</type></trkpt>
      <trkpt lat="39.37791724" lon="-6.30048931"><ele>1897</ele><speed>11.25</speed><time>2016-06-21T15:02:06Z</time><pdop>3.0</pdop><geoidheight>54.00</geoidheight><course>319.1</course><type>1</type></trkpt>
      <trkpt lat="39.37798664" lon="-6.30056662"><ele>1895</ele><speed>10.25</speed><time>2016-06-21T15:02:07Z</time><pdop>3.0</pdop><geoidheight>54.00</geoidheight><course>317.3</course><type>1</type></trkpt>
      <trkpt lat="39.37813143" lon="-6.30073007"><ele>1889</ele><speed>11.00</speed><time>2016-06-21T15:02:09Z</time><pdop>3.0</pdop><geoidheight>54.00</geoidheight><course>319.2</course><type>1</type></trkpt>
      <trkpt lat="39.37830968" lon="-6.3008821"><ele>1882</ele><speed>11.75</speed><time>2016-06-21T15:02:11Z</time><pdop>3.0</pdop><geoidheight>54.00</geoidheight><course>326.8</course><type>1</type></trkpt>
      <trkpt lat="39.37839929" lon="-6.30094867"><ele>1879</ele><speed>11.75</speed><time>2016-06-21T15:02:12Z</time><pdop>3.0</pdop><geoidheight>54.00</geoidheight><course>330.4</course><type>1</type></trkpt>
      <trkpt lat="39.37848666" lon="-6.30101483"><ele>1878</ele><speed>11.50</speed><time>2016-06-21T15:02:13Z</time><pdop>3.0</pdop><geoidheight>54.00</geoidheight><course>329.4</course><type>1</type></trkpt>
      <trkpt lat="39.37864609" lon="-6.30116491"><ele>1875</ele><speed>11.00</speed><time>2016-06-21T15:02:15Z</time><pdop>3.0</pdop><geoidheight>54.00</geoidheight><course>321.1</course><type>1</type></trkpt>
      <trkpt lat="39.37881352" lon="-6.30132248"><ele>1871</ele><speed>11.75</speed><time>2016-06-21T15:02:17Z</time><pdop>4.0</pdop><geoidheight>54.00</geoidheight><course>325.2</course><type>1</type></trkpt>
      <trkpt lat="39.37891617" lon="-6.30138132"><ele>1869</ele><speed>12.25</speed><time>2016-06-21T15:02:18Z</time><pdop>3.0</pdop><geoidheight>54.00</geoidheight><course>334.1</course><type>1</type></trkpt>
      <trkpt lat="39.37901414" lon="-6.30143611"><ele>1869</ele><speed>12.00</speed><time>2016-06-21T15:02:19Z</time><pdop>3.0</pdop><geoidheight>54.00</geoidheight><course>335.0</course><type>1</type></trkpt>
      <trkpt lat="39.37910702" lon="-6.30149742"><ele>1869</ele><speed>11.50</speed><time>2016-06-21T15:02:20Z</time><pdop>3.0</pdop><geoidheight>54.00</geoidheight><course>331.4</course><type>1</type></trkpt>
      <trkpt lat="39.37926878" lon="-6.3016299"><ele>1867</ele><speed>10.50</speed><time>2016-06-21T15:02:22Z</time><pdop>3.0</pdop><geoidheight>54.00</geoidheight><course>326.0</course><type>1</type></trkpt>
      <trkpt lat="39.37935197" lon="-6.30169163"><ele>1865</ele><speed>10.50</speed><time>2016-06-21T15:02:23Z</time><pdop>3.0</pdop><geoidheight>54.00</geoidheight><course>328.0</course><type>1</type></trkpt>
      <trkpt lat="39.3794388" lon="-6.30175093"><ele>1862</ele><speed>11.00</speed><time>2016-06-21T15:02:24Z</time><pdop>3.0</pdop><geoidheight>54.00</geoidheight><course>331.4</course><type>1</type></trkpt>
      <trkpt lat="39.37962555" lon="-6.30186998"><ele>1860</ele><speed>11.50</speed><time>2016-06-21T15:02:26Z</time><pdop>4.0</pdop><geoidheight>54.00</geoidheight><course>332.8</course><type>1</type></trkpt>
      <trkpt lat="39.37971125" lon="-6.3019349"><ele>1858</ele><speed>11.00</speed><time>2016-06-21T15:02:27Z</time><pdop>3.0</pdop><geoidheight>54.00</geoidheight><course>330.0</course><type>1</type></trkpt>
      <trkpt lat="39.37979299" lon="-6.30199428"><ele>1857</ele><speed>10.50</speed><time>2016-06-21T15:02:28Z</time><pdop>3.0</pdop><geoidheight>54.00</geoidheight><course>330.3</course><type>1</type></trkpt>
      <trkpt lat="39.3798758" lon="-6.3020491"><ele>1855</ele><speed>10.50</speed><time>2016-06-21T15:02:29Z</time><pdop>3.0</pdop><geoidheight>54.00</geoidheight><course>331.8</course><type>1</type></trkpt>
      <trkpt lat="39.38004822" lon="-6.30215156"><ele>1854</ele><speed>10.75</speed><time>2016-06-21T15:02:31Z</time><pdop>4.0</pdop><geoidheight>54.00</geoidheight><course>335.6</course><type>1</type></trkpt>
      <trkpt lat="39.38014591" lon="-6.30220768"><ele>1852</ele><speed>11.25</speed><time>2016-06-21T15:02:32Z</time><pdop>3.0</pdop><geoidheight>54.00</geoidheight><course>336.5</course><type>1</type></trkpt>
      <trkpt lat="39.38032745" lon="-6.30231243"><ele>1851</ele><speed>11.00</speed><time>2016-06-21T15:02:34Z</time><pdop>4.0</pdop><geoidheight>54.00</geoidheight><course>335.9</course><type>1</type></trkpt>
      <trkpt lat="39.38041578" lon="-6.30236099"><ele>1851</ele><speed>10.75</speed><time>2016-06-21T15:02:35Z</time><pdop>5.0</pdop><geoidheight>54.00</geoidheight><course>335.4</course><type>1</type></trkpt>
      <trkpt lat="39.38059106" lon="-6.30246594"><ele>1848</ele><speed>10.75</speed><time>2016-06-21T15:02:37Z</time><pdop>3.0</pdop><geoidheight>54.00</geoidheight><course>332.3</course><type>1</type></trkpt>
      <trkpt lat="39.38075698" lon="-6.30258894"><ele>1847</ele><speed>10.50</speed><time>2016-06-21T15:02:39Z</time><pdop>4.0</pdop><geoidheight>54.00</geoidheight><course>329.4</course><type>1</type></trkpt>
      <trkpt lat="39.38083813" lon="-6.30265249"><ele>1847</ele><speed>10.75</speed><time>2016-06-21T15:02:40Z</time><pdop>5.0</pdop><geoidheight>54.00</geoidheight><course>327.3</course><type>1</type></trkpt>
      <trkpt lat="39.38092443" lon="-6.30272565"><ele>1847</ele><speed>11.25</speed><time>2016-06-21T15:02:41Z</time><pdop>5.0</pdop><geoidheight>54.00</geoidheight><course>326.7</course><type>1</type></trkpt>
      <trkpt lat="39.381129" lon="-6.30285222"><ele>1840</ele><speed>12.00</speed><time>2016-06-21T15:02:43Z</time><pdop>4.0</pdop><geoidheight>54.00</geoidheight><course>334.2</course><type>1</type></trkpt>
      <trkpt lat="39.38132125" lon="-6.30296434"><ele>1839</ele><speed>11.50</speed><time>2016-06-21T15:02:45Z</time><pdop>5.0</pdop><geoidheight>54.00</geoidheight><course>336.2</course><type>1</type></trkpt>
      <trkpt lat="39.38150223" lon="-6.30309703"><ele>1838</ele><speed>11.25</speed><time>2016-06-21T15:02:47Z</time><pdop>5.0</pdop><geoidheight>54.00</geoidheight><course>332.3</course><type>1</type></trkpt>
      <trkpt lat="39.38158893" lon="-6.30316936"><ele>1838</ele><speed>11.25</speed><time>2016-06-21T15:02:48Z</time><pdop>5.0</pdop><geoidheight>54.00</geoidheight><course>331.3</course><type>1</type></trkpt>
      <trkpt lat="39.38168082" lon="-6.30322371"><ele>1838</ele><speed>11.25</speed><time>2016-06-21T15:02:49Z</time><pdop>5.0</pdop><geoidheight>54.00</geoidheight><course>332.1</course><type>1</type></trkpt>
      <trkpt lat="39.38177631" lon="-6.30327976"><ele>1837</ele><speed>11.50</speed><time>2016-06-21T15:02:50Z</time><pdop>5.0</pdop><geoidheight>54.00</geoidheight><course>332.1</course><type>1</type></trkpt>
      <trkpt lat="39.38186613" lon="-6.30334642"><ele>1836</ele><speed>11.50</speed><time>2016-06-21T15:02:51Z</time><pdop>5.0</pdop><geoidheight>54.00</geoidheight><course>331.3</course><type>1</type></trkpt>
      <trkpt lat="39.3819596" lon="-6.30340358"><ele>1833</ele><speed>11.50</speed><time>2016-06-21T15:02:52Z</time><pdop>3.0</pdop><geoidheight>54.00</geoidheight><course>332.2</course><type>1</type></trkpt>
      <trkpt lat="39.38204831" lon="-6.30346367"><ele>1835</ele><speed>11.50</speed><time>2016-06-21T15:02:53Z</time><pdop>4.0</pdop><geoidheight>54.00</geoidheight><course>332.3</course><type>1</type></trkpt>
      <trkpt lat="39.38214379" lon="-6.3035329"><ele>1832</ele><speed>11.50</speed><time>2016-06-21T15:02:54Z</time><pdop>4.0</pdop><geoidheight>54.00</geoidheight><course>332.9</course><type>1</type></trkpt>
      <trkpt lat="39.38223506" lon="-6.30358998"><ele>1830</ele><speed>11.50</speed><time>2016-06-21T15:02:55Z</time><pdop>4.0</pdop><geoidheight>54.00</geoidheight><course>333.4</course><type>1</type></trkpt>
      <trkpt lat="39.38233242" lon="-6.30365169"><ele>1827</ele><speed>12.00</speed><time>2016-06-21T15:02:56Z</time><pdop>3.0</pdop><geoidheight>54.00</geoidheight><course>333.3</course><type>1</type></trkpt>
      <trkpt lat="39.38252349" lon="-6.30378362"><ele>1823</ele><speed>12.00</speed><time>2016-06-21T15:02:58Z</time><pdop>3.0</pdop><geoidheight>54.00</geoidheight><course>332.0</course><type>1</type></trkpt>
      <trkpt lat="39.38262201" lon="-6.30385248"><ele>1822</ele><speed>11.75</speed><time>2016-06-21T15:02:59Z</time><pdop>4.0</pdop><geoidheight>54.00</geoidheight><course>332.1</course><type>1</type></trkpt>
      <trkpt lat="39.38271436" lon="-6.30391105"><ele>1821</ele><speed>11.50</speed><time>2016-06-21T15:03:00Z</time><pdop>4.0</pdop><geoidheight>54.00</geoidheight><course>333.9</course><type>1</type></trkpt>
      <trkpt lat="39.3829104" lon="-6.30401186"><ele>1818</ele><speed>11.75</speed><time>2016-06-21T15:03:02Z</time><pdop>4.0</pdop><geoidheight>54.00</geoidheight><course>336.5</course><type>1</type></trkpt>
      <trkpt lat="39.38301194" lon="-6.30406392"><ele>1817</ele><speed>12.00</speed><time>2016-06-21T15:03:03Z</time><pdop>4.0</pdop><geoidheight>54.00</geoidheight><course>336.9</course><type>1</type></trkpt>
      <trkpt lat="39.38321496" lon="-6.3041561"><ele>1819</ele><speed>12.00</speed><time>2016-06-21T15:03:05Z</time><pdop>4.0</pdop><geoidheight>54.00</geoidheight><course>339.7</course><type>1</type></trkpt>
      <trkpt lat="39.38341231" lon="-6.30423428"><ele>1816</ele><speed>11.25</speed><time>2016-06-21T15:03:07Z</time><pdop>4.0</pdop><geoidheight>54.00</geoidheight><course>343.8</course><type>1</type></trkpt>
      <trkpt lat="39.38350789" lon="-6.30427399"><ele>1812</ele><speed>11.25</speed><time>2016-06-21T15:03:08Z</time><pdop>4.0</pdop><geoidheight>54.00</geoidheight><course>343.4</course><type>1</type></trkpt>
      <trkpt lat="39.38371224" lon="-6.30435771"><ele>1809</ele><speed>11.50</speed><time>2016-06-21T15:03:10Z</time><pdop>5.0</pdop><geoidheight>54.00</geoidheight><course>343.0</course><type>1</type></trkpt>
      <trkpt lat="39.38380606" lon="-6.30440568"><ele>1808</ele><speed>11.50</speed><time>2016-06-21T15:03:11Z</time><pdop>5.0</pdop><geoidheight>54.00</geoidheight><course>340.2</course><type>1</type></trkpt>
      <trkpt lat="39.38398956" lon="-6.30447314"><ele>1809</ele><speed>10.75</speed><time>2016-06-21T15:03:13Z</time><pdop>6.0</pdop><geoidheight>54.00</geoidheight><course>340.8</course><type>1</type></trkpt>
      <trkpt lat="39.38408476" lon="-6.30459604"><ele>1806</ele><speed>12.00</speed><time>2016-06-21T15:03:14Z</time><pdop>6.0</pdop><geoidheight>54.00</geoidheight><course>329.8</course><type>1</type></trkpt>
      <trkpt lat="39.38428051" lon="-6.30473214"><ele>1803</ele><speed>12.25</speed><time>2016-06-21T15:03:16Z</time><pdop>7.0</pdop><geoidheight>54.00</geoidheight><course>330.4</course><type>1</type></trkpt>
      <trkpt lat="39.38447412" lon="-6.30486999"><ele>1798</ele><speed>12.25</speed><time>2016-06-21T15:03:18Z</time><pdop>7.0</pdop><geoidheight>54.00</geoidheight><course>329.2</course><type>1</type></trkpt>
      <trkpt lat="39.38466531" lon="-6.30502397"><ele>1792</ele><speed>12.75</speed><time>2016-06-21T15:03:20Z</time><pdop>6.0</pdop><geoidheight>54.00</geoidheight><course>327.9</course><type>1</type></trkpt>
      <trkpt lat="39.38476179" lon="-6.3051072"><ele>1790</ele><speed>12.75</speed><time>2016-06-21T15:03:21Z</time><pdop>6.0</pdop><geoidheight>54.00</geoidheight><course>328.1</course><type>1</type></trkpt>
      <trkpt lat="39.38485425" lon="-6.30518772"><ele>1787</ele><speed>12.50</speed><time>2016-06-21T15:03:22Z</time><pdop>6.0</pdop><geoidheight>54.00</geoidheight><course>327.2</course><type>1</type></trkpt>
      <trkpt lat="39.38503328" lon="-6.30534804"><ele>1780</ele><speed>12.50</speed><time>2016-06-21T15:03:24Z</time><pdop>4.0</pdop><geoidheight>54.00</geoidheight><course>322.6</course><type>1</type></trkpt>
      <trkpt lat="39.38512391" lon="-6.30543996"><ele>1776</ele><speed>13.00</speed><time>2016-06-21T15:03:25Z</time><pdop>4.0</pdop><geoidheight>54.00</geoidheight><course>321.1</course><type>1</type></trkpt>
      <trkpt lat="39.38521654" lon="-6.30553969"><ele>1774</ele><speed>13.25</speed><time>2016-06-21T15:03:26Z</time><pdop>4.0</pdop><geoidheight>54.00</geoidheight><course>321.0</course><type>1</type></trkpt>
      <trkpt lat="39.38540285" lon="-6.30572968"><ele>1769</ele><speed>13.00</speed><time>2016-06-21T15:03:28Z</time><pdop>4.0</pdop><geoidheight>54.00</geoidheight><course>323.2</course><type>1</type></trkpt>
      <trkpt lat="39.38549132" lon="-6.30581856"><ele>1768</ele><speed>12.50</speed><time>2016-06-21T15:03:29Z</time><pdop>5.0</pdop><geoidheight>54.00</geoidheight><course>322.4</course><type>1</type></trkpt>
      <trkpt lat="39.38556956" lon="-6.30590984"><ele>1766</ele><speed>12.00</speed><time>2016-06-21T15:03:30Z</time><pdop>4.0</pdop><geoidheight>54.00</geoidheight><course>319.0</course><type>1</type></trkpt>
      <trkpt lat="39.38574876" lon="-6.30610744"><ele>1772</ele><speed>13.00</speed><time>2016-06-21T15:03:32Z</time><pdop>4.0</pdop><geoidheight>54.00</geoidheight><course>318.8</course><type>1</type></trkpt>
      <trkpt lat="39.38583525" lon="-6.30620528"><ele>1763</ele><speed>12.75</speed><time>2016-06-21T15:03:33Z</time><pdop>3.0</pdop><geoidheight>54.00</geoidheight><course>317.8</course><type>1</type></trkpt>
      <trkpt lat="39.38591885" lon="-6.30630693"><ele>1756</ele><speed>12.50</speed><time>2016-06-21T15:03:34Z</time><pdop>3.0</pdop><geoidheight>54.00</geoidheight><course>316.7</course><type>1</type></trkpt>
      <trkpt lat="39.38607307" lon="-6.30651711"><ele>1751</ele><speed>12.00</speed><time>2016-06-21T15:03:36Z</time><pdop>4.0</pdop><geoidheight>54.00</geoidheight><course>313.2</course><type>1</type></trkpt>
      <trkpt lat="39.38615744" lon="-6.30664038"><ele>1750</ele><speed>13.00</speed><time>2016-06-21T15:03:37Z</time><pdop>4.0</pdop><geoidheight>54.00</geoidheight><course>310.5</course><type>1</type></trkpt>
      <trkpt lat="39.38632497" lon="-6.3069096"><ele>1747</ele><speed>14.50</speed><time>2016-06-21T15:03:39Z</time><pdop>4.0</pdop><geoidheight>54.00</geoidheight><course>309.6</course><type>1</type></trkpt>
      <trkpt lat="39.38641062" lon="-6.3070394"><ele>1747</ele><speed>14.25</speed><time>2016-06-21T15:03:40Z</time><pdop>5.0</pdop><geoidheight>54.00</geoidheight><course>309.4</course><type>1</type></trkpt>
      <trkpt lat="39.38649276" lon="-6.30716952"><ele>1746</ele><speed>14.00</speed><time>2016-06-21T15:03:41Z</time><pdop>5.0</pdop><geoidheight>54.00</geoidheight><course>307.7</course><type>1</type></trkpt>
      <trkpt lat="39.38662156" lon="-6.30744449"><ele>1746</ele><speed>13.75</speed><time>2016-06-21T15:03:43Z</time><pdop>6.0</pdop><geoidheight>54.00</geoidheight><course>303.4</course><type>1</type></trkpt>
      <trkpt lat="39.386668039999996" lon="-6.30770926"><ele>1743</ele><speed>15.75</speed><time>2016-06-21T15:03:44Z</time><pdop>6.0</pdop><geoidheight>54.00</geoidheight><course>297.0</course><type>1</type></trkpt>
      <trkpt lat="39.38675272" lon="-6.30784121"><ele>1744</ele><speed>15.25</speed><time>2016-06-21T15:03:45Z</time><pdop>5.0</pdop><geoidheight>54.00</geoidheight><course>301.5</course><type>1</type></trkpt>
      <trkpt lat="39.38690833" lon="-6.30807231"><ele>1736</ele><speed>14.75</speed><time>2016-06-21T15:03:47Z</time><pdop>4.0</pdop><geoidheight>54.00</geoidheight><course>301.6</course><type>1</type></trkpt>
      <trkpt lat="39.38697392" lon="-6.3082013"><ele>1732</ele><speed>14.25</speed><time>2016-06-21T15:03:48Z</time><pdop>4.0</pdop><geoidheight>54.00</geoidheight><course>301.3</course><type>1</type></trkpt>
      <trkpt lat="39.38703887" lon="-6.30835096"><ele>1729</ele><speed>14.00</speed><time>2016-06-21T15:03:49Z</time><pdop>4.0</pdop><geoidheight>54.00</geoidheight><course>298.1</course><type>1</type></trkpt>
      <trkpt lat="39.38714904" lon="-6.30863254"><ele>1727</ele><speed>14.00</speed><time>2016-06-21T15:03:51Z</time><pdop>5.0</pdop><geoidheight>54.00</geoidheight><course>294.6</course><type>1</type></trkpt>
      <trkpt lat="39.38721154" lon="-6.30873155"><ele>1721</ele><speed>13.25</speed><time>2016-06-21T15:03:52Z</time><pdop>4.0</pdop><geoidheight>54.00</geoidheight><course>296.4</course><type>1</type></trkpt>
      <trkpt lat="39.38726351" lon="-6.30886772"><ele>1719</ele><speed>13.00</speed><time>2016-06-21T15:03:53Z</time><pdop>6.0</pdop><geoidheight>54.00</geoidheight><course>296.0</course><type>1</type></trkpt>
      <trkpt lat="39.38736086" lon="-6.3091574"><ele>1559</ele><speed>13.50</speed><time>2016-06-21T15:03:55Z</time><pdop>8.0</pdop><geoidheight>54.00</geoidheight><course>295.3</course><type>1</type></trkpt>
      <trkpt lat="39.38742952" lon="-6.30929758"><ele>1606</ele><speed>14.50</speed><time>2016-06-21T15:03:56Z</time><pdop>6.0</pdop><geoidheight>54.00</geoidheight><course>296.6</course><type>1</type></trkpt>
      <trkpt lat="39.3875416" lon="-6.30957635"><ele>1654</ele><speed>13.75</speed><time>2016-06-21T15:03:58Z</time><pdop>5.0</pdop><geoidheight>54.00</geoidheight><course>295.1</course><type>1</type></trkpt>
      <trkpt lat="39.38759021" lon="-6.30971219"><ele>1670</ele><speed>13.25</speed><time>2016-06-21T15:03:59Z</time><pdop>4.0</pdop><geoidheight>54.00</geoidheight><course>295.5</course><type>1</type></trkpt>
      <trkpt lat="39.38764165" lon="-6.30985255"><ele>1680</ele><speed>13.25</speed><time>2016-06-21T15:04:00Z</time><pdop>4.0</pdop><geoidheight>54.00</geoidheight><course>294.4</course><type>1</type></trkpt>
      <trkpt lat="39.38774799" lon="-6.31013809"><ele>1687</ele><speed>14.00</speed><time>2016-06-21T15:04:02Z</time><pdop>5.0</pdop><geoidheight>54.00</geoidheight><course>296.3</course><type>1</type></trkpt>
      <trkpt lat="39.38789024" lon="-6.31045306"><ele>1690</ele><speed>15.50</speed><time>2016-06-21T15:04:04Z</time><pdop>5.0</pdop><geoidheight>54.00</geoidheight><course>298.6</course><type>1</type></trkpt>
      <trkpt lat="39.38801802" lon="-6.3107504"><ele>1689</ele><speed>14.00</speed><time>2016-06-21T15:04:06Z</time><pdop>4.0</pdop><geoidheight>54.00</geoidheight><course>298.4</course><type>1</type></trkpt>
      <trkpt lat="39.38807011" lon="-6.31089494"><ele>1688</ele><speed>13.50</speed><time>2016-06-21T15:04:07Z</time><pdop>5.0</pdop><geoidheight>54.00</geoidheight><course>296.1</course><type>1</type></trkpt>
      <trkpt lat="39.38818346" lon="-6.31116587"><ele>1685</ele><speed>13.50</speed><time>2016-06-21T15:04:09Z</time><pdop>6.0</pdop><geoidheight>54.00</geoidheight><course>297.0</course><type>1</type></trkpt>
      <trkpt lat="39.38824303" lon="-6.311307"><ele>1685</ele><speed>13.75</speed><time>2016-06-21T15:04:10Z</time><pdop>7.0</pdop><geoidheight>54.00</geoidheight><course>298.1</course><type>1</type></trkpt>
      <trkpt lat="39.38830862" lon="-6.31148062"><ele>1681</ele><speed>15.25</speed><time>2016-06-21T15:04:11Z</time><pdop>5.0</pdop><geoidheight>54.00</geoidheight><course>296.7</course><type>1</type></trkpt>
      <trkpt lat="39.38837244" lon="-6.31162681"><ele>1679</ele><speed>14.75</speed><time>2016-06-21T15:04:12Z</time><pdop>5.0</pdop><geoidheight>54.00</geoidheight><course>296.7</course><type>1</type></trkpt>
      <trkpt lat="39.38849419" lon="-6.31192174"><ele>1673</ele><speed>14.00</speed><time>2016-06-21T15:04:14Z</time><pdop>5.0</pdop><geoidheight>54.00</geoidheight><course>295.4</course><type>1</type></trkpt>
      <trkpt lat="39.38854775" lon="-6.31207985"><ele>1672</ele><speed>14.25</speed><time>2016-06-21T15:04:15Z</time><pdop>6.0</pdop><geoidheight>54.00</geoidheight><course>294.7</course><type>1</type></trkpt>
      <trkpt lat="39.38866664" lon="-6.31238337"><ele>1670</ele><speed>14.75</speed><time>2016-06-21T15:04:17Z</time><pdop>7.0</pdop><geoidheight>54.00</geoidheight><course>297.3</course><type>1</type></trkpt>
      <trkpt lat="39.38874106" lon="-6.31251196"><ele>1668</ele><speed>14.75</speed><time>2016-06-21T15:04:18Z</time><pdop>6.0</pdop><geoidheight>54.00</geoidheight><course>299.4</course><type>1</type></trkpt>
      <trkpt lat="39.38882631" lon="-6.31261264"><ele>1664</ele><speed>14.25</speed><time>2016-06-21T15:04:19Z</time><pdop>6.0</pdop><geoidheight>54.00</geoidheight><course>303.4</course><type>1</type></trkpt>
      <trkpt lat="39.38897957" lon="-6.31283957"><ele>1659</ele><speed>13.50</speed><time>2016-06-21T15:04:21Z</time><pdop>6.0</pdop><geoidheight>54.00</geoidheight><course>306.2</course><type>1</type></trkpt>
      <trkpt lat="39.38911774" lon="-6.31308135"><ele>1656</ele><speed>13.75</speed><time>2016-06-21T15:04:23Z</time><pdop>6.0</pdop><geoidheight>54.00</geoidheight><course>304.7</course><type>1</type></trkpt>
      <trkpt lat="39.38918754" lon="-6.31322571"><ele>1656</ele><speed>14.25</speed><time>2016-06-21T15:04:24Z</time><pdop>6.0</pdop><geoidheight>54.00</geoidheight><course>302.7</course><type>1</type></trkpt>
      <trkpt lat="39.38933967" lon="-6.31346229"><ele>1655</ele><speed>14.25</speed><time>2016-06-21T15:04:26Z</time><pdop>8.0</pdop><geoidheight>54.00</geoidheight><course>304.7</course><type>1</type></trkpt>
      <trkpt lat="39.38947271" lon="-6.31373958"><ele>1653</ele><speed>13.75</speed><time>2016-06-21T15:04:28Z</time><pdop>12.0</pdop><geoidheight>54.00</geoidheight><course>302.2</course><type>1</type></trkpt>
      <trkpt lat="39.38958191" lon="-6.31407652"><ele>1652</ele><speed>14.25</speed><time>2016-06-21T15:04:30Z</time><pdop>14.0</pdop><geoidheight>54.00</geoidheight><course>298.6</course><type>1</type></trkpt>
      <trkpt lat="39.38980128" lon="-6.31462099"><ele>1649</ele><speed>16.25</speed><time>2016-06-21T15:04:33Z</time><pdop>16.0</pdop><geoidheight>54.00</geoidheight><course>301.6</course><type>1</type></trkpt>
      <trkpt lat="39.39016186" lon="-6.3147965"><ele>1631</ele><speed>12.50</speed><time>2016-06-21T15:04:37Z</time><pdop>6.0</pdop><geoidheight>54.00</geoidheight><course>318.1</course><type>1</type></trkpt>
      <trkpt lat="39.39026221" lon="-6.31482297"><ele>1626</ele><speed>12.50</speed><time>2016-06-21T15:04:38Z</time><pdop>5.0</pdop><geoidheight>54.00</geoidheight><course>319.8</course><type>1</type></trkpt>
      <trkpt lat="39.39035577" lon="-6.31491081"><ele>1625</ele><speed>12.75</speed><time>2016-06-21T15:04:39Z</time><pdop>5.0</pdop><geoidheight>54.00</geoidheight><course>319.5</course><type>1</type></trkpt>
      <trkpt lat="39.39044713" lon="-6.31500546"><ele>1624</ele><speed>12.50</speed><time>2016-06-21T15:04:40Z</time><pdop>6.0</pdop><geoidheight>54.00</geoidheight><course>319.1</course><type>1</type></trkpt>
      <trkpt lat="39.39060538" lon="-6.31526829"><ele>1610</ele><speed>12.50</speed><time>2016-06-21T15:04:42Z</time><pdop>3.0</pdop><geoidheight>54.00</geoidheight><course>314.8</course><type>1</type></trkpt>
      <trkpt lat="39.39069263" lon="-6.31537977"><ele>1603</ele><speed>12.50</speed><time>2016-06-21T15:04:43Z</time><pdop>3.0</pdop><geoidheight>54.00</geoidheight><course>319.0</course><type>1</type></trkpt>
      <trkpt lat="39.39078449" lon="-6.31547625"><ele>1599</ele><speed>12.75</speed><time>2016-06-21T15:04:44Z</time><pdop>4.0</pdop><geoidheight>54.00</geoidheight><course>320.8</course><type>1</type></trkpt>
      <trkpt lat="39.39096107" lon="-6.31567735"><ele>1590</ele><speed>13.00</speed><time>2016-06-21T15:04:46Z</time><pdop>3.0</pdop><geoidheight>54.00</geoidheight><course>315.7</course><type>1</type></trkpt>
      <trkpt lat="39.39104293" lon="-6.31578054"><ele>1587</ele><speed>12.75</speed><time>2016-06-21T15:04:47Z</time><pdop>4.0</pdop><geoidheight>54.00</geoidheight><course>315.0</course><type>1</type></trkpt>
      <trkpt lat="39.3911307" lon="-6.31591185"><ele>1585</ele><speed>13.75</speed><time>2016-06-21T15:04:48Z</time><pdop>4.0</pdop><geoidheight>54.00</geoidheight><course>312.3</course><type>1</type></trkpt>
      <trkpt lat="39.39132829" lon="-6.31614732"><ele>1576</ele><speed>14.25</speed><time>2016-06-21T15:04:50Z</time><pdop>3.0</pdop><geoidheight>54.00</geoidheight><course>321.1</course><type>1</type></trkpt>
      <trkpt lat="39.39150921" lon="-6.31633331"><ele>1571</ele><speed>12.75</speed><time>2016-06-21T15:04:52Z</time><pdop>4.0</pdop><geoidheight>54.00</geoidheight><course>315.0</course><type>1</type></trkpt>
      <trkpt lat="39.39158466" lon="-6.31644464"><ele>1569</ele><speed>12.50</speed><time>2016-06-21T15:04:53Z</time><pdop>4.0</pdop><geoidheight>54.00</geoidheight><course>310.5</course><type>1</type></trkpt>
      <trkpt lat="39.39165748" lon="-6.31655127"><ele>1566</ele><speed>12.50</speed><time>2016-06-21T15:04:54Z</time><pdop>4.0</pdop><geoidheight>54.00</geoidheight><course>309.6</course><type>1</type></trkpt>
      <trkpt lat="39.39180765" lon="-6.31680846"><ele>1564</ele><speed>13.75</speed><time>2016-06-21T15:04:56Z</time><pdop>4.0</pdop><geoidheight>54.00</geoidheight><course>308.7</course><type>1</type></trkpt>
      <trkpt lat="39.39200239" lon="-6.31695534"><ele>1553</ele><speed>13.00</speed><time>2016-06-21T15:04:58Z</time><pdop>4.0</pdop><geoidheight>54.00</geoidheight><course>315.5</course><type>1</type></trkpt>
      <trkpt lat="39.39207542" lon="-6.31705891"><ele>1552</ele><speed>12.25</speed><time>2016-06-21T15:04:59Z</time><pdop>4.0</pdop><geoidheight>54.00</geoidheight><course>312.9</course><type>1</type></trkpt>
      <trkpt lat="39.39215279" lon="-6.31715997"><ele>1548</ele><speed>11.75</speed><time>2016-06-21T15:05:00Z</time><pdop>3.0</pdop><geoidheight>54.00</geoidheight><course>314.8</course><type>1</type></trkpt>
      <trkpt lat="39.39222984" lon="-6.31726163"><ele>1544</ele><speed>11.75</speed><time>2016-06-21T15:05:01Z</time><pdop>4.0</pdop><geoidheight>54.00</geoidheight><course>315.5</course><type>1</type></trkpt>
      <trkpt lat="39.39239938" lon="-6.31743591"><ele>1537</ele><speed>12.50</speed><time>2016-06-21T15:05:03Z</time><pdop>3.0</pdop><geoidheight>54.00</geoidheight><course>319.8</course><type>1</type></trkpt>
      <trkpt lat="39.3924909" lon="-6.31753534"><ele>1535</ele><speed>13.00</speed><time>2016-06-21T15:05:04Z</time><pdop>4.0</pdop><geoidheight>54.00</geoidheight><course>316.5</course><type>1</type></trkpt>
      <trkpt lat="39.39257386" lon="-6.31763646"><ele>1533</ele><speed>13.00</speed><time>2016-06-21T15:05:05Z</time><pdop>4.0</pdop><geoidheight>54.00</geoidheight><course>316.4</course><type>1</type></trkpt>
      <trkpt lat="39.3926632" lon="-6.31774198"><ele>1530</ele><speed>13.00</speed><time>2016-06-21T15:05:06Z</time><pdop>4.0</pdop><geoidheight>54.00</geoidheight><course>317.3</course><type>1</type></trkpt>
      <trkpt lat="39.39284718" lon="-6.31788562"><ele>1524</ele><speed>12.00</speed><time>2016-06-21T15:05:08Z</time><pdop>3.0</pdop><geoidheight>54.00</geoidheight><course>323.5</course><type>1</type></trkpt>
      <trkpt lat="39.39293624" lon="-6.31796541"><ele>1519</ele><speed>12.50</speed><time>2016-06-21T15:05:09Z</time><pdop>3.0</pdop><geoidheight>54.00</geoidheight><course>322.3</course><type>1</type></trkpt>
      <trkpt lat="39.39311329" lon="-6.31814836"><ele>1515</ele><speed>12.75</speed><time>2016-06-21T15:05:11Z</time><pdop>4.0</pdop><geoidheight>54.00</geoidheight><course>318.9</course><type>1</type></trkpt>
      <trkpt lat="39.39320758" lon="-6.31824846"><ele>1514</ele><speed>13.50</speed><time>2016-06-21T15:05:12Z</time><pdop>4.0</pdop><geoidheight>54.00</geoidheight><course>318.8</course><type>1</type></trkpt>
      <trkpt lat="39.39339272" lon="-6.31844407"><ele>1506</ele><speed>13.00</speed><time>2016-06-21T15:05:14Z</time><pdop>3.0</pdop><geoidheight>54.00</geoidheight><course>320.4</course><type>1</type></trkpt>
      <trkpt lat="39.39357116" lon="-6.31865479"><ele>1498</ele><speed>13.75</speed><time>2016-06-21T15:05:16Z</time><pdop>3.0</pdop><geoidheight>54.00</geoidheight><course>316.3</course><type>1</type></trkpt>
      <trkpt lat="39.39375736" lon="-6.31887845"><ele>1495</ele><speed>14.00</speed><time>2016-06-21T15:05:18Z</time><pdop>6.0</pdop><geoidheight>54.00</geoidheight><course>316.2</course><type>1</type></trkpt>
      <trkpt lat="39.39385367" lon="-6.31900493"><ele>1490</ele><speed>14.50</speed><time>2016-06-21T15:05:19Z</time><pdop>4.0</pdop><geoidheight>54.00</geoidheight><course>315.7</course><type>1</type></trkpt>
      <trkpt lat="39.39394562" lon="-6.31910279"><ele>1486</ele><speed>14.25</speed><time>2016-06-21T15:05:20Z</time><pdop>4.0</pdop><geoidheight>54.00</geoidheight><course>317.3</course><type>1</type></trkpt>
      <trkpt lat="39.3941271" lon="-6.31933768"><ele>1478</ele><speed>14.00</speed><time>2016-06-21T15:05:22Z</time><pdop>4.0</pdop><geoidheight>54.00</geoidheight><course>315.4</course><type>1</type></trkpt>
      <trkpt lat="39.39421266" lon="-6.31946149"><ele>1475</ele><speed>14.25</speed><time>2016-06-21T15:05:23Z</time><pdop>3.0</pdop><geoidheight>54.00</geoidheight><course>313.0</course><type>1</type></trkpt>
      <trkpt lat="39.39429705" lon="-6.31958519"><ele>1471</ele><speed>14.25</speed><time>2016-06-21T15:05:24Z</time><pdop>4.0</pdop><geoidheight>54.00</geoidheight><course>311.3</course><type>1</type></trkpt>
      <trkpt lat="39.39447732" lon="-6.3198414"><ele>1463</ele><speed>14.50</speed><time>2016-06-21T15:05:26Z</time><pdop>4.0</pdop><geoidheight>54.00</geoidheight><course>312.5</course><type>1</type></trkpt>
      <trkpt lat="39.39456554" lon="-6.31996692"><ele>1463</ele><speed>14.50</speed><time>2016-06-21T15:05:27Z</time><pdop>5.0</pdop><geoidheight>54.00</geoidheight><course>312.4</course><type>1</type></trkpt>
      <trkpt lat="39.39465867" lon="-6.32008798"><ele>1462</ele><speed>14.50</speed><time>2016-06-21T15:05:28Z</time><pdop>5.0</pdop><geoidheight>54.00</geoidheight><course>314.0</course><type>1</type></trkpt>
      <trkpt lat="39.39475328" lon="-6.32019911"><ele>1457</ele><speed>14.25</speed><time>2016-06-21T15:05:29Z</time><pdop>4.0</pdop><geoidheight>54.00</geoidheight><course>314.7</course><type>1</type></trkpt>
      <trkpt lat="39.39491925" lon="-6.32045809"><ele>1450</ele><speed>14.50</speed><time>2016-06-21T15:05:31Z</time><pdop>5.0</pdop><geoidheight>54.00</geoidheight><course>310.7</course><type>1</type></trkpt>
      <trkpt lat="39.39499129" lon="-6.32058944"><ele>1446</ele><speed>13.50</speed><time>2016-06-21T15:05:32Z</time><pdop>3.0</pdop><geoidheight>54.00</geoidheight><course>309.2</course><type>1</type></trkpt>
      <trkpt lat="39.39506678" lon="-6.32071484"><ele>1442</ele><speed>13.00</speed><time>2016-06-21T15:05:33Z</time><pdop>3.0</pdop><geoidheight>54.00</geoidheight><course>311.3</course><type>1</type></trkpt>
      <trkpt lat="39.39522682" lon="-6.32095971"><ele>1581</ele><speed>13.50</speed><time>2016-06-21T15:05:35Z</time><pdop>4.0</pdop><geoidheight>54.00</geoidheight><course>308.6</course><type>1</type></trkpt>
      <trkpt lat="39.39532133" lon="-6.32107205"><ele>1522</ele><speed>14.00</speed><time>2016-06-21T15:05:36Z</time><pdop>3.0</pdop><geoidheight>54.00</geoidheight><course>313.1</course><type>1</type></trkpt>
      <trkpt lat="39.3955032" lon="-6.32131405"><ele>1482</ele><speed>14.25</speed><time>2016-06-21T15:05:38Z</time><pdop>4.0</pdop><geoidheight>54.00</geoidheight><course>313.7</course><type>1</type></trkpt>
      <trkpt lat="39.39559637" lon="-6.32142271"><ele>1465</ele><speed>13.75</speed><time>2016-06-21T15:05:39Z</time><pdop>3.0</pdop><geoidheight>54.00</geoidheight><course>317.8</course><type>1</type></trkpt>
      <trkpt lat="39.39577113" lon="-6.3216055"><ele>1511</ele><speed>12.25</speed><time>2016-06-21T15:05:41Z</time><pdop>3.0</pdop><geoidheight>54.00</geoidheight><course>319.5</course><type>1</type></trkpt>
      <trkpt lat="39.39585468" lon="-6.32169801"><ele>1471</ele><speed>12.50</speed><time>2016-06-21T15:05:42Z</time><pdop>3.0</pdop><geoidheight>54.00</geoidheight><course>317.4</course><type>1</type></trkpt>
      <trkpt lat="39.39594238" lon="-6.32179946"><ele>1447</ele><speed>13.00</speed><time>2016-06-21T15:05:43Z</time><pdop>3.0</pdop><geoidheight>54.00</geoidheight><course>317.0</course><type>1</type></trkpt>
      <trkpt lat="39.39603276" lon="-6.32190726"><ele>1434</ele><speed>13.50</speed><time>2016-06-21T15:05:44Z</time><pdop>4.0</pdop><geoidheight>54.00</geoidheight><course>316.8</course><type>1</type></trkpt>
      <trkpt lat="39.39623512" lon="-6.3220874"><ele>1420</ele><speed>14.00</speed><time>2016-06-21T15:05:46Z</time><pdop>4.0</pdop><geoidheight>54.00</geoidheight><course>325.3</course><type>1</type></trkpt>
      <trkpt lat="39.39633491" lon="-6.32217736"><ele>1414</ele><speed>13.75</speed><time>2016-06-21T15:05:47Z</time><pdop>4.0</pdop><geoidheight>54.00</geoidheight><course>323.9</course><type>1</type></trkpt>
      <trkpt lat="39.3964246" lon="-6.32227012"><ele>1410</ele><speed>12.75</speed><time>2016-06-21T15:05:48Z</time><pdop>4.0</pdop><geoidheight>54.00</geoidheight><course>319.5</course><type>1</type></trkpt>
      <trkpt lat="39.39650621" lon="-6.3223703"><ele>1407</ele><speed>12.50</speed><time>2016-06-21T15:05:49Z</time><pdop>4.0</pdop><geoidheight>54.00</geoidheight><course>315.7</course><type>1</type></trkpt>
      <trkpt lat="39.39658394" lon="-6.32247053"><ele>1404</ele><speed>12.25</speed><time>2016-06-21T15:05:50Z</time><pdop>4.0</pdop><geoidheight>54.00</geoidheight><course>316.4</course><type>1</type></trkpt>
      <trkpt lat="39.39676291" lon="-6.32267051"><ele>1397</ele><speed>13.25</speed><time>2016-06-21T15:05:52Z</time><pdop>4.0</pdop><geoidheight>54.00</geoidheight><course>321.4</course><type>1</type></trkpt>
      <trkpt lat="39.39685695" lon="-6.32274829"><ele>1395</ele><speed>13.25</speed><time>2016-06-21T15:05:53Z</time><pdop>3.0</pdop><geoidheight>54.00</geoidheight><course>321.7</course><type>1</type></trkpt>
      <trkpt lat="39.39703423" lon="-6.32296152"><ele>1391</ele><speed>13.25</speed><time>2016-06-21T15:05:55Z</time><pdop>3.0</pdop><geoidheight>54.00</geoidheight><course>315.3</course><type>1</type></trkpt>
      <trkpt lat="39.39711179" lon="-6.32307405"><ele>1389</ele><speed>13.00</speed><time>2016-06-21T15:05:56Z</time><pdop>3.0</pdop><geoidheight>54.00</geoidheight><course>312.4</course><type>1</type></trkpt>
      <trkpt lat="39.39719313" lon="-6.32318014"><ele>1387</ele><speed>12.50</speed><time>2016-06-21T15:05:57Z</time><pdop>3.0</pdop><geoidheight>54.00</geoidheight><course>313.2</course><type>1</type></trkpt>
      <trkpt lat="39.39735595" lon="-6.32339821"><ele>1380</ele><speed>13.00</speed><time>2016-06-21T15:05:59Z</time><pdop>4.0</pdop><geoidheight>54.00</geoidheight><course>316.4</course><type>1</type></trkpt>
      <trkpt lat="39.39744631" lon="-6.32351042"><ele>1378</ele><speed>13.50</speed><time>2016-06-21T15:06:00Z</time><pdop>4.0</pdop><geoidheight>54.00</geoidheight><course>317.2</course><type>1</type></trkpt>
      <trkpt lat="39.39755633" lon="-6.3235849"><ele>1373</ele><speed>13.25</speed><time>2016-06-21T15:06:01Z</time><pdop>3.0</pdop><geoidheight>54.00</geoidheight><course>324.7</course><type>1</type></trkpt>
      <trkpt lat="39.39764907" lon="-6.32366407"><ele>1371</ele><speed>12.75</speed><time>2016-06-21T15:06:02Z</time><pdop>4.0</pdop><geoidheight>54.00</geoidheight><course>324.4</course><type>1</type></trkpt>
      <trkpt lat="39.3978212" lon="-6.32382253"><ele>1365</ele><speed>12.25</speed><time>2016-06-21T15:06:04Z</time><pdop>3.0</pdop><geoidheight>54.00</geoidheight><course>322.6</course><type>1</type></trkpt>
      <trkpt lat="39.39800064" lon="-6.32398985"><ele>1363</ele><speed>12.75</speed><time>2016-06-21T15:06:06Z</time><pdop>6.0</pdop><geoidheight>54.00</geoidheight><course>324.1</course><type>1</type></trkpt>
      <trkpt lat="39.39821453" lon="-6.32412913"><ele>1358</ele><speed>13.00</speed><time>2016-06-21T15:06:08Z</time><pdop>4.0</pdop><geoidheight>54.00</geoidheight><course>329.1</course><type>1</type></trkpt>
      <trkpt lat="39.39831013" lon="-6.32420676"><ele>1355</ele><speed>12.75</speed><time>2016-06-21T15:06:09Z</time><pdop>4.0</pdop><geoidheight>54.00</geoidheight><course>326.4</course><type>1</type></trkpt>
      <trkpt lat="39.39840123" lon="-6.32428933"><ele>1352</ele><speed>12.50</speed><time>2016-06-21T15:06:10Z</time><pdop>3.0</pdop><geoidheight>54.00</geoidheight><course>323.9</course><type>1</type></trkpt>
      <trkpt lat="39.39858358" lon="-6.32444209"><ele>1350</ele><speed>12.00</speed><time>2016-06-21T15:06:12Z</time><pdop>4.0</pdop><geoidheight>54.00</geoidheight><course>326.3</course><type>1</type></trkpt>
      <trkpt lat="39.39868047" lon="-6.32451299"><ele>1349</ele><speed>12.50</speed><time>2016-06-21T15:06:13Z</time><pdop>4.0</pdop><geoidheight>54.00</geoidheight><course>326.7</course><type>1</type></trkpt>
      <trkpt lat="39.39878248" lon="-6.32459491"><ele>1346</ele><speed>13.25</speed><time>2016-06-21T15:06:14Z</time><pdop>4.0</pdop><geoidheight>54.00</geoidheight><course>327.4</course><type>1</type></trkpt>
      <trkpt lat="39.39897337" lon="-6.32477941"><ele>1341</ele><speed>13.00</speed><time>2016-06-21T15:06:16Z</time><pdop>3.0</pdop><geoidheight>54.00</geoidheight><course>322.1</course><type>1</type></trkpt>
      <trkpt lat="39.3990568" lon="-6.32486611"><ele>1339</ele><speed>12.25</speed><time>2016-06-21T15:06:17Z</time><pdop>4.0</pdop><geoidheight>54.00</geoidheight><course>320.9</course><type>1</type></trkpt>
      <trkpt lat="39.39914463" lon="-6.32495541"><ele>1336</ele><speed>12.25</speed><time>2016-06-21T15:06:18Z</time><pdop>3.0</pdop><geoidheight>54.00</geoidheight><course>322.1</course><type>1</type></trkpt>
      <trkpt lat="39.39923261" lon="-6.32503412"><ele>1333</ele><speed>12.00</speed><time>2016-06-21T15:06:19Z</time><pdop>4.0</pdop><geoidheight>54.00</geoidheight><course>325.8</course><type>1</type></trkpt>
      <trkpt lat="39.39932507" lon="-6.32510322"><ele>1332</ele><speed>12.00</speed><time>2016-06-21T15:06:20Z</time><pdop>4.0</pdop><geoidheight>54.00</geoidheight><course>327.4</course><type>1</type></trkpt>
      <trkpt lat="39.39941564" lon="-6.32519368"><ele>1329</ele><speed>12.25</speed><time>2016-06-21T15:06:21Z</time><pdop>4.0</pdop><geoidheight>54.00</geoidheight><course>324.9</course><type>1</type></trkpt>
      <trkpt lat="39.39950872" lon="-6.32528419"><ele>1325</ele><speed>12.00</speed><time>2016-06-21T15:06:22Z</time><pdop>4.0</pdop><geoidheight>54.00</geoidheight><course>324.6</course><type>1</type></trkpt>
      <trkpt lat="39.39969632" lon="-6.32543026"><ele>1319</ele><speed>11.75</speed><time>2016-06-21T15:06:24Z</time><pdop>3.0</pdop><geoidheight>54.00</geoidheight><course>331.7</course><type>1</type></trkpt>
      <trkpt lat="39.39979124" lon="-6.32548896"><ele>1317</ele><speed>11.75</speed><time>2016-06-21T15:06:25Z</time><pdop>4.0</pdop><geoidheight>54.00</geoidheight><course>334.7</course><type>1</type></trkpt>
      <trkpt lat="39.39988434" lon="-6.32555615"><ele>1315</ele><speed>11.75</speed><time>2016-06-21T15:06:26Z</time><pdop>4.0</pdop><geoidheight>54.00</geoidheight><course>332.8</course><type>1</type></trkpt>
      <trkpt lat="39.40006959" lon="-6.32573199"><ele>1311</ele><speed>12.75</speed><time>2016-06-21T15:06:28Z</time><pdop>3.0</pdop><geoidheight>54.00</geoidheight><course>322.4</course><type>1</type></trkpt>
      <trkpt lat="39.4001599" lon="-6.32582271"><ele>1308</ele><speed>12.25</speed><time>2016-06-21T15:06:29Z</time><pdop>3.0</pdop><geoidheight>54.00</geoidheight><course>322.4</course><type>1</type></trkpt>
      <trkpt lat="39.40024848" lon="-6.32591609"><ele>1305</ele><speed>12.00</speed><time>2016-06-21T15:06:30Z</time><pdop>4.0</pdop><geoidheight>54.00</geoidheight><course>321.7</course><type>1</type></trkpt>
      <trkpt lat="39.40041747" lon="-6.32606437"><ele>1302</ele><speed>11.50</speed><time>2016-06-21T15:06:32Z</time><pdop>4.0</pdop><geoidheight>54.00</geoidheight><course>325.4</course><type>1</type></trkpt>
      <trkpt lat="39.40050335" lon="-6.32614762"><ele>1300</ele><speed>12.00</speed><time>2016-06-21T15:06:33Z</time><pdop>4.0</pdop><geoidheight>54.00</geoidheight><course>323.2</course><type>1</type></trkpt>
      <trkpt lat="39.40068813" lon="-6.32633327"><ele>1297</ele><speed>12.75</speed><time>2016-06-21T15:06:35Z</time><pdop>4.0</pdop><geoidheight>54.00</geoidheight><course>322.5</course><type>1</type></trkpt>
      <trkpt lat="39.40086452" lon="-6.3264743"><ele>1296</ele><speed>11.50</speed><time>2016-06-21T15:06:37Z</time><pdop>4.0</pdop><geoidheight>54.00</geoidheight><course>328.0</course><type>1</type></trkpt>
      <trkpt lat="39.4009536" lon="-6.32654067"><ele>1295</ele><speed>11.25</speed><time>2016-06-21T15:06:38Z</time><pdop>4.0</pdop><geoidheight>54.00</geoidheight><course>329.1</course><type>1</type></trkpt>
      <trkpt lat="39.40113201" lon="-6.32672051"><ele>1291</ele><speed>12.50</speed><time>2016-06-21T15:06:40Z</time><pdop>3.0</pdop><geoidheight>54.00</geoidheight><course>321.3</course><type>1</type></trkpt>
      <trkpt lat="39.40121752" lon="-6.32680926"><ele>1288</ele><speed>12.50</speed><time>2016-06-21T15:06:41Z</time><pdop>3.0</pdop><geoidheight>54.00</geoidheight><course>320.5</course><type>1</type></trkpt>
      <trkpt lat="39.40137722" lon="-6.32699228"><ele>1284</ele><speed>11.50</speed><time>2016-06-21T15:06:43Z</time><pdop>3.0</pdop><geoidheight>54.00</geoidheight><course>318.1</course><type>1</type></trkpt>
      <trkpt lat="39.40145305" lon="-6.3270759"><ele>1283</ele><speed>11.25</speed><time>2016-06-21T15:06:44Z</time><pdop>4.0</pdop><geoidheight>54.00</geoidheight><course>318.6</course><type>1</type></trkpt>
      <trkpt lat="39.40162281" lon="-6.32727486"><ele>1279</ele><speed>12.50</speed><time>2016-06-21T15:06:46Z</time><pdop>3.0</pdop><geoidheight>54.00</geoidheight><course>320.3</course><type>1</type></trkpt>
      <trkpt lat="39.40170646" lon="-6.32736387"><ele>1276</ele><speed>12.00</speed><time>2016-06-21T15:06:47Z</time><pdop>3.0</pdop><geoidheight>54.00</geoidheight><course>321.0</course><type>1</type></trkpt>
      <trkpt lat="39.40178569" lon="-6.32744951"><ele>1273</ele><speed>11.25</speed><time>2016-06-21T15:06:48Z</time><pdop>3.0</pdop><geoidheight>54.00</geoidheight><course>318.9</course><type>1</type></trkpt>
      <trkpt lat="39.40185763" lon="-6.32754302"><ele>1270</ele><speed>11.00</speed><time>2016-06-21T15:06:49Z</time><pdop>3.0</pdop><geoidheight>54.00</geoidheight><course>314.7</course><type>1</type></trkpt>
      <trkpt lat="39.40199432" lon="-6.3277527"><ele>1267</ele><speed>11.75</speed><time>2016-06-21T15:06:51Z</time><pdop>4.0</pdop><geoidheight>54.00</geoidheight><course>309.6</course><type>1</type></trkpt>
      <trkpt lat="39.40206227" lon="-6.3278722"><ele>1266</ele><speed>12.25</speed><time>2016-06-21T15:06:52Z</time><pdop>4.0</pdop><geoidheight>54.00</geoidheight><course>308.9</course><type>1</type></trkpt>
      <trkpt lat="39.40222761" lon="-6.32801598"><ele>1260</ele><speed>11.25</speed><time>2016-06-21T15:06:54Z</time><pdop>3.0</pdop><geoidheight>54.00</geoidheight><course>317.6</course><type>1</type></trkpt>
      <trkpt lat="39.40229459" lon="-6.32811789"><ele>1257</ele><speed>11.25</speed><time>2016-06-21T15:06:55Z</time><pdop>3.0</pdop><geoidheight>54.00</geoidheight><course>313.4</course><type>1</type></trkpt>
      <trkpt lat="39.40236149" lon="-6.32822255"><ele>1254</ele><speed>11.25</speed><time>2016-06-21T15:06:56Z</time><pdop>3.0</pdop><geoidheight>54.00</geoidheight><course>309.0</course><type>1</type></trkpt>
      <trkpt lat="39.40242306" lon="-6.32832254"><ele>1252</ele><speed>11.25</speed><time>2016-06-21T15:06:57Z</time><pdop>4.0</pdop><geoidheight>54.00</geoidheight><course>308.7</course><type>1</type></trkpt>
      <trkpt lat="39.40255885" lon="-6.3285722699999996"><ele>1246</ele><speed>12.25</speed><time>2016-06-21T15:06:59Z</time><pdop>4.0</pdop><geoidheight>54.00</geoidheight><course>308.6</course><type>1</type></trkpt>
      <trkpt lat="39.40262862" lon="-6.32869993"><ele>1327</ele><speed>12.50</speed><time>2016-06-21T15:07:00Z</time><pdop>4.0</pdop><geoidheight>54.00</geoidheight><course>307.3</course><type>1</type></trkpt>
      <trkpt lat="39.40268874" lon="-6.32882076"><ele>1302</ele><speed>12.25</speed><time>2016-06-21T15:07:01Z</time><pdop>5.0</pdop><geoidheight>54.00</geoidheight><course>305.7</course><type>1</type></trkpt>
      <trkpt lat="39.40281008" lon="-6.32907225"><ele>1272</ele><speed>12.75</speed><time>2016-06-21T15:07:03Z</time><pdop>5.0</pdop><geoidheight>54.00</geoidheight><course>302.9</course><type>1</type></trkpt>
      <trkpt lat="39.40294519" lon="-6.32935479"><ele>1259</ele><speed>13.75</speed><time>2016-06-21T15:07:05Z</time><pdop>6.0</pdop><geoidheight>54.00</geoidheight><course>303.7</course><type>1</type></trkpt>
      <trkpt lat="39.40302384" lon="-6.32947955"><ele>1257</ele><speed>14.00</speed><time>2016-06-21T15:07:06Z</time><pdop>6.0</pdop><geoidheight>54.00</geoidheight><course>304.6</course><type>1</type></trkpt>
      <trkpt lat="39.40309863" lon="-6.32960078"><ele>1255</ele><speed>13.75</speed><time>2016-06-21T15:07:07Z</time><pdop>6.0</pdop><geoidheight>54.00</geoidheight><course>305.3</course><type>1</type></trkpt>
      <trkpt lat="39.40325806" lon="-6.32973576"><ele>1251</ele><speed>12.75</speed><time>2016-06-21T15:07:09Z</time><pdop>7.0</pdop><geoidheight>54.00</geoidheight><course>309.7</course><type>1</type></trkpt>
      <trkpt lat="39.40340715" lon="-6.32995246"><ele>1243</ele><speed>12.50</speed><time>2016-06-21T15:07:11Z</time><pdop>6.0</pdop><geoidheight>54.00</geoidheight><course>314.0</course><type>1</type></trkpt>
      <trkpt lat="39.40358833" lon="-6.33007844"><ele>1230</ele><speed>13.50</speed><time>2016-06-21T15:07:13Z</time><pdop>4.0</pdop><geoidheight>54.00</geoidheight><course>311.3</course><type>1</type></trkpt>
      <trkpt lat="39.40367024" lon="-6.33019325"><ele>1228</ele><speed>13.25</speed><time>2016-06-21T15:07:14Z</time><pdop>5.0</pdop><geoidheight>54.00</geoidheight><course>310.9</course><type>1</type></trkpt>
      <trkpt lat="39.4038165" lon="-6.33043593"><ele>1224</ele><speed>13.00</speed><time>2016-06-21T15:07:16Z</time><pdop>6.0</pdop><geoidheight>54.00</geoidheight><course>309.3</course><type>1</type></trkpt>
      <trkpt lat="39.40396272" lon="-6.33066355"><ele>1224</ele><speed>13.25</speed><time>2016-06-21T15:07:18Z</time><pdop>6.0</pdop><geoidheight>54.00</geoidheight><course>311.1</course><type>1</type></trkpt>
      <trkpt lat="39.40404525" lon="-6.33078316"><ele>1223</ele><speed>13.50</speed><time>2016-06-21T15:07:19Z</time><pdop>6.0</pdop><geoidheight>54.00</geoidheight><course>312.6</course><type>1</type></trkpt>
      <trkpt lat="39.4041346" lon="-6.33088623"><ele>1221</ele><speed>14.25</speed><time>2016-06-21T15:07:20Z</time><pdop>6.0</pdop><geoidheight>54.00</geoidheight><course>313.0</course><type>1</type></trkpt>
      <trkpt lat="39.40433228" lon="-6.33109902"><ele>1207</ele><speed>14.25</speed><time>2016-06-21T15:07:22Z</time><pdop>4.0</pdop><geoidheight>54.00</geoidheight><course>314.7</course><type>1</type></trkpt>
      <trkpt lat="39.40443598" lon="-6.33118068"><ele>1199</ele><speed>13.75</speed><time>2016-06-21T15:07:23Z</time><pdop>4.0</pdop><geoidheight>54.00</geoidheight><course>315.2</course><type>1</type></trkpt>
      <trkpt lat="39.40453237" lon="-6.33128592"><ele>1194</ele><speed>13.75</speed><time>2016-06-21T15:07:24Z</time><pdop>5.0</pdop><geoidheight>54.00</geoidheight><course>315.7</course><type>1</type></trkpt>
      <trkpt lat="39.4046205" lon="-6.33142297"><ele>1191</ele><speed>14.00</speed><time>2016-06-21T15:07:25Z</time><pdop>5.0</pdop><geoidheight>54.00</geoidheight><course>314.2</course><type>1</type></trkpt>
      <trkpt lat="39.40471023" lon="-6.33150691"><ele>1188</ele><speed>13.50</speed><time>2016-06-21T15:07:26Z</time><pdop>4.0</pdop><geoidheight>54.00</geoidheight><course>316.3</course><type>1</type></trkpt>
      <trkpt lat="39.40489537" lon="-6.33170215"><ele>1181</ele><speed>14.00</speed><time>2016-06-21T15:07:28Z</time><pdop>4.0</pdop><geoidheight>54.00</geoidheight><course>315.8</course><type>1</type></trkpt>
      <trkpt lat="39.40499003" lon="-6.33182862"><ele>1176</ele><speed>13.75</speed><time>2016-06-21T15:07:29Z</time><pdop>4.0</pdop><geoidheight>54.00</geoidheight><course>316.1</course><type>1</type></trkpt>
      <trkpt lat="39.40517806" lon="-6.33205813"><ele>1168</ele><speed>13.75</speed><time>2016-06-21T15:07:31Z</time><pdop>4.0</pdop><geoidheight>54.00</geoidheight><course>316.5</course><type>1</type></trkpt>
      <trkpt lat="39.40536232" lon="-6.33228177"><ele>1161</ele><speed>13.75</speed><time>2016-06-21T15:07:33Z</time><pdop>3.0</pdop><geoidheight>54.00</geoidheight><course>316.7</course><type>1</type></trkpt>
      <trkpt lat="39.40545632" lon="-6.33238893"><ele>1159</ele><speed>14.25</speed><time>2016-06-21T15:07:34Z</time><pdop>4.0</pdop><geoidheight>54.00</geoidheight><course>315.9</course><type>1</type></trkpt>
      <trkpt lat="39.40564409" lon="-6.33262915"><ele>1155</ele><speed>14.00</speed><time>2016-06-21T15:07:36Z</time><pdop>4.0</pdop><geoidheight>54.00</geoidheight><course>315.6</course><type>1</type></trkpt>
      <trkpt lat="39.40573111" lon="-6.33273134"><ele>1152</ele><speed>13.25</speed><time>2016-06-21T15:07:37Z</time><pdop>3.0</pdop><geoidheight>54.00</geoidheight><course>317.4</course><type>1</type></trkpt>
      <trkpt lat="39.40590035" lon="-6.33290577"><ele>1148</ele><speed>12.25</speed><time>2016-06-21T15:07:39Z</time><pdop>4.0</pdop><geoidheight>54.00</geoidheight><course>319.1</course><type>1</type></trkpt>
      <trkpt lat="39.40599191" lon="-6.33299785"><ele>1146</ele><speed>12.50</speed><time>2016-06-21T15:07:40Z</time><pdop>4.0</pdop><geoidheight>54.00</geoidheight><course>320.6</course><type>1</type></trkpt>
      <trkpt lat="39.40609333" lon="-6.33308722"><ele>1144</ele><speed>13.25</speed><time>2016-06-21T15:07:41Z</time><pdop>4.0</pdop><geoidheight>54.00</geoidheight><course>322.5</course><type>1</type></trkpt>
      <trkpt lat="39.40629465" lon="-6.33327574"><ele>1142</ele><speed>14.00</speed><time>2016-06-21T15:07:43Z</time><pdop>4.0</pdop><geoidheight>54.00</geoidheight><course>323.0</course><type>1</type></trkpt>
      <trkpt lat="39.4063918" lon="-6.33337434"><ele>1139</ele><speed>14.00</speed><time>2016-06-21T15:07:44Z</time><pdop>3.0</pdop><geoidheight>54.00</geoidheight><course>320.1</course><type>1</type></trkpt>
      <trkpt lat="39.40657694" lon="-6.33357664"><ele>1137</ele><speed>13.25</speed><time>2016-06-21T15:07:46Z</time><pdop>4.0</pdop><geoidheight>54.00</geoidheight><course>319.6</course><type>1</type></trkpt>
      <trkpt lat="39.40667805" lon="-6.3336932"><ele>1133</ele><speed>14.25</speed><time>2016-06-21T15:07:47Z</time><pdop>3.0</pdop><geoidheight>54.00</geoidheight><course>319.6</course><type>1</type></trkpt>
      <trkpt lat="39.40689443" lon="-6.33390472"><ele>1129</ele><speed>15.00</speed><time>2016-06-21T15:07:49Z</time><pdop>3.0</pdop><geoidheight>54.00</geoidheight><course>321.8</course><type>1</type></trkpt>
      <trkpt lat="39.40709137" lon="-6.33413248"><ele>1126</ele><speed>14.00</speed><time>2016-06-21T15:07:51Z</time><pdop>3.0</pdop><geoidheight>54.00</geoidheight><course>316.8</course><type>1</type></trkpt>
      <trkpt lat="39.40717721" lon="-6.33423829"><ele>1125</ele><speed>13.50</speed><time>2016-06-21T15:07:52Z</time><pdop>4.0</pdop><geoidheight>54.00</geoidheight><course>316.3</course><type>1</type></trkpt>
      <trkpt lat="39.4072662" lon="-6.33435125"><ele>1124</ele><speed>14.00</speed><time>2016-06-21T15:07:53Z</time><pdop>4.0</pdop><geoidheight>54.00</geoidheight><course>316.3</course><type>1</type></trkpt>
      <trkpt lat="39.40747934" lon="-6.33456316"><ele>1122</ele><speed>15.00</speed><time>2016-06-21T15:07:55Z</time><pdop>3.0</pdop><geoidheight>54.00</geoidheight><course>323.2</course><type>1</type></trkpt>
      <trkpt lat="39.4075895" lon="-6.33466227"><ele>1121</ele><speed>14.75</speed><time>2016-06-21T15:07:56Z</time><pdop>4.0</pdop><geoidheight>54.00</geoidheight><course>325.7</course><type>1</type></trkpt>
      <trkpt lat="39.40769689" lon="-6.33475888"><ele>1120</ele><speed>14.75</speed><time>2016-06-21T15:07:57Z</time><pdop>4.0</pdop><geoidheight>54.00</geoidheight><course>324.9</course><type>1</type></trkpt>
      <trkpt lat="39.40790099" lon="-6.33498759"><ele>1115</ele><speed>14.00</speed><time>2016-06-21T15:07:59Z</time><pdop>4.0</pdop><geoidheight>54.00</geoidheight><course>322.0</course><type>1</type></trkpt>
      <trkpt lat="39.40799703" lon="-6.33508176"><ele>1116</ele><speed>13.50</speed><time>2016-06-21T15:08:00Z</time><pdop>5.0</pdop><geoidheight>54.00</geoidheight><course>322.0</course><type>1</type></trkpt>
      <trkpt lat="39.40818648" lon="-6.33536998"><ele>1112</ele><speed>15.25</speed><time>2016-06-21T15:08:02Z</time><pdop>3.0</pdop><geoidheight>54.00</geoidheight><course>312.7</course><type>1</type></trkpt>
      <trkpt lat="39.40827447" lon="-6.33552887"><ele>1111</ele><speed>15.50</speed><time>2016-06-21T15:08:03Z</time><pdop>3.0</pdop><geoidheight>54.00</geoidheight><course>310.1</course><type>1</type></trkpt>
      <trkpt lat="39.40836198" lon="-6.33565252"><ele>1113</ele><speed>14.50</speed><time>2016-06-21T15:08:04Z</time><pdop>3.0</pdop><geoidheight>54.00</geoidheight><course>311.3</course><type>1</type></trkpt>
      <trkpt lat="39.40853393" lon="-6.33585909"><ele>1117</ele><speed>13.25</speed><time>2016-06-21T15:08:06Z</time><pdop>4.0</pdop><geoidheight>54.00</geoidheight><course>316.8</course><type>1</type></trkpt>
      <trkpt lat="39.4086182" lon="-6.33595498"><ele>1117</ele><speed>12.75</speed><time>2016-06-21T15:08:07Z</time><pdop>3.0</pdop><geoidheight>54.00</geoidheight><course>318.7</course><type>1</type></trkpt>
      <trkpt lat="39.40879575" lon="-6.33612062"><ele>1116</ele><speed>11.50</speed><time>2016-06-21T15:08:09Z</time><pdop>4.0</pdop><geoidheight>54.00</geoidheight><course>328.7</course><type>1</type></trkpt>
      <trkpt lat="39.40889662" lon="-6.33616139"><ele>1115</ele><speed>11.50</speed><time>2016-06-21T15:08:10Z</time><pdop>4.0</pdop><geoidheight>54.00</geoidheight><course>338.2</course><type>1</type></trkpt>
      <trkpt lat="39.40909085" lon="-6.33613757"><ele>1112</ele><speed>9.75</speed><time>2016-06-21T15:08:12Z</time><pdop>3.0</pdop><geoidheight>54.00</geoidheight><course>11.7</course><type>1</type></trkpt>
      <trkpt lat="39.40915086" lon="-6.33608411"><ele>1111</ele><speed>8.00</speed><time>2016-06-21T15:08:13Z</time><pdop>3.0</pdop><geoidheight>54.00</geoidheight><course>32.8</course><type>1</type></trkpt>
      <trkpt lat="39.40917953" lon="-6.33602299"><ele>1111</ele><speed>6.25</speed><time>2016-06-21T15:08:14Z</time><pdop>3.0</pdop><geoidheight>54.00</geoidheight><course>58.1</course><type>1</type></trkpt>
      <trkpt lat="39.40920385" lon="-6.33588397"><ele>1118</ele><speed>3.25</speed><time>2016-06-21T15:08:17Z</time><pdop>3.0</pdop><geoidheight>54.00</geoidheight><course>66.3</course><type>1</type></trkpt>
      <trkpt lat="39.40912895" lon="-6.33585499"><ele>1114</ele><speed>5.00</speed><time>2016-06-21T15:08:21Z</time><pdop>3.0</pdop><geoidheight>54.00</geoidheight><course>180.3</course><type>1</type></trkpt>
      <trkpt lat="39.40906274" lon="-6.33589614"><ele>1114</ele><speed>7.25</speed><time>2016-06-21T15:08:22Z</time><pdop>3.0</pdop><geoidheight>54.00</geoidheight><course>202.3</course><type>1</type></trkpt>
      <trkpt lat="39.40894747" lon="-6.33609854"><ele>1114</ele><speed>10.50</speed><time>2016-06-21T15:08:24Z</time><pdop>3.0</pdop><geoidheight>54.00</geoidheight><course>238.0</course><type>1</type></trkpt>
      <trkpt lat="39.40893013" lon="-6.33621822"><ele>1116</ele><speed>10.00</speed><time>2016-06-21T15:08:25Z</time><pdop>3.0</pdop><geoidheight>54.00</geoidheight><course>256.3</course><type>1</type></trkpt>
      <trkpt lat="39.40892217" lon="-6.33633105"><ele>1118</ele><speed>10.00</speed><time>2016-06-21T15:08:26Z</time><pdop>4.0</pdop><geoidheight>54.00</geoidheight><course>263.8</course><type>1</type></trkpt>
      <trkpt lat="39.40897196" lon="-6.33644257"><ele>1115</ele><speed>10.25</speed><time>2016-06-21T15:08:27Z</time><pdop>3.0</pdop><geoidheight>54.00</geoidheight><course>288.0</course><type>1</type></trkpt>
      <trkpt lat="39.40907156" lon="-6.33669408"><ele>1115</ele><speed>12.50</speed><time>2016-06-21T15:08:29Z</time><pdop>3.0</pdop><geoidheight>54.00</geoidheight><course>299.5</course><type>1</type></trkpt>
      <trkpt lat="39.40915278" lon="-6.33681424"><ele>1114</ele><speed>13.25</speed><time>2016-06-21T15:08:30Z</time><pdop>3.0</pdop><geoidheight>54.00</geoidheight><course>311.6</course><type>1</type></trkpt>
      <trkpt lat="39.40925663" lon="-6.33689893"><ele>1115</ele><speed>13.75</speed><time>2016-06-21T15:08:31Z</time><pdop>3.0</pdop><geoidheight>54.00</geoidheight><course>326.4</course><type>1</type></trkpt>
      <trkpt lat="39.40935959" lon="-6.33698696"><ele>1115</ele><speed>13.75</speed><time>2016-06-21T15:08:32Z</time><pdop>5.0</pdop><geoidheight>54.00</geoidheight><course>326.4</course><type>1</type></trkpt>
      <trkpt lat="39.40948277" lon="-6.33694581"><ele>1118</ele><speed>12.00</speed><time>2016-06-21T15:08:33Z</time><pdop>3.0</pdop><geoidheight>54.00</geoidheight><course>354.7</course><type>1</type></trkpt>
      <trkpt lat="39.40957815" lon="-6.33693282"><ele>1121</ele><speed>10.50</speed><time>2016-06-21T15:08:34Z</time><pdop>3.0</pdop><geoidheight>54.00</geoidheight><course>4.3</course><type>1</type></trkpt>
      <trkpt lat="39.40965728" lon="-6.33690384"><ele>1124</ele><speed>9.00</speed><time>2016-06-21T15:08:35Z</time><pdop>3.0</pdop><geoidheight>54.00</geoidheight><course>13.7</course><type>1</type></trkpt>
      <trkpt lat="39.4097497" lon="-6.33683419"><ele>1128</ele><speed>5.25</speed><time>2016-06-21T15:08:37Z</time><pdop>3.0</pdop><geoidheight>54.00</geoidheight><course>36.8</course><type>1</type></trkpt>
      <trkpt lat="39.40972969" lon="-6.33675157"><ele>1126</ele><speed>3.75</speed><time>2016-06-21T15:08:41Z</time><pdop>3.0</pdop><geoidheight>54.00</geoidheight><course>163.6</course><type>1</type></trkpt>
      <trkpt lat="39.40966963" lon="-6.3367826"><ele>1124</ele><speed>6.75</speed><time>2016-06-21T15:08:42Z</time><pdop>3.0</pdop><geoidheight>54.00</geoidheight><course>198.5</course><type>1</type></trkpt>
      <trkpt lat="39.40959484" lon="-6.33686978"><ele>1123</ele><speed>10.50</speed><time>2016-06-21T15:08:43Z</time><pdop>3.0</pdop><geoidheight>54.00</geoidheight><course>220.1</course><type>1</type></trkpt>
      <trkpt lat="39.40948812" lon="-6.33715404"><ele>1126</ele><speed>13.50</speed><time>2016-06-21T15:08:45Z</time><pdop>4.0</pdop><geoidheight>54.00</geoidheight><course>246.3</course><type>1</type></trkpt>
      <trkpt lat="39.40955085" lon="-6.33742508"><ele>1128</ele><speed>11.25</speed><time>2016-06-21T15:08:47Z</time><pdop>3.0</pdop><geoidheight>54.00</geoidheight><course>285.0</course><type>1</type></trkpt>
      <trkpt lat="39.40957696" lon="-6.33755116"><ele>1129</ele><speed>11.25</speed><time>2016-06-21T15:08:48Z</time><pdop>4.0</pdop><geoidheight>54.00</geoidheight><course>285.0</course><type>1</type></trkpt>
      <trkpt lat="39.40961713" lon="-6.33767462"><ele>1130</ele><speed>11.75</speed><time>2016-06-21T15:08:49Z</time><pdop>4.0</pdop><geoidheight>54.00</geoidheight><course>287.8</course><type>1</type></trkpt>
      <trkpt lat="39.4096886" lon="-6.33799207"><ele>1128</ele><speed>13.75</speed><time>2016-06-21T15:08:51Z</time><pdop>3.0</pdop><geoidheight>54.00</geoidheight><course>287.0</course><type>1</type></trkpt>
      <trkpt lat="39.40973536" lon="-6.33813737"><ele>1130</ele><speed>13.25</speed><time>2016-06-21T15:08:52Z</time><pdop>3.0</pdop><geoidheight>54.00</geoidheight><course>291.5</course><type>1</type></trkpt>
      <trkpt lat="39.40978926" lon="-6.33826851"><ele>1132</ele><speed>13.00</speed><time>2016-06-21T15:08:53Z</time><pdop>3.0</pdop><geoidheight>54.00</geoidheight><course>296.5</course><type>1</type></trkpt>
      <trkpt lat="39.4098452" lon="-6.33840214"><ele>1133</ele><speed>13.25</speed><time>2016-06-21T15:08:54Z</time><pdop>3.0</pdop><geoidheight>54.00</geoidheight><course>297.5</course><type>1</type></trkpt>
      <trkpt lat="39.40996367" lon="-6.33869886"><ele>1137</ele><speed>14.75</speed><time>2016-06-21T15:08:56Z</time><pdop>3.0</pdop><geoidheight>54.00</geoidheight><course>296.6</course><type>1</type></trkpt>
      <trkpt lat="39.41002307" lon="-6.33883944"><ele>1140</ele><speed>14.50</speed><time>2016-06-21T15:08:57Z</time><pdop>3.0</pdop><geoidheight>54.00</geoidheight><course>297.7</course><type>1</type></trkpt>
      <trkpt lat="39.41008807" lon="-6.33897121"><ele>1143</ele><speed>13.50</speed><time>2016-06-21T15:08:58Z</time><pdop>3.0</pdop><geoidheight>54.00</geoidheight><course>300.8</course><type>1</type></trkpt>
      <trkpt lat="39.41022263" lon="-6.33919512"><ele>1148</ele><speed>12.25</speed><time>2016-06-21T15:09:00Z</time><pdop>3.0</pdop><geoidheight>54.00</geoidheight><course>309.4</course><type>1</type></trkpt>
      <trkpt lat="39.41037607" lon="-6.3393827"><ele>1152</ele><speed>11.75</speed><time>2016-06-21T15:09:02Z</time><pdop>4.0</pdop><geoidheight>54.00</geoidheight><course>316.6</course><type>1</type></trkpt>
      <trkpt lat="39.41046515" lon="-6.33938042"><ele>1154</ele><speed>9.50</speed><time>2016-06-21T15:09:03Z</time><pdop>3.0</pdop><geoidheight>54.00</geoidheight><course>344.6</course><type>1</type></trkpt>
      <trkpt lat="39.41054803" lon="-6.33940977"><ele>1155</ele><speed>9.50</speed><time>2016-06-21T15:09:04Z</time><pdop>4.0</pdop><geoidheight>54.00</geoidheight><course>344.6</course><type>1</type></trkpt>
      <trkpt lat="39.41059338" lon="-6.33928846"><ele>1157</ele><speed>4.25</speed><time>2016-06-21T15:09:06Z</time><pdop>3.0</pdop><geoidheight>54.00</geoidheight><course>53.8</course><type>1</type></trkpt>
      <trkpt lat="39.41057573" lon="-6.33918671"><ele>1161</ele><speed>4.75</speed><time>2016-06-21T15:09:08Z</time><pdop>3.0</pdop><geoidheight>54.00</geoidheight><course>107.2</course><type>1</type></trkpt>
      <trkpt lat="39.41048629" lon="-6.33916117"><ele>1166</ele><speed>5.75</speed><time>2016-06-21T15:09:10Z</time><pdop>3.0</pdop><geoidheight>54.00</geoidheight><course>180.2</course><type>1</type></trkpt>
      <trkpt lat="39.41042488" lon="-6.33919583"><ele>1168</ele><speed>7.50</speed><time>2016-06-21T15:09:11Z</time><pdop>3.0</pdop><geoidheight>54.00</geoidheight><course>202.6</course><type>1</type></trkpt>
      <trkpt lat="39.41035927" lon="-6.33925637"><ele>1170</ele><speed>8.75</speed><time>2016-06-21T15:09:12Z</time><pdop>3.0</pdop><geoidheight>54.00</geoidheight><course>216.1</course><type>1</type></trkpt>
      <trkpt lat="39.4102515" lon="-6.33946199"><ele>1175</ele><speed>11.00</speed><time>2016-06-21T15:09:14Z</time><pdop>3.0</pdop><geoidheight>54.00</geoidheight><course>239.7</course><type>1</type></trkpt>
      <trkpt lat="39.41022202" lon="-6.33959866"><ele>1176</ele><speed>11.75</speed><time>2016-06-21T15:09:15Z</time><pdop>3.0</pdop><geoidheight>54.00</geoidheight><course>252.2</course><type>1</type></trkpt>
      <trkpt lat="39.41023738" lon="-6.33988858"><ele>1176</ele><speed>12.50</speed><time>2016-06-21T15:09:17Z</time><pdop>3.0</pdop><geoidheight>54.00</geoidheight><course>278.5</course><type>1</type></trkpt>
      <trkpt lat="39.41032352" lon="-6.34015864"><ele>1176</ele><speed>12.50</speed><time>2016-06-21T15:09:19Z</time><pdop>3.0</pdop><geoidheight>54.00</geoidheight><course>296.2</course><type>1</type></trkpt>
      <trkpt lat="39.41037289" lon="-6.3402881"><ele>1176</ele><speed>12.50</speed><time>2016-06-21T15:09:20Z</time><pdop>5.0</pdop><geoidheight>54.00</geoidheight><course>296.2</course><type>1</type></trkpt>
      <trkpt lat="39.41052933" lon="-6.3405081"><ele>1175</ele><speed>13.00</speed><time>2016-06-21T15:09:22Z</time><pdop>3.0</pdop><geoidheight>54.00</geoidheight><course>310.0</course><type>1</type></trkpt>
      <trkpt lat="39.41071581" lon="-6.34069448"><ele>1175</ele><speed>13.00</speed><time>2016-06-21T15:09:24Z</time><pdop>3.0</pdop><geoidheight>54.00</geoidheight><course>323.2</course><type>1</type></trkpt>
      <trkpt lat="39.4108085" lon="-6.3407566"><ele>1177</ele><speed>11.75</speed><time>2016-06-21T15:09:25Z</time><pdop>3.0</pdop><geoidheight>54.00</geoidheight><course>329.8</course><type>1</type></trkpt>
      <trkpt lat="39.41089656" lon="-6.34080476"><ele>1179</ele><speed>10.75</speed><time>2016-06-21T15:09:26Z</time><pdop>3.0</pdop><geoidheight>54.00</geoidheight><course>336.8</course><type>1</type></trkpt>
      <trkpt lat="39.41097781" lon="-6.34084084"><ele>1181</ele><speed>10.00</speed><time>2016-06-21T15:09:27Z</time><pdop>3.0</pdop><geoidheight>54.00</geoidheight><course>341.7</course><type>1</type></trkpt>
      <trkpt lat="39.4111232" lon="-6.34086633"><ele>1185</ele><speed>7.50</speed><time>2016-06-21T15:09:29Z</time><pdop>3.0</pdop><geoidheight>54.00</geoidheight><course>355.2</course><type>1</type></trkpt>
      <trkpt lat="39.41117569" lon="-6.34085021"><ele>1186</ele><speed>6.00</speed><time>2016-06-21T15:09:30Z</time><pdop>3.0</pdop><geoidheight>54.00</geoidheight><course>10.0</course><type>1</type></trkpt>
      <trkpt lat="39.41119609" lon="-6.34074496"><ele>1187</ele><speed>3.75</speed><time>2016-06-21T15:09:33Z</time><pdop>3.0</pdop><geoidheight>54.00</geoidheight><course>122.4</course><type>1</type></trkpt>
      <trkpt lat="39.4110776" lon="-6.34073056"><ele>1189</ele><speed>7.50</speed><time>2016-06-21T15:09:35Z</time><pdop>3.0</pdop><geoidheight>54.00</geoidheight><course>181.0</course><type>1</type></trkpt>
      <trkpt lat="39.4109177" lon="-6.34084192"><ele>1195</ele><speed>10.25</speed><time>2016-06-21T15:09:37Z</time><pdop>3.0</pdop><geoidheight>54.00</geoidheight><course>213.9</course><type>1</type></trkpt>
      <trkpt lat="39.41085842" lon="-6.34094348"><ele>1198</ele><speed>10.25</speed><time>2016-06-21T15:09:38Z</time><pdop>3.0</pdop><geoidheight>54.00</geoidheight><course>231.0</course><type>1</type></trkpt>
      <trkpt lat="39.41080362" lon="-6.34104253"><ele>1200</ele><speed>10.50</speed><time>2016-06-21T15:09:39Z</time><pdop>4.0</pdop><geoidheight>54.00</geoidheight><course>234.1</course><type>1</type></trkpt>
      <trkpt lat="39.4108298" lon="-6.34130258"><ele>1201</ele><speed>11.00</speed><time>2016-06-21T15:09:41Z</time><pdop>3.0</pdop><geoidheight>54.00</geoidheight><course>272.8</course><type>1</type></trkpt>
      <trkpt lat="39.41083978" lon="-6.34143643"><ele>1201</ele><speed>11.25</speed><time>2016-06-21T15:09:42Z</time><pdop>3.0</pdop><geoidheight>54.00</geoidheight><course>274.6</course><type>1</type></trkpt>
      <trkpt lat="39.41085599" lon="-6.34157414"><ele>1200</ele><speed>11.50</speed><time>2016-06-21T15:09:43Z</time><pdop>3.0</pdop><geoidheight>54.00</geoidheight><course>277.8</course><type>1</type></trkpt>
      <trkpt lat="39.41094884" lon="-6.3418145"><ele>1197</ele><speed>11.75</speed><time>2016-06-21T15:09:45Z</time><pdop>3.0</pdop><geoidheight>54.00</geoidheight><course>302.2</course><type>1</type></trkpt>
      <trkpt lat="39.41103302" lon="-6.34191535"><ele>1195</ele><speed>12.75</speed><time>2016-06-21T15:09:46Z</time><pdop>3.0</pdop><geoidheight>54.00</geoidheight><course>316.0</course><type>1</type></trkpt>
      <trkpt lat="39.41122571" lon="-6.34204358"><ele>1195</ele><speed>11.75</speed><time>2016-06-21T15:09:48Z</time><pdop>3.0</pdop><geoidheight>54.00</geoidheight><course>335.8</course><type>1</type></trkpt>
      <trkpt lat="39.41131313" lon="-6.34208461"><ele>1197</ele><speed>10.50</speed><time>2016-06-21T15:09:49Z</time><pdop>3.0</pdop><geoidheight>54.00</geoidheight><course>340.6</course><type>1</type></trkpt>
      <trkpt lat="39.41147928" lon="-6.34213122"><ele>1187</ele><speed>9.50</speed><time>2016-06-21T15:09:51Z</time><pdop>3.0</pdop><geoidheight>54.00</geoidheight><course>345.8</course><type>1</type></trkpt>
      <trkpt lat="39.41156146" lon="-6.34215804"><ele>1188</ele><speed>9.50</speed><time>2016-06-21T15:09:52Z</time><pdop>5.0</pdop><geoidheight>54.00</geoidheight><course>345.8</course><type>1</type></trkpt>
      <trkpt lat="39.41173245" lon="-6.34216902"><ele>1200</ele><speed>9.00</speed><time>2016-06-21T15:09:54Z</time><pdop>3.0</pdop><geoidheight>54.00</geoidheight><course>358.6</course><type>1</type></trkpt>
      <trkpt lat="39.41180823" lon="-6.34216871"><ele>1204</ele><speed>8.25</speed><time>2016-06-21T15:09:55Z</time><pdop>3.0</pdop><geoidheight>54.00</geoidheight><course>1.0</course><type>1</type></trkpt>
      <trkpt lat="39.41187347" lon="-6.34216582"><ele>1208</ele><speed>7.25</speed><time>2016-06-21T15:09:56Z</time><pdop>3.0</pdop><geoidheight>54.00</geoidheight><course>0.7</course><type>1</type></trkpt>
      <trkpt lat="39.41193172" lon="-6.34216102"><ele>1211</ele><speed>6.50</speed><time>2016-06-21T15:09:57Z</time><pdop>3.0</pdop><geoidheight>54.00</geoidheight><course>1.6</course><type>1</type></trkpt>
      <trkpt lat="39.41205558" lon="-6.34209713"><ele>1219</ele><speed>4.50</speed><time>2016-06-21T15:10:00Z</time><pdop>3.0</pdop><geoidheight>54.00</geoidheight><course>32.2</course><type>1</type></trkpt>
      <trkpt lat="39.41208515" lon="-6.34202536"><ele>1225</ele><speed>3.50</speed><time>2016-06-21T15:10:02Z</time><pdop>3.0</pdop><geoidheight>54.00</geoidheight><course>70.3</course><type>1</type></trkpt>
      <trkpt lat="39.41203234" lon="-6.34197887"><ele>1229</ele><speed>4.25</speed><time>2016-06-21T15:10:04Z</time><pdop>3.0</pdop><geoidheight>54.00</geoidheight><course>161.8</course><type>1</type></trkpt>
      <trkpt lat="39.41197427" lon="-6.34200045"><ele>1230</ele><speed>6.50</speed><time>2016-06-21T15:10:05Z</time><pdop>3.0</pdop><geoidheight>54.00</geoidheight><course>192.6</course><type>1</type></trkpt>
      <trkpt lat="39.41190399" lon="-6.34207452"><ele>1231</ele><speed>9.50</speed><time>2016-06-21T15:10:06Z</time><pdop>4.0</pdop><geoidheight>54.00</geoidheight><course>217.1</course><type>1</type></trkpt>
      <trkpt lat="39.41183142" lon="-6.34219135"><ele>1232</ele><speed>12.25</speed><time>2016-06-21T15:10:07Z</time><pdop>4.0</pdop><geoidheight>54.00</geoidheight><course>230.7</course><type>1</type></trkpt>
      <trkpt lat="39.41175871" lon="-6.34250165"><ele>1239</ele><speed>14.00</speed><time>2016-06-21T15:10:09Z</time><pdop>3.0</pdop><geoidheight>54.00</geoidheight><course>256.9</course><type>1</type></trkpt>
      <trkpt lat="39.41175739" lon="-6.34266038"><ele>1243</ele><speed>13.75</speed><time>2016-06-21T15:10:10Z</time><pdop>3.0</pdop><geoidheight>54.00</geoidheight><course>267.0</course><type>1</type></trkpt>
      <trkpt lat="39.41177608" lon="-6.34281244"><ele>1245</ele><speed>13.25</speed><time>2016-06-21T15:10:11Z</time><pdop>3.0</pdop><geoidheight>54.00</geoidheight><course>277.3</course><type>1</type></trkpt>
      <trkpt lat="39.41186891" lon="-6.34312058"><ele>1247</ele><speed>14.75</speed><time>2016-06-21T15:10:13Z</time><pdop>4.0</pdop><geoidheight>54.00</geoidheight><course>293.5</course><type>1</type></trkpt>
      <trkpt lat="39.41194626" lon="-6.34326883"><ele>1249</ele><speed>15.25</speed><time>2016-06-21T15:10:14Z</time><pdop>4.0</pdop><geoidheight>54.00</geoidheight><course>301.7</course><type>1</type></trkpt>
      <trkpt lat="39.41211151" lon="-6.3434962"><ele>1254</ele><speed>13.25</speed><time>2016-06-21T15:10:16Z</time><pdop>3.0</pdop><geoidheight>54.00</geoidheight><course>315.5</course><type>1</type></trkpt>
      <trkpt lat="39.41227222" lon="-6.34362755"><ele>1259</ele><speed>10.25</speed><time>2016-06-21T15:10:18Z</time><pdop>3.0</pdop><geoidheight>54.00</geoidheight><course>332.9</course><type>1</type></trkpt>
      <trkpt lat="39.41234962" lon="-6.34366334"><ele>1261</ele><speed>9.25</speed><time>2016-06-21T15:10:19Z</time><pdop>3.0</pdop><geoidheight>54.00</geoidheight><course>340.3</course><type>1</type></trkpt>
      <trkpt lat="39.41242655" lon="-6.34367922"><ele>1263</ele><speed>8.75</speed><time>2016-06-21T15:10:20Z</time><pdop>3.0</pdop><geoidheight>54.00</geoidheight><course>348.8</course><type>1</type></trkpt>
      <trkpt lat="39.41249041" lon="-6.3436772"><ele>1265</ele><speed>7.25</speed><time>2016-06-21T15:10:21Z</time><pdop>3.0</pdop><geoidheight>54.00</geoidheight><course>0.5</course><type>1</type></trkpt>
      <trkpt lat="39.41253187" lon="-6.34360354"><ele>1273</ele><speed>2.75</speed><time>2016-06-21T15:10:24Z</time><pdop>3.0</pdop><geoidheight>54.00</geoidheight><course>102.3</course><type>1</type></trkpt>
      <trkpt lat="39.41246088" lon="-6.34357281"><ele>1255</ele><speed>3.75</speed><time>2016-06-21T15:10:26Z</time><pdop>4.0</pdop><geoidheight>54.00</geoidheight><course>162.9</course><type>1</type></trkpt>
      <trkpt lat="39.412390189999996" lon="-6.34363427"><ele>1266</ele><speed>7.00</speed><time>2016-06-21T15:10:27Z</time><pdop>3.0</pdop><geoidheight>54.00</geoidheight><course>205.1</course><type>1</type></trkpt>
      <trkpt lat="39.41233278" lon="-6.34371025"><ele>1273</ele><speed>8.75</speed><time>2016-06-21T15:10:28Z</time><pdop>3.0</pdop><geoidheight>54.00</geoidheight><course>222.8</course><type>1</type></trkpt>
      <trkpt lat="39.41227626" lon="-6.34380916"><ele>1278</ele><speed>10.25</speed><time>2016-06-21T15:10:29Z</time><pdop>3.0</pdop><geoidheight>54.00</geoidheight><course>233.7</course><type>1</type></trkpt>
      <trkpt lat="39.41218178" lon="-6.34406852"><ele>1284</ele><speed>12.50</speed><time>2016-06-21T15:10:31Z</time><pdop>4.0</pdop><geoidheight>54.00</geoidheight><course>246.1</course><type>1</type></trkpt>
      <trkpt lat="39.41213762" lon="-6.34422134"><ele>1286</ele><speed>13.75</speed><time>2016-06-21T15:10:32Z</time><pdop>4.0</pdop><geoidheight>54.00</geoidheight><course>249.4</course><type>1</type></trkpt>
      <trkpt lat="39.41210457" lon="-6.34438308"><ele>1289</ele><speed>14.25</speed><time>2016-06-21T15:10:33Z</time><pdop>3.0</pdop><geoidheight>54.00</geoidheight><course>254.4</course><type>1</type></trkpt>
      <trkpt lat="39.4120853" lon="-6.34455053"><ele>1291</ele><speed>14.75</speed><time>2016-06-21T15:10:34Z</time><pdop>3.0</pdop><geoidheight>54.00</geoidheight><course>260.3</course><type>1</type></trkpt>
      <trkpt lat="39.41207951" lon="-6.34472299"><ele>1292</ele><speed>15.00</speed><time>2016-06-21T15:10:35Z</time><pdop>3.0</pdop><geoidheight>54.00</geoidheight><course>266.8</course><type>1</type></trkpt>
      <trkpt lat="39.41209291" lon="-6.34489408"><ele>1293</ele><speed>14.75</speed><time>2016-06-21T15:10:36Z</time><pdop>3.0</pdop><geoidheight>54.00</geoidheight><course>275.2</course><type>1</type></trkpt>
      <trkpt lat="39.41212472" lon="-6.34505641"><ele>1294</ele><speed>14.25</speed><time>2016-06-21T15:10:37Z</time><pdop>3.0</pdop><geoidheight>54.00</geoidheight><course>284.1</course><type>1</type></trkpt>
      <trkpt lat="39.41217504" lon="-6.34519629"><ele>1294</ele><speed>13.50</speed><time>2016-06-21T15:10:38Z</time><pdop>4.0</pdop><geoidheight>54.00</geoidheight><course>294.2</course><type>1</type></trkpt>
      <trkpt lat="39.41231982" lon="-6.34541573"><ele>1292</ele><speed>12.00</speed><time>2016-06-21T15:10:40Z</time><pdop>3.0</pdop><geoidheight>54.00</geoidheight><course>314.4</course><type>1</type></trkpt>
      <trkpt lat="39.41240082" lon="-6.34550603"><ele>1292</ele><speed>11.75</speed><time>2016-06-21T15:10:41Z</time><pdop>4.0</pdop><geoidheight>54.00</geoidheight><course>321.4</course><type>1</type></trkpt>
      <trkpt lat="39.41248471" lon="-6.34557638"><ele>1291</ele><speed>11.25</speed><time>2016-06-21T15:10:42Z</time><pdop>4.0</pdop><geoidheight>54.00</geoidheight><course>327.1</course><type>1</type></trkpt>
      <trkpt lat="39.41256268" lon="-6.34562569"><ele>1291</ele><speed>9.75</speed><time>2016-06-21T15:10:43Z</time><pdop>4.0</pdop><geoidheight>54.00</geoidheight><course>334.3</course><type>1</type></trkpt>
      <trkpt lat="39.41270426" lon="-6.34564095"><ele>1287</ele><speed>7.50</speed><time>2016-06-21T15:10:45Z</time><pdop>3.0</pdop><geoidheight>54.00</geoidheight><course>359.0</course><type>1</type></trkpt>
      <trkpt lat="39.41276248" lon="-6.34562064"><ele>1285</ele><speed>7.00</speed><time>2016-06-21T15:10:46Z</time><pdop>3.0</pdop><geoidheight>54.00</geoidheight><course>9.1</course><type>1</type></trkpt>
      <trkpt lat="39.41287476" lon="-6.34556133"><ele>1282</ele><speed>6.75</speed><time>2016-06-21T15:10:48Z</time><pdop>3.0</pdop><geoidheight>54.00</geoidheight><course>29.7</course><type>1</type></trkpt>
      <trkpt lat="39.41291521" lon="-6.34549621"><ele>1282</ele><speed>7.00</speed><time>2016-06-21T15:10:49Z</time><pdop>3.0</pdop><geoidheight>54.00</geoidheight><course>49.0</course><type>1</type></trkpt>
      <trkpt lat="39.41293909" lon="-6.34542604"><ele>1285</ele><speed>6.75</speed><time>2016-06-21T15:10:50Z</time><pdop>3.0</pdop><geoidheight>54.00</geoidheight><course>65.5</course><type>1</type></trkpt>
      <trkpt lat="39.41296889" lon="-6.34529928"><ele>1294</ele><speed>5.75</speed><time>2016-06-21T15:10:52Z</time><pdop>4.0</pdop><geoidheight>54.00</geoidheight><course>71.9</course><type>1</type></trkpt>
      <trkpt lat="39.41289353" lon="-6.34528591"><ele>1296</ele><speed>4.00</speed><time>2016-06-21T15:10:57Z</time><pdop>3.0</pdop><geoidheight>54.00</geoidheight><course>165.5</course><type>1</type></trkpt>
      <trkpt lat="39.4127962" lon="-6.34529032"><ele>1298</ele><speed>6.25</speed><time>2016-06-21T15:10:59Z</time><pdop>3.0</pdop><geoidheight>54.00</geoidheight><course>189.3</course><type>1</type></trkpt>
      <trkpt lat="39.41273725" lon="-6.34533355"><ele>1299</ele><speed>7.50</speed><time>2016-06-21T15:11:00Z</time><pdop>3.0</pdop><geoidheight>54.00</geoidheight><course>208.4</course><type>1</type></trkpt>
      <trkpt lat="39.41261279" lon="-6.34551092"><ele>1300</ele><speed>11.25</speed><time>2016-06-21T15:11:02Z</time><pdop>3.0</pdop><geoidheight>54.00</geoidheight><course>233.7</course><type>1</type></trkpt>
      <trkpt lat="39.41251384" lon="-6.34578478"><ele>1300</ele><speed>12.75</speed><time>2016-06-21T15:11:04Z</time><pdop>5.0</pdop><geoidheight>54.00</geoidheight><course>244.3</course><type>1</type></trkpt>
      <trkpt lat="39.41254386" lon="-6.34600371"><ele>1299</ele><speed>15.75</speed><time>2016-06-21T15:11:05Z</time><pdop>3.0</pdop><geoidheight>54.00</geoidheight><course>271.6</course><type>1</type></trkpt>
      <trkpt lat="39.41258497" lon="-6.34619236"><ele>1298</ele><speed>16.75</speed><time>2016-06-21T15:11:06Z</time><pdop>3.0</pdop><geoidheight>54.00</geoidheight><course>284.4</course><type>1</type></trkpt>
      <trkpt lat="39.41272541" lon="-6.34651445"><ele>1299</ele><speed>15.75</speed><time>2016-06-21T15:11:08Z</time><pdop>4.0</pdop><geoidheight>54.00</geoidheight><course>303.4</course><type>1</type></trkpt>
      <trkpt lat="39.4128148" lon="-6.34663909"><ele>1301</ele><speed>14.75</speed><time>2016-06-21T15:11:09Z</time><pdop>3.0</pdop><geoidheight>54.00</geoidheight><course>310.6</course><type>1</type></trkpt>
      <trkpt lat="39.41297747" lon="-6.34686061"><ele>1304</ele><speed>13.25</speed><time>2016-06-21T15:11:11Z</time><pdop>3.0</pdop><geoidheight>54.00</geoidheight><course>311.8</course><type>1</type></trkpt>
      <trkpt lat="39.41306" lon="-6.34696896"><ele>1305</ele><speed>13.00</speed><time>2016-06-21T15:11:12Z</time><pdop>3.0</pdop><geoidheight>54.00</geoidheight><course>314.4</course><type>1</type></trkpt>
      <trkpt lat="39.41314654" lon="-6.34706397"><ele>1305</ele><speed>12.25</speed><time>2016-06-21T15:11:13Z</time><pdop>3.0</pdop><geoidheight>54.00</geoidheight><course>320.8</course><type>1</type></trkpt>
      <trkpt lat="39.41331088" lon="-6.34715092"><ele>1303</ele><speed>9.25</speed><time>2016-06-21T15:11:15Z</time><pdop>3.0</pdop><geoidheight>54.00</geoidheight><course>345.2</course><type>1</type></trkpt>
      <trkpt lat="39.41347679" lon="-6.34715115"><ele>1301</ele><speed>9.25</speed><time>2016-06-21T15:11:17Z</time><pdop>3.0</pdop><geoidheight>54.00</geoidheight><course>2.4</course><type>1</type></trkpt>
      <trkpt lat="39.41363013" lon="-6.3471309399999996"><ele>1303</ele><speed>8.25</speed><time>2016-06-21T15:11:19Z</time><pdop>3.0</pdop><geoidheight>54.00</geoidheight><course>9.6</course><type>1</type></trkpt>
      <trkpt lat="39.41369357" lon="-6.3471077"><ele>1306</ele><speed>7.50</speed><time>2016-06-21T15:11:20Z</time><pdop>3.0</pdop><geoidheight>54.00</geoidheight><course>17.8</course><type>1</type></trkpt>
      <trkpt lat="39.41375517" lon="-6.34708247"><ele>1308</ele><speed>7.00</speed><time>2016-06-21T15:11:21Z</time><pdop>3.0</pdop><geoidheight>54.00</geoidheight><course>16.0</course><type>1</type></trkpt>
      <trkpt lat="39.41388555" lon="-6.34709114"><ele>1309</ele><speed>7.75</speed><time>2016-06-21T15:11:23Z</time><pdop>3.0</pdop><geoidheight>54.00</geoidheight><course>352.1</course><type>1</type></trkpt>
      <trkpt lat="39.4139652" lon="-6.34710993"><ele>1309</ele><speed>8.75</speed><time>2016-06-21T15:11:24Z</time><pdop>3.0</pdop><geoidheight>54.00</geoidheight><course>350.2</course><type>1</type></trkpt>
      <trkpt lat="39.41404375" lon="-6.34712735"><ele>1309</ele><speed>8.75</speed><time>2016-06-21T15:11:25Z</time><pdop>4.0</pdop><geoidheight>54.00</geoidheight><course>350.2</course><type>1</type></trkpt>
      <trkpt lat="39.41422489" lon="-6.34712911"><ele>1311</ele><speed>9.75</speed><time>2016-06-21T15:11:27Z</time><pdop>3.0</pdop><geoidheight>54.00</geoidheight><course>358.1</course><type>1</type></trkpt>
      <trkpt lat="39.4143122" lon="-6.34713134"><ele>1312</ele><speed>9.75</speed><time>2016-06-21T15:11:28Z</time><pdop>3.0</pdop><geoidheight>54.00</geoidheight><course>358.0</course><type>1</type></trkpt>
      <trkpt lat="39.41440612" lon="-6.34713497"><ele>1314</ele><speed>10.25</speed><time>2016-06-21T15:11:29Z</time><pdop>3.0</pdop><geoidheight>54.00</geoidheight><course>356.9</course><type>1</type></trkpt>
      <trkpt lat="39.414599" lon="-6.34715308"><ele>1317</ele><speed>10.50</speed><time>2016-06-21T15:11:31Z</time><pdop>3.0</pdop><geoidheight>54.00</geoidheight><course>355.7</course><type>1</type></trkpt>
      <trkpt lat="39.41469097" lon="-6.34717338"><ele>1318</ele><speed>10.50</speed><time>2016-06-21T15:11:32Z</time><pdop>3.0</pdop><geoidheight>54.00</geoidheight><course>352.6</course><type>1</type></trkpt>
      <trkpt lat="39.41489665" lon="-6.34723651"><ele>1320</ele><speed>12.00</speed><time>2016-06-21T15:11:34Z</time><pdop>3.0</pdop><geoidheight>54.00</geoidheight><course>344.5</course><type>1</type></trkpt>
      <trkpt lat="39.41500638" lon="-6.34728527"><ele>1321</ele><speed>12.75</speed><time>2016-06-21T15:11:35Z</time><pdop>4.0</pdop><geoidheight>54.00</geoidheight><course>341.5</course><type>1</type></trkpt>
      <trkpt lat="39.41512381" lon="-6.34733906"><ele>1323</ele><speed>13.25</speed><time>2016-06-21T15:11:36Z</time><pdop>3.0</pdop><geoidheight>54.00</geoidheight><course>339.7</course><type>1</type></trkpt>
      <trkpt lat="39.4153617" lon="-6.34745789"><ele>1327</ele><speed>14.25</speed><time>2016-06-21T15:11:38Z</time><pdop>3.0</pdop><geoidheight>54.00</geoidheight><course>338.0</course><type>1</type></trkpt>
      <trkpt lat="39.41547818" lon="-6.34751722"><ele>1331</ele><speed>13.75</speed><time>2016-06-21T15:11:39Z</time><pdop>3.0</pdop><geoidheight>54.00</geoidheight><course>338.8</course><type>1</type></trkpt>
      <trkpt lat="39.41558419" lon="-6.34756353"><ele>1334</ele><speed>13.00</speed><time>2016-06-21T15:11:40Z</time><pdop>4.0</pdop><geoidheight>54.00</geoidheight><course>341.6</course><type>1</type></trkpt>
      <trkpt lat="39.41578125" lon="-6.34759321"><ele>1341</ele><speed>11.00</speed><time>2016-06-21T15:11:42Z</time><pdop>3.0</pdop><geoidheight>54.00</geoidheight><course>356.8</course><type>1</type></trkpt>
      <trkpt lat="39.41587573" lon="-6.34758779"><ele>1345</ele><speed>10.50</speed><time>2016-06-21T15:11:43Z</time><pdop>3.0</pdop><geoidheight>54.00</geoidheight><course>2.7</course><type>1</type></trkpt>
      <trkpt lat="39.41602374" lon="-6.34756595"><ele>1351</ele><speed>7.50</speed><time>2016-06-21T15:11:45Z</time><pdop>3.0</pdop><geoidheight>54.00</geoidheight><course>6.3</course><type>1</type></trkpt>
      <trkpt lat="39.41610957" lon="-6.34751308"><ele>1351</ele><speed>5.00</speed><time>2016-06-21T15:11:47Z</time><pdop>4.0</pdop><geoidheight>54.00</geoidheight><course>34.3</course><type>1</type></trkpt>
      <trkpt lat="39.41611825" lon="-6.3474298"><ele>1352</ele><speed>3.25</speed><time>2016-06-21T15:11:49Z</time><pdop>3.0</pdop><geoidheight>54.00</geoidheight><course>94.4</course><type>1</type></trkpt>
      <trkpt lat="39.41597547" lon="-6.34749157"><ele>1354</ele><speed>7.25</speed><time>2016-06-21T15:11:52Z</time><pdop>3.0</pdop><geoidheight>54.00</geoidheight><course>212.2</course><type>1</type></trkpt>
      <trkpt lat="39.41587988" lon="-6.34763865"><ele>1361</ele><speed>8.25</speed><time>2016-06-21T15:11:54Z</time><pdop>3.0</pdop><geoidheight>54.00</geoidheight><course>234.3</course><type>1</type></trkpt>
      <trkpt lat="39.41584482" lon="-6.34774204"><ele>1364</ele><speed>9.50</speed><time>2016-06-21T15:11:55Z</time><pdop>3.0</pdop><geoidheight>54.00</geoidheight><course>244.6</course><type>1</type></trkpt>
      <trkpt lat="39.41581661" lon="-6.34786256"><ele>1367</ele><speed>10.50</speed><time>2016-06-21T15:11:56Z</time><pdop>3.0</pdop><geoidheight>54.00</geoidheight><course>251.0</course><type>1</type></trkpt>
      <trkpt lat="39.41578809" lon="-6.34814476"><ele>1374</ele><speed>12.50</speed><time>2016-06-21T15:11:58Z</time><pdop>3.0</pdop><geoidheight>54.00</geoidheight><course>264.9</course><type>1</type></trkpt>
      <trkpt lat="39.41580052" lon="-6.34830599"><ele>1378</ele><speed>14.00</speed><time>2016-06-21T15:11:59Z</time><pdop>3.0</pdop><geoidheight>54.00</geoidheight><course>273.8</course><type>1</type></trkpt>
      <trkpt lat="39.41583279" lon="-6.34847731"><ele>1383</ele><speed>15.00</speed><time>2016-06-21T15:12:00Z</time><pdop>3.0</pdop><geoidheight>54.00</geoidheight><course>283.1</course><type>1</type></trkpt>
      <trkpt lat="39.415886" lon="-6.34864035"><ele>1388</ele><speed>14.75</speed><time>2016-06-21T15:12:01Z</time><pdop>3.0</pdop><geoidheight>54.00</geoidheight><course>292.3</course><type>1</type></trkpt>
      <trkpt lat="39.41603292" lon="-6.34890477"><ele>1396</ele><speed>13.50</speed><time>2016-06-21T15:12:03Z</time><pdop>4.0</pdop><geoidheight>54.00</geoidheight><course>307.8</course><type>1</type></trkpt>
      <trkpt lat="39.41612545" lon="-6.34899923"><ele>1399</ele><speed>13.25</speed><time>2016-06-21T15:12:04Z</time><pdop>3.0</pdop><geoidheight>54.00</geoidheight><course>317.8</course><type>1</type></trkpt>
      <trkpt lat="39.41632859" lon="-6.34917196"><ele>1403</ele><speed>13.50</speed><time>2016-06-21T15:12:06Z</time><pdop>5.0</pdop><geoidheight>54.00</geoidheight><course>325.7</course><type>1</type></trkpt>
      <trkpt lat="39.41646624" lon="-6.34919523"><ele>1404</ele><speed>14.25</speed><time>2016-06-21T15:12:07Z</time><pdop>3.0</pdop><geoidheight>54.00</geoidheight><course>344.8</course><type>1</type></trkpt>
      <trkpt lat="39.41658845" lon="-6.34919036"><ele>1407</ele><speed>13.50</speed><time>2016-06-21T15:12:08Z</time><pdop>3.0</pdop><geoidheight>54.00</geoidheight><course>0.5</course><type>1</type></trkpt>
      <trkpt lat="39.4167455" lon="-6.34905834"><ele>1412</ele><speed>9.75</speed><time>2016-06-21T15:12:10Z</time><pdop>3.0</pdop><geoidheight>54.00</geoidheight><course>41.8</course><type>1</type></trkpt>
      <trkpt lat="39.41678312" lon="-6.34897509"><ele>1416</ele><speed>8.25</speed><time>2016-06-21T15:12:11Z</time><pdop>3.0</pdop><geoidheight>54.00</geoidheight><course>58.8</course><type>1</type></trkpt>
      <trkpt lat="39.41678946" lon="-6.34890379"><ele>1420</ele><speed>6.50</speed><time>2016-06-21T15:12:12Z</time><pdop>3.0</pdop><geoidheight>54.00</geoidheight><course>76.3</course><type>1</type></trkpt>
      <trkpt lat="39.41674148" lon="-6.34882527"><ele>1425</ele><speed>4.50</speed><time>2016-06-21T15:12:14Z</time><pdop>3.0</pdop><geoidheight>54.00</geoidheight><course>147.2</course><type>1</type></trkpt>
      <trkpt lat="39.41657468" lon="-6.34895893"><ele>1433</ele><speed>9.00</speed><time>2016-06-21T15:12:17Z</time><pdop>3.0</pdop><geoidheight>54.00</geoidheight><course>231.3</course><type>1</type></trkpt>
      <trkpt lat="39.41653982" lon="-6.34921032"><ele>1440</ele><speed>11.50</speed><time>2016-06-21T15:12:19Z</time><pdop>3.0</pdop><geoidheight>54.00</geoidheight><course>266.3</course><type>1</type></trkpt>
      <trkpt lat="39.41660348" lon="-6.34947976"><ele>1449</ele><speed>12.25</speed><time>2016-06-21T15:12:21Z</time><pdop>3.0</pdop><geoidheight>54.00</geoidheight><course>292.1</course><type>1</type></trkpt>
      <trkpt lat="39.41664497" lon="-6.34961132"><ele>1453</ele><speed>12.25</speed><time>2016-06-21T15:12:22Z</time><pdop>5.0</pdop><geoidheight>54.00</geoidheight><course>292.1</course><type>1</type></trkpt>
      <trkpt lat="39.41685505" lon="-6.34982596"><ele>1460</ele><speed>14.00</speed><time>2016-06-21T15:12:24Z</time><pdop>3.0</pdop><geoidheight>54.00</geoidheight><course>320.2</course><type>1</type></trkpt>
      <trkpt lat="39.41706763" lon="-6.34995199"><ele>1468</ele><speed>12.50</speed><time>2016-06-21T15:12:26Z</time><pdop>3.0</pdop><geoidheight>54.00</geoidheight><course>339.8</course><type>1</type></trkpt>
      <trkpt lat="39.41717097" lon="-6.34997559"><ele>1472</ele><speed>12.00</speed><time>2016-06-21T15:12:27Z</time><pdop>3.0</pdop><geoidheight>54.00</geoidheight><course>348.4</course><type>1</type></trkpt>
      <trkpt lat="39.41736716" lon="-6.34996169"><ele>1467</ele><speed>11.00</speed><time>2016-06-21T15:12:29Z</time><pdop>3.0</pdop><geoidheight>54.00</geoidheight><course>7.0</course><type>1</type></trkpt>
      <trkpt lat="39.41746493" lon="-6.34994613"><ele>1470</ele><speed>11.00</speed><time>2016-06-21T15:12:30Z</time><pdop>5.0</pdop><geoidheight>54.00</geoidheight><course>7.0</course><type>1</type></trkpt>
      <trkpt lat="39.41760825" lon="-6.3497845"><ele>1484</ele><speed>9.50</speed><time>2016-06-21T15:12:32Z</time><pdop>3.0</pdop><geoidheight>54.00</geoidheight><course>41.5</course><type>1</type></trkpt>
      <trkpt lat="39.41764242" lon="-6.34970149"><ele>1487</ele><speed>8.25</speed><time>2016-06-21T15:12:33Z</time><pdop>3.0</pdop><geoidheight>54.00</geoidheight><course>59.1</course><type>1</type></trkpt>
      <trkpt lat="39.41762759" lon="-6.34955367"><ele>1490</ele><speed>6.00</speed><time>2016-06-21T15:12:35Z</time><pdop>3.0</pdop><geoidheight>54.00</geoidheight><course>105.3</course><type>1</type></trkpt>
      <trkpt lat="39.41752855" lon="-6.34950964"><ele>1492</ele><speed>6.25</speed><time>2016-06-21T15:12:37Z</time><pdop>3.0</pdop><geoidheight>54.00</geoidheight><course>173.8</course><type>1</type></trkpt>
      <trkpt lat="39.41740245" lon="-6.34962924"><ele>1497</ele><speed>9.00</speed><time>2016-06-21T15:12:39Z</time><pdop>3.0</pdop><geoidheight>54.00</geoidheight><course>224.0</course><type>1</type></trkpt>
      <trkpt lat="39.41734358" lon="-6.34970265"><ele>1500</ele><speed>9.00</speed><time>2016-06-21T15:12:40Z</time><pdop>4.0</pdop><geoidheight>54.00</geoidheight><course>224.0</course><type>1</type></trkpt>
      <trkpt lat="39.4173432" lon="-6.34984132"><ele>1508</ele><speed>9.50</speed><time>2016-06-21T15:12:41Z</time><pdop>3.0</pdop><geoidheight>54.00</geoidheight><course>255.7</course><type>1</type></trkpt>
      <trkpt lat="39.41734787" lon="-6.34994753"><ele>1513</ele><speed>9.00</speed><time>2016-06-21T15:12:42Z</time><pdop>3.0</pdop><geoidheight>54.00</geoidheight><course>271.3</course><type>1</type></trkpt>
      <trkpt lat="39.41740539" lon="-6.35015715"><ele>1522</ele><speed>9.75</speed><time>2016-06-21T15:12:44Z</time><pdop>3.0</pdop><geoidheight>54.00</geoidheight><course>291.7</course><type>1</type></trkpt>
      <trkpt lat="39.4174531" lon="-6.35027568"><ele>1525</ele><speed>11.25</speed><time>2016-06-21T15:12:45Z</time><pdop>3.0</pdop><geoidheight>54.00</geoidheight><course>297.0</course><type>1</type></trkpt>
      <trkpt lat="39.4175157" lon="-6.35039195"><ele>1527</ele><speed>12.00</speed><time>2016-06-21T15:12:46Z</time><pdop>4.0</pdop><geoidheight>54.00</geoidheight><course>303.4</course><type>1</type></trkpt>
      <trkpt lat="39.41773522" lon="-6.35054654"><ele>1533</ele><speed>13.75</speed><time>2016-06-21T15:12:48Z</time><pdop>3.0</pdop><geoidheight>54.00</geoidheight><course>336.3</course><type>1</type></trkpt>
      <trkpt lat="39.41785903" lon="-6.35056774"><ele>1537</ele><speed>13.75</speed><time>2016-06-21T15:12:49Z</time><pdop>3.0</pdop><geoidheight>54.00</geoidheight><course>351.8</course><type>1</type></trkpt>
      <trkpt lat="39.41809665" lon="-6.35051612"><ele>1546</ele><speed>13.00</speed><time>2016-06-21T15:12:51Z</time><pdop>3.0</pdop><geoidheight>54.00</geoidheight><course>10.8</course><type>1</type></trkpt>
      <trkpt lat="39.41829545" lon="-6.35042601"><ele>1553</ele><speed>11.25</speed><time>2016-06-21T15:12:53Z</time><pdop>3.0</pdop><geoidheight>54.00</geoidheight><course>21.4</course><type>1</type></trkpt>
      <trkpt lat="39.41837288" lon="-6.35035695"><ele>1556</ele><speed>10.75</speed><time>2016-06-21T15:12:54Z</time><pdop>3.0</pdop><geoidheight>54.00</geoidheight><course>32.4</course><type>1</type></trkpt>
      <trkpt lat="39.41843449" lon="-6.35026881"><ele>1559</ele><speed>10.25</speed><time>2016-06-21T15:12:55Z</time><pdop>3.0</pdop><geoidheight>54.00</geoidheight><course>46.6</course><type>1</type></trkpt>
      <trkpt lat="39.41849809" lon="-6.35006291"><ele>1563</ele><speed>9.00</speed><time>2016-06-21T15:12:57Z</time><pdop>3.0</pdop><geoidheight>54.00</geoidheight><course>75.4</course><type>1</type></trkpt>
      <trkpt lat="39.41848698" lon="-6.3499834"><ele>1551</ele><speed>7.25</speed><time>2016-06-21T15:12:58Z</time><pdop>3.0</pdop><geoidheight>54.00</geoidheight><course>94.4</course><type>1</type></trkpt>
      <trkpt lat="39.4184159" lon="-6.34991779"><ele>1561</ele><speed>4.75</speed><time>2016-06-21T15:13:00Z</time><pdop>3.0</pdop><geoidheight>54.00</geoidheight><course>159.6</course><type>1</type></trkpt>
      <trkpt lat="39.41834011" lon="-6.34997293"><ele>1566</ele><speed>5.00</speed><time>2016-06-21T15:13:02Z</time><pdop>3.0</pdop><geoidheight>54.00</geoidheight><course>216.3</course><type>1</type></trkpt>
      <trkpt lat="39.4182914" lon="-6.35016977"><ele>1572</ele><speed>7.00</speed><time>2016-06-21T15:13:05Z</time><pdop>3.0</pdop><geoidheight>54.00</geoidheight><course>268.2</course><type>1</type></trkpt>
      <trkpt lat="39.41829697" lon="-6.35025803"><ele>1578</ele><speed>7.50</speed><time>2016-06-21T15:13:06Z</time><pdop>3.0</pdop><geoidheight>54.00</geoidheight><course>273.2</course><type>1</type></trkpt>
      <trkpt lat="39.41830086" lon="-6.35035068"><ele>1582</ele><speed>7.75</speed><time>2016-06-21T15:13:07Z</time><pdop>3.0</pdop><geoidheight>54.00</geoidheight><course>272.7</course><type>1</type></trkpt>
      <trkpt lat="39.41834685" lon="-6.35056001"><ele>1592</ele><speed>10.00</speed><time>2016-06-21T15:13:09Z</time><pdop>3.0</pdop><geoidheight>54.00</geoidheight><course>290.2</course><type>1</type></trkpt>
      <trkpt lat="39.41840623" lon="-6.35067998"><ele>1595</ele><speed>12.00</speed><time>2016-06-21T15:13:10Z</time><pdop>3.0</pdop><geoidheight>54.00</geoidheight><course>301.6</course><type>1</type></trkpt>
      <trkpt lat="39.41849133" lon="-6.35078664"><ele>1598</ele><speed>13.00</speed><time>2016-06-21T15:13:11Z</time><pdop>3.0</pdop><geoidheight>54.00</geoidheight><course>315.2</course><type>1</type></trkpt>
      <trkpt lat="39.41871744" lon="-6.35094803"><ele>1605</ele><speed>14.25</speed><time>2016-06-21T15:13:13Z</time><pdop>5.0</pdop><geoidheight>54.00</geoidheight><course>330.7</course><type>1</type></trkpt>
      <trkpt lat="39.41886081" lon="-6.35091102"><ele>1610</ele><speed>14.25</speed><time>2016-06-21T15:13:14Z</time><pdop>3.0</pdop><geoidheight>54.00</geoidheight><course>358.3</course><type>1</type></trkpt>
      <trkpt lat="39.41897591" lon="-6.35087921"><ele>1613</ele><speed>13.25</speed><time>2016-06-21T15:13:15Z</time><pdop>4.0</pdop><geoidheight>54.00</geoidheight><course>10.6</course><type>1</type></trkpt>
      <trkpt lat="39.4190923" lon="-6.35085107"><ele>1616</ele><speed>13.25</speed><time>2016-06-21T15:13:16Z</time><pdop>5.0</pdop><geoidheight>54.00</geoidheight><course>10.6</course><type>1</type></trkpt>
      <trkpt lat="39.41916899" lon="-6.35073191"><ele>1616</ele><speed>12.00</speed><time>2016-06-21T15:13:17Z</time><pdop>3.0</pdop><geoidheight>54.00</geoidheight><course>34.7</course><type>1</type></trkpt>
      <trkpt lat="39.41927504" lon="-6.35053107"><ele>1619</ele><speed>10.25</speed><time>2016-06-21T15:13:19Z</time><pdop>4.0</pdop><geoidheight>54.00</geoidheight><course>59.3</course><type>1</type></trkpt>
      <trkpt lat="39.41925047" lon="-6.35035709"><ele>1622</ele><speed>7.00</speed><time>2016-06-21T15:13:21Z</time><pdop>3.0</pdop><geoidheight>54.00</geoidheight><course>106.4</course><type>1</type></trkpt>
      <trkpt lat="39.41912889" lon="-6.35027203"><ele>1627</ele><speed>5.00</speed><time>2016-06-21T15:13:24Z</time><pdop>3.0</pdop><geoidheight>54.00</geoidheight><course>172.2</course><type>1</type></trkpt>
      <trkpt lat="39.41906716" lon="-6.35030933"><ele>1633</ele><speed>3.25</speed><time>2016-06-21T15:13:26Z</time><pdop>4.0</pdop><geoidheight>54.00</geoidheight><course>212.8</course><type>1</type></trkpt>
      <trkpt lat="39.41902837" lon="-6.35041864"><ele>1627</ele><speed>5.75</speed><time>2016-06-21T15:13:28Z</time><pdop>3.0</pdop><geoidheight>54.00</geoidheight><course>249.3</course><type>1</type></trkpt>
      <trkpt lat="39.41903659" lon="-6.35061631"><ele>1637</ele><speed>9.00</speed><time>2016-06-21T15:13:30Z</time><pdop>3.0</pdop><geoidheight>54.00</geoidheight><course>279.7</course><type>1</type></trkpt>
      <trkpt lat="39.41911239" lon="-6.35082946"><ele>1645</ele><speed>10.25</speed><time>2016-06-21T15:13:32Z</time><pdop>5.0</pdop><geoidheight>54.00</geoidheight><course>294.1</course><type>1</type></trkpt>
      <trkpt lat="39.41920619" lon="-6.3509406"><ele>1648</ele><speed>12.00</speed><time>2016-06-21T15:13:33Z</time><pdop>3.0</pdop><geoidheight>54.00</geoidheight><course>311.0</course><type>1</type></trkpt>
      <trkpt lat="39.41929671" lon="-6.35103826"><ele>1651</ele><speed>13.00</speed><time>2016-06-21T15:13:34Z</time><pdop>3.0</pdop><geoidheight>54.00</geoidheight><course>319.0</course><type>1</type></trkpt>
      <trkpt lat="39.41951506" lon="-6.35116716"><ele>1657</ele><speed>13.00</speed><time>2016-06-21T15:13:36Z</time><pdop>3.0</pdop><geoidheight>54.00</geoidheight><course>338.9</course><type>1</type></trkpt>
      <trkpt lat="39.41963018" lon="-6.35117703"><ele>1661</ele><speed>12.75</speed><time>2016-06-21T15:13:37Z</time><pdop>3.0</pdop><geoidheight>54.00</geoidheight><course>354.2</course><type>1</type></trkpt>
      <trkpt lat="39.41974705" lon="-6.35116298"><ele>1663</ele><speed>13.00</speed><time>2016-06-21T15:13:38Z</time><pdop>4.0</pdop><geoidheight>54.00</geoidheight><course>4.8</course><type>1</type></trkpt>
      <trkpt lat="39.41985153" lon="-6.35110787"><ele>1665</ele><speed>12.75</speed><time>2016-06-21T15:13:39Z</time><pdop>3.0</pdop><geoidheight>54.00</geoidheight><course>18.6</course><type>1</type></trkpt>
      <trkpt lat="39.4200185" lon="-6.35094092"><ele>1667</ele><speed>11.50</speed><time>2016-06-21T15:13:41Z</time><pdop>3.0</pdop><geoidheight>54.00</geoidheight><course>44.0</course><type>1</type></trkpt>
      <trkpt lat="39.42006896" lon="-6.35082766"><ele>1669</ele><speed>11.25</speed><time>2016-06-21T15:13:42Z</time><pdop>3.0</pdop><geoidheight>54.00</geoidheight><course>58.5</course><type>1</type></trkpt>
      <trkpt lat="39.420105649999996" lon="-6.35070677"><ele>1670</ele><speed>10.75</speed><time>2016-06-21T15:13:43Z</time><pdop>3.0</pdop><geoidheight>54.00</geoidheight><course>68.7</course><type>1</type></trkpt>
      <trkpt lat="39.42012053" lon="-6.35051932"><ele>1673</ele><speed>7.25</speed><time>2016-06-21T15:13:45Z</time><pdop>3.0</pdop><geoidheight>54.00</geoidheight><course>88.3</course><type>1</type></trkpt>
      <trkpt lat="39.42007892" lon="-6.35040315"><ele>1674</ele><speed>5.25</speed><time>2016-06-21T15:13:47Z</time><pdop>3.0</pdop><geoidheight>54.00</geoidheight><course>120.2</course><type>1</type></trkpt>
      <trkpt lat="39.41998359" lon="-6.35036392"><ele>1674</ele><speed>6.25</speed><time>2016-06-21T15:13:49Z</time><pdop>4.0</pdop><geoidheight>54.00</geoidheight><course>171.2</course><type>1</type></trkpt>
      <trkpt lat="39.41992545" lon="-6.3503987"><ele>1661</ele><speed>6.50</speed><time>2016-06-21T15:13:50Z</time><pdop>3.0</pdop><geoidheight>54.00</geoidheight><course>200.9</course><type>1</type></trkpt>
      <trkpt lat="39.41988768" lon="-6.35054922"><ele>1675</ele><speed>7.50</speed><time>2016-06-21T15:13:52Z</time><pdop>3.0</pdop><geoidheight>54.00</geoidheight><course>262.3</course><type>1</type></trkpt>
      <trkpt lat="39.41989269" lon="-6.35064816"><ele>1678</ele><speed>8.25</speed><time>2016-06-21T15:13:53Z</time><pdop>3.0</pdop><geoidheight>54.00</geoidheight><course>273.1</course><type>1</type></trkpt>
      <trkpt lat="39.41991681" lon="-6.35074508"><ele>1681</ele><speed>8.50</speed><time>2016-06-21T15:13:54Z</time><pdop>4.0</pdop><geoidheight>54.00</geoidheight><course>285.9</course><type>1</type></trkpt>
      <trkpt lat="39.42002368" lon="-6.35092861"><ele>1684</ele><speed>10.25</speed><time>2016-06-21T15:13:56Z</time><pdop>3.0</pdop><geoidheight>54.00</geoidheight><course>310.1</course><type>1</type></trkpt>
      <trkpt lat="39.42010481" lon="-6.3510322"><ele>1685</ele><speed>12.25</speed><time>2016-06-21T15:13:57Z</time><pdop>3.0</pdop><geoidheight>54.00</geoidheight><course>313.7</course><type>1</type></trkpt>
      <trkpt lat="39.42019309" lon="-6.35113029"><ele>1685</ele><speed>12.75</speed><time>2016-06-21T15:13:58Z</time><pdop>4.0</pdop><geoidheight>54.00</geoidheight><course>318.2</course><type>1</type></trkpt>
      <trkpt lat="39.42039934" lon="-6.3512008699999996"><ele>1690</ele><speed>11.25</speed><time>2016-06-21T15:14:00Z</time><pdop>3.0</pdop><geoidheight>54.00</geoidheight><course>349.8</course><type>1</type></trkpt>
      <trkpt lat="39.4205945" lon="-6.35114828"><ele>1691</ele><speed>11.25</speed><time>2016-06-21T15:14:02Z</time><pdop>3.0</pdop><geoidheight>54.00</geoidheight><course>16.9</course><type>1</type></trkpt>
      <trkpt lat="39.42068947" lon="-6.35109753"><ele>1690</ele><speed>11.75</speed><time>2016-06-21T15:14:03Z</time><pdop>3.0</pdop><geoidheight>54.00</geoidheight><course>22.4</course><type>1</type></trkpt>
      <trkpt lat="39.42078914" lon="-6.35103584"><ele>1689</ele><speed>12.25</speed><time>2016-06-21T15:14:04Z</time><pdop>4.0</pdop><geoidheight>54.00</geoidheight><course>24.9</course><type>1</type></trkpt>
      <trkpt lat="39.42098883" lon="-6.35090611"><ele>1691</ele><speed>12.25</speed><time>2016-06-21T15:14:06Z</time><pdop>5.0</pdop><geoidheight>54.00</geoidheight><course>26.0</course><type>1</type></trkpt>
      <trkpt lat="39.42103419" lon="-6.35080036"><ele>1690</ele><speed>10.25</speed><time>2016-06-21T15:14:07Z</time><pdop>3.0</pdop><geoidheight>54.00</geoidheight><course>47.4</course><type>1</type></trkpt>
      <trkpt lat="39.42107452" lon="-6.35069294"><ele>1689</ele><speed>10.50</speed><time>2016-06-21T15:14:08Z</time><pdop>3.0</pdop><geoidheight>54.00</geoidheight><course>63.3</course><type>1</type></trkpt>
      <trkpt lat="39.42111354" lon="-6.35044611"><ele>1689</ele><speed>10.75</speed><time>2016-06-21T15:14:10Z</time><pdop>3.0</pdop><geoidheight>54.00</geoidheight><course>80.1</course><type>1</type></trkpt>
      <trkpt lat="39.42110836" lon="-6.35033869"><ele>1690</ele><speed>9.25</speed><time>2016-06-21T15:14:11Z</time><pdop>3.0</pdop><geoidheight>54.00</geoidheight><course>90.1</course><type>1</type></trkpt>
      <trkpt lat="39.42108164" lon="-6.35025532"><ele>1689</ele><speed>7.75</speed><time>2016-06-21T15:14:12Z</time><pdop>3.0</pdop><geoidheight>54.00</geoidheight><course>108.4</course><type>1</type></trkpt>
      <trkpt lat="39.42103471" lon="-6.35019571"><ele>1688</ele><speed>7.50</speed><time>2016-06-21T15:14:13Z</time><pdop>3.0</pdop><geoidheight>54.00</geoidheight><course>133.6</course><type>1</type></trkpt>
      <trkpt lat="39.42096447" lon="-6.35016058"><ele>1688</ele><speed>8.25</speed><time>2016-06-21T15:14:14Z</time><pdop>4.0</pdop><geoidheight>54.00</geoidheight><course>156.7</course><type>1</type></trkpt>
      <trkpt lat="39.42083196" lon="-6.35019499"><ele>1689</ele><speed>7.25</speed><time>2016-06-21T15:14:16Z</time><pdop>3.0</pdop><geoidheight>54.00</geoidheight><course>201.0</course><type>1</type></trkpt>
      <trkpt lat="39.42078645" lon="-6.35026212"><ele>1690</ele><speed>7.50</speed><time>2016-06-21T15:14:17Z</time><pdop>3.0</pdop><geoidheight>54.00</geoidheight><course>226.4</course><type>1</type></trkpt>
      <trkpt lat="39.42075438" lon="-6.35046311"><ele>1692</ele><speed>8.75</speed><time>2016-06-21T15:14:19Z</time><pdop>3.0</pdop><geoidheight>54.00</geoidheight><course>262.3</course><type>1</type></trkpt>
      <trkpt lat="39.42076631" lon="-6.35056863"><ele>1694</ele><speed>9.25</speed><time>2016-06-21T15:14:20Z</time><pdop>3.0</pdop><geoidheight>54.00</geoidheight><course>276.2</course><type>1</type></trkpt>
      <trkpt lat="39.4207893" lon="-6.35067585"><ele>1694</ele><speed>9.50</speed><time>2016-06-21T15:14:21Z</time><pdop>3.0</pdop><geoidheight>54.00</geoidheight><course>285.8</course><type>1</type></trkpt>
      <trkpt lat="39.42086103" lon="-6.35088972"><ele>1694</ele><speed>10.00</speed><time>2016-06-21T15:14:23Z</time><pdop>4.0</pdop><geoidheight>54.00</geoidheight><course>293.0</course><type>1</type></trkpt>
      <trkpt lat="39.42093616" lon="-6.35099494"><ele>1693</ele><speed>11.25</speed><time>2016-06-21T15:14:24Z</time><pdop>4.0</pdop><geoidheight>54.00</geoidheight><course>306.3</course><type>1</type></trkpt>
      <trkpt lat="39.42112662" lon="-6.3511711"><ele>1693</ele><speed>13.00</speed><time>2016-06-21T15:14:26Z</time><pdop>3.0</pdop><geoidheight>54.00</geoidheight><course>326.4</course><type>1</type></trkpt>
      <trkpt lat="39.42123107" lon="-6.35123155"><ele>1695</ele><speed>12.75</speed><time>2016-06-21T15:14:27Z</time><pdop>3.0</pdop><geoidheight>54.00</geoidheight><course>335.2</course><type>1</type></trkpt>
      <trkpt lat="39.42133381" lon="-6.35126377"><ele>1695</ele><speed>11.75</speed><time>2016-06-21T15:14:28Z</time><pdop>4.0</pdop><geoidheight>54.00</geoidheight><course>344.0</course><type>1</type></trkpt>
      <trkpt lat="39.42151858" lon="-6.35128819"><ele>1697</ele><speed>10.50</speed><time>2016-06-21T15:14:30Z</time><pdop>4.0</pdop><geoidheight>54.00</geoidheight><course>354.7</course><type>1</type></trkpt>
      <trkpt lat="39.42160779" lon="-6.35125736"><ele>1693</ele><speed>10.25</speed><time>2016-06-21T15:14:31Z</time><pdop>3.0</pdop><geoidheight>54.00</geoidheight><course>5.0</course><type>1</type></trkpt>
      <trkpt lat="39.42181284" lon="-6.35118968"><ele>1689</ele><speed>12.00</speed><time>2016-06-21T15:14:33Z</time><pdop>3.0</pdop><geoidheight>54.00</geoidheight><course>16.1</course><type>1</type></trkpt>
      <trkpt lat="39.42190879" lon="-6.35112947"><ele>1686</ele><speed>11.75</speed><time>2016-06-21T15:14:34Z</time><pdop>3.0</pdop><geoidheight>54.00</geoidheight><course>25.0</course><type>1</type></trkpt>
      <trkpt lat="39.42206182" lon="-6.35096944"><ele>1684</ele><speed>10.75</speed><time>2016-06-21T15:14:36Z</time><pdop>3.0</pdop><geoidheight>54.00</geoidheight><course>43.5</course><type>1</type></trkpt>
      <trkpt lat="39.4221285" lon="-6.35086437"><ele>1680</ele><speed>11.50</speed><time>2016-06-21T15:14:37Z</time><pdop>3.0</pdop><geoidheight>54.00</geoidheight><course>50.5</course><type>1</type></trkpt>
      <trkpt lat="39.42219419" lon="-6.35074809"><ele>1678</ele><speed>12.25</speed><time>2016-06-21T15:14:38Z</time><pdop>3.0</pdop><geoidheight>54.00</geoidheight><course>54.9</course><type>1</type></trkpt>
      <trkpt lat="39.42224326" lon="-6.35061922"><ele>1677</ele><speed>12.25</speed><time>2016-06-21T15:14:39Z</time><pdop>3.0</pdop><geoidheight>54.00</geoidheight><course>61.6</course><type>1</type></trkpt>
      <trkpt lat="39.4222711" lon="-6.35037621"><ele>1676</ele><speed>10.25</speed><time>2016-06-21T15:14:41Z</time><pdop>3.0</pdop><geoidheight>54.00</geoidheight><course>87.2</course><type>1</type></trkpt>
      <trkpt lat="39.42225378" lon="-6.35027242"><ele>1675</ele><speed>9.25</speed><time>2016-06-21T15:14:42Z</time><pdop>3.0</pdop><geoidheight>54.00</geoidheight><course>101.8</course><type>1</type></trkpt>
      <trkpt lat="39.42217467" lon="-6.35010248"><ele>1675</ele><speed>8.50</speed><time>2016-06-21T15:14:44Z</time><pdop>4.0</pdop><geoidheight>54.00</geoidheight><course>126.1</course><type>1</type></trkpt>
      <trkpt lat="39.42212128" lon="-6.35004023"><ele>1674</ele><speed>8.00</speed><time>2016-06-21T15:14:45Z</time><pdop>3.0</pdop><geoidheight>54.00</geoidheight><course>135.2</course><type>1</type></trkpt>
      <trkpt lat="39.42201148" lon="-6.34995336"><ele>1672</ele><speed>7.00</speed><time>2016-06-21T15:14:47Z</time><pdop>3.0</pdop><geoidheight>54.00</geoidheight><course>148.4</course><type>1</type></trkpt>
      <trkpt lat="39.42195464" lon="-6.34992768"><ele>1671</ele><speed>6.75</speed><time>2016-06-21T15:14:48Z</time><pdop>3.0</pdop><geoidheight>54.00</geoidheight><course>158.7</course><type>1</type></trkpt>
      <trkpt lat="39.42181915" lon="-6.34991159"><ele>1671</ele><speed>7.50</speed><time>2016-06-21T15:14:50Z</time><pdop>4.0</pdop><geoidheight>54.00</geoidheight><course>177.6</course><type>1</type></trkpt>
      <trkpt lat="39.42171567" lon="-6.34997894"><ele>1672</ele><speed>6.25</speed><time>2016-06-21T15:14:52Z</time><pdop>3.0</pdop><geoidheight>54.00</geoidheight><course>216.6</course><type>1</type></trkpt>
      <trkpt lat="39.42168186" lon="-6.35004138"><ele>1672</ele><speed>6.50</speed><time>2016-06-21T15:14:53Z</time><pdop>3.0</pdop><geoidheight>54.00</geoidheight><course>233.7</course><type>1</type></trkpt>
      <trkpt lat="39.42165602" lon="-6.35011367"><ele>1671</ele><speed>6.75</speed><time>2016-06-21T15:14:54Z</time><pdop>3.0</pdop><geoidheight>54.00</geoidheight><course>243.7</course><type>1</type></trkpt>
      <trkpt lat="39.42161276" lon="-6.35026781"><ele>1670</ele><speed>7.00</speed><time>2016-06-21T15:14:56Z</time><pdop>3.0</pdop><geoidheight>54.00</geoidheight><course>251.3</course><type>1</type></trkpt>
      <trkpt lat="39.42158523" lon="-6.35044935"><ele>1668</ele><speed>8.25</speed><time>2016-06-21T15:14:58Z</time><pdop>3.0</pdop><geoidheight>54.00</geoidheight><course>258.9</course><type>1</type></trkpt>
      <trkpt lat="39.42157423" lon="-6.35054777"><ele>1667</ele><speed>8.50</speed><time>2016-06-21T15:14:59Z</time><pdop>3.0</pdop><geoidheight>54.00</geoidheight><course>260.0</course><type>1</type></trkpt>
      <trkpt lat="39.42156061" lon="-6.3506472"><ele>1665</ele><speed>8.50</speed><time>2016-06-21T15:15:00Z</time><pdop>3.0</pdop><geoidheight>54.00</geoidheight><course>259.4</course><type>1</type></trkpt>
      <trkpt lat="39.42154136" lon="-6.35084614"><ele>1664</ele><speed>9.00</speed><time>2016-06-21T15:15:02Z</time><pdop>3.0</pdop><geoidheight>54.00</geoidheight><course>264.4</course><type>1</type></trkpt>
      <trkpt lat="39.42154272" lon="-6.35095135"><ele>1664</ele><speed>9.00</speed><time>2016-06-21T15:15:03Z</time><pdop>3.0</pdop><geoidheight>54.00</geoidheight><course>269.3</course><type>1</type></trkpt>
      <trkpt lat="39.42155015" lon="-6.35105938"><ele>1664</ele><speed>9.00</speed><time>2016-06-21T15:15:04Z</time><pdop>3.0</pdop><geoidheight>54.00</geoidheight><course>274.2</course><type>1</type></trkpt>
      <trkpt lat="39.42156389" lon="-6.35116621"><ele>1665</ele><speed>9.25</speed><time>2016-06-21T15:15:05Z</time><pdop>3.0</pdop><geoidheight>54.00</geoidheight><course>279.3</course><type>1</type></trkpt>
      <trkpt lat="39.42158711" lon="-6.35127593"><ele>1666</ele><speed>9.75</speed><time>2016-06-21T15:15:06Z</time><pdop>3.0</pdop><geoidheight>54.00</geoidheight><course>285.5</course><type>1</type></trkpt>
      <trkpt lat="39.42168261" lon="-6.35149907"><ele>1666</ele><speed>11.25</speed><time>2016-06-21T15:15:08Z</time><pdop>3.0</pdop><geoidheight>54.00</geoidheight><course>301.5</course><type>1</type></trkpt>
      <trkpt lat="39.42174542" lon="-6.35160647"><ele>1666</ele><speed>11.50</speed><time>2016-06-21T15:15:09Z</time><pdop>3.0</pdop><geoidheight>54.00</geoidheight><course>304.9</course><type>1</type></trkpt>
      <trkpt lat="39.42189945" lon="-6.35179364"><ele>1666</ele><speed>11.75</speed><time>2016-06-21T15:15:11Z</time><pdop>3.0</pdop><geoidheight>54.00</geoidheight><course>319.9</course><type>1</type></trkpt>
      <trkpt lat="39.4219934" lon="-6.35185481"><ele>1665</ele><speed>11.75</speed><time>2016-06-21T15:15:12Z</time><pdop>3.0</pdop><geoidheight>54.00</geoidheight><course>331.9</course><type>1</type></trkpt>
      <trkpt lat="39.42209111" lon="-6.35189455"><ele>1665</ele><speed>11.50</speed><time>2016-06-21T15:15:13Z</time><pdop>3.0</pdop><geoidheight>54.00</geoidheight><course>343.3</course><type>1</type></trkpt>
      <trkpt lat="39.42229182" lon="-6.35191806"><ele>1665</ele><speed>11.25</speed><time>2016-06-21T15:15:15Z</time><pdop>4.0</pdop><geoidheight>54.00</geoidheight><course>354.0</course><type>1</type></trkpt>
      <trkpt lat="39.42239334" lon="-6.35185367"><ele>1665</ele><speed>11.50</speed><time>2016-06-21T15:15:16Z</time><pdop>3.0</pdop><geoidheight>54.00</geoidheight><course>15.8</course><type>1</type></trkpt>
      <trkpt lat="39.42247893" lon="-6.35179916"><ele>1664</ele><speed>10.75</speed><time>2016-06-21T15:15:17Z</time><pdop>3.0</pdop><geoidheight>54.00</geoidheight><course>25.7</course><type>1</type></trkpt>
      <trkpt lat="39.42262288" lon="-6.35163538"><ele>1661</ele><speed>10.75</speed><time>2016-06-21T15:15:19Z</time><pdop>3.0</pdop><geoidheight>54.00</geoidheight><course>45.4</course><type>1</type></trkpt>
      <trkpt lat="39.42268901" lon="-6.35154285"><ele>1661</ele><speed>11.00</speed><time>2016-06-21T15:15:20Z</time><pdop>3.0</pdop><geoidheight>54.00</geoidheight><course>46.9</course><type>1</type></trkpt>
      <trkpt lat="39.42282616" lon="-6.35141437"><ele>1659</ele><speed>9.00</speed><time>2016-06-21T15:15:22Z</time><pdop>3.0</pdop><geoidheight>54.00</geoidheight><course>31.3</course><type>1</type></trkpt>
      <trkpt lat="39.42290327" lon="-6.35137261"><ele>1657</ele><speed>9.25</speed><time>2016-06-21T15:15:23Z</time><pdop>3.0</pdop><geoidheight>54.00</geoidheight><course>22.6</course><type>1</type></trkpt>
      <trkpt lat="39.42308009" lon="-6.35130817"><ele>1651</ele><speed>10.00</speed><time>2016-06-21T15:15:25Z</time><pdop>4.0</pdop><geoidheight>54.00</geoidheight><course>16.4</course><type>1</type></trkpt>
      <trkpt lat="39.42330824" lon="-6.35130128"><ele>1651</ele><speed>11.75</speed><time>2016-06-21T15:15:27Z</time><pdop>4.0</pdop><geoidheight>54.00</geoidheight><course>1.2</course><type>1</type></trkpt>
      <trkpt lat="39.42339962" lon="-6.35129981"><ele>1651</ele><speed>10.75</speed><time>2016-06-21T15:15:28Z</time><pdop>3.0</pdop><geoidheight>54.00</geoidheight><course>0.7</course><type>1</type></trkpt>
      <trkpt lat="39.42357452" lon="-6.35129792"><ele>1648</ele><speed>9.25</speed><time>2016-06-21T15:15:30Z</time><pdop>4.0</pdop><geoidheight>54.00</geoidheight><course>359.6</course><type>1</type></trkpt>
      <trkpt lat="39.42366315" lon="-6.3512857"><ele>1646</ele><speed>9.75</speed><time>2016-06-21T15:15:31Z</time><pdop>3.0</pdop><geoidheight>54.00</geoidheight><course>3.6</course><type>1</type></trkpt>
      <trkpt lat="39.42375393" lon="-6.35127866"><ele>1644</ele><speed>10.00</speed><time>2016-06-21T15:15:32Z</time><pdop>3.0</pdop><geoidheight>54.00</geoidheight><course>2.8</course><type>1</type></trkpt>
      <trkpt lat="39.42395137" lon="-6.3512808"><ele>1642</ele><speed>10.75</speed><time>2016-06-21T15:15:34Z</time><pdop>5.0</pdop><geoidheight>54.00</geoidheight><course>358.8</course><type>1</type></trkpt>
      <trkpt lat="39.42406005" lon="-6.35130426"><ele>1640</ele><speed>11.75</speed><time>2016-06-21T15:15:35Z</time><pdop>3.0</pdop><geoidheight>54.00</geoidheight><course>353.9</course><type>1</type></trkpt>
      <trkpt lat="39.42416741" lon="-6.35132108"><ele>1638</ele><speed>11.75</speed><time>2016-06-21T15:15:36Z</time><pdop>3.0</pdop><geoidheight>54.00</geoidheight><course>353.4</course><type>1</type></trkpt>
      <trkpt lat="39.42438574" lon="-6.35135392"><ele>1634</ele><speed>12.25</speed><time>2016-06-21T15:15:38Z</time><pdop>3.0</pdop><geoidheight>54.00</geoidheight><course>352.3</course><type>1</type></trkpt>
      <trkpt lat="39.42450192" lon="-6.35137231"><ele>1632</ele><speed>13.00</speed><time>2016-06-21T15:15:39Z</time><pdop>3.0</pdop><geoidheight>54.00</geoidheight><course>352.3</course><type>1</type></trkpt>
      <trkpt lat="39.42461612" lon="-6.35138351"><ele>1632</ele><speed>12.75</speed><time>2016-06-21T15:15:40Z</time><pdop>4.0</pdop><geoidheight>54.00</geoidheight><course>356.5</course><type>1</type></trkpt>
      <trkpt lat="39.42481755" lon="-6.35136443"><ele>1632</ele><speed>11.25</speed><time>2016-06-21T15:15:42Z</time><pdop>5.0</pdop><geoidheight>54.00</geoidheight><course>3.1</course><type>1</type></trkpt>
      <trkpt lat="39.42498546" lon="-6.35133014"><ele>1630</ele><speed>10.50</speed><time>2016-06-21T15:15:44Z</time><pdop>4.0</pdop><geoidheight>54.00</geoidheight><course>3.4</course><type>1</type></trkpt>
      <trkpt lat="39.42519096" lon="-6.35131764"><ele>1627</ele><speed>11.50</speed><time>2016-06-21T15:15:46Z</time><pdop>3.0</pdop><geoidheight>54.00</geoidheight><course>1.6</course><type>1</type></trkpt>
      <trkpt lat="39.42529552" lon="-6.35131886"><ele>1626</ele><speed>11.50</speed><time>2016-06-21T15:15:47Z</time><pdop>4.0</pdop><geoidheight>54.00</geoidheight><course>0.2</course><type>1</type></trkpt>
      <trkpt lat="39.42539876" lon="-6.35132297"><ele>1625</ele><speed>11.50</speed><time>2016-06-21T15:15:48Z</time><pdop>3.0</pdop><geoidheight>54.00</geoidheight><course>359.5</course><type>1</type></trkpt>
      <trkpt lat="39.42560205" lon="-6.35132848"><ele>1624</ele><speed>11.25</speed><time>2016-06-21T15:15:50Z</time><pdop>4.0</pdop><geoidheight>54.00</geoidheight><course>358.2</course><type>1</type></trkpt>
      <trkpt lat="39.42571045" lon="-6.35133546"><ele>1622</ele><speed>11.50</speed><time>2016-06-21T15:15:51Z</time><pdop>3.0</pdop><geoidheight>54.00</geoidheight><course>357.4</course><type>1</type></trkpt>
      <trkpt lat="39.42593273" lon="-6.35132824"><ele>1620</ele><speed>12.50</speed><time>2016-06-21T15:15:53Z</time><pdop>3.0</pdop><geoidheight>54.00</geoidheight><course>2.3</course><type>1</type></trkpt>
      <trkpt lat="39.42604596" lon="-6.35132225"><ele>1620</ele><speed>12.50</speed><time>2016-06-21T15:15:54Z</time><pdop>5.0</pdop><geoidheight>54.00</geoidheight><course>2.3</course><type>1</type></trkpt>
      <trkpt lat="39.42615991" lon="-6.35129269"><ele>1642</ele><speed>13.00</speed><time>2016-06-21T15:15:55Z</time><pdop>3.0</pdop><geoidheight>54.00</geoidheight><course>9.4</course><type>1</type></trkpt>
      <trkpt lat="39.42626611" lon="-6.35126306"><ele>1632</ele><speed>12.25</speed><time>2016-06-21T15:15:56Z</time><pdop>4.0</pdop><geoidheight>54.00</geoidheight><course>11.6</course><type>1</type></trkpt>
      <trkpt lat="39.42646274" lon="-6.3512219"><ele>1619</ele><speed>11.00</speed><time>2016-06-21T15:15:58Z</time><pdop>4.0</pdop><geoidheight>54.00</geoidheight><course>8.8</course><type>1</type></trkpt>
      <trkpt lat="39.42657171" lon="-6.35121456"><ele>1618</ele><speed>11.50</speed><time>2016-06-21T15:15:59Z</time><pdop>3.0</pdop><geoidheight>54.00</geoidheight><course>5.5</course><type>1</type></trkpt>
      <trkpt lat="39.42668139" lon="-6.35120518"><ele>1618</ele><speed>12.00</speed><time>2016-06-21T15:16:00Z</time><pdop>3.0</pdop><geoidheight>54.00</geoidheight><course>3.5</course><type>1</type></trkpt>
      <trkpt lat="39.42678647" lon="-6.35119913"><ele>1618</ele><speed>12.00</speed><time>2016-06-21T15:16:01Z</time><pdop>4.0</pdop><geoidheight>54.00</geoidheight><course>2.0</course><type>1</type></trkpt>
      <trkpt lat="39.42698429" lon="-6.35118387"><ele>1618</ele><speed>11.00</speed><time>2016-06-21T15:16:03Z</time><pdop>3.0</pdop><geoidheight>54.00</geoidheight><course>3.3</course><type>1</type></trkpt>
      <trkpt lat="39.42708239" lon="-6.35117175"><ele>1617</ele><speed>11.25</speed><time>2016-06-21T15:16:04Z</time><pdop>3.0</pdop><geoidheight>54.00</geoidheight><course>4.7</course><type>1</type></trkpt>
      <trkpt lat="39.42718713" lon="-6.35115651"><ele>1617</ele><speed>11.75</speed><time>2016-06-21T15:16:05Z</time><pdop>3.0</pdop><geoidheight>54.00</geoidheight><course>6.3</course><type>1</type></trkpt>
      <trkpt lat="39.42729229" lon="-6.35113475"><ele>1616</ele><speed>12.25</speed><time>2016-06-21T15:16:06Z</time><pdop>3.0</pdop><geoidheight>54.00</geoidheight><course>6.9</course><type>1</type></trkpt>
      <trkpt lat="39.42751753" lon="-6.35109826"><ele>1616</ele><speed>12.75</speed><time>2016-06-21T15:16:08Z</time><pdop>5.0</pdop><geoidheight>54.00</geoidheight><course>6.4</course><type>1</type></trkpt>
      <trkpt lat="39.42763248" lon="-6.35108818"><ele>1619</ele><speed>12.50</speed><time>2016-06-21T15:16:09Z</time><pdop>3.0</pdop><geoidheight>54.00</geoidheight><course>3.4</course><type>1</type></trkpt>
      <trkpt lat="39.42775698" lon="-6.35108753"><ele>1620</ele><speed>13.00</speed><time>2016-06-21T15:16:10Z</time><pdop>4.0</pdop><geoidheight>54.00</geoidheight><course>1.0</course><type>1</type></trkpt>
      <trkpt lat="39.42798817" lon="-6.35111932"><ele>1625</ele><speed>13.00</speed><time>2016-06-21T15:16:12Z</time><pdop>5.0</pdop><geoidheight>54.00</geoidheight><course>355.7</course><type>1</type></trkpt>
      <trkpt lat="39.42808177" lon="-6.35117048"><ele>1624</ele><speed>11.50</speed><time>2016-06-21T15:16:13Z</time><pdop>4.0</pdop><geoidheight>54.00</geoidheight><course>343.6</course><type>1</type></trkpt>
      <trkpt lat="39.42816032" lon="-6.35120875"><ele>1624</ele><speed>10.25</speed><time>2016-06-21T15:16:14Z</time><pdop>4.0</pdop><geoidheight>54.00</geoidheight><course>340.1</course><type>1</type></trkpt>
      <trkpt lat="39.42831603" lon="-6.35127168"><ele>1624</ele><speed>9.50</speed><time>2016-06-21T15:16:16Z</time><pdop>7.0</pdop><geoidheight>54.00</geoidheight><course>341.8</course><type>1</type></trkpt>
      <trkpt lat="39.42840783" lon="-6.35127085"><ele>1624</ele><speed>10.00</speed><time>2016-06-21T15:16:17Z</time><pdop>3.0</pdop><geoidheight>54.00</geoidheight><course>352.1</course><type>1</type></trkpt>
      <trkpt lat="39.42859652" lon="-6.35128651"><ele>1624</ele><speed>11.00</speed><time>2016-06-21T15:16:19Z</time><pdop>3.0</pdop><geoidheight>54.00</geoidheight><course>356.6</course><type>1</type></trkpt>
      <trkpt lat="39.42869004" lon="-6.35128369"><ele>1624</ele><speed>10.75</speed><time>2016-06-21T15:16:20Z</time><pdop>3.0</pdop><geoidheight>54.00</geoidheight><course>0.9</course><type>1</type></trkpt>
      <trkpt lat="39.42878614" lon="-6.3512753"><ele>1624</ele><speed>10.75</speed><time>2016-06-21T15:16:21Z</time><pdop>4.0</pdop><geoidheight>54.00</geoidheight><course>3.2</course><type>1</type></trkpt>
      <trkpt lat="39.42887655" lon="-6.35126791"><ele>1625</ele><speed>10.25</speed><time>2016-06-21T15:16:22Z</time><pdop>4.0</pdop><geoidheight>54.00</geoidheight><course>2.5</course><type>1</type></trkpt>
      <trkpt lat="39.42897072" lon="-6.35126409"><ele>1624</ele><speed>10.50</speed><time>2016-06-21T15:16:23Z</time><pdop>3.0</pdop><geoidheight>54.00</geoidheight><course>0.4</course><type>1</type></trkpt>
      <trkpt lat="39.42917395" lon="-6.3512695"><ele>1623</ele><speed>11.50</speed><time>2016-06-21T15:16:25Z</time><pdop>3.0</pdop><geoidheight>54.00</geoidheight><course>359.4</course><type>1</type></trkpt>
      <trkpt lat="39.42939091" lon="-6.35125491"><ele>1622</ele><speed>12.25</speed><time>2016-06-21T15:16:27Z</time><pdop>4.0</pdop><geoidheight>54.00</geoidheight><course>2.4</course><type>1</type></trkpt>
      <trkpt lat="39.42950215" lon="-6.3512516"><ele>1622</ele><speed>12.50</speed><time>2016-06-21T15:16:28Z</time><pdop>4.0</pdop><geoidheight>54.00</geoidheight><course>1.0</course><type>1</type></trkpt>
      <trkpt lat="39.42972756" lon="-6.35125848"><ele>1622</ele><speed>12.50</speed><time>2016-06-21T15:16:30Z</time><pdop>3.0</pdop><geoidheight>54.00</geoidheight><course>357.7</course><type>1</type></trkpt>
      <trkpt lat="39.4298388" lon="-6.35126673"><ele>1622</ele><speed>12.25</speed><time>2016-06-21T15:16:31Z</time><pdop>4.0</pdop><geoidheight>54.00</geoidheight><course>356.9</course><type>1</type></trkpt>
      <trkpt lat="39.43005033" lon="-6.35129676"><ele>1620</ele><speed>11.75</speed><time>2016-06-21T15:16:33Z</time><pdop>3.0</pdop><geoidheight>54.00</geoidheight><course>354.0</course><type>1</type></trkpt>
      <trkpt lat="39.43015569" lon="-6.3513158"><ele>1619</ele><speed>12.00</speed><time>2016-06-21T15:16:34Z</time><pdop>3.0</pdop><geoidheight>54.00</geoidheight><course>353.3</course><type>1</type></trkpt>
      <trkpt lat="39.43038364" lon="-6.35134844"><ele>1615</ele><speed>13.25</speed><time>2016-06-21T15:16:36Z</time><pdop>3.0</pdop><geoidheight>54.00</geoidheight><course>352.3</course><type>1</type></trkpt>
      <trkpt lat="39.43050583" lon="-6.35137918"><ele>1613</ele><speed>13.50</speed><time>2016-06-21T15:16:37Z</time><pdop>4.0</pdop><geoidheight>54.00</geoidheight><course>349.6</course><type>1</type></trkpt>
      <trkpt lat="39.43062542" lon="-6.35140952"><ele>1613</ele><speed>13.50</speed><time>2016-06-21T15:16:38Z</time><pdop>4.0</pdop><geoidheight>54.00</geoidheight><course>348.7</course><type>1</type></trkpt>
      <trkpt lat="39.43074385" lon="-6.35144239"><ele>1612</ele><speed>13.00</speed><time>2016-06-21T15:16:39Z</time><pdop>4.0</pdop><geoidheight>54.00</geoidheight><course>348.0</course><type>1</type></trkpt>
      <trkpt lat="39.43097434" lon="-6.3514879"><ele>1610</ele><speed>13.00</speed><time>2016-06-21T15:16:41Z</time><pdop>5.0</pdop><geoidheight>54.00</geoidheight><course>351.2</course><type>1</type></trkpt>
      <trkpt lat="39.43108307" lon="-6.35150197"><ele>1609</ele><speed>12.50</speed><time>2016-06-21T15:16:42Z</time><pdop>3.0</pdop><geoidheight>54.00</geoidheight><course>352.3</course><type>1</type></trkpt>
      <trkpt lat="39.4311993" lon="-6.35152554"><ele>1608</ele><speed>12.75</speed><time>2016-06-21T15:16:43Z</time><pdop>3.0</pdop><geoidheight>54.00</geoidheight><course>352.0</course><type>1</type></trkpt>
      <trkpt lat="39.43143382" lon="-6.35157174"><ele>1605</ele><speed>13.00</speed><time>2016-06-21T15:16:45Z</time><pdop>5.0</pdop><geoidheight>54.00</geoidheight><course>351.4</course><type>1</type></trkpt>
      <trkpt lat="39.43155835" lon="-6.35159684"><ele>1604</ele><speed>13.25</speed><time>2016-06-21T15:16:46Z</time><pdop>4.0</pdop><geoidheight>54.00</geoidheight><course>351.1</course><type>1</type></trkpt>
      <trkpt lat="39.4316697" lon="-6.35162136"><ele>1604</ele><speed>12.50</speed><time>2016-06-21T15:16:47Z</time><pdop>4.0</pdop><geoidheight>54.00</geoidheight><course>350.6</course><type>1</type></trkpt>
      <trkpt lat="39.43187674" lon="-6.35167524"><ele>1602</ele><speed>11.50</speed><time>2016-06-21T15:16:49Z</time><pdop>4.0</pdop><geoidheight>54.00</geoidheight><course>348.6</course><type>1</type></trkpt>
      <trkpt lat="39.43198035" lon="-6.35170346"><ele>1599</ele><speed>11.75</speed><time>2016-06-21T15:16:50Z</time><pdop>3.0</pdop><geoidheight>54.00</geoidheight><course>348.5</course><type>1</type></trkpt>
      <trkpt lat="39.43218857" lon="-6.35174817"><ele>1596</ele><speed>11.75</speed><time>2016-06-21T15:16:52Z</time><pdop>4.0</pdop><geoidheight>54.00</geoidheight><course>350.7</course><type>1</type></trkpt>
      <trkpt lat="39.43228888" lon="-6.35177075"><ele>1596</ele><speed>11.50</speed><time>2016-06-21T15:16:53Z</time><pdop>4.0</pdop><geoidheight>54.00</geoidheight><course>351.0</course><type>1</type></trkpt>
      <trkpt lat="39.43238465" lon="-6.35178885"><ele>1595</ele><speed>11.00</speed><time>2016-06-21T15:16:54Z</time><pdop>4.0</pdop><geoidheight>54.00</geoidheight><course>352.1</course><type>1</type></trkpt>
      <trkpt lat="39.4324809" lon="-6.3518262"><ele>1591</ele><speed>10.75</speed><time>2016-06-21T15:16:55Z</time><pdop>3.0</pdop><geoidheight>54.00</geoidheight><course>346.4</course><type>1</type></trkpt>
      <trkpt lat="39.43256983" lon="-6.35185505"><ele>1588</ele><speed>10.75</speed><time>2016-06-21T15:16:56Z</time><pdop>4.0</pdop><geoidheight>54.00</geoidheight><course>346.1</course><type>1</type></trkpt>
      <trkpt lat="39.43274019" lon="-6.35190336"><ele>1585</ele><speed>9.50</speed><time>2016-06-21T15:16:58Z</time><pdop>4.0</pdop><geoidheight>54.00</geoidheight><course>347.3</course><type>1</type></trkpt>
      <trkpt lat="39.43281226" lon="-6.35192725"><ele>1585</ele><speed>8.50</speed><time>2016-06-21T15:16:59Z</time><pdop>4.0</pdop><geoidheight>54.00</geoidheight><course>347.8</course><type>1</type></trkpt>
      <trkpt lat="39.43297562" lon="-6.35199271"><ele>1574</ele><speed>8.75</speed><time>2016-06-21T15:17:01Z</time><pdop>3.0</pdop><geoidheight>54.00</geoidheight><course>347.5</course><type>1</type></trkpt>
      <trkpt lat="39.43306023" lon="-6.35201366"><ele>1568</ele><speed>9.25</speed><time>2016-06-21T15:17:02Z</time><pdop>3.0</pdop><geoidheight>54.00</geoidheight><course>348.5</course><type>1</type></trkpt>
      <trkpt lat="39.43323777" lon="-6.35204199"><ele>1558</ele><speed>9.75</speed><time>2016-06-21T15:17:04Z</time><pdop>5.0</pdop><geoidheight>54.00</geoidheight><course>352.1</course><type>1</type></trkpt>
      <trkpt lat="39.43333243" lon="-6.35206418"><ele>1552</ele><speed>10.25</speed><time>2016-06-21T15:17:05Z</time><pdop>4.0</pdop><geoidheight>54.00</geoidheight><course>352.2</course><type>1</type></trkpt>
      <trkpt lat="39.43352854" lon="-6.35214597"><ele>1542</ele><speed>12.00</speed><time>2016-06-21T15:17:07Z</time><pdop>4.0</pdop><geoidheight>54.00</geoidheight><course>339.6</course><type>1</type></trkpt>
      <trkpt lat="39.43362684" lon="-6.35221583"><ele>1538</ele><speed>12.50</speed><time>2016-06-21T15:17:08Z</time><pdop>4.0</pdop><geoidheight>54.00</geoidheight><course>333.5</course><type>1</type></trkpt>
      <trkpt lat="39.43372684" lon="-6.35228006"><ele>1533</ele><speed>12.50</speed><time>2016-06-21T15:17:09Z</time><pdop>6.0</pdop><geoidheight>54.00</geoidheight><course>333.5</course><type>1</type></trkpt>
      <trkpt lat="39.4339128" lon="-6.35242099"><ele>1524</ele><speed>11.75</speed><time>2016-06-21T15:17:11Z</time><pdop>3.0</pdop><geoidheight>54.00</geoidheight><course>328.7</course><type>1</type></trkpt>
      <trkpt lat="39.43401015" lon="-6.35249998"><ele>1519</ele><speed>12.25</speed><time>2016-06-21T15:17:12Z</time><pdop>3.0</pdop><geoidheight>54.00</geoidheight><course>326.8</course><type>1</type></trkpt>
      <trkpt lat="39.43420904" lon="-6.35264995"><ele>1509</ele><speed>13.00</speed><time>2016-06-21T15:17:14Z</time><pdop>3.0</pdop><geoidheight>54.00</geoidheight><course>330.4</course><type>1</type></trkpt>
      <trkpt lat="39.4343236" lon="-6.35270667"><ele>1505</ele><speed>13.50</speed><time>2016-06-21T15:17:15Z</time><pdop>3.0</pdop><geoidheight>54.00</geoidheight><course>338.2</course><type>1</type></trkpt>
      <trkpt lat="39.43443842" lon="-6.35275125"><ele>1503</ele><speed>13.00</speed><time>2016-06-21T15:17:16Z</time><pdop>3.0</pdop><geoidheight>54.00</geoidheight><course>342.8</course><type>1</type></trkpt>
      <trkpt lat="39.43453215" lon="-6.35278652"><ele>1503</ele><speed>11.00</speed><time>2016-06-21T15:17:17Z</time><pdop>3.0</pdop><geoidheight>54.00</geoidheight><course>344.8</course><type>1</type></trkpt>
      <trkpt lat="39.43467781" lon="-6.35286072"><ele>1500</ele><speed>8.50</speed><time>2016-06-21T15:17:19Z</time><pdop>4.0</pdop><geoidheight>54.00</geoidheight><course>338.3</course><type>1</type></trkpt>
      <trkpt lat="39.4348237" lon="-6.35291794"><ele>1492</ele><speed>8.50</speed><time>2016-06-21T15:17:21Z</time><pdop>5.0</pdop><geoidheight>54.00</geoidheight><course>342.7</course><type>1</type></trkpt>
      <trkpt lat="39.43501008" lon="-6.35297525"><ele>1485</ele><speed>10.00</speed><time>2016-06-21T15:17:23Z</time><pdop>5.0</pdop><geoidheight>54.00</geoidheight><course>346.1</course><type>1</type></trkpt>
      <trkpt lat="39.43510344" lon="-6.35300516"><ele>1485</ele><speed>10.25</speed><time>2016-06-21T15:17:24Z</time><pdop>3.0</pdop><geoidheight>54.00</geoidheight><course>345.8</course><type>1</type></trkpt>
      <trkpt lat="39.4352758" lon="-6.35306085"><ele>1481</ele><speed>9.75</speed><time>2016-06-21T15:17:26Z</time><pdop>3.0</pdop><geoidheight>54.00</geoidheight><course>345.9</course><type>1</type></trkpt>
      <trkpt lat="39.43535981" lon="-6.35308812"><ele>1479</ele><speed>9.75</speed><time>2016-06-21T15:17:27Z</time><pdop>3.0</pdop><geoidheight>54.00</geoidheight><course>346.0</course><type>1</type></trkpt>
      <trkpt lat="39.43544395" lon="-6.35311366"><ele>1477</ele><speed>9.75</speed><time>2016-06-21T15:17:28Z</time><pdop>3.0</pdop><geoidheight>54.00</geoidheight><course>346.4</course><type>1</type></trkpt>
      <trkpt lat="39.43560989" lon="-6.35316013"><ele>1473</ele><speed>9.50</speed><time>2016-06-21T15:17:30Z</time><pdop>5.0</pdop><geoidheight>54.00</geoidheight><course>347.8</course><type>1</type></trkpt>
      <trkpt lat="39.43569536" lon="-6.35316605"><ele>1472</ele><speed>9.50</speed><time>2016-06-21T15:17:31Z</time><pdop>4.0</pdop><geoidheight>54.00</geoidheight><course>352.6</course><type>1</type></trkpt>
      <trkpt lat="39.43578233" lon="-6.35317108"><ele>1471</ele><speed>9.75</speed><time>2016-06-21T15:17:32Z</time><pdop>4.0</pdop><geoidheight>54.00</geoidheight><course>355.6</course><type>1</type></trkpt>
      <trkpt lat="39.43593604" lon="-6.35318362"><ele>1470</ele><speed>8.50</speed><time>2016-06-21T15:17:34Z</time><pdop>4.0</pdop><geoidheight>54.00</geoidheight><course>354.7</course><type>1</type></trkpt>
      <trkpt lat="39.43613337" lon="-6.35325447"><ele>1470</ele><speed>7.75</speed><time>2016-06-21T15:17:37Z</time><pdop>6.0</pdop><geoidheight>54.00</geoidheight><course>344.5</course><type>1</type></trkpt>
      <trkpt lat="39.43628734" lon="-6.35325094"><ele>1463</ele><speed>8.75</speed><time>2016-06-21T15:17:39Z</time><pdop>4.0</pdop><geoidheight>54.00</geoidheight><course>355.9</course><type>1</type></trkpt>
      <trkpt lat="39.43645293" lon="-6.35327763"><ele>1459</ele><speed>9.25</speed><time>2016-06-21T15:17:41Z</time><pdop>5.0</pdop><geoidheight>54.00</geoidheight><course>354.2</course><type>1</type></trkpt>
      <trkpt lat="39.43658565" lon="-6.35334992"><ele>1460</ele><speed>7.25</speed><time>2016-06-21T15:17:43Z</time><pdop>3.0</pdop><geoidheight>54.00</geoidheight><course>339.6</course><type>1</type></trkpt>
      <trkpt lat="39.43670951" lon="-6.35338486"><ele>1456</ele><speed>7.00</speed><time>2016-06-21T15:17:45Z</time><pdop>4.0</pdop><geoidheight>54.00</geoidheight><course>348.4</course><type>1</type></trkpt>
      <trkpt lat="39.4367777" lon="-6.35340637"><ele>1453</ele><speed>7.50</speed><time>2016-06-21T15:17:46Z</time><pdop>3.0</pdop><geoidheight>54.00</geoidheight><course>347.0</course><type>1</type></trkpt>
      <trkpt lat="39.43699274" lon="-6.35347378"><ele>1446</ele><speed>8.50</speed><time>2016-06-21T15:17:49Z</time><pdop>3.0</pdop><geoidheight>54.00</geoidheight><course>345.6</course><type>1</type></trkpt>
      <trkpt lat="39.43715009" lon="-6.35352432"><ele>1444</ele><speed>8.75</speed><time>2016-06-21T15:17:51Z</time><pdop>4.0</pdop><geoidheight>54.00</geoidheight><course>345.7</course><type>1</type></trkpt>
      <trkpt lat="39.43729367" lon="-6.35357682"><ele>1441</ele><speed>8.50</speed><time>2016-06-21T15:17:53Z</time><pdop>4.0</pdop><geoidheight>54.00</geoidheight><course>343.8</course><type>1</type></trkpt>
      <trkpt lat="39.43737293" lon="-6.3536088"><ele>1438</ele><speed>9.00</speed><time>2016-06-21T15:17:54Z</time><pdop>3.0</pdop><geoidheight>54.00</geoidheight><course>343.6</course><type>1</type></trkpt>
      <trkpt lat="39.43754206" lon="-6.35367849"><ele>1433</ele><speed>9.75</speed><time>2016-06-21T15:17:56Z</time><pdop>5.0</pdop><geoidheight>54.00</geoidheight><course>344.1</course><type>1</type></trkpt>
      <trkpt lat="39.43770383" lon="-6.35373701"><ele>1431</ele><speed>9.25</speed><time>2016-06-21T15:17:58Z</time><pdop>3.0</pdop><geoidheight>54.00</geoidheight><course>348.3</course><type>1</type></trkpt>
      <trkpt lat="39.43778479" lon="-6.35375797"><ele>1430</ele><speed>9.25</speed><time>2016-06-21T15:17:59Z</time><pdop>3.0</pdop><geoidheight>54.00</geoidheight><course>348.2</course><type>1</type></trkpt>
      <trkpt lat="39.43786449" lon="-6.35378171"><ele>1428</ele><speed>9.25</speed><time>2016-06-21T15:18:00Z</time><pdop>3.0</pdop><geoidheight>54.00</geoidheight><course>346.8</course><type>1</type></trkpt>
      <trkpt lat="39.43794541" lon="-6.35381072"><ele>1426</ele><speed>9.50</speed><time>2016-06-21T15:18:01Z</time><pdop>3.0</pdop><geoidheight>54.00</geoidheight><course>346.1</course><type>1</type></trkpt>
      <trkpt lat="39.43811576" lon="-6.35388235"><ele>1421</ele><speed>10.25</speed><time>2016-06-21T15:18:03Z</time><pdop>3.0</pdop><geoidheight>54.00</geoidheight><course>341.2</course><type>1</type></trkpt>
      <trkpt lat="39.4382956" lon="-6.35395588"><ele>1417</ele><speed>10.50</speed><time>2016-06-21T15:18:05Z</time><pdop>3.0</pdop><geoidheight>54.00</geoidheight><course>342.4</course><type>1</type></trkpt>
      <trkpt lat="39.43838458" lon="-6.35398847"><ele>1416</ele><speed>10.00</speed><time>2016-06-21T15:18:06Z</time><pdop>3.0</pdop><geoidheight>54.00</geoidheight><course>343.5</course><type>1</type></trkpt>
      <trkpt lat="39.43852918" lon="-6.35405392"><ele>1415</ele><speed>8.00</speed><time>2016-06-21T15:18:08Z</time><pdop>4.0</pdop><geoidheight>54.00</geoidheight><course>339.0</course><type>1</type></trkpt>
      <trkpt lat="39.43858658" lon="-6.35409194"><ele>1412</ele><speed>7.25</speed><time>2016-06-21T15:18:09Z</time><pdop>3.0</pdop><geoidheight>54.00</geoidheight><course>335.7</course><type>1</type></trkpt>
      <trkpt lat="39.43865412" lon="-6.35412998"><ele>1409</ele><speed>8.00</speed><time>2016-06-21T15:18:10Z</time><pdop>4.0</pdop><geoidheight>54.00</geoidheight><course>337.8</course><type>1</type></trkpt>
      <trkpt lat="39.43881714" lon="-6.35420802"><ele>1401</ele><speed>9.50</speed><time>2016-06-21T15:18:12Z</time><pdop>5.0</pdop><geoidheight>54.00</geoidheight><course>338.6</course><type>1</type></trkpt>
      <trkpt lat="39.43891896" lon="-6.35428766"><ele>1398</ele><speed>11.50</speed><time>2016-06-21T15:18:13Z</time><pdop>3.0</pdop><geoidheight>54.00</geoidheight><course>332.0</course><type>1</type></trkpt>
      <trkpt lat="39.43900931" lon="-6.3543649"><ele>1395</ele><speed>11.75</speed><time>2016-06-21T15:18:14Z</time><pdop>3.0</pdop><geoidheight>54.00</geoidheight><course>326.1</course><type>1</type></trkpt>
      <trkpt lat="39.43916202" lon="-6.35452172"><ele>1391</ele><speed>10.25</speed><time>2016-06-21T15:18:16Z</time><pdop>3.0</pdop><geoidheight>54.00</geoidheight><course>322.2</course><type>1</type></trkpt>
      <trkpt lat="39.43923279" lon="-6.35458281"><ele>1389</ele><speed>9.75</speed><time>2016-06-21T15:18:17Z</time><pdop>3.0</pdop><geoidheight>54.00</geoidheight><course>324.9</course><type>1</type></trkpt>
      <trkpt lat="39.43930229" lon="-6.3546367"><ele>1387</ele><speed>9.00</speed><time>2016-06-21T15:18:18Z</time><pdop>4.0</pdop><geoidheight>54.00</geoidheight><course>329.4</course><type>1</type></trkpt>
      <trkpt lat="39.43937684" lon="-6.35468432"><ele>1386</ele><speed>9.25</speed><time>2016-06-21T15:18:19Z</time><pdop>4.0</pdop><geoidheight>54.00</geoidheight><course>333.1</course><type>1</type></trkpt>
      <trkpt lat="39.43953343" lon="-6.35478479"><ele>1382</ele><speed>9.75</speed><time>2016-06-21T15:18:21Z</time><pdop>3.0</pdop><geoidheight>54.00</geoidheight><course>332.9</course><type>1</type></trkpt>
      <trkpt lat="39.43961006" lon="-6.35483617"><ele>1382</ele><speed>9.50</speed><time>2016-06-21T15:18:22Z</time><pdop>4.0</pdop><geoidheight>54.00</geoidheight><course>332.2</course><type>1</type></trkpt>
      <trkpt lat="39.43968787" lon="-6.35489062"><ele>1380</ele><speed>9.50</speed><time>2016-06-21T15:18:23Z</time><pdop>4.0</pdop><geoidheight>54.00</geoidheight><course>332.1</course><type>1</type></trkpt>
      <trkpt lat="39.43984946" lon="-6.35500603"><ele>1378</ele><speed>10.25</speed><time>2016-06-21T15:18:25Z</time><pdop>4.0</pdop><geoidheight>54.00</geoidheight><course>329.9</course><type>1</type></trkpt>
      <trkpt lat="39.43992927" lon="-6.35507056"><ele>1379</ele><speed>10.00</speed><time>2016-06-21T15:18:26Z</time><pdop>4.0</pdop><geoidheight>54.00</geoidheight><course>329.5</course><type>1</type></trkpt>
      <trkpt lat="39.44000338" lon="-6.35512739"><ele>1377</ele><speed>9.50</speed><time>2016-06-21T15:18:27Z</time><pdop>4.0</pdop><geoidheight>54.00</geoidheight><course>328.2</course><type>1</type></trkpt>
      <trkpt lat="39.44006944" lon="-6.35518335"><ele>1375</ele><speed>9.00</speed><time>2016-06-21T15:18:28Z</time><pdop>4.0</pdop><geoidheight>54.00</geoidheight><course>327.9</course><type>1</type></trkpt>
      <trkpt lat="39.44014021" lon="-6.35523642"><ele>1372</ele><speed>9.25</speed><time>2016-06-21T15:18:29Z</time><pdop>4.0</pdop><geoidheight>54.00</geoidheight><course>327.3</course><type>1</type></trkpt>
      <trkpt lat="39.44030146" lon="-6.35537917"><ele>1368</ele><speed>11.00</speed><time>2016-06-21T15:18:31Z</time><pdop>4.0</pdop><geoidheight>54.00</geoidheight><course>324.5</course><type>1</type></trkpt>
      <trkpt lat="39.44038508" lon="-6.35545791"><ele>1367</ele><speed>11.75</speed><time>2016-06-21T15:18:32Z</time><pdop>4.0</pdop><geoidheight>54.00</geoidheight><course>324.0</course><type>1</type></trkpt>
      <trkpt lat="39.44047506" lon="-6.35554347"><ele>1367</ele><speed>11.75</speed><time>2016-06-21T15:18:33Z</time><pdop>3.0</pdop><geoidheight>54.00</geoidheight><course>324.7</course><type>1</type></trkpt>
      <trkpt lat="39.44055478" lon="-6.3556125"><ele>1367</ele><speed>11.00</speed><time>2016-06-21T15:18:34Z</time><pdop>4.0</pdop><geoidheight>54.00</geoidheight><course>326.7</course><type>1</type></trkpt>
      <trkpt lat="39.44070651" lon="-6.35572942"><ele>1366</ele><speed>10.00</speed><time>2016-06-21T15:18:36Z</time><pdop>6.0</pdop><geoidheight>54.00</geoidheight><course>328.3</course><type>1</type></trkpt>
      <trkpt lat="39.44086639" lon="-6.35583259"><ele>1361</ele><speed>10.25</speed><time>2016-06-21T15:18:38Z</time><pdop>4.0</pdop><geoidheight>54.00</geoidheight><course>331.5</course><type>1</type></trkpt>
      <trkpt lat="39.44095036" lon="-6.35588678"><ele>1360</ele><speed>10.50</speed><time>2016-06-21T15:18:39Z</time><pdop>4.0</pdop><geoidheight>54.00</geoidheight><course>332.8</course><type>1</type></trkpt>
      <trkpt lat="39.44112215" lon="-6.35598983"><ele>1356</ele><speed>10.50</speed><time>2016-06-21T15:18:41Z</time><pdop>3.0</pdop><geoidheight>54.00</geoidheight><course>337.5</course><type>1</type></trkpt>
      <trkpt lat="39.44120677" lon="-6.35602931"><ele>1354</ele><speed>10.25</speed><time>2016-06-21T15:18:42Z</time><pdop>4.0</pdop><geoidheight>54.00</geoidheight><course>339.1</course><type>1</type></trkpt>
      <trkpt lat="39.44129425" lon="-6.3560721"><ele>1352</ele><speed>10.50</speed><time>2016-06-21T15:18:43Z</time><pdop>3.0</pdop><geoidheight>54.00</geoidheight><course>337.9</course><type>1</type></trkpt>
      <trkpt lat="39.44147922" lon="-6.35617394"><ele>1350</ele><speed>11.00</speed><time>2016-06-21T15:18:45Z</time><pdop>3.0</pdop><geoidheight>54.00</geoidheight><course>337.9</course><type>1</type></trkpt>
      <trkpt lat="39.44157086" lon="-6.35621419"><ele>1349</ele><speed>10.75</speed><time>2016-06-21T15:18:46Z</time><pdop>3.0</pdop><geoidheight>54.00</geoidheight><course>339.0</course><type>1</type></trkpt>
      <trkpt lat="39.44175426" lon="-6.35630834"><ele>1346</ele><speed>10.75</speed><time>2016-06-21T15:18:48Z</time><pdop>4.0</pdop><geoidheight>54.00</geoidheight><course>338.6</course><type>1</type></trkpt>
      <trkpt lat="39.4418479" lon="-6.35635745"><ele>1344</ele><speed>11.00</speed><time>2016-06-21T15:18:49Z</time><pdop>4.0</pdop><geoidheight>54.00</geoidheight><course>338.7</course><type>1</type></trkpt>
      <trkpt lat="39.44203885" lon="-6.35645522"><ele>1341</ele><speed>11.00</speed><time>2016-06-21T15:18:51Z</time><pdop>3.0</pdop><geoidheight>54.00</geoidheight><course>339.4</course><type>1</type></trkpt>
      <trkpt lat="39.44213126" lon="-6.35650011"><ele>1339</ele><speed>11.00</speed><time>2016-06-21T15:18:52Z</time><pdop>5.0</pdop><geoidheight>54.00</geoidheight><course>339.4</course><type>1</type></trkpt>
      <trkpt lat="39.44222207" lon="-6.35653087"><ele>1338</ele><speed>10.75</speed><time>2016-06-21T15:18:53Z</time><pdop>3.0</pdop><geoidheight>54.00</geoidheight><course>344.0</course><type>1</type></trkpt>
      <trkpt lat="39.44231646" lon="-6.35656134"><ele>1336</ele><speed>11.00</speed><time>2016-06-21T15:18:54Z</time><pdop>3.0</pdop><geoidheight>54.00</geoidheight><course>345.3</course><type>1</type></trkpt>
      <trkpt lat="39.442512" lon="-6.35662386"><ele>1333</ele><speed>11.50</speed><time>2016-06-21T15:18:56Z</time><pdop>4.0</pdop><geoidheight>54.00</geoidheight><course>345.8</course><type>1</type></trkpt>
      <trkpt lat="39.44270783" lon="-6.35668102"><ele>1331</ele><speed>11.00</speed><time>2016-06-21T15:18:58Z</time><pdop>3.0</pdop><geoidheight>54.00</geoidheight><course>347.8</course><type>1</type></trkpt>
      <trkpt lat="39.4428015" lon="-6.35670401"><ele>1330</ele><speed>10.50</speed><time>2016-06-21T15:18:59Z</time><pdop>3.0</pdop><geoidheight>54.00</geoidheight><course>349.8</course><type>1</type></trkpt>
      <trkpt lat="39.44298735" lon="-6.35673752"><ele>1328</ele><speed>10.50</speed><time>2016-06-21T15:19:01Z</time><pdop>4.0</pdop><geoidheight>54.00</geoidheight><course>352.3</course><type>1</type></trkpt>
      <trkpt lat="39.44308165" lon="-6.35675475"><ele>1326</ele><speed>10.50</speed><time>2016-06-21T15:19:02Z</time><pdop>3.0</pdop><geoidheight>54.00</geoidheight><course>354.2</course><type>1</type></trkpt>
      <trkpt lat="39.44327298" lon="-6.35675543"><ele>1324</ele><speed>10.75</speed><time>2016-06-21T15:19:04Z</time><pdop>3.0</pdop><geoidheight>54.00</geoidheight><course>359.4</course><type>1</type></trkpt>
      <trkpt lat="39.44336778" lon="-6.35675782"><ele>1323</ele><speed>10.75</speed><time>2016-06-21T15:19:05Z</time><pdop>3.0</pdop><geoidheight>54.00</geoidheight><course>0.0</course><type>1</type></trkpt>
      <trkpt lat="39.4434543" lon="-6.35676182"><ele>1324</ele><speed>9.75</speed><time>2016-06-21T15:19:06Z</time><pdop>3.0</pdop><geoidheight>54.00</geoidheight><course>358.2</course><type>1</type></trkpt>
      <trkpt lat="39.44353241" lon="-6.35677021"><ele>1324</ele><speed>9.00</speed><time>2016-06-21T15:19:07Z</time><pdop>4.0</pdop><geoidheight>54.00</geoidheight><course>354.9</course><type>1</type></trkpt>
      <trkpt lat="39.44369038" lon="-6.35679064"><ele>1331</ele><speed>8.75</speed><time>2016-06-21T15:19:09Z</time><pdop>3.0</pdop><geoidheight>54.00</geoidheight><course>354.6</course><type>1</type></trkpt>
      <trkpt lat="39.44377514" lon="-6.35679548"><ele>1326</ele><speed>9.50</speed><time>2016-06-21T15:19:10Z</time><pdop>4.0</pdop><geoidheight>54.00</geoidheight><course>357.2</course><type>1</type></trkpt>
      <trkpt lat="39.4439527" lon="-6.35679316"><ele>1321</ele><speed>9.75</speed><time>2016-06-21T15:19:12Z</time><pdop>5.0</pdop><geoidheight>54.00</geoidheight><course>0.1</course><type>1</type></trkpt>
      <trkpt lat="39.44405133" lon="-6.35677967"><ele>1318</ele><speed>10.25</speed><time>2016-06-21T15:19:13Z</time><pdop>3.0</pdop><geoidheight>54.00</geoidheight><course>2.9</course><type>1</type></trkpt>
      <trkpt lat="39.44414262" lon="-6.35677906"><ele>1316</ele><speed>10.00</speed><time>2016-06-21T15:19:14Z</time><pdop>3.0</pdop><geoidheight>54.00</geoidheight><course>1.3</course><type>1</type></trkpt>
      <trkpt lat="39.44432011" lon="-6.35677895"><ele>1315</ele><speed>9.75</speed><time>2016-06-21T15:19:16Z</time><pdop>4.0</pdop><geoidheight>54.00</geoidheight><course>359.2</course><type>1</type></trkpt>
      <trkpt lat="39.44440962" lon="-6.35677846"><ele>1314</ele><speed>10.00</speed><time>2016-06-21T15:19:17Z</time><pdop>4.0</pdop><geoidheight>54.00</geoidheight><course>0.1</course><type>1</type></trkpt>
      <trkpt lat="39.44450061" lon="-6.35677875"><ele>1313</ele><speed>10.00</speed><time>2016-06-21T15:19:18Z</time><pdop>4.0</pdop><geoidheight>54.00</geoidheight><course>0.2</course><type>1</type></trkpt>
      <trkpt lat="39.44459507" lon="-6.35678831"><ele>1312</ele><speed>10.25</speed><time>2016-06-21T15:19:19Z</time><pdop>4.0</pdop><geoidheight>54.00</geoidheight><course>356.3</course><type>1</type></trkpt>
      <trkpt lat="39.44479128" lon="-6.35682648"><ele>1311</ele><speed>11.25</speed><time>2016-06-21T15:19:21Z</time><pdop>4.0</pdop><geoidheight>54.00</geoidheight><course>351.3</course><type>1</type></trkpt>
      <trkpt lat="39.44489068" lon="-6.35683604"><ele>1310</ele><speed>11.25</speed><time>2016-06-21T15:19:22Z</time><pdop>5.0</pdop><geoidheight>54.00</geoidheight><course>355.0</course><type>1</type></trkpt>
      <trkpt lat="39.44509239" lon="-6.35683779"><ele>1308</ele><speed>11.00</speed><time>2016-06-21T15:19:24Z</time><pdop>5.0</pdop><geoidheight>54.00</geoidheight><course>0.5</course><type>1</type></trkpt>
      <trkpt lat="39.44519819" lon="-6.35681544"><ele>1309</ele><speed>11.75</speed><time>2016-06-21T15:19:25Z</time><pdop>4.0</pdop><geoidheight>54.00</geoidheight><course>5.9</course><type>1</type></trkpt>
      <trkpt lat="39.44541338" lon="-6.35680183"><ele>1310</ele><speed>12.00</speed><time>2016-06-21T15:19:27Z</time><pdop>5.0</pdop><geoidheight>54.00</geoidheight><course>2.4</course><type>1</type></trkpt>
      <trkpt lat="39.44551606" lon="-6.35679067"><ele>1312</ele><speed>11.50</speed><time>2016-06-21T15:19:28Z</time><pdop>5.0</pdop><geoidheight>54.00</geoidheight><course>3.3</course><type>1</type></trkpt>
      <trkpt lat="39.44570016" lon="-6.35676471"><ele>1315</ele><speed>10.00</speed><time>2016-06-21T15:19:30Z</time><pdop>4.0</pdop><geoidheight>54.00</geoidheight><course>8.0</course><type>1</type></trkpt>
      <trkpt lat="39.44577976" lon="-6.35674798"><ele>1315</ele><speed>9.00</speed><time>2016-06-21T15:19:31Z</time><pdop>4.0</pdop><geoidheight>54.00</geoidheight><course>9.8</course><type>1</type></trkpt>
      <trkpt lat="39.44592258" lon="-6.35668594"><ele>1316</ele><speed>8.00</speed><time>2016-06-21T15:19:33Z</time><pdop>3.0</pdop><geoidheight>54.00</geoidheight><course>25.8</course><type>1</type></trkpt>
      <trkpt lat="39.44596985" lon="-6.35662247"><ele>1316</ele><speed>7.50</speed><time>2016-06-21T15:19:34Z</time><pdop>3.0</pdop><geoidheight>54.00</geoidheight><course>41.8</course><type>1</type></trkpt>
      <trkpt lat="39.44600539" lon="-6.35647813"><ele>1318</ele><speed>6.50</speed><time>2016-06-21T15:19:36Z</time><pdop>3.0</pdop><geoidheight>54.00</geoidheight><course>84.3</course><type>1</type></trkpt>
      <trkpt lat="39.44593359" lon="-6.35638865"><ele>1317</ele><speed>5.50</speed><time>2016-06-21T15:19:38Z</time><pdop>3.0</pdop><geoidheight>54.00</geoidheight><course>146.7</course><type>1</type></trkpt>
      <trkpt lat="39.44587823" lon="-6.35637079"><ele>1319</ele><speed>6.00</speed><time>2016-06-21T15:19:39Z</time><pdop>3.0</pdop><geoidheight>54.00</geoidheight><course>163.8</course><type>1</type></trkpt>
      <trkpt lat="39.44574498" lon="-6.35634348"><ele>1318</ele><speed>7.25</speed><time>2016-06-21T15:19:41Z</time><pdop>3.0</pdop><geoidheight>54.00</geoidheight><course>172.2</course><type>1</type></trkpt>
      <trkpt lat="39.44561271" lon="-6.35635628"><ele>1319</ele><speed>7.25</speed><time>2016-06-21T15:19:43Z</time><pdop>3.0</pdop><geoidheight>54.00</geoidheight><course>186.4</course><type>1</type></trkpt>
      <trkpt lat="39.44550222" lon="-6.35642411"><ele>1321</ele><speed>6.75</speed><time>2016-06-21T15:19:45Z</time><pdop>3.0</pdop><geoidheight>54.00</geoidheight><course>209.4</course><type>1</type></trkpt>
      <trkpt lat="39.44545486" lon="-6.35648973"><ele>1321</ele><speed>7.50</speed><time>2016-06-21T15:19:46Z</time><pdop>3.0</pdop><geoidheight>54.00</geoidheight><course>224.7</course><type>1</type></trkpt>
      <trkpt lat="39.4454134" lon="-6.35658006"><ele>1321</ele><speed>9.00</speed><time>2016-06-21T15:19:47Z</time><pdop>3.0</pdop><geoidheight>54.00</geoidheight><course>238.4</course><type>1</type></trkpt>
      <trkpt lat="39.44538324" lon="-6.35670043"><ele>1321</ele><speed>10.50</speed><time>2016-06-21T15:19:48Z</time><pdop>3.0</pdop><geoidheight>54.00</geoidheight><course>250.3</course><type>1</type></trkpt>
      <trkpt lat="39.44538995" lon="-6.35696363"><ele>1323</ele><speed>11.50</speed><time>2016-06-21T15:19:50Z</time><pdop>3.0</pdop><geoidheight>54.00</geoidheight><course>277.2</course><type>1</type></trkpt>
      <trkpt lat="39.44548566" lon="-6.35720448"><ele>1323</ele><speed>12.00</speed><time>2016-06-21T15:19:52Z</time><pdop>3.0</pdop><geoidheight>54.00</geoidheight><course>301.7</course><type>1</type></trkpt>
      <trkpt lat="39.44564717" lon="-6.35737756"><ele>1324</ele><speed>11.50</speed><time>2016-06-21T15:19:54Z</time><pdop>3.0</pdop><geoidheight>54.00</geoidheight><course>325.4</course><type>1</type></trkpt>
      <trkpt lat="39.44573717" lon="-6.35742072"><ele>1324</ele><speed>10.75</speed><time>2016-06-21T15:19:55Z</time><pdop>3.0</pdop><geoidheight>54.00</geoidheight><course>338.5</course><type>1</type></trkpt>
      <trkpt lat="39.44592101" lon="-6.35741342"><ele>1324</ele><speed>10.00</speed><time>2016-06-21T15:19:57Z</time><pdop>3.0</pdop><geoidheight>54.00</geoidheight><course>5.0</course><type>1</type></trkpt>
      <trkpt lat="39.44601102" lon="-6.35740321"><ele>1324</ele><speed>10.00</speed><time>2016-06-21T15:19:58Z</time><pdop>5.0</pdop><geoidheight>54.00</geoidheight><course>5.0</course><type>1</type></trkpt>
      <trkpt lat="39.44611767" lon="-6.35726802"><ele>1326</ele><speed>7.75</speed><time>2016-06-21T15:20:00Z</time><pdop>3.0</pdop><geoidheight>54.00</geoidheight><course>41.4</course><type>1</type></trkpt>
      <trkpt lat="39.4461502" lon="-6.35719894"><ele>1326</ele><speed>7.00</speed><time>2016-06-21T15:20:01Z</time><pdop>3.0</pdop><geoidheight>54.00</geoidheight><course>54.3</course><type>1</type></trkpt>
      <trkpt lat="39.44617117" lon="-6.35706574"><ele>1327</ele><speed>5.75</speed><time>2016-06-21T15:20:03Z</time><pdop>3.0</pdop><geoidheight>54.00</geoidheight><course>86.3</course><type>1</type></trkpt>
      <trkpt lat="39.44612501" lon="-6.35694255"><ele>1325</ele><speed>6.00</speed><time>2016-06-21T15:20:05Z</time><pdop>3.0</pdop><geoidheight>54.00</geoidheight><course>125.3</course><type>1</type></trkpt>
      <trkpt lat="39.44608048" lon="-6.35690141"><ele>1325</ele><speed>6.25</speed><time>2016-06-21T15:20:06Z</time><pdop>3.0</pdop><geoidheight>54.00</geoidheight><course>142.5</course><type>1</type></trkpt>
      <trkpt lat="39.4459565" lon="-6.35687744"><ele>1324</ele><speed>7.00</speed><time>2016-06-21T15:20:08Z</time><pdop>3.0</pdop><geoidheight>54.00</geoidheight><course>177.7</course><type>1</type></trkpt>
      <trkpt lat="39.44588618" lon="-6.35690713"><ele>1324</ele><speed>8.25</speed><time>2016-06-21T15:20:09Z</time><pdop>3.0</pdop><geoidheight>54.00</geoidheight><course>195.3</course><type>1</type></trkpt>
      <trkpt lat="39.44581156" lon="-6.35696962"><ele>1324</ele><speed>9.75</speed><time>2016-06-21T15:20:10Z</time><pdop>3.0</pdop><geoidheight>54.00</geoidheight><course>210.4</course><type>1</type></trkpt>
      <trkpt lat="39.44569386" lon="-6.35716876"><ele>1325</ele><speed>10.75</speed><time>2016-06-21T15:20:12Z</time><pdop>3.0</pdop><geoidheight>54.00</geoidheight><course>239.2</course><type>1</type></trkpt>
      <trkpt lat="39.44567036" lon="-6.35730122"><ele>1325</ele><speed>11.50</speed><time>2016-06-21T15:20:13Z</time><pdop>3.0</pdop><geoidheight>54.00</geoidheight><course>254.9</course><type>1</type></trkpt>
      <trkpt lat="39.44567038" lon="-6.35744789"><ele>1325</ele><speed>12.25</speed><time>2016-06-21T15:20:14Z</time><pdop>3.0</pdop><geoidheight>54.00</geoidheight><course>267.8</course><type>1</type></trkpt>
      <trkpt lat="39.44568783" lon="-6.35759842"><ele>1326</ele><speed>13.00</speed><time>2016-06-21T15:20:15Z</time><pdop>3.0</pdop><geoidheight>54.00</geoidheight><course>277.9</course><type>1</type></trkpt>
      <trkpt lat="39.4457728" lon="-6.35786629"><ele>1328</ele><speed>12.25</speed><time>2016-06-21T15:20:17Z</time><pdop>4.0</pdop><geoidheight>54.00</geoidheight><course>294.5</course><type>1</type></trkpt>
      <trkpt lat="39.44582772" lon="-6.35798356"><ele>1328</ele><speed>11.75</speed><time>2016-06-21T15:20:18Z</time><pdop>3.0</pdop><geoidheight>54.00</geoidheight><course>299.3</course><type>1</type></trkpt>
      <trkpt lat="39.44587895" lon="-6.35810148"><ele>1329</ele><speed>11.75</speed><time>2016-06-21T15:20:19Z</time><pdop>5.0</pdop><geoidheight>54.00</geoidheight><course>299.3</course><type>1</type></trkpt>
      <trkpt lat="39.44601741" lon="-6.35827855"><ele>1329</ele><speed>11.00</speed><time>2016-06-21T15:20:21Z</time><pdop>4.0</pdop><geoidheight>54.00</geoidheight><course>316.6</course><type>1</type></trkpt>
      <trkpt lat="39.44611394" lon="-6.35833849"><ele>1328</ele><speed>11.75</speed><time>2016-06-21T15:20:22Z</time><pdop>3.0</pdop><geoidheight>54.00</geoidheight><course>332.4</course><type>1</type></trkpt>
      <trkpt lat="39.44621654" lon="-6.35837462"><ele>1328</ele><speed>11.75</speed><time>2016-06-21T15:20:23Z</time><pdop>3.0</pdop><geoidheight>54.00</geoidheight><course>346.4</course><type>1</type></trkpt>
      <trkpt lat="39.44631276" lon="-6.3583792"><ele>1329</ele><speed>11.00</speed><time>2016-06-21T15:20:24Z</time><pdop>3.0</pdop><geoidheight>54.00</geoidheight><course>358.7</course><type>1</type></trkpt>
      <trkpt lat="39.44639376" lon="-6.35835961"><ele>1330</ele><speed>9.50</speed><time>2016-06-21T15:20:25Z</time><pdop>3.0</pdop><geoidheight>54.00</geoidheight><course>9.6</course><type>1</type></trkpt>
      <trkpt lat="39.44654014" lon="-6.35829659"><ele>1330</ele><speed>8.50</speed><time>2016-06-21T15:20:27Z</time><pdop>4.0</pdop><geoidheight>54.00</geoidheight><course>17.8</course><type>1</type></trkpt>
      <trkpt lat="39.44665676" lon="-6.35817181"><ele>1330</ele><speed>8.00</speed><time>2016-06-21T15:20:29Z</time><pdop>3.0</pdop><geoidheight>54.00</geoidheight><course>38.1</course><type>1</type></trkpt>
      <trkpt lat="39.44670806" lon="-6.35810373"><ele>1331</ele><speed>8.00</speed><time>2016-06-21T15:20:30Z</time><pdop>3.0</pdop><geoidheight>54.00</geoidheight><course>43.8</course><type>1</type></trkpt>
      <trkpt lat="39.44679927" lon="-6.35797301"><ele>1333</ele><speed>7.50</speed><time>2016-06-21T15:20:32Z</time><pdop>3.0</pdop><geoidheight>54.00</geoidheight><course>47.2</course><type>1</type></trkpt>
      <trkpt lat="39.44684541" lon="-6.35791322"><ele>1334</ele><speed>7.00</speed><time>2016-06-21T15:20:33Z</time><pdop>3.0</pdop><geoidheight>54.00</geoidheight><course>47.2</course><type>1</type></trkpt>
      <trkpt lat="39.44692538" lon="-6.35780505"><ele>1336</ele><speed>6.50</speed><time>2016-06-21T15:20:35Z</time><pdop>4.0</pdop><geoidheight>54.00</geoidheight><course>47.4</course><type>1</type></trkpt>
      <trkpt lat="39.44698374" lon="-6.35774133"><ele>1336</ele><speed>7.50</speed><time>2016-06-21T15:20:36Z</time><pdop>3.0</pdop><geoidheight>54.00</geoidheight><course>42.0</course><type>1</type></trkpt>
      <trkpt lat="39.44709595" lon="-6.35760547"><ele>1338</ele><speed>8.25</speed><time>2016-06-21T15:20:38Z</time><pdop>3.0</pdop><geoidheight>54.00</geoidheight><course>43.5</course><type>1</type></trkpt>
      <trkpt lat="39.44714505" lon="-6.35754232"><ele>1338</ele><speed>7.75</speed><time>2016-06-21T15:20:39Z</time><pdop>3.0</pdop><geoidheight>54.00</geoidheight><course>45.7</course><type>1</type></trkpt>
      <trkpt lat="39.44719066" lon="-6.35748893"><ele>1338</ele><speed>7.00</speed><time>2016-06-21T15:20:40Z</time><pdop>3.0</pdop><geoidheight>54.00</geoidheight><course>41.9</course><type>1</type></trkpt>
      <trkpt lat="39.44729137" lon="-6.35738841"><ele>1336</ele><speed>7.00</speed><time>2016-06-21T15:20:42Z</time><pdop>4.0</pdop><geoidheight>54.00</geoidheight><course>39.4</course><type>1</type></trkpt>
      <trkpt lat="39.44734809" lon="-6.35731298"><ele>1335</ele><speed>8.25</speed><time>2016-06-21T15:20:43Z</time><pdop>3.0</pdop><geoidheight>54.00</geoidheight><course>44.9</course><type>1</type></trkpt>
      <trkpt lat="39.44739429" lon="-6.35724448"><ele>1335</ele><speed>8.00</speed><time>2016-06-21T15:20:44Z</time><pdop>3.0</pdop><geoidheight>54.00</geoidheight><course>48.6</course><type>1</type></trkpt>
      <trkpt lat="39.44748191" lon="-6.35711061"><ele>1334</ele><speed>7.50</speed><time>2016-06-21T15:20:46Z</time><pdop>3.0</pdop><geoidheight>54.00</geoidheight><course>49.8</course><type>1</type></trkpt>
      <trkpt lat="39.44753134" lon="-6.35704231"><ele>1332</ele><speed>7.75</speed><time>2016-06-21T15:20:47Z</time><pdop>3.0</pdop><geoidheight>54.00</geoidheight><course>46.4</course><type>1</type></trkpt>
      <trkpt lat="39.4475845" lon="-6.35697486"><ele>1332</ele><speed>8.25</speed><time>2016-06-21T15:20:48Z</time><pdop>3.0</pdop><geoidheight>54.00</geoidheight><course>44.5</course><type>1</type></trkpt>
      <trkpt lat="39.44763845" lon="-6.35690745"><ele>1331</ele><speed>8.50</speed><time>2016-06-21T15:20:49Z</time><pdop>3.0</pdop><geoidheight>54.00</geoidheight><course>44.0</course><type>1</type></trkpt>
      <trkpt lat="39.44773778" lon="-6.356775"><ele>1330</ele><speed>7.75</speed><time>2016-06-21T15:20:51Z</time><pdop>3.0</pdop><geoidheight>54.00</geoidheight><course>46.5</course><type>1</type></trkpt>
      <trkpt lat="39.44778549" lon="-6.35671347"><ele>1329</ele><speed>7.75</speed><time>2016-06-21T15:20:52Z</time><pdop>3.0</pdop><geoidheight>54.00</geoidheight><course>45.6</course><type>1</type></trkpt>
      <trkpt lat="39.44783811" lon="-6.35665147"><ele>1328</ele><speed>8.00</speed><time>2016-06-21T15:20:53Z</time><pdop>3.0</pdop><geoidheight>54.00</geoidheight><course>42.2</course><type>1</type></trkpt>
      <trkpt lat="39.44789068" lon="-6.35659003"><ele>1326</ele><speed>8.00</speed><time>2016-06-21T15:20:54Z</time><pdop>4.0</pdop><geoidheight>54.00</geoidheight><course>42.2</course><type>1</type></trkpt>
      <trkpt lat="39.44801498" lon="-6.35646181"><ele>1326</ele><speed>8.50</speed><time>2016-06-21T15:20:56Z</time><pdop>3.0</pdop><geoidheight>54.00</geoidheight><course>41.4</course><type>1</type></trkpt>
      <trkpt lat="39.44806498" lon="-6.35638868"><ele>1326</ele><speed>8.00</speed><time>2016-06-21T15:20:57Z</time><pdop>3.0</pdop><geoidheight>54.00</geoidheight><course>46.1</course><type>1</type></trkpt>
      <trkpt lat="39.44814648" lon="-6.35626335"><ele>1326</ele><speed>6.50</speed><time>2016-06-21T15:20:59Z</time><pdop>3.0</pdop><geoidheight>54.00</geoidheight><course>49.0</course><type>1</type></trkpt>
      <trkpt lat="39.44818353" lon="-6.35620955"><ele>1326</ele><speed>6.50</speed><time>2016-06-21T15:21:00Z</time><pdop>3.0</pdop><geoidheight>54.00</geoidheight><course>48.9</course><type>1</type></trkpt>
      <trkpt lat="39.44822744" lon="-6.35615276"><ele>1325</ele><speed>7.00</speed><time>2016-06-21T15:21:01Z</time><pdop>3.0</pdop><geoidheight>54.00</geoidheight><course>46.1</course><type>1</type></trkpt>
      <trkpt lat="39.44834089" lon="-6.35603225"><ele>1325</ele><speed>8.25</speed><time>2016-06-21T15:21:03Z</time><pdop>3.0</pdop><geoidheight>54.00</geoidheight><course>38.0</course><type>1</type></trkpt>
      <trkpt lat="39.44839871" lon="-6.35597722"><ele>1325</ele><speed>8.25</speed><time>2016-06-21T15:21:04Z</time><pdop>3.0</pdop><geoidheight>54.00</geoidheight><course>35.3</course><type>1</type></trkpt>
      <trkpt lat="39.44851163" lon="-6.35587292"><ele>1323</ele><speed>7.75</speed><time>2016-06-21T15:21:06Z</time><pdop>3.0</pdop><geoidheight>54.00</geoidheight><course>33.3</course><type>1</type></trkpt>
      <trkpt lat="39.44857242" lon="-6.35582474"><ele>1323</ele><speed>7.75</speed><time>2016-06-21T15:21:07Z</time><pdop>3.0</pdop><geoidheight>54.00</geoidheight><course>30.4</course><type>1</type></trkpt>
      <trkpt lat="39.44863991" lon="-6.35576914"><ele>1324</ele><speed>8.50</speed><time>2016-06-21T15:21:08Z</time><pdop>3.0</pdop><geoidheight>54.00</geoidheight><course>29.7</course><type>1</type></trkpt>
      <trkpt lat="39.44871005" lon="-6.35571404"><ele>1326</ele><speed>9.25</speed><time>2016-06-21T15:21:09Z</time><pdop>3.0</pdop><geoidheight>54.00</geoidheight><course>30.9</course><type>1</type></trkpt>
      <trkpt lat="39.44884075" lon="-6.35563684"><ele>1332</ele><speed>8.00</speed><time>2016-06-21T15:21:11Z</time><pdop>3.0</pdop><geoidheight>54.00</geoidheight><course>18.8</course><type>1</type></trkpt>
      <trkpt lat="39.44891079" lon="-6.35562879"><ele>1334</ele><speed>7.75</speed><time>2016-06-21T15:21:12Z</time><pdop>3.0</pdop><geoidheight>54.00</geoidheight><course>6.9</course><type>1</type></trkpt>
      <trkpt lat="39.44907251" lon="-6.35564392"><ele>1334</ele><speed>9.25</speed><time>2016-06-21T15:21:14Z</time><pdop>3.0</pdop><geoidheight>54.00</geoidheight><course>358.6</course><type>1</type></trkpt>
      <trkpt lat="39.44916176" lon="-6.35562493"><ele>1334</ele><speed>9.75</speed><time>2016-06-21T15:21:15Z</time><pdop>3.0</pdop><geoidheight>54.00</geoidheight><course>7.4</course><type>1</type></trkpt>
      <trkpt lat="39.44924112" lon="-6.35558244"><ele>1334</ele><speed>9.50</speed><time>2016-06-21T15:21:16Z</time><pdop>3.0</pdop><geoidheight>54.00</geoidheight><course>20.4</course><type>1</type></trkpt>
      <trkpt lat="39.44931884" lon="-6.35545051"><ele>1336</ele><speed>6.75</speed><time>2016-06-21T15:21:18Z</time><pdop>3.0</pdop><geoidheight>54.00</geoidheight><course>61.7</course><type>1</type></trkpt>
      <trkpt lat="39.44929339" lon="-6.35527324"><ele>1344</ele><speed>4.50</speed><time>2016-06-21T15:21:21Z</time><pdop>4.0</pdop><geoidheight>54.00</geoidheight><course>110.7</course><type>1</type></trkpt>
      <trkpt lat="39.44925822" lon="-6.35520418"><ele>1350</ele><speed>3.50</speed><time>2016-06-21T15:21:23Z</time><pdop>3.0</pdop><geoidheight>54.00</geoidheight><course>123.9</course><type>1</type></trkpt>
      <trkpt lat="39.44915535" lon="-6.3551819"><ele>1347</ele><speed>4.75</speed><time>2016-06-21T15:21:26Z</time><pdop>3.0</pdop><geoidheight>54.00</geoidheight><course>187.3</course><type>1</type></trkpt>
      <trkpt lat="39.44909355" lon="-6.35520159"><ele>1348</ele><speed>6.75</speed><time>2016-06-21T15:21:27Z</time><pdop>4.0</pdop><geoidheight>54.00</geoidheight><course>192.5</course><type>1</type></trkpt>
      <trkpt lat="39.44901891" lon="-6.35524504"><ele>1349</ele><speed>8.75</speed><time>2016-06-21T15:21:28Z</time><pdop>3.0</pdop><geoidheight>54.00</geoidheight><course>202.0</course><type>1</type></trkpt>
      <trkpt lat="39.44889964" lon="-6.35541219"><ele>1350</ele><speed>10.00</speed><time>2016-06-21T15:21:30Z</time><pdop>3.0</pdop><geoidheight>54.00</geoidheight><course>234.0</course><type>1</type></trkpt>
      <trkpt lat="39.44887344" lon="-6.35553133"><ele>1349</ele><speed>10.25</speed><time>2016-06-21T15:21:31Z</time><pdop>3.0</pdop><geoidheight>54.00</geoidheight><course>251.9</course><type>1</type></trkpt>
      <trkpt lat="39.44886988" lon="-6.35566434"><ele>1348</ele><speed>11.00</speed><time>2016-06-21T15:21:32Z</time><pdop>3.0</pdop><geoidheight>54.00</geoidheight><course>265.2</course><type>1</type></trkpt>
      <trkpt lat="39.44886167" lon="-6.35579176"><ele>1347</ele><speed>11.00</speed><time>2016-06-21T15:21:33Z</time><pdop>5.0</pdop><geoidheight>54.00</geoidheight><course>265.2</course><type>1</type></trkpt>
      <trkpt lat="39.44895483" lon="-6.35608021"><ele>1346</ele><speed>13.00</speed><time>2016-06-21T15:21:35Z</time><pdop>3.0</pdop><geoidheight>54.00</geoidheight><course>292.8</course><type>1</type></trkpt>
      <trkpt lat="39.44902455" lon="-6.35621141"><ele>1347</ele><speed>13.75</speed><time>2016-06-21T15:21:36Z</time><pdop>3.0</pdop><geoidheight>54.00</geoidheight><course>302.9</course><type>1</type></trkpt>
      <trkpt lat="39.44911485" lon="-6.35632361"><ele>1347</ele><speed>13.75</speed><time>2016-06-21T15:21:37Z</time><pdop>3.0</pdop><geoidheight>54.00</geoidheight><course>314.3</course><type>1</type></trkpt>
      <trkpt lat="39.44932169" lon="-6.35644334"><ele>1346</ele><speed>12.25</speed><time>2016-06-21T15:21:39Z</time><pdop>3.0</pdop><geoidheight>54.00</geoidheight><course>340.7</course><type>1</type></trkpt>
      <trkpt lat="39.44942589" lon="-6.35645798"><ele>1346</ele><speed>11.75</speed><time>2016-06-21T15:21:40Z</time><pdop>3.0</pdop><geoidheight>54.00</geoidheight><course>352.1</course><type>1</type></trkpt>
      <trkpt lat="39.44962622" lon="-6.35643933"><ele>1348</ele><speed>11.00</speed><time>2016-06-21T15:21:42Z</time><pdop>3.0</pdop><geoidheight>54.00</geoidheight><course>5.2</course><type>1</type></trkpt>
      <trkpt lat="39.44972558" lon="-6.35642757"><ele>1350</ele><speed>11.00</speed><time>2016-06-21T15:21:43Z</time><pdop>5.0</pdop><geoidheight>54.00</geoidheight><course>5.2</course><type>1</type></trkpt>
      <trkpt lat="39.4499283" lon="-6.35639187"><ele>1353</ele><speed>11.25</speed><time>2016-06-21T15:21:45Z</time><pdop>4.0</pdop><geoidheight>54.00</geoidheight><course>4.0</course><type>1</type></trkpt>
      <trkpt lat="39.45002855" lon="-6.35637932"><ele>1355</ele><speed>11.00</speed><time>2016-06-21T15:21:46Z</time><pdop>3.0</pdop><geoidheight>54.00</geoidheight><course>3.4</course><type>1</type></trkpt>
      <trkpt lat="39.45011973" lon="-6.35636246"><ele>1357</ele><speed>10.25</speed><time>2016-06-21T15:21:47Z</time><pdop>3.0</pdop><geoidheight>54.00</geoidheight><course>5.9</course><type>1</type></trkpt>
      <trkpt lat="39.45020137" lon="-6.35634021"><ele>1359</ele><speed>9.25</speed><time>2016-06-21T15:21:48Z</time><pdop>3.0</pdop><geoidheight>54.00</geoidheight><course>13.1</course><type>1</type></trkpt>
      <trkpt lat="39.45026812" lon="-6.35630132"><ele>1361</ele><speed>8.00</speed><time>2016-06-21T15:21:49Z</time><pdop>3.0</pdop><geoidheight>54.00</geoidheight><course>22.3</course><type>1</type></trkpt>
      <trkpt lat="39.45036903" lon="-6.35619817"><ele>1363</ele><speed>7.25</speed><time>2016-06-21T15:21:51Z</time><pdop>3.0</pdop><geoidheight>54.00</geoidheight><course>44.2</course><type>1</type></trkpt>
      <trkpt lat="39.45042829" lon="-6.35607166"><ele>1365</ele><speed>6.25</speed><time>2016-06-21T15:21:53Z</time><pdop>4.0</pdop><geoidheight>54.00</geoidheight><course>52.1</course><type>1</type></trkpt>
      <trkpt lat="39.45038053" lon="-6.35592794"><ele>1369</ele><speed>6.00</speed><time>2016-06-21T15:21:55Z</time><pdop>5.0</pdop><geoidheight>54.00</geoidheight><course>104.4</course><type>1</type></trkpt>
      <trkpt lat="39.45030867" lon="-6.35591127"><ele>1366</ele><speed>6.00</speed><time>2016-06-21T15:21:56Z</time><pdop>3.0</pdop><geoidheight>54.00</geoidheight><course>152.4</course><type>1</type></trkpt>
      <trkpt lat="39.45018645" lon="-6.35593065"><ele>1371</ele><speed>7.25</speed><time>2016-06-21T15:21:58Z</time><pdop>3.0</pdop><geoidheight>54.00</geoidheight><course>193.7</course><type>1</type></trkpt>
      <trkpt lat="39.45011898" lon="-6.35598083"><ele>1373</ele><speed>8.25</speed><time>2016-06-21T15:21:59Z</time><pdop>3.0</pdop><geoidheight>54.00</geoidheight><course>208.3</course><type>1</type></trkpt>
      <trkpt lat="39.44998249" lon="-6.35616236"><ele>1375</ele><speed>11.25</speed><time>2016-06-21T15:22:01Z</time><pdop>3.0</pdop><geoidheight>54.00</geoidheight><course>227.4</course><type>1</type></trkpt>
      <trkpt lat="39.44993163" lon="-6.35627973"><ele>1378</ele><speed>11.50</speed><time>2016-06-21T15:22:02Z</time><pdop>3.0</pdop><geoidheight>54.00</geoidheight><course>239.1</course><type>1</type></trkpt>
      <trkpt lat="39.44991782" lon="-6.35654641"><ele>1375</ele><speed>11.25</speed><time>2016-06-21T15:22:04Z</time><pdop>3.0</pdop><geoidheight>54.00</geoidheight><course>273.5</course><type>1</type></trkpt>
      <trkpt lat="39.44994937" lon="-6.35667028"><ele>1380</ele><speed>11.25</speed><time>2016-06-21T15:22:05Z</time><pdop>3.0</pdop><geoidheight>54.00</geoidheight><course>287.1</course><type>1</type></trkpt>
      <trkpt lat="39.44999996" lon="-6.35678446"><ele>1382</ele><speed>11.25</speed><time>2016-06-21T15:22:06Z</time><pdop>3.0</pdop><geoidheight>54.00</geoidheight><course>297.9</course><type>1</type></trkpt>
      <trkpt lat="39.45006337" lon="-6.35688716"><ele>1385</ele><speed>11.00</speed><time>2016-06-21T15:22:07Z</time><pdop>3.0</pdop><geoidheight>54.00</geoidheight><course>307.1</course><type>1</type></trkpt>
      <trkpt lat="39.45020646" lon="-6.35705735"><ele>1389</ele><speed>11.00</speed><time>2016-06-21T15:22:09Z</time><pdop>5.0</pdop><geoidheight>54.00</geoidheight><course>316.6</course><type>1</type></trkpt>
      <trkpt lat="39.4503137" lon="-6.35707013"><ele>1390</ele><speed>10.75</speed><time>2016-06-21T15:22:10Z</time><pdop>3.0</pdop><geoidheight>54.00</geoidheight><course>340.9</course><type>1</type></trkpt>
      <trkpt lat="39.45040073" lon="-6.35707585"><ele>1392</ele><speed>10.00</speed><time>2016-06-21T15:22:11Z</time><pdop>3.0</pdop><geoidheight>54.00</geoidheight><course>356.3</course><type>1</type></trkpt>
      <trkpt lat="39.45054145" lon="-6.35700193"><ele>1394</ele><speed>8.00</speed><time>2016-06-21T15:22:13Z</time><pdop>3.0</pdop><geoidheight>54.00</geoidheight><course>28.5</course><type>1</type></trkpt>
      <trkpt lat="39.45058233" lon="-6.35694355"><ele>1395</ele><speed>7.00</speed><time>2016-06-21T15:22:14Z</time><pdop>3.0</pdop><geoidheight>54.00</geoidheight><course>44.9</course><type>1</type></trkpt>
      <trkpt lat="39.45058475" lon="-6.35674942"><ele>1398</ele><speed>5.75</speed><time>2016-06-21T15:22:17Z</time><pdop>5.0</pdop><geoidheight>54.00</geoidheight><course>98.2</course><type>1</type></trkpt>
      <trkpt lat="39.45046676" lon="-6.35672251"><ele>1401</ele><speed>5.25</speed><time>2016-06-21T15:22:19Z</time><pdop>3.0</pdop><geoidheight>54.00</geoidheight><course>171.2</course><type>1</type></trkpt>
      <trkpt lat="39.45035029" lon="-6.35675531"><ele>1403</ele><speed>7.00</speed><time>2016-06-21T15:22:21Z</time><pdop>3.0</pdop><geoidheight>54.00</geoidheight><course>194.0</course><type>1</type></trkpt>
      <trkpt lat="39.45021113" lon="-6.35685701"><ele>1406</ele><speed>9.25</speed><time>2016-06-21T15:22:23Z</time><pdop>3.0</pdop><geoidheight>54.00</geoidheight><course>212.9</course><type>1</type></trkpt>
      <trkpt lat="39.45015517" lon="-6.35693335"><ele>1407</ele><speed>9.00</speed><time>2016-06-21T15:22:24Z</time><pdop>3.0</pdop><geoidheight>54.00</geoidheight><course>225.6</course><type>1</type></trkpt>
      <trkpt lat="39.45011351" lon="-6.35703121"><ele>1408</ele><speed>9.50</speed><time>2016-06-21T15:22:25Z</time><pdop>3.0</pdop><geoidheight>54.00</geoidheight><course>241.1</course><type>1</type></trkpt>
      <trkpt lat="39.45008571" lon="-6.35714795"><ele>1408</ele><speed>10.50</speed><time>2016-06-21T15:22:26Z</time><pdop>3.0</pdop><geoidheight>54.00</geoidheight><course>252.0</course><type>1</type></trkpt>
      <trkpt lat="39.4500684" lon="-6.35743363"><ele>1410</ele><speed>13.00</speed><time>2016-06-21T15:22:28Z</time><pdop>3.0</pdop><geoidheight>54.00</geoidheight><course>269.0</course><type>1</type></trkpt>
      <trkpt lat="39.45015646" lon="-6.35772912"><ele>1412</ele><speed>13.75</speed><time>2016-06-21T15:22:30Z</time><pdop>3.0</pdop><geoidheight>54.00</geoidheight><course>297.5</course><type>1</type></trkpt>
      <trkpt lat="39.45024131" lon="-6.35783862"><ele>1411</ele><speed>13.25</speed><time>2016-06-21T15:22:31Z</time><pdop>3.0</pdop><geoidheight>54.00</geoidheight><course>312.7</course><type>1</type></trkpt>
      <trkpt lat="39.4503316" lon="-6.3579133"><ele>1413</ele><speed>12.00</speed><time>2016-06-21T15:22:32Z</time><pdop>3.0</pdop><geoidheight>54.00</geoidheight><course>326.9</course><type>1</type></trkpt>
      <trkpt lat="39.45042201" lon="-6.35796034"><ele>1415</ele><speed>11.00</speed><time>2016-06-21T15:22:33Z</time><pdop>4.0</pdop><geoidheight>54.00</geoidheight><course>336.9</course><type>1</type></trkpt>
      <trkpt lat="39.45058508" lon="-6.35799954"><ele>1419</ele><speed>9.00</speed><time>2016-06-21T15:22:35Z</time><pdop>4.0</pdop><geoidheight>54.00</geoidheight><course>350.1</course><type>1</type></trkpt>
      <trkpt lat="39.45066317" lon="-6.35801013"><ele>1420</ele><speed>8.75</speed><time>2016-06-21T15:22:36Z</time><pdop>3.0</pdop><geoidheight>54.00</geoidheight><course>354.2</course><type>1</type></trkpt>
      <trkpt lat="39.45074034" lon="-6.35800389"><ele>1421</ele><speed>8.50</speed><time>2016-06-21T15:22:37Z</time><pdop>3.0</pdop><geoidheight>54.00</geoidheight><course>0.9</course><type>1</type></trkpt>
      <trkpt lat="39.45085321" lon="-6.35793438"><ele>1423</ele><speed>6.50</speed><time>2016-06-21T15:22:39Z</time><pdop>3.0</pdop><geoidheight>54.00</geoidheight><course>33.6</course><type>1</type></trkpt>
      <trkpt lat="39.45080757" lon="-6.35776023"><ele>1423</ele><speed>6.50</speed><time>2016-06-21T15:22:42Z</time><pdop>3.0</pdop><geoidheight>54.00</geoidheight><course>143.4</course><type>1</type></trkpt>
      <trkpt lat="39.45073644" lon="-6.35774959"><ele>1424</ele><speed>8.00</speed><time>2016-06-21T15:22:43Z</time><pdop>3.0</pdop><geoidheight>54.00</geoidheight><course>171.0</course><type>1</type></trkpt>
      <trkpt lat="39.45058366" lon="-6.35779117"><ele>1428</ele><speed>8.50</speed><time>2016-06-21T15:22:45Z</time><pdop>3.0</pdop><geoidheight>54.00</geoidheight><course>194.1</course><type>1</type></trkpt>
      <trkpt lat="39.45052157" lon="-6.35782405"><ele>1431</ele><speed>7.50</speed><time>2016-06-21T15:22:46Z</time><pdop>3.0</pdop><geoidheight>54.00</geoidheight><course>202.6</course><type>1</type></trkpt>
      <trkpt lat="39.45046555" lon="-6.35787285"><ele>1432</ele><speed>7.25</speed><time>2016-06-21T15:22:47Z</time><pdop>3.0</pdop><geoidheight>54.00</geoidheight><course>211.6</course><type>1</type></trkpt>
      <trkpt lat="39.45040927" lon="-6.35792672"><ele>1433</ele><speed>7.75</speed><time>2016-06-21T15:22:48Z</time><pdop>3.0</pdop><geoidheight>54.00</geoidheight><course>216.9</course><type>1</type></trkpt>
      <trkpt lat="39.45029833" lon="-6.35810733"><ele>1435</ele><speed>10.75</speed><time>2016-06-21T15:22:50Z</time><pdop>3.0</pdop><geoidheight>54.00</geoidheight><course>236.9</course><type>1</type></trkpt>
      <trkpt lat="39.45026677" lon="-6.35824887"><ele>1435</ele><speed>12.25</speed><time>2016-06-21T15:22:51Z</time><pdop>3.0</pdop><geoidheight>54.00</geoidheight><course>253.5</course><type>1</type></trkpt>
      <trkpt lat="39.45030166" lon="-6.3585691"><ele>1437</ele><speed>13.75</speed><time>2016-06-21T15:22:53Z</time><pdop>3.0</pdop><geoidheight>54.00</geoidheight><course>283.7</course><type>1</type></trkpt>
      <trkpt lat="39.45035934" lon="-6.35870463"><ele>1439</ele><speed>13.25</speed><time>2016-06-21T15:22:54Z</time><pdop>3.0</pdop><geoidheight>54.00</geoidheight><course>296.2</course><type>1</type></trkpt>
      <trkpt lat="39.45043178" lon="-6.35881353"><ele>1437</ele><speed>12.25</speed><time>2016-06-21T15:22:55Z</time><pdop>3.0</pdop><geoidheight>54.00</geoidheight><course>308.2</course><type>1</type></trkpt>
      <trkpt lat="39.45058675" lon="-6.35897494"><ele>1440</ele><speed>11.00</speed><time>2016-06-21T15:22:57Z</time><pdop>3.0</pdop><geoidheight>54.00</geoidheight><course>326.0</course><type>1</type></trkpt>
      <trkpt lat="39.45067376" lon="-6.35902244"><ele>1441</ele><speed>10.75</speed><time>2016-06-21T15:22:58Z</time><pdop>3.0</pdop><geoidheight>54.00</geoidheight><course>336.7</course><type>1</type></trkpt>
      <trkpt lat="39.45086619" lon="-6.35905248"><ele>1444</ele><speed>10.75</speed><time>2016-06-21T15:23:00Z</time><pdop>3.0</pdop><geoidheight>54.00</geoidheight><course>357.1</course><type>1</type></trkpt>
      <trkpt lat="39.4509524" lon="-6.35904016"><ele>1445</ele><speed>9.75</speed><time>2016-06-21T15:23:01Z</time><pdop>3.0</pdop><geoidheight>54.00</geoidheight><course>4.5</course><type>1</type></trkpt>
      <trkpt lat="39.45102907" lon="-6.35902134"><ele>1446</ele><speed>8.75</speed><time>2016-06-21T15:23:02Z</time><pdop>3.0</pdop><geoidheight>54.00</geoidheight><course>7.7</course><type>1</type></trkpt>
      <trkpt lat="39.45116338" lon="-6.35898611"><ele>1448</ele><speed>7.25</speed><time>2016-06-21T15:23:04Z</time><pdop>3.0</pdop><geoidheight>54.00</geoidheight><course>12.3</course><type>1</type></trkpt>
      <trkpt lat="39.45125276" lon="-6.35890669"><ele>1448</ele><speed>6.00</speed><time>2016-06-21T15:23:06Z</time><pdop>3.0</pdop><geoidheight>54.00</geoidheight><course>43.4</course><type>1</type></trkpt>
      <trkpt lat="39.45127126" lon="-6.35878474"><ele>1449</ele><speed>5.00</speed><time>2016-06-21T15:23:08Z</time><pdop>4.0</pdop><geoidheight>54.00</geoidheight><course>88.3</course><type>1</type></trkpt>
      <trkpt lat="39.45116389" lon="-6.35868352"><ele>1445</ele><speed>5.75</speed><time>2016-06-21T15:23:11Z</time><pdop>3.0</pdop><geoidheight>54.00</geoidheight><course>165.0</course><type>1</type></trkpt>
      <trkpt lat="39.45109508" lon="-6.35869185"><ele>1447</ele><speed>7.25</speed><time>2016-06-21T15:23:12Z</time><pdop>3.0</pdop><geoidheight>54.00</geoidheight><course>183.2</course><type>1</type></trkpt>
      <trkpt lat="39.45101208" lon="-6.35872473"><ele>1448</ele><speed>9.25</speed><time>2016-06-21T15:23:13Z</time><pdop>3.0</pdop><geoidheight>54.00</geoidheight><course>196.8</course><type>1</type></trkpt>
      <trkpt lat="39.45084391" lon="-6.35887775"><ele>1451</ele><speed>11.75</speed><time>2016-06-21T15:23:15Z</time><pdop>3.0</pdop><geoidheight>54.00</geoidheight><course>219.3</course><type>1</type></trkpt>
      <trkpt lat="39.4507792" lon="-6.35898017"><ele>1453</ele><speed>11.50</speed><time>2016-06-21T15:23:16Z</time><pdop>3.0</pdop><geoidheight>54.00</geoidheight><course>231.3</course><type>1</type></trkpt>
      <trkpt lat="39.45071304" lon="-6.35923427"><ele>1456</ele><speed>11.50</speed><time>2016-06-21T15:23:18Z</time><pdop>3.0</pdop><geoidheight>54.00</geoidheight><course>255.1</course><type>1</type></trkpt>
      <trkpt lat="39.45070221" lon="-6.35937612"><ele>1456</ele><speed>12.00</speed><time>2016-06-21T15:23:19Z</time><pdop>3.0</pdop><geoidheight>54.00</geoidheight><course>263.4</course><type>1</type></trkpt>
      <trkpt lat="39.45070306" lon="-6.35952644"><ele>1456</ele><speed>13.00</speed><time>2016-06-21T15:23:20Z</time><pdop>3.0</pdop><geoidheight>54.00</geoidheight><course>269.8</course><type>1</type></trkpt>
      <trkpt lat="39.45072275" lon="-6.35968147"><ele>1458</ele><speed>13.75</speed><time>2016-06-21T15:23:21Z</time><pdop>3.0</pdop><geoidheight>54.00</geoidheight><course>278.1</course><type>1</type></trkpt>
      <trkpt lat="39.45080127" lon="-6.35998438"><ele>1459</ele><speed>13.75</speed><time>2016-06-21T15:23:23Z</time><pdop>5.0</pdop><geoidheight>54.00</geoidheight><course>287.3</course><type>1</type></trkpt>
      <trkpt lat="39.45089659" lon="-6.36006977"><ele>1460</ele><speed>12.50</speed><time>2016-06-21T15:23:24Z</time><pdop>3.0</pdop><geoidheight>54.00</geoidheight><course>308.8</course><type>1</type></trkpt>
      <trkpt lat="39.4510501" lon="-6.3602557"><ele>1462</ele><speed>11.50</speed><time>2016-06-21T15:23:26Z</time><pdop>3.0</pdop><geoidheight>54.00</geoidheight><course>318.5</course><type>1</type></trkpt>
      <trkpt lat="39.45113049" lon="-6.36033704"><ele>1464</ele><speed>11.50</speed><time>2016-06-21T15:23:27Z</time><pdop>3.0</pdop><geoidheight>54.00</geoidheight><course>321.7</course><type>1</type></trkpt>
      <trkpt lat="39.45121201" lon="-6.36040976"><ele>1465</ele><speed>11.00</speed><time>2016-06-21T15:23:28Z</time><pdop>3.0</pdop><geoidheight>54.00</geoidheight><course>326.7</course><type>1</type></trkpt>
      <trkpt lat="39.45137927" lon="-6.36052159"><ele>1467</ele><speed>10.50</speed><time>2016-06-21T15:23:30Z</time><pdop>5.0</pdop><geoidheight>54.00</geoidheight><course>333.4</course><type>1</type></trkpt>
      <trkpt lat="39.45145761" lon="-6.36050335"><ele>1467</ele><speed>8.75</speed><time>2016-06-21T15:23:31Z</time><pdop>3.0</pdop><geoidheight>54.00</geoidheight><course>354.0</course><type>1</type></trkpt>
      <trkpt lat="39.45153114" lon="-6.3604911"><ele>1468</ele><speed>8.25</speed><time>2016-06-21T15:23:32Z</time><pdop>3.0</pdop><geoidheight>54.00</geoidheight><course>6.4</course><type>1</type></trkpt>
      <trkpt lat="39.45160066" lon="-6.36045883"><ele>1468</ele><speed>8.00</speed><time>2016-06-21T15:23:33Z</time><pdop>3.0</pdop><geoidheight>54.00</geoidheight><course>17.7</course><type>1</type></trkpt>
      <trkpt lat="39.45168798" lon="-6.36035541"><ele>1470</ele><speed>6.00</speed><time>2016-06-21T15:23:35Z</time><pdop>3.0</pdop><geoidheight>54.00</geoidheight><course>50.1</course><type>1</type></trkpt>
      <trkpt lat="39.45163358" lon="-6.36020831"><ele>1471</ele><speed>5.25</speed><time>2016-06-21T15:23:38Z</time><pdop>3.0</pdop><geoidheight>54.00</geoidheight><course>139.3</course><type>1</type></trkpt>
      <trkpt lat="39.45157935" lon="-6.3601852"><ele>1472</ele><speed>6.25</speed><time>2016-06-21T15:23:39Z</time><pdop>3.0</pdop><geoidheight>54.00</geoidheight><course>159.4</course><type>1</type></trkpt>
      <trkpt lat="39.45144759" lon="-6.36022105"><ele>1473</ele><speed>7.75</speed><time>2016-06-21T15:23:41Z</time><pdop>3.0</pdop><geoidheight>54.00</geoidheight><course>197.9</course><type>1</type></trkpt>
      <trkpt lat="39.45137901" lon="-6.3602838"><ele>1473</ele><speed>9.25</speed><time>2016-06-21T15:23:42Z</time><pdop>4.0</pdop><geoidheight>54.00</geoidheight><course>214.4</course><type>1</type></trkpt>
      <trkpt lat="39.45126388" lon="-6.36049529"><ele>1474</ele><speed>11.25</speed><time>2016-06-21T15:23:44Z</time><pdop>3.0</pdop><geoidheight>54.00</geoidheight><course>239.1</course><type>1</type></trkpt>
      <trkpt lat="39.45123032" lon="-6.3606221"><ele>1476</ele><speed>11.50</speed><time>2016-06-21T15:23:45Z</time><pdop>3.0</pdop><geoidheight>54.00</geoidheight><course>250.7</course><type>1</type></trkpt>
      <trkpt lat="39.45119941" lon="-6.36089088"><ele>1477</ele><speed>12.00</speed><time>2016-06-21T15:23:47Z</time><pdop>4.0</pdop><geoidheight>54.00</geoidheight><course>263.3</course><type>1</type></trkpt>
      <trkpt lat="39.4511867" lon="-6.36102939"><ele>1477</ele><speed>12.00</speed><time>2016-06-21T15:23:48Z</time><pdop>7.0</pdop><geoidheight>54.00</geoidheight><course>263.3</course><type>1</type></trkpt>
      <trkpt lat="39.45131342" lon="-6.36133805"><ele>1478</ele><speed>14.00</speed><time>2016-06-21T15:23:50Z</time><pdop>4.0</pdop><geoidheight>54.00</geoidheight><course>292.1</course><type>1</type></trkpt>
      <trkpt lat="39.45139591" lon="-6.36147682"><ele>1478</ele><speed>14.50</speed><time>2016-06-21T15:23:51Z</time><pdop>5.0</pdop><geoidheight>54.00</geoidheight><course>301.8</course><type>1</type></trkpt>
      <trkpt lat="39.45157761" lon="-6.36159715"><ele>1479</ele><speed>12.00</speed><time>2016-06-21T15:23:53Z</time><pdop>3.0</pdop><geoidheight>54.00</geoidheight><course>327.6</course><type>1</type></trkpt>
      <trkpt lat="39.45166784" lon="-6.36166455"><ele>1481</ele><speed>11.50</speed><time>2016-06-21T15:23:54Z</time><pdop>3.0</pdop><geoidheight>54.00</geoidheight><course>335.6</course><type>1</type></trkpt>
      <trkpt lat="39.45185387" lon="-6.36172408"><ele>1466</ele><speed>10.50</speed><time>2016-06-21T15:23:56Z</time><pdop>3.0</pdop><geoidheight>54.00</geoidheight><course>349.6</course><type>1</type></trkpt>
      <trkpt lat="39.45193925" lon="-6.36172331"><ele>1474</ele><speed>9.25</speed><time>2016-06-21T15:23:57Z</time><pdop>3.0</pdop><geoidheight>54.00</geoidheight><course>356.4</course><type>1</type></trkpt>
      <trkpt lat="39.45201277" lon="-6.36171807"><ele>1479</ele><speed>8.00</speed><time>2016-06-21T15:23:58Z</time><pdop>3.0</pdop><geoidheight>54.00</geoidheight><course>5.9</course><type>1</type></trkpt>
      <trkpt lat="39.45213855" lon="-6.36165924"><ele>1484</ele><speed>7.00</speed><time>2016-06-21T15:24:00Z</time><pdop>3.0</pdop><geoidheight>54.00</geoidheight><course>26.3</course><type>1</type></trkpt>
      <trkpt lat="39.45218524" lon="-6.36161516"><ele>1486</ele><speed>6.25</speed><time>2016-06-21T15:24:01Z</time><pdop>3.0</pdop><geoidheight>54.00</geoidheight><course>38.5</course><type>1</type></trkpt>
      <trkpt lat="39.45219221" lon="-6.36145213"><ele>1489</ele><speed>5.00</speed><time>2016-06-21T15:24:04Z</time><pdop>3.0</pdop><geoidheight>54.00</geoidheight><course>114.5</course><type>1</type></trkpt>
      <trkpt lat="39.45212784" lon="-6.36137176"><ele>1492</ele><speed>5.00</speed><time>2016-06-21T15:24:06Z</time><pdop>5.0</pdop><geoidheight>54.00</geoidheight><course>136.9</course><type>1</type></trkpt>
      <trkpt lat="39.45202857" lon="-6.36139798"><ele>1494</ele><speed>5.50</speed><time>2016-06-21T15:24:08Z</time><pdop>3.0</pdop><geoidheight>54.00</geoidheight><course>188.5</course><type>1</type></trkpt>
      <trkpt lat="39.45190758" lon="-6.36146574"><ele>1493</ele><speed>8.00</speed><time>2016-06-21T15:24:10Z</time><pdop>3.0</pdop><geoidheight>54.00</geoidheight><course>207.7</course><type>1</type></trkpt>
      <trkpt lat="39.45184635" lon="-6.36153633"><ele>1494</ele><speed>9.00</speed><time>2016-06-21T15:24:11Z</time><pdop>3.0</pdop><geoidheight>54.00</geoidheight><course>219.3</course><type>1</type></trkpt>
      <trkpt lat="39.45178744" lon="-6.36162515"><ele>1495</ele><speed>10.00</speed><time>2016-06-21T15:24:12Z</time><pdop>3.0</pdop><geoidheight>54.00</geoidheight><course>229.9</course><type>1</type></trkpt>
      <trkpt lat="39.45173731" lon="-6.36173239"><ele>1496</ele><speed>10.75</speed><time>2016-06-21T15:24:13Z</time><pdop>3.0</pdop><geoidheight>54.00</geoidheight><course>240.0</course><type>1</type></trkpt>
      <trkpt lat="39.4516793" lon="-6.36197476"><ele>1498</ele><speed>10.75</speed><time>2016-06-21T15:24:15Z</time><pdop>4.0</pdop><geoidheight>54.00</geoidheight><course>251.8</course><type>1</type></trkpt>
      <trkpt lat="39.45170456" lon="-6.36211929"><ele>1498</ele><speed>11.25</speed><time>2016-06-21T15:24:16Z</time><pdop>3.0</pdop><geoidheight>54.00</geoidheight><course>270.9</course><type>1</type></trkpt>
      <trkpt lat="39.45171662" lon="-6.36226064"><ele>1498</ele><speed>12.00</speed><time>2016-06-21T15:24:17Z</time><pdop>4.0</pdop><geoidheight>54.00</geoidheight><course>275.9</course><type>1</type></trkpt>
      <trkpt lat="39.45179145" lon="-6.36252165"><ele>1500</ele><speed>12.00</speed><time>2016-06-21T15:24:19Z</time><pdop>3.0</pdop><geoidheight>54.00</geoidheight><course>293.9</course><type>1</type></trkpt>
      <trkpt lat="39.45185911" lon="-6.36262508"><ele>1501</ele><speed>11.50</speed><time>2016-06-21T15:24:20Z</time><pdop>3.0</pdop><geoidheight>54.00</geoidheight><course>307.4</course><type>1</type></trkpt>
      <trkpt lat="39.45193895" lon="-6.3627016"><ele>1501</ele><speed>11.25</speed><time>2016-06-21T15:24:21Z</time><pdop>3.0</pdop><geoidheight>54.00</geoidheight><course>320.3</course><type>1</type></trkpt>
      <trkpt lat="39.45202054" lon="-6.36277112"><ele>1502</ele><speed>11.00</speed><time>2016-06-21T15:24:22Z</time><pdop>3.0</pdop><geoidheight>54.00</geoidheight><course>328.5</course><type>1</type></trkpt>
      <trkpt lat="39.4521779" lon="-6.3628548"><ele>1504</ele><speed>9.00</speed><time>2016-06-21T15:24:24Z</time><pdop>3.0</pdop><geoidheight>54.00</geoidheight><course>340.3</course><type>1</type></trkpt>
      <trkpt lat="39.45225229" lon="-6.36287005"><ele>1504</ele><speed>8.25</speed><time>2016-06-21T15:24:25Z</time><pdop>3.0</pdop><geoidheight>54.00</geoidheight><course>348.6</course><type>1</type></trkpt>
      <trkpt lat="39.45232392" lon="-6.36286342"><ele>1504</ele><speed>8.00</speed><time>2016-06-21T15:24:26Z</time><pdop>3.0</pdop><geoidheight>54.00</geoidheight><course>1.5</course><type>1</type></trkpt>
      <trkpt lat="39.45238912" lon="-6.36284369"><ele>1504</ele><speed>7.50</speed><time>2016-06-21T15:24:27Z</time><pdop>3.0</pdop><geoidheight>54.00</geoidheight><course>15.3</course><type>1</type></trkpt>
      <trkpt lat="39.45243742" lon="-6.36279899"><ele>1504</ele><speed>6.50</speed><time>2016-06-21T15:24:28Z</time><pdop>3.0</pdop><geoidheight>54.00</geoidheight><course>32.3</course><type>1</type></trkpt>
      <trkpt lat="39.45246056" lon="-6.36267988"><ele>1504</ele><speed>5.25</speed><time>2016-06-21T15:24:30Z</time><pdop>3.0</pdop><geoidheight>54.00</geoidheight><course>80.0</course><type>1</type></trkpt>
      <trkpt lat="39.45243413" lon="-6.36256634"><ele>1505</ele><speed>5.00</speed><time>2016-06-21T15:24:32Z</time><pdop>4.0</pdop><geoidheight>54.00</geoidheight><course>105.1</course><type>1</type></trkpt>
      <trkpt lat="39.45232063" lon="-6.36255365"><ele>1507</ele><speed>5.50</speed><time>2016-06-21T15:24:34Z</time><pdop>3.0</pdop><geoidheight>54.00</geoidheight><course>174.8</course><type>1</type></trkpt>
      <trkpt lat="39.4522118" lon="-6.36258278"><ele>1508</ele><speed>6.25</speed><time>2016-06-21T15:24:36Z</time><pdop>5.0</pdop><geoidheight>54.00</geoidheight><course>190.0</course><type>1</type></trkpt>
      <trkpt lat="39.45214491" lon="-6.36263633"><ele>1509</ele><speed>7.50</speed><time>2016-06-21T15:24:37Z</time><pdop>3.0</pdop><geoidheight>54.00</geoidheight><course>204.4</course><type>1</type></trkpt>
      <trkpt lat="39.45202992" lon="-6.36276302"><ele>1509</ele><speed>8.75</speed><time>2016-06-21T15:24:39Z</time><pdop>4.0</pdop><geoidheight>54.00</geoidheight><course>221.3</course><type>1</type></trkpt>
      <trkpt lat="39.45197603" lon="-6.36287583"><ele>1508</ele><speed>10.75</speed><time>2016-06-21T15:24:40Z</time><pdop>3.0</pdop><geoidheight>54.00</geoidheight><course>234.5</course><type>1</type></trkpt>
      <trkpt lat="39.45192539" lon="-6.36300172"><ele>1507</ele><speed>12.25</speed><time>2016-06-21T15:24:41Z</time><pdop>3.0</pdop><geoidheight>54.00</geoidheight><course>243.0</course><type>1</type></trkpt>
      <trkpt lat="39.45188483" lon="-6.36314609"><ele>1506</ele><speed>13.25</speed><time>2016-06-21T15:24:42Z</time><pdop>3.0</pdop><geoidheight>54.00</geoidheight><course>249.5</course><type>1</type></trkpt>
      <trkpt lat="39.451832" lon="-6.36346149"><ele>1505</ele><speed>14.00</speed><time>2016-06-21T15:24:44Z</time><pdop>5.0</pdop><geoidheight>54.00</geoidheight><course>257.4</course><type>1</type></trkpt>
      <trkpt lat="39.4519" lon="-6.36381281"><ele>1507</ele><speed>15.00</speed><time>2016-06-21T15:24:46Z</time><pdop>3.0</pdop><geoidheight>54.00</geoidheight><course>284.0</course><type>1</type></trkpt>
      <trkpt lat="39.45195656" lon="-6.36396849"><ele>1508</ele><speed>14.50</speed><time>2016-06-21T15:24:47Z</time><pdop>3.0</pdop><geoidheight>54.00</geoidheight><course>294.0</course><type>1</type></trkpt>
      <trkpt lat="39.45210014" lon="-6.36422755"><ele>1509</ele><speed>13.75</speed><time>2016-06-21T15:24:49Z</time><pdop>5.0</pdop><geoidheight>54.00</geoidheight><course>304.4</course><type>1</type></trkpt>
      <trkpt lat="39.45220489" lon="-6.36430045"><ele>1508</ele><speed>13.00</speed><time>2016-06-21T15:24:50Z</time><pdop>4.0</pdop><geoidheight>54.00</geoidheight><course>320.1</course><type>1</type></trkpt>
      <trkpt lat="39.45230284" lon="-6.36438371"><ele>1508</ele><speed>13.00</speed><time>2016-06-21T15:24:51Z</time><pdop>4.0</pdop><geoidheight>54.00</geoidheight><course>325.1</course><type>1</type></trkpt>
      <trkpt lat="39.45251308" lon="-6.36449132"><ele>1509</ele><speed>12.50</speed><time>2016-06-21T15:24:53Z</time><pdop>3.0</pdop><geoidheight>54.00</geoidheight><course>340.6</course><type>1</type></trkpt>
      <trkpt lat="39.452623439999996" lon="-6.36451352"><ele>1508</ele><speed>12.00</speed><time>2016-06-21T15:24:54Z</time><pdop>4.0</pdop><geoidheight>54.00</geoidheight><course>350.4</course><type>1</type></trkpt>
      <trkpt lat="39.45282665" lon="-6.36450678"><ele>1508</ele><speed>11.25</speed><time>2016-06-21T15:24:56Z</time><pdop>5.0</pdop><geoidheight>54.00</geoidheight><course>359.9</course><type>1</type></trkpt>
      <trkpt lat="39.45289479" lon="-6.3644604"><ele>1509</ele><speed>9.00</speed><time>2016-06-21T15:24:57Z</time><pdop>3.0</pdop><geoidheight>54.00</geoidheight><course>16.9</course><type>1</type></trkpt>
      <trkpt lat="39.45302642" lon="-6.36437996"><ele>1509</ele><speed>8.00</speed><time>2016-06-21T15:24:59Z</time><pdop>5.0</pdop><geoidheight>54.00</geoidheight><course>23.4</course><type>1</type></trkpt>
      <trkpt lat="39.45309629" lon="-6.36425287"><ele>1508</ele><speed>7.00</speed><time>2016-06-21T15:25:01Z</time><pdop>3.0</pdop><geoidheight>54.00</geoidheight><course>50.6</course><type>1</type></trkpt>
      <trkpt lat="39.45313585" lon="-6.36418096"><ele>1507</ele><speed>7.50</speed><time>2016-06-21T15:25:02Z</time><pdop>3.0</pdop><geoidheight>54.00</geoidheight><course>54.0</course><type>1</type></trkpt>
      <trkpt lat="39.45316945" lon="-6.36410812"><ele>1507</ele><speed>7.50</speed><time>2016-06-21T15:25:03Z</time><pdop>3.0</pdop><geoidheight>54.00</geoidheight><course>58.7</course><type>1</type></trkpt>
      <trkpt lat="39.45321624" lon="-6.36396119"><ele>1508</ele><speed>6.50</speed><time>2016-06-21T15:25:05Z</time><pdop>3.0</pdop><geoidheight>54.00</geoidheight><course>70.7</course><type>1</type></trkpt>
      <trkpt lat="39.45323429" lon="-6.36377298"><ele>1509</ele><speed>5.25</speed><time>2016-06-21T15:25:08Z</time><pdop>3.0</pdop><geoidheight>54.00</geoidheight><course>83.2</course><type>1</type></trkpt>
      <trkpt lat="39.45325205" lon="-6.36365804"><ele>1509</ele><speed>5.25</speed><time>2016-06-21T15:25:10Z</time><pdop>4.0</pdop><geoidheight>54.00</geoidheight><course>76.1</course><type>1</type></trkpt>
      <trkpt lat="39.4532967" lon="-6.36352012"><ele>1508</ele><speed>6.75</speed><time>2016-06-21T15:25:12Z</time><pdop>3.0</pdop><geoidheight>54.00</geoidheight><course>65.8</course><type>1</type></trkpt>
      <trkpt lat="39.45332746" lon="-6.36344071"><ele>1509</ele><speed>7.50</speed><time>2016-06-21T15:25:13Z</time><pdop>3.0</pdop><geoidheight>54.00</geoidheight><course>63.8</course><type>1</type></trkpt>
      <trkpt lat="39.45338992" lon="-6.36328533"><ele>1511</ele><speed>7.50</speed><time>2016-06-21T15:25:15Z</time><pdop>3.0</pdop><geoidheight>54.00</geoidheight><course>63.4</course><type>1</type></trkpt>
      <trkpt lat="39.45342176" lon="-6.36320997"><ele>1512</ele><speed>7.00</speed><time>2016-06-21T15:25:16Z</time><pdop>3.0</pdop><geoidheight>54.00</geoidheight><course>62.0</course><type>1</type></trkpt>
      <trkpt lat="39.45348604" lon="-6.36307753"><ele>1512</ele><speed>6.75</speed><time>2016-06-21T15:25:18Z</time><pdop>3.0</pdop><geoidheight>54.00</geoidheight><course>58.0</course><type>1</type></trkpt>
      <trkpt lat="39.45351733" lon="-6.36300679"><ele>1512</ele><speed>7.00</speed><time>2016-06-21T15:25:19Z</time><pdop>3.0</pdop><geoidheight>54.00</geoidheight><course>61.6</course><type>1</type></trkpt>
      <trkpt lat="39.45354105" lon="-6.36292718"><ele>1512</ele><speed>7.50</speed><time>2016-06-21T15:25:20Z</time><pdop>4.0</pdop><geoidheight>54.00</geoidheight><course>68.0</course><type>1</type></trkpt>
      <trkpt lat="39.4535718" lon="-6.36276446"><ele>1514</ele><speed>7.25</speed><time>2016-06-21T15:25:22Z</time><pdop>3.0</pdop><geoidheight>54.00</geoidheight><course>74.1</course><type>1</type></trkpt>
      <trkpt lat="39.45358454" lon="-6.3626889"><ele>1515</ele><speed>6.50</speed><time>2016-06-21T15:25:23Z</time><pdop>3.0</pdop><geoidheight>54.00</geoidheight><course>75.3</course><type>1</type></trkpt>
      <trkpt lat="39.45360287" lon="-6.36255864"><ele>1515</ele><speed>5.75</speed><time>2016-06-21T15:25:25Z</time><pdop>3.0</pdop><geoidheight>54.00</geoidheight><course>79.0</course><type>1</type></trkpt>
      <trkpt lat="39.45362232" lon="-6.36240698"><ele>1516</ele><speed>7.25</speed><time>2016-06-21T15:25:27Z</time><pdop>3.0</pdop><geoidheight>54.00</geoidheight><course>80.4</course><type>1</type></trkpt>
      <trkpt lat="39.45363412" lon="-6.36232285"><ele>1517</ele><speed>7.25</speed><time>2016-06-21T15:25:28Z</time><pdop>3.0</pdop><geoidheight>54.00</geoidheight><course>80.2</course><type>1</type></trkpt>
      <trkpt lat="39.45364462" lon="-6.36224374"><ele>1518</ele><speed>7.00</speed><time>2016-06-21T15:25:29Z</time><pdop>3.0</pdop><geoidheight>54.00</geoidheight><course>78.9</course><type>1</type></trkpt>
      <trkpt lat="39.45366914" lon="-6.36210123"><ele>1520</ele><speed>6.25</speed><time>2016-06-21T15:25:31Z</time><pdop>3.0</pdop><geoidheight>54.00</geoidheight><course>76.2</course><type>1</type></trkpt>
      <trkpt lat="39.45369079" lon="-6.36203434"><ele>1520</ele><speed>6.25</speed><time>2016-06-21T15:25:32Z</time><pdop>3.0</pdop><geoidheight>54.00</geoidheight><course>68.1</course><type>1</type></trkpt>
      <trkpt lat="39.45376505" lon="-6.3619116"><ele>1519</ele><speed>6.75</speed><time>2016-06-21T15:25:34Z</time><pdop>3.0</pdop><geoidheight>54.00</geoidheight><course>51.1</course><type>1</type></trkpt>
      <trkpt lat="39.45385372" lon="-6.36177715"><ele>1518</ele><speed>7.75</speed><time>2016-06-21T15:25:36Z</time><pdop>3.0</pdop><geoidheight>54.00</geoidheight><course>49.4</course><type>1</type></trkpt>
      <trkpt lat="39.45390078" lon="-6.36170536"><ele>1518</ele><speed>8.00</speed><time>2016-06-21T15:25:37Z</time><pdop>3.0</pdop><geoidheight>54.00</geoidheight><course>49.5</course><type>1</type></trkpt>
      <trkpt lat="39.45394973" lon="-6.36163111"><ele>1518</ele><speed>8.25</speed><time>2016-06-21T15:25:38Z</time><pdop>3.0</pdop><geoidheight>54.00</geoidheight><course>48.4</course><type>1</type></trkpt>
      <trkpt lat="39.45406784" lon="-6.36149167"><ele>1517</ele><speed>8.75</speed><time>2016-06-21T15:25:40Z</time><pdop>3.0</pdop><geoidheight>54.00</geoidheight><course>40.1</course><type>1</type></trkpt>
      <trkpt lat="39.45412824" lon="-6.36143215"><ele>1517</ele><speed>8.25</speed><time>2016-06-21T15:25:41Z</time><pdop>3.0</pdop><geoidheight>54.00</geoidheight><course>39.2</course><type>1</type></trkpt>
      <trkpt lat="39.45418419" lon="-6.36137708"><ele>1518</ele><speed>7.75</speed><time>2016-06-21T15:25:42Z</time><pdop>3.0</pdop><geoidheight>54.00</geoidheight><course>39.0</course><type>1</type></trkpt>
      <trkpt lat="39.45429323" lon="-6.36127662"><ele>1517</ele><speed>7.25</speed><time>2016-06-21T15:25:44Z</time><pdop>3.0</pdop><geoidheight>54.00</geoidheight><course>36.5</course><type>1</type></trkpt>
      <trkpt lat="39.45434052" lon="-6.36122359"><ele>1516</ele><speed>7.00</speed><time>2016-06-21T15:25:45Z</time><pdop>3.0</pdop><geoidheight>54.00</geoidheight><course>38.3</course><type>1</type></trkpt>
      <trkpt lat="39.45442641" lon="-6.36111621"><ele>1513</ele><speed>6.75</speed><time>2016-06-21T15:25:47Z</time><pdop>3.0</pdop><geoidheight>54.00</geoidheight><course>46.1</course><type>1</type></trkpt>
      <trkpt lat="39.45446531" lon="-6.36104943"><ele>1512</ele><speed>7.25</speed><time>2016-06-21T15:25:48Z</time><pdop>3.0</pdop><geoidheight>54.00</geoidheight><course>51.3</course><type>1</type></trkpt>
      <trkpt lat="39.45455005" lon="-6.36090506"><ele>1510</ele><speed>7.75</speed><time>2016-06-21T15:25:50Z</time><pdop>3.0</pdop><geoidheight>54.00</geoidheight><course>53.2</course><type>1</type></trkpt>
      <trkpt lat="39.45462168" lon="-6.36076961"><ele>1510</ele><speed>6.75</speed><time>2016-06-21T15:25:52Z</time><pdop>3.0</pdop><geoidheight>54.00</geoidheight><course>55.0</course><type>1</type></trkpt>
      <trkpt lat="39.45469185" lon="-6.36065952"><ele>1509</ele><speed>6.25</speed><time>2016-06-21T15:25:54Z</time><pdop>3.0</pdop><geoidheight>54.00</geoidheight><course>50.3</course><type>1</type></trkpt>
      <trkpt lat="39.45472681" lon="-6.36059789"><ele>1508</ele><speed>6.25</speed><time>2016-06-21T15:25:55Z</time><pdop>3.0</pdop><geoidheight>54.00</geoidheight><course>52.2</course><type>1</type></trkpt>
      <trkpt lat="39.45483518" lon="-6.36039487"><ele>1505</ele><speed>7.25</speed><time>2016-06-21T15:25:58Z</time><pdop>3.0</pdop><geoidheight>54.00</geoidheight><course>51.9</course><type>1</type></trkpt>
      <trkpt lat="39.45488559" lon="-6.36034118"><ele>1505</ele><speed>7.00</speed><time>2016-06-21T15:25:59Z</time><pdop>3.0</pdop><geoidheight>54.00</geoidheight><course>40.9</course><type>1</type></trkpt>
      <trkpt lat="39.45493754" lon="-6.36030533"><ele>1505</ele><speed>6.25</speed><time>2016-06-21T15:26:00Z</time><pdop>3.0</pdop><geoidheight>54.00</geoidheight><course>29.2</course><type>1</type></trkpt>
      <trkpt lat="39.45504798" lon="-6.36027154"><ele>1504</ele><speed>6.25</speed><time>2016-06-21T15:26:02Z</time><pdop>4.0</pdop><geoidheight>54.00</geoidheight><course>8.9</course><type>1</type></trkpt>
      <trkpt lat="39.45527533" lon="-6.36035652"><ele>1502</ele><speed>9.50</speed><time>2016-06-21T15:26:05Z</time><pdop>3.0</pdop><geoidheight>54.00</geoidheight><course>333.3</course><type>1</type></trkpt>
      <trkpt lat="39.45534775" lon="-6.36042099"><ele>1503</ele><speed>9.75</speed><time>2016-06-21T15:26:06Z</time><pdop>3.0</pdop><geoidheight>54.00</geoidheight><course>326.8</course><type>1</type></trkpt>
      <trkpt lat="39.45541885" lon="-6.3604817"><ele>1503</ele><speed>9.50</speed><time>2016-06-21T15:26:07Z</time><pdop>4.0</pdop><geoidheight>54.00</geoidheight><course>325.9</course><type>1</type></trkpt>
      <trkpt lat="39.45556024" lon="-6.36060763"><ele>1502</ele><speed>9.50</speed><time>2016-06-21T15:26:09Z</time><pdop>5.0</pdop><geoidheight>54.00</geoidheight><course>325.8</course><type>1</type></trkpt>
      <trkpt lat="39.45564499" lon="-6.3606806"><ele>1501</ele><speed>10.50</speed><time>2016-06-21T15:26:10Z</time><pdop>5.0</pdop><geoidheight>54.00</geoidheight><course>326.2</course><type>1</type></trkpt>
      <trkpt lat="39.45574318" lon="-6.3607579"><ele>1501</ele><speed>11.75</speed><time>2016-06-21T15:26:11Z</time><pdop>4.0</pdop><geoidheight>54.00</geoidheight><course>327.4</course><type>1</type></trkpt>
      <trkpt lat="39.45591947" lon="-6.36091007"><ele>1501</ele><speed>11.75</speed><time>2016-06-21T15:26:13Z</time><pdop>4.0</pdop><geoidheight>54.00</geoidheight><course>326.7</course><type>1</type></trkpt>
      <trkpt lat="39.45600338" lon="-6.36098744"><ele>1501</ele><speed>11.50</speed><time>2016-06-21T15:26:14Z</time><pdop>4.0</pdop><geoidheight>54.00</geoidheight><course>325.2</course><type>1</type></trkpt>
      <trkpt lat="39.45608746" lon="-6.36106135"><ele>1501</ele><speed>11.00</speed><time>2016-06-21T15:26:15Z</time><pdop>4.0</pdop><geoidheight>54.00</geoidheight><course>324.4</course><type>1</type></trkpt>
      <trkpt lat="39.45617128" lon="-6.36113064"><ele>1500</ele><speed>11.00</speed><time>2016-06-21T15:26:16Z</time><pdop>4.0</pdop><geoidheight>54.00</geoidheight><course>326.2</course><type>1</type></trkpt>
      <trkpt lat="39.45635936" lon="-6.36125995"><ele>1499</ele><speed>12.00</speed><time>2016-06-21T15:26:18Z</time><pdop>4.0</pdop><geoidheight>54.00</geoidheight><course>332.8</course><type>1</type></trkpt>
      <trkpt lat="39.45645829" lon="-6.36132609"><ele>1500</ele><speed>12.50</speed><time>2016-06-21T15:26:19Z</time><pdop>4.0</pdop><geoidheight>54.00</geoidheight><course>332.4</course><type>1</type></trkpt>
      <trkpt lat="39.4565551" lon="-6.36140052"><ele>1500</ele><speed>12.50</speed><time>2016-06-21T15:26:20Z</time><pdop>4.0</pdop><geoidheight>54.00</geoidheight><course>329.3</course><type>1</type></trkpt>
      <trkpt lat="39.45674208" lon="-6.36155184"><ele>1501</ele><speed>12.00</speed><time>2016-06-21T15:26:22Z</time><pdop>4.0</pdop><geoidheight>54.00</geoidheight><course>327.4</course><type>1</type></trkpt>
      <trkpt lat="39.45682836" lon="-6.36162737"><ele>1501</ele><speed>12.00</speed><time>2016-06-21T15:26:23Z</time><pdop>4.0</pdop><geoidheight>54.00</geoidheight><course>327.3</course><type>1</type></trkpt>
      <trkpt lat="39.45701079" lon="-6.36177843"><ele>1502</ele><speed>12.25</speed><time>2016-06-21T15:26:25Z</time><pdop>4.0</pdop><geoidheight>54.00</geoidheight><course>326.7</course><type>1</type></trkpt>
      <trkpt lat="39.45710118" lon="-6.36185784"><ele>1502</ele><speed>12.50</speed><time>2016-06-21T15:26:26Z</time><pdop>4.0</pdop><geoidheight>54.00</geoidheight><course>326.1</course><type>1</type></trkpt>
      <trkpt lat="39.45729638" lon="-6.36200412"><ele>1502</ele><speed>12.75</speed><time>2016-06-21T15:26:28Z</time><pdop>4.0</pdop><geoidheight>54.00</geoidheight><course>330.5</course><type>1</type></trkpt>
      <trkpt lat="39.4573998" lon="-6.36207019"><ele>1503</ele><speed>13.00</speed><time>2016-06-21T15:26:29Z</time><pdop>3.0</pdop><geoidheight>54.00</geoidheight><course>333.2</course><type>1</type></trkpt>
      <trkpt lat="39.45750274" lon="-6.36213211"><ele>1503</ele><speed>12.75</speed><time>2016-06-21T15:26:30Z</time><pdop>4.0</pdop><geoidheight>54.00</geoidheight><course>334.5</course><type>1</type></trkpt>
      <trkpt lat="39.45771664" lon="-6.36224995"><ele>1504</ele><speed>12.50</speed><time>2016-06-21T15:26:32Z</time><pdop>4.0</pdop><geoidheight>54.00</geoidheight><course>338.1</course><type>1</type></trkpt>
      <trkpt lat="39.45782088" lon="-6.36230417"><ele>1505</ele><speed>12.25</speed><time>2016-06-21T15:26:33Z</time><pdop>4.0</pdop><geoidheight>54.00</geoidheight><course>338.6</course><type>1</type></trkpt>
      <trkpt lat="39.45791834" lon="-6.36235772"><ele>1505</ele><speed>11.75</speed><time>2016-06-21T15:26:34Z</time><pdop>4.0</pdop><geoidheight>54.00</geoidheight><course>337.7</course><type>1</type></trkpt>
      <trkpt lat="39.45810716" lon="-6.36249894"><ele>1505</ele><speed>12.00</speed><time>2016-06-21T15:26:36Z</time><pdop>3.0</pdop><geoidheight>54.00</geoidheight><course>329.5</course><type>1</type></trkpt>
      <trkpt lat="39.45820072" lon="-6.36257017"><ele>1505</ele><speed>12.00</speed><time>2016-06-21T15:26:37Z</time><pdop>5.0</pdop><geoidheight>54.00</geoidheight><course>329.5</course><type>1</type></trkpt>
      <trkpt lat="39.45826703" lon="-6.3626842"><ele>1506</ele><speed>11.75</speed><time>2016-06-21T15:26:38Z</time><pdop>3.0</pdop><geoidheight>54.00</geoidheight><course>315.4</course><type>1</type></trkpt>
      <trkpt lat="39.45838483" lon="-6.36287687"><ele>1509</ele><speed>10.00</speed><time>2016-06-21T15:26:40Z</time><pdop>3.0</pdop><geoidheight>54.00</geoidheight><course>304.4</course><type>1</type></trkpt>
      <trkpt lat="39.45842057" lon="-6.36296902"><ele>1509</ele><speed>9.00</speed><time>2016-06-21T15:26:41Z</time><pdop>3.0</pdop><geoidheight>54.00</geoidheight><course>296.7</course><type>1</type></trkpt>
      <trkpt lat="39.45844879" lon="-6.36307315"><ele>1510</ele><speed>9.00</speed><time>2016-06-21T15:26:42Z</time><pdop>3.0</pdop><geoidheight>54.00</geoidheight><course>288.0</course><type>1</type></trkpt>
      <trkpt lat="39.45846688" lon="-6.36328801"><ele>1512</ele><speed>9.75</speed><time>2016-06-21T15:26:44Z</time><pdop>3.0</pdop><geoidheight>54.00</geoidheight><course>274.5</course><type>1</type></trkpt>
      <trkpt lat="39.4584677" lon="-6.36339838"><ele>1513</ele><speed>9.25</speed><time>2016-06-21T15:26:45Z</time><pdop>4.0</pdop><geoidheight>54.00</geoidheight><course>270.3</course><type>1</type></trkpt>
      <trkpt lat="39.45843828" lon="-6.36359437"><ele>1513</ele><speed>8.75</speed><time>2016-06-21T15:26:47Z</time><pdop>3.0</pdop><geoidheight>54.00</geoidheight><course>258.5</course><type>1</type></trkpt>
      <trkpt lat="39.45842261" lon="-6.36370021"><ele>1514</ele><speed>9.50</speed><time>2016-06-21T15:26:48Z</time><pdop>3.0</pdop><geoidheight>54.00</geoidheight><course>259.2</course><type>1</type></trkpt>
      <trkpt lat="39.45840774" lon="-6.36381173"><ele>1515</ele><speed>9.75</speed><time>2016-06-21T15:26:49Z</time><pdop>3.0</pdop><geoidheight>54.00</geoidheight><course>260.8</course><type>1</type></trkpt>
      <trkpt lat="39.4583679" lon="-6.36400534"><ele>1516</ele><speed>8.50</speed><time>2016-06-21T15:26:51Z</time><pdop>3.0</pdop><geoidheight>54.00</geoidheight><course>252.3</course><type>1</type></trkpt>
      <trkpt lat="39.45833725" lon="-6.36409743"><ele>1513</ele><speed>8.25</speed><time>2016-06-21T15:26:52Z</time><pdop>3.0</pdop><geoidheight>54.00</geoidheight><course>249.2</course><type>1</type></trkpt>
      <trkpt lat="39.45830737" lon="-6.36430443"><ele>1514</ele><speed>9.25</speed><time>2016-06-21T15:26:54Z</time><pdop>3.0</pdop><geoidheight>54.00</geoidheight><course>262.8</course><type>1</type></trkpt>
      <trkpt lat="39.45835068" lon="-6.36454185"><ele>1515</ele><speed>11.00</speed><time>2016-06-21T15:26:56Z</time><pdop>3.0</pdop><geoidheight>54.00</geoidheight><course>287.7</course><type>1</type></trkpt>
      <trkpt lat="39.45840258" lon="-6.36465412"><ele>1516</ele><speed>11.25</speed><time>2016-06-21T15:26:57Z</time><pdop>3.0</pdop><geoidheight>54.00</geoidheight><course>299.8</course><type>1</type></trkpt>
      <trkpt lat="39.45856219" lon="-6.3648214"><ele>1517</ele><speed>11.50</speed><time>2016-06-21T15:26:59Z</time><pdop>3.0</pdop><geoidheight>54.00</geoidheight><course>327.6</course><type>1</type></trkpt>
      <trkpt lat="39.45865535" lon="-6.36487105"><ele>1517</ele><speed>11.25</speed><time>2016-06-21T15:27:00Z</time><pdop>4.0</pdop><geoidheight>54.00</geoidheight><course>335.8</course><type>1</type></trkpt>
      <trkpt lat="39.45886415" lon="-6.36491791"><ele>1519</ele><speed>12.00</speed><time>2016-06-21T15:27:02Z</time><pdop>3.0</pdop><geoidheight>54.00</geoidheight><course>351.6</course><type>1</type></trkpt>
      <trkpt lat="39.45897005" lon="-6.364938"><ele>1520</ele><speed>12.00</speed><time>2016-06-21T15:27:03Z</time><pdop>5.0</pdop><geoidheight>54.00</geoidheight><course>351.6</course><type>1</type></trkpt>
      <trkpt lat="39.45914092" lon="-6.36492165"><ele>1520</ele><speed>9.75</speed><time>2016-06-21T15:27:05Z</time><pdop>3.0</pdop><geoidheight>54.00</geoidheight><course>4.9</course><type>1</type></trkpt>
      <trkpt lat="39.45921948" lon="-6.36488664"><ele>1520</ele><speed>9.25</speed><time>2016-06-21T15:27:06Z</time><pdop>3.0</pdop><geoidheight>54.00</geoidheight><course>17.9</course><type>1</type></trkpt>
      <trkpt lat="39.45928468" lon="-6.3648259"><ele>1520</ele><speed>8.75</speed><time>2016-06-21T15:27:07Z</time><pdop>3.0</pdop><geoidheight>54.00</geoidheight><course>35.0</course><type>1</type></trkpt>
      <trkpt lat="39.4593256" lon="-6.36475336"><ele>1521</ele><speed>8.00</speed><time>2016-06-21T15:27:08Z</time><pdop>3.0</pdop><geoidheight>54.00</geoidheight><course>51.5</course><type>1</type></trkpt>
      <trkpt lat="39.45937944" lon="-6.36461349"><ele>1526</ele><speed>6.75</speed><time>2016-06-21T15:27:10Z</time><pdop>4.0</pdop><geoidheight>54.00</geoidheight><course>62.9</course><type>1</type></trkpt>
      <trkpt lat="39.45940654" lon="-6.36451107"><ele>1528</ele><speed>4.25</speed><time>2016-06-21T15:27:13Z</time><pdop>3.0</pdop><geoidheight>54.00</geoidheight><course>71.5</course><type>1</type></trkpt>
      <trkpt lat="39.45943793" lon="-6.36438635"><ele>1529</ele><speed>6.00</speed><time>2016-06-21T15:27:15Z</time><pdop>3.0</pdop><geoidheight>54.00</geoidheight><course>72.7</course><type>1</type></trkpt>
      <trkpt lat="39.45942473" lon="-6.36422833"><ele>1531</ele><speed>7.50</speed><time>2016-06-21T15:27:17Z</time><pdop>3.0</pdop><geoidheight>54.00</geoidheight><course>106.8</course><type>1</type></trkpt>
      <trkpt lat="39.45936658" lon="-6.36416308"><ele>1529</ele><speed>8.25</speed><time>2016-06-21T15:27:18Z</time><pdop>3.0</pdop><geoidheight>54.00</geoidheight><course>135.6</course><type>1</type></trkpt>
      <trkpt lat="39.45929177" lon="-6.3641287"><ele>1532</ele><speed>8.50</speed><time>2016-06-21T15:27:19Z</time><pdop>3.0</pdop><geoidheight>54.00</geoidheight><course>157.5</course><type>1</type></trkpt>
      <trkpt lat="39.45921675" lon="-6.36412565"><ele>1535</ele><speed>8.00</speed><time>2016-06-21T15:27:20Z</time><pdop>3.0</pdop><geoidheight>54.00</geoidheight><course>175.8</course><type>1</type></trkpt>
      <trkpt lat="39.45915717" lon="-6.36413899"><ele>1536</ele><speed>6.50</speed><time>2016-06-21T15:27:21Z</time><pdop>3.0</pdop><geoidheight>54.00</geoidheight><course>187.2</course><type>1</type></trkpt>
      <trkpt lat="39.45905816" lon="-6.36420063"><ele>1536</ele><speed>6.50</speed><time>2016-06-21T15:27:23Z</time><pdop>3.0</pdop><geoidheight>54.00</geoidheight><course>208.9</course><type>1</type></trkpt>
      <trkpt lat="39.45900234" lon="-6.36426224"><ele>1537</ele><speed>7.75</speed><time>2016-06-21T15:27:24Z</time><pdop>3.0</pdop><geoidheight>54.00</geoidheight><course>219.1</course><type>1</type></trkpt>
      <trkpt lat="39.4589307" lon="-6.36445258"><ele>1538</ele><speed>9.50</speed><time>2016-06-21T15:27:26Z</time><pdop>3.0</pdop><geoidheight>54.00</geoidheight><course>252.6</course><type>1</type></trkpt>
      <trkpt lat="39.45895698" lon="-6.36469294"><ele>1537</ele><speed>11.00</speed><time>2016-06-21T15:27:28Z</time><pdop>3.0</pdop><geoidheight>54.00</geoidheight><course>282.5</course><type>1</type></trkpt>
      <trkpt lat="39.45900017" lon="-6.36480575"><ele>1537</ele><speed>10.75</speed><time>2016-06-21T15:27:29Z</time><pdop>3.0</pdop><geoidheight>54.00</geoidheight><course>294.3</course><type>1</type></trkpt>
      <trkpt lat="39.45913481" lon="-6.36497504"><ele>1538</ele><speed>10.50</speed><time>2016-06-21T15:27:31Z</time><pdop>3.0</pdop><geoidheight>54.00</geoidheight><course>319.6</course><type>1</type></trkpt>
      <trkpt lat="39.45931284" lon="-6.36509243"><ele>1540</ele><speed>11.00</speed><time>2016-06-21T15:27:33Z</time><pdop>3.0</pdop><geoidheight>54.00</geoidheight><course>334.6</course><type>1</type></trkpt>
      <trkpt lat="39.45939629" lon="-6.36513305"><ele>1541</ele><speed>10.00</speed><time>2016-06-21T15:27:34Z</time><pdop>3.0</pdop><geoidheight>54.00</geoidheight><course>338.2</course><type>1</type></trkpt>
      <trkpt lat="39.45955267" lon="-6.36521417"><ele>1546</ele><speed>9.25</speed><time>2016-06-21T15:27:36Z</time><pdop>3.0</pdop><geoidheight>54.00</geoidheight><course>337.0</course><type>1</type></trkpt>
      <trkpt lat="39.45962447" lon="-6.36525903"><ele>1548</ele><speed>8.75</speed><time>2016-06-21T15:27:37Z</time><pdop>3.0</pdop><geoidheight>54.00</geoidheight><course>334.0</course><type>1</type></trkpt>
      <trkpt lat="39.45976246" lon="-6.3653699"><ele>1550</ele><speed>9.00</speed><time>2016-06-21T15:27:39Z</time><pdop>4.0</pdop><geoidheight>54.00</geoidheight><course>328.2</course><type>1</type></trkpt>
      <trkpt lat="39.45983136" lon="-6.36542974"><ele>1550</ele><speed>9.00</speed><time>2016-06-21T15:27:40Z</time><pdop>4.0</pdop><geoidheight>54.00</geoidheight><course>325.4</course><type>1</type></trkpt>
      <trkpt lat="39.45996972" lon="-6.36556396"><ele>1547</ele><speed>9.75</speed><time>2016-06-21T15:27:42Z</time><pdop>4.0</pdop><geoidheight>54.00</geoidheight><course>324.4</course><type>1</type></trkpt>
      <trkpt lat="39.4600448" lon="-6.36562783"><ele>1548</ele><speed>10.00</speed><time>2016-06-21T15:27:43Z</time><pdop>3.0</pdop><geoidheight>54.00</geoidheight><course>325.6</course><type>1</type></trkpt>
      <trkpt lat="39.46012506" lon="-6.36569247"><ele>1547</ele><speed>10.50</speed><time>2016-06-21T15:27:44Z</time><pdop>4.0</pdop><geoidheight>54.00</geoidheight><course>329.0</course><type>1</type></trkpt>
      <trkpt lat="39.46020639" lon="-6.36574198"><ele>1548</ele><speed>10.25</speed><time>2016-06-21T15:27:45Z</time><pdop>4.0</pdop><geoidheight>54.00</geoidheight><course>334.1</course><type>1</type></trkpt>
      <trkpt lat="39.46029806" lon="-6.36576924"><ele>1548</ele><speed>10.25</speed><time>2016-06-21T15:27:46Z</time><pdop>3.0</pdop><geoidheight>54.00</geoidheight><course>343.6</course><type>1</type></trkpt>
      <trkpt lat="39.46048562" lon="-6.36581754"><ele>1548</ele><speed>10.75</speed><time>2016-06-21T15:27:48Z</time><pdop>4.0</pdop><geoidheight>54.00</geoidheight><course>348.4</course><type>1</type></trkpt>
      <trkpt lat="39.46069009" lon="-6.36589759"><ele>1548</ele><speed>11.75</speed><time>2016-06-21T15:27:50Z</time><pdop>3.0</pdop><geoidheight>54.00</geoidheight><course>342.3</course><type>1</type></trkpt>
      <trkpt lat="39.46078711" lon="-6.36594851"><ele>1548</ele><speed>12.00</speed><time>2016-06-21T15:27:51Z</time><pdop>3.0</pdop><geoidheight>54.00</geoidheight><course>338.8</course><type>1</type></trkpt>
      <trkpt lat="39.46096254" lon="-6.36606889"><ele>1548</ele><speed>11.00</speed><time>2016-06-21T15:27:53Z</time><pdop>4.0</pdop><geoidheight>54.00</geoidheight><course>330.1</course><type>1</type></trkpt>
      <trkpt lat="39.46104287" lon="-6.36613594"><ele>1548</ele><speed>11.00</speed><time>2016-06-21T15:27:54Z</time><pdop>3.0</pdop><geoidheight>54.00</geoidheight><course>328.9</course><type>1</type></trkpt>
      <trkpt lat="39.46121128" lon="-6.36625491"><ele>1550</ele><speed>10.75</speed><time>2016-06-21T15:27:56Z</time><pdop>3.0</pdop><geoidheight>54.00</geoidheight><course>332.2</course><type>1</type></trkpt>
      <trkpt lat="39.4613869" lon="-6.3663565"><ele>1552</ele><speed>10.50</speed><time>2016-06-21T15:27:58Z</time><pdop>3.0</pdop><geoidheight>54.00</geoidheight><course>333.8</course><type>1</type></trkpt>
      <trkpt lat="39.4614712" lon="-6.36641152"><ele>1553</ele><speed>10.75</speed><time>2016-06-21T15:27:59Z</time><pdop>3.0</pdop><geoidheight>54.00</geoidheight><course>333.7</course><type>1</type></trkpt>
      <trkpt lat="39.46165894" lon="-6.36650999"><ele>1553</ele><speed>11.00</speed><time>2016-06-21T15:28:01Z</time><pdop>3.0</pdop><geoidheight>54.00</geoidheight><course>340.3</course><type>1</type></trkpt>
      <trkpt lat="39.46185371" lon="-6.36656854"><ele>1553</ele><speed>11.25</speed><time>2016-06-21T15:28:03Z</time><pdop>5.0</pdop><geoidheight>54.00</geoidheight><course>345.6</course><type>1</type></trkpt>
      <trkpt lat="39.46196133" lon="-6.3665675"><ele>1552</ele><speed>11.50</speed><time>2016-06-21T15:28:04Z</time><pdop>3.0</pdop><geoidheight>54.00</geoidheight><course>356.1</course><type>1</type></trkpt>
      <trkpt lat="39.46217425" lon="-6.36652425"><ele>1553</ele><speed>12.00</speed><time>2016-06-21T15:28:06Z</time><pdop>3.0</pdop><geoidheight>54.00</geoidheight><course>13.0</course><type>1</type></trkpt>
      <trkpt lat="39.46226963" lon="-6.36648656"><ele>1554</ele><speed>11.25</speed><time>2016-06-21T15:28:07Z</time><pdop>3.0</pdop><geoidheight>54.00</geoidheight><course>18.4</course><type>1</type></trkpt>
      <trkpt lat="39.46245235" lon="-6.36644397"><ele>1555</ele><speed>10.50</speed><time>2016-06-21T15:28:09Z</time><pdop>3.0</pdop><geoidheight>54.00</geoidheight><course>5.9</course><type>1</type></trkpt>
      <trkpt lat="39.46254495" lon="-6.36644721"><ele>1554</ele><speed>10.50</speed><time>2016-06-21T15:28:10Z</time><pdop>3.0</pdop><geoidheight>54.00</geoidheight><course>358.5</course><type>1</type></trkpt>
      <trkpt lat="39.46263686" lon="-6.36646511"><ele>1553</ele><speed>10.25</speed><time>2016-06-21T15:28:11Z</time><pdop>4.0</pdop><geoidheight>54.00</geoidheight><course>353.1</course><type>1</type></trkpt>
      <trkpt lat="39.46273677" lon="-6.36648409"><ele>1551</ele><speed>11.00</speed><time>2016-06-21T15:28:12Z</time><pdop>3.0</pdop><geoidheight>54.00</geoidheight><course>351.1</course><type>1</type></trkpt>
      <trkpt lat="39.46294772" lon="-6.36655505"><ele>1551</ele><speed>12.25</speed><time>2016-06-21T15:28:14Z</time><pdop>4.0</pdop><geoidheight>54.00</geoidheight><course>343.5</course><type>1</type></trkpt>
      <trkpt lat="39.46304832" lon="-6.36661724"><ele>1551</ele><speed>12.50</speed><time>2016-06-21T15:28:15Z</time><pdop>4.0</pdop><geoidheight>54.00</geoidheight><course>336.5</course><type>1</type></trkpt>
      <trkpt lat="39.4631515" lon="-6.36667971"><ele>1552</ele><speed>12.50</speed><time>2016-06-21T15:28:16Z</time><pdop>4.0</pdop><geoidheight>54.00</geoidheight><course>334.5</course><type>1</type></trkpt>
      <trkpt lat="39.46333148" lon="-6.36678446"><ele>1554</ele><speed>10.50</speed><time>2016-06-21T15:28:18Z</time><pdop>3.0</pdop><geoidheight>54.00</geoidheight><course>335.3</course><type>1</type></trkpt>
      <trkpt lat="39.46341202" lon="-6.36682869"><ele>1556</ele><speed>10.00</speed><time>2016-06-21T15:28:19Z</time><pdop>3.0</pdop><geoidheight>54.00</geoidheight><course>336.7</course><type>1</type></trkpt>
      <trkpt lat="39.46349222" lon="-6.36687388"><ele>1557</ele><speed>10.00</speed><time>2016-06-21T15:28:20Z</time><pdop>3.0</pdop><geoidheight>54.00</geoidheight><course>335.5</course><type>1</type></trkpt>
      <trkpt lat="39.46365256" lon="-6.36697011"><ele>1556</ele><speed>9.75</speed><time>2016-06-21T15:28:22Z</time><pdop>4.0</pdop><geoidheight>54.00</geoidheight><course>334.8</course><type>1</type></trkpt>
      <trkpt lat="39.46373152" lon="-6.36701803"><ele>1556</ele><speed>9.75</speed><time>2016-06-21T15:28:23Z</time><pdop>5.0</pdop><geoidheight>54.00</geoidheight><course>334.8</course><type>1</type></trkpt>
      <trkpt lat="39.46390804" lon="-6.3671194"><ele>1554</ele><speed>10.50</speed><time>2016-06-21T15:28:25Z</time><pdop>3.0</pdop><geoidheight>54.00</geoidheight><course>335.6</course><type>1</type></trkpt>
      <trkpt lat="39.4639945" lon="-6.36715894"><ele>1555</ele><speed>10.25</speed><time>2016-06-21T15:28:26Z</time><pdop>4.0</pdop><geoidheight>54.00</geoidheight><course>340.3</course><type>1</type></trkpt>
      <trkpt lat="39.46416612" lon="-6.36721241"><ele>1555</ele><speed>9.50</speed><time>2016-06-21T15:28:28Z</time><pdop>4.0</pdop><geoidheight>54.00</geoidheight><course>348.5</course><type>1</type></trkpt>
      <trkpt lat="39.46425175" lon="-6.36724221"><ele>1555</ele><speed>10.25</speed><time>2016-06-21T15:28:29Z</time><pdop>3.0</pdop><geoidheight>54.00</geoidheight><course>345.9</course><type>1</type></trkpt>
      <trkpt lat="39.46443971" lon="-6.36736303"><ele>1554</ele><speed>12.50</speed><time>2016-06-21T15:28:31Z</time><pdop>3.0</pdop><geoidheight>54.00</geoidheight><course>330.8</course><type>1</type></trkpt>
      <trkpt lat="39.46454463" lon="-6.36744219"><ele>1553</ele><speed>13.50</speed><time>2016-06-21T15:28:32Z</time><pdop>3.0</pdop><geoidheight>54.00</geoidheight><course>329.5</course><type>1</type></trkpt>
      <trkpt lat="39.464654" lon="-6.36751887"><ele>1553</ele><speed>13.75</speed><time>2016-06-21T15:28:33Z</time><pdop>3.0</pdop><geoidheight>54.00</geoidheight><course>331.6</course><type>1</type></trkpt>
      <trkpt lat="39.4647566" lon="-6.36758904"><ele>1555</ele><speed>13.00</speed><time>2016-06-21T15:28:34Z</time><pdop>3.0</pdop><geoidheight>54.00</geoidheight><course>331.9</course><type>1</type></trkpt>
      <trkpt lat="39.46485996" lon="-6.36766021"><ele>1555</ele><speed>13.00</speed><time>2016-06-21T15:28:35Z</time><pdop>4.0</pdop><geoidheight>54.00</geoidheight><course>331.9</course><type>1</type></trkpt>
      <trkpt lat="39.46491806" lon="-6.36773093"><ele>1555</ele><speed>10.00</speed><time>2016-06-21T15:28:36Z</time><pdop>4.0</pdop><geoidheight>54.00</geoidheight><course>323.8</course><type>1</type></trkpt>
      <trkpt lat="39.46506892" lon="-6.36788017"><ele>1553</ele><speed>10.75</speed><time>2016-06-21T15:28:38Z</time><pdop>4.0</pdop><geoidheight>54.00</geoidheight><course>322.3</course><type>1</type></trkpt>
      <trkpt lat="39.4651523" lon="-6.36795709"><ele>1552</ele><speed>11.50</speed><time>2016-06-21T15:28:39Z</time><pdop>3.0</pdop><geoidheight>54.00</geoidheight><course>323.5</course><type>1</type></trkpt>
      <trkpt lat="39.46523983" lon="-6.36802944"><ele>1551</ele><speed>11.50</speed><time>2016-06-21T15:28:40Z</time><pdop>4.0</pdop><geoidheight>54.00</geoidheight><course>326.8</course><type>1</type></trkpt>
      <trkpt lat="39.46532831" lon="-6.3680792"><ele>1552</ele><speed>11.00</speed><time>2016-06-21T15:28:41Z</time><pdop>4.0</pdop><geoidheight>54.00</geoidheight><course>334.3</course><type>1</type></trkpt>
      <trkpt lat="39.46541894" lon="-6.36811922"><ele>1552</ele><speed>11.00</speed><time>2016-06-21T15:28:42Z</time><pdop>4.0</pdop><geoidheight>54.00</geoidheight><course>341.2</course><type>1</type></trkpt>
      <trkpt lat="39.46559024" lon="-6.36817173"><ele>1554</ele><speed>9.75</speed><time>2016-06-21T15:28:44Z</time><pdop>4.0</pdop><geoidheight>54.00</geoidheight><course>347.4</course><type>1</type></trkpt>
      <trkpt lat="39.46575299" lon="-6.3682106"><ele>1554</ele><speed>9.50</speed><time>2016-06-21T15:28:46Z</time><pdop>4.0</pdop><geoidheight>54.00</geoidheight><course>348.9</course><type>1</type></trkpt>
      <trkpt lat="39.46593416" lon="-6.36827167"><ele>1552</ele><speed>10.75</speed><time>2016-06-21T15:28:48Z</time><pdop>3.0</pdop><geoidheight>54.00</geoidheight><course>344.4</course><type>1</type></trkpt>
      <trkpt lat="39.46603548" lon="-6.36831664"><ele>1551</ele><speed>12.00</speed><time>2016-06-21T15:28:49Z</time><pdop>3.0</pdop><geoidheight>54.00</geoidheight><course>342.1</course><type>1</type></trkpt>
      <trkpt lat="39.46614348" lon="-6.36836464"><ele>1550</ele><speed>12.75</speed><time>2016-06-21T15:28:50Z</time><pdop>3.0</pdop><geoidheight>54.00</geoidheight><course>341.3</course><type>1</type></trkpt>
      <trkpt lat="39.46637158" lon="-6.36843117"><ele>1552</ele><speed>12.50</speed><time>2016-06-21T15:28:52Z</time><pdop>3.0</pdop><geoidheight>54.00</geoidheight><course>349.4</course><type>1</type></trkpt>
      <trkpt lat="39.46648312" lon="-6.3684582"><ele>1553</ele><speed>12.50</speed><time>2016-06-21T15:28:53Z</time><pdop>4.0</pdop><geoidheight>54.00</geoidheight><course>349.4</course><type>1</type></trkpt>
      <trkpt lat="39.46667818" lon="-6.36849601"><ele>1557</ele><speed>11.25</speed><time>2016-06-21T15:28:55Z</time><pdop>3.0</pdop><geoidheight>54.00</geoidheight><course>348.0</course><type>1</type></trkpt>
      <trkpt lat="39.46688278" lon="-6.3685451"><ele>1558</ele><speed>11.75</speed><time>2016-06-21T15:28:57Z</time><pdop>3.0</pdop><geoidheight>54.00</geoidheight><course>349.4</course><type>1</type></trkpt>
      <trkpt lat="39.46707773" lon="-6.36856343"><ele>1561</ele><speed>10.25</speed><time>2016-06-21T15:28:59Z</time><pdop>3.0</pdop><geoidheight>54.00</geoidheight><course>359.1</course><type>1</type></trkpt>
      <trkpt lat="39.46723052" lon="-6.36851985"><ele>1563</ele><speed>8.50</speed><time>2016-06-21T15:29:01Z</time><pdop>3.0</pdop><geoidheight>54.00</geoidheight><course>16.4</course><type>1</type></trkpt>
      <trkpt lat="39.46729418" lon="-6.36847185"><ele>1564</ele><speed>8.00</speed><time>2016-06-21T15:29:02Z</time><pdop>3.0</pdop><geoidheight>54.00</geoidheight><course>27.8</course><type>1</type></trkpt>
      <trkpt lat="39.46735547" lon="-6.36835124"><ele>1565</ele><speed>5.75</speed><time>2016-06-21T15:29:04Z</time><pdop>3.0</pdop><geoidheight>54.00</geoidheight><course>64.2</course><type>1</type></trkpt>
      <trkpt lat="39.46732106" lon="-6.36818206"><ele>1567</ele><speed>5.00</speed><time>2016-06-21T15:29:07Z</time><pdop>5.0</pdop><geoidheight>54.00</geoidheight><course>110.4</course><type>1</type></trkpt>
      <trkpt lat="39.46718695" lon="-6.368173"><ele>1569</ele><speed>6.75</speed><time>2016-06-21T15:29:09Z</time><pdop>3.0</pdop><geoidheight>54.00</geoidheight><course>173.2</course><type>1</type></trkpt>
      <trkpt lat="39.46711571" lon="-6.3681651"><ele>1569</ele><speed>7.75</speed><time>2016-06-21T15:29:10Z</time><pdop>3.0</pdop><geoidheight>54.00</geoidheight><course>173.5</course><type>1</type></trkpt>
      <trkpt lat="39.46704593" lon="-6.36815017"><ele>1571</ele><speed>7.75</speed><time>2016-06-21T15:29:11Z</time><pdop>3.0</pdop><geoidheight>54.00</geoidheight><course>170.1</course><type>1</type></trkpt>
      <trkpt lat="39.46692268" lon="-6.36812163"><ele>1575</ele><speed>6.25</speed><time>2016-06-21T15:29:13Z</time><pdop>3.0</pdop><geoidheight>54.00</geoidheight><course>169.9</course><type>1</type></trkpt>
      <trkpt lat="39.46677879" lon="-6.36808681"><ele>1581</ele><speed>5.25</speed><time>2016-06-21T15:29:16Z</time><pdop>3.0</pdop><geoidheight>54.00</geoidheight><course>158.9</course><type>1</type></trkpt>
      <trkpt lat="39.46670379" lon="-6.3679988"><ele>1582</ele><speed>5.50</speed><time>2016-06-21T15:29:18Z</time><pdop>3.0</pdop><geoidheight>54.00</geoidheight><course>133.4</course><type>1</type></trkpt>
      <trkpt lat="39.46666308" lon="-6.36788226"><ele>1587</ele><speed>5.75</speed><time>2016-06-21T15:29:20Z</time><pdop>3.0</pdop><geoidheight>54.00</geoidheight><course>108.5</course><type>1</type></trkpt>
      <trkpt lat="39.46668116" lon="-6.36771379"><ele>1591</ele><speed>5.00</speed><time>2016-06-21T15:29:23Z</time><pdop>3.0</pdop><geoidheight>54.00</geoidheight><course>68.4</course><type>1</type></trkpt>
      <trkpt lat="39.46670282" lon="-6.36764624"><ele>1592</ele><speed>5.75</speed><time>2016-06-21T15:29:24Z</time><pdop>3.0</pdop><geoidheight>54.00</geoidheight><course>66.5</course><type>1</type></trkpt>
      <trkpt lat="39.4667227" lon="-6.36757498"><ele>1591</ele><speed>6.50</speed><time>2016-06-21T15:29:25Z</time><pdop>3.0</pdop><geoidheight>54.00</geoidheight><course>68.6</course><type>1</type></trkpt>
      <trkpt lat="39.46680146" lon="-6.36744104"><ele>1590</ele><speed>7.50</speed><time>2016-06-21T15:29:27Z</time><pdop>3.0</pdop><geoidheight>54.00</geoidheight><course>47.5</course><type>1</type></trkpt>
      <trkpt lat="39.4668514" lon="-6.36738504"><ele>1589</ele><speed>7.50</speed><time>2016-06-21T15:29:28Z</time><pdop>3.0</pdop><geoidheight>54.00</geoidheight><course>40.1</course><type>1</type></trkpt>
      <trkpt lat="39.46695491" lon="-6.36726064"><ele>1586</ele><speed>7.50</speed><time>2016-06-21T15:29:30Z</time><pdop>5.0</pdop><geoidheight>54.00</geoidheight><course>42.4</course><type>1</type></trkpt>
      <trkpt lat="39.46706741" lon="-6.367108"><ele>1582</ele><speed>8.75</speed><time>2016-06-21T15:29:32Z</time><pdop>5.0</pdop><geoidheight>54.00</geoidheight><course>44.8</course><type>1</type></trkpt>
      <trkpt lat="39.46717321" lon="-6.36706839"><ele>1580</ele><speed>10.50</speed><time>2016-06-21T15:29:33Z</time><pdop>3.0</pdop><geoidheight>54.00</geoidheight><course>22.8</course><type>1</type></trkpt>
      <trkpt lat="39.4672632" lon="-6.36704987"><ele>1578</ele><speed>10.25</speed><time>2016-06-21T15:29:34Z</time><pdop>3.0</pdop><geoidheight>54.00</geoidheight><course>9.9</course><type>1</type></trkpt>
      <trkpt lat="39.46744565" lon="-6.36705317"><ele>1574</ele><speed>10.50</speed><time>2016-06-21T15:29:36Z</time><pdop>4.0</pdop><geoidheight>54.00</geoidheight><course>359.4</course><type>1</type></trkpt>
      <trkpt lat="39.46755211" lon="-6.36705865"><ele>1572</ele><speed>11.50</speed><time>2016-06-21T15:29:37Z</time><pdop>4.0</pdop><geoidheight>54.00</geoidheight><course>357.3</course><type>1</type></trkpt>
      <trkpt lat="39.46777992" lon="-6.36709373"><ele>1566</ele><speed>12.75</speed><time>2016-06-21T15:29:39Z</time><pdop>5.0</pdop><geoidheight>54.00</geoidheight><course>353.9</course><type>1</type></trkpt>
      <trkpt lat="39.4678996" lon="-6.36715233"><ele>1567</ele><speed>13.00</speed><time>2016-06-21T15:29:40Z</time><pdop>3.0</pdop><geoidheight>54.00</geoidheight><course>343.9</course><type>1</type></trkpt>
      <trkpt lat="39.4680051" lon="-6.36720154"><ele>1568</ele><speed>12.25</speed><time>2016-06-21T15:29:41Z</time><pdop>3.0</pdop><geoidheight>54.00</geoidheight><course>339.9</course><type>1</type></trkpt>
      <trkpt lat="39.46819732" lon="-6.36729123"><ele>1567</ele><speed>11.25</speed><time>2016-06-21T15:29:43Z</time><pdop>4.0</pdop><geoidheight>54.00</geoidheight><course>340.8</course><type>1</type></trkpt>
      <trkpt lat="39.46829175" lon="-6.36733226"><ele>1566</ele><speed>11.00</speed><time>2016-06-21T15:29:44Z</time><pdop>4.0</pdop><geoidheight>54.00</geoidheight><course>342.0</course><type>1</type></trkpt>
      <trkpt lat="39.46839017" lon="-6.36737282"><ele>1564</ele><speed>11.50</speed><time>2016-06-21T15:29:45Z</time><pdop>4.0</pdop><geoidheight>54.00</geoidheight><course>342.6</course><type>1</type></trkpt>
      <trkpt lat="39.46849154" lon="-6.36741595"><ele>1563</ele><speed>11.50</speed><time>2016-06-21T15:29:46Z</time><pdop>4.0</pdop><geoidheight>54.00</geoidheight><course>341.9</course><type>1</type></trkpt>
      <trkpt lat="39.46868201" lon="-6.36751182"><ele>1560</ele><speed>11.25</speed><time>2016-06-21T15:29:48Z</time><pdop>3.0</pdop><geoidheight>54.00</geoidheight><course>338.1</course><type>1</type></trkpt>
      <trkpt lat="39.46878025" lon="-6.36756139"><ele>1558</ele><speed>11.50</speed><time>2016-06-21T15:29:49Z</time><pdop>3.0</pdop><geoidheight>54.00</geoidheight><course>338.2</course><type>1</type></trkpt>
      <trkpt lat="39.46888225" lon="-6.36761278"><ele>1557</ele><speed>11.75</speed><time>2016-06-21T15:29:50Z</time><pdop>3.0</pdop><geoidheight>54.00</geoidheight><course>338.8</course><type>1</type></trkpt>
      <trkpt lat="39.46908888" lon="-6.36771002"><ele>1554</ele><speed>12.25</speed><time>2016-06-21T15:29:52Z</time><pdop>3.0</pdop><geoidheight>54.00</geoidheight><course>340.0</course><type>1</type></trkpt>
      <trkpt lat="39.46919614" lon="-6.3677586"><ele>1553</ele><speed>12.50</speed><time>2016-06-21T15:29:53Z</time><pdop>3.0</pdop><geoidheight>54.00</geoidheight><course>341.7</course><type>1</type></trkpt>
      <trkpt lat="39.46929915" lon="-6.36780165"><ele>1553</ele><speed>12.50</speed><time>2016-06-21T15:29:54Z</time><pdop>3.0</pdop><geoidheight>54.00</geoidheight><course>342.8</course><type>1</type></trkpt>
      <trkpt lat="39.46951603" lon="-6.36790378"><ele>1553</ele><speed>12.50</speed><time>2016-06-21T15:29:56Z</time><pdop>4.0</pdop><geoidheight>54.00</geoidheight><course>339.3</course><type>1</type></trkpt>
      <trkpt lat="39.46961288" lon="-6.36795357"><ele>1553</ele><speed>12.00</speed><time>2016-06-21T15:29:57Z</time><pdop>4.0</pdop><geoidheight>54.00</geoidheight><course>338.1</course><type>1</type></trkpt>
      <trkpt lat="39.46981629" lon="-6.36804982"><ele>1550</ele><speed>12.25</speed><time>2016-06-21T15:29:59Z</time><pdop>3.0</pdop><geoidheight>54.00</geoidheight><course>338.4</course><type>1</type></trkpt>
      <trkpt lat="39.46992811" lon="-6.36810169"><ele>1549</ele><speed>13.00</speed><time>2016-06-21T15:30:00Z</time><pdop>3.0</pdop><geoidheight>54.00</geoidheight><course>338.4</course><type>1</type></trkpt>
      <trkpt lat="39.47014962" lon="-6.36823124"><ele>1548</ele><speed>13.00</speed><time>2016-06-21T15:30:02Z</time><pdop>4.0</pdop><geoidheight>54.00</geoidheight><course>335.6</course><type>1</type></trkpt>
      <trkpt lat="39.47025006" lon="-6.36829795"><ele>1549</ele><speed>12.75</speed><time>2016-06-21T15:30:03Z</time><pdop>4.0</pdop><geoidheight>54.00</geoidheight><course>333.4</course><type>1</type></trkpt>
      <trkpt lat="39.47034762" lon="-6.36835315"><ele>1549</ele><speed>12.25</speed><time>2016-06-21T15:30:04Z</time><pdop>4.0</pdop><geoidheight>54.00</geoidheight><course>335.6</course><type>1</type></trkpt>
      <trkpt lat="39.47053141" lon="-6.3684407"><ele>1548</ele><speed>10.75</speed><time>2016-06-21T15:30:06Z</time><pdop>4.0</pdop><geoidheight>54.00</geoidheight><course>339.9</course><type>1</type></trkpt>
      <trkpt lat="39.47062991" lon="-6.36849209"><ele>1546</ele><speed>11.50</speed><time>2016-06-21T15:30:07Z</time><pdop>3.0</pdop><geoidheight>54.00</geoidheight><course>338.9</course><type>1</type></trkpt>
      <trkpt lat="39.47073992" lon="-6.36854108"><ele>1545</ele><speed>12.75</speed><time>2016-06-21T15:30:08Z</time><pdop>3.0</pdop><geoidheight>54.00</geoidheight><course>340.4</course><type>1</type></trkpt>
      <trkpt lat="39.470952079999996" lon="-6.36863015"><ele>1544</ele><speed>12.25</speed><time>2016-06-21T15:30:10Z</time><pdop>3.0</pdop><geoidheight>54.00</geoidheight><course>342.9</course><type>1</type></trkpt>
      <trkpt lat="39.47105751" lon="-6.36867202"><ele>1544</ele><speed>12.25</speed><time>2016-06-21T15:30:11Z</time><pdop>5.0</pdop><geoidheight>54.00</geoidheight><course>342.9</course><type>1</type></trkpt>
      <trkpt lat="39.47115485" lon="-6.36871851"><ele>1545</ele><speed>11.75</speed><time>2016-06-21T15:30:12Z</time><pdop>4.0</pdop><geoidheight>54.00</geoidheight><course>340.6</course><type>1</type></trkpt>
      <trkpt lat="39.47136197" lon="-6.3688473"><ele>1540</ele><speed>13.25</speed><time>2016-06-21T15:30:14Z</time><pdop>3.0</pdop><geoidheight>54.00</geoidheight><course>332.6</course><type>1</type></trkpt>
      <trkpt lat="39.47146001" lon="-6.36893318"><ele>1540</ele><speed>13.50</speed><time>2016-06-21T15:30:15Z</time><pdop>3.0</pdop><geoidheight>54.00</geoidheight><course>327.0</course><type>1</type></trkpt>
      <trkpt lat="39.47155891" lon="-6.36902026"><ele>1541</ele><speed>12.75</speed><time>2016-06-21T15:30:16Z</time><pdop>3.0</pdop><geoidheight>54.00</geoidheight><course>325.5</course><type>1</type></trkpt>
      <trkpt lat="39.47164389" lon="-6.36908863"><ele>1541</ele><speed>11.50</speed><time>2016-06-21T15:30:17Z</time><pdop>3.0</pdop><geoidheight>54.00</geoidheight><course>326.8</course><type>1</type></trkpt>
      <trkpt lat="39.47181551" lon="-6.36922532"><ele>1538</ele><speed>11.25</speed><time>2016-06-21T15:30:19Z</time><pdop>3.0</pdop><geoidheight>54.00</geoidheight><course>330.0</course><type>1</type></trkpt>
      <trkpt lat="39.4719027" lon="-6.36929034"><ele>1536</ele><speed>11.25</speed><time>2016-06-21T15:30:20Z</time><pdop>5.0</pdop><geoidheight>54.00</geoidheight><course>330.0</course><type>1</type></trkpt>
      <trkpt lat="39.47211887" lon="-6.36943048"><ele>1533</ele><speed>13.25</speed><time>2016-06-21T15:30:22Z</time><pdop>4.0</pdop><geoidheight>54.00</geoidheight><course>331.8</course><type>1</type></trkpt>
      <trkpt lat="39.47222745" lon="-6.36949461"><ele>1531</ele><speed>13.25</speed><time>2016-06-21T15:30:23Z</time><pdop>4.0</pdop><geoidheight>54.00</geoidheight><course>334.2</course><type>1</type></trkpt>
      <trkpt lat="39.4723308" lon="-6.36955798"><ele>1530</ele><speed>13.00</speed><time>2016-06-21T15:30:24Z</time><pdop>4.0</pdop><geoidheight>54.00</geoidheight><course>334.0</course><type>1</type></trkpt>
      <trkpt lat="39.47254449" lon="-6.36969375"><ele>1527</ele><speed>13.25</speed><time>2016-06-21T15:30:26Z</time><pdop>4.0</pdop><geoidheight>54.00</geoidheight><course>333.5</course><type>1</type></trkpt>
      <trkpt lat="39.47264676" lon="-6.36976399"><ele>1525</ele><speed>13.00</speed><time>2016-06-21T15:30:27Z</time><pdop>3.0</pdop><geoidheight>54.00</geoidheight><course>333.0</course><type>1</type></trkpt>
      <trkpt lat="39.47275277" lon="-6.36983978"><ele>1523</ele><speed>13.25</speed><time>2016-06-21T15:30:28Z</time><pdop>3.0</pdop><geoidheight>54.00</geoidheight><course>331.7</course><type>1</type></trkpt>
      <trkpt lat="39.47285804" lon="-6.36991291"><ele>1521</ele><speed>13.25</speed><time>2016-06-21T15:30:29Z</time><pdop>5.0</pdop><geoidheight>54.00</geoidheight><course>331.7</course><type>1</type></trkpt>
      <trkpt lat="39.47305765" lon="-6.37008633"><ele>1515</ele><speed>13.25</speed><time>2016-06-21T15:30:31Z</time><pdop>3.0</pdop><geoidheight>54.00</geoidheight><course>327.2</course><type>1</type></trkpt>
      <trkpt lat="39.47315701" lon="-6.37016478"><ele>1512</ele><speed>12.75</speed><time>2016-06-21T15:30:32Z</time><pdop>3.0</pdop><geoidheight>54.00</geoidheight><course>328.3</course><type>1</type></trkpt>
      <trkpt lat="39.47336231" lon="-6.37033026"><ele>1505</ele><speed>13.75</speed><time>2016-06-21T15:30:34Z</time><pdop>3.0</pdop><geoidheight>54.00</geoidheight><course>327.8</course><type>1</type></trkpt>
      <trkpt lat="39.47347345" lon="-6.37042045"><ele>1501</ele><speed>14.50</speed><time>2016-06-21T15:30:35Z</time><pdop>3.0</pdop><geoidheight>54.00</geoidheight><course>327.4</course><type>1</type></trkpt>
      <trkpt lat="39.47358436" lon="-6.3705132"><ele>1497</ele><speed>14.50</speed><time>2016-06-21T15:30:36Z</time><pdop>3.0</pdop><geoidheight>54.00</geoidheight><course>328.3</course><type>1</type></trkpt>
      <trkpt lat="39.47379737" lon="-6.37067881"><ele>1492</ele><speed>13.75</speed><time>2016-06-21T15:30:38Z</time><pdop>3.0</pdop><geoidheight>54.00</geoidheight><course>329.8</course><type>1</type></trkpt>
      <trkpt lat="39.47389982" lon="-6.37075883"><ele>1489</ele><speed>13.75</speed><time>2016-06-21T15:30:39Z</time><pdop>3.0</pdop><geoidheight>54.00</geoidheight><course>329.2</course><type>1</type></trkpt>
      <trkpt lat="39.47410065" lon="-6.37093989"><ele>1484</ele><speed>14.00</speed><time>2016-06-21T15:30:41Z</time><pdop>3.0</pdop><geoidheight>54.00</geoidheight><course>324.0</course><type>1</type></trkpt>
      <trkpt lat="39.47420531" lon="-6.37103661"><ele>1480</ele><speed>14.25</speed><time>2016-06-21T15:30:42Z</time><pdop>4.0</pdop><geoidheight>54.00</geoidheight><course>323.2</course><type>1</type></trkpt>
      <trkpt lat="39.47431197" lon="-6.37113549"><ele>1477</ele><speed>14.25</speed><time>2016-06-21T15:30:43Z</time><pdop>3.0</pdop><geoidheight>54.00</geoidheight><course>324.1</course><type>1</type></trkpt>
      <trkpt lat="39.47452146" lon="-6.37133261"><ele>1471</ele><speed>14.25</speed><time>2016-06-21T15:30:45Z</time><pdop>3.0</pdop><geoidheight>54.00</geoidheight><course>324.2</course><type>1</type></trkpt>
      <trkpt lat="39.47462313" lon="-6.37144107"><ele>1468</ele><speed>14.50</speed><time>2016-06-21T15:30:46Z</time><pdop>3.0</pdop><geoidheight>54.00</geoidheight><course>320.8</course><type>1</type></trkpt>
      <trkpt lat="39.47472122" lon="-6.37155764"><ele>1466</ele><speed>14.50</speed><time>2016-06-21T15:30:47Z</time><pdop>4.0</pdop><geoidheight>54.00</geoidheight><course>317.7</course><type>1</type></trkpt>
      <trkpt lat="39.47492893" lon="-6.37176849"><ele>1460</ele><speed>14.25</speed><time>2016-06-21T15:30:49Z</time><pdop>3.0</pdop><geoidheight>54.00</geoidheight><course>322.8</course><type>1</type></trkpt>
      <trkpt lat="39.47503274" lon="-6.37185278"><ele>1457</ele><speed>13.75</speed><time>2016-06-21T15:30:50Z</time><pdop>3.0</pdop><geoidheight>54.00</geoidheight><course>326.5</course><type>1</type></trkpt>
      <trkpt lat="39.4751346" lon="-6.37193235"><ele>1454</ele><speed>13.25</speed><time>2016-06-21T15:30:51Z</time><pdop>4.0</pdop><geoidheight>54.00</geoidheight><course>328.5</course><type>1</type></trkpt>
      <trkpt lat="39.47533164" lon="-6.37210148"><ele>1450</ele><speed>13.25</speed><time>2016-06-21T15:30:53Z</time><pdop>4.0</pdop><geoidheight>54.00</geoidheight><course>325.7</course><type>1</type></trkpt>
      <trkpt lat="39.47543444" lon="-6.37218905"><ele>1446</ele><speed>13.50</speed><time>2016-06-21T15:30:54Z</time><pdop>4.0</pdop><geoidheight>54.00</geoidheight><course>325.8</course><type>1</type></trkpt>
      <trkpt lat="39.47553896" lon="-6.37227828"><ele>1442</ele><speed>13.75</speed><time>2016-06-21T15:30:55Z</time><pdop>3.0</pdop><geoidheight>54.00</geoidheight><course>326.2</course><type>1</type></trkpt>
      <trkpt lat="39.47575701" lon="-6.37245561"><ele>1435</ele><speed>14.25</speed><time>2016-06-21T15:30:57Z</time><pdop>3.0</pdop><geoidheight>54.00</geoidheight><course>328.4</course><type>1</type></trkpt>
      <trkpt lat="39.47586645" lon="-6.37253792"><ele>1432</ele><speed>14.50</speed><time>2016-06-21T15:30:58Z</time><pdop>3.0</pdop><geoidheight>54.00</geoidheight><course>329.7</course><type>1</type></trkpt>
      <trkpt lat="39.47597705" lon="-6.37261859"><ele>1430</ele><speed>14.00</speed><time>2016-06-21T15:30:59Z</time><pdop>3.0</pdop><geoidheight>54.00</geoidheight><course>330.3</course><type>1</type></trkpt>
      <trkpt lat="39.47618146" lon="-6.37277622"><ele>1427</ele><speed>13.25</speed><time>2016-06-21T15:31:01Z</time><pdop>5.0</pdop><geoidheight>54.00</geoidheight><course>329.4</course><type>1</type></trkpt>
      <trkpt lat="39.47626937" lon="-6.37285239"><ele>1425</ele><speed>12.75</speed><time>2016-06-21T15:31:02Z</time><pdop>5.0</pdop><geoidheight>54.00</geoidheight><course>328.1</course><type>1</type></trkpt>
      <trkpt lat="39.47647372" lon="-6.37300344"><ele>1418</ele><speed>13.50</speed><time>2016-06-21T15:31:04Z</time><pdop>3.0</pdop><geoidheight>54.00</geoidheight><course>331.1</course><type>1</type></trkpt>
      <trkpt lat="39.47658458" lon="-6.37308287"><ele>1415</ele><speed>13.75</speed><time>2016-06-21T15:31:05Z</time><pdop>3.0</pdop><geoidheight>54.00</geoidheight><course>330.6</course><type>1</type></trkpt>
      <trkpt lat="39.47677817" lon="-6.37324188"><ele>1411</ele><speed>12.75</speed><time>2016-06-21T15:31:07Z</time><pdop>3.0</pdop><geoidheight>54.00</geoidheight><course>327.6</course><type>1</type></trkpt>
      <trkpt lat="39.47686936" lon="-6.37331597"><ele>1409</ele><speed>12.00</speed><time>2016-06-21T15:31:08Z</time><pdop>3.0</pdop><geoidheight>54.00</geoidheight><course>328.3</course><type>1</type></trkpt>
      <trkpt lat="39.47705796" lon="-6.37345357"><ele>1404</ele><speed>12.00</speed><time>2016-06-21T15:31:10Z</time><pdop>5.0</pdop><geoidheight>54.00</geoidheight><course>330.0</course><type>1</type></trkpt>
      <trkpt lat="39.47716637" lon="-6.37351932"><ele>1401</ele><speed>13.00</speed><time>2016-06-21T15:31:11Z</time><pdop>4.0</pdop><geoidheight>54.00</geoidheight><course>333.4</course><type>1</type></trkpt>
      <trkpt lat="39.47727271" lon="-6.37358695"><ele>1399</ele><speed>13.00</speed><time>2016-06-21T15:31:12Z</time><pdop>3.0</pdop><geoidheight>54.00</geoidheight><course>333.4</course><type>1</type></trkpt>
      <trkpt lat="39.47746984" lon="-6.37371776"><ele>1396</ele><speed>12.00</speed><time>2016-06-21T15:31:14Z</time><pdop>4.0</pdop><geoidheight>54.00</geoidheight><course>331.8</course><type>1</type></trkpt>
      <trkpt lat="39.47756082" lon="-6.3737846"><ele>1396</ele><speed>11.50</speed><time>2016-06-21T15:31:15Z</time><pdop>4.0</pdop><geoidheight>54.00</geoidheight><course>330.3</course><type>1</type></trkpt>
      <trkpt lat="39.4776615" lon="-6.37385828"><ele>1392</ele><speed>12.25</speed><time>2016-06-21T15:31:16Z</time><pdop>3.0</pdop><geoidheight>54.00</geoidheight><course>330.5</course><type>1</type></trkpt>
      <trkpt lat="39.47786455" lon="-6.37400615"><ele>1386</ele><speed>12.75</speed><time>2016-06-21T15:31:18Z</time><pdop>4.0</pdop><geoidheight>54.00</geoidheight><course>331.3</course><type>1</type></trkpt>
      <trkpt lat="39.4779782" lon="-6.37407777"><ele>1384</ele><speed>13.50</speed><time>2016-06-21T15:31:19Z</time><pdop>3.0</pdop><geoidheight>54.00</geoidheight><course>332.9</course><type>1</type></trkpt>
      <trkpt lat="39.47807905" lon="-6.37415478"><ele>1383</ele><speed>13.00</speed><time>2016-06-21T15:31:20Z</time><pdop>3.0</pdop><geoidheight>54.00</geoidheight><course>329.6</course><type>1</type></trkpt>
      <trkpt lat="39.47816951" lon="-6.3742385"><ele>1382</ele><speed>12.50</speed><time>2016-06-21T15:31:21Z</time><pdop>3.0</pdop><geoidheight>54.00</geoidheight><course>323.9</course><type>1</type></trkpt>
      <trkpt lat="39.47825508" lon="-6.37433394"><ele>1381</ele><speed>12.75</speed><time>2016-06-21T15:31:22Z</time><pdop>4.0</pdop><geoidheight>54.00</geoidheight><course>319.7</course><type>1</type></trkpt>
      <trkpt lat="39.4783544" lon="-6.37442818"><ele>1378</ele><speed>13.25</speed><time>2016-06-21T15:31:23Z</time><pdop>3.0</pdop><geoidheight>54.00</geoidheight><course>322.2</course><type>1</type></trkpt>
      <trkpt lat="39.47845518" lon="-6.37451886"><ele>1375</ele><speed>13.75</speed><time>2016-06-21T15:31:24Z</time><pdop>3.0</pdop><geoidheight>54.00</geoidheight><course>326.1</course><type>1</type></trkpt>
      <trkpt lat="39.47867752" lon="-6.37468597"><ele>1371</ele><speed>14.25</speed><time>2016-06-21T15:31:26Z</time><pdop>3.0</pdop><geoidheight>54.00</geoidheight><course>328.9</course><type>1</type></trkpt>
      <trkpt lat="39.47877999" lon="-6.37477326"><ele>1371</ele><speed>13.75</speed><time>2016-06-21T15:31:27Z</time><pdop>4.0</pdop><geoidheight>54.00</geoidheight><course>326.7</course><type>1</type></trkpt>
      <trkpt lat="39.47896787" lon="-6.37495634"><ele>1366</ele><speed>13.00</speed><time>2016-06-21T15:31:29Z</time><pdop>3.0</pdop><geoidheight>54.00</geoidheight><course>323.0</course><type>1</type></trkpt>
      <trkpt lat="39.47917573" lon="-6.37513846"><ele>1359</ele><speed>14.00</speed><time>2016-06-21T15:31:31Z</time><pdop>3.0</pdop><geoidheight>54.00</geoidheight><course>327.3</course><type>1</type></trkpt>
      <trkpt lat="39.47928347" lon="-6.37522777"><ele>1357</ele><speed>14.00</speed><time>2016-06-21T15:31:32Z</time><pdop>3.0</pdop><geoidheight>54.00</geoidheight><course>327.7</course><type>1</type></trkpt>
      <trkpt lat="39.47938398" lon="-6.37531849"><ele>1356</ele><speed>14.00</speed><time>2016-06-21T15:31:33Z</time><pdop>4.0</pdop><geoidheight>54.00</geoidheight><course>325.5</course><type>1</type></trkpt>
      <trkpt lat="39.47948762" lon="-6.37541046"><ele>1354</ele><speed>14.00</speed><time>2016-06-21T15:31:34Z</time><pdop>6.0</pdop><geoidheight>54.00</geoidheight><course>325.5</course><type>1</type></trkpt>
      <trkpt lat="39.4796669" lon="-6.37559545"><ele>1352</ele><speed>12.75</speed><time>2016-06-21T15:31:36Z</time><pdop>4.0</pdop><geoidheight>54.00</geoidheight><course>324.4</course><type>1</type></trkpt>
      <trkpt lat="39.47976783" lon="-6.37568423"><ele>1349</ele><speed>13.00</speed><time>2016-06-21T15:31:37Z</time><pdop>3.0</pdop><geoidheight>54.00</geoidheight><course>326.9</course><type>1</type></trkpt>
      <trkpt lat="39.47997357" lon="-6.37586657"><ele>1345</ele><speed>14.00</speed><time>2016-06-21T15:31:39Z</time><pdop>3.0</pdop><geoidheight>54.00</geoidheight><course>325.9</course><type>1</type></trkpt>
      <trkpt lat="39.4800736" lon="-6.37596687"><ele>1344</ele><speed>14.00</speed><time>2016-06-21T15:31:40Z</time><pdop>3.0</pdop><geoidheight>54.00</geoidheight><course>322.7</course><type>1</type></trkpt>
      <trkpt lat="39.48016617" lon="-6.37606534"><ele>1343</ele><speed>13.50</speed><time>2016-06-21T15:31:41Z</time><pdop>4.0</pdop><geoidheight>54.00</geoidheight><course>321.7</course><type>1</type></trkpt>
      <trkpt lat="39.48035646" lon="-6.37624243"><ele>1341</ele><speed>13.00</speed><time>2016-06-21T15:31:43Z</time><pdop>3.0</pdop><geoidheight>54.00</geoidheight><course>324.8</course><type>1</type></trkpt>
      <trkpt lat="39.48045467" lon="-6.37633284"><ele>1339</ele><speed>13.25</speed><time>2016-06-21T15:31:44Z</time><pdop>3.0</pdop><geoidheight>54.00</geoidheight><course>325.2</course><type>1</type></trkpt>
      <trkpt lat="39.48055305" lon="-6.3764255"><ele>1338</ele><speed>13.50</speed><time>2016-06-21T15:31:45Z</time><pdop>4.0</pdop><geoidheight>54.00</geoidheight><course>323.4</course><type>1</type></trkpt>
      <trkpt lat="39.48074814" lon="-6.37662535"><ele>1335</ele><speed>13.50</speed><time>2016-06-21T15:31:47Z</time><pdop>4.0</pdop><geoidheight>54.00</geoidheight><course>320.7</course><type>1</type></trkpt>
      <trkpt lat="39.48084471" lon="-6.37672234"><ele>1333</ele><speed>13.50</speed><time>2016-06-21T15:31:48Z</time><pdop>4.0</pdop><geoidheight>54.00</geoidheight><course>321.9</course><type>1</type></trkpt>
      <trkpt lat="39.48104222" lon="-6.37690725"><ele>1330</ele><speed>13.50</speed><time>2016-06-21T15:31:50Z</time><pdop>5.0</pdop><geoidheight>54.00</geoidheight><course>323.4</course><type>1</type></trkpt>
      <trkpt lat="39.48114533" lon="-6.37701054"><ele>1327</ele><speed>14.00</speed><time>2016-06-21T15:31:51Z</time><pdop>3.0</pdop><geoidheight>54.00</geoidheight><course>322.0</course><type>1</type></trkpt>
      <trkpt lat="39.48124472" lon="-6.37711701"><ele>1326</ele><speed>14.50</speed><time>2016-06-21T15:31:52Z</time><pdop>3.0</pdop><geoidheight>54.00</geoidheight><course>320.7</course><type>1</type></trkpt>
      <trkpt lat="39.48134433" lon="-6.37722783"><ele>1324</ele><speed>14.50</speed><time>2016-06-21T15:31:53Z</time><pdop>4.0</pdop><geoidheight>54.00</geoidheight><course>320.2</course><type>1</type></trkpt>
      <trkpt lat="39.48144255" lon="-6.37733416"><ele>1324</ele><speed>14.25</speed><time>2016-06-21T15:31:54Z</time><pdop>4.0</pdop><geoidheight>54.00</geoidheight><course>320.1</course><type>1</type></trkpt>
      <trkpt lat="39.48153784" lon="-6.37743868"><ele>1323</ele><speed>14.00</speed><time>2016-06-21T15:31:55Z</time><pdop>4.0</pdop><geoidheight>54.00</geoidheight><course>320.1</course><type>1</type></trkpt>
      <trkpt lat="39.48173142" lon="-6.37764752"><ele>1320</ele><speed>14.00</speed><time>2016-06-21T15:31:57Z</time><pdop>4.0</pdop><geoidheight>54.00</geoidheight><course>319.4</course><type>1</type></trkpt>
      <trkpt lat="39.48182655" lon="-6.37775261"><ele>1319</ele><speed>14.00</speed><time>2016-06-21T15:31:58Z</time><pdop>6.0</pdop><geoidheight>54.00</geoidheight><course>319.4</course><type>1</type></trkpt>
      <trkpt lat="39.48192409" lon="-6.37785274"><ele>1317</ele><speed>14.00</speed><time>2016-06-21T15:31:59Z</time><pdop>3.0</pdop><geoidheight>54.00</geoidheight><course>321.0</course><type>1</type></trkpt>
      <trkpt lat="39.48212673" lon="-6.37804507"><ele>1313</ele><speed>14.00</speed><time>2016-06-21T15:32:01Z</time><pdop>3.0</pdop><geoidheight>54.00</geoidheight><course>323.5</course><type>1</type></trkpt>
      <trkpt lat="39.48233428" lon="-6.37823734"><ele>1310</ele><speed>13.75</speed><time>2016-06-21T15:32:03Z</time><pdop>4.0</pdop><geoidheight>54.00</geoidheight><course>324.0</course><type>1</type></trkpt>
      <trkpt lat="39.48243412" lon="-6.37833026"><ele>1309</ele><speed>13.75</speed><time>2016-06-21T15:32:04Z</time><pdop>4.0</pdop><geoidheight>54.00</geoidheight><course>324.5</course><type>1</type></trkpt>
      <trkpt lat="39.48254019" lon="-6.37841831"><ele>1306</ele><speed>14.00</speed><time>2016-06-21T15:32:05Z</time><pdop>3.0</pdop><geoidheight>54.00</geoidheight><course>326.2</course><type>1</type></trkpt>
      <trkpt lat="39.48276209" lon="-6.37858611"><ele>1356</ele><speed>14.50</speed><time>2016-06-21T15:32:07Z</time><pdop>3.0</pdop><geoidheight>54.00</geoidheight><course>329.2</course><type>1</type></trkpt>
      <trkpt lat="39.48287321" lon="-6.37866565"><ele>1335</ele><speed>14.25</speed><time>2016-06-21T15:32:08Z</time><pdop>3.0</pdop><geoidheight>54.00</geoidheight><course>330.4</course><type>1</type></trkpt>
      <trkpt lat="39.48297962" lon="-6.37874485"><ele>1325</ele><speed>14.00</speed><time>2016-06-21T15:32:09Z</time><pdop>3.0</pdop><geoidheight>54.00</geoidheight><course>330.4</course><type>1</type></trkpt>
      <trkpt lat="39.48308424" lon="-6.37882626"><ele>1322</ele><speed>13.50</speed><time>2016-06-21T15:32:10Z</time><pdop>3.0</pdop><geoidheight>54.00</geoidheight><course>329.0</course><type>1</type></trkpt>
      <trkpt lat="39.48328307" lon="-6.3790094"><ele>1311</ele><speed>13.75</speed><time>2016-06-21T15:32:12Z</time><pdop>3.0</pdop><geoidheight>54.00</geoidheight><course>325.5</course><type>1</type></trkpt>
      <trkpt lat="39.483496099999996" lon="-6.37920456"><ele>1298</ele><speed>14.25</speed><time>2016-06-21T15:32:14Z</time><pdop>3.0</pdop><geoidheight>54.00</geoidheight><course>325.0</course><type>1</type></trkpt>
      <trkpt lat="39.48360088" lon="-6.37930146"><ele>1295</ele><speed>14.25</speed><time>2016-06-21T15:32:15Z</time><pdop>4.0</pdop><geoidheight>54.00</geoidheight><course>324.7</course><type>1</type></trkpt>
      <trkpt lat="39.48370501" lon="-6.37939599"><ele>1293</ele><speed>14.00</speed><time>2016-06-21T15:32:16Z</time><pdop>3.0</pdop><geoidheight>54.00</geoidheight><course>324.0</course><type>1</type></trkpt>
      <trkpt lat="39.48389711" lon="-6.3795765"><ele>1289</ele><speed>13.00</speed><time>2016-06-21T15:32:18Z</time><pdop>4.0</pdop><geoidheight>54.00</geoidheight><course>323.9</course><type>1</type></trkpt>
      <trkpt lat="39.48399438" lon="-6.37966881"><ele>1287</ele><speed>13.50</speed><time>2016-06-21T15:32:19Z</time><pdop>3.0</pdop><geoidheight>54.00</geoidheight><course>323.5</course><type>1</type></trkpt>
      <trkpt lat="39.48410149" lon="-6.37976639"><ele>1284</ele><speed>14.25</speed><time>2016-06-21T15:32:20Z</time><pdop>3.0</pdop><geoidheight>54.00</geoidheight><course>323.9</course><type>1</type></trkpt>
      <trkpt lat="39.48431392" lon="-6.37996719"><ele>1280</ele><speed>14.50</speed><time>2016-06-21T15:32:22Z</time><pdop>4.0</pdop><geoidheight>54.00</geoidheight><course>323.7</course><type>1</type></trkpt>
      <trkpt lat="39.48441929" lon="-6.38006713"><ele>1280</ele><speed>14.50</speed><time>2016-06-21T15:32:23Z</time><pdop>5.0</pdop><geoidheight>54.00</geoidheight><course>323.7</course><type>1</type></trkpt>
      <trkpt lat="39.48461445" lon="-6.38024514"><ele>1277</ele><speed>13.50</speed><time>2016-06-21T15:32:25Z</time><pdop>3.0</pdop><geoidheight>54.00</geoidheight><course>324.9</course><type>1</type></trkpt>
      <trkpt lat="39.48471361" lon="-6.38034015"><ele>1275</ele><speed>13.75</speed><time>2016-06-21T15:32:26Z</time><pdop>4.0</pdop><geoidheight>54.00</geoidheight><course>323.7</course><type>1</type></trkpt>
      <trkpt lat="39.48492991" lon="-6.38054219"><ele>1271</ele><speed>14.75</speed><time>2016-06-21T15:32:28Z</time><pdop>3.0</pdop><geoidheight>54.00</geoidheight><course>323.6</course><type>1</type></trkpt>
      <trkpt lat="39.48514109" lon="-6.3807321"><ele>1270</ele><speed>14.25</speed><time>2016-06-21T15:32:30Z</time><pdop>4.0</pdop><geoidheight>54.00</geoidheight><course>325.2</course><type>1</type></trkpt>
      <trkpt lat="39.4852458" lon="-6.38082606"><ele>1270</ele><speed>14.25</speed><time>2016-06-21T15:32:31Z</time><pdop>5.0</pdop><geoidheight>54.00</geoidheight><course>325.2</course><type>1</type></trkpt>
      <trkpt lat="39.48543753" lon="-6.38101153"><ele>1268</ele><speed>13.50</speed><time>2016-06-21T15:32:33Z</time><pdop>3.0</pdop><geoidheight>54.00</geoidheight><course>323.8</course><type>1</type></trkpt>
      <trkpt lat="39.48563932" lon="-6.3811905"><ele>1287</ele><speed>14.00</speed><time>2016-06-21T15:32:35Z</time><pdop>3.0</pdop><geoidheight>54.00</geoidheight><course>326.7</course><type>1</type></trkpt>
      <trkpt lat="39.48574474" lon="-6.38127527"><ele>1278</ele><speed>14.00</speed><time>2016-06-21T15:32:36Z</time><pdop>3.0</pdop><geoidheight>54.00</geoidheight><course>328.9</course><type>1</type></trkpt>
      <trkpt lat="39.48585198" lon="-6.38134956"><ele>1273</ele><speed>13.75</speed><time>2016-06-21T15:32:37Z</time><pdop>3.0</pdop><geoidheight>54.00</geoidheight><course>331.2</course><type>1</type></trkpt>
      <trkpt lat="39.48596228" lon="-6.38142468"><ele>1278</ele><speed>13.50</speed><time>2016-06-21T15:32:38Z</time><pdop>4.0</pdop><geoidheight>54.00</geoidheight><course>331.6</course><type>1</type></trkpt>
      <trkpt lat="39.48616777" lon="-6.38157423"><ele>1270</ele><speed>13.25</speed><time>2016-06-21T15:32:40Z</time><pdop>5.0</pdop><geoidheight>54.00</geoidheight><course>331.3</course><type>1</type></trkpt>
      <trkpt lat="39.48626883" lon="-6.38165029"><ele>1263</ele><speed>13.25</speed><time>2016-06-21T15:32:41Z</time><pdop>3.0</pdop><geoidheight>54.00</geoidheight><course>330.1</course><type>1</type></trkpt>
      <trkpt lat="39.48649016" lon="-6.38180931"><ele>1258</ele><speed>14.00</speed><time>2016-06-21T15:32:43Z</time><pdop>3.0</pdop><geoidheight>54.00</geoidheight><course>330.2</course><type>1</type></trkpt>
      <trkpt lat="39.48659974" lon="-6.38189003"><ele>1257</ele><speed>14.00</speed><time>2016-06-21T15:32:44Z</time><pdop>4.0</pdop><geoidheight>54.00</geoidheight><course>330.1</course><type>1</type></trkpt>
      <trkpt lat="39.48671107" lon="-6.38197275"><ele>1255</ele><speed>14.25</speed><time>2016-06-21T15:32:45Z</time><pdop>3.0</pdop><geoidheight>54.00</geoidheight><course>329.6</course><type>1</type></trkpt>
      <trkpt lat="39.48682263" lon="-6.38205594"><ele>1262</ele><speed>14.25</speed><time>2016-06-21T15:32:46Z</time><pdop>4.0</pdop><geoidheight>54.00</geoidheight><course>329.6</course><type>1</type></trkpt>
      <trkpt lat="39.48705092" lon="-6.38221786"><ele>1254</ele><speed>14.50</speed><time>2016-06-21T15:32:48Z</time><pdop>3.0</pdop><geoidheight>54.00</geoidheight><course>331.9</course><type>1</type></trkpt>
      <trkpt lat="39.48716541" lon="-6.38229639"><ele>1252</ele><speed>14.25</speed><time>2016-06-21T15:32:49Z</time><pdop>4.0</pdop><geoidheight>54.00</geoidheight><course>332.2</course><type>1</type></trkpt>
      <trkpt lat="39.48727836" lon="-6.38237435"><ele>1250</ele><speed>14.25</speed><time>2016-06-21T15:32:50Z</time><pdop>4.0</pdop><geoidheight>54.00</geoidheight><course>330.8</course><type>1</type></trkpt>
      <trkpt lat="39.48738595" lon="-6.38246235"><ele>1248</ele><speed>14.00</speed><time>2016-06-21T15:32:51Z</time><pdop>4.0</pdop><geoidheight>54.00</geoidheight><course>328.9</course><type>1</type></trkpt>
      <trkpt lat="39.48749418" lon="-6.38254688"><ele>1246</ele><speed>14.00</speed><time>2016-06-21T15:32:52Z</time><pdop>3.0</pdop><geoidheight>54.00</geoidheight><course>328.5</course><type>1</type></trkpt>
      <trkpt lat="39.48772086" lon="-6.38271685"><ele>1242</ele><speed>14.25</speed><time>2016-06-21T15:32:54Z</time><pdop>4.0</pdop><geoidheight>54.00</geoidheight><course>329.8</course><type>1</type></trkpt>
      <trkpt lat="39.48784762" lon="-6.38279114"><ele>1240</ele><speed>14.50</speed><time>2016-06-21T15:32:55Z</time><pdop>4.0</pdop><geoidheight>54.00</geoidheight><course>334.0</course><type>1</type></trkpt>
      <trkpt lat="39.48795936" lon="-6.38285326"><ele>1239</ele><speed>13.75</speed><time>2016-06-21T15:32:56Z</time><pdop>4.0</pdop><geoidheight>54.00</geoidheight><course>335.5</course><type>1</type></trkpt>
      <trkpt lat="39.48817248" lon="-6.38297955"><ele>1238</ele><speed>13.00</speed><time>2016-06-21T15:32:58Z</time><pdop>3.0</pdop><geoidheight>54.00</geoidheight><course>335.1</course><type>1</type></trkpt>
      <trkpt lat="39.48827311" lon="-6.38304579"><ele>1237</ele><speed>12.50</speed><time>2016-06-21T15:32:59Z</time><pdop>4.0</pdop><geoidheight>54.00</geoidheight><course>333.9</course><type>1</type></trkpt>
      <trkpt lat="39.48837662" lon="-6.38311689"><ele>1235</ele><speed>12.75</speed><time>2016-06-21T15:33:00Z</time><pdop>3.0</pdop><geoidheight>54.00</geoidheight><course>332.6</course><type>1</type></trkpt>
      <trkpt lat="39.48848444" lon="-6.38318902"><ele>1232</ele><speed>13.25</speed><time>2016-06-21T15:33:01Z</time><pdop>3.0</pdop><geoidheight>54.00</geoidheight><course>332.2</course><type>1</type></trkpt>
      <trkpt lat="39.48871232" lon="-6.38334506"><ele>1225</ele><speed>14.25</speed><time>2016-06-21T15:33:03Z</time><pdop>5.0</pdop><geoidheight>54.00</geoidheight><course>332.3</course><type>1</type></trkpt>
      <trkpt lat="39.48896797" lon="-6.38345137"><ele>1223</ele><speed>14.50</speed><time>2016-06-21T15:33:05Z</time><pdop>4.0</pdop><geoidheight>54.00</geoidheight><course>339.3</course><type>1</type></trkpt>
      <trkpt lat="39.48908058" lon="-6.38352198"><ele>1222</ele><speed>13.75</speed><time>2016-06-21T15:33:06Z</time><pdop>4.0</pdop><geoidheight>54.00</geoidheight><course>335.9</course><type>1</type></trkpt>
      <trkpt lat="39.48929611" lon="-6.3836737"><ele>1220</ele><speed>13.75</speed><time>2016-06-21T15:33:08Z</time><pdop>4.0</pdop><geoidheight>54.00</geoidheight><course>332.4</course><type>1</type></trkpt>
      <trkpt lat="39.48940657" lon="-6.38374273"><ele>1219</ele><speed>13.75</speed><time>2016-06-21T15:33:09Z</time><pdop>4.0</pdop><geoidheight>54.00</geoidheight><course>333.0</course><type>1</type></trkpt>
      <trkpt lat="39.48961831" lon="-6.38389421"><ele>1219</ele><speed>13.25</speed><time>2016-06-21T15:33:11Z</time><pdop>5.0</pdop><geoidheight>54.00</geoidheight><course>331.5</course><type>1</type></trkpt>
      <trkpt lat="39.4896906" lon="-6.38397543"><ele>1215</ele><speed>11.50</speed><time>2016-06-21T15:33:12Z</time><pdop>3.0</pdop><geoidheight>54.00</geoidheight><course>324.5</course><type>1</type></trkpt>
      <trkpt lat="39.48977993" lon="-6.38404476"><ele>1213</ele><speed>11.25</speed><time>2016-06-21T15:33:13Z</time><pdop>4.0</pdop><geoidheight>54.00</geoidheight><course>328.3</course><type>1</type></trkpt>
      <trkpt lat="39.48998952" lon="-6.38417775"><ele>1216</ele><speed>13.75</speed><time>2016-06-21T15:33:15Z</time><pdop>3.0</pdop><geoidheight>54.00</geoidheight><course>334.5</course><type>1</type></trkpt>
      <trkpt lat="39.49011102" lon="-6.38424883"><ele>1211</ele><speed>14.75</speed><time>2016-06-21T15:33:16Z</time><pdop>3.0</pdop><geoidheight>54.00</geoidheight><course>335.2</course><type>1</type></trkpt>
      <trkpt lat="39.49033446" lon="-6.38440645"><ele>1206</ele><speed>14.00</speed><time>2016-06-21T15:33:18Z</time><pdop>3.0</pdop><geoidheight>54.00</geoidheight><course>330.6</course><type>1</type></trkpt>
      <trkpt lat="39.49044405" lon="-6.38448153"><ele>1204</ele><speed>13.50</speed><time>2016-06-21T15:33:19Z</time><pdop>4.0</pdop><geoidheight>54.00</geoidheight><course>330.5</course><type>1</type></trkpt>
      <trkpt lat="39.49055704" lon="-6.38456069"><ele>1201</ele><speed>14.00</speed><time>2016-06-21T15:33:20Z</time><pdop>3.0</pdop><geoidheight>54.00</geoidheight><course>331.6</course><type>1</type></trkpt>
      <trkpt lat="39.49080833" lon="-6.38469832"><ele>1195</ele><speed>15.25</speed><time>2016-06-21T15:33:22Z</time><pdop>4.0</pdop><geoidheight>54.00</geoidheight><course>336.6</course><type>1</type></trkpt>
      <trkpt lat="39.49093398" lon="-6.38476845"><ele>1193</ele><speed>15.25</speed><time>2016-06-21T15:33:23Z</time><pdop>6.0</pdop><geoidheight>54.00</geoidheight><course>336.6</course><type>1</type></trkpt>
      <trkpt lat="39.4910445" lon="-6.38484613"><ele>1192</ele><speed>14.50</speed><time>2016-06-21T15:33:24Z</time><pdop>4.0</pdop><geoidheight>54.00</geoidheight><course>332.6</course><type>1</type></trkpt>
      <trkpt lat="39.4911558" lon="-6.3849254"><ele>1192</ele><speed>14.00</speed><time>2016-06-21T15:33:25Z</time><pdop>4.0</pdop><geoidheight>54.00</geoidheight><course>331.6</course><type>1</type></trkpt>
      <trkpt lat="39.4913882" lon="-6.38507556"><ele>1188</ele><speed>14.50</speed><time>2016-06-21T15:33:27Z</time><pdop>3.0</pdop><geoidheight>54.00</geoidheight><course>333.5</course><type>1</type></trkpt>
      <trkpt lat="39.49150686" lon="-6.38515203"><ele>1186</ele><speed>14.75</speed><time>2016-06-21T15:33:28Z</time><pdop>3.0</pdop><geoidheight>54.00</geoidheight><course>334.3</course><type>1</type></trkpt>
      <trkpt lat="39.49163471" lon="-6.38522915"><ele>1184</ele><speed>15.50</speed><time>2016-06-21T15:33:29Z</time><pdop>4.0</pdop><geoidheight>54.00</geoidheight><course>334.3</course><type>1</type></trkpt>
      <trkpt lat="39.49190344" lon="-6.38540166"><ele>1183</ele><speed>16.50</speed><time>2016-06-21T15:33:31Z</time><pdop>3.0</pdop><geoidheight>54.00</geoidheight><course>332.6</course><type>1</type></trkpt>
      <trkpt lat="39.49202478" lon="-6.38549117"><ele>1183</ele><speed>15.75</speed><time>2016-06-21T15:33:32Z</time><pdop>3.0</pdop><geoidheight>54.00</geoidheight><course>330.5</course><type>1</type></trkpt>
      <trkpt lat="39.49213182" lon="-6.38557504"><ele>1184</ele><speed>14.25</speed><time>2016-06-21T15:33:33Z</time><pdop>4.0</pdop><geoidheight>54.00</geoidheight><course>328.6</course><type>1</type></trkpt>
      <trkpt lat="39.49232096" lon="-6.38571032"><ele>1186</ele><speed>11.75</speed><time>2016-06-21T15:33:35Z</time><pdop>3.0</pdop><geoidheight>54.00</geoidheight><course>333.6</course><type>1</type></trkpt>
      <trkpt lat="39.49241278" lon="-6.38576222"><ele>1188</ele><speed>11.50</speed><time>2016-06-21T15:33:36Z</time><pdop>3.0</pdop><geoidheight>54.00</geoidheight><course>336.0</course><type>1</type></trkpt>
      <trkpt lat="39.49260597" lon="-6.38584427"><ele>1193</ele><speed>10.75</speed><time>2016-06-21T15:33:38Z</time><pdop>3.0</pdop><geoidheight>54.00</geoidheight><course>343.6</course><type>1</type></trkpt>
      <trkpt lat="39.49268321" lon="-6.38585275"><ele>1195</ele><speed>8.75</speed><time>2016-06-21T15:33:39Z</time><pdop>3.0</pdop><geoidheight>54.00</geoidheight><course>353.4</course><type>1</type></trkpt>
      <trkpt lat="39.49279275" lon="-6.38579668"><ele>1195</ele><speed>6.75</speed><time>2016-06-21T15:33:41Z</time><pdop>4.0</pdop><geoidheight>54.00</geoidheight><course>26.1</course><type>1</type></trkpt>
      <trkpt lat="39.49276549" lon="-6.38566539"><ele>1199</ele><speed>5.25</speed><time>2016-06-21T15:33:43Z</time><pdop>3.0</pdop><geoidheight>54.00</geoidheight><course>101.8</course><type>1</type></trkpt>
      <trkpt lat="39.49270681" lon="-6.38559656"><ele>1206</ele><speed>4.00</speed><time>2016-06-21T15:33:45Z</time><pdop>4.0</pdop><geoidheight>54.00</geoidheight><course>148.0</course><type>1</type></trkpt>
      <trkpt lat="39.4926286" lon="-6.38556664"><ele>1205</ele><speed>4.50</speed><time>2016-06-21T15:33:47Z</time><pdop>4.0</pdop><geoidheight>54.00</geoidheight><course>163.5</course><type>1</type></trkpt>
      <trkpt lat="39.49247076" lon="-6.3856056"><ele>1205</ele><speed>6.50</speed><time>2016-06-21T15:33:50Z</time><pdop>6.0</pdop><geoidheight>54.00</geoidheight><course>194.9</course><type>1</type></trkpt>
      <trkpt lat="39.49237944" lon="-6.38586065"><ele>1203</ele><speed>11.25</speed><time>2016-06-21T15:33:52Z</time><pdop>3.0</pdop><geoidheight>54.00</geoidheight><course>251.6</course><type>1</type></trkpt>
      <trkpt lat="39.49234724" lon="-6.38598539"><ele>1203</ele><speed>11.25</speed><time>2016-06-21T15:33:53Z</time><pdop>5.0</pdop><geoidheight>54.00</geoidheight><course>251.6</course><type>1</type></trkpt>
      <trkpt lat="39.49241885" lon="-6.38618012"><ele>1204</ele><speed>14.00</speed><time>2016-06-21T15:33:54Z</time><pdop>4.0</pdop><geoidheight>54.00</geoidheight><course>285.4</course><type>1</type></trkpt>
      <trkpt lat="39.49259091" lon="-6.38641516"><ele>1205</ele><speed>13.75</speed><time>2016-06-21T15:33:56Z</time><pdop>3.0</pdop><geoidheight>54.00</geoidheight><course>319.1</course><type>1</type></trkpt>
      <trkpt lat="39.49279854" lon="-6.38653084"><ele>1206</ele><speed>12.25</speed><time>2016-06-21T15:33:58Z</time><pdop>3.0</pdop><geoidheight>54.00</geoidheight><course>341.4</course><type>1</type></trkpt>
      <trkpt lat="39.49290491" lon="-6.38654669"><ele>1206</ele><speed>12.00</speed><time>2016-06-21T15:33:59Z</time><pdop>3.0</pdop><geoidheight>54.00</geoidheight><course>351.2</course><type>1</type></trkpt>
      <trkpt lat="39.49311894" lon="-6.38653173"><ele>1206</ele><speed>12.00</speed><time>2016-06-21T15:34:01Z</time><pdop>5.0</pdop><geoidheight>54.00</geoidheight><course>2.0</course><type>1</type></trkpt>
      <trkpt lat="39.49318735" lon="-6.38644706"><ele>1207</ele><speed>9.75</speed><time>2016-06-21T15:34:02Z</time><pdop>3.0</pdop><geoidheight>54.00</geoidheight><course>27.9</course><type>1</type></trkpt>
      <trkpt lat="39.49323133" lon="-6.38638039"><ele>1208</ele><speed>7.75</speed><time>2016-06-21T15:34:03Z</time><pdop>3.0</pdop><geoidheight>54.00</geoidheight><course>44.4</course><type>1</type></trkpt>
      <trkpt lat="39.49326679" lon="-6.38626261"><ele>1211</ele><speed>5.00</speed><time>2016-06-21T15:34:05Z</time><pdop>3.0</pdop><geoidheight>54.00</geoidheight><course>71.9</course><type>1</type></trkpt>
      <trkpt lat="39.49327106" lon="-6.38618162"><ele>1213</ele><speed>3.00</speed><time>2016-06-21T15:34:07Z</time><pdop>3.0</pdop><geoidheight>54.00</geoidheight><course>93.9</course><type>1</type></trkpt>
      <trkpt lat="39.49324347" lon="-6.38610525"><ele>1212</ele><speed>4.00</speed><time>2016-06-21T15:34:09Z</time><pdop>3.0</pdop><geoidheight>54.00</geoidheight><course>119.8</course><type>1</type></trkpt>
      <trkpt lat="39.4931719" lon="-6.38605956"><ele>1210</ele><speed>5.00</speed><time>2016-06-21T15:34:11Z</time><pdop>3.0</pdop><geoidheight>54.00</geoidheight><course>165.6</course><type>1</type></trkpt>
      <trkpt lat="39.49311308" lon="-6.38607677"><ele>1210</ele><speed>6.50</speed><time>2016-06-21T15:34:12Z</time><pdop>3.0</pdop><geoidheight>54.00</geoidheight><course>190.4</course><type>1</type></trkpt>
      <trkpt lat="39.49298991" lon="-6.3861891"><ele>1208</ele><speed>8.75</speed><time>2016-06-21T15:34:14Z</time><pdop>3.0</pdop><geoidheight>54.00</geoidheight><course>219.2</course><type>1</type></trkpt>
      <trkpt lat="39.49294303" lon="-6.38627882"><ele>1207</ele><speed>9.00</speed><time>2016-06-21T15:34:15Z</time><pdop>3.0</pdop><geoidheight>54.00</geoidheight><course>233.4</course><type>1</type></trkpt>
      <trkpt lat="39.4929137" lon="-6.38638891"><ele>1206</ele><speed>9.75</speed><time>2016-06-21T15:34:16Z</time><pdop>3.0</pdop><geoidheight>54.00</geoidheight><course>249.3</course><type>1</type></trkpt>
      <trkpt lat="39.49290963" lon="-6.38665925"><ele>1202</ele><speed>12.00</speed><time>2016-06-21T15:34:18Z</time><pdop>3.0</pdop><geoidheight>54.00</geoidheight><course>272.3</course><type>1</type></trkpt>
      <trkpt lat="39.49293929" lon="-6.38680834"><ele>1200</ele><speed>13.00</speed><time>2016-06-21T15:34:19Z</time><pdop>3.0</pdop><geoidheight>54.00</geoidheight><course>283.0</course><type>1</type></trkpt>
      <trkpt lat="39.49309079" lon="-6.38708243"><ele>1196</ele><speed>15.00</speed><time>2016-06-21T15:34:21Z</time><pdop>3.0</pdop><geoidheight>54.00</geoidheight><course>312.1</course><type>1</type></trkpt>
      <trkpt lat="39.49320493" lon="-6.38718812"><ele>1196</ele><speed>15.50</speed><time>2016-06-21T15:34:22Z</time><pdop>4.0</pdop><geoidheight>54.00</geoidheight><course>322.8</course><type>1</type></trkpt>
      <trkpt lat="39.49334297" lon="-6.38723779"><ele>1194</ele><speed>15.25</speed><time>2016-06-21T15:34:23Z</time><pdop>4.0</pdop><geoidheight>54.00</geoidheight><course>339.0</course><type>1</type></trkpt>
      <trkpt lat="39.49359726" lon="-6.38732708"><ele>1195</ele><speed>14.50</speed><time>2016-06-21T15:34:25Z</time><pdop>5.0</pdop><geoidheight>54.00</geoidheight><course>344.4</course><type>1</type></trkpt>
      <trkpt lat="39.49370716" lon="-6.38736726"><ele>1195</ele><speed>13.75</speed><time>2016-06-21T15:34:26Z</time><pdop>3.0</pdop><geoidheight>54.00</geoidheight><course>342.3</course><type>1</type></trkpt>
      <trkpt lat="39.49393121" lon="-6.38747244"><ele>1197</ele><speed>13.00</speed><time>2016-06-21T15:34:28Z</time><pdop>3.0</pdop><geoidheight>54.00</geoidheight><course>338.2</course><type>1</type></trkpt>
      <trkpt lat="39.49416434" lon="-6.38759793"><ele>1197</ele><speed>14.25</speed><time>2016-06-21T15:34:30Z</time><pdop>4.0</pdop><geoidheight>54.00</geoidheight><course>337.2</course><type>1</type></trkpt>
      <trkpt lat="39.49428462" lon="-6.38766767"><ele>1196</ele><speed>14.50</speed><time>2016-06-21T15:34:31Z</time><pdop>3.0</pdop><geoidheight>54.00</geoidheight><course>336.6</course><type>1</type></trkpt>
      <trkpt lat="39.49440214" lon="-6.38773515"><ele>1197</ele><speed>14.50</speed><time>2016-06-21T15:34:32Z</time><pdop>4.0</pdop><geoidheight>54.00</geoidheight><course>336.6</course><type>1</type></trkpt>
      <trkpt lat="39.49463482" lon="-6.38785839"><ele>1199</ele><speed>13.75</speed><time>2016-06-21T15:34:34Z</time><pdop>3.0</pdop><geoidheight>54.00</geoidheight><course>336.5</course><type>1</type></trkpt>
      <trkpt lat="39.4947442" lon="-6.38791881"><ele>1201</ele><speed>13.25</speed><time>2016-06-21T15:34:35Z</time><pdop>3.0</pdop><geoidheight>54.00</geoidheight><course>335.3</course><type>1</type></trkpt>
      <trkpt lat="39.49484603" lon="-6.38798521"><ele>1202</ele><speed>13.00</speed><time>2016-06-21T15:34:36Z</time><pdop>3.0</pdop><geoidheight>54.00</geoidheight><course>333.3</course><type>1</type></trkpt>
      <trkpt lat="39.49494809" lon="-6.38805372"><ele>1204</ele><speed>13.00</speed><time>2016-06-21T15:34:37Z</time><pdop>3.0</pdop><geoidheight>54.00</geoidheight><course>331.3</course><type>1</type></trkpt>
      <trkpt lat="39.49514008" lon="-6.38820396"><ele>1207</ele><speed>12.75</speed><time>2016-06-21T15:34:39Z</time><pdop>4.0</pdop><geoidheight>54.00</geoidheight><course>329.6</course><type>1</type></trkpt>
      <trkpt lat="39.49521587" lon="-6.38825173"><ele>1208</ele><speed>10.75</speed><time>2016-06-21T15:34:40Z</time><pdop>4.0</pdop><geoidheight>54.00</geoidheight><course>333.8</course><type>1</type></trkpt>
      <trkpt lat="39.49539214" lon="-6.38828941"><ele>1207</ele><speed>10.00</speed><time>2016-06-21T15:34:42Z</time><pdop>3.0</pdop><geoidheight>54.00</geoidheight><course>354.6</course><type>1</type></trkpt>
      <trkpt lat="39.49548048" lon="-6.38827245"><ele>1207</ele><speed>10.00</speed><time>2016-06-21T15:34:43Z</time><pdop>3.0</pdop><geoidheight>54.00</geoidheight><course>6.7</course><type>1</type></trkpt>
      <trkpt lat="39.49559267" lon="-6.38814045"><ele>1205</ele><speed>8.00</speed><time>2016-06-21T15:34:45Z</time><pdop>3.0</pdop><geoidheight>54.00</geoidheight><course>54.9</course><type>1</type></trkpt>
      <trkpt lat="39.49559349" lon="-6.38795124"><ele>1205</ele><speed>8.50</speed><time>2016-06-21T15:34:47Z</time><pdop>4.0</pdop><geoidheight>54.00</geoidheight><course>90.8</course><type>1</type></trkpt>
      <trkpt lat="39.49545643" lon="-6.38791583"><ele>1207</ele><speed>4.75</speed><time>2016-06-21T15:34:50Z</time><pdop>3.0</pdop><geoidheight>54.00</geoidheight><course>181.4</course><type>1</type></trkpt>
      <trkpt lat="39.49535054" lon="-6.38794058"><ele>1208</ele><speed>6.00</speed><time>2016-06-21T15:34:52Z</time><pdop>3.0</pdop><geoidheight>54.00</geoidheight><course>189.9</course><type>1</type></trkpt>
      <trkpt lat="39.49523341" lon="-6.38802109"><ele>1207</ele><speed>7.75</speed><time>2016-06-21T15:34:54Z</time><pdop>3.0</pdop><geoidheight>54.00</geoidheight><course>211.3</course><type>1</type></trkpt>
      <trkpt lat="39.49518015" lon="-6.38809883"><ele>1207</ele><speed>8.50</speed><time>2016-06-21T15:34:55Z</time><pdop>3.0</pdop><geoidheight>54.00</geoidheight><course>226.6</course><type>1</type></trkpt>
      <trkpt lat="39.49513589" lon="-6.38819907"><ele>1207</ele><speed>9.75</speed><time>2016-06-21T15:34:56Z</time><pdop>3.0</pdop><geoidheight>54.00</geoidheight><course>238.8</course><type>1</type></trkpt>
      <trkpt lat="39.495102609999996" lon="-6.38846314"><ele>1206</ele><speed>11.75</speed><time>2016-06-21T15:34:58Z</time><pdop>3.0</pdop><geoidheight>54.00</geoidheight><course>266.1</course><type>1</type></trkpt>
      <trkpt lat="39.49511298" lon="-6.38860142"><ele>1206</ele><speed>12.00</speed><time>2016-06-21T15:34:59Z</time><pdop>4.0</pdop><geoidheight>54.00</geoidheight><course>274.2</course><type>1</type></trkpt>
      <trkpt lat="39.49514848" lon="-6.3887478"><ele>1206</ele><speed>13.00</speed><time>2016-06-21T15:35:00Z</time><pdop>4.0</pdop><geoidheight>54.00</geoidheight><course>283.7</course><type>1</type></trkpt>
      <trkpt lat="39.4952159" lon="-6.38887962"><ele>1206</ele><speed>13.00</speed><time>2016-06-21T15:35:01Z</time><pdop>5.0</pdop><geoidheight>54.00</geoidheight><course>296.1</course><type>1</type></trkpt>
      <trkpt lat="39.4954546" lon="-6.38897181"><ele>1206</ele><speed>13.00</speed><time>2016-06-21T15:35:03Z</time><pdop>3.0</pdop><geoidheight>54.00</geoidheight><course>340.7</course><type>1</type></trkpt>
      <trkpt lat="39.495567" lon="-6.38898357"><ele>1206</ele><speed>12.25</speed><time>2016-06-21T15:35:04Z</time><pdop>3.0</pdop><geoidheight>54.00</geoidheight><course>354.1</course><type>1</type></trkpt>
      <trkpt lat="39.49576856" lon="-6.38896392"><ele>1208</ele><speed>10.75</speed><time>2016-06-21T15:35:06Z</time><pdop>3.0</pdop><geoidheight>54.00</geoidheight><course>6.6</course><type>1</type></trkpt>
      <trkpt lat="39.49586502" lon="-6.3889464"><ele>1210</ele><speed>10.50</speed><time>2016-06-21T15:35:07Z</time><pdop>3.0</pdop><geoidheight>54.00</geoidheight><course>6.7</course><type>1</type></trkpt>
      <trkpt lat="39.49596645" lon="-6.38893174"><ele>1210</ele><speed>10.50</speed><time>2016-06-21T15:35:08Z</time><pdop>3.0</pdop><geoidheight>54.00</geoidheight><course>7.2</course><type>1</type></trkpt>
      <trkpt lat="39.49614331" lon="-6.38887053"><ele>1211</ele><speed>9.75</speed><time>2016-06-21T15:35:10Z</time><pdop>3.0</pdop><geoidheight>54.00</geoidheight><course>17.1</course><type>1</type></trkpt>
      <trkpt lat="39.49621146" lon="-6.38883082"><ele>1212</ele><speed>8.75</speed><time>2016-06-21T15:35:11Z</time><pdop>3.0</pdop><geoidheight>54.00</geoidheight><course>24.6</course><type>1</type></trkpt>
      <trkpt lat="39.49627386" lon="-6.38878367"><ele>1212</ele><speed>8.00</speed><time>2016-06-21T15:35:12Z</time><pdop>3.0</pdop><geoidheight>54.00</geoidheight><course>30.6</course><type>1</type></trkpt>
      <trkpt lat="39.49637443" lon="-6.38866308"><ele>1212</ele><speed>7.75</speed><time>2016-06-21T15:35:14Z</time><pdop>3.0</pdop><geoidheight>54.00</geoidheight><course>49.5</course><type>1</type></trkpt>
      <trkpt lat="39.49639744" lon="-6.38858281"><ele>1212</ele><speed>7.50</speed><time>2016-06-21T15:35:15Z</time><pdop>3.0</pdop><geoidheight>54.00</geoidheight><course>67.7</course><type>1</type></trkpt>
      <trkpt lat="39.49639663" lon="-6.38850578"><ele>1213</ele><speed>6.75</speed><time>2016-06-21T15:35:16Z</time><pdop>3.0</pdop><geoidheight>54.00</geoidheight><course>92.8</course><type>1</type></trkpt>
      <trkpt lat="39.49636163" lon="-6.38844968"><ele>1213</ele><speed>5.75</speed><time>2016-06-21T15:35:17Z</time><pdop>3.0</pdop><geoidheight>54.00</geoidheight><course>126.2</course><type>1</type></trkpt>
      <trkpt lat="39.49630918" lon="-6.38842901"><ele>1212</ele><speed>6.00</speed><time>2016-06-21T15:35:18Z</time><pdop>3.0</pdop><geoidheight>54.00</geoidheight><course>159.9</course><type>1</type></trkpt>
      <trkpt lat="39.49620343" lon="-6.38841495"><ele>1214</ele><speed>5.75</speed><time>2016-06-21T15:35:20Z</time><pdop>3.0</pdop><geoidheight>54.00</geoidheight><course>172.6</course><type>1</type></trkpt>
      <trkpt lat="39.49606839" lon="-6.38838317"><ele>1213</ele><speed>5.00</speed><time>2016-06-21T15:35:23Z</time><pdop>5.0</pdop><geoidheight>54.00</geoidheight><course>169.2</course><type>1</type></trkpt>
      <trkpt lat="39.49598085" lon="-6.38836088"><ele>1214</ele><speed>4.75</speed><time>2016-06-21T15:35:25Z</time><pdop>3.0</pdop><geoidheight>54.00</geoidheight><course>165.1</course><type>1</type></trkpt>
      <trkpt lat="39.4959175" lon="-6.3883032"><ele>1212</ele><speed>4.25</speed><time>2016-06-21T15:35:27Z</time><pdop>3.0</pdop><geoidheight>54.00</geoidheight><course>138.1</course><type>1</type></trkpt>
      <trkpt lat="39.4958455" lon="-6.38822795"><ele>1211</ele><speed>5.25</speed><time>2016-06-21T15:35:29Z</time><pdop>3.0</pdop><geoidheight>54.00</geoidheight><course>150.2</course><type>1</type></trkpt>
      <trkpt lat="39.49567849" lon="-6.38828521"><ele>1207</ele><speed>7.50</speed><time>2016-06-21T15:35:32Z</time><pdop>3.0</pdop><geoidheight>54.00</geoidheight><course>210.9</course><type>1</type></trkpt>
      <trkpt lat="39.49558427" lon="-6.38848514"><ele>1203</ele><speed>10.50</speed><time>2016-06-21T15:35:34Z</time><pdop>3.0</pdop><geoidheight>54.00</geoidheight><course>242.0</course><type>1</type></trkpt>
      <trkpt lat="39.49555894" lon="-6.38861995"><ele>1201</ele><speed>11.75</speed><time>2016-06-21T15:35:35Z</time><pdop>4.0</pdop><geoidheight>54.00</geoidheight><course>254.6</course><type>1</type></trkpt>
      <trkpt lat="39.4955783" lon="-6.38876759"><ele>1200</ele><speed>12.50</speed><time>2016-06-21T15:35:36Z</time><pdop>3.0</pdop><geoidheight>54.00</geoidheight><course>275.0</course><type>1</type></trkpt>
      <trkpt lat="39.49571472" lon="-6.38902412"><ele>1196</ele><speed>13.50</speed><time>2016-06-21T15:35:38Z</time><pdop>3.0</pdop><geoidheight>54.00</geoidheight><course>311.0</course><type>1</type></trkpt>
      <trkpt lat="39.49581252" lon="-6.38912184"><ele>1195</ele><speed>13.75</speed><time>2016-06-21T15:35:39Z</time><pdop>4.0</pdop><geoidheight>54.00</geoidheight><course>322.0</course><type>1</type></trkpt>
      <trkpt lat="39.4959161" lon="-6.38920368"><ele>1195</ele><speed>13.50</speed><time>2016-06-21T15:35:40Z</time><pdop>3.0</pdop><geoidheight>54.00</geoidheight><course>328.9</course><type>1</type></trkpt>
      <trkpt lat="39.49611565" lon="-6.38932673"><ele>1194</ele><speed>12.00</speed><time>2016-06-21T15:35:42Z</time><pdop>4.0</pdop><geoidheight>54.00</geoidheight><course>335.2</course><type>1</type></trkpt>
      <trkpt lat="39.49620898" lon="-6.38937487"><ele>1194</ele><speed>11.25</speed><time>2016-06-21T15:35:43Z</time><pdop>4.0</pdop><geoidheight>54.00</geoidheight><course>338.1</course><type>1</type></trkpt>
      <trkpt lat="39.49630134" lon="-6.38941703"><ele>1194</ele><speed>11.00</speed><time>2016-06-21T15:35:44Z</time><pdop>3.0</pdop><geoidheight>54.00</geoidheight><course>341.1</course><type>1</type></trkpt>
      <trkpt lat="39.49639971" lon="-6.38945303"><ele>1193</ele><speed>11.25</speed><time>2016-06-21T15:35:45Z</time><pdop>3.0</pdop><geoidheight>54.00</geoidheight><course>343.0</course><type>1</type></trkpt>
      <trkpt lat="39.49660021" lon="-6.38953356"><ele>1193</ele><speed>11.75</speed><time>2016-06-21T15:35:47Z</time><pdop>3.0</pdop><geoidheight>54.00</geoidheight><course>344.1</course><type>1</type></trkpt>
      <trkpt lat="39.49669915" lon="-6.38957327"><ele>1193</ele><speed>11.50</speed><time>2016-06-21T15:35:48Z</time><pdop>3.0</pdop><geoidheight>54.00</geoidheight><course>343.0</course><type>1</type></trkpt>
      <trkpt lat="39.49679343" lon="-6.38960992"><ele>1194</ele><speed>11.25</speed><time>2016-06-21T15:35:49Z</time><pdop>4.0</pdop><geoidheight>54.00</geoidheight><course>343.1</course><type>1</type></trkpt>
      <trkpt lat="39.49698835" lon="-6.38970257"><ele>1195</ele><speed>11.75</speed><time>2016-06-21T15:35:51Z</time><pdop>3.0</pdop><geoidheight>54.00</geoidheight><course>337.6</course><type>1</type></trkpt>
      <trkpt lat="39.49708449" lon="-6.38977419"><ele>1195</ele><speed>12.25</speed><time>2016-06-21T15:35:52Z</time><pdop>3.0</pdop><geoidheight>54.00</geoidheight><course>331.7</course><type>1</type></trkpt>
      <trkpt lat="39.49718107" lon="-6.38984122"><ele>1196</ele><speed>12.25</speed><time>2016-06-21T15:35:53Z</time><pdop>5.0</pdop><geoidheight>54.00</geoidheight><course>331.7</course><type>1</type></trkpt>
      <trkpt lat="39.49726299" lon="-6.38992749"><ele>1197</ele><speed>11.75</speed><time>2016-06-21T15:35:54Z</time><pdop>3.0</pdop><geoidheight>54.00</geoidheight><course>325.9</course><type>1</type></trkpt>
      <trkpt lat="39.4973505" lon="-6.39000156"><ele>1198</ele><speed>11.50</speed><time>2016-06-21T15:35:55Z</time><pdop>4.0</pdop><geoidheight>54.00</geoidheight><course>326.3</course><type>1</type></trkpt>
      <trkpt lat="39.4975336" lon="-6.39013477"><ele>1196</ele><speed>11.75</speed><time>2016-06-21T15:35:57Z</time><pdop>3.0</pdop><geoidheight>54.00</geoidheight><course>331.4</course><type>1</type></trkpt>
      <trkpt lat="39.49774491" lon="-6.39022085"><ele>1193</ele><speed>12.50</speed><time>2016-06-21T15:35:59Z</time><pdop>3.0</pdop><geoidheight>54.00</geoidheight><course>343.8</course><type>1</type></trkpt>
      <trkpt lat="39.49796955" lon="-6.39028094"><ele>1190</ele><speed>12.75</speed><time>2016-06-21T15:36:01Z</time><pdop>5.0</pdop><geoidheight>54.00</geoidheight><course>347.6</course><type>1</type></trkpt>
      <trkpt lat="39.49811197" lon="-6.39032663"><ele>1187</ele><speed>15.00</speed><time>2016-06-21T15:36:02Z</time><pdop>3.0</pdop><geoidheight>54.00</geoidheight><course>346.3</course><type>1</type></trkpt>
      <trkpt lat="39.49825076" lon="-6.39037122"><ele>1187</ele><speed>15.75</speed><time>2016-06-21T15:36:03Z</time><pdop>3.0</pdop><geoidheight>54.00</geoidheight><course>346.0</course><type>1</type></trkpt>
      <trkpt lat="39.49851146" lon="-6.39040833"><ele>1189</ele><speed>14.25</speed><time>2016-06-21T15:36:05Z</time><pdop>3.0</pdop><geoidheight>54.00</geoidheight><course>356.2</course><type>1</type></trkpt>
      <trkpt lat="39.49862589" lon="-6.39040624"><ele>1189</ele><speed>12.50</speed><time>2016-06-21T15:36:06Z</time><pdop>3.0</pdop><geoidheight>54.00</geoidheight><course>1.2</course><type>1</type></trkpt>
      <trkpt lat="39.49872735" lon="-6.39040844"><ele>1189</ele><speed>11.50</speed><time>2016-06-21T15:36:07Z</time><pdop>3.0</pdop><geoidheight>54.00</geoidheight><course>359.8</course><type>1</type></trkpt>
      <trkpt lat="39.49892278" lon="-6.39044702"><ele>1187</ele><speed>11.00</speed><time>2016-06-21T15:36:09Z</time><pdop>7.0</pdop><geoidheight>54.00</geoidheight><course>352.4</course><type>1</type></trkpt>
      <trkpt lat="39.49904124" lon="-6.39051182"><ele>1184</ele><speed>12.50</speed><time>2016-06-21T15:36:10Z</time><pdop>3.0</pdop><geoidheight>54.00</geoidheight><course>343.3</course><type>1</type></trkpt>
      <trkpt lat="39.49915882" lon="-6.39055822"><ele>1182</ele><speed>13.75</speed><time>2016-06-21T15:36:11Z</time><pdop>3.0</pdop><geoidheight>54.00</geoidheight><course>343.4</course><type>1</type></trkpt>
      <trkpt lat="39.499397" lon="-6.39063762"><ele>1181</ele><speed>13.50</speed><time>2016-06-21T15:36:13Z</time><pdop>3.0</pdop><geoidheight>54.00</geoidheight><course>346.0</course><type>1</type></trkpt>
      <trkpt lat="39.49950446" lon="-6.39067929"><ele>1182</ele><speed>12.50</speed><time>2016-06-21T15:36:14Z</time><pdop>4.0</pdop><geoidheight>54.00</geoidheight><course>344.1</course><type>1</type></trkpt>
      <trkpt lat="39.49968429" lon="-6.39077414"><ele>1182</ele><speed>10.25</speed><time>2016-06-21T15:36:16Z</time><pdop>4.0</pdop><geoidheight>54.00</geoidheight><course>337.9</course><type>1</type></trkpt>
      <trkpt lat="39.4997706" lon="-6.39081939"><ele>1182</ele><speed>10.25</speed><time>2016-06-21T15:36:17Z</time><pdop>6.0</pdop><geoidheight>54.00</geoidheight><course>337.9</course><type>1</type></trkpt>
      <trkpt lat="39.49996757" lon="-6.39090622"><ele>1179</ele><speed>11.75</speed><time>2016-06-21T15:36:19Z</time><pdop>3.0</pdop><geoidheight>54.00</geoidheight><course>341.1</course><type>1</type></trkpt>
      <trkpt lat="39.50007316" lon="-6.3909497"><ele>1177</ele><speed>12.25</speed><time>2016-06-21T15:36:20Z</time><pdop>3.0</pdop><geoidheight>54.00</geoidheight><course>341.2</course><type>1</type></trkpt>
      <trkpt lat="39.50017953" lon="-6.3909998"><ele>1175</ele><speed>12.75</speed><time>2016-06-21T15:36:21Z</time><pdop>3.0</pdop><geoidheight>54.00</geoidheight><course>340.6</course><type>1</type></trkpt>
      <trkpt lat="39.50029322" lon="-6.39104808"><ele>1172</ele><speed>13.25</speed><time>2016-06-21T15:36:22Z</time><pdop>3.0</pdop><geoidheight>54.00</geoidheight><course>340.9</course><type>1</type></trkpt>
      <trkpt lat="39.50052079" lon="-6.39115697"><ele>1168</ele><speed>13.50</speed><time>2016-06-21T15:36:24Z</time><pdop>3.0</pdop><geoidheight>54.00</geoidheight><course>339.8</course><type>1</type></trkpt>
      <trkpt lat="39.50063402" lon="-6.39121067"><ele>1166</ele><speed>13.50</speed><time>2016-06-21T15:36:25Z</time><pdop>5.0</pdop><geoidheight>54.00</geoidheight><course>339.8</course><type>1</type></trkpt>
      <trkpt lat="39.50072623" lon="-6.39125699"><ele>1166</ele><speed>12.00</speed><time>2016-06-21T15:36:26Z</time><pdop>3.0</pdop><geoidheight>54.00</geoidheight><course>338.4</course><type>1</type></trkpt>
      <trkpt lat="39.50091834" lon="-6.39134129"><ele>1162</ele><speed>11.75</speed><time>2016-06-21T15:36:28Z</time><pdop>4.0</pdop><geoidheight>54.00</geoidheight><course>341.6</course><type>1</type></trkpt>
      <trkpt lat="39.50101626" lon="-6.39138927"><ele>1159</ele><speed>12.00</speed><time>2016-06-21T15:36:29Z</time><pdop>3.0</pdop><geoidheight>54.00</geoidheight><course>340.4</course><type>1</type></trkpt>
      <trkpt lat="39.50122237" lon="-6.39149161"><ele>1154</ele><speed>12.25</speed><time>2016-06-21T15:36:31Z</time><pdop>4.0</pdop><geoidheight>54.00</geoidheight><course>338.6</course><type>1</type></trkpt>
      <trkpt lat="39.50131098" lon="-6.39154596"><ele>1151</ele><speed>11.50</speed><time>2016-06-21T15:36:32Z</time><pdop>3.0</pdop><geoidheight>54.00</geoidheight><course>336.5</course><type>1</type></trkpt>
      <trkpt lat="39.50140604" lon="-6.39159928"><ele>1149</ele><speed>11.25</speed><time>2016-06-21T15:36:33Z</time><pdop>3.0</pdop><geoidheight>54.00</geoidheight><course>336.0</course><type>1</type></trkpt>
      <trkpt lat="39.50159827" lon="-6.39173771"><ele>1144</ele><speed>12.50</speed><time>2016-06-21T15:36:35Z</time><pdop>3.0</pdop><geoidheight>54.00</geoidheight><course>330.0</course><type>1</type></trkpt>
      <trkpt lat="39.5017049" lon="-6.39182075"><ele>1141</ele><speed>13.75</speed><time>2016-06-21T15:36:36Z</time><pdop>3.0</pdop><geoidheight>54.00</geoidheight><course>328.8</course><type>1</type></trkpt>
      <trkpt lat="39.50181773" lon="-6.39190505"><ele>1141</ele><speed>14.50</speed><time>2016-06-21T15:36:37Z</time><pdop>4.0</pdop><geoidheight>54.00</geoidheight><course>329.6</course><type>1</type></trkpt>
      <trkpt lat="39.5020473" lon="-6.39205502"><ele>1141</ele><speed>14.00</speed><time>2016-06-21T15:36:39Z</time><pdop>3.0</pdop><geoidheight>54.00</geoidheight><course>333.3</course><type>1</type></trkpt>
      <trkpt lat="39.50214971" lon="-6.39212085"><ele>1141</ele><speed>13.00</speed><time>2016-06-21T15:36:40Z</time><pdop>3.0</pdop><geoidheight>54.00</geoidheight><course>333.2</course><type>1</type></trkpt>
      <trkpt lat="39.50224038" lon="-6.3921921"><ele>1141</ele><speed>12.00</speed><time>2016-06-21T15:36:41Z</time><pdop>3.0</pdop><geoidheight>54.00</geoidheight><course>330.1</course><type>1</type></trkpt>
      <trkpt lat="39.50241871" lon="-6.39234526"><ele>1139</ele><speed>12.25</speed><time>2016-06-21T15:36:43Z</time><pdop>3.0</pdop><geoidheight>54.00</geoidheight><course>325.7</course><type>1</type></trkpt>
      <trkpt lat="39.50250685" lon="-6.39242652"><ele>1139</ele><speed>12.50</speed><time>2016-06-21T15:36:44Z</time><pdop>3.0</pdop><geoidheight>54.00</geoidheight><course>324.4</course><type>1</type></trkpt>
      <trkpt lat="39.5025992" lon="-6.39251156"><ele>1138</ele><speed>12.50</speed><time>2016-06-21T15:36:45Z</time><pdop>4.0</pdop><geoidheight>54.00</geoidheight><course>324.2</course><type>1</type></trkpt>
      <trkpt lat="39.50279243" lon="-6.39267535"><ele>1135</ele><speed>13.25</speed><time>2016-06-21T15:36:47Z</time><pdop>4.0</pdop><geoidheight>54.00</geoidheight><course>328.6</course><type>1</type></trkpt>
      <trkpt lat="39.50290354" lon="-6.39275131"><ele>1133</ele><speed>14.00</speed><time>2016-06-21T15:36:48Z</time><pdop>4.0</pdop><geoidheight>54.00</geoidheight><course>331.9</course><type>1</type></trkpt>
      <trkpt lat="39.50302032" lon="-6.39282376"><ele>1133</ele><speed>14.50</speed><time>2016-06-21T15:36:49Z</time><pdop>4.0</pdop><geoidheight>54.00</geoidheight><course>333.7</course><type>1</type></trkpt>
      <trkpt lat="39.50324911" lon="-6.39297046"><ele>1133</ele><speed>14.25</speed><time>2016-06-21T15:36:51Z</time><pdop>6.0</pdop><geoidheight>54.00</geoidheight><course>333.8</course><type>1</type></trkpt>
      <trkpt lat="39.50332642" lon="-6.39304784"><ele>1134</ele><speed>11.75</speed><time>2016-06-21T15:36:52Z</time><pdop>4.0</pdop><geoidheight>54.00</geoidheight><course>326.8</course><type>1</type></trkpt>
      <trkpt lat="39.5034114" lon="-6.39312445"><ele>1133</ele><speed>11.50</speed><time>2016-06-21T15:36:53Z</time><pdop>3.0</pdop><geoidheight>54.00</geoidheight><course>325.1</course><type>1</type></trkpt>
      <trkpt lat="39.50360451" lon="-6.39326848"><ele>1131</ele><speed>13.00</speed><time>2016-06-21T15:36:55Z</time><pdop>3.0</pdop><geoidheight>54.00</geoidheight><course>330.0</course><type>1</type></trkpt>
      <trkpt lat="39.50370708" lon="-6.39333937"><ele>1131</ele><speed>13.00</speed><time>2016-06-21T15:36:56Z</time><pdop>3.0</pdop><geoidheight>54.00</geoidheight><course>331.0</course><type>1</type></trkpt>
      <trkpt lat="39.50380258" lon="-6.39341603"><ele>1131</ele><speed>12.75</speed><time>2016-06-21T15:36:57Z</time><pdop>3.0</pdop><geoidheight>54.00</geoidheight><course>328.3</course><type>1</type></trkpt>
      <trkpt lat="39.50399701" lon="-6.39356787"><ele>1130</ele><speed>12.25</speed><time>2016-06-21T15:36:59Z</time><pdop>3.0</pdop><geoidheight>54.00</geoidheight><course>330.9</course><type>1</type></trkpt>
      <trkpt lat="39.5041975" lon="-6.39366137"><ele>1130</ele><speed>12.00</speed><time>2016-06-21T15:37:01Z</time><pdop>3.0</pdop><geoidheight>54.00</geoidheight><course>342.0</course><type>1</type></trkpt>
      <trkpt lat="39.50429903" lon="-6.39370973"><ele>1129</ele><speed>12.00</speed><time>2016-06-21T15:37:02Z</time><pdop>3.0</pdop><geoidheight>54.00</geoidheight><course>341.4</course><type>1</type></trkpt>
      <trkpt lat="39.50449739" lon="-6.39380339"><ele>1129</ele><speed>11.75</speed><time>2016-06-21T15:37:04Z</time><pdop>5.0</pdop><geoidheight>54.00</geoidheight><course>339.9</course><type>1</type></trkpt>
      <trkpt lat="39.50456796" lon="-6.39387496"><ele>1129</ele><speed>10.75</speed><time>2016-06-21T15:37:05Z</time><pdop>4.0</pdop><geoidheight>54.00</geoidheight><course>329.2</course><type>1</type></trkpt>
      <trkpt lat="39.50464376" lon="-6.3939407"><ele>1129</ele><speed>10.25</speed><time>2016-06-21T15:37:06Z</time><pdop>4.0</pdop><geoidheight>54.00</geoidheight><course>327.2</course><type>1</type></trkpt>
      <trkpt lat="39.50472017" lon="-6.39400564"><ele>1128</ele><speed>10.00</speed><time>2016-06-21T15:37:07Z</time><pdop>3.0</pdop><geoidheight>54.00</geoidheight><course>327.5</course><type>1</type></trkpt>
      <trkpt lat="39.50479997" lon="-6.39406868"><ele>1125</ele><speed>10.50</speed><time>2016-06-21T15:37:08Z</time><pdop>3.0</pdop><geoidheight>54.00</geoidheight><course>328.2</course><type>1</type></trkpt>
      <trkpt lat="39.5049962" lon="-6.39420159"><ele>1119</ele><speed>12.75</speed><time>2016-06-21T15:37:10Z</time><pdop>3.0</pdop><geoidheight>54.00</geoidheight><course>334.4</course><type>1</type></trkpt>
      <trkpt lat="39.50511224" lon="-6.39426412"><ele>1116</ele><speed>13.75</speed><time>2016-06-21T15:37:11Z</time><pdop>3.0</pdop><geoidheight>54.00</geoidheight><course>336.6</course><type>1</type></trkpt>
      <trkpt lat="39.50522589" lon="-6.39432954"><ele>1114</ele><speed>14.00</speed><time>2016-06-21T15:37:12Z</time><pdop>4.0</pdop><geoidheight>54.00</geoidheight><course>336.5</course><type>1</type></trkpt>
      <trkpt lat="39.50544249" lon="-6.39445321"><ele>1112</ele><speed>12.75</speed><time>2016-06-21T15:37:14Z</time><pdop>3.0</pdop><geoidheight>54.00</geoidheight><course>335.9</course><type>1</type></trkpt>
      <trkpt lat="39.50554843" lon="-6.39451826"><ele>1111</ele><speed>12.75</speed><time>2016-06-21T15:37:15Z</time><pdop>3.0</pdop><geoidheight>54.00</geoidheight><course>335.0</course><type>1</type></trkpt>
      <trkpt lat="39.5057775" lon="-6.39464826"><ele>1108</ele><speed>14.25</speed><time>2016-06-21T15:37:17Z</time><pdop>3.0</pdop><geoidheight>54.00</geoidheight><course>337.1</course><type>1</type></trkpt>
      <trkpt lat="39.50590328" lon="-6.39471621"><ele>1106</ele><speed>15.00</speed><time>2016-06-21T15:37:18Z</time><pdop>3.0</pdop><geoidheight>54.00</geoidheight><course>337.1</course><type>1</type></trkpt>
      <trkpt lat="39.50603318" lon="-6.39478188"><ele>1106</ele><speed>15.25</speed><time>2016-06-21T15:37:19Z</time><pdop>3.0</pdop><geoidheight>54.00</geoidheight><course>338.3</course><type>1</type></trkpt>
      <trkpt lat="39.50629124" lon="-6.39491269"><ele>1106</ele><speed>15.25</speed><time>2016-06-21T15:37:21Z</time><pdop>5.0</pdop><geoidheight>54.00</geoidheight><course>338.6</course><type>1</type></trkpt>
      <trkpt lat="39.50640387" lon="-6.39496368"><ele>1106</ele><speed>14.25</speed><time>2016-06-21T15:37:22Z</time><pdop>4.0</pdop><geoidheight>54.00</geoidheight><course>341.3</course><type>1</type></trkpt>
      <trkpt lat="39.5065377" lon="-6.39500667"><ele>1105</ele><speed>15.00</speed><time>2016-06-21T15:37:23Z</time><pdop>3.0</pdop><geoidheight>54.00</geoidheight><course>346.1</course><type>1</type></trkpt>
      <trkpt lat="39.50682545" lon="-6.39506038"><ele>1106</ele><speed>16.25</speed><time>2016-06-21T15:37:25Z</time><pdop>4.0</pdop><geoidheight>54.00</geoidheight><course>353.2</course><type>1</type></trkpt>
      <trkpt lat="39.50695004" lon="-6.39507432"><ele>1110</ele><speed>14.25</speed><time>2016-06-21T15:37:26Z</time><pdop>3.0</pdop><geoidheight>54.00</geoidheight><course>353.8</course><type>1</type></trkpt>
      <trkpt lat="39.50716787" lon="-6.39511099"><ele>1114</ele><speed>12.25</speed><time>2016-06-21T15:37:28Z</time><pdop>5.0</pdop><geoidheight>54.00</geoidheight><course>353.6</course><type>1</type></trkpt>
      <trkpt lat="39.50724642" lon="-6.39509897"><ele>1113</ele><speed>10.25</speed><time>2016-06-21T15:37:29Z</time><pdop>3.0</pdop><geoidheight>54.00</geoidheight><course>1.4</course><type>1</type></trkpt>
      <trkpt lat="39.50733903" lon="-6.39506519"><ele>1112</ele><speed>10.50</speed><time>2016-06-21T15:37:30Z</time><pdop>3.0</pdop><geoidheight>54.00</geoidheight><course>15.9</course><type>1</type></trkpt>
      <trkpt lat="39.50745219" lon="-6.39489974"><ele>1112</ele><speed>8.75</speed><time>2016-06-21T15:37:32Z</time><pdop>3.0</pdop><geoidheight>54.00</geoidheight><course>55.2</course><type>1</type></trkpt>
      <trkpt lat="39.50744953" lon="-6.39475513"><ele>1116</ele><speed>5.50</speed><time>2016-06-21T15:37:34Z</time><pdop>3.0</pdop><geoidheight>54.00</geoidheight><course>102.4</course><type>1</type></trkpt>
      <trkpt lat="39.50742972" lon="-6.39466164"><ele>1114</ele><speed>4.25</speed><time>2016-06-21T15:37:36Z</time><pdop>3.0</pdop><geoidheight>54.00</geoidheight><course>99.5</course><type>1</type></trkpt>
      <trkpt lat="39.50744816" lon="-6.39449173"><ele>1110</ele><speed>5.00</speed><time>2016-06-21T15:37:39Z</time><pdop>3.0</pdop><geoidheight>54.00</geoidheight><course>73.4</course><type>1</type></trkpt>
      <trkpt lat="39.50742263" lon="-6.39439025"><ele>1103</ele><speed>3.25</speed><time>2016-06-21T15:37:42Z</time><pdop>3.0</pdop><geoidheight>54.00</geoidheight><course>146.6</course><type>1</type></trkpt>
      <trkpt lat="39.50734282" lon="-6.39445283"><ele>1097</ele><speed>6.25</speed><time>2016-06-21T15:37:44Z</time><pdop>3.0</pdop><geoidheight>54.00</geoidheight><course>222.1</course><type>1</type></trkpt>
      <trkpt lat="39.50727423" lon="-6.39466321"><ele>1092</ele><speed>10.25</speed><time>2016-06-21T15:37:46Z</time><pdop>4.0</pdop><geoidheight>54.00</geoidheight><course>245.9</course><type>1</type></trkpt>
      <trkpt lat="39.50725847" lon="-6.39479627"><ele>1092</ele><speed>10.75</speed><time>2016-06-21T15:37:47Z</time><pdop>4.0</pdop><geoidheight>54.00</geoidheight><course>254.4</course><type>1</type></trkpt>
      <trkpt lat="39.50740242" lon="-6.39494581"><ele>1091</ele><speed>13.25</speed><time>2016-06-21T15:37:48Z</time><pdop>3.0</pdop><geoidheight>54.00</geoidheight><course>303.5</course><type>1</type></trkpt>
      <trkpt lat="39.50755829" lon="-6.39516925"><ele>1094</ele><speed>12.25</speed><time>2016-06-21T15:37:50Z</time><pdop>3.0</pdop><geoidheight>54.00</geoidheight><course>311.1</course><type>1</type></trkpt>
      <trkpt lat="39.50762949" lon="-6.39527052"><ele>1096</ele><speed>11.75</speed><time>2016-06-21T15:37:51Z</time><pdop>3.0</pdop><geoidheight>54.00</geoidheight><course>310.9</course><type>1</type></trkpt>
      <trkpt lat="39.50769341" lon="-6.39537259"><ele>1096</ele><speed>11.00</speed><time>2016-06-21T15:37:52Z</time><pdop>3.0</pdop><geoidheight>54.00</geoidheight><course>309.2</course><type>1</type></trkpt>
      <trkpt lat="39.50781821" lon="-6.39557551"><ele>1096</ele><speed>10.75</speed><time>2016-06-21T15:37:54Z</time><pdop>3.0</pdop><geoidheight>54.00</geoidheight><course>305.5</course><type>1</type></trkpt>
      <trkpt lat="39.50786107" lon="-6.39568298"><ele>1096</ele><speed>10.50</speed><time>2016-06-21T15:37:55Z</time><pdop>3.0</pdop><geoidheight>54.00</geoidheight><course>297.3</course><type>1</type></trkpt>
      <trkpt lat="39.50787614" lon="-6.39579028"><ele>1096</ele><speed>9.75</speed><time>2016-06-21T15:37:56Z</time><pdop>3.0</pdop><geoidheight>54.00</geoidheight><course>283.8</course><type>1</type></trkpt>
      <trkpt lat="39.50785297" lon="-6.3959779"><ele>1096</ele><speed>8.00</speed><time>2016-06-21T15:37:58Z</time><pdop>3.0</pdop><geoidheight>54.00</geoidheight><course>255.1</course><type>1</type></trkpt>
      <trkpt lat="39.50779261" lon="-6.39610336"><ele>1096</ele><speed>6.00</speed><time>2016-06-21T15:38:00Z</time><pdop>4.0</pdop><geoidheight>54.00</geoidheight><course>238.3</course><type>1</type></trkpt>
      <trkpt lat="39.50771431" lon="-6.39614818"><ele>1097</ele><speed>4.75</speed><time>2016-06-21T15:38:02Z</time><pdop>3.0</pdop><geoidheight>54.00</geoidheight><course>207.1</course><type>1</type></trkpt>
      <trkpt lat="39.50759296" lon="-6.39617245"><ele>1097</ele><speed>4.50</speed><time>2016-06-21T15:38:05Z</time><pdop>5.0</pdop><geoidheight>54.00</geoidheight><course>185.3</course><type>1</type></trkpt>
      <trkpt lat="39.50749367" lon="-6.39599882"><ele>1095</ele><speed>5.50</speed><time>2016-06-21T15:38:09Z</time><pdop>3.0</pdop><geoidheight>54.00</geoidheight><course>102.7</course><type>1</type></trkpt>
      <trkpt lat="39.50749269" lon="-6.39592057"><ele>1093</ele><speed>6.50</speed><time>2016-06-21T15:38:10Z</time><pdop>3.0</pdop><geoidheight>54.00</geoidheight><course>92.1</course><type>1</type></trkpt>
      <trkpt lat="39.5075009" lon="-6.3958409"><ele>1093</ele><speed>7.00</speed><time>2016-06-21T15:38:11Z</time><pdop>3.0</pdop><geoidheight>54.00</geoidheight><course>82.9</course><type>1</type></trkpt>
      <trkpt lat="39.50752143" lon="-6.39576026"><ele>1094</ele><speed>7.25</speed><time>2016-06-21T15:38:12Z</time><pdop>4.0</pdop><geoidheight>54.00</geoidheight><course>71.5</course><type>1</type></trkpt>
      <trkpt lat="39.50759736" lon="-6.39561941"><ele>1092</ele><speed>7.50</speed><time>2016-06-21T15:38:14Z</time><pdop>4.0</pdop><geoidheight>54.00</geoidheight><course>53.7</course><type>1</type></trkpt>
      <trkpt lat="39.50764471" lon="-6.39553673"><ele>1091</ele><speed>8.50</speed><time>2016-06-21T15:38:15Z</time><pdop>3.0</pdop><geoidheight>54.00</geoidheight><course>53.6</course><type>1</type></trkpt>
      <trkpt lat="39.50773974" lon="-6.39535429"><ele>1089</ele><speed>9.50</speed><time>2016-06-21T15:38:17Z</time><pdop>3.0</pdop><geoidheight>54.00</geoidheight><course>56.1</course><type>1</type></trkpt>
      <trkpt lat="39.50778091" lon="-6.39526118"><ele>1089</ele><speed>9.00</speed><time>2016-06-21T15:38:18Z</time><pdop>3.0</pdop><geoidheight>54.00</geoidheight><course>59.2</course><type>1</type></trkpt>
      <trkpt lat="39.50781652" lon="-6.39517882"><ele>1088</ele><speed>8.25</speed><time>2016-06-21T15:38:19Z</time><pdop>3.0</pdop><geoidheight>54.00</geoidheight><course>60.3</course><type>1</type></trkpt>
      <trkpt lat="39.50784482" lon="-6.39510432"><ele>1087</ele><speed>7.25</speed><time>2016-06-21T15:38:20Z</time><pdop>4.0</pdop><geoidheight>54.00</geoidheight><course>64.8</course><type>1</type></trkpt>
      <trkpt lat="39.50788537" lon="-6.39494908"><ele>1085</ele><speed>7.00</speed><time>2016-06-21T15:38:22Z</time><pdop>4.0</pdop><geoidheight>54.00</geoidheight><course>72.1</course><type>1</type></trkpt>
      <trkpt lat="39.50792627" lon="-6.39487312"><ele>1082</ele><speed>7.75</speed><time>2016-06-21T15:38:23Z</time><pdop>3.0</pdop><geoidheight>54.00</geoidheight><course>59.9</course><type>1</type></trkpt>
      <trkpt lat="39.5080468" lon="-6.39472786"><ele>1076</ele><speed>9.50</speed><time>2016-06-21T15:38:25Z</time><pdop>3.0</pdop><geoidheight>54.00</geoidheight><course>40.2</course><type>1</type></trkpt>
      <trkpt lat="39.50812439" lon="-6.39467645"><ele>1074</ele><speed>10.25</speed><time>2016-06-21T15:38:26Z</time><pdop>3.0</pdop><geoidheight>54.00</geoidheight><course>30.3</course><type>1</type></trkpt>
      <trkpt lat="39.50821966" lon="-6.39464083"><ele>1074</ele><speed>10.75</speed><time>2016-06-21T15:38:27Z</time><pdop>3.0</pdop><geoidheight>54.00</geoidheight><course>19.0</course><type>1</type></trkpt>
      <trkpt lat="39.50832467" lon="-6.39462395"><ele>1074</ele><speed>11.50</speed><time>2016-06-21T15:38:28Z</time><pdop>4.0</pdop><geoidheight>54.00</geoidheight><course>8.5</course><type>1</type></trkpt>
      <trkpt lat="39.5085388" lon="-6.39464666"><ele>1079</ele><speed>11.50</speed><time>2016-06-21T15:38:30Z</time><pdop>3.0</pdop><geoidheight>54.00</geoidheight><course>353.8</course><type>1</type></trkpt>
      <trkpt lat="39.50862557" lon="-6.39466541"><ele>1081</ele><speed>10.00</speed><time>2016-06-21T15:38:31Z</time><pdop>3.0</pdop><geoidheight>54.00</geoidheight><course>351.5</course><type>1</type></trkpt>
      <trkpt lat="39.50870912" lon="-6.39468204"><ele>1082</ele><speed>9.25</speed><time>2016-06-21T15:38:32Z</time><pdop>3.0</pdop><geoidheight>54.00</geoidheight><course>351.7</course><type>1</type></trkpt>
      <trkpt lat="39.50879059" lon="-6.39469075"><ele>1086</ele><speed>8.75</speed><time>2016-06-21T15:38:33Z</time><pdop>3.0</pdop><geoidheight>54.00</geoidheight><course>356.8</course><type>1</type></trkpt>
      <trkpt lat="39.50886321" lon="-6.3946663"><ele>1084</ele><speed>8.25</speed><time>2016-06-21T15:38:34Z</time><pdop>3.0</pdop><geoidheight>54.00</geoidheight><course>12.6</course><type>1</type></trkpt>
      <trkpt lat="39.50892022" lon="-6.39459706"><ele>1082</ele><speed>8.50</speed><time>2016-06-21T15:38:35Z</time><pdop>3.0</pdop><geoidheight>54.00</geoidheight><course>39.8</course><type>1</type></trkpt>
      <trkpt lat="39.50896949" lon="-6.39440744"><ele>1081</ele><speed>8.50</speed><time>2016-06-21T15:38:37Z</time><pdop>5.0</pdop><geoidheight>54.00</geoidheight><course>70.0</course><type>1</type></trkpt>
      <trkpt lat="39.50886897" lon="-6.39432998"><ele>1090</ele><speed>4.50</speed><time>2016-06-21T15:38:39Z</time><pdop>3.0</pdop><geoidheight>54.00</geoidheight><course>149.9</course><type>1</type></trkpt>
      <trkpt lat="39.5087324" lon="-6.39429359"><ele>1094</ele><speed>4.75</speed><time>2016-06-21T15:38:43Z</time><pdop>3.0</pdop><geoidheight>54.00</geoidheight><course>179.9</course><type>1</type></trkpt>
      <trkpt lat="39.50861171" lon="-6.39445928"><ele>1093</ele><speed>7.75</speed><time>2016-06-21T15:38:46Z</time><pdop>3.0</pdop><geoidheight>54.00</geoidheight><course>243.7</course><type>1</type></trkpt>
      <trkpt lat="39.5085852" lon="-6.39455419"><ele>1092</ele><speed>8.50</speed><time>2016-06-21T15:38:47Z</time><pdop>4.0</pdop><geoidheight>54.00</geoidheight><course>248.1</course><type>1</type></trkpt>
      <trkpt lat="39.5086598" lon="-6.39478139"><ele>1092</ele><speed>10.25</speed><time>2016-06-21T15:38:49Z</time><pdop>3.0</pdop><geoidheight>54.00</geoidheight><course>292.1</course><type>1</type></trkpt>
      <trkpt lat="39.50870738" lon="-6.39488454"><ele>1093</ele><speed>10.25</speed><time>2016-06-21T15:38:50Z</time><pdop>4.0</pdop><geoidheight>54.00</geoidheight><course>299.6</course><type>1</type></trkpt>
      <trkpt lat="39.50877711" lon="-6.39497057"><ele>1093</ele><speed>10.50</speed><time>2016-06-21T15:38:51Z</time><pdop>4.0</pdop><geoidheight>54.00</geoidheight><course>313.5</course><type>1</type></trkpt>
      <trkpt lat="39.50893596" lon="-6.39511517"><ele>1094</ele><speed>10.75</speed><time>2016-06-21T15:38:53Z</time><pdop>5.0</pdop><geoidheight>54.00</geoidheight><course>324.7</course><type>1</type></trkpt>
      <trkpt lat="39.50902855" lon="-6.39516347"><ele>1096</ele><speed>10.75</speed><time>2016-06-21T15:38:54Z</time><pdop>3.0</pdop><geoidheight>54.00</geoidheight><course>329.5</course><type>1</type></trkpt>
      <trkpt lat="39.50910333" lon="-6.39523348"><ele>1097</ele><speed>10.50</speed><time>2016-06-21T15:38:55Z</time><pdop>3.0</pdop><geoidheight>54.00</geoidheight><course>325.1</course><type>1</type></trkpt>
      <trkpt lat="39.50917935" lon="-6.39530081"><ele>1098</ele><speed>10.25</speed><time>2016-06-21T15:38:56Z</time><pdop>3.0</pdop><geoidheight>54.00</geoidheight><course>324.7</course><type>1</type></trkpt>
      <trkpt lat="39.50925616" lon="-6.39535797"><ele>1098</ele><speed>10.00</speed><time>2016-06-21T15:38:57Z</time><pdop>3.0</pdop><geoidheight>54.00</geoidheight><course>329.8</course><type>1</type></trkpt>
      <trkpt lat="39.50934066" lon="-6.39540147"><ele>1098</ele><speed>10.00</speed><time>2016-06-21T15:38:58Z</time><pdop>3.0</pdop><geoidheight>54.00</geoidheight><course>337.5</course><type>1</type></trkpt>
      <trkpt lat="39.50951754" lon="-6.39538819"><ele>1098</ele><speed>9.75</speed><time>2016-06-21T15:39:00Z</time><pdop>4.0</pdop><geoidheight>54.00</geoidheight><course>11.0</course><type>1</type></trkpt>
      <trkpt lat="39.50960955" lon="-6.39536315"><ele>1098</ele><speed>10.25</speed><time>2016-06-21T15:39:01Z</time><pdop>5.0</pdop><geoidheight>54.00</geoidheight><course>10.8</course><type>1</type></trkpt>
      <trkpt lat="39.5096893" lon="-6.39511734"><ele>1098</ele><speed>5.75</speed><time>2016-06-21T15:39:04Z</time><pdop>3.0</pdop><geoidheight>54.00</geoidheight><course>63.7</course><type>1</type></trkpt>
      <trkpt lat="39.50971426" lon="-6.39493584"><ele>1097</ele><speed>6.00</speed><time>2016-06-21T15:39:07Z</time><pdop>3.0</pdop><geoidheight>54.00</geoidheight><course>86.8</course><type>1</type></trkpt>
      <trkpt lat="39.5097095" lon="-6.39486532"><ele>1098</ele><speed>6.25</speed><time>2016-06-21T15:39:08Z</time><pdop>3.0</pdop><geoidheight>54.00</geoidheight><course>97.2</course><type>1</type></trkpt>
      <trkpt lat="39.5096955" lon="-6.39479692"><ele>1098</ele><speed>5.75</speed><time>2016-06-21T15:39:09Z</time><pdop>3.0</pdop><geoidheight>54.00</geoidheight><course>104.9</course><type>1</type></trkpt>
      <trkpt lat="39.50966611" lon="-6.39468535"><ele>1099</ele><speed>4.75</speed><time>2016-06-21T15:39:11Z</time><pdop>3.0</pdop><geoidheight>54.00</geoidheight><course>109.4</course><type>1</type></trkpt>
      <trkpt lat="39.50962834" lon="-6.39456746"><ele>1097</ele><speed>5.50</speed><time>2016-06-21T15:39:13Z</time><pdop>3.0</pdop><geoidheight>54.00</geoidheight><course>113.2</course><type>1</type></trkpt>
      <trkpt lat="39.50957064" lon="-6.39444521"><ele>1099</ele><speed>6.00</speed><time>2016-06-21T15:39:15Z</time><pdop>3.0</pdop><geoidheight>54.00</geoidheight><course>121.0</course><type>1</type></trkpt>
      <trkpt lat="39.50953124" lon="-6.39438107"><ele>1102</ele><speed>2.50</speed><time>2016-06-21T15:39:17Z</time><pdop>3.0</pdop><geoidheight>54.00</geoidheight><course>131.4</course><type>1</type></trkpt>
      <trkpt lat="39.50947318" lon="-6.3942769"><ele>1103</ele><speed>4.50</speed><time>2016-06-21T15:39:20Z</time><pdop>4.0</pdop><geoidheight>54.00</geoidheight><course>125.6</course><type>1</type></trkpt>
      <trkpt lat="39.50940394" lon="-6.39420552"><ele>1102</ele><speed>4.75</speed><time>2016-06-21T15:39:22Z</time><pdop>3.0</pdop><geoidheight>54.00</geoidheight><course>146.6</course><type>1</type></trkpt>
      <trkpt lat="39.50933182" lon="-6.39416251"><ele>1104</ele><speed>4.00</speed><time>2016-06-21T15:39:24Z</time><pdop>3.0</pdop><geoidheight>54.00</geoidheight><course>157.9</course><type>1</type></trkpt>
      <trkpt lat="39.50921462" lon="-6.39412132"><ele>1102</ele><speed>4.25</speed><time>2016-06-21T15:39:27Z</time><pdop>4.0</pdop><geoidheight>54.00</geoidheight><course>163.1</course><type>1</type></trkpt>
      <trkpt lat="39.5091524" lon="-6.39405804"><ele>1102</ele><speed>4.50</speed><time>2016-06-21T15:39:29Z</time><pdop>4.0</pdop><geoidheight>54.00</geoidheight><course>138.2</course><type>1</type></trkpt>
      <trkpt lat="39.50913067" lon="-6.39394727"><ele>1100</ele><speed>4.75</speed><time>2016-06-21T15:39:31Z</time><pdop>5.0</pdop><geoidheight>54.00</geoidheight><course>110.0</course><type>1</type></trkpt>
      <trkpt lat="39.50927665" lon="-6.39382045"><ele>1099</ele><speed>9.00</speed><time>2016-06-21T15:39:32Z</time><pdop>3.0</pdop><geoidheight>54.00</geoidheight><course>42.8</course><type>1</type></trkpt>
      <trkpt lat="39.50946782" lon="-6.39373899"><ele>1100</ele><speed>11.50</speed><time>2016-06-21T15:39:34Z</time><pdop>3.0</pdop><geoidheight>54.00</geoidheight><course>10.2</course><type>1</type></trkpt>
      <trkpt lat="39.50956974" lon="-6.39375418"><ele>1101</ele><speed>11.25</speed><time>2016-06-21T15:39:35Z</time><pdop>4.0</pdop><geoidheight>54.00</geoidheight><course>355.7</course><type>1</type></trkpt>
      <trkpt lat="39.50966076" lon="-6.39378651"><ele>1102</ele><speed>10.75</speed><time>2016-06-21T15:39:36Z</time><pdop>3.0</pdop><geoidheight>54.00</geoidheight><course>347.7</course><type>1</type></trkpt>
      <trkpt lat="39.50984352" lon="-6.3938459"><ele>1102</ele><speed>10.50</speed><time>2016-06-21T15:39:38Z</time><pdop>4.0</pdop><geoidheight>54.00</geoidheight><course>346.0</course><type>1</type></trkpt>
      <trkpt lat="39.50995249" lon="-6.39387313"><ele>1099</ele><speed>11.25</speed><time>2016-06-21T15:39:39Z</time><pdop>5.0</pdop><geoidheight>54.00</geoidheight><course>347.1</course><type>1</type></trkpt>
      <trkpt lat="39.51009066" lon="-6.39391667"><ele>1098</ele><speed>13.75</speed><time>2016-06-21T15:39:40Z</time><pdop>3.0</pdop><geoidheight>54.00</geoidheight><course>348.0</course><type>1</type></trkpt>
      <trkpt lat="39.51033306" lon="-6.39399948"><ele>1099</ele><speed>13.50</speed><time>2016-06-21T15:39:42Z</time><pdop>4.0</pdop><geoidheight>54.00</geoidheight><course>342.2</course><type>1</type></trkpt>
      <trkpt lat="39.51043835" lon="-6.39405765"><ele>1100</ele><speed>12.75</speed><time>2016-06-21T15:39:43Z</time><pdop>3.0</pdop><geoidheight>54.00</geoidheight><course>337.7</course><type>1</type></trkpt>
      <trkpt lat="39.51053831" lon="-6.39411383"><ele>1101</ele><speed>11.75</speed><time>2016-06-21T15:39:44Z</time><pdop>3.0</pdop><geoidheight>54.00</geoidheight><course>335.0</course><type>1</type></trkpt>
      <trkpt lat="39.51071252" lon="-6.39421306"><ele>1103</ele><speed>10.25</speed><time>2016-06-21T15:39:46Z</time><pdop>3.0</pdop><geoidheight>54.00</geoidheight><course>337.3</course><type>1</type></trkpt>
      <trkpt lat="39.5107987" lon="-6.39425952"><ele>1103</ele><speed>10.25</speed><time>2016-06-21T15:39:47Z</time><pdop>4.0</pdop><geoidheight>54.00</geoidheight><course>337.3</course><type>1</type></trkpt>
      <trkpt lat="39.51089886" lon="-6.3942514"><ele>1103</ele><speed>10.50</speed><time>2016-06-21T15:39:48Z</time><pdop>3.0</pdop><geoidheight>54.00</geoidheight><course>355.8</course><type>1</type></trkpt>
      <trkpt lat="39.51098669" lon="-6.39422994"><ele>1104</ele><speed>10.00</speed><time>2016-06-21T15:39:49Z</time><pdop>3.0</pdop><geoidheight>54.00</geoidheight><course>10.7</course><type>1</type></trkpt>
      <trkpt lat="39.51112414" lon="-6.39413495"><ele>1103</ele><speed>8.75</speed><time>2016-06-21T15:39:51Z</time><pdop>5.0</pdop><geoidheight>54.00</geoidheight><course>27.4</course><type>1</type></trkpt>
      <trkpt lat="39.51109812" lon="-6.39401412"><ele>1100</ele><speed>5.25</speed><time>2016-06-21T15:39:53Z</time><pdop>3.0</pdop><geoidheight>54.00</geoidheight><course>101.7</course><type>1</type></trkpt>
      <trkpt lat="39.51101376" lon="-6.39395002"><ele>1100</ele><speed>5.75</speed><time>2016-06-21T15:39:55Z</time><pdop>3.0</pdop><geoidheight>54.00</geoidheight><course>160.2</course><type>1</type></trkpt>
      <trkpt lat="39.51095609" lon="-6.39396003"><ele>1099</ele><speed>6.00</speed><time>2016-06-21T15:39:56Z</time><pdop>3.0</pdop><geoidheight>54.00</geoidheight><course>184.6</course><type>1</type></trkpt>
      <trkpt lat="39.51087947" lon="-6.39403723"><ele>1099</ele><speed>4.75</speed><time>2016-06-21T15:39:58Z</time><pdop>3.0</pdop><geoidheight>54.00</geoidheight><course>228.3</course><type>1</type></trkpt>
      <trkpt lat="39.51083704" lon="-6.39413612"><ele>1097</ele><speed>5.50</speed><time>2016-06-21T15:40:00Z</time><pdop>3.0</pdop><geoidheight>54.00</geoidheight><course>242.5</course><type>1</type></trkpt>
      <trkpt lat="39.51079498" lon="-6.39441196"><ele>1095</ele><speed>9.00</speed><time>2016-06-21T15:40:03Z</time><pdop>3.0</pdop><geoidheight>54.00</geoidheight><course>264.6</course><type>1</type></trkpt>
      <trkpt lat="39.51081671" lon="-6.39452225"><ele>1095</ele><speed>9.50</speed><time>2016-06-21T15:40:04Z</time><pdop>3.0</pdop><geoidheight>54.00</geoidheight><course>282.6</course><type>1</type></trkpt>
      <trkpt lat="39.51087264" lon="-6.39463446"><ele>1094</ele><speed>11.25</speed><time>2016-06-21T15:40:05Z</time><pdop>3.0</pdop><geoidheight>54.00</geoidheight><course>301.3</course><type>1</type></trkpt>
      <trkpt lat="39.51095595" lon="-6.39473723"><ele>1096</ele><speed>12.50</speed><time>2016-06-21T15:40:06Z</time><pdop>4.0</pdop><geoidheight>54.00</geoidheight><course>314.9</course><type>1</type></trkpt>
      <trkpt lat="39.51116795" lon="-6.39489931"><ele>1093</ele><speed>13.50</speed><time>2016-06-21T15:40:08Z</time><pdop>5.0</pdop><geoidheight>54.00</geoidheight><course>328.6</course><type>1</type></trkpt>
      <trkpt lat="39.51128672" lon="-6.39493932"><ele>1095</ele><speed>13.00</speed><time>2016-06-21T15:40:09Z</time><pdop>3.0</pdop><geoidheight>54.00</geoidheight><course>338.2</course><type>1</type></trkpt>
      <trkpt lat="39.51148927" lon="-6.39505852"><ele>1097</ele><speed>12.25</speed><time>2016-06-21T15:40:11Z</time><pdop>4.0</pdop><geoidheight>54.00</geoidheight><course>334.3</course><type>1</type></trkpt>
      <trkpt lat="39.51169022" lon="-6.39519443"><ele>1098</ele><speed>12.75</speed><time>2016-06-21T15:40:13Z</time><pdop>3.0</pdop><geoidheight>54.00</geoidheight><course>332.3</course><type>1</type></trkpt>
      <trkpt lat="39.51178797" lon="-6.39527218"><ele>1098</ele><speed>12.75</speed><time>2016-06-21T15:40:14Z</time><pdop>3.0</pdop><geoidheight>54.00</geoidheight><course>329.2</course><type>1</type></trkpt>
      <trkpt lat="39.51188175" lon="-6.39536226"><ele>1100</ele><speed>12.75</speed><time>2016-06-21T15:40:15Z</time><pdop>3.0</pdop><geoidheight>54.00</geoidheight><course>324.2</course><type>1</type></trkpt>
      <trkpt lat="39.51197044" lon="-6.3954578"><ele>1101</ele><speed>13.00</speed><time>2016-06-21T15:40:16Z</time><pdop>3.0</pdop><geoidheight>54.00</geoidheight><course>319.7</course><type>1</type></trkpt>
      <trkpt lat="39.51215203" lon="-6.39565145"><ele>1104</ele><speed>13.00</speed><time>2016-06-21T15:40:18Z</time><pdop>3.0</pdop><geoidheight>54.00</geoidheight><course>322.4</course><type>1</type></trkpt>
      <trkpt lat="39.51225287" lon="-6.39573481"><ele>1105</ele><speed>13.00</speed><time>2016-06-21T15:40:19Z</time><pdop>3.0</pdop><geoidheight>54.00</geoidheight><course>327.2</course><type>1</type></trkpt>
      <trkpt lat="39.51246304" lon="-6.39583623"><ele>1106</ele><speed>12.25</speed><time>2016-06-21T15:40:21Z</time><pdop>3.0</pdop><geoidheight>54.00</geoidheight><course>342.9</course><type>1</type></trkpt>
      <trkpt lat="39.51256673" lon="-6.39584596"><ele>1106</ele><speed>11.75</speed><time>2016-06-21T15:40:22Z</time><pdop>3.0</pdop><geoidheight>54.00</geoidheight><course>354.5</course><type>1</type></trkpt>
      <trkpt lat="39.51266176" lon="-6.39582626"><ele>1106</ele><speed>10.75</speed><time>2016-06-21T15:40:23Z</time><pdop>3.0</pdop><geoidheight>54.00</geoidheight><course>7.1</course><type>1</type></trkpt>
      <trkpt lat="39.51274632" lon="-6.39578202"><ele>1106</ele><speed>10.25</speed><time>2016-06-21T15:40:24Z</time><pdop>3.0</pdop><geoidheight>54.00</geoidheight><course>18.8</course><type>1</type></trkpt>
      <trkpt lat="39.51281032" lon="-6.3957219"><ele>1106</ele><speed>8.75</speed><time>2016-06-21T15:40:25Z</time><pdop>3.0</pdop><geoidheight>54.00</geoidheight><course>31.1</course><type>1</type></trkpt>
      <trkpt lat="39.51284655" lon="-6.39566353"><ele>1107</ele><speed>6.75</speed><time>2016-06-21T15:40:26Z</time><pdop>3.0</pdop><geoidheight>54.00</geoidheight><course>46.9</course><type>1</type></trkpt>
      <trkpt lat="39.51284331" lon="-6.39556737"><ele>1106</ele><speed>4.00</speed><time>2016-06-21T15:40:28Z</time><pdop>3.0</pdop><geoidheight>54.00</geoidheight><course>103.4</course><type>1</type></trkpt>
      <trkpt lat="39.51278399" lon="-6.39552212"><ele>1107</ele><speed>4.00</speed><time>2016-06-21T15:40:30Z</time><pdop>3.0</pdop><geoidheight>54.00</geoidheight><course>165.7</course><type>1</type></trkpt>
      <trkpt lat="39.51270263" lon="-6.39556584"><ele>1107</ele><speed>5.75</speed><time>2016-06-21T15:40:32Z</time><pdop>4.0</pdop><geoidheight>54.00</geoidheight><course>207.3</course><type>1</type></trkpt>
      <trkpt lat="39.51255595" lon="-6.39570278"><ele>1108</ele><speed>6.75</speed><time>2016-06-21T15:40:35Z</time><pdop>4.0</pdop><geoidheight>54.00</geoidheight><course>214.4</course><type>1</type></trkpt>
      <trkpt lat="39.51244676" lon="-6.39586705"><ele>1111</ele><speed>6.25</speed><time>2016-06-21T15:40:38Z</time><pdop>3.0</pdop><geoidheight>54.00</geoidheight><course>234.8</course><type>1</type></trkpt>
      <trkpt lat="39.51241698" lon="-6.3959315"><ele>1112</ele><speed>6.50</speed><time>2016-06-21T15:40:39Z</time><pdop>3.0</pdop><geoidheight>54.00</geoidheight><course>238.6</course><type>1</type></trkpt>
      <trkpt lat="39.51236594" lon="-6.39607574"><ele>1113</ele><speed>7.00</speed><time>2016-06-21T15:40:41Z</time><pdop>3.0</pdop><geoidheight>54.00</geoidheight><course>248.4</course><type>1</type></trkpt>
      <trkpt lat="39.51236286" lon="-6.39617301"><ele>1112</ele><speed>8.25</speed><time>2016-06-21T15:40:42Z</time><pdop>3.0</pdop><geoidheight>54.00</geoidheight><course>264.4</course><type>1</type></trkpt>
      <trkpt lat="39.51238491" lon="-6.39629"><ele>1111</ele><speed>10.25</speed><time>2016-06-21T15:40:43Z</time><pdop>3.0</pdop><geoidheight>54.00</geoidheight><course>281.9</course><type>1</type></trkpt>
      <trkpt lat="39.51252768" lon="-6.39651518"><ele>1110</ele><speed>12.75</speed><time>2016-06-21T15:40:45Z</time><pdop>4.0</pdop><geoidheight>54.00</geoidheight><course>315.8</course><type>1</type></trkpt>
      <trkpt lat="39.51263916" lon="-6.39658245"><ele>1110</ele><speed>13.50</speed><time>2016-06-21T15:40:46Z</time><pdop>3.0</pdop><geoidheight>54.00</geoidheight><course>333.6</course><type>1</type></trkpt>
      <trkpt lat="39.51275479" lon="-6.3966164"><ele>1109</ele><speed>13.50</speed><time>2016-06-21T15:40:47Z</time><pdop>3.0</pdop><geoidheight>54.00</geoidheight><course>346.4</course><type>1</type></trkpt>
      <trkpt lat="39.51287092" lon="-6.39663125"><ele>1109</ele><speed>13.00</speed><time>2016-06-21T15:40:48Z</time><pdop>3.0</pdop><geoidheight>54.00</geoidheight><course>354.5</course><type>1</type></trkpt>
      <trkpt lat="39.51309555" lon="-6.39665913"><ele>1111</ele><speed>12.50</speed><time>2016-06-21T15:40:50Z</time><pdop>3.0</pdop><geoidheight>54.00</geoidheight><course>353.5</course><type>1</type></trkpt>
      <trkpt lat="39.51320695" lon="-6.39668501"><ele>1111</ele><speed>12.50</speed><time>2016-06-21T15:40:51Z</time><pdop>3.0</pdop><geoidheight>54.00</geoidheight><course>351.5</course><type>1</type></trkpt>
      <trkpt lat="39.51331417" lon="-6.3967051"><ele>1112</ele><speed>12.25</speed><time>2016-06-21T15:40:52Z</time><pdop>3.0</pdop><geoidheight>54.00</geoidheight><course>351.7</course><type>1</type></trkpt>
      <trkpt lat="39.51342164" lon="-6.39672444"><ele>1113</ele><speed>12.25</speed><time>2016-06-21T15:40:53Z</time><pdop>4.0</pdop><geoidheight>54.00</geoidheight><course>352.2</course><type>1</type></trkpt>
      <trkpt lat="39.51364547" lon="-6.39678136"><ele>1113</ele><speed>13.00</speed><time>2016-06-21T15:40:55Z</time><pdop>3.0</pdop><geoidheight>54.00</geoidheight><course>347.3</course><type>1</type></trkpt>
      <trkpt lat="39.51375862" lon="-6.39683729"><ele>1114</ele><speed>13.25</speed><time>2016-06-21T15:40:56Z</time><pdop>3.0</pdop><geoidheight>54.00</geoidheight><course>340.3</course><type>1</type></trkpt>
      <trkpt lat="39.51386639" lon="-6.39691061"><ele>1115</ele><speed>13.75</speed><time>2016-06-21T15:40:57Z</time><pdop>4.0</pdop><geoidheight>54.00</geoidheight><course>332.5</course><type>1</type></trkpt>
      <trkpt lat="39.51404963" lon="-6.39712676"><ele>1116</ele><speed>13.75</speed><time>2016-06-21T15:40:59Z</time><pdop>4.0</pdop><geoidheight>54.00</geoidheight><course>315.5</course><type>1</type></trkpt>
      <trkpt lat="39.51411191" lon="-6.3972552"><ele>1117</ele><speed>13.00</speed><time>2016-06-21T15:41:00Z</time><pdop>3.0</pdop><geoidheight>54.00</geoidheight><course>304.3</course><type>1</type></trkpt>
      <trkpt lat="39.51415796" lon="-6.39737742"><ele>1118</ele><speed>12.25</speed><time>2016-06-21T15:41:01Z</time><pdop>3.0</pdop><geoidheight>54.00</geoidheight><course>295.7</course><type>1</type></trkpt>
      <trkpt lat="39.51418067" lon="-6.39762135"><ele>1118</ele><speed>10.75</speed><time>2016-06-21T15:41:03Z</time><pdop>4.0</pdop><geoidheight>54.00</geoidheight><course>272.7</course><type>1</type></trkpt>
      <trkpt lat="39.51411117" lon="-6.39783072"><ele>1120</ele><speed>9.25</speed><time>2016-06-21T15:41:05Z</time><pdop>3.0</pdop><geoidheight>54.00</geoidheight><course>241.2</course><type>1</type></trkpt>
      <trkpt lat="39.51406452" lon="-6.397892"><ele>1121</ele><speed>7.50</speed><time>2016-06-21T15:41:06Z</time><pdop>3.0</pdop><geoidheight>54.00</geoidheight><course>225.5</course><type>1</type></trkpt>
      <trkpt lat="39.51397607" lon="-6.39792655"><ele>1123</ele><speed>4.75</speed><time>2016-06-21T15:41:08Z</time><pdop>3.0</pdop><geoidheight>54.00</geoidheight><course>189.0</course><type>1</type></trkpt>
      <trkpt lat="39.51392551" lon="-6.39786955"><ele>1121</ele><speed>3.75</speed><time>2016-06-21T15:41:10Z</time><pdop>3.0</pdop><geoidheight>54.00</geoidheight><course>127.7</course><type>1</type></trkpt>
      <trkpt lat="39.51391037" lon="-6.3977601"><ele>1118</ele><speed>5.25</speed><time>2016-06-21T15:41:12Z</time><pdop>3.0</pdop><geoidheight>54.00</geoidheight><course>96.5</course><type>1</type></trkpt>
      <trkpt lat="39.51393716" lon="-6.39760369"><ele>1120</ele><speed>7.50</speed><time>2016-06-21T15:41:14Z</time><pdop>3.0</pdop><geoidheight>54.00</geoidheight><course>71.7</course><type>1</type></trkpt>
      <trkpt lat="39.51398411" lon="-6.39753048"><ele>1120</ele><speed>8.00</speed><time>2016-06-21T15:41:15Z</time><pdop>3.0</pdop><geoidheight>54.00</geoidheight><course>52.9</course><type>1</type></trkpt>
      <trkpt lat="39.51404983" lon="-6.39747142"><ele>1121</ele><speed>9.00</speed><time>2016-06-21T15:41:16Z</time><pdop>3.0</pdop><geoidheight>54.00</geoidheight><course>37.0</course><type>1</type></trkpt>
      <trkpt lat="39.51422372" lon="-6.39738309"><ele>1122</ele><speed>10.75</speed><time>2016-06-21T15:41:18Z</time><pdop>3.0</pdop><geoidheight>54.00</geoidheight><course>18.1</course><type>1</type></trkpt>
      <trkpt lat="39.51432061" lon="-6.39736482"><ele>1123</ele><speed>10.75</speed><time>2016-06-21T15:41:19Z</time><pdop>3.0</pdop><geoidheight>54.00</geoidheight><course>8.2</course><type>1</type></trkpt>
      <trkpt lat="39.5144221" lon="-6.39737703"><ele>1123</ele><speed>11.25</speed><time>2016-06-21T15:41:20Z</time><pdop>3.0</pdop><geoidheight>54.00</geoidheight><course>356.5</course><type>1</type></trkpt>
      <trkpt lat="39.51452422" lon="-6.39741598"><ele>1123</ele><speed>11.75</speed><time>2016-06-21T15:41:21Z</time><pdop>4.0</pdop><geoidheight>54.00</geoidheight><course>345.2</course><type>1</type></trkpt>
      <trkpt lat="39.51472225" lon="-6.39757235"><ele>1124</ele><speed>12.75</speed><time>2016-06-21T15:41:23Z</time><pdop>3.0</pdop><geoidheight>54.00</geoidheight><course>324.6</course><type>1</type></trkpt>
      <trkpt lat="39.51480893" lon="-6.39767819"><ele>1124</ele><speed>13.00</speed><time>2016-06-21T15:41:24Z</time><pdop>4.0</pdop><geoidheight>54.00</geoidheight><course>315.9</course><type>1</type></trkpt>
      <trkpt lat="39.51488082" lon="-6.39779982"><ele>1123</ele><speed>13.25</speed><time>2016-06-21T15:41:25Z</time><pdop>3.0</pdop><geoidheight>54.00</geoidheight><course>308.8</course><type>1</type></trkpt>
      <trkpt lat="39.51504107" lon="-6.39803384"><ele>1124</ele><speed>13.50</speed><time>2016-06-21T15:41:27Z</time><pdop>3.0</pdop><geoidheight>54.00</geoidheight><course>314.6</course><type>1</type></trkpt>
      <trkpt lat="39.51512608" lon="-6.39814518"><ele>1125</ele><speed>13.50</speed><time>2016-06-21T15:41:28Z</time><pdop>5.0</pdop><geoidheight>54.00</geoidheight><course>314.6</course><type>1</type></trkpt>
      <trkpt lat="39.51523861" lon="-6.39818481"><ele>1124</ele><speed>12.50</speed><time>2016-06-21T15:41:29Z</time><pdop>4.0</pdop><geoidheight>54.00</geoidheight><course>334.4</course><type>1</type></trkpt>
      <trkpt lat="39.51545648" lon="-6.39820909"><ele>1125</ele><speed>11.75</speed><time>2016-06-21T15:41:31Z</time><pdop>3.0</pdop><geoidheight>54.00</geoidheight><course>358.2</course><type>1</type></trkpt>
      <trkpt lat="39.51563314" lon="-6.39814312"><ele>1126</ele><speed>10.00</speed><time>2016-06-21T15:41:33Z</time><pdop>3.0</pdop><geoidheight>54.00</geoidheight><course>22.5</course><type>1</type></trkpt>
      <trkpt lat="39.51568865" lon="-6.39807354"><ele>1125</ele><speed>8.75</speed><time>2016-06-21T15:41:34Z</time><pdop>3.0</pdop><geoidheight>54.00</geoidheight><course>38.7</course><type>1</type></trkpt>
      <trkpt lat="39.5157588" lon="-6.39791758"><ele>1125</ele><speed>7.75</speed><time>2016-06-21T15:41:36Z</time><pdop>4.0</pdop><geoidheight>54.00</geoidheight><course>59.1</course><type>1</type></trkpt>
      <trkpt lat="39.51571149" lon="-6.39778697"><ele>1128</ele><speed>5.50</speed><time>2016-06-21T15:41:38Z</time><pdop>3.0</pdop><geoidheight>54.00</geoidheight><course>106.0</course><type>1</type></trkpt>
      <trkpt lat="39.51567588" lon="-6.39770018"><ele>1130</ele><speed>3.75</speed><time>2016-06-21T15:41:40Z</time><pdop>3.0</pdop><geoidheight>54.00</geoidheight><course>119.8</course><type>1</type></trkpt>
      <trkpt lat="39.51563578" lon="-6.39762589"><ele>1132</ele><speed>3.75</speed><time>2016-06-21T15:41:42Z</time><pdop>3.0</pdop><geoidheight>54.00</geoidheight><course>133.0</course><type>1</type></trkpt>
      <trkpt lat="39.51557076" lon="-6.39762972"><ele>1132</ele><speed>4.25</speed><time>2016-06-21T15:41:44Z</time><pdop>3.0</pdop><geoidheight>54.00</geoidheight><course>193.2</course><type>1</type></trkpt>
      <trkpt lat="39.51550402" lon="-6.39774394"><ele>1131</ele><speed>6.75</speed><time>2016-06-21T15:41:46Z</time><pdop>3.0</pdop><geoidheight>54.00</geoidheight><course>234.4</course><type>1</type></trkpt>
      <trkpt lat="39.51546324" lon="-6.39792775"><ele>1131</ele><speed>8.75</speed><time>2016-06-21T15:41:48Z</time><pdop>3.0</pdop><geoidheight>54.00</geoidheight><course>259.2</course><type>1</type></trkpt>
      <trkpt lat="39.51546615" lon="-6.39804539"><ele>1131</ele><speed>10.00</speed><time>2016-06-21T15:41:49Z</time><pdop>3.0</pdop><geoidheight>54.00</geoidheight><course>269.8</course><type>1</type></trkpt>
      <trkpt lat="39.51553262" lon="-6.3983111"><ele>1130</ele><speed>12.25</speed><time>2016-06-21T15:41:51Z</time><pdop>3.0</pdop><geoidheight>54.00</geoidheight><course>292.0</course><type>1</type></trkpt>
      <trkpt lat="39.51559059" lon="-6.39843931"><ele>1130</ele><speed>12.50</speed><time>2016-06-21T15:41:52Z</time><pdop>4.0</pdop><geoidheight>54.00</geoidheight><course>299.8</course><type>1</type></trkpt>
      <trkpt lat="39.51567325" lon="-6.39854625"><ele>1131</ele><speed>12.50</speed><time>2016-06-21T15:41:53Z</time><pdop>3.0</pdop><geoidheight>54.00</geoidheight><course>311.4</course><type>1</type></trkpt>
      <trkpt lat="39.51583723" lon="-6.39872304"><ele>1132</ele><speed>12.00</speed><time>2016-06-21T15:41:55Z</time><pdop>3.0</pdop><geoidheight>54.00</geoidheight><course>321.5</course><type>1</type></trkpt>
      <trkpt lat="39.515929" lon="-6.39880546"><ele>1131</ele><speed>12.50</speed><time>2016-06-21T15:41:56Z</time><pdop>3.0</pdop><geoidheight>54.00</geoidheight><course>324.8</course><type>1</type></trkpt>
      <trkpt lat="39.51602802" lon="-6.39887701"><ele>1132</ele><speed>12.75</speed><time>2016-06-21T15:41:57Z</time><pdop>3.0</pdop><geoidheight>54.00</geoidheight><course>330.8</course><type>1</type></trkpt>
      <trkpt lat="39.51624006" lon="-6.39895964"><ele>1132</ele><speed>12.00</speed><time>2016-06-21T15:41:59Z</time><pdop>3.0</pdop><geoidheight>54.00</geoidheight><course>347.5</course><type>1</type></trkpt>
      <trkpt lat="39.51634254" lon="-6.3989643"><ele>1133</ele><speed>11.50</speed><time>2016-06-21T15:42:00Z</time><pdop>3.0</pdop><geoidheight>54.00</geoidheight><course>357.3</course><type>1</type></trkpt>
      <trkpt lat="39.51652558" lon="-6.39889503"><ele>1133</ele><speed>10.25</speed><time>2016-06-21T15:42:02Z</time><pdop>3.0</pdop><geoidheight>54.00</geoidheight><course>20.7</course><type>1</type></trkpt>
      <trkpt lat="39.51659414" lon="-6.39883044"><ele>1133</ele><speed>9.75</speed><time>2016-06-21T15:42:03Z</time><pdop>3.0</pdop><geoidheight>54.00</geoidheight><course>34.3</course><type>1</type></trkpt>
      <trkpt lat="39.51665394" lon="-6.39874908"><ele>1133</ele><speed>9.50</speed><time>2016-06-21T15:42:04Z</time><pdop>3.0</pdop><geoidheight>54.00</geoidheight><course>45.2</course><type>1</type></trkpt>
      <trkpt lat="39.516691" lon="-6.39866129"><ele>1134</ele><speed>8.75</speed><time>2016-06-21T15:42:05Z</time><pdop>3.0</pdop><geoidheight>54.00</geoidheight><course>58.0</course><type>1</type></trkpt>
      <trkpt lat="39.51672132" lon="-6.39851003"><ele>1136</ele><speed>6.25</speed><time>2016-06-21T15:42:07Z</time><pdop>3.0</pdop><geoidheight>54.00</geoidheight><course>80.0</course><type>1</type></trkpt>
      <trkpt lat="39.51670159" lon="-6.39839918"><ele>1138</ele><speed>4.75</speed><time>2016-06-21T15:42:09Z</time><pdop>3.0</pdop><geoidheight>54.00</geoidheight><course>108.3</course><type>1</type></trkpt>
      <trkpt lat="39.51664999" lon="-6.39832766"><ele>1138</ele><speed>4.00</speed><time>2016-06-21T15:42:11Z</time><pdop>3.0</pdop><geoidheight>54.00</geoidheight><course>143.7</course><type>1</type></trkpt>
      <trkpt lat="39.51657498" lon="-6.39830486"><ele>1139</ele><speed>4.75</speed><time>2016-06-21T15:42:13Z</time><pdop>3.0</pdop><geoidheight>54.00</geoidheight><course>176.9</course><type>1</type></trkpt>
      <trkpt lat="39.51642781" lon="-6.39843748"><ele>1138</ele><speed>8.00</speed><time>2016-06-21T15:42:16Z</time><pdop>3.0</pdop><geoidheight>54.00</geoidheight><course>228.3</course><type>1</type></trkpt>
      <trkpt lat="39.5163932" lon="-6.39854001"><ele>1138</ele><speed>9.25</speed><time>2016-06-21T15:42:17Z</time><pdop>3.0</pdop><geoidheight>54.00</geoidheight><course>242.6</course><type>1</type></trkpt>
      <trkpt lat="39.51637126" lon="-6.39866093"><ele>1137</ele><speed>10.50</speed><time>2016-06-21T15:42:18Z</time><pdop>3.0</pdop><geoidheight>54.00</geoidheight><course>255.5</course><type>1</type></trkpt>
      <trkpt lat="39.51637036" lon="-6.39879583"><ele>1137</ele><speed>11.50</speed><time>2016-06-21T15:42:19Z</time><pdop>3.0</pdop><geoidheight>54.00</geoidheight><course>266.8</course><type>1</type></trkpt>
      <trkpt lat="39.5164426" lon="-6.39905967"><ele>1136</ele><speed>12.00</speed><time>2016-06-21T15:42:21Z</time><pdop>3.0</pdop><geoidheight>54.00</geoidheight><course>295.2</course><type>1</type></trkpt>
      <trkpt lat="39.51651611" lon="-6.39916995"><ele>1135</ele><speed>12.25</speed><time>2016-06-21T15:42:22Z</time><pdop>3.0</pdop><geoidheight>54.00</geoidheight><course>309.9</course><type>1</type></trkpt>
      <trkpt lat="39.51660967" lon="-6.39926018"><ele>1135</ele><speed>12.50</speed><time>2016-06-21T15:42:23Z</time><pdop>3.0</pdop><geoidheight>54.00</geoidheight><course>322.7</course><type>1</type></trkpt>
      <trkpt lat="39.51682131" lon="-6.39937088"><ele>1134</ele><speed>12.50</speed><time>2016-06-21T15:42:25Z</time><pdop>4.0</pdop><geoidheight>54.00</geoidheight><course>341.2</course><type>1</type></trkpt>
      <trkpt lat="39.51692809" lon="-6.39939539"><ele>1135</ele><speed>12.00</speed><time>2016-06-21T15:42:26Z</time><pdop>3.0</pdop><geoidheight>54.00</geoidheight><course>349.1</course><type>1</type></trkpt>
      <trkpt lat="39.51703204" lon="-6.39941297"><ele>1136</ele><speed>12.00</speed><time>2016-06-21T15:42:27Z</time><pdop>3.0</pdop><geoidheight>54.00</geoidheight><course>354.5</course><type>1</type></trkpt>
      <trkpt lat="39.51713715" lon="-6.39941854"><ele>1136</ele><speed>11.75</speed><time>2016-06-21T15:42:28Z</time><pdop>4.0</pdop><geoidheight>54.00</geoidheight><course>356.9</course><type>1</type></trkpt>
      <trkpt lat="39.51734113" lon="-6.39942039"><ele>1136</ele><speed>11.50</speed><time>2016-06-21T15:42:30Z</time><pdop>3.0</pdop><geoidheight>54.00</geoidheight><course>0.2</course><type>1</type></trkpt>
      <trkpt lat="39.51755184" lon="-6.39939876"><ele>1136</ele><speed>12.00</speed><time>2016-06-21T15:42:32Z</time><pdop>3.0</pdop><geoidheight>54.00</geoidheight><course>4.2</course><type>1</type></trkpt>
      <trkpt lat="39.51766416" lon="-6.39939071"><ele>1136</ele><speed>12.50</speed><time>2016-06-21T15:42:33Z</time><pdop>3.0</pdop><geoidheight>54.00</geoidheight><course>1.6</course><type>1</type></trkpt>
      <trkpt lat="39.51789078" lon="-6.39943533"><ele>1137</ele><speed>12.75</speed><time>2016-06-21T15:42:35Z</time><pdop>3.0</pdop><geoidheight>54.00</geoidheight><course>349.4</course><type>1</type></trkpt>
      <trkpt lat="39.51799886" lon="-6.39947975"><ele>1137</ele><speed>12.75</speed><time>2016-06-21T15:42:36Z</time><pdop>3.0</pdop><geoidheight>54.00</geoidheight><course>344.7</course><type>1</type></trkpt>
      <trkpt lat="39.51810666" lon="-6.39953156"><ele>1138</ele><speed>12.75</speed><time>2016-06-21T15:42:37Z</time><pdop>3.0</pdop><geoidheight>54.00</geoidheight><course>341.1</course><type>1</type></trkpt>
      <trkpt lat="39.51830988" lon="-6.39966869"><ele>1139</ele><speed>13.00</speed><time>2016-06-21T15:42:39Z</time><pdop>4.0</pdop><geoidheight>54.00</geoidheight><course>329.7</course><type>1</type></trkpt>
      <trkpt lat="39.51840009" lon="-6.3997603"><ele>1139</ele><speed>13.00</speed><time>2016-06-21T15:42:40Z</time><pdop>4.0</pdop><geoidheight>54.00</geoidheight><course>323.2</course><type>1</type></trkpt>
      <trkpt lat="39.51848041" lon="-6.39987554"><ele>1140</ele><speed>13.25</speed><time>2016-06-21T15:42:41Z</time><pdop>3.0</pdop><geoidheight>54.00</geoidheight><course>313.8</course><type>1</type></trkpt>
      <trkpt lat="39.51861147" lon="-6.40012175"><ele>1141</ele><speed>12.75</speed><time>2016-06-21T15:42:43Z</time><pdop>3.0</pdop><geoidheight>54.00</geoidheight><course>302.2</course><type>1</type></trkpt>
      <trkpt lat="39.51866591" lon="-6.40025576"><ele>1141</ele><speed>13.00</speed><time>2016-06-21T15:42:44Z</time><pdop>3.0</pdop><geoidheight>54.00</geoidheight><course>297.9</course><type>1</type></trkpt>
      <trkpt lat="39.51878053" lon="-6.40051859"><ele>1144</ele><speed>13.00</speed><time>2016-06-21T15:42:46Z</time><pdop>3.0</pdop><geoidheight>54.00</geoidheight><course>300.7</course><type>1</type></trkpt>
      <trkpt lat="39.51885352" lon="-6.40062706"><ele>1146</ele><speed>12.50</speed><time>2016-06-21T15:42:47Z</time><pdop>3.0</pdop><geoidheight>54.00</geoidheight><course>310.0</course><type>1</type></trkpt>
      <trkpt lat="39.5189386" lon="-6.40071269"><ele>1148</ele><speed>12.00</speed><time>2016-06-21T15:42:48Z</time><pdop>3.0</pdop><geoidheight>54.00</geoidheight><course>320.1</course><type>1</type></trkpt>
      <trkpt lat="39.51902901" lon="-6.400782"><ele>1149</ele><speed>12.00</speed><time>2016-06-21T15:42:49Z</time><pdop>3.0</pdop><geoidheight>54.00</geoidheight><course>330.0</course><type>1</type></trkpt>
      <trkpt lat="39.51923296" lon="-6.40088942"><ele>1150</ele><speed>12.25</speed><time>2016-06-21T15:42:51Z</time><pdop>6.0</pdop><geoidheight>54.00</geoidheight><course>336.8</course><type>1</type></trkpt>
      <trkpt lat="39.51935494" lon="-6.40091788"><ele>1150</ele><speed>12.75</speed><time>2016-06-21T15:42:52Z</time><pdop>4.0</pdop><geoidheight>54.00</geoidheight><course>343.3</course><type>1</type></trkpt>
      <trkpt lat="39.51945866" lon="-6.40085744"><ele>1152</ele><speed>11.75</speed><time>2016-06-21T15:42:53Z</time><pdop>4.0</pdop><geoidheight>54.00</geoidheight><course>9.9</course><type>1</type></trkpt>
      <trkpt lat="39.51961698" lon="-6.40072646"><ele>1147</ele><speed>10.00</speed><time>2016-06-21T15:42:55Z</time><pdop>3.0</pdop><geoidheight>54.00</geoidheight><course>37.4</course><type>1</type></trkpt>
      <trkpt lat="39.51966098" lon="-6.40065467"><ele>1150</ele><speed>8.00</speed><time>2016-06-21T15:42:56Z</time><pdop>3.0</pdop><geoidheight>54.00</geoidheight><course>47.4</course><type>1</type></trkpt>
      <trkpt lat="39.51970966" lon="-6.40058622"><ele>1151</ele><speed>8.00</speed><time>2016-06-21T15:42:57Z</time><pdop>4.0</pdop><geoidheight>54.00</geoidheight><course>47.4</course><type>1</type></trkpt>
      <trkpt lat="39.519699" lon="-6.40048128"><ele>1153</ele><speed>4.75</speed><time>2016-06-21T15:42:59Z</time><pdop>3.0</pdop><geoidheight>54.00</geoidheight><course>92.8</course><type>1</type></trkpt>
      <trkpt lat="39.51963122" lon="-6.40041873"><ele>1153</ele><speed>5.00</speed><time>2016-06-21T15:43:01Z</time><pdop>3.0</pdop><geoidheight>54.00</geoidheight><course>156.4</course><type>1</type></trkpt>
      <trkpt lat="39.5195289" lon="-6.40042681"><ele>1154</ele><speed>5.50</speed><time>2016-06-21T15:43:03Z</time><pdop>3.0</pdop><geoidheight>54.00</geoidheight><course>187.8</course><type>1</type></trkpt>
      <trkpt lat="39.51944115" lon="-6.40047316"><ele>1155</ele><speed>5.25</speed><time>2016-06-21T15:43:05Z</time><pdop>3.0</pdop><geoidheight>54.00</geoidheight><course>205.2</course><type>1</type></trkpt>
      <trkpt lat="39.51932303" lon="-6.40059903"><ele>1157</ele><speed>5.75</speed><time>2016-06-21T15:43:08Z</time><pdop>4.0</pdop><geoidheight>54.00</geoidheight><course>219.0</course><type>1</type></trkpt>
      <trkpt lat="39.51922758" lon="-6.40082092"><ele>1157</ele><speed>8.50</speed><time>2016-06-21T15:43:11Z</time><pdop>3.0</pdop><geoidheight>54.00</geoidheight><course>251.1</course><type>1</type></trkpt>
      <trkpt lat="39.51921647" lon="-6.40094537"><ele>1157</ele><speed>10.25</speed><time>2016-06-21T15:43:12Z</time><pdop>3.0</pdop><geoidheight>54.00</geoidheight><course>263.0</course><type>1</type></trkpt>
      <trkpt lat="39.51926274" lon="-6.40122174"><ele>1158</ele><speed>12.25</speed><time>2016-06-21T15:43:14Z</time><pdop>3.0</pdop><geoidheight>54.00</geoidheight><course>285.9</course><type>1</type></trkpt>
      <trkpt lat="39.51938661" lon="-6.40145383"><ele>1159</ele><speed>12.25</speed><time>2016-06-21T15:43:16Z</time><pdop>3.0</pdop><geoidheight>54.00</geoidheight><course>308.7</course><type>1</type></trkpt>
      <trkpt lat="39.51947264" lon="-6.40154863"><ele>1159</ele><speed>12.75</speed><time>2016-06-21T15:43:17Z</time><pdop>3.0</pdop><geoidheight>54.00</geoidheight><course>318.7</course><type>1</type></trkpt>
      <trkpt lat="39.51957586" lon="-6.4016251"><ele>1158</ele><speed>13.25</speed><time>2016-06-21T15:43:18Z</time><pdop>3.0</pdop><geoidheight>54.00</geoidheight><course>328.3</course><type>1</type></trkpt>
      <trkpt lat="39.51981217" lon="-6.40170127"><ele>1157</ele><speed>13.50</speed><time>2016-06-21T15:43:20Z</time><pdop>3.0</pdop><geoidheight>54.00</geoidheight><course>350.9</course><type>1</type></trkpt>
      <trkpt lat="39.51992848" lon="-6.40169329"><ele>1157</ele><speed>13.25</speed><time>2016-06-21T15:43:21Z</time><pdop>3.0</pdop><geoidheight>54.00</geoidheight><course>1.3</course><type>1</type></trkpt>
      <trkpt lat="39.52004312" lon="-6.40166294"><ele>1157</ele><speed>12.75</speed><time>2016-06-21T15:43:22Z</time><pdop>3.0</pdop><geoidheight>54.00</geoidheight><course>8.0</course><type>1</type></trkpt>
      <trkpt lat="39.52015026" lon="-6.4016347"><ele>1159</ele><speed>12.00</speed><time>2016-06-21T15:43:23Z</time><pdop>3.0</pdop><geoidheight>54.00</geoidheight><course>11.0</course><type>1</type></trkpt>
      <trkpt lat="39.52034816" lon="-6.40157748"><ele>1163</ele><speed>11.25</speed><time>2016-06-21T15:43:25Z</time><pdop>3.0</pdop><geoidheight>54.00</geoidheight><course>12.5</course><type>1</type></trkpt>
      <trkpt lat="39.52052965" lon="-6.40152525"><ele>1166</ele><speed>10.25</speed><time>2016-06-21T15:43:27Z</time><pdop>3.0</pdop><geoidheight>54.00</geoidheight><course>13.1</course><type>1</type></trkpt>
      <trkpt lat="39.5206931" lon="-6.40145172"><ele>1168</ele><speed>9.50</speed><time>2016-06-21T15:43:29Z</time><pdop>3.0</pdop><geoidheight>54.00</geoidheight><course>21.7</course><type>1</type></trkpt>
      <trkpt lat="39.52075506" lon="-6.40138272"><ele>1167</ele><speed>9.25</speed><time>2016-06-21T15:43:30Z</time><pdop>3.0</pdop><geoidheight>54.00</geoidheight><course>35.1</course><type>1</type></trkpt>
      <trkpt lat="39.52080994" lon="-6.40122029"><ele>1167</ele><speed>7.25</speed><time>2016-06-21T15:43:32Z</time><pdop>3.0</pdop><geoidheight>54.00</geoidheight><course>75.2</course><type>1</type></trkpt>
      <trkpt lat="39.52078793" lon="-6.40114903"><ele>1168</ele><speed>6.25</speed><time>2016-06-21T15:43:33Z</time><pdop>3.0</pdop><geoidheight>54.00</geoidheight><course>107.6</course><type>1</type></trkpt>
      <trkpt lat="39.5206657" lon="-6.40107572"><ele>1171</ele><speed>4.25</speed><time>2016-06-21T15:43:36Z</time><pdop>3.0</pdop><geoidheight>54.00</geoidheight><course>175.9</course><type>1</type></trkpt>
      <trkpt lat="39.52053809" lon="-6.40118692"><ele>1172</ele><speed>7.00</speed><time>2016-06-21T15:43:39Z</time><pdop>3.0</pdop><geoidheight>54.00</geoidheight><course>222.2</course><type>1</type></trkpt>
      <trkpt lat="39.5205029" lon="-6.40127477"><ele>1172</ele><speed>8.25</speed><time>2016-06-21T15:43:40Z</time><pdop>3.0</pdop><geoidheight>54.00</geoidheight><course>242.2</course><type>1</type></trkpt>
      <trkpt lat="39.52049989" lon="-6.40153328"><ele>1171</ele><speed>11.75</speed><time>2016-06-21T15:43:42Z</time><pdop>3.0</pdop><geoidheight>54.00</geoidheight><course>273.6</course><type>1</type></trkpt>
      <trkpt lat="39.52052676" lon="-6.40168392"><ele>1171</ele><speed>12.75</speed><time>2016-06-21T15:43:43Z</time><pdop>3.0</pdop><geoidheight>54.00</geoidheight><course>281.7</course><type>1</type></trkpt>
      <trkpt lat="39.52061301" lon="-6.40195433"><ele>1176</ele><speed>12.00</speed><time>2016-06-21T15:43:45Z</time><pdop>3.0</pdop><geoidheight>54.00</geoidheight><course>295.7</course><type>1</type></trkpt>
      <trkpt lat="39.52067859" lon="-6.40206006"><ele>1178</ele><speed>11.75</speed><time>2016-06-21T15:43:46Z</time><pdop>3.0</pdop><geoidheight>54.00</geoidheight><course>307.6</course><type>1</type></trkpt>
      <trkpt lat="39.52085114" lon="-6.40223174"><ele>1180</ele><speed>12.25</speed><time>2016-06-21T15:43:48Z</time><pdop>4.0</pdop><geoidheight>54.00</geoidheight><course>325.0</course><type>1</type></trkpt>
      <trkpt lat="39.52095159" lon="-6.40229873"><ele>1180</ele><speed>12.50</speed><time>2016-06-21T15:43:49Z</time><pdop>3.0</pdop><geoidheight>54.00</geoidheight><course>332.1</course><type>1</type></trkpt>
      <trkpt lat="39.52117574" lon="-6.40236237"><ele>1181</ele><speed>12.75</speed><time>2016-06-21T15:43:51Z</time><pdop>3.0</pdop><geoidheight>54.00</geoidheight><course>352.5</course><type>1</type></trkpt>
      <trkpt lat="39.52136699" lon="-6.40228524"><ele>1182</ele><speed>11.00</speed><time>2016-06-21T15:43:53Z</time><pdop>3.0</pdop><geoidheight>54.00</geoidheight><course>23.3</course><type>1</type></trkpt>
      <trkpt lat="39.52148441" lon="-6.40214443"><ele>1184</ele><speed>8.50</speed><time>2016-06-21T15:43:55Z</time><pdop>3.0</pdop><geoidheight>54.00</geoidheight><course>46.4</course><type>1</type></trkpt>
      <trkpt lat="39.52151846" lon="-6.40207659"><ele>1184</ele><speed>7.00</speed><time>2016-06-21T15:43:56Z</time><pdop>3.0</pdop><geoidheight>54.00</geoidheight><course>55.4</course><type>1</type></trkpt>
      <trkpt lat="39.52153647" lon="-6.40200343"><ele>1185</ele><speed>6.75</speed><time>2016-06-21T15:43:57Z</time><pdop>3.0</pdop><geoidheight>54.00</geoidheight><course>70.3</course><type>1</type></trkpt>
      <trkpt lat="39.52152834" lon="-6.40186018"><ele>1187</ele><speed>6.25</speed><time>2016-06-21T15:43:59Z</time><pdop>3.0</pdop><geoidheight>54.00</geoidheight><course>106.5</course><type>1</type></trkpt>
      <trkpt lat="39.52145834" lon="-6.40178037"><ele>1190</ele><speed>4.75</speed><time>2016-06-21T15:44:01Z</time><pdop>3.0</pdop><geoidheight>54.00</geoidheight><course>147.5</course><type>1</type></trkpt>
      <trkpt lat="39.52137935" lon="-6.40178425"><ele>1191</ele><speed>4.50</speed><time>2016-06-21T15:44:03Z</time><pdop>4.0</pdop><geoidheight>54.00</geoidheight><course>189.6</course><type>1</type></trkpt>
      <trkpt lat="39.52127838" lon="-6.40196555"><ele>1191</ele><speed>7.75</speed><time>2016-06-21T15:44:06Z</time><pdop>3.0</pdop><geoidheight>54.00</geoidheight><course>244.9</course><type>1</type></trkpt>
      <trkpt lat="39.5212492" lon="-6.40205103"><ele>1191</ele><speed>7.75</speed><time>2016-06-21T15:44:07Z</time><pdop>4.0</pdop><geoidheight>54.00</geoidheight><course>244.3</course><type>1</type></trkpt>
      <trkpt lat="39.52122713" lon="-6.40215478"><ele>1192</ele><speed>8.25</speed><time>2016-06-21T15:44:08Z</time><pdop>5.0</pdop><geoidheight>54.00</geoidheight><course>248.3</course><type>1</type></trkpt>
      <trkpt lat="39.52126874" lon="-6.40228233"><ele>1192</ele><speed>9.00</speed><time>2016-06-21T15:44:09Z</time><pdop>4.0</pdop><geoidheight>54.00</geoidheight><course>276.6</course><type>1</type></trkpt>
      <trkpt lat="39.52138269" lon="-6.40245842"><ele>1192</ele><speed>13.50</speed><time>2016-06-21T15:44:10Z</time><pdop>3.0</pdop><geoidheight>54.00</geoidheight><course>303.2</course><type>1</type></trkpt>
      <trkpt lat="39.52154996" lon="-6.40266199"><ele>1196</ele><speed>12.50</speed><time>2016-06-21T15:44:12Z</time><pdop>3.0</pdop><geoidheight>54.00</geoidheight><course>320.2</course><type>1</type></trkpt>
      <trkpt lat="39.52163457" lon="-6.40273921"><ele>1197</ele><speed>11.50</speed><time>2016-06-21T15:44:13Z</time><pdop>3.0</pdop><geoidheight>54.00</geoidheight><course>325.4</course><type>1</type></trkpt>
      <trkpt lat="39.52171931" lon="-6.40279059"><ele>1198</ele><speed>10.50</speed><time>2016-06-21T15:44:14Z</time><pdop>4.0</pdop><geoidheight>54.00</geoidheight><course>332.6</course><type>1</type></trkpt>
      <trkpt lat="39.52191567" lon="-6.40285138"><ele>1198</ele><speed>11.50</speed><time>2016-06-21T15:44:16Z</time><pdop>4.0</pdop><geoidheight>54.00</geoidheight><course>350.9</course><type>1</type></trkpt>
      <trkpt lat="39.5220268" lon="-6.40284354"><ele>1198</ele><speed>12.25</speed><time>2016-06-21T15:44:17Z</time><pdop>4.0</pdop><geoidheight>54.00</geoidheight><course>1.0</course><type>1</type></trkpt>
      <trkpt lat="39.52213706" lon="-6.40284117"><ele>1197</ele><speed>12.25</speed><time>2016-06-21T15:44:18Z</time><pdop>6.0</pdop><geoidheight>54.00</geoidheight><course>1.0</course><type>1</type></trkpt>
      <trkpt lat="39.52230816" lon="-6.40268339"><ele>1199</ele><speed>11.25</speed><time>2016-06-21T15:44:20Z</time><pdop>5.0</pdop><geoidheight>54.00</geoidheight><course>26.3</course><type>1</type></trkpt>
      <trkpt lat="39.52233202" lon="-6.40258891"><ele>1200</ele><speed>9.00</speed><time>2016-06-21T15:44:21Z</time><pdop>3.0</pdop><geoidheight>54.00</geoidheight><course>49.7</course><type>1</type></trkpt>
      <trkpt lat="39.52236236" lon="-6.40250104"><ele>1201</ele><speed>8.25</speed><time>2016-06-21T15:44:22Z</time><pdop>3.0</pdop><geoidheight>54.00</geoidheight><course>59.7</course><type>1</type></trkpt>
      <trkpt lat="39.52241182" lon="-6.40234119"><ele>1204</ele><speed>7.50</speed><time>2016-06-21T15:44:24Z</time><pdop>5.0</pdop><geoidheight>54.00</geoidheight><course>69.1</course><type>1</type></trkpt>
      <trkpt lat="39.52240645" lon="-6.40222513"><ele>1210</ele><speed>5.25</speed><time>2016-06-21T15:44:26Z</time><pdop>3.0</pdop><geoidheight>54.00</geoidheight><course>90.4</course><type>1</type></trkpt>
      <trkpt lat="39.52236778" lon="-6.40214136"><ele>1212</ele><speed>4.00</speed><time>2016-06-21T15:44:28Z</time><pdop>3.0</pdop><geoidheight>54.00</geoidheight><course>129.4</course><type>1</type></trkpt>
      <trkpt lat="39.52228517" lon="-6.40212218"><ele>1213</ele><speed>5.00</speed><time>2016-06-21T15:44:30Z</time><pdop>3.0</pdop><geoidheight>54.00</geoidheight><course>176.7</course><type>1</type></trkpt>
      <trkpt lat="39.52216248" lon="-6.40225052"><ele>1215</ele><speed>7.00</speed><time>2016-06-21T15:44:33Z</time><pdop>3.0</pdop><geoidheight>54.00</geoidheight><course>237.5</course><type>1</type></trkpt>
      <trkpt lat="39.52214161" lon="-6.4023475"><ele>1216</ele><speed>8.50</speed><time>2016-06-21T15:44:34Z</time><pdop>3.0</pdop><geoidheight>54.00</geoidheight><course>253.4</course><type>1</type></trkpt>
      <trkpt lat="39.52213776" lon="-6.4024655599999996"><ele>1217</ele><speed>9.75</speed><time>2016-06-21T15:44:35Z</time><pdop>3.0</pdop><geoidheight>54.00</geoidheight><course>265.5</course><type>1</type></trkpt>
      <trkpt lat="39.52217854" lon="-6.40270867"><ele>1219</ele><speed>10.75</speed><time>2016-06-21T15:44:37Z</time><pdop>3.0</pdop><geoidheight>54.00</geoidheight><course>285.2</course><type>1</type></trkpt>
      <trkpt lat="39.52220389" lon="-6.4028289"><ele>1221</ele><speed>10.75</speed><time>2016-06-21T15:44:38Z</time><pdop>5.0</pdop><geoidheight>54.00</geoidheight><course>285.2</course><type>1</type></trkpt>
      <trkpt lat="39.52228276" lon="-6.40293993"><ele>1221</ele><speed>11.50</speed><time>2016-06-21T15:44:39Z</time><pdop>4.0</pdop><geoidheight>54.00</geoidheight><course>303.0</course><type>1</type></trkpt>
      <trkpt lat="39.52246798" lon="-6.40309514"><ele>1222</ele><speed>12.25</speed><time>2016-06-21T15:44:41Z</time><pdop>3.0</pdop><geoidheight>54.00</geoidheight><course>330.5</course><type>1</type></trkpt>
      <trkpt lat="39.5225647" lon="-6.40316565"><ele>1223</ele><speed>12.25</speed><time>2016-06-21T15:44:42Z</time><pdop>5.0</pdop><geoidheight>54.00</geoidheight><course>330.5</course><type>1</type></trkpt>
      <trkpt lat="39.52268789" lon="-6.40314948"><ele>1223</ele><speed>12.50</speed><time>2016-06-21T15:44:43Z</time><pdop>3.0</pdop><geoidheight>54.00</geoidheight><course>353.2</course><type>1</type></trkpt>
      <trkpt lat="39.52279757" lon="-6.40314212"><ele>1224</ele><speed>12.25</speed><time>2016-06-21T15:44:44Z</time><pdop>3.0</pdop><geoidheight>54.00</geoidheight><course>2.3</course><type>1</type></trkpt>
      <trkpt lat="39.52289529" lon="-6.40311433"><ele>1225</ele><speed>11.25</speed><time>2016-06-21T15:44:45Z</time><pdop>3.0</pdop><geoidheight>54.00</geoidheight><course>11.7</course><type>1</type></trkpt>
      <trkpt lat="39.52305694" lon="-6.40301059"><ele>1226</ele><speed>9.50</speed><time>2016-06-21T15:44:47Z</time><pdop>3.0</pdop><geoidheight>54.00</geoidheight><course>29.1</course><type>1</type></trkpt>
      <trkpt lat="39.52311802" lon="-6.40294099"><ele>1225</ele><speed>9.00</speed><time>2016-06-21T15:44:48Z</time><pdop>3.0</pdop><geoidheight>54.00</geoidheight><course>38.9</course><type>1</type></trkpt>
      <trkpt lat="39.52320231" lon="-6.4027409"><ele>1224</ele><speed>10.25</speed><time>2016-06-21T15:44:50Z</time><pdop>3.0</pdop><geoidheight>54.00</geoidheight><course>68.9</course><type>1</type></trkpt>
      <trkpt lat="39.52321053" lon="-6.40262919"><ele>1227</ele><speed>9.75</speed><time>2016-06-21T15:44:51Z</time><pdop>3.0</pdop><geoidheight>54.00</geoidheight><course>84.6</course><type>1</type></trkpt>
      <trkpt lat="39.52319324" lon="-6.40253715"><ele>1231</ele><speed>8.25</speed><time>2016-06-21T15:44:52Z</time><pdop>3.0</pdop><geoidheight>54.00</geoidheight><course>100.8</course><type>1</type></trkpt>
      <trkpt lat="39.52316991" lon="-6.40246304"><ele>1235</ele><speed>7.00</speed><time>2016-06-21T15:44:53Z</time><pdop>3.0</pdop><geoidheight>54.00</geoidheight><course>113.1</course><type>1</type></trkpt>
      <trkpt lat="39.52312346" lon="-6.40236622"><ele>1241</ele><speed>4.50</speed><time>2016-06-21T15:44:55Z</time><pdop>3.0</pdop><geoidheight>54.00</geoidheight><course>119.0</course><type>1</type></trkpt>
      <trkpt lat="39.52304794" lon="-6.40225214"><ele>1245</ele><speed>4.50</speed><time>2016-06-21T15:44:58Z</time><pdop>3.0</pdop><geoidheight>54.00</geoidheight><course>143.2</course><type>1</type></trkpt>
      <trkpt lat="39.52296345" lon="-6.40222888"><ele>1247</ele><speed>4.75</speed><time>2016-06-21T15:45:00Z</time><pdop>5.0</pdop><geoidheight>54.00</geoidheight><course>167.8</course><type>1</type></trkpt>
      <trkpt lat="39.52289586" lon="-6.40233611"><ele>1251</ele><speed>5.50</speed><time>2016-06-21T15:45:02Z</time><pdop>3.0</pdop><geoidheight>54.00</geoidheight><course>231.4</course><type>1</type></trkpt>
      <trkpt lat="39.52290358" lon="-6.4025233"><ele>1251</ele><speed>9.00</speed><time>2016-06-21T15:45:04Z</time><pdop>4.0</pdop><geoidheight>54.00</geoidheight><course>276.7</course><type>1</type></trkpt>
      <trkpt lat="39.5229353" lon="-6.40264742"><ele>1252</ele><speed>10.75</speed><time>2016-06-21T15:45:05Z</time><pdop>3.0</pdop><geoidheight>54.00</geoidheight><course>287.1</course><type>1</type></trkpt>
      <trkpt lat="39.52298457" lon="-6.40275282"><ele>1254</ele><speed>10.75</speed><time>2016-06-21T15:45:06Z</time><pdop>3.0</pdop><geoidheight>54.00</geoidheight><course>298.7</course><type>1</type></trkpt>
      <trkpt lat="39.5231123" lon="-6.40291828"><ele>1259</ele><speed>10.00</speed><time>2016-06-21T15:45:08Z</time><pdop>5.0</pdop><geoidheight>54.00</geoidheight><course>314.1</course><type>1</type></trkpt>
      <trkpt lat="39.52321422" lon="-6.40293761"><ele>1258</ele><speed>10.50</speed><time>2016-06-21T15:45:09Z</time><pdop>3.0</pdop><geoidheight>54.00</geoidheight><course>336.6</course><type>1</type></trkpt>
      <trkpt lat="39.52330968" lon="-6.40297576"><ele>1258</ele><speed>11.00</speed><time>2016-06-21T15:45:10Z</time><pdop>3.0</pdop><geoidheight>54.00</geoidheight><course>342.0</course><type>1</type></trkpt>
      <trkpt lat="39.52352603" lon="-6.40299153"><ele>1260</ele><speed>12.25</speed><time>2016-06-21T15:45:12Z</time><pdop>3.0</pdop><geoidheight>54.00</geoidheight><course>2.1</course><type>1</type></trkpt>
      <trkpt lat="39.52363474" lon="-6.40295733"><ele>1258</ele><speed>12.50</speed><time>2016-06-21T15:45:13Z</time><pdop>3.0</pdop><geoidheight>54.00</geoidheight><course>12.6</course><type>1</type></trkpt>
      <trkpt lat="39.52372787" lon="-6.40290063"><ele>1260</ele><speed>11.75</speed><time>2016-06-21T15:45:14Z</time><pdop>3.0</pdop><geoidheight>54.00</geoidheight><course>24.3</course><type>1</type></trkpt>
      <trkpt lat="39.5238611" lon="-6.40270861"><ele>1265</ele><speed>11.00</speed><time>2016-06-21T15:45:16Z</time><pdop>3.0</pdop><geoidheight>54.00</geoidheight><course>54.1</course><type>1</type></trkpt>
      <trkpt lat="39.52388321" lon="-6.40260499"><ele>1267</ele><speed>9.50</speed><time>2016-06-21T15:45:17Z</time><pdop>3.0</pdop><geoidheight>54.00</geoidheight><course>72.2</course><type>1</type></trkpt>
      <trkpt lat="39.52385203" lon="-6.40247169"><ele>1273</ele><speed>5.25</speed><time>2016-06-21T15:45:19Z</time><pdop>3.0</pdop><geoidheight>54.00</geoidheight><course>121.6</course><type>1</type></trkpt>
      <trkpt lat="39.52376872" lon="-6.40245812"><ele>1274</ele><speed>5.00</speed><time>2016-06-21T15:45:21Z</time><pdop>3.0</pdop><geoidheight>54.00</geoidheight><course>181.9</course><type>1</type></trkpt>
      <trkpt lat="39.52367492" lon="-6.40253752"><ele>1279</ele><speed>6.75</speed><time>2016-06-21T15:45:23Z</time><pdop>3.0</pdop><geoidheight>54.00</geoidheight><course>218.6</course><type>1</type></trkpt>
      <trkpt lat="39.5236275" lon="-6.40271094"><ele>1283</ele><speed>8.25</speed><time>2016-06-21T15:45:25Z</time><pdop>3.0</pdop><geoidheight>54.00</geoidheight><course>257.8</course><type>1</type></trkpt>
      <trkpt lat="39.52364625" lon="-6.40281172"><ele>1285</ele><speed>8.75</speed><time>2016-06-21T15:45:26Z</time><pdop>3.0</pdop><geoidheight>54.00</geoidheight><course>281.5</course><type>1</type></trkpt>
      <trkpt lat="39.52369393" lon="-6.40289975"><ele>1286</ele><speed>9.25</speed><time>2016-06-21T15:45:27Z</time><pdop>3.0</pdop><geoidheight>54.00</geoidheight><course>300.9</course><type>1</type></trkpt>
      <trkpt lat="39.52376054" lon="-6.4029731"><ele>1287</ele><speed>9.75</speed><time>2016-06-21T15:45:28Z</time><pdop>3.0</pdop><geoidheight>54.00</geoidheight><course>317.7</course><type>1</type></trkpt>
      <trkpt lat="39.52392943" lon="-6.40309247"><ele>1289</ele><speed>10.75</speed><time>2016-06-21T15:45:30Z</time><pdop>5.0</pdop><geoidheight>54.00</geoidheight><course>331.3</course><type>1</type></trkpt>
      <trkpt lat="39.52404785" lon="-6.40306364"><ele>1291</ele><speed>11.75</speed><time>2016-06-21T15:45:31Z</time><pdop>3.0</pdop><geoidheight>54.00</geoidheight><course>359.7</course><type>1</type></trkpt>
      <trkpt lat="39.52415048" lon="-6.40302899"><ele>1292</ele><speed>11.75</speed><time>2016-06-21T15:45:32Z</time><pdop>3.0</pdop><geoidheight>54.00</geoidheight><course>14.5</course><type>1</type></trkpt>
      <trkpt lat="39.52430742" lon="-6.40287522"><ele>1294</ele><speed>11.00</speed><time>2016-06-21T15:45:34Z</time><pdop>3.0</pdop><geoidheight>54.00</geoidheight><course>41.8</course><type>1</type></trkpt>
      <trkpt lat="39.52439639" lon="-6.40267165"><ele>1292</ele><speed>9.75</speed><time>2016-06-21T15:45:36Z</time><pdop>3.0</pdop><geoidheight>54.00</geoidheight><course>64.9</course><type>1</type></trkpt>
      <trkpt lat="39.52441709" lon="-6.40257097"><ele>1296</ele><speed>9.00</speed><time>2016-06-21T15:45:37Z</time><pdop>3.0</pdop><geoidheight>54.00</geoidheight><course>74.8</course><type>1</type></trkpt>
      <trkpt lat="39.52441945" lon="-6.4024844"><ele>1299</ele><speed>7.50</speed><time>2016-06-21T15:45:38Z</time><pdop>3.0</pdop><geoidheight>54.00</geoidheight><course>86.0</course><type>1</type></trkpt>
      <trkpt lat="39.52438382" lon="-6.40237031"><ele>1301</ele><speed>5.00</speed><time>2016-06-21T15:45:40Z</time><pdop>3.0</pdop><geoidheight>54.00</geoidheight><course>119.6</course><type>1</type></trkpt>
      <trkpt lat="39.52431072" lon="-6.40228063"><ele>1301</ele><speed>5.50</speed><time>2016-06-21T15:45:42Z</time><pdop>3.0</pdop><geoidheight>54.00</geoidheight><course>139.7</course><type>1</type></trkpt>
      <trkpt lat="39.52421723" lon="-6.40225409"><ele>1303</ele><speed>5.50</speed><time>2016-06-21T15:45:44Z</time><pdop>3.0</pdop><geoidheight>54.00</geoidheight><course>180.7</course><type>1</type></trkpt>
      <trkpt lat="39.52413778" lon="-6.40239527"><ele>1303</ele><speed>8.25</speed><time>2016-06-21T15:45:46Z</time><pdop>3.0</pdop><geoidheight>54.00</geoidheight><course>242.2</course><type>1</type></trkpt>
      <trkpt lat="39.52412344" lon="-6.40251298"><ele>1304</ele><speed>9.75</speed><time>2016-06-21T15:45:47Z</time><pdop>3.0</pdop><geoidheight>54.00</geoidheight><course>258.5</course><type>1</type></trkpt>
      <trkpt lat="39.52417366" lon="-6.4027216"><ele>1309</ele><speed>9.25</speed><time>2016-06-21T15:45:49Z</time><pdop>3.0</pdop><geoidheight>54.00</geoidheight><course>294.1</course><type>1</type></trkpt>
      <trkpt lat="39.52422546" lon="-6.40280198"><ele>1311</ele><speed>8.75</speed><time>2016-06-21T15:45:50Z</time><pdop>4.0</pdop><geoidheight>54.00</geoidheight><course>308.3</course><type>1</type></trkpt>
      <trkpt lat="39.52439014" lon="-6.40292046"><ele>1311</ele><speed>10.50</speed><time>2016-06-21T15:45:52Z</time><pdop>3.0</pdop><geoidheight>54.00</geoidheight><course>331.8</course><type>1</type></trkpt>
      <trkpt lat="39.52448616" lon="-6.40296467"><ele>1311</ele><speed>11.25</speed><time>2016-06-21T15:45:53Z</time><pdop>3.0</pdop><geoidheight>54.00</geoidheight><course>338.7</course><type>1</type></trkpt>
      <trkpt lat="39.52459356" lon="-6.40299022"><ele>1311</ele><speed>12.00</speed><time>2016-06-21T15:45:54Z</time><pdop>3.0</pdop><geoidheight>54.00</geoidheight><course>350.8</course><type>1</type></trkpt>
      <trkpt lat="39.5248206" lon="-6.40291796"><ele>1313</ele><speed>13.00</speed><time>2016-06-21T15:45:56Z</time><pdop>3.0</pdop><geoidheight>54.00</geoidheight><course>17.9</course><type>1</type></trkpt>
      <trkpt lat="39.52490835" lon="-6.40284353"><ele>1315</ele><speed>11.75</speed><time>2016-06-21T15:45:57Z</time><pdop>3.0</pdop><geoidheight>54.00</geoidheight><course>29.1</course><type>1</type></trkpt>
      <trkpt lat="39.52501294" lon="-6.40267366"><ele>1316</ele><speed>8.50</speed><time>2016-06-21T15:45:59Z</time><pdop>3.0</pdop><geoidheight>54.00</geoidheight><course>57.1</course><type>1</type></trkpt>
      <trkpt lat="39.52503823" lon="-6.40258571"><ele>1317</ele><speed>8.25</speed><time>2016-06-21T15:46:00Z</time><pdop>3.0</pdop><geoidheight>54.00</geoidheight><course>68.0</course><type>1</type></trkpt>
      <trkpt lat="39.52507954" lon="-6.40242782"><ele>1317</ele><speed>6.75</speed><time>2016-06-21T15:46:02Z</time><pdop>3.0</pdop><geoidheight>54.00</geoidheight><course>72.5</course><type>1</type></trkpt>
      <trkpt lat="39.52510247" lon="-6.40229656"><ele>1321</ele><speed>5.75</speed><time>2016-06-21T15:46:04Z</time><pdop>4.0</pdop><geoidheight>54.00</geoidheight><course>77.4</course><type>1</type></trkpt>
      <trkpt lat="39.52504095" lon="-6.40221202"><ele>1326</ele><speed>2.75</speed><time>2016-06-21T15:46:07Z</time><pdop>3.0</pdop><geoidheight>54.00</geoidheight><course>154.9</course><type>1</type></trkpt>
      <trkpt lat="39.52494617" lon="-6.40222723"><ele>1330</ele><speed>4.50</speed><time>2016-06-21T15:46:10Z</time><pdop>3.0</pdop><geoidheight>54.00</geoidheight><course>197.6</course><type>1</type></trkpt>
      <trkpt lat="39.52490001" lon="-6.40227674"><ele>1330</ele><speed>6.50</speed><time>2016-06-21T15:46:11Z</time><pdop>3.0</pdop><geoidheight>54.00</geoidheight><course>219.2</course><type>1</type></trkpt>
      <trkpt lat="39.52486232" lon="-6.40236583"><ele>1330</ele><speed>8.50</speed><time>2016-06-21T15:46:12Z</time><pdop>3.0</pdop><geoidheight>54.00</geoidheight><course>240.2</course><type>1</type></trkpt>
      <trkpt lat="39.52485198" lon="-6.40248288"><ele>1330</ele><speed>9.75</speed><time>2016-06-21T15:46:13Z</time><pdop>3.0</pdop><geoidheight>54.00</geoidheight><course>259.4</course><type>1</type></trkpt>
      <trkpt lat="39.52491038" lon="-6.40271173"><ele>1332</ele><speed>10.00</speed><time>2016-06-21T15:46:15Z</time><pdop>3.0</pdop><geoidheight>54.00</geoidheight><course>293.7</course><type>1</type></trkpt>
      <trkpt lat="39.52495732" lon="-6.40279989"><ele>1333</ele><speed>9.50</speed><time>2016-06-21T15:46:16Z</time><pdop>4.0</pdop><geoidheight>54.00</geoidheight><course>302.3</course><type>1</type></trkpt>
      <trkpt lat="39.52501772" lon="-6.40287403"><ele>1333</ele><speed>9.25</speed><time>2016-06-21T15:46:17Z</time><pdop>4.0</pdop><geoidheight>54.00</geoidheight><course>313.2</course><type>1</type></trkpt>
      <trkpt lat="39.52517165" lon="-6.40301598"><ele>1335</ele><speed>11.00</speed><time>2016-06-21T15:46:19Z</time><pdop>3.0</pdop><geoidheight>54.00</geoidheight><course>327.1</course><type>1</type></trkpt>
      <trkpt lat="39.52526679" lon="-6.40307389"><ele>1335</ele><speed>11.75</speed><time>2016-06-21T15:46:20Z</time><pdop>3.0</pdop><geoidheight>54.00</geoidheight><course>334.4</course><type>1</type></trkpt>
      <trkpt lat="39.52536734" lon="-6.40312764"><ele>1336</ele><speed>12.25</speed><time>2016-06-21T15:46:21Z</time><pdop>3.0</pdop><geoidheight>54.00</geoidheight><course>338.8</course><type>1</type></trkpt>
      <trkpt lat="39.52557609" lon="-6.40322927"><ele>1338</ele><speed>12.50</speed><time>2016-06-21T15:46:23Z</time><pdop>3.0</pdop><geoidheight>54.00</geoidheight><course>339.9</course><type>1</type></trkpt>
      <trkpt lat="39.52578575" lon="-6.40327698"><ele>1340</ele><speed>11.75</speed><time>2016-06-21T15:46:25Z</time><pdop>3.0</pdop><geoidheight>54.00</geoidheight><course>353.7</course><type>1</type></trkpt>
      <trkpt lat="39.52598112" lon="-6.40320299"><ele>1340</ele><speed>11.25</speed><time>2016-06-21T15:46:27Z</time><pdop>3.0</pdop><geoidheight>54.00</geoidheight><course>21.7</course><type>1</type></trkpt>
      <trkpt lat="39.52605112" lon="-6.40314021"><ele>1342</ele><speed>9.50</speed><time>2016-06-21T15:46:28Z</time><pdop>3.0</pdop><geoidheight>54.00</geoidheight><course>34.0</course><type>1</type></trkpt>
      <trkpt lat="39.526094" lon="-6.40307534"><ele>1343</ele><speed>7.75</speed><time>2016-06-21T15:46:29Z</time><pdop>3.0</pdop><geoidheight>54.00</geoidheight><course>47.4</course><type>1</type></trkpt>
      <trkpt lat="39.52616356" lon="-6.40293421"><ele>1344</ele><speed>7.25</speed><time>2016-06-21T15:46:31Z</time><pdop>3.0</pdop><geoidheight>54.00</geoidheight><course>59.7</course><type>1</type></trkpt>
      <trkpt lat="39.52618892" lon="-6.4028695"><ele>1345</ele><speed>6.25</speed><time>2016-06-21T15:46:32Z</time><pdop>3.0</pdop><geoidheight>54.00</geoidheight><course>63.3</course><type>1</type></trkpt>
      <trkpt lat="39.52619619" lon="-6.40275409"><ele>1333</ele><speed>5.00</speed><time>2016-06-21T15:46:34Z</time><pdop>4.0</pdop><geoidheight>54.00</geoidheight><course>100.4</course><type>1</type></trkpt>
      <trkpt lat="39.52608063" lon="-6.40267592"><ele>1346</ele><speed>4.75</speed><time>2016-06-21T15:46:37Z</time><pdop>3.0</pdop><geoidheight>54.00</geoidheight><course>176.0</course><type>1</type></trkpt>
      <trkpt lat="39.52599817" lon="-6.40273148"><ele>1352</ele><speed>5.25</speed><time>2016-06-21T15:46:39Z</time><pdop>3.0</pdop><geoidheight>54.00</geoidheight><course>210.6</course><type>1</type></trkpt>
      <trkpt lat="39.52594015" lon="-6.40282831"><ele>1355</ele><speed>5.25</speed><time>2016-06-21T15:46:41Z</time><pdop>3.0</pdop><geoidheight>54.00</geoidheight><course>236.9</course><type>1</type></trkpt>
      <trkpt lat="39.52590934" lon="-6.4029637"><ele>1356</ele><speed>6.75</speed><time>2016-06-21T15:46:43Z</time><pdop>3.0</pdop><geoidheight>54.00</geoidheight><course>255.6</course><type>1</type></trkpt>
      <trkpt lat="39.52590608" lon="-6.40306049"><ele>1355</ele><speed>8.00</speed><time>2016-06-21T15:46:44Z</time><pdop>3.0</pdop><geoidheight>54.00</geoidheight><course>266.6</course><type>1</type></trkpt>
      <trkpt lat="39.52594055" lon="-6.40328377"><ele>1355</ele><speed>9.75</speed><time>2016-06-21T15:46:46Z</time><pdop>5.0</pdop><geoidheight>54.00</geoidheight><course>281.0</course><type>1</type></trkpt>
      <trkpt lat="39.52605277" lon="-6.40337072"><ele>1357</ele><speed>11.75</speed><time>2016-06-21T15:46:47Z</time><pdop>3.0</pdop><geoidheight>54.00</geoidheight><course>316.2</course><type>1</type></trkpt>
      <trkpt lat="39.52623974" lon="-6.40347782"><ele>1359</ele><speed>11.25</speed><time>2016-06-21T15:46:49Z</time><pdop>3.0</pdop><geoidheight>54.00</geoidheight><course>342.7</course><type>1</type></trkpt>
      <trkpt lat="39.52633725" lon="-6.40351712"><ele>1359</ele><speed>11.25</speed><time>2016-06-21T15:46:50Z</time><pdop>5.0</pdop><geoidheight>54.00</geoidheight><course>342.7</course><type>1</type></trkpt>
      <trkpt lat="39.52643452" lon="-6.40350409"><ele>1359</ele><speed>11.25</speed><time>2016-06-21T15:46:51Z</time><pdop>4.0</pdop><geoidheight>54.00</geoidheight><course>356.9</course><type>1</type></trkpt>
      <trkpt lat="39.52654119" lon="-6.40349735"><ele>1359</ele><speed>11.75</speed><time>2016-06-21T15:46:52Z</time><pdop>3.0</pdop><geoidheight>54.00</geoidheight><course>2.1</course><type>1</type></trkpt>
      <trkpt lat="39.52663834" lon="-6.40347291"><ele>1360</ele><speed>11.25</speed><time>2016-06-21T15:46:53Z</time><pdop>3.0</pdop><geoidheight>54.00</geoidheight><course>10.4</course><type>1</type></trkpt>
      <trkpt lat="39.52680554" lon="-6.40338266"><ele>1361</ele><speed>10.25</speed><time>2016-06-21T15:46:55Z</time><pdop>5.0</pdop><geoidheight>54.00</geoidheight><course>22.1</course><type>1</type></trkpt>
      <trkpt lat="39.52689604" lon="-6.40317971"><ele>1361</ele><speed>6.50</speed><time>2016-06-21T15:46:58Z</time><pdop>3.0</pdop><geoidheight>54.00</geoidheight><course>57.6</course><type>1</type></trkpt>
      <trkpt lat="39.52694381" lon="-6.40304698"><ele>1361</ele><speed>6.50</speed><time>2016-06-21T15:47:00Z</time><pdop>3.0</pdop><geoidheight>54.00</geoidheight><course>66.0</course><type>1</type></trkpt>
      <trkpt lat="39.52696298" lon="-6.40297642"><ele>1363</ele><speed>6.25</speed><time>2016-06-21T15:47:01Z</time><pdop>3.0</pdop><geoidheight>54.00</geoidheight><course>72.3</course><type>1</type></trkpt>
      <trkpt lat="39.52697724" lon="-6.40285557"><ele>1365</ele><speed>4.50</speed><time>2016-06-21T15:47:03Z</time><pdop>3.0</pdop><geoidheight>54.00</geoidheight><course>84.8</course><type>1</type></trkpt>
      <trkpt lat="39.52691604" lon="-6.40272332"><ele>1366</ele><speed>5.00</speed><time>2016-06-21T15:47:06Z</time><pdop>3.0</pdop><geoidheight>54.00</geoidheight><course>131.6</course><type>1</type></trkpt>
      <trkpt lat="39.52678494" lon="-6.40268245"><ele>1368</ele><speed>5.50</speed><time>2016-06-21T15:47:09Z</time><pdop>3.0</pdop><geoidheight>54.00</geoidheight><course>188.1</course><type>1</type></trkpt>
      <trkpt lat="39.52673924" lon="-6.40272681"><ele>1369</ele><speed>6.25</speed><time>2016-06-21T15:47:10Z</time><pdop>3.0</pdop><geoidheight>54.00</geoidheight><course>211.3</course><type>1</type></trkpt>
      <trkpt lat="39.52667776" lon="-6.40287753"><ele>1371</ele><speed>7.50</speed><time>2016-06-21T15:47:12Z</time><pdop>3.0</pdop><geoidheight>54.00</geoidheight><course>245.3</course><type>1</type></trkpt>
      <trkpt lat="39.5266915" lon="-6.40306321"><ele>1372</ele><speed>8.50</speed><time>2016-06-21T15:47:14Z</time><pdop>3.0</pdop><geoidheight>54.00</geoidheight><course>281.2</course><type>1</type></trkpt>
      <trkpt lat="39.52673205" lon="-6.40317212"><ele>1372</ele><speed>9.75</speed><time>2016-06-21T15:47:15Z</time><pdop>4.0</pdop><geoidheight>54.00</geoidheight><course>293.9</course><type>1</type></trkpt>
      <trkpt lat="39.52688058" lon="-6.40336284"><ele>1371</ele><speed>12.25</speed><time>2016-06-21T15:47:17Z</time><pdop>3.0</pdop><geoidheight>54.00</geoidheight><course>318.7</course><type>1</type></trkpt>
      <trkpt lat="39.52709226" lon="-6.40346733"><ele>1364</ele><speed>12.75</speed><time>2016-06-21T15:47:19Z</time><pdop>4.0</pdop><geoidheight>54.00</geoidheight><course>344.6</course><type>1</type></trkpt>
      <trkpt lat="39.52720228" lon="-6.40350643"><ele>1364</ele><speed>12.75</speed><time>2016-06-21T15:47:20Z</time><pdop>5.0</pdop><geoidheight>54.00</geoidheight><course>344.6</course><type>1</type></trkpt>
      <trkpt lat="39.52730981" lon="-6.40344838"><ele>1369</ele><speed>12.00</speed><time>2016-06-21T15:47:21Z</time><pdop>3.0</pdop><geoidheight>54.00</geoidheight><course>8.1</course><type>1</type></trkpt>
      <trkpt lat="39.52740926" lon="-6.40340156"><ele>1370</ele><speed>11.75</speed><time>2016-06-21T15:47:22Z</time><pdop>3.0</pdop><geoidheight>54.00</geoidheight><course>18.7</course><type>1</type></trkpt>
      <trkpt lat="39.52749704" lon="-6.40333076"><ele>1370</ele><speed>11.50</speed><time>2016-06-21T15:47:23Z</time><pdop>3.0</pdop><geoidheight>54.00</geoidheight><course>29.6</course><type>1</type></trkpt>
      <trkpt lat="39.52762769" lon="-6.40316187"><ele>1372</ele><speed>9.75</speed><time>2016-06-21T15:47:25Z</time><pdop>3.0</pdop><geoidheight>54.00</geoidheight><course>50.2</course><type>1</type></trkpt>
      <trkpt lat="39.52768522" lon="-6.40299611"><ele>1374</ele><speed>7.75</speed><time>2016-06-21T15:47:27Z</time><pdop>4.0</pdop><geoidheight>54.00</geoidheight><course>65.5</course><type>1</type></trkpt>
      <trkpt lat="39.52760553" lon="-6.40291909"><ele>1373</ele><speed>4.50</speed><time>2016-06-21T15:47:29Z</time><pdop>3.0</pdop><geoidheight>54.00</geoidheight><course>139.7</course><type>1</type></trkpt>
      <trkpt lat="39.52751296" lon="-6.40290606"><ele>1374</ele><speed>5.50</speed><time>2016-06-21T15:47:31Z</time><pdop>3.0</pdop><geoidheight>54.00</geoidheight><course>179.5</course><type>1</type></trkpt>
      <trkpt lat="39.52746496" lon="-6.40294067"><ele>1373</ele><speed>6.00</speed><time>2016-06-21T15:47:32Z</time><pdop>3.0</pdop><geoidheight>54.00</geoidheight><course>202.1</course><type>1</type></trkpt>
      <trkpt lat="39.52742162" lon="-6.40299681"><ele>1373</ele><speed>6.75</speed><time>2016-06-21T15:47:33Z</time><pdop>3.0</pdop><geoidheight>54.00</geoidheight><course>222.9</course><type>1</type></trkpt>
      <trkpt lat="39.52738545" lon="-6.40307715"><ele>1372</ele><speed>7.75</speed><time>2016-06-21T15:47:34Z</time><pdop>3.0</pdop><geoidheight>54.00</geoidheight><course>240.2</course><type>1</type></trkpt>
      <trkpt lat="39.52736966" lon="-6.40319036"><ele>1372</ele><speed>9.25</speed><time>2016-06-21T15:47:35Z</time><pdop>3.0</pdop><geoidheight>54.00</geoidheight><course>257.4</course><type>1</type></trkpt>
      <trkpt lat="39.52738544" lon="-6.40331239"><ele>1373</ele><speed>10.25</speed><time>2016-06-21T15:47:36Z</time><pdop>3.0</pdop><geoidheight>54.00</geoidheight><course>276.1</course><type>1</type></trkpt>
      <trkpt lat="39.52742995" lon="-6.40342295"><ele>1373</ele><speed>11.00</speed><time>2016-06-21T15:47:37Z</time><pdop>3.0</pdop><geoidheight>54.00</geoidheight><course>294.2</course><type>1</type></trkpt>
      <trkpt lat="39.52748742" lon="-6.40352612"><ele>1374</ele><speed>11.00</speed><time>2016-06-21T15:47:38Z</time><pdop>4.0</pdop><geoidheight>54.00</geoidheight><course>304.5</course><type>1</type></trkpt>
      <trkpt lat="39.52764062" lon="-6.40368527"><ele>1375</ele><speed>10.75</speed><time>2016-06-21T15:47:40Z</time><pdop>4.0</pdop><geoidheight>54.00</geoidheight><course>321.5</course><type>1</type></trkpt>
      <trkpt lat="39.52771883" lon="-6.4037547"><ele>1375</ele><speed>11.00</speed><time>2016-06-21T15:47:41Z</time><pdop>3.0</pdop><geoidheight>54.00</geoidheight><course>324.5</course><type>1</type></trkpt>
      <trkpt lat="39.52780819" lon="-6.40382021"><ele>1374</ele><speed>11.50</speed><time>2016-06-21T15:47:42Z</time><pdop>3.0</pdop><geoidheight>54.00</geoidheight><course>330.5</course><type>1</type></trkpt>
      <trkpt lat="39.52803176" lon="-6.40389113"><ele>1372</ele><speed>13.25</speed><time>2016-06-21T15:47:44Z</time><pdop>3.0</pdop><geoidheight>54.00</geoidheight><course>351.1</course><type>1</type></trkpt>
      <trkpt lat="39.52815539" lon="-6.40388388"><ele>1372</ele><speed>13.75</speed><time>2016-06-21T15:47:45Z</time><pdop>3.0</pdop><geoidheight>54.00</geoidheight><course>1.7</course><type>1</type></trkpt>
      <trkpt lat="39.52838308" lon="-6.40378188"><ele>1373</ele><speed>12.75</speed><time>2016-06-21T15:47:47Z</time><pdop>3.0</pdop><geoidheight>54.00</geoidheight><course>21.4</course><type>1</type></trkpt>
      <trkpt lat="39.52853751" lon="-6.40364114"><ele>1373</ele><speed>9.75</speed><time>2016-06-21T15:47:49Z</time><pdop>3.0</pdop><geoidheight>54.00</geoidheight><course>39.9</course><type>1</type></trkpt>
      <trkpt lat="39.52860526" lon="-6.40356806"><ele>1373</ele><speed>9.75</speed><time>2016-06-21T15:47:50Z</time><pdop>5.0</pdop><geoidheight>54.00</geoidheight><course>39.9</course><type>1</type></trkpt>
      <trkpt lat="39.52867156" lon="-6.40335033"><ele>1371</ele><speed>6.50</speed><time>2016-06-21T15:47:53Z</time><pdop>3.0</pdop><geoidheight>54.00</geoidheight><course>77.1</course><type>1</type></trkpt>
      <trkpt lat="39.52863706" lon="-6.40323279"><ele>1372</ele><speed>5.25</speed><time>2016-06-21T15:47:55Z</time><pdop>3.0</pdop><geoidheight>54.00</geoidheight><course>122.9</course><type>1</type></trkpt>
      <trkpt lat="39.52850298" lon="-6.40328277"><ele>1372</ele><speed>6.25</speed><time>2016-06-21T15:47:58Z</time><pdop>3.0</pdop><geoidheight>54.00</geoidheight><course>218.3</course><type>1</type></trkpt>
      <trkpt lat="39.52846705" lon="-6.40335243"><ele>1372</ele><speed>7.25</speed><time>2016-06-21T15:47:59Z</time><pdop>3.0</pdop><geoidheight>54.00</geoidheight><course>233.2</course><type>1</type></trkpt>
      <trkpt lat="39.5284295" lon="-6.40355207"><ele>1372</ele><speed>9.25</speed><time>2016-06-21T15:48:01Z</time><pdop>3.0</pdop><geoidheight>54.00</geoidheight><course>261.3</course><type>1</type></trkpt>
      <trkpt lat="39.52846341" lon="-6.40381516"><ele>1370</ele><speed>11.75</speed><time>2016-06-21T15:48:03Z</time><pdop>3.0</pdop><geoidheight>54.00</geoidheight><course>281.8</course><type>1</type></trkpt>
      <trkpt lat="39.52851078" lon="-6.40394795"><ele>1369</ele><speed>12.25</speed><time>2016-06-21T15:48:04Z</time><pdop>3.0</pdop><geoidheight>54.00</geoidheight><course>293.7</course><type>1</type></trkpt>
      <trkpt lat="39.52866845" lon="-6.40415295"><ele>1369</ele><speed>12.50</speed><time>2016-06-21T15:48:06Z</time><pdop>3.0</pdop><geoidheight>54.00</geoidheight><course>319.4</course><type>1</type></trkpt>
      <trkpt lat="39.52885338" lon="-6.40430112"><ele>1370</ele><speed>12.25</speed><time>2016-06-21T15:48:08Z</time><pdop>4.0</pdop><geoidheight>54.00</geoidheight><course>328.4</course><type>1</type></trkpt>
      <trkpt lat="39.52896161" lon="-6.40434596"><ele>1370</ele><speed>12.50</speed><time>2016-06-21T15:48:09Z</time><pdop>3.0</pdop><geoidheight>54.00</geoidheight><course>337.5</course><type>1</type></trkpt>
      <trkpt lat="39.52906965" lon="-6.40439494"><ele>1371</ele><speed>12.75</speed><time>2016-06-21T15:48:10Z</time><pdop>3.0</pdop><geoidheight>54.00</geoidheight><course>341.6</course><type>1</type></trkpt>
      <trkpt lat="39.52929402" lon="-6.40444792"><ele>1372</ele><speed>12.50</speed><time>2016-06-21T15:48:12Z</time><pdop>3.0</pdop><geoidheight>54.00</geoidheight><course>350.7</course><type>1</type></trkpt>
      <trkpt lat="39.52940606" lon="-6.40447165"><ele>1372</ele><speed>12.50</speed><time>2016-06-21T15:48:13Z</time><pdop>5.0</pdop><geoidheight>54.00</geoidheight><course>350.7</course><type>1</type></trkpt>
      <trkpt lat="39.52952716" lon="-6.40446673"><ele>1372</ele><speed>13.25</speed><time>2016-06-21T15:48:14Z</time><pdop>3.0</pdop><geoidheight>54.00</geoidheight><course>357.5</course><type>1</type></trkpt>
      <trkpt lat="39.52976238" lon="-6.4044603"><ele>1373</ele><speed>13.25</speed><time>2016-06-21T15:48:16Z</time><pdop>3.0</pdop><geoidheight>54.00</geoidheight><course>1.5</course><type>1</type></trkpt>
      <trkpt lat="39.52988122" lon="-6.40445122"><ele>1373</ele><speed>13.25</speed><time>2016-06-21T15:48:17Z</time><pdop>3.0</pdop><geoidheight>54.00</geoidheight><course>3.5</course><type>1</type></trkpt>
      <trkpt lat="39.52999243" lon="-6.40442395"><ele>1373</ele><speed>13.00</speed><time>2016-06-21T15:48:18Z</time><pdop>3.0</pdop><geoidheight>54.00</geoidheight><course>8.6</course><type>1</type></trkpt>
      <trkpt lat="39.53009126" lon="-6.40437886"><ele>1374</ele><speed>11.75</speed><time>2016-06-21T15:48:19Z</time><pdop>3.0</pdop><geoidheight>54.00</geoidheight><course>18.4</course><type>1</type></trkpt>
      <trkpt lat="39.53024434" lon="-6.40424193"><ele>1374</ele><speed>9.75</speed><time>2016-06-21T15:48:21Z</time><pdop>3.0</pdop><geoidheight>54.00</geoidheight><course>37.8</course><type>1</type></trkpt>
      <trkpt lat="39.53029285" lon="-6.40417281"><ele>1375</ele><speed>8.25</speed><time>2016-06-21T15:48:22Z</time><pdop>3.0</pdop><geoidheight>54.00</geoidheight><course>45.1</course><type>1</type></trkpt>
      <trkpt lat="39.53032859" lon="-6.40410718"><ele>1375</ele><speed>7.00</speed><time>2016-06-21T15:48:23Z</time><pdop>3.0</pdop><geoidheight>54.00</geoidheight><course>53.8</course><type>1</type></trkpt>
      <trkpt lat="39.53035668" lon="-6.40398114"><ele>1374</ele><speed>5.25</speed><time>2016-06-21T15:48:25Z</time><pdop>3.0</pdop><geoidheight>54.00</geoidheight><course>84.0</course><type>1</type></trkpt>
      <trkpt lat="39.53033256" lon="-6.40390546"><ele>1373</ele><speed>2.75</speed><time>2016-06-21T15:48:27Z</time><pdop>3.0</pdop><geoidheight>54.00</geoidheight><course>125.3</course><type>1</type></trkpt>
      <trkpt lat="39.5302417" lon="-6.40390027"><ele>1371</ele><speed>4.25</speed><time>2016-06-21T15:48:30Z</time><pdop>4.0</pdop><geoidheight>54.00</geoidheight><course>183.3</course><type>1</type></trkpt>
      <trkpt lat="39.53016727" lon="-6.40395024"><ele>1370</ele><speed>4.75</speed><time>2016-06-21T15:48:32Z</time><pdop>4.0</pdop><geoidheight>54.00</geoidheight><course>214.4</course><type>1</type></trkpt>
      <trkpt lat="39.53012132" lon="-6.40410569"><ele>1367</ele><speed>7.75</speed><time>2016-06-21T15:48:34Z</time><pdop>3.0</pdop><geoidheight>54.00</geoidheight><course>252.8</course><type>1</type></trkpt>
      <trkpt lat="39.53010786" lon="-6.40421426"><ele>1366</ele><speed>9.00</speed><time>2016-06-21T15:48:35Z</time><pdop>3.0</pdop><geoidheight>54.00</geoidheight><course>259.9</course><type>1</type></trkpt>
      <trkpt lat="39.53011118" lon="-6.40431946"><ele>1367</ele><speed>9.00</speed><time>2016-06-21T15:48:36Z</time><pdop>3.0</pdop><geoidheight>54.00</geoidheight><course>270.0</course><type>1</type></trkpt>
      <trkpt lat="39.53019466" lon="-6.40452118"><ele>1365</ele><speed>10.25</speed><time>2016-06-21T15:48:38Z</time><pdop>3.0</pdop><geoidheight>54.00</geoidheight><course>304.3</course><type>1</type></trkpt>
      <trkpt lat="39.53039145" lon="-6.40471662"><ele>1364</ele><speed>14.25</speed><time>2016-06-21T15:48:40Z</time><pdop>3.0</pdop><geoidheight>54.00</geoidheight><course>325.5</course><type>1</type></trkpt>
      <trkpt lat="39.53050778" lon="-6.40478924"><ele>1366</ele><speed>14.50</speed><time>2016-06-21T15:48:41Z</time><pdop>3.0</pdop><geoidheight>54.00</geoidheight><course>333.2</course><type>1</type></trkpt>
      <trkpt lat="39.53072847" lon="-6.40488119"><ele>1368</ele><speed>12.75</speed><time>2016-06-21T15:48:43Z</time><pdop>4.0</pdop><geoidheight>54.00</geoidheight><course>344.9</course><type>1</type></trkpt>
      <trkpt lat="39.53083971" lon="-6.40492001"><ele>1369</ele><speed>12.75</speed><time>2016-06-21T15:48:44Z</time><pdop>6.0</pdop><geoidheight>54.00</geoidheight><course>344.9</course><type>1</type></trkpt>
      <trkpt lat="39.53094644" lon="-6.40495156"><ele>1368</ele><speed>12.50</speed><time>2016-06-21T15:48:45Z</time><pdop>3.0</pdop><geoidheight>54.00</geoidheight><course>346.1</course><type>1</type></trkpt>
      <trkpt lat="39.53105466" lon="-6.40499275"><ele>1369</ele><speed>12.75</speed><time>2016-06-21T15:48:46Z</time><pdop>3.0</pdop><geoidheight>54.00</geoidheight><course>343.9</course><type>1</type></trkpt>
      <trkpt lat="39.53125848" lon="-6.405093"><ele>1370</ele><speed>12.00</speed><time>2016-06-21T15:48:48Z</time><pdop>4.0</pdop><geoidheight>54.00</geoidheight><course>337.8</course><type>1</type></trkpt>
      <trkpt lat="39.53135107" lon="-6.40515851"><ele>1370</ele><speed>11.75</speed><time>2016-06-21T15:48:49Z</time><pdop>4.0</pdop><geoidheight>54.00</geoidheight><course>331.6</course><type>1</type></trkpt>
      <trkpt lat="39.5314432" lon="-6.40524255"><ele>1370</ele><speed>12.25</speed><time>2016-06-21T15:48:50Z</time><pdop>4.0</pdop><geoidheight>54.00</geoidheight><course>324.9</course><type>1</type></trkpt>
      <trkpt lat="39.53161945" lon="-6.4054365"><ele>1374</ele><speed>12.50</speed><time>2016-06-21T15:48:52Z</time><pdop>3.0</pdop><geoidheight>54.00</geoidheight><course>319.2</course><type>1</type></trkpt>
      <trkpt lat="39.53169854" lon="-6.40552454"><ele>1376</ele><speed>11.50</speed><time>2016-06-21T15:48:53Z</time><pdop>3.0</pdop><geoidheight>54.00</geoidheight><course>319.6</course><type>1</type></trkpt>
      <trkpt lat="39.53187587" lon="-6.40567645"><ele>1379</ele><speed>12.00</speed><time>2016-06-21T15:48:55Z</time><pdop>3.0</pdop><geoidheight>54.00</geoidheight><course>328.3</course><type>1</type></trkpt>
      <trkpt lat="39.53196968" lon="-6.40572851"><ele>1381</ele><speed>11.75</speed><time>2016-06-21T15:48:56Z</time><pdop>3.0</pdop><geoidheight>54.00</geoidheight><course>334.3</course><type>1</type></trkpt>
      <trkpt lat="39.53216872" lon="-6.40582078"><ele>1387</ele><speed>11.75</speed><time>2016-06-21T15:48:58Z</time><pdop>5.0</pdop><geoidheight>54.00</geoidheight><course>340.9</course><type>1</type></trkpt>
      <trkpt lat="39.53226938" lon="-6.40583518"><ele>1391</ele><speed>11.25</speed><time>2016-06-21T15:48:59Z</time><pdop>3.0</pdop><geoidheight>54.00</geoidheight><course>349.5</course><type>1</type></trkpt>
      <trkpt lat="39.53246008" lon="-6.40586689"><ele>1397</ele><speed>10.25</speed><time>2016-06-21T15:49:01Z</time><pdop>3.0</pdop><geoidheight>54.00</geoidheight><course>352.2</course><type>1</type></trkpt>
      <trkpt lat="39.53254761" lon="-6.40586721"><ele>1400</ele><speed>9.50</speed><time>2016-06-21T15:49:02Z</time><pdop>3.0</pdop><geoidheight>54.00</geoidheight><course>359.2</course><type>1</type></trkpt>
      <trkpt lat="39.53263047" lon="-6.40584207"><ele>1388</ele><speed>9.25</speed><time>2016-06-21T15:49:03Z</time><pdop>3.0</pdop><geoidheight>54.00</geoidheight><course>10.9</course><type>1</type></trkpt>
      <trkpt lat="39.53279501" lon="-6.40574568"><ele>1393</ele><speed>10.00</speed><time>2016-06-21T15:49:05Z</time><pdop>6.0</pdop><geoidheight>54.00</geoidheight><course>23.4</course><type>1</type></trkpt>
      <trkpt lat="39.53286374" lon="-6.40560318"><ele>1400</ele><speed>11.25</speed><time>2016-06-21T15:49:06Z</time><pdop>3.0</pdop><geoidheight>54.00</geoidheight><course>46.0</course><type>1</type></trkpt>
      <trkpt lat="39.53294655" lon="-6.40541146"><ele>1403</ele><speed>8.75</speed><time>2016-06-21T15:49:08Z</time><pdop>3.0</pdop><geoidheight>54.00</geoidheight><course>64.5</course><type>1</type></trkpt>
      <trkpt lat="39.53298018" lon="-6.40532029"><ele>1404</ele><speed>8.75</speed><time>2016-06-21T15:49:09Z</time><pdop>4.0</pdop><geoidheight>54.00</geoidheight><course>64.5</course><type>1</type></trkpt>
      <trkpt lat="39.53295352" lon="-6.40522422"><ele>1404</ele><speed>8.25</speed><time>2016-06-21T15:49:10Z</time><pdop>3.0</pdop><geoidheight>54.00</geoidheight><course>94.4</course><type>1</type></trkpt>
      <trkpt lat="39.53288854" lon="-6.40503958"><ele>1408</ele><speed>8.50</speed><time>2016-06-21T15:49:12Z</time><pdop>3.0</pdop><geoidheight>54.00</geoidheight><course>119.0</course><type>1</type></trkpt>
      <trkpt lat="39.53284536" lon="-6.40497058"><ele>1410</ele><speed>7.50</speed><time>2016-06-21T15:49:13Z</time><pdop>3.0</pdop><geoidheight>54.00</geoidheight><course>128.8</course><type>1</type></trkpt>
      <trkpt lat="39.5328046" lon="-6.40491729"><ele>1413</ele><speed>6.50</speed><time>2016-06-21T15:49:14Z</time><pdop>3.0</pdop><geoidheight>54.00</geoidheight><course>135.9</course><type>1</type></trkpt>
      <trkpt lat="39.53274779" lon="-6.40484208"><ele>1417</ele><speed>4.25</speed><time>2016-06-21T15:49:16Z</time><pdop>3.0</pdop><geoidheight>54.00</geoidheight><course>130.3</course><type>1</type></trkpt>
      <trkpt lat="39.53269142" lon="-6.40478288"><ele>1418</ele><speed>4.00</speed><time>2016-06-21T15:49:18Z</time><pdop>3.0</pdop><geoidheight>54.00</geoidheight><course>149.1</course><type>1</type></trkpt>
      <trkpt lat="39.53260786" lon="-6.40482933"><ele>1418</ele><speed>5.75</speed><time>2016-06-21T15:49:20Z</time><pdop>3.0</pdop><geoidheight>54.00</geoidheight><course>215.1</course><type>1</type></trkpt>
      <trkpt lat="39.53257912" lon="-6.40491438"><ele>1418</ele><speed>7.50</speed><time>2016-06-21T15:49:21Z</time><pdop>3.0</pdop><geoidheight>54.00</geoidheight><course>239.8</course><type>1</type></trkpt>
      <trkpt lat="39.53256534" lon="-6.40501149"><ele>1418</ele><speed>8.50</speed><time>2016-06-21T15:49:22Z</time><pdop>3.0</pdop><geoidheight>54.00</geoidheight><course>257.1</course><type>1</type></trkpt>
      <trkpt lat="39.53257042" lon="-6.40511895"><ele>1419</ele><speed>8.75</speed><time>2016-06-21T15:49:23Z</time><pdop>3.0</pdop><geoidheight>54.00</geoidheight><course>271.6</course><type>1</type></trkpt>
      <trkpt lat="39.53262377" lon="-6.40532685"><ele>1420</ele><speed>9.25</speed><time>2016-06-21T15:49:25Z</time><pdop>3.0</pdop><geoidheight>54.00</geoidheight><course>292.1</course><type>1</type></trkpt>
      <trkpt lat="39.53267165" lon="-6.40542317"><ele>1419</ele><speed>9.75</speed><time>2016-06-21T15:49:26Z</time><pdop>4.0</pdop><geoidheight>54.00</geoidheight><course>301.2</course><type>1</type></trkpt>
      <trkpt lat="39.53274505" lon="-6.40552114"><ele>1418</ele><speed>11.25</speed><time>2016-06-21T15:49:27Z</time><pdop>3.0</pdop><geoidheight>54.00</geoidheight><course>311.2</course><type>1</type></trkpt>
      <trkpt lat="39.53291342" lon="-6.40573266"><ele>1421</ele><speed>13.00</speed><time>2016-06-21T15:49:29Z</time><pdop>3.0</pdop><geoidheight>54.00</geoidheight><course>317.3</course><type>1</type></trkpt>
      <trkpt lat="39.53300182" lon="-6.40581369"><ele>1423</ele><speed>12.25</speed><time>2016-06-21T15:49:30Z</time><pdop>3.0</pdop><geoidheight>54.00</geoidheight><course>324.3</course><type>1</type></trkpt>
      <trkpt lat="39.53318743" lon="-6.40594042"><ele>1425</ele><speed>11.50</speed><time>2016-06-21T15:49:32Z</time><pdop>3.0</pdop><geoidheight>54.00</geoidheight><course>332.8</course><type>1</type></trkpt>
      <trkpt lat="39.53328774" lon="-6.40599806"><ele>1426</ele><speed>12.00</speed><time>2016-06-21T15:49:33Z</time><pdop>3.0</pdop><geoidheight>54.00</geoidheight><course>334.5</course><type>1</type></trkpt>
      <trkpt lat="39.53367299" lon="-6.40617183"><ele>1429</ele><speed>10.00</speed><time>2016-06-21T15:49:37Z</time><pdop>3.0</pdop><geoidheight>54.00</geoidheight><course>344.5</course><type>1</type></trkpt>
      <trkpt lat="39.533756" lon="-6.40619838"><ele>1431</ele><speed>9.50</speed><time>2016-06-21T15:49:38Z</time><pdop>3.0</pdop><geoidheight>54.00</geoidheight><course>345.9</course><type>1</type></trkpt>
      <trkpt lat="39.53403641" lon="-6.40625485"><ele>1435</ele><speed>11.75</speed><time>2016-06-21T15:49:41Z</time><pdop>3.0</pdop><geoidheight>54.00</geoidheight><course>356.6</course><type>1</type></trkpt>
      <trkpt lat="39.53415081" lon="-6.4062267"><ele>1437</ele><speed>12.75</speed><time>2016-06-21T15:49:42Z</time><pdop>3.0</pdop><geoidheight>54.00</geoidheight><course>9.9</course><type>1</type></trkpt>
      <trkpt lat="39.53425152" lon="-6.40616215"><ele>1440</ele><speed>12.50</speed><time>2016-06-21T15:49:43Z</time><pdop>3.0</pdop><geoidheight>54.00</geoidheight><course>24.1</course><type>1</type></trkpt>
      <trkpt lat="39.53439856" lon="-6.40600316"><ele>1444</ele><speed>10.00</speed><time>2016-06-21T15:49:45Z</time><pdop>3.0</pdop><geoidheight>54.00</geoidheight><course>42.8</course><type>1</type></trkpt>
      <trkpt lat="39.53446461" lon="-6.40592421"><ele>1446</ele><speed>10.00</speed><time>2016-06-21T15:49:46Z</time><pdop>4.0</pdop><geoidheight>54.00</geoidheight><course>42.8</course><type>1</type></trkpt>
      <trkpt lat="39.53448736" lon="-6.40582747"><ele>1444</ele><speed>8.75</speed><time>2016-06-21T15:49:47Z</time><pdop>3.0</pdop><geoidheight>54.00</geoidheight><course>62.0</course><type>1</type></trkpt>
      <trkpt lat="39.53450282" lon="-6.40572884"><ele>1443</ele><speed>9.00</speed><time>2016-06-21T15:49:48Z</time><pdop>3.0</pdop><geoidheight>54.00</geoidheight><course>77.5</course><type>1</type></trkpt>
      <trkpt lat="39.53449852" lon="-6.40562481"><ele>1443</ele><speed>9.00</speed><time>2016-06-21T15:49:49Z</time><pdop>4.0</pdop><geoidheight>54.00</geoidheight><course>91.6</course><type>1</type></trkpt>
      <trkpt lat="39.5344149" lon="-6.40547256"><ele>1436</ele><speed>7.50</speed><time>2016-06-21T15:49:51Z</time><pdop>3.0</pdop><geoidheight>54.00</geoidheight><course>131.7</course><type>1</type></trkpt>
      <trkpt lat="39.53436174" lon="-6.40544267"><ele>1440</ele><speed>6.25</speed><time>2016-06-21T15:49:52Z</time><pdop>3.0</pdop><geoidheight>54.00</geoidheight><course>152.4</course><type>1</type></trkpt>
      <trkpt lat="39.53422308" lon="-6.40547204"><ele>1445</ele><speed>5.50</speed><time>2016-06-21T15:49:55Z</time><pdop>3.0</pdop><geoidheight>54.00</geoidheight><course>204.6</course><type>1</type></trkpt>
      <trkpt lat="39.53415911" lon="-6.40557363"><ele>1447</ele><speed>5.75</speed><time>2016-06-21T15:49:57Z</time><pdop>3.0</pdop><geoidheight>54.00</geoidheight><course>235.5</course><type>1</type></trkpt>
      <trkpt lat="39.53414218" lon="-6.40574408"><ele>1446</ele><speed>8.00</speed><time>2016-06-21T15:49:59Z</time><pdop>3.0</pdop><geoidheight>54.00</geoidheight><course>265.8</course><type>1</type></trkpt>
      <trkpt lat="39.53415198" lon="-6.40584337"><ele>1446</ele><speed>8.50</speed><time>2016-06-21T15:50:00Z</time><pdop>3.0</pdop><geoidheight>54.00</geoidheight><course>276.5</course><type>1</type></trkpt>
      <trkpt lat="39.53417532" lon="-6.40593597"><ele>1447</ele><speed>8.50</speed><time>2016-06-21T15:50:01Z</time><pdop>3.0</pdop><geoidheight>54.00</geoidheight><course>287.6</course><type>1</type></trkpt>
      <trkpt lat="39.53428212" lon="-6.40612677"><ele>1448</ele><speed>10.50</speed><time>2016-06-21T15:50:03Z</time><pdop>4.0</pdop><geoidheight>54.00</geoidheight><course>307.1</course><type>1</type></trkpt>
      <trkpt lat="39.53436247" lon="-6.40622649"><ele>1448</ele><speed>12.00</speed><time>2016-06-21T15:50:04Z</time><pdop>3.0</pdop><geoidheight>54.00</geoidheight><course>314.4</course><type>1</type></trkpt>
      <trkpt lat="39.53445005" lon="-6.40632563"><ele>1448</ele><speed>12.50</speed><time>2016-06-21T15:50:05Z</time><pdop>3.0</pdop><geoidheight>54.00</geoidheight><course>317.7</course><type>1</type></trkpt>
      <trkpt lat="39.53462775" lon="-6.40649943"><ele>1451</ele><speed>12.25</speed><time>2016-06-21T15:50:07Z</time><pdop>3.0</pdop><geoidheight>54.00</geoidheight><course>324.3</course><type>1</type></trkpt>
      <trkpt lat="39.53471756" lon="-6.40656593"><ele>1454</ele><speed>11.75</speed><time>2016-06-21T15:50:08Z</time><pdop>3.0</pdop><geoidheight>54.00</geoidheight><course>331.2</course><type>1</type></trkpt>
      <trkpt lat="39.53481353" lon="-6.40660814"><ele>1457</ele><speed>11.00</speed><time>2016-06-21T15:50:09Z</time><pdop>4.0</pdop><geoidheight>54.00</geoidheight><course>339.9</course><type>1</type></trkpt>
      <trkpt lat="39.5349927" lon="-6.4066403"><ele>1461</ele><speed>10.50</speed><time>2016-06-21T15:50:11Z</time><pdop>3.0</pdop><geoidheight>54.00</geoidheight><course>353.5</course><type>1</type></trkpt>
      <trkpt lat="39.53509219" lon="-6.40665946"><ele>1463</ele><speed>11.25</speed><time>2016-06-21T15:50:12Z</time><pdop>3.0</pdop><geoidheight>54.00</geoidheight><course>352.0</course><type>1</type></trkpt>
      <trkpt lat="39.53519452" lon="-6.40668399"><ele>1466</ele><speed>11.50</speed><time>2016-06-21T15:50:13Z</time><pdop>3.0</pdop><geoidheight>54.00</geoidheight><course>348.0</course><type>1</type></trkpt>
      <trkpt lat="39.53529166" lon="-6.40671703"><ele>1467</ele><speed>11.25</speed><time>2016-06-21T15:50:14Z</time><pdop>4.0</pdop><geoidheight>54.00</geoidheight><course>345.3</course><type>1</type></trkpt>
      <trkpt lat="39.53546006" lon="-6.40681086"><ele>1467</ele><speed>10.00</speed><time>2016-06-21T15:50:16Z</time><pdop>4.0</pdop><geoidheight>54.00</geoidheight><course>338.6</course><type>1</type></trkpt>
      <trkpt lat="39.53561067" lon="-6.4069455"><ele>1468</ele><speed>10.25</speed><time>2016-06-21T15:50:18Z</time><pdop>3.0</pdop><geoidheight>54.00</geoidheight><course>329.1</course><type>1</type></trkpt>
      <trkpt lat="39.53568973" lon="-6.40699917"><ele>1468</ele><speed>10.50</speed><time>2016-06-21T15:50:19Z</time><pdop>3.0</pdop><geoidheight>54.00</geoidheight><course>331.7</course><type>1</type></trkpt>
      <trkpt lat="39.53585855" lon="-6.40704486"><ele>1468</ele><speed>9.75</speed><time>2016-06-21T15:50:21Z</time><pdop>3.0</pdop><geoidheight>54.00</geoidheight><course>356.0</course><type>1</type></trkpt>
      <trkpt lat="39.53594404" lon="-6.40701605"><ele>1468</ele><speed>10.25</speed><time>2016-06-21T15:50:22Z</time><pdop>4.0</pdop><geoidheight>54.00</geoidheight><course>14.3</course><type>1</type></trkpt>
      <trkpt lat="39.53601517" lon="-6.40694429"><ele>1467</ele><speed>10.25</speed><time>2016-06-21T15:50:23Z</time><pdop>3.0</pdop><geoidheight>54.00</geoidheight><course>33.5</course><type>1</type></trkpt>
      <trkpt lat="39.53606812" lon="-6.40683906"><ele>1466</ele><speed>10.25</speed><time>2016-06-21T15:50:24Z</time><pdop>3.0</pdop><geoidheight>54.00</geoidheight><course>49.8</course><type>1</type></trkpt>
      <trkpt lat="39.53612334" lon="-6.40664279"><ele>1467</ele><speed>8.75</speed><time>2016-06-21T15:50:26Z</time><pdop>3.0</pdop><geoidheight>54.00</geoidheight><course>72.6</course><type>1</type></trkpt>
      <trkpt lat="39.53614219" lon="-6.40654612"><ele>1467</ele><speed>8.75</speed><time>2016-06-21T15:50:27Z</time><pdop>3.0</pdop><geoidheight>54.00</geoidheight><course>74.2</course><type>1</type></trkpt>
      <trkpt lat="39.53616526" lon="-6.40644971"><ele>1468</ele><speed>8.75</speed><time>2016-06-21T15:50:28Z</time><pdop>3.0</pdop><geoidheight>54.00</geoidheight><course>73.9</course><type>1</type></trkpt>
      <trkpt lat="39.53619163" lon="-6.40625241"><ele>1471</ele><speed>8.75</speed><time>2016-06-21T15:50:30Z</time><pdop>3.0</pdop><geoidheight>54.00</geoidheight><course>82.1</course><type>1</type></trkpt>
      <trkpt lat="39.53618984" lon="-6.40614886"><ele>1472</ele><speed>8.75</speed><time>2016-06-21T15:50:31Z</time><pdop>3.0</pdop><geoidheight>54.00</geoidheight><course>90.1</course><type>1</type></trkpt>
      <trkpt lat="39.53617991" lon="-6.40604464"><ele>1473</ele><speed>8.75</speed><time>2016-06-21T15:50:32Z</time><pdop>3.0</pdop><geoidheight>54.00</geoidheight><course>97.5</course><type>1</type></trkpt>
      <trkpt lat="39.53612952" lon="-6.40586319"><ele>1473</ele><speed>7.75</speed><time>2016-06-21T15:50:34Z</time><pdop>3.0</pdop><geoidheight>54.00</geoidheight><course>113.5</course><type>1</type></trkpt>
      <trkpt lat="39.53608782" lon="-6.40579625"><ele>1473</ele><speed>7.50</speed><time>2016-06-21T15:50:35Z</time><pdop>3.0</pdop><geoidheight>54.00</geoidheight><course>124.9</course><type>1</type></trkpt>
      <trkpt lat="39.5359348" lon="-6.40567091"><ele>1475</ele><speed>6.00</speed><time>2016-06-21T15:50:38Z</time><pdop>3.0</pdop><geoidheight>54.00</geoidheight><course>156.7</course><type>1</type></trkpt>
      <trkpt lat="39.53584571" lon="-6.40568462"><ele>1476</ele><speed>4.75</speed><time>2016-06-21T15:50:40Z</time><pdop>3.0</pdop><geoidheight>54.00</geoidheight><course>194.8</course><type>1</type></trkpt>
      <trkpt lat="39.53577582" lon="-6.40580999"><ele>1476</ele><speed>5.00</speed><time>2016-06-21T15:50:43Z</time><pdop>3.0</pdop><geoidheight>54.00</geoidheight><course>239.8</course><type>1</type></trkpt>
      <trkpt lat="39.53577363" lon="-6.4060702"><ele>1474</ele><speed>9.25</speed><time>2016-06-21T15:50:46Z</time><pdop>3.0</pdop><geoidheight>54.00</geoidheight><course>284.6</course><type>1</type></trkpt>
      <trkpt lat="39.53591824" lon="-6.40626224"><ele>1473</ele><speed>12.00</speed><time>2016-06-21T15:50:48Z</time><pdop>3.0</pdop><geoidheight>54.00</geoidheight><course>320.5</course><type>1</type></trkpt>
      <trkpt lat="39.53601691" lon="-6.40632086"><ele>1473</ele><speed>12.25</speed><time>2016-06-21T15:50:49Z</time><pdop>3.0</pdop><geoidheight>54.00</geoidheight><course>334.8</course><type>1</type></trkpt>
      <trkpt lat="39.53624956" lon="-6.40635124"><ele>1473</ele><speed>13.25</speed><time>2016-06-21T15:50:51Z</time><pdop>3.0</pdop><geoidheight>54.00</geoidheight><course>359.4</course><type>1</type></trkpt>
      <trkpt lat="39.53635853" lon="-6.40635575"><ele>1474</ele><speed>12.25</speed><time>2016-06-21T15:50:52Z</time><pdop>4.0</pdop><geoidheight>54.00</geoidheight><course>358.1</course><type>1</type></trkpt>
      <trkpt lat="39.53646042" lon="-6.40629223"><ele>1477</ele><speed>11.75</speed><time>2016-06-21T15:50:53Z</time><pdop>3.0</pdop><geoidheight>54.00</geoidheight><course>16.2</course><type>1</type></trkpt>
      <trkpt lat="39.53665026" lon="-6.40618487"><ele>1478</ele><speed>11.50</speed><time>2016-06-21T15:50:55Z</time><pdop>3.0</pdop><geoidheight>54.00</geoidheight><course>24.7</course><type>1</type></trkpt>
      <trkpt lat="39.53674687" lon="-6.40612462"><ele>1477</ele><speed>12.00</speed><time>2016-06-21T15:50:56Z</time><pdop>3.0</pdop><geoidheight>54.00</geoidheight><course>25.1</course><type>1</type></trkpt>
      <trkpt lat="39.53685195" lon="-6.40606483"><ele>1477</ele><speed>12.25</speed><time>2016-06-21T15:50:57Z</time><pdop>3.0</pdop><geoidheight>54.00</geoidheight><course>23.6</course><type>1</type></trkpt>
      <trkpt lat="39.53706557" lon="-6.40595649"><ele>1478</ele><speed>12.75</speed><time>2016-06-21T15:50:59Z</time><pdop>3.0</pdop><geoidheight>54.00</geoidheight><course>21.7</course><type>1</type></trkpt>
      <trkpt lat="39.537272" lon="-6.4058641"><ele>1478</ele><speed>12.00</speed><time>2016-06-21T15:51:01Z</time><pdop>3.0</pdop><geoidheight>54.00</geoidheight><course>18.7</course><type>1</type></trkpt>
      <trkpt lat="39.537378" lon="-6.40581851"><ele>1478</ele><speed>12.25</speed><time>2016-06-21T15:51:02Z</time><pdop>3.0</pdop><geoidheight>54.00</geoidheight><course>17.6</course><type>1</type></trkpt>
      <trkpt lat="39.5374865" lon="-6.40578004"><ele>1478</ele><speed>12.50</speed><time>2016-06-21T15:51:03Z</time><pdop>3.0</pdop><geoidheight>54.00</geoidheight><course>16.3</course><type>1</type></trkpt>
      <trkpt lat="39.53759623" lon="-6.40574487"><ele>1476</ele><speed>12.50</speed><time>2016-06-21T15:51:04Z</time><pdop>3.0</pdop><geoidheight>54.00</geoidheight><course>14.3</course><type>1</type></trkpt>
      <trkpt lat="39.53782894" lon="-6.40568521"><ele>1474</ele><speed>13.00</speed><time>2016-06-21T15:51:06Z</time><pdop>5.0</pdop><geoidheight>54.00</geoidheight><course>11.2</course><type>1</type></trkpt>
      <trkpt lat="39.5379568" lon="-6.40569163"><ele>1474</ele><speed>13.50</speed><time>2016-06-21T15:51:07Z</time><pdop>3.0</pdop><geoidheight>54.00</geoidheight><course>3.4</course><type>1</type></trkpt>
      <trkpt lat="39.53807813" lon="-6.4056801"><ele>1474</ele><speed>13.50</speed><time>2016-06-21T15:51:08Z</time><pdop>4.0</pdop><geoidheight>54.00</geoidheight><course>3.9</course><type>1</type></trkpt>
      <trkpt lat="39.53820186" lon="-6.40566035"><ele>1473</ele><speed>13.75</speed><time>2016-06-21T15:51:09Z</time><pdop>3.0</pdop><geoidheight>54.00</geoidheight><course>5.7</course><type>1</type></trkpt>
      <trkpt lat="39.53844416" lon="-6.40561638"><ele>1471</ele><speed>13.50</speed><time>2016-06-21T15:51:11Z</time><pdop>3.0</pdop><geoidheight>54.00</geoidheight><course>8.8</course><type>1</type></trkpt>
      <trkpt lat="39.53856245" lon="-6.40559185"><ele>1470</ele><speed>13.00</speed><time>2016-06-21T15:51:12Z</time><pdop>3.0</pdop><geoidheight>54.00</geoidheight><course>10.4</course><type>1</type></trkpt>
      <trkpt lat="39.53868036" lon="-6.40555823"><ele>1469</ele><speed>13.00</speed><time>2016-06-21T15:51:13Z</time><pdop>3.0</pdop><geoidheight>54.00</geoidheight><course>12.8</course><type>1</type></trkpt>
      <trkpt lat="39.5387981" lon="-6.40551203"><ele>1467</ele><speed>13.75</speed><time>2016-06-21T15:51:14Z</time><pdop>4.0</pdop><geoidheight>54.00</geoidheight><course>15.4</course><type>1</type></trkpt>
      <trkpt lat="39.53893365" lon="-6.40545908"><ele>1465</ele><speed>15.00</speed><time>2016-06-21T15:51:15Z</time><pdop>3.0</pdop><geoidheight>54.00</geoidheight><course>16.0</course><type>1</type></trkpt>
      <trkpt lat="39.53918885" lon="-6.40537306"><ele>1464</ele><speed>14.50</speed><time>2016-06-21T15:51:17Z</time><pdop>3.0</pdop><geoidheight>54.00</geoidheight><course>13.0</course><type>1</type></trkpt>
      <trkpt lat="39.53930551" lon="-6.40535507"><ele>1463</ele><speed>13.25</speed><time>2016-06-21T15:51:18Z</time><pdop>3.0</pdop><geoidheight>54.00</geoidheight><course>8.6</course><type>1</type></trkpt>
      <trkpt lat="39.53952343" lon="-6.40530476"><ele>1460</ele><speed>12.25</speed><time>2016-06-21T15:51:20Z</time><pdop>3.0</pdop><geoidheight>54.00</geoidheight><course>11.0</course><type>1</type></trkpt>
      <trkpt lat="39.5396308" lon="-6.40526906"><ele>1457</ele><speed>12.50</speed><time>2016-06-21T15:51:21Z</time><pdop>3.0</pdop><geoidheight>54.00</geoidheight><course>13.6</course><type>1</type></trkpt>
      <trkpt lat="39.53974564" lon="-6.40524028"><ele>1455</ele><speed>13.00</speed><time>2016-06-21T15:51:22Z</time><pdop>3.0</pdop><geoidheight>54.00</geoidheight><course>13.0</course><type>1</type></trkpt>
      <trkpt lat="39.53998524" lon="-6.40519664"><ele>1449</ele><speed>13.50</speed><time>2016-06-21T15:51:24Z</time><pdop>3.0</pdop><geoidheight>54.00</geoidheight><course>6.8</course><type>1</type></trkpt>
      <trkpt lat="39.54010653" lon="-6.40517787"><ele>1447</ele><speed>13.50</speed><time>2016-06-21T15:51:25Z</time><pdop>5.0</pdop><geoidheight>54.00</geoidheight><course>6.8</course><type>1</type></trkpt>
      <trkpt lat="39.54031279" lon="-6.40512776"><ele>1440</ele><speed>11.75</speed><time>2016-06-21T15:51:27Z</time><pdop>3.0</pdop><geoidheight>54.00</geoidheight><course>10.9</course><type>1</type></trkpt>
      <trkpt lat="39.54041523" lon="-6.40510021"><ele>1435</ele><speed>11.75</speed><time>2016-06-21T15:51:28Z</time><pdop>3.0</pdop><geoidheight>54.00</geoidheight><course>11.7</course><type>1</type></trkpt>
      <trkpt lat="39.54052691" lon="-6.40507115"><ele>1430</ele><speed>13.00</speed><time>2016-06-21T15:51:29Z</time><pdop>3.0</pdop><geoidheight>54.00</geoidheight><course>11.1</course><type>1</type></trkpt>
      <trkpt lat="39.54065041" lon="-6.40504599"><ele>1425</ele><speed>14.00</speed><time>2016-06-21T15:51:30Z</time><pdop>3.0</pdop><geoidheight>54.00</geoidheight><course>9.5</course><type>1</type></trkpt>
      <trkpt lat="39.54090393" lon="-6.40499529"><ele>1417</ele><speed>14.25</speed><time>2016-06-21T15:51:32Z</time><pdop>5.0</pdop><geoidheight>54.00</geoidheight><course>8.5</course><type>1</type></trkpt>
      <trkpt lat="39.54102561" lon="-6.4049692"><ele>1413</ele><speed>14.00</speed><time>2016-06-21T15:51:33Z</time><pdop>6.0</pdop><geoidheight>54.00</geoidheight><course>8.5</course><type>1</type></trkpt>
      <trkpt lat="39.54113778" lon="-6.40494415"><ele>1409</ele><speed>13.25</speed><time>2016-06-21T15:51:34Z</time><pdop>3.0</pdop><geoidheight>54.00</geoidheight><course>10.3</course><type>1</type></trkpt>
      <trkpt lat="39.5412578" lon="-6.40491914"><ele>1404</ele><speed>13.50</speed><time>2016-06-21T15:51:35Z</time><pdop>4.0</pdop><geoidheight>54.00</geoidheight><course>10.3</course><type>1</type></trkpt>
      <trkpt lat="39.54138833" lon="-6.40489475"><ele>1399</ele><speed>14.25</speed><time>2016-06-21T15:51:36Z</time><pdop>3.0</pdop><geoidheight>54.00</geoidheight><course>8.8</course><type>1</type></trkpt>
      <trkpt lat="39.54165611" lon="-6.40484767"><ele>1392</ele><speed>15.00</speed><time>2016-06-21T15:51:38Z</time><pdop>3.0</pdop><geoidheight>54.00</geoidheight><course>7.7</course><type>1</type></trkpt>
      <trkpt lat="39.54191445" lon="-6.40479668"><ele>1386</ele><speed>14.50</speed><time>2016-06-21T15:51:40Z</time><pdop>5.0</pdop><geoidheight>54.00</geoidheight><course>8.5</course><type>1</type></trkpt>
      <trkpt lat="39.542032999999996" lon="-6.40477884"><ele>1383</ele><speed>14.00</speed><time>2016-06-21T15:51:41Z</time><pdop>5.0</pdop><geoidheight>54.00</geoidheight><course>7.9</course><type>1</type></trkpt>
      <trkpt lat="39.54216736" lon="-6.40476739"><ele>1381</ele><speed>14.50</speed><time>2016-06-21T15:51:42Z</time><pdop>4.0</pdop><geoidheight>54.00</geoidheight><course>5.6</course><type>1</type></trkpt>
      <trkpt lat="39.54229541" lon="-6.40475444"><ele>1377</ele><speed>14.25</speed><time>2016-06-21T15:51:43Z</time><pdop>3.0</pdop><geoidheight>54.00</geoidheight><course>4.2</course><type>1</type></trkpt>
      <trkpt lat="39.54256781" lon="-6.40472053"><ele>1370</ele><speed>15.25</speed><time>2016-06-21T15:51:45Z</time><pdop>3.0</pdop><geoidheight>54.00</geoidheight><course>5.7</course><type>1</type></trkpt>
      <trkpt lat="39.54270256" lon="-6.404709"><ele>1367</ele><speed>15.25</speed><time>2016-06-21T15:51:46Z</time><pdop>3.0</pdop><geoidheight>54.00</geoidheight><course>4.2</course><type>1</type></trkpt>
      <trkpt lat="39.54283935" lon="-6.40469594"><ele>1365</ele><speed>15.25</speed><time>2016-06-21T15:51:47Z</time><pdop>4.0</pdop><geoidheight>54.00</geoidheight><course>4.2</course><type>1</type></trkpt>
      <trkpt lat="39.54307602" lon="-6.40470409"><ele>1360</ele><speed>13.75</speed><time>2016-06-21T15:51:49Z</time><pdop>6.0</pdop><geoidheight>54.00</geoidheight><course>0.8</course><type>1</type></trkpt>
      <trkpt lat="39.54319594" lon="-6.40468353"><ele>1355</ele><speed>14.00</speed><time>2016-06-21T15:51:50Z</time><pdop>3.0</pdop><geoidheight>54.00</geoidheight><course>6.6</course><type>1</type></trkpt>
      <trkpt lat="39.54345539" lon="-6.40464094"><ele>1349</ele><speed>14.25</speed><time>2016-06-21T15:51:52Z</time><pdop>3.0</pdop><geoidheight>54.00</geoidheight><course>6.6</course><type>1</type></trkpt>
      <trkpt lat="39.54358117" lon="-6.40462835"><ele>1346</ele><speed>13.75</speed><time>2016-06-21T15:51:53Z</time><pdop>3.0</pdop><geoidheight>54.00</geoidheight><course>5.8</course><type>1</type></trkpt>
      <trkpt lat="39.54370542" lon="-6.40460985"><ele>1342</ele><speed>13.75</speed><time>2016-06-21T15:51:54Z</time><pdop>3.0</pdop><geoidheight>54.00</geoidheight><course>6.8</course><type>1</type></trkpt>
      <trkpt lat="39.54395813" lon="-6.40456255"><ele>1334</ele><speed>14.25</speed><time>2016-06-21T15:51:56Z</time><pdop>5.0</pdop><geoidheight>54.00</geoidheight><course>7.9</course><type>1</type></trkpt>
      <trkpt lat="39.54410143" lon="-6.40452998"><ele>1333</ele><speed>15.25</speed><time>2016-06-21T15:51:57Z</time><pdop>4.0</pdop><geoidheight>54.00</geoidheight><course>8.9</course><type>1</type></trkpt>
      <trkpt lat="39.54423" lon="-6.40450186"><ele>1332</ele><speed>14.75</speed><time>2016-06-21T15:51:58Z</time><pdop>3.0</pdop><geoidheight>54.00</geoidheight><course>9.8</course><type>1</type></trkpt>
      <trkpt lat="39.54445257" lon="-6.40443943"><ele>1329</ele><speed>12.25</speed><time>2016-06-21T15:52:00Z</time><pdop>3.0</pdop><geoidheight>54.00</geoidheight><course>12.5</course><type>1</type></trkpt>
      <trkpt lat="39.54455463" lon="-6.40440899"><ele>1327</ele><speed>12.00</speed><time>2016-06-21T15:52:01Z</time><pdop>3.0</pdop><geoidheight>54.00</geoidheight><course>11.7</course><type>1</type></trkpt>
      <trkpt lat="39.54466827" lon="-6.40438332"><ele>1325</ele><speed>12.50</speed><time>2016-06-21T15:52:02Z</time><pdop>3.0</pdop><geoidheight>54.00</geoidheight><course>9.5</course><type>1</type></trkpt>
      <trkpt lat="39.54478519" lon="-6.4043687"><ele>1322</ele><speed>13.25</speed><time>2016-06-21T15:52:03Z</time><pdop>3.0</pdop><geoidheight>54.00</geoidheight><course>6.4</course><type>1</type></trkpt>
      <trkpt lat="39.54502534" lon="-6.40434628"><ele>1321</ele><speed>13.50</speed><time>2016-06-21T15:52:05Z</time><pdop>6.0</pdop><geoidheight>54.00</geoidheight><course>4.4</course><type>1</type></trkpt>
      <trkpt lat="39.54512226" lon="-6.40434705"><ele>1322</ele><speed>11.75</speed><time>2016-06-21T15:52:06Z</time><pdop>4.0</pdop><geoidheight>54.00</geoidheight><course>2.3</course><type>1</type></trkpt>
      <trkpt lat="39.54531913" lon="-6.40436249"><ele>1319</ele><speed>11.00</speed><time>2016-06-21T15:52:08Z</time><pdop>3.0</pdop><geoidheight>54.00</geoidheight><course>356.2</course><type>1</type></trkpt>
      <trkpt lat="39.54541126" lon="-6.40437541"><ele>1317</ele><speed>10.50</speed><time>2016-06-21T15:52:09Z</time><pdop>3.0</pdop><geoidheight>54.00</geoidheight><course>355.3</course><type>1</type></trkpt>
      <trkpt lat="39.54550081" lon="-6.40438617"><ele>1314</ele><speed>10.00</speed><time>2016-06-21T15:52:10Z</time><pdop>3.0</pdop><geoidheight>54.00</geoidheight><course>355.4</course><type>1</type></trkpt>
      <trkpt lat="39.54569431" lon="-6.40440072"><ele>1307</ele><speed>11.25</speed><time>2016-06-21T15:52:12Z</time><pdop>3.0</pdop><geoidheight>54.00</geoidheight><course>357.6</course><type>1</type></trkpt>
      <trkpt lat="39.54579793" lon="-6.40440613"><ele>1303</ele><speed>11.75</speed><time>2016-06-21T15:52:13Z</time><pdop>3.0</pdop><geoidheight>54.00</geoidheight><course>358.4</course><type>1</type></trkpt>
      <trkpt lat="39.54590493" lon="-6.40440886"><ele>1302</ele><speed>11.75</speed><time>2016-06-21T15:52:14Z</time><pdop>3.0</pdop><geoidheight>54.00</geoidheight><course>358.2</course><type>1</type></trkpt>
      <trkpt lat="39.54610352" lon="-6.40441915"><ele>1298</ele><speed>11.00</speed><time>2016-06-21T15:52:16Z</time><pdop>3.0</pdop><geoidheight>54.00</geoidheight><course>357.6</course><type>1</type></trkpt>
      <trkpt lat="39.54620368" lon="-6.40442086"><ele>1296</ele><speed>11.00</speed><time>2016-06-21T15:52:17Z</time><pdop>4.0</pdop><geoidheight>54.00</geoidheight><course>359.4</course><type>1</type></trkpt>
      <trkpt lat="39.54642129" lon="-6.40440151"><ele>1295</ele><speed>12.25</speed><time>2016-06-21T15:52:19Z</time><pdop>4.0</pdop><geoidheight>54.00</geoidheight><course>4.4</course><type>1</type></trkpt>
      <trkpt lat="39.5465167" lon="-6.40439661"><ele>1291</ele><speed>11.50</speed><time>2016-06-21T15:52:20Z</time><pdop>3.0</pdop><geoidheight>54.00</geoidheight><course>4.4</course><type>1</type></trkpt>
      <trkpt lat="39.54671909" lon="-6.40439162"><ele>1287</ele><speed>11.25</speed><time>2016-06-21T15:52:22Z</time><pdop>3.0</pdop><geoidheight>54.00</geoidheight><course>0.5</course><type>1</type></trkpt>
      <trkpt lat="39.54692786" lon="-6.40435544"><ele>1284</ele><speed>11.75</speed><time>2016-06-21T15:52:24Z</time><pdop>4.0</pdop><geoidheight>54.00</geoidheight><course>9.0</course><type>1</type></trkpt>
      <trkpt lat="39.54702644" lon="-6.40432975"><ele>1281</ele><speed>11.25</speed><time>2016-06-21T15:52:25Z</time><pdop>3.0</pdop><geoidheight>54.00</geoidheight><course>11.3</course><type>1</type></trkpt>
      <trkpt lat="39.54711943" lon="-6.40430875"><ele>1280</ele><speed>10.75</speed><time>2016-06-21T15:52:26Z</time><pdop>3.0</pdop><geoidheight>54.00</geoidheight><course>8.6</course><type>1</type></trkpt>
      <trkpt lat="39.54721007" lon="-6.40431306"><ele>1276</ele><speed>10.75</speed><time>2016-06-21T15:52:27Z</time><pdop>3.0</pdop><geoidheight>54.00</geoidheight><course>1.6</course><type>1</type></trkpt>
      <trkpt lat="39.54741958" lon="-6.404313"><ele>1270</ele><speed>12.25</speed><time>2016-06-21T15:52:29Z</time><pdop>4.0</pdop><geoidheight>54.00</geoidheight><course>2.0</course><type>1</type></trkpt>
      <trkpt lat="39.5475255" lon="-6.40428411"><ele>1267</ele><speed>11.50</speed><time>2016-06-21T15:52:30Z</time><pdop>3.0</pdop><geoidheight>54.00</geoidheight><course>9.9</course><type>1</type></trkpt>
      <trkpt lat="39.54770822" lon="-6.40420292"><ele>1262</ele><speed>10.25</speed><time>2016-06-21T15:52:32Z</time><pdop>3.0</pdop><geoidheight>54.00</geoidheight><course>19.3</course><type>1</type></trkpt>
      <trkpt lat="39.54779515" lon="-6.40417494"><ele>1259</ele><speed>10.00</speed><time>2016-06-21T15:52:33Z</time><pdop>4.0</pdop><geoidheight>54.00</geoidheight><course>15.0</course><type>1</type></trkpt>
      <trkpt lat="39.54799225" lon="-6.40414297"><ele>1252</ele><speed>11.50</speed><time>2016-06-21T15:52:35Z</time><pdop>3.0</pdop><geoidheight>54.00</geoidheight><course>7.3</course><type>1</type></trkpt>
      <trkpt lat="39.54809546" lon="-6.40412445"><ele>1248</ele><speed>11.75</speed><time>2016-06-21T15:52:36Z</time><pdop>3.0</pdop><geoidheight>54.00</geoidheight><course>7.2</course><type>1</type></trkpt>
      <trkpt lat="39.54829217" lon="-6.40408429"><ele>1242</ele><speed>11.25</speed><time>2016-06-21T15:52:38Z</time><pdop>3.0</pdop><geoidheight>54.00</geoidheight><course>8.1</course><type>1</type></trkpt>
      <trkpt lat="39.54839037" lon="-6.40407971"><ele>1238</ele><speed>10.75</speed><time>2016-06-21T15:52:39Z</time><pdop>3.0</pdop><geoidheight>54.00</geoidheight><course>4.1</course><type>1</type></trkpt>
      <trkpt lat="39.54858757" lon="-6.40408896"><ele>1230</ele><speed>11.00</speed><time>2016-06-21T15:52:41Z</time><pdop>3.0</pdop><geoidheight>54.00</geoidheight><course>357.5</course><type>1</type></trkpt>
      <trkpt lat="39.548693" lon="-6.4040933"><ele>1225</ele><speed>11.50</speed><time>2016-06-21T15:52:42Z</time><pdop>4.0</pdop><geoidheight>54.00</geoidheight><course>359.3</course><type>1</type></trkpt>
      <trkpt lat="39.54880297" lon="-6.40408764"><ele>1221</ele><speed>12.00</speed><time>2016-06-21T15:52:43Z</time><pdop>4.0</pdop><geoidheight>54.00</geoidheight><course>1.9</course><type>1</type></trkpt>
      <trkpt lat="39.54902075" lon="-6.40407239"><ele>1214</ele><speed>12.25</speed><time>2016-06-21T15:52:45Z</time><pdop>3.0</pdop><geoidheight>54.00</geoidheight><course>1.7</course><type>1</type></trkpt>
      <trkpt lat="39.54912746" lon="-6.40407276"><ele>1211</ele><speed>12.00</speed><time>2016-06-21T15:52:46Z</time><pdop>3.0</pdop><geoidheight>54.00</geoidheight><course>0.6</course><type>1</type></trkpt>
      <trkpt lat="39.54934665" lon="-6.40405152"><ele>1204</ele><speed>12.50</speed><time>2016-06-21T15:52:48Z</time><pdop>4.0</pdop><geoidheight>54.00</geoidheight><course>5.9</course><type>1</type></trkpt>
      <trkpt lat="39.54944527" lon="-6.40403098"><ele>1201</ele><speed>12.00</speed><time>2016-06-21T15:52:49Z</time><pdop>3.0</pdop><geoidheight>54.00</geoidheight><course>8.7</course><type>1</type></trkpt>
      <trkpt lat="39.54954421" lon="-6.40400748"><ele>1198</ele><speed>11.25</speed><time>2016-06-21T15:52:50Z</time><pdop>4.0</pdop><geoidheight>54.00</geoidheight><course>9.6</course><type>1</type></trkpt>
      <trkpt lat="39.54971836" lon="-6.40398002"><ele>1190</ele><speed>10.00</speed><time>2016-06-21T15:52:52Z</time><pdop>3.0</pdop><geoidheight>54.00</geoidheight><course>8.6</course><type>1</type></trkpt>
      <trkpt lat="39.54991887" lon="-6.40395102"><ele>1181</ele><speed>11.25</speed><time>2016-06-21T15:52:54Z</time><pdop>3.0</pdop><geoidheight>54.00</geoidheight><course>5.8</course><type>1</type></trkpt>
      <trkpt lat="39.55001971" lon="-6.40393788"><ele>1177</ele><speed>11.25</speed><time>2016-06-21T15:52:55Z</time><pdop>5.0</pdop><geoidheight>54.00</geoidheight><course>5.8</course><type>1</type></trkpt>
      <trkpt lat="39.55021656" lon="-6.40397259"><ele>1169</ele><speed>11.00</speed><time>2016-06-21T15:52:57Z</time><pdop>3.0</pdop><geoidheight>54.00</geoidheight><course>355.3</course><type>1</type></trkpt>
      <trkpt lat="39.55031492" lon="-6.40398633"><ele>1165</ele><speed>11.00</speed><time>2016-06-21T15:52:58Z</time><pdop>3.0</pdop><geoidheight>54.00</geoidheight><course>354.2</course><type>1</type></trkpt>
      <trkpt lat="39.55052388" lon="-6.4040156"><ele>1155</ele><speed>12.00</speed><time>2016-06-21T15:53:00Z</time><pdop>4.0</pdop><geoidheight>54.00</geoidheight><course>352.6</course><type>1</type></trkpt>
      <trkpt lat="39.55064205" lon="-6.40403959"><ele>1151</ele><speed>13.00</speed><time>2016-06-21T15:53:01Z</time><pdop>4.0</pdop><geoidheight>54.00</geoidheight><course>351.5</course><type>1</type></trkpt>
      <trkpt lat="39.5508684" lon="-6.40408446"><ele>1144</ele><speed>12.75</speed><time>2016-06-21T15:53:03Z</time><pdop>4.0</pdop><geoidheight>54.00</geoidheight><course>351.4</course><type>1</type></trkpt>
      <trkpt lat="39.55096109" lon="-6.40409052"><ele>1142</ele><speed>11.25</speed><time>2016-06-21T15:53:04Z</time><pdop>3.0</pdop><geoidheight>54.00</geoidheight><course>355.0</course><type>1</type></trkpt>
      <trkpt lat="39.55105866" lon="-6.40410274"><ele>1139</ele><speed>11.00</speed><time>2016-06-21T15:53:05Z</time><pdop>3.0</pdop><geoidheight>54.00</geoidheight><course>354.5</course><type>1</type></trkpt>
      <trkpt lat="39.55125811" lon="-6.40414064"><ele>1131</ele><speed>11.25</speed><time>2016-06-21T15:53:07Z</time><pdop>3.0</pdop><geoidheight>54.00</geoidheight><course>352.6</course><type>1</type></trkpt>
      <trkpt lat="39.55135879" lon="-6.40415148"><ele>1127</ele><speed>11.25</speed><time>2016-06-21T15:53:08Z</time><pdop>3.0</pdop><geoidheight>54.00</geoidheight><course>354.8</course><type>1</type></trkpt>
      <trkpt lat="39.55146184" lon="-6.40415627"><ele>1122</ele><speed>11.25</speed><time>2016-06-21T15:53:09Z</time><pdop>3.0</pdop><geoidheight>54.00</geoidheight><course>358.1</course><type>1</type></trkpt>
      <trkpt lat="39.55167145" lon="-6.40415772"><ele>1114</ele><speed>11.75</speed><time>2016-06-21T15:53:11Z</time><pdop>4.0</pdop><geoidheight>54.00</geoidheight><course>359.3</course><type>1</type></trkpt>
      <trkpt lat="39.55178301" lon="-6.4041594"><ele>1110</ele><speed>12.25</speed><time>2016-06-21T15:53:12Z</time><pdop>3.0</pdop><geoidheight>54.00</geoidheight><course>0.3</course><type>1</type></trkpt>
      <trkpt lat="39.55188885" lon="-6.40415153"><ele>1106</ele><speed>12.00</speed><time>2016-06-21T15:53:13Z</time><pdop>4.0</pdop><geoidheight>54.00</geoidheight><course>1.9</course><type>1</type></trkpt>
      <trkpt lat="39.55208839" lon="-6.40413347"><ele>1099</ele><speed>11.00</speed><time>2016-06-21T15:53:15Z</time><pdop>3.0</pdop><geoidheight>54.00</geoidheight><course>3.9</course><type>1</type></trkpt>
      <trkpt lat="39.55218512" lon="-6.40412953"><ele>1095</ele><speed>11.00</speed><time>2016-06-21T15:53:16Z</time><pdop>3.0</pdop><geoidheight>54.00</geoidheight><course>1.7</course><type>1</type></trkpt>
      <trkpt lat="39.5522861" lon="-6.40413143"><ele>1092</ele><speed>11.25</speed><time>2016-06-21T15:53:17Z</time><pdop>3.0</pdop><geoidheight>54.00</geoidheight><course>0.1</course><type>1</type></trkpt>
      <trkpt lat="39.55248169" lon="-6.40413875"><ele>1085</ele><speed>10.75</speed><time>2016-06-21T15:53:19Z</time><pdop>3.0</pdop><geoidheight>54.00</geoidheight><course>358.8</course><type>1</type></trkpt>
      <trkpt lat="39.55257525" lon="-6.40414078"><ele>1081</ele><speed>10.50</speed><time>2016-06-21T15:53:20Z</time><pdop>3.0</pdop><geoidheight>54.00</geoidheight><course>359.2</course><type>1</type></trkpt>
      <trkpt lat="39.55276316" lon="-6.40414908"><ele>1071</ele><speed>10.50</speed><time>2016-06-21T15:53:22Z</time><pdop>3.0</pdop><geoidheight>54.00</geoidheight><course>357.4</course><type>1</type></trkpt>
      <trkpt lat="39.55295957" lon="-6.40416843"><ele>1061</ele><speed>11.25</speed><time>2016-06-21T15:53:24Z</time><pdop>3.0</pdop><geoidheight>54.00</geoidheight><course>355.7</course><type>1</type></trkpt>
      <trkpt lat="39.55305791" lon="-6.40417225"><ele>1055</ele><speed>11.25</speed><time>2016-06-21T15:53:25Z</time><pdop>4.0</pdop><geoidheight>54.00</geoidheight><course>357.4</course><type>1</type></trkpt>
      <trkpt lat="39.55325943" lon="-6.40416961"><ele>1046</ele><speed>11.25</speed><time>2016-06-21T15:53:27Z</time><pdop>4.0</pdop><geoidheight>54.00</geoidheight><course>0.9</course><type>1</type></trkpt>
      <trkpt lat="39.55335806" lon="-6.40417385"><ele>1042</ele><speed>11.00</speed><time>2016-06-21T15:53:28Z</time><pdop>4.0</pdop><geoidheight>54.00</geoidheight><course>359.2</course><type>1</type></trkpt>
      <trkpt lat="39.55345811" lon="-6.40417587"><ele>1039</ele><speed>11.00</speed><time>2016-06-21T15:53:29Z</time><pdop>4.0</pdop><geoidheight>54.00</geoidheight><course>358.0</course><type>1</type></trkpt>
      <trkpt lat="39.55364949" lon="-6.40418994"><ele>1030</ele><speed>10.75</speed><time>2016-06-21T15:53:31Z</time><pdop>5.0</pdop><geoidheight>54.00</geoidheight><course>356.5</course><type>1</type></trkpt>
      <trkpt lat="39.55373873" lon="-6.40419087"><ele>1025</ele><speed>10.50</speed><time>2016-06-21T15:53:32Z</time><pdop>4.0</pdop><geoidheight>54.00</geoidheight><course>359.0</course><type>1</type></trkpt>
      <trkpt lat="39.55383488" lon="-6.40418849"><ele>1020</ele><speed>10.50</speed><time>2016-06-21T15:53:33Z</time><pdop>3.0</pdop><geoidheight>54.00</geoidheight><course>0.5</course><type>1</type></trkpt>
      <trkpt lat="39.55403179" lon="-6.40418561"><ele>1010</ele><speed>11.00</speed><time>2016-06-21T15:53:35Z</time><pdop>3.0</pdop><geoidheight>54.00</geoidheight><course>1.0</course><type>1</type></trkpt>
      <trkpt lat="39.55412841" lon="-6.4041867"><ele>1006</ele><speed>11.25</speed><time>2016-06-21T15:53:36Z</time><pdop>3.0</pdop><geoidheight>54.00</geoidheight><course>359.7</course><type>1</type></trkpt>
      <trkpt lat="39.55433589" lon="-6.40420301"><ele>998</ele><speed>11.50</speed><time>2016-06-21T15:53:38Z</time><pdop>3.0</pdop><geoidheight>54.00</geoidheight><course>355.0</course><type>1</type></trkpt>
      <trkpt lat="39.55443944" lon="-6.40421472"><ele>994</ele><speed>11.50</speed><time>2016-06-21T15:53:39Z</time><pdop>5.0</pdop><geoidheight>54.00</geoidheight><course>355.0</course><type>1</type></trkpt>
      <trkpt lat="39.55462652" lon="-6.40422304"><ele>985</ele><speed>10.50</speed><time>2016-06-21T15:53:41Z</time><pdop>3.0</pdop><geoidheight>54.00</geoidheight><course>357.2</course><type>1</type></trkpt>
      <trkpt lat="39.55472347" lon="-6.40422642"><ele>979</ele><speed>11.25</speed><time>2016-06-21T15:53:42Z</time><pdop>3.0</pdop><geoidheight>54.00</geoidheight><course>358.8</course><type>1</type></trkpt>
      <trkpt lat="39.55495429" lon="-6.40425053"><ele>968</ele><speed>13.50</speed><time>2016-06-21T15:53:44Z</time><pdop>3.0</pdop><geoidheight>54.00</geoidheight><course>355.4</course><type>1</type></trkpt>
      <trkpt lat="39.55507228" lon="-6.40428359"><ele>964</ele><speed>13.50</speed><time>2016-06-21T15:53:45Z</time><pdop>4.0</pdop><geoidheight>54.00</geoidheight><course>350.7</course><type>1</type></trkpt>
      <trkpt lat="39.55519652" lon="-6.40432491"><ele>963</ele><speed>13.50</speed><time>2016-06-21T15:53:46Z</time><pdop>4.0</pdop><geoidheight>54.00</geoidheight><course>345.0</course><type>1</type></trkpt>
      <trkpt lat="39.5553137" lon="-6.40436535"><ele>960</ele><speed>13.50</speed><time>2016-06-21T15:53:47Z</time><pdop>6.0</pdop><geoidheight>54.00</geoidheight><course>345.0</course><type>1</type></trkpt>
      <trkpt lat="39.55543042" lon="-6.404435"><ele>960</ele><speed>14.00</speed><time>2016-06-21T15:53:48Z</time><pdop>4.0</pdop><geoidheight>54.00</geoidheight><course>340.3</course><type>1</type></trkpt>
      <trkpt lat="39.5555434" lon="-6.4044853"><ele>956</ele><speed>13.25</speed><time>2016-06-21T15:53:49Z</time><pdop>3.0</pdop><geoidheight>54.00</geoidheight><course>341.1</course><type>1</type></trkpt>
      <trkpt lat="39.55578553" lon="-6.40455489"><ele>951</ele><speed>13.50</speed><time>2016-06-21T15:53:51Z</time><pdop>3.0</pdop><geoidheight>54.00</geoidheight><course>349.7</course><type>1</type></trkpt>
      <trkpt lat="39.55590735" lon="-6.40457862"><ele>952</ele><speed>13.50</speed><time>2016-06-21T15:53:52Z</time><pdop>3.0</pdop><geoidheight>54.00</geoidheight><course>350.5</course><type>1</type></trkpt>
      <trkpt lat="39.55613146" lon="-6.4046567"><ele>952</ele><speed>12.75</speed><time>2016-06-21T15:53:54Z</time><pdop>4.0</pdop><geoidheight>54.00</geoidheight><course>342.2</course><type>1</type></trkpt>
      <trkpt lat="39.5562373" lon="-6.40472182"><ele>952</ele><speed>12.75</speed><time>2016-06-21T15:53:55Z</time><pdop>4.0</pdop><geoidheight>54.00</geoidheight><course>335.2</course><type>1</type></trkpt>
      <trkpt lat="39.55640936" lon="-6.40490293"><ele>950</ele><speed>13.25</speed><time>2016-06-21T15:53:57Z</time><pdop>3.0</pdop><geoidheight>54.00</geoidheight><course>318.5</course><type>1</type></trkpt>
      <trkpt lat="39.55657841" lon="-6.40512454"><ele>950</ele><speed>13.00</speed><time>2016-06-21T15:53:59Z</time><pdop>4.0</pdop><geoidheight>54.00</geoidheight><course>313.9</course><type>1</type></trkpt>
      <trkpt lat="39.55666169" lon="-6.40522689"><ele>949</ele><speed>12.75</speed><time>2016-06-21T15:54:00Z</time><pdop>6.0</pdop><geoidheight>54.00</geoidheight><course>314.7</course><type>1</type></trkpt>
      <trkpt lat="39.55674065" lon="-6.40530906"><ele>948</ele><speed>12.25</speed><time>2016-06-21T15:54:01Z</time><pdop>4.0</pdop><geoidheight>54.00</geoidheight><course>317.9</course><type>1</type></trkpt>
      <trkpt lat="39.55682433" lon="-6.40540794"><ele>946</ele><speed>12.25</speed><time>2016-06-21T15:54:02Z</time><pdop>4.0</pdop><geoidheight>54.00</geoidheight><course>316.7</course><type>1</type></trkpt>
      <trkpt lat="39.55690095" lon="-6.405518"><ele>945</ele><speed>12.50</speed><time>2016-06-21T15:54:03Z</time><pdop>3.0</pdop><geoidheight>54.00</geoidheight><course>312.0</course><type>1</type></trkpt>
      <trkpt lat="39.55697816" lon="-6.40562776"><ele>945</ele><speed>12.50</speed><time>2016-06-21T15:54:04Z</time><pdop>4.0</pdop><geoidheight>54.00</geoidheight><course>311.2</course><type>1</type></trkpt>
      <trkpt lat="39.55710385" lon="-6.40585188"><ele>944</ele><speed>11.50</speed><time>2016-06-21T15:54:06Z</time><pdop>3.0</pdop><geoidheight>54.00</geoidheight><course>307.7</course><type>1</type></trkpt>
      <trkpt lat="39.55716718" lon="-6.40595756"><ele>944</ele><speed>11.50</speed><time>2016-06-21T15:54:07Z</time><pdop>4.0</pdop><geoidheight>54.00</geoidheight><course>307.7</course><type>1</type></trkpt>
      <trkpt lat="39.55728041" lon="-6.40618227"><ele>941</ele><speed>12.25</speed><time>2016-06-21T15:54:09Z</time><pdop>4.0</pdop><geoidheight>54.00</geoidheight><course>305.9</course><type>1</type></trkpt>
      <trkpt lat="39.5573514" lon="-6.40630634"><ele>940</ele><speed>13.00</speed><time>2016-06-21T15:54:10Z</time><pdop>4.0</pdop><geoidheight>54.00</geoidheight><course>307.1</course><type>1</type></trkpt>
      <trkpt lat="39.55748223" lon="-6.40653358"><ele>939</ele><speed>11.75</speed><time>2016-06-21T15:54:12Z</time><pdop>3.0</pdop><geoidheight>54.00</geoidheight><course>305.8</course><type>1</type></trkpt>
      <trkpt lat="39.55753922" lon="-6.40664412"><ele>938</ele><speed>11.25</speed><time>2016-06-21T15:54:13Z</time><pdop>3.0</pdop><geoidheight>54.00</geoidheight><course>303.5</course><type>1</type></trkpt>
      <trkpt lat="39.55759032" lon="-6.40675853"><ele>937</ele><speed>11.50</speed><time>2016-06-21T15:54:14Z</time><pdop>3.0</pdop><geoidheight>54.00</geoidheight><course>300.7</course><type>1</type></trkpt>
      <trkpt lat="39.55770995" lon="-6.40698931"><ele>935</ele><speed>12.00</speed><time>2016-06-21T15:54:16Z</time><pdop>6.0</pdop><geoidheight>54.00</geoidheight><course>304.3</course><type>1</type></trkpt>
      <trkpt lat="39.55779201" lon="-6.40709689"><ele>935</ele><speed>13.00</speed><time>2016-06-21T15:54:17Z</time><pdop>4.0</pdop><geoidheight>54.00</geoidheight><course>309.7</course><type>1</type></trkpt>
      <trkpt lat="39.5578679" lon="-6.40720817"><ele>935</ele><speed>12.75</speed><time>2016-06-21T15:54:18Z</time><pdop>4.0</pdop><geoidheight>54.00</geoidheight><course>310.3</course><type>1</type></trkpt>
      <trkpt lat="39.55794124" lon="-6.40731928"><ele>936</ele><speed>12.50</speed><time>2016-06-21T15:54:19Z</time><pdop>3.0</pdop><geoidheight>54.00</geoidheight><course>310.9</course><type>1</type></trkpt>
      <trkpt lat="39.55808923" lon="-6.40754008"><ele>936</ele><speed>12.50</speed><time>2016-06-21T15:54:21Z</time><pdop>4.0</pdop><geoidheight>54.00</geoidheight><course>312.8</course><type>1</type></trkpt>
      <trkpt lat="39.5582412" lon="-6.40777224"><ele>935</ele><speed>13.00</speed><time>2016-06-21T15:54:23Z</time><pdop>4.0</pdop><geoidheight>54.00</geoidheight><course>313.5</course><type>1</type></trkpt>
      <trkpt lat="39.55832482" lon="-6.40788325"><ele>934</ele><speed>13.25</speed><time>2016-06-21T15:54:24Z</time><pdop>4.0</pdop><geoidheight>54.00</geoidheight><course>313.7</course><type>1</type></trkpt>
      <trkpt lat="39.55849683" lon="-6.40811775"><ele>933</ele><speed>14.00</speed><time>2016-06-21T15:54:26Z</time><pdop>5.0</pdop><geoidheight>54.00</geoidheight><course>313.5</course><type>1</type></trkpt>
      <trkpt lat="39.55858802" lon="-6.40824133"><ele>933</ele><speed>14.25</speed><time>2016-06-21T15:54:27Z</time><pdop>4.0</pdop><geoidheight>54.00</geoidheight><course>312.8</course><type>1</type></trkpt>
      <trkpt lat="39.5586632" lon="-6.40836466"><ele>933</ele><speed>13.50</speed><time>2016-06-21T15:54:28Z</time><pdop>4.0</pdop><geoidheight>54.00</geoidheight><course>310.9</course><type>1</type></trkpt>
      <trkpt lat="39.55881478" lon="-6.4085832"><ele>932</ele><speed>12.75</speed><time>2016-06-21T15:54:30Z</time><pdop>4.0</pdop><geoidheight>54.00</geoidheight><course>314.4</course><type>1</type></trkpt>
      <trkpt lat="39.55890032" lon="-6.40868329"><ele>933</ele><speed>12.50</speed><time>2016-06-21T15:54:31Z</time><pdop>4.0</pdop><geoidheight>54.00</geoidheight><course>317.2</course><type>1</type></trkpt>
      <trkpt lat="39.55898019" lon="-6.40878252"><ele>932</ele><speed>12.25</speed><time>2016-06-21T15:54:32Z</time><pdop>4.0</pdop><geoidheight>54.00</geoidheight><course>319.4</course><type>1</type></trkpt>
      <trkpt lat="39.5591494" lon="-6.40895914"><ele>931</ele><speed>12.00</speed><time>2016-06-21T15:54:34Z</time><pdop>5.0</pdop><geoidheight>54.00</geoidheight><course>320.9</course><type>1</type></trkpt>
      <trkpt lat="39.5593182" lon="-6.4091912"><ele>928</ele><speed>13.25</speed><time>2016-06-21T15:54:36Z</time><pdop>3.0</pdop><geoidheight>54.00</geoidheight><course>309.8</course><type>1</type></trkpt>
      <trkpt lat="39.55938676" lon="-6.40931453"><ele>927</ele><speed>13.00</speed><time>2016-06-21T15:54:37Z</time><pdop>3.0</pdop><geoidheight>54.00</geoidheight><course>307.0</course><type>1</type></trkpt>
      <trkpt lat="39.5594998" lon="-6.40954067"><ele>926</ele><speed>11.25</speed><time>2016-06-21T15:54:39Z</time><pdop>4.0</pdop><geoidheight>54.00</geoidheight><course>302.4</course><type>1</type></trkpt>
      <trkpt lat="39.55959233" lon="-6.40976967"><ele>923</ele><speed>11.25</speed><time>2016-06-21T15:54:41Z</time><pdop>3.0</pdop><geoidheight>54.00</geoidheight><course>295.5</course><type>1</type></trkpt>
      <trkpt lat="39.55963554" lon="-6.40988661"><ele>921</ele><speed>11.25</speed><time>2016-06-21T15:54:42Z</time><pdop>5.0</pdop><geoidheight>54.00</geoidheight><course>295.5</course><type>1</type></trkpt>
      <trkpt lat="39.55970657" lon="-6.41015827"><ele>918</ele><speed>12.25</speed><time>2016-06-21T15:54:44Z</time><pdop>4.0</pdop><geoidheight>54.00</geoidheight><course>289.9</course><type>1</type></trkpt>
      <trkpt lat="39.55975327" lon="-6.41029036"><ele>918</ele><speed>12.25</speed><time>2016-06-21T15:54:45Z</time><pdop>4.0</pdop><geoidheight>54.00</geoidheight><course>294.7</course><type>1</type></trkpt>
      <trkpt lat="39.55980728" lon="-6.41041722"><ele>916</ele><speed>12.25</speed><time>2016-06-21T15:54:46Z</time><pdop>4.0</pdop><geoidheight>54.00</geoidheight><course>297.5</course><type>1</type></trkpt>
      <trkpt lat="39.55986092" lon="-6.41054569"><ele>915</ele><speed>12.50</speed><time>2016-06-21T15:54:47Z</time><pdop>4.0</pdop><geoidheight>54.00</geoidheight><course>296.4</course><type>1</type></trkpt>
      <trkpt lat="39.55995344" lon="-6.41082187"><ele>912</ele><speed>13.00</speed><time>2016-06-21T15:54:49Z</time><pdop>4.0</pdop><geoidheight>54.00</geoidheight><course>292.1</course><type>1</type></trkpt>
      <trkpt lat="39.5600104" lon="-6.41095674"><ele>912</ele><speed>12.75</speed><time>2016-06-21T15:54:50Z</time><pdop>4.0</pdop><geoidheight>54.00</geoidheight><course>296.1</course><type>1</type></trkpt>
      <trkpt lat="39.56007546" lon="-6.4110865"><ele>911</ele><speed>13.25</speed><time>2016-06-21T15:54:51Z</time><pdop>3.0</pdop><geoidheight>54.00</geoidheight><course>302.1</course><type>1</type></trkpt>
      <trkpt lat="39.56021766" lon="-6.41134922"><ele>909</ele><speed>14.25</speed><time>2016-06-21T15:54:53Z</time><pdop>4.0</pdop><geoidheight>54.00</geoidheight><course>306.0</course><type>1</type></trkpt>
      <trkpt lat="39.56029119" lon="-6.41148128"><ele>909</ele><speed>14.25</speed><time>2016-06-21T15:54:54Z</time><pdop>4.0</pdop><geoidheight>54.00</geoidheight><course>306.4</course><type>1</type></trkpt>
      <trkpt lat="39.56043641" lon="-6.41170428"><ele>909</ele><speed>12.00</speed><time>2016-06-21T15:54:56Z</time><pdop>4.0</pdop><geoidheight>54.00</geoidheight><course>311.0</course><type>1</type></trkpt>
      <trkpt lat="39.56051416" lon="-6.41180664"><ele>908</ele><speed>12.00</speed><time>2016-06-21T15:54:57Z</time><pdop>4.0</pdop><geoidheight>54.00</geoidheight><course>312.6</course><type>1</type></trkpt>
      <trkpt lat="39.56065899" lon="-6.41203546"><ele>906</ele><speed>13.00</speed><time>2016-06-21T15:54:59Z</time><pdop>4.0</pdop><geoidheight>54.00</geoidheight><course>308.0</course><type>1</type></trkpt>
      <trkpt lat="39.56072744" lon="-6.41216737"><ele>906</ele><speed>13.75</speed><time>2016-06-21T15:55:00Z</time><pdop>4.0</pdop><geoidheight>54.00</geoidheight><course>304.0</course><type>1</type></trkpt>
      <trkpt lat="39.56086345" lon="-6.41240773"><ele>907</ele><speed>12.75</speed><time>2016-06-21T15:55:02Z</time><pdop>6.0</pdop><geoidheight>54.00</geoidheight><course>306.6</course><type>1</type></trkpt>
      <trkpt lat="39.56098531" lon="-6.41260733"><ele>906</ele><speed>11.25</speed><time>2016-06-21T15:55:04Z</time><pdop>6.0</pdop><geoidheight>54.00</geoidheight><course>308.0</course><type>1</type></trkpt>
      <trkpt lat="39.56109642" lon="-6.41286417"><ele>904</ele><speed>13.25</speed><time>2016-06-21T15:55:06Z</time><pdop>6.0</pdop><geoidheight>54.00</geoidheight><course>301.1</course><type>1</type></trkpt>
      <trkpt lat="39.56121747" lon="-6.41313552"><ele>905</ele><speed>13.25</speed><time>2016-06-21T15:55:08Z</time><pdop>6.0</pdop><geoidheight>54.00</geoidheight><course>302.0</course><type>1</type></trkpt>
      <trkpt lat="39.56131225" lon="-6.41335723"><ele>905</ele><speed>10.75</speed><time>2016-06-21T15:55:10Z</time><pdop>7.0</pdop><geoidheight>54.00</geoidheight><course>299.4</course><type>1</type></trkpt>
      <trkpt lat="39.56146216" lon="-6.41368115"><ele>901</ele><speed>11.00</speed><time>2016-06-21T15:55:13Z</time><pdop>9.0</pdop><geoidheight>54.00</geoidheight><course>301.5</course><type>1</type></trkpt>
      <trkpt lat="39.561596" lon="-6.41391857"><ele>896</ele><speed>12.25</speed><time>2016-06-21T15:55:15Z</time><pdop>7.0</pdop><geoidheight>54.00</geoidheight><course>304.6</course><type>1</type></trkpt>
      <trkpt lat="39.56172499" lon="-6.41415312"><ele>895</ele><speed>12.25</speed><time>2016-06-21T15:55:17Z</time><pdop>7.0</pdop><geoidheight>54.00</geoidheight><course>305.2</course><type>1</type></trkpt>
      <trkpt lat="39.56193797" lon="-6.41447138"><ele>891</ele><speed>12.25</speed><time>2016-06-21T15:55:20Z</time><pdop>5.0</pdop><geoidheight>54.00</geoidheight><course>305.7</course><type>1</type></trkpt>
      <trkpt lat="39.5620892" lon="-6.41469026"><ele>888</ele><speed>12.50</speed><time>2016-06-21T15:55:22Z</time><pdop>5.0</pdop><geoidheight>54.00</geoidheight><course>307.6</course><type>1</type></trkpt>
      <trkpt lat="39.56216264" lon="-6.41480105"><ele>887</ele><speed>12.50</speed><time>2016-06-21T15:55:23Z</time><pdop>5.0</pdop><geoidheight>54.00</geoidheight><course>306.7</course><type>1</type></trkpt>
      <trkpt lat="39.5622262" lon="-6.41492503"><ele>887</ele><speed>13.00</speed><time>2016-06-21T15:55:24Z</time><pdop>5.0</pdop><geoidheight>54.00</geoidheight><course>308.1</course><type>1</type></trkpt>
      <trkpt lat="39.56230464" lon="-6.41503757"><ele>885</ele><speed>13.25</speed><time>2016-06-21T15:55:25Z</time><pdop>6.0</pdop><geoidheight>54.00</geoidheight><course>311.8</course><type>1</type></trkpt>
      <trkpt lat="39.5624627" lon="-6.41528906"><ele>885</ele><speed>13.75</speed><time>2016-06-21T15:55:27Z</time><pdop>5.0</pdop><geoidheight>54.00</geoidheight><course>308.5</course><type>1</type></trkpt>
      <trkpt lat="39.56253419" lon="-6.41540317"><ele>884</ele><speed>12.75</speed><time>2016-06-21T15:55:28Z</time><pdop>5.0</pdop><geoidheight>54.00</geoidheight><course>305.5</course><type>1</type></trkpt>
      <trkpt lat="39.56259449" lon="-6.4155268"><ele>883</ele><speed>12.25</speed><time>2016-06-21T15:55:29Z</time><pdop>5.0</pdop><geoidheight>54.00</geoidheight><course>301.7</course><type>1</type></trkpt>
      <trkpt lat="39.56272296" lon="-6.41577214"><ele>881</ele><speed>12.50</speed><time>2016-06-21T15:55:31Z</time><pdop>4.0</pdop><geoidheight>54.00</geoidheight><course>304.9</course><type>1</type></trkpt>
      <trkpt lat="39.56279103" lon="-6.4158882"><ele>880</ele><speed>12.75</speed><time>2016-06-21T15:55:32Z</time><pdop>4.0</pdop><geoidheight>54.00</geoidheight><course>305.9</course><type>1</type></trkpt>
      <trkpt lat="39.562938869999996" lon="-6.41613073"><ele>878</ele><speed>13.25</speed><time>2016-06-21T15:55:34Z</time><pdop>6.0</pdop><geoidheight>54.00</geoidheight><course>306.1</course><type>1</type></trkpt>
      <trkpt lat="39.56301564" lon="-6.41626937"><ele>877</ele><speed>14.25</speed><time>2016-06-21T15:55:35Z</time><pdop>4.0</pdop><geoidheight>54.00</geoidheight><course>304.3</course><type>1</type></trkpt>
      <trkpt lat="39.5630802" lon="-6.41641036"><ele>877</ele><speed>14.00</speed><time>2016-06-21T15:55:36Z</time><pdop>5.0</pdop><geoidheight>54.00</geoidheight><course>302.0</course><type>1</type></trkpt>
      <trkpt lat="39.56317223" lon="-6.41670294"><ele>878</ele><speed>13.00</speed><time>2016-06-21T15:55:38Z</time><pdop>5.0</pdop><geoidheight>54.00</geoidheight><course>295.6</course><type>1</type></trkpt>
      <trkpt lat="39.5632274" lon="-6.41683135"><ele>877</ele><speed>12.75</speed><time>2016-06-21T15:55:39Z</time><pdop>5.0</pdop><geoidheight>54.00</geoidheight><course>297.9</course><type>1</type></trkpt>
      <trkpt lat="39.5632805" lon="-6.41696412"><ele>876</ele><speed>12.75</speed><time>2016-06-21T15:55:40Z</time><pdop>5.0</pdop><geoidheight>54.00</geoidheight><course>298.5</course><type>1</type></trkpt>
      <trkpt lat="39.56340373" lon="-6.4172153"><ele>874</ele><speed>12.75</speed><time>2016-06-21T15:55:42Z</time><pdop>5.0</pdop><geoidheight>54.00</geoidheight><course>301.9</course><type>1</type></trkpt>
      <trkpt lat="39.56343614" lon="-6.41733943"><ele>873</ele><speed>11.50</speed><time>2016-06-21T15:55:43Z</time><pdop>4.0</pdop><geoidheight>54.00</geoidheight><course>294.3</course><type>1</type></trkpt>
      <trkpt lat="39.56345245" lon="-6.41747157"><ele>873</ele><speed>10.75</speed><time>2016-06-21T15:55:44Z</time><pdop>4.0</pdop><geoidheight>54.00</geoidheight><course>286.1</course><type>1</type></trkpt>
      <trkpt lat="39.56347438" lon="-6.41758255"><ele>871</ele><speed>10.50</speed><time>2016-06-21T15:55:45Z</time><pdop>4.0</pdop><geoidheight>54.00</geoidheight><course>279.2</course><type>1</type></trkpt>
      <trkpt lat="39.56348081" lon="-6.41783013"><ele>869</ele><speed>10.75</speed><time>2016-06-21T15:55:47Z</time><pdop>5.0</pdop><geoidheight>54.00</geoidheight><course>270.6</course><type>1</type></trkpt>
      <trkpt lat="39.56344185" lon="-6.41815823"><ele>867</ele><speed>9.25</speed><time>2016-06-21T15:55:50Z</time><pdop>5.0</pdop><geoidheight>54.00</geoidheight><course>254.2</course><type>1</type></trkpt>
      <trkpt lat="39.56333686" lon="-6.41838633"><ele>863</ele><speed>8.00</speed><time>2016-06-21T15:55:53Z</time><pdop>4.0</pdop><geoidheight>54.00</geoidheight><course>229.6</course><type>1</type></trkpt>
      <trkpt lat="39.56322989" lon="-6.41851059"><ele>860</ele><speed>8.50</speed><time>2016-06-21T15:55:55Z</time><pdop>4.0</pdop><geoidheight>54.00</geoidheight><course>221.3</course><type>1</type></trkpt>
      <trkpt lat="39.56309171" lon="-6.41872946"><ele>858</ele><speed>8.25</speed><time>2016-06-21T15:55:58Z</time><pdop>4.0</pdop><geoidheight>54.00</geoidheight><course>235.1</course><type>1</type></trkpt>
      <trkpt lat="39.56305791" lon="-6.41881765"><ele>856</ele><speed>8.25</speed><time>2016-06-21T15:55:59Z</time><pdop>4.0</pdop><geoidheight>54.00</geoidheight><course>241.8</course><type>1</type></trkpt>
      <trkpt lat="39.56301248" lon="-6.41900559"><ele>854</ele><speed>8.75</speed><time>2016-06-21T15:56:01Z</time><pdop>4.0</pdop><geoidheight>54.00</geoidheight><course>255.6</course><type>1</type></trkpt>
      <trkpt lat="39.5629966" lon="-6.41910238"><ele>853</ele><speed>8.75</speed><time>2016-06-21T15:56:02Z</time><pdop>4.0</pdop><geoidheight>54.00</geoidheight><course>259.2</course><type>1</type></trkpt>
      <trkpt lat="39.56295485" lon="-6.41940609"><ele>847</ele><speed>9.50</speed><time>2016-06-21T15:56:05Z</time><pdop>4.0</pdop><geoidheight>54.00</geoidheight><course>260.8</course><type>1</type></trkpt>
      <trkpt lat="39.5629485" lon="-6.41951732"><ele>845</ele><speed>10.00</speed><time>2016-06-21T15:56:06Z</time><pdop>4.0</pdop><geoidheight>54.00</geoidheight><course>264.6</course><type>1</type></trkpt>
      <trkpt lat="39.562968" lon="-6.41973295"><ele>842</ele><speed>9.25</speed><time>2016-06-21T15:56:08Z</time><pdop>4.0</pdop><geoidheight>54.00</geoidheight><course>274.6</course><type>1</type></trkpt>
      <trkpt lat="39.56297809" lon="-6.41984311"><ele>840</ele><speed>9.50</speed><time>2016-06-21T15:56:09Z</time><pdop>4.0</pdop><geoidheight>54.00</geoidheight><course>275.6</course><type>1</type></trkpt>
      <trkpt lat="39.56298907" lon="-6.41996444"><ele>838</ele><speed>10.50</speed><time>2016-06-21T15:56:10Z</time><pdop>4.0</pdop><geoidheight>54.00</geoidheight><course>276.0</course><type>1</type></trkpt>
      <trkpt lat="39.56300809" lon="-6.42008295"><ele>836</ele><speed>10.50</speed><time>2016-06-21T15:56:11Z</time><pdop>3.0</pdop><geoidheight>54.00</geoidheight><course>279.3</course><type>1</type></trkpt>
      <trkpt lat="39.56306827" lon="-6.42029421"><ele>834</ele><speed>9.50</speed><time>2016-06-21T15:56:13Z</time><pdop>3.0</pdop><geoidheight>54.00</geoidheight><course>290.5</course><type>1</type></trkpt>
      <trkpt lat="39.56311971" lon="-6.42049232"><ele>829</ele><speed>9.00</speed><time>2016-06-21T15:56:15Z</time><pdop>4.0</pdop><geoidheight>54.00</geoidheight><course>286.7</course><type>1</type></trkpt>
      <trkpt lat="39.56313379" lon="-6.42060538"><ele>825</ele><speed>9.75</speed><time>2016-06-21T15:56:16Z</time><pdop>3.0</pdop><geoidheight>54.00</geoidheight><course>280.4</course><type>1</type></trkpt>
      <trkpt lat="39.56314645" lon="-6.42072398"><ele>823</ele><speed>10.50</speed><time>2016-06-21T15:56:17Z</time><pdop>4.0</pdop><geoidheight>54.00</geoidheight><course>279.5</course><type>1</type></trkpt>
      <trkpt lat="39.56315853" lon="-6.42082948"><ele>822</ele><speed>9.75</speed><time>2016-06-21T15:56:18Z</time><pdop>4.0</pdop><geoidheight>54.00</geoidheight><course>279.3</course><type>1</type></trkpt>
      <trkpt lat="39.5631405" lon="-6.42097142"><ele>850</ele><speed>5.50</speed><time>2016-06-21T15:56:20Z</time><pdop>4.0</pdop><geoidheight>54.00</geoidheight><course>255.7</course><type>1</type></trkpt>
      <trkpt lat="39.5630782" lon="-6.42105357"><ele>856</ele><speed>5.50</speed><time>2016-06-21T15:56:22Z</time><pdop>4.0</pdop><geoidheight>54.00</geoidheight><course>226.5</course><type>1</type></trkpt>
      <trkpt lat="39.56295744" lon="-6.42094452"><ele>830</ele><speed>6.75</speed><time>2016-06-21T15:56:25Z</time><pdop>4.0</pdop><geoidheight>54.00</geoidheight><course>143.8</course><type>1</type></trkpt>
      <trkpt lat="39.56283528" lon="-6.42081296"><ele>817</ele><speed>4.25</speed><time>2016-06-21T15:56:28Z</time><pdop>3.0</pdop><geoidheight>54.00</geoidheight><course>149.0</course><type>1</type></trkpt>
      <trkpt lat="39.56276076" lon="-6.42075451"><ele>811</ele><speed>5.50</speed><time>2016-06-21T15:56:30Z</time><pdop>4.0</pdop><geoidheight>54.00</geoidheight><course>149.1</course><type>1</type></trkpt>
      <trkpt lat="39.56265707" lon="-6.42066933"><ele>806</ele><speed>6.25</speed><time>2016-06-21T15:56:32Z</time><pdop>4.0</pdop><geoidheight>54.00</geoidheight><course>149.2</course><type>1</type></trkpt>
      <trkpt lat="39.56252224" lon="-6.42060277"><ele>799</ele><speed>4.75</speed><time>2016-06-21T15:56:35Z</time><pdop>4.0</pdop><geoidheight>54.00</geoidheight><course>165.1</course><type>1</type></trkpt>
      <trkpt lat="39.56241275" lon="-6.42047259"><ele>791</ele><speed>6.25</speed><time>2016-06-21T15:56:38Z</time><pdop>5.0</pdop><geoidheight>54.00</geoidheight><course>126.3</course><type>1</type></trkpt>
      <trkpt lat="39.56233274" lon="-6.42034398"><ele>786</ele><speed>6.50</speed><time>2016-06-21T15:56:40Z</time><pdop>4.0</pdop><geoidheight>54.00</geoidheight><course>128.3</course><type>1</type></trkpt>
      <trkpt lat="39.56221166" lon="-6.42021246"><ele>779</ele><speed>5.50</speed><time>2016-06-21T15:56:43Z</time><pdop>3.0</pdop><geoidheight>54.00</geoidheight><course>144.7</course><type>1</type></trkpt>
      <trkpt lat="39.56210383" lon="-6.42012123"><ele>773</ele><speed>4.75</speed><time>2016-06-21T15:56:46Z</time><pdop>4.0</pdop><geoidheight>54.00</geoidheight><course>145.5</course><type>1</type></trkpt>
      <trkpt lat="39.56203981" lon="-6.42001439"><ele>768</ele><speed>6.00</speed><time>2016-06-21T15:56:48Z</time><pdop>4.0</pdop><geoidheight>54.00</geoidheight><course>122.3</course><type>1</type></trkpt>
      <trkpt lat="39.56198449" lon="-6.4198816"><ele>765</ele><speed>6.25</speed><time>2016-06-21T15:56:50Z</time><pdop>5.0</pdop><geoidheight>54.00</geoidheight><course>116.3</course><type>1</type></trkpt>
      <trkpt lat="39.56192136" lon="-6.41970506"><ele>760</ele><speed>5.50</speed><time>2016-06-21T15:56:53Z</time><pdop>4.0</pdop><geoidheight>54.00</geoidheight><course>113.1</course><type>1</type></trkpt>
      <trkpt lat="39.56188109" lon="-6.41955805"><ele>756</ele><speed>6.50</speed><time>2016-06-21T15:56:55Z</time><pdop>4.0</pdop><geoidheight>54.00</geoidheight><course>108.9</course><type>1</type></trkpt>
      <trkpt lat="39.56183193" lon="-6.41937314"><ele>750</ele><speed>5.50</speed><time>2016-06-21T15:56:58Z</time><pdop>5.0</pdop><geoidheight>54.00</geoidheight><course>109.5</course><type>1</type></trkpt>
      <trkpt lat="39.56177323" lon="-6.41926568"><ele>744</ele><speed>5.75</speed><time>2016-06-21T15:57:00Z</time><pdop>4.0</pdop><geoidheight>54.00</geoidheight><course>123.3</course><type>1</type></trkpt>
      <trkpt lat="39.56170992" lon="-6.41914996"><ele>740</ele><speed>6.00</speed><time>2016-06-21T15:57:02Z</time><pdop>4.0</pdop><geoidheight>54.00</geoidheight><course>126.4</course><type>1</type></trkpt>
      <trkpt lat="39.56166024" lon="-6.41905521"><ele>736</ele><speed>5.00</speed><time>2016-06-21T15:57:04Z</time><pdop>4.0</pdop><geoidheight>54.00</geoidheight><course>124.4</course><type>1</type></trkpt>
      <trkpt lat="39.56155475" lon="-6.4189042"><ele>727</ele><speed>6.00</speed><time>2016-06-21T15:57:07Z</time><pdop>5.0</pdop><geoidheight>54.00</geoidheight><course>131.3</course><type>1</type></trkpt>
      <trkpt lat="39.56149066" lon="-6.41877804"><ele>722</ele><speed>3.50</speed><time>2016-06-21T15:57:10Z</time><pdop>5.0</pdop><geoidheight>54.00</geoidheight><course>122.8</course><type>1</type></trkpt>
      <trkpt lat="39.56140022" lon="-6.41859153"><ele>710</ele><speed>5.25</speed><time>2016-06-21T15:57:14Z</time><pdop>5.0</pdop><geoidheight>54.00</geoidheight><course>126.6</course><type>1</type></trkpt>
      <trkpt lat="39.56135803" lon="-6.41848527"><ele>709</ele><speed>4.75</speed><time>2016-06-21T15:57:16Z</time><pdop>5.0</pdop><geoidheight>54.00</geoidheight><course>112.6</course><type>1</type></trkpt>
      <trkpt lat="39.56130994" lon="-6.41832666"><ele>703</ele><speed>5.25</speed><time>2016-06-21T15:57:19Z</time><pdop>4.0</pdop><geoidheight>54.00</geoidheight><course>109.8</course><type>1</type></trkpt>
      <trkpt lat="39.56130735" lon="-6.41820804"><ele>701</ele><speed>5.25</speed><time>2016-06-21T15:57:21Z</time><pdop>4.0</pdop><geoidheight>54.00</geoidheight><course>87.0</course><type>1</type></trkpt>
      <trkpt lat="39.56131462" lon="-6.41806459"><ele>698</ele><speed>6.75</speed><time>2016-06-21T15:57:23Z</time><pdop>5.0</pdop><geoidheight>54.00</geoidheight><course>86.8</course><type>1</type></trkpt>
      <trkpt lat="39.5613501" lon="-6.41788961"><ele>697</ele><speed>8.25</speed><time>2016-06-21T15:57:25Z</time><pdop>4.0</pdop><geoidheight>54.00</geoidheight><course>71.5</course><type>1</type></trkpt>
      <trkpt lat="39.5613928" lon="-6.4178005"><ele>695</ele><speed>9.50</speed><time>2016-06-21T15:57:26Z</time><pdop>4.0</pdop><geoidheight>54.00</geoidheight><course>63.7</course><type>1</type></trkpt>
      <trkpt lat="39.56151344" lon="-6.41762082"><ele>692</ele><speed>11.00</speed><time>2016-06-21T15:57:28Z</time><pdop>4.0</pdop><geoidheight>54.00</geoidheight><course>54.9</course><type>1</type></trkpt>
      <trkpt lat="39.56158519" lon="-6.41752771"><ele>690</ele><speed>11.00</speed><time>2016-06-21T15:57:29Z</time><pdop>4.0</pdop><geoidheight>54.00</geoidheight><course>52.3</course><type>1</type></trkpt>
      <trkpt lat="39.56165623" lon="-6.41744932"><ele>689</ele><speed>10.75</speed><time>2016-06-21T15:57:30Z</time><pdop>4.0</pdop><geoidheight>54.00</geoidheight><course>49.2</course><type>1</type></trkpt>
      <trkpt lat="39.5617185" lon="-6.41735944"><ele>689</ele><speed>11.00</speed><time>2016-06-21T15:57:31Z</time><pdop>4.0</pdop><geoidheight>54.00</geoidheight><course>45.2</course><type>1</type></trkpt>
      <trkpt lat="39.56186724" lon="-6.41718379"><ele>688</ele><speed>11.25</speed><time>2016-06-21T15:57:33Z</time><pdop>4.0</pdop><geoidheight>54.00</geoidheight><course>41.4</course><type>1</type></trkpt>
      <trkpt lat="39.56195303" lon="-6.41708497"><ele>687</ele><speed>12.25</speed><time>2016-06-21T15:57:34Z</time><pdop>3.0</pdop><geoidheight>54.00</geoidheight><course>40.7</course><type>1</type></trkpt>
      <trkpt lat="39.56213789" lon="-6.4169171"><ele>685</ele><speed>13.00</speed><time>2016-06-21T15:57:36Z</time><pdop>3.0</pdop><geoidheight>54.00</geoidheight><course>35.5</course><type>1</type></trkpt>
      <trkpt lat="39.56223555" lon="-6.41684485"><ele>685</ele><speed>12.75</speed><time>2016-06-21T15:57:37Z</time><pdop>3.0</pdop><geoidheight>54.00</geoidheight><course>31.5</course><type>1</type></trkpt>
      <trkpt lat="39.56233758" lon="-6.41678186"><ele>685</ele><speed>13.00</speed><time>2016-06-21T15:57:38Z</time><pdop>3.0</pdop><geoidheight>54.00</geoidheight><course>27.6</course><type>1</type></trkpt>
      <trkpt lat="39.56256321" lon="-6.41666925"><ele>685</ele><speed>13.50</speed><time>2016-06-21T15:57:40Z</time><pdop>4.0</pdop><geoidheight>54.00</geoidheight><course>21.8</course><type>1</type></trkpt>
      <trkpt lat="39.56270197" lon="-6.41667403"><ele>684</ele><speed>14.00</speed><time>2016-06-21T15:57:41Z</time><pdop>4.0</pdop><geoidheight>54.00</geoidheight><course>6.4</course><type>1</type></trkpt>
      <trkpt lat="39.56285946" lon="-6.41666628"><ele>682</ele><speed>16.00</speed><time>2016-06-21T15:57:42Z</time><pdop>3.0</pdop><geoidheight>54.00</geoidheight><course>2.7</course><type>1</type></trkpt>
      <trkpt lat="39.5631617" lon="-6.41665512"><ele>713</ele><speed>15.50</speed><time>2016-06-21T15:57:44Z</time><pdop>3.0</pdop><geoidheight>54.00</geoidheight><course>1.3</course><type>1</type></trkpt>
      <trkpt lat="39.56329224" lon="-6.41664321"><ele>702</ele><speed>14.75</speed><time>2016-06-21T15:57:45Z</time><pdop>3.0</pdop><geoidheight>54.00</geoidheight><course>1.8</course><type>1</type></trkpt>
      <trkpt lat="39.56356793" lon="-6.41663836"><ele>690</ele><speed>15.25</speed><time>2016-06-21T15:57:47Z</time><pdop>3.0</pdop><geoidheight>54.00</geoidheight><course>359.2</course><type>1</type></trkpt>
      <trkpt lat="39.56371535" lon="-6.41665138"><ele>687</ele><speed>16.00</speed><time>2016-06-21T15:57:48Z</time><pdop>3.0</pdop><geoidheight>54.00</geoidheight><course>357.3</course><type>1</type></trkpt>
      <trkpt lat="39.56398396" lon="-6.41663163"><ele>684</ele><speed>14.00</speed><time>2016-06-21T15:57:50Z</time><pdop>4.0</pdop><geoidheight>54.00</geoidheight><course>5.3</course><type>1</type></trkpt>
      <trkpt lat="39.56411374" lon="-6.41661818"><ele>682</ele><speed>14.25</speed><time>2016-06-21T15:57:51Z</time><pdop>4.0</pdop><geoidheight>54.00</geoidheight><course>4.6</course><type>1</type></trkpt>
      <trkpt lat="39.56424527" lon="-6.41652502"><ele>680</ele><speed>15.00</speed><time>2016-06-21T15:57:52Z</time><pdop>3.0</pdop><geoidheight>54.00</geoidheight><course>20.5</course><type>1</type></trkpt>
      <trkpt lat="39.56448148" lon="-6.41639853"><ele>679</ele><speed>14.25</speed><time>2016-06-21T15:57:54Z</time><pdop>3.0</pdop><geoidheight>54.00</geoidheight><course>21.2</course><type>1</type></trkpt>
      <trkpt lat="39.5647119" lon="-6.41633971"><ele>680</ele><speed>13.00</speed><time>2016-06-21T15:57:56Z</time><pdop>3.0</pdop><geoidheight>54.00</geoidheight><course>8.5</course><type>1</type></trkpt>
      <trkpt lat="39.5648305" lon="-6.4163499999999996"><ele>679</ele><speed>13.50</speed><time>2016-06-21T15:57:57Z</time><pdop>3.0</pdop><geoidheight>54.00</geoidheight><course>0.3</course><type>1</type></trkpt>
      <trkpt lat="39.56496184" lon="-6.41637348"><ele>678</ele><speed>14.50</speed><time>2016-06-21T15:57:58Z</time><pdop>4.0</pdop><geoidheight>54.00</geoidheight><course>352.4</course><type>1</type></trkpt>
      <trkpt lat="39.56519818" lon="-6.41651195"><ele>677</ele><speed>13.50</speed><time>2016-06-21T15:58:00Z</time><pdop>3.0</pdop><geoidheight>54.00</geoidheight><course>330.3</course><type>1</type></trkpt>
      <trkpt lat="39.56532097" lon="-6.41671194"><ele>677</ele><speed>10.00</speed><time>2016-06-21T15:58:02Z</time><pdop>3.0</pdop><geoidheight>54.00</geoidheight><course>300.8</course><type>1</type></trkpt>
      <trkpt lat="39.56536715" lon="-6.41681186"><ele>676</ele><speed>10.00</speed><time>2016-06-21T15:58:03Z</time><pdop>5.0</pdop><geoidheight>54.00</geoidheight><course>300.8</course><type>1</type></trkpt>
      <trkpt lat="39.56529613" lon="-6.4170183"><ele>673</ele><speed>6.00</speed><time>2016-06-21T15:58:06Z</time><pdop>4.0</pdop><geoidheight>54.00</geoidheight><course>239.6</course><type>1</type></trkpt>
      <trkpt lat="39.56520702" lon="-6.41697918"><ele>670</ele><speed>5.00</speed><time>2016-06-21T15:58:08Z</time><pdop>3.0</pdop><geoidheight>54.00</geoidheight><course>149.3</course><type>1</type></trkpt>
      <trkpt lat="39.5651531" lon="-6.41686578"><ele>668</ele><speed>5.50</speed><time>2016-06-21T15:58:10Z</time><pdop>6.0</pdop><geoidheight>54.00</geoidheight><course>120.4</course><type>1</type></trkpt>
      <trkpt lat="39.5651737" lon="-6.4167248"><ele>669</ele><speed>8.25</speed><time>2016-06-21T15:58:11Z</time><pdop>3.0</pdop><geoidheight>54.00</geoidheight><course>83.9</course><type>1</type></trkpt>
      <trkpt lat="39.56518783" lon="-6.41663487"><ele>669</ele><speed>7.75</speed><time>2016-06-21T15:58:12Z</time><pdop>3.0</pdop><geoidheight>54.00</geoidheight><course>79.8</course><type>1</type></trkpt>
      <trkpt lat="39.56520004" lon="-6.4164569"><ele>667</ele><speed>8.00</speed><time>2016-06-21T15:58:14Z</time><pdop>3.0</pdop><geoidheight>54.00</geoidheight><course>87.5</course><type>1</type></trkpt>
      <trkpt lat="39.56519384" lon="-6.41635166"><ele>666</ele><speed>8.75</speed><time>2016-06-21T15:58:15Z</time><pdop>3.0</pdop><geoidheight>54.00</geoidheight><course>91.3</course><type>1</type></trkpt>
      <trkpt lat="39.56519061" lon="-6.41624672"><ele>667</ele><speed>8.75</speed><time>2016-06-21T15:58:16Z</time><pdop>3.0</pdop><geoidheight>54.00</geoidheight><course>90.0</course><type>1</type></trkpt>
      <trkpt lat="39.56519433" lon="-6.41605945"><ele>670</ele><speed>8.00</speed><time>2016-06-21T15:58:18Z</time><pdop>4.0</pdop><geoidheight>54.00</geoidheight><course>87.6</course><type>1</type></trkpt>
      <trkpt lat="39.56519262" lon="-6.4159626"><ele>670</ele><speed>4.75</speed><time>2016-06-21T15:58:20Z</time><pdop>3.0</pdop><geoidheight>54.00</geoidheight><course>96.4</course><type>1</type></trkpt>
      <trkpt lat="39.5651096" lon="-6.41585537"><ele>675</ele><speed>4.25</speed><time>2016-06-21T15:58:23Z</time><pdop>3.0</pdop><geoidheight>54.00</geoidheight><course>167.8</course><type>1</type></trkpt>
      <trkpt lat="39.56504786" lon="-6.41608224"><ele>673</ele><speed>7.75</speed><time>2016-06-21T15:58:26Z</time><pdop>5.0</pdop><geoidheight>54.00</geoidheight><course>256.2</course><type>1</type></trkpt>
      <trkpt lat="39.56513663" lon="-6.41624172"><ele>674</ele><speed>11.50</speed><time>2016-06-21T15:58:27Z</time><pdop>3.0</pdop><geoidheight>54.00</geoidheight><course>297.1</course><type>1</type></trkpt>
      <trkpt lat="39.56533629" lon="-6.41640041"><ele>676</ele><speed>13.25</speed><time>2016-06-21T15:58:29Z</time><pdop>3.0</pdop><geoidheight>54.00</geoidheight><course>335.1</course><type>1</type></trkpt>
      <trkpt lat="39.56545968" lon="-6.4164212"><ele>676</ele><speed>13.25</speed><time>2016-06-21T15:58:30Z</time><pdop>3.0</pdop><geoidheight>54.00</geoidheight><course>350.5</course><type>1</type></trkpt>
      <trkpt lat="39.56557417" lon="-6.41641052"><ele>677</ele><speed>13.00</speed><time>2016-06-21T15:58:31Z</time><pdop>3.0</pdop><geoidheight>54.00</geoidheight><course>3.2</course><type>1</type></trkpt>
      <trkpt lat="39.56567501" lon="-6.41636688"><ele>677</ele><speed>12.00</speed><time>2016-06-21T15:58:32Z</time><pdop>3.0</pdop><geoidheight>54.00</geoidheight><course>17.5</course><type>1</type></trkpt>
      <trkpt lat="39.56577823" lon="-6.41632495"><ele>678</ele><speed>12.00</speed><time>2016-06-21T15:58:33Z</time><pdop>5.0</pdop><geoidheight>54.00</geoidheight><course>17.5</course><type>1</type></trkpt>
      <trkpt lat="39.56580582" lon="-6.41621148"><ele>678</ele><speed>9.00</speed><time>2016-06-21T15:58:34Z</time><pdop>3.0</pdop><geoidheight>54.00</geoidheight><course>49.7</course><type>1</type></trkpt>
      <trkpt lat="39.56585863" lon="-6.41613099"><ele>678</ele><speed>9.00</speed><time>2016-06-21T15:58:35Z</time><pdop>4.0</pdop><geoidheight>54.00</geoidheight><course>49.7</course><type>1</type></trkpt>
      <trkpt lat="39.56581141" lon="-6.4159975"><ele>679</ele><speed>5.50</speed><time>2016-06-21T15:58:37Z</time><pdop>4.0</pdop><geoidheight>54.00</geoidheight><course>106.5</course><type>1</type></trkpt>
      <trkpt lat="39.56571175" lon="-6.41596501"><ele>686</ele><speed>3.50</speed><time>2016-06-21T15:58:40Z</time><pdop>3.0</pdop><geoidheight>54.00</geoidheight><course>192.1</course><type>1</type></trkpt>
      <trkpt lat="39.56565115" lon="-6.41601746"><ele>693</ele><speed>3.00</speed><time>2016-06-21T15:58:43Z</time><pdop>3.0</pdop><geoidheight>54.00</geoidheight><course>231.1</course><type>1</type></trkpt>
      <trkpt lat="39.56562963" lon="-6.41615668"><ele>695</ele><speed>6.75</speed><time>2016-06-21T15:58:45Z</time><pdop>3.0</pdop><geoidheight>54.00</geoidheight><course>263.2</course><type>1</type></trkpt>
      <trkpt lat="39.56567522" lon="-6.4163358"><ele>699</ele><speed>8.75</speed><time>2016-06-21T15:58:47Z</time><pdop>3.0</pdop><geoidheight>54.00</geoidheight><course>292.0</course><type>1</type></trkpt>
      <trkpt lat="39.56572822" lon="-6.4164301"><ele>700</ele><speed>10.00</speed><time>2016-06-21T15:58:48Z</time><pdop>3.0</pdop><geoidheight>54.00</geoidheight><course>305.0</course><type>1</type></trkpt>
      <trkpt lat="39.56591508" lon="-6.41660888"><ele>699</ele><speed>13.25</speed><time>2016-06-21T15:58:50Z</time><pdop>3.0</pdop><geoidheight>54.00</geoidheight><course>328.0</course><type>1</type></trkpt>
      <trkpt lat="39.56603761" lon="-6.41665062"><ele>699</ele><speed>14.00</speed><time>2016-06-21T15:58:51Z</time><pdop>3.0</pdop><geoidheight>54.00</geoidheight><course>343.9</course><type>1</type></trkpt>
      <trkpt lat="39.56626248" lon="-6.41659633"><ele>701</ele><speed>12.75</speed><time>2016-06-21T15:58:53Z</time><pdop>3.0</pdop><geoidheight>54.00</geoidheight><course>17.2</course><type>1</type></trkpt>
      <trkpt lat="39.5663503" lon="-6.41652724"><ele>702</ele><speed>11.50</speed><time>2016-06-21T15:58:54Z</time><pdop>3.0</pdop><geoidheight>54.00</geoidheight><course>28.8</course><type>1</type></trkpt>
      <trkpt lat="39.56641912" lon="-6.41644667"><ele>703</ele><speed>10.25</speed><time>2016-06-21T15:58:55Z</time><pdop>3.0</pdop><geoidheight>54.00</geoidheight><course>38.1</course><type>1</type></trkpt>
      <trkpt lat="39.56651445" lon="-6.41630045"><ele>705</ele><speed>7.75</speed><time>2016-06-21T15:58:57Z</time><pdop>3.0</pdop><geoidheight>54.00</geoidheight><course>52.8</course><type>1</type></trkpt>
      <trkpt lat="39.56655386" lon="-6.41615729"><ele>706</ele><speed>6.50</speed><time>2016-06-21T15:58:59Z</time><pdop>3.0</pdop><geoidheight>54.00</geoidheight><course>73.5</course><type>1</type></trkpt>
      <trkpt lat="39.56651829" lon="-6.41604217"><ele>713</ele><speed>2.75</speed><time>2016-06-21T15:59:02Z</time><pdop>3.0</pdop><geoidheight>54.00</geoidheight><course>151.5</course><type>1</type></trkpt>
      <trkpt lat="39.5664812" lon="-6.41618436"><ele>718</ele><speed>6.00</speed><time>2016-06-21T15:59:05Z</time><pdop>3.0</pdop><geoidheight>54.00</geoidheight><course>264.4</course><type>1</type></trkpt>
      <trkpt lat="39.56653482" lon="-6.41638612"><ele>722</ele><speed>10.25</speed><time>2016-06-21T15:59:07Z</time><pdop>3.0</pdop><geoidheight>54.00</geoidheight><course>292.0</course><type>1</type></trkpt>
      <trkpt lat="39.56656932" lon="-6.41649639"><ele>724</ele><speed>10.25</speed><time>2016-06-21T15:59:08Z</time><pdop>4.0</pdop><geoidheight>54.00</geoidheight><course>292.0</course><type>1</type></trkpt>
      <trkpt lat="39.56677226" lon="-6.41669079"><ele>727</ele><speed>12.75</speed><time>2016-06-21T15:59:10Z</time><pdop>3.0</pdop><geoidheight>54.00</geoidheight><course>327.1</course><type>1</type></trkpt>
      <trkpt lat="39.5668802" lon="-6.41673467"><ele>728</ele><speed>12.50</speed><time>2016-06-21T15:59:11Z</time><pdop>3.0</pdop><geoidheight>54.00</geoidheight><course>341.7</course><type>1</type></trkpt>
      <trkpt lat="39.56710276" lon="-6.41673742"><ele>729</ele><speed>12.00</speed><time>2016-06-21T15:59:13Z</time><pdop>3.0</pdop><geoidheight>54.00</geoidheight><course>3.7</course><type>1</type></trkpt>
      <trkpt lat="39.56719607" lon="-6.41670792"><ele>731</ele><speed>10.75</speed><time>2016-06-21T15:59:14Z</time><pdop>3.0</pdop><geoidheight>54.00</geoidheight><course>13.2</course><type>1</type></trkpt>
      <trkpt lat="39.56727373" lon="-6.41666123"><ele>731</ele><speed>9.75</speed><time>2016-06-21T15:59:15Z</time><pdop>3.0</pdop><geoidheight>54.00</geoidheight><course>23.4</course><type>1</type></trkpt>
      <trkpt lat="39.56740464" lon="-6.41650782"><ele>731</ele><speed>9.75</speed><time>2016-06-21T15:59:17Z</time><pdop>3.0</pdop><geoidheight>54.00</geoidheight><course>45.2</course><type>1</type></trkpt>
      <trkpt lat="39.5674441" lon="-6.41641212"><ele>732</ele><speed>9.50</speed><time>2016-06-21T15:59:18Z</time><pdop>3.0</pdop><geoidheight>54.00</geoidheight><course>59.3</course><type>1</type></trkpt>
      <trkpt lat="39.56749495" lon="-6.41621194"><ele>735</ele><speed>9.00</speed><time>2016-06-21T15:59:20Z</time><pdop>4.0</pdop><geoidheight>54.00</geoidheight><course>71.4</course><type>1</type></trkpt>
      <trkpt lat="39.56747537" lon="-6.4161213"><ele>741</ele><speed>3.75</speed><time>2016-06-21T15:59:22Z</time><pdop>3.0</pdop><geoidheight>54.00</geoidheight><course>91.1</course><type>1</type></trkpt>
      <trkpt lat="39.56740389" lon="-6.4161902"><ele>747</ele><speed>5.25</speed><time>2016-06-21T15:59:26Z</time><pdop>3.0</pdop><geoidheight>54.00</geoidheight><course>243.6</course><type>1</type></trkpt>
      <trkpt lat="39.56739643" lon="-6.41627528"><ele>748</ele><speed>6.75</speed><time>2016-06-21T15:59:27Z</time><pdop>3.0</pdop><geoidheight>54.00</geoidheight><course>258.7</course><type>1</type></trkpt>
      <trkpt lat="39.56742722" lon="-6.41647408"><ele>751</ele><speed>9.25</speed><time>2016-06-21T15:59:29Z</time><pdop>3.0</pdop><geoidheight>54.00</geoidheight><course>283.2</course><type>1</type></trkpt>
      <trkpt lat="39.5674781" lon="-6.41658721"><ele>753</ele><speed>10.75</speed><time>2016-06-21T15:59:30Z</time><pdop>3.0</pdop><geoidheight>54.00</geoidheight><course>298.0</course><type>1</type></trkpt>
      <trkpt lat="39.56755439" lon="-6.41669453"><ele>754</ele><speed>12.25</speed><time>2016-06-21T15:59:31Z</time><pdop>3.0</pdop><geoidheight>54.00</geoidheight><course>312.1</course><type>1</type></trkpt>
      <trkpt lat="39.5677642" lon="-6.41684028"><ele>756</ele><speed>13.25</speed><time>2016-06-21T15:59:33Z</time><pdop>3.0</pdop><geoidheight>54.00</geoidheight><course>335.4</course><type>1</type></trkpt>
      <trkpt lat="39.56787755" lon="-6.41688368"><ele>757</ele><speed>13.00</speed><time>2016-06-21T15:59:34Z</time><pdop>3.0</pdop><geoidheight>54.00</geoidheight><course>343.9</course><type>1</type></trkpt>
      <trkpt lat="39.56798714" lon="-6.41689926"><ele>759</ele><speed>12.25</speed><time>2016-06-21T15:59:35Z</time><pdop>3.0</pdop><geoidheight>54.00</geoidheight><course>352.1</course><type>1</type></trkpt>
      <trkpt lat="39.56819933" lon="-6.41688579"><ele>761</ele><speed>12.00</speed><time>2016-06-21T15:59:37Z</time><pdop>3.0</pdop><geoidheight>54.00</geoidheight><course>5.6</course><type>1</type></trkpt>
      <trkpt lat="39.56830855" lon="-6.41684991"><ele>762</ele><speed>12.25</speed><time>2016-06-21T15:59:38Z</time><pdop>3.0</pdop><geoidheight>54.00</geoidheight><course>13.3</course><type>1</type></trkpt>
      <trkpt lat="39.56849271" lon="-6.41670019"><ele>764</ele><speed>11.75</speed><time>2016-06-21T15:59:40Z</time><pdop>3.0</pdop><geoidheight>54.00</geoidheight><course>35.0</course><type>1</type></trkpt>
      <trkpt lat="39.56855656" lon="-6.41661142"><ele>766</ele><speed>10.50</speed><time>2016-06-21T15:59:41Z</time><pdop>3.0</pdop><geoidheight>54.00</geoidheight><course>45.6</course><type>1</type></trkpt>
      <trkpt lat="39.56859697" lon="-6.41652728"><ele>767</ele><speed>9.00</speed><time>2016-06-21T15:59:42Z</time><pdop>3.0</pdop><geoidheight>54.00</geoidheight><course>55.9</course><type>1</type></trkpt>
      <trkpt lat="39.56862076" lon="-6.41645444"><ele>770</ele><speed>7.00</speed><time>2016-06-21T15:59:43Z</time><pdop>3.0</pdop><geoidheight>54.00</geoidheight><course>66.9</course><type>1</type></trkpt>
      <trkpt lat="39.56862701" lon="-6.41633227"><ele>773</ele><speed>5.50</speed><time>2016-06-21T15:59:45Z</time><pdop>5.0</pdop><geoidheight>54.00</geoidheight><course>81.5</course><type>1</type></trkpt>
      <trkpt lat="39.56853119" lon="-6.4163095"><ele>779</ele><speed>3.50</speed><time>2016-06-21T15:59:48Z</time><pdop>3.0</pdop><geoidheight>54.00</geoidheight><course>182.9</course><type>1</type></trkpt>
      <trkpt lat="39.56848067" lon="-6.41636673"><ele>783</ele><speed>4.25</speed><time>2016-06-21T15:59:50Z</time><pdop>3.0</pdop><geoidheight>54.00</geoidheight><course>227.8</course><type>1</type></trkpt>
      <trkpt lat="39.56843151" lon="-6.41649958"><ele>784</ele><speed>6.75</speed><time>2016-06-21T15:59:52Z</time><pdop>3.0</pdop><geoidheight>54.00</geoidheight><course>247.8</course><type>1</type></trkpt>
      <trkpt lat="39.56845468" lon="-6.41671113"><ele>787</ele><speed>9.50</speed><time>2016-06-21T15:59:54Z</time><pdop>3.0</pdop><geoidheight>54.00</geoidheight><course>281.8</course><type>1</type></trkpt>
      <trkpt lat="39.56850946" lon="-6.41682822"><ele>788</ele><speed>11.00</speed><time>2016-06-21T15:59:55Z</time><pdop>3.0</pdop><geoidheight>54.00</geoidheight><course>298.3</course><type>1</type></trkpt>
      <trkpt lat="39.56868722" lon="-6.41700864"><ele>791</ele><speed>13.00</speed><time>2016-06-21T15:59:57Z</time><pdop>3.0</pdop><geoidheight>54.00</geoidheight><course>326.8</course><type>1</type></trkpt>
      <trkpt lat="39.5687851" lon="-6.4170913"><ele>793</ele><speed>13.00</speed><time>2016-06-21T15:59:58Z</time><pdop>4.0</pdop><geoidheight>54.00</geoidheight><course>326.8</course><type>1</type></trkpt>
      <trkpt lat="39.56902946" lon="-6.41708756"><ele>795</ele><speed>12.75</speed><time>2016-06-21T16:00:00Z</time><pdop>3.0</pdop><geoidheight>54.00</geoidheight><course>358.1</course><type>1</type></trkpt>
      <trkpt lat="39.56914292" lon="-6.41706351"><ele>797</ele><speed>12.75</speed><time>2016-06-21T16:00:01Z</time><pdop>3.0</pdop><geoidheight>54.00</geoidheight><course>7.9</course><type>1</type></trkpt>
      <trkpt lat="39.56923766" lon="-6.4170102"><ele>798</ele><speed>12.25</speed><time>2016-06-21T16:00:02Z</time><pdop>3.0</pdop><geoidheight>54.00</geoidheight><course>20.2</course><type>1</type></trkpt>
      <trkpt lat="39.5693186" lon="-6.41693474"><ele>799</ele><speed>11.25</speed><time>2016-06-21T16:00:03Z</time><pdop>3.0</pdop><geoidheight>54.00</geoidheight><course>35.3</course><type>1</type></trkpt>
      <trkpt lat="39.56938379" lon="-6.41675124"><ele>800</ele><speed>8.50</speed><time>2016-06-21T16:00:05Z</time><pdop>3.0</pdop><geoidheight>54.00</geoidheight><course>71.6</course><type>1</type></trkpt>
      <trkpt lat="39.56940771" lon="-6.41665844"><ele>801</ele><speed>8.50</speed><time>2016-06-21T16:00:06Z</time><pdop>5.0</pdop><geoidheight>54.00</geoidheight><course>71.6</course><type>1</type></trkpt>
      <trkpt lat="39.569333" lon="-6.41656636"><ele>806</ele><speed>5.00</speed><time>2016-06-21T16:00:08Z</time><pdop>3.0</pdop><geoidheight>54.00</geoidheight><course>127.2</course><type>1</type></trkpt>
      <trkpt lat="39.56927108" lon="-6.41653066"><ele>811</ele><speed>3.25</speed><time>2016-06-21T16:00:10Z</time><pdop>3.0</pdop><geoidheight>54.00</geoidheight><course>163.0</course><type>1</type></trkpt>
      <trkpt lat="39.56921407" lon="-6.41654394"><ele>815</ele><speed>3.50</speed><time>2016-06-21T16:00:12Z</time><pdop>3.0</pdop><geoidheight>54.00</geoidheight><course>194.6</course><type>1</type></trkpt>
      <trkpt lat="39.56916349" lon="-6.41662407"><ele>819</ele><speed>5.25</speed><time>2016-06-21T16:00:14Z</time><pdop>3.0</pdop><geoidheight>54.00</geoidheight><course>237.8</course><type>1</type></trkpt>
      <trkpt lat="39.56914495" lon="-6.41670346"><ele>820</ele><speed>7.00</speed><time>2016-06-21T16:00:15Z</time><pdop>3.0</pdop><geoidheight>54.00</geoidheight><course>253.3</course><type>1</type></trkpt>
      <trkpt lat="39.5692034" lon="-6.41702037"><ele>825</ele><speed>10.25</speed><time>2016-06-21T16:00:18Z</time><pdop>3.0</pdop><geoidheight>54.00</geoidheight><course>292.8</course><type>1</type></trkpt>
      <trkpt lat="39.5692648" lon="-6.41713522"><ele>825</ele><speed>11.25</speed><time>2016-06-21T16:00:19Z</time><pdop>3.0</pdop><geoidheight>54.00</geoidheight><course>301.6</course><type>1</type></trkpt>
      <trkpt lat="39.56933804" lon="-6.41724078"><ele>828</ele><speed>12.25</speed><time>2016-06-21T16:00:20Z</time><pdop>3.0</pdop><geoidheight>54.00</geoidheight><course>312.1</course><type>1</type></trkpt>
      <trkpt lat="39.56941221" lon="-6.41734666"><ele>830</ele><speed>12.25</speed><time>2016-06-21T16:00:21Z</time><pdop>4.0</pdop><geoidheight>54.00</geoidheight><course>312.1</course><type>1</type></trkpt>
      <trkpt lat="39.56967665" lon="-6.41736178"><ele>831</ele><speed>13.50</speed><time>2016-06-21T16:00:23Z</time><pdop>3.0</pdop><geoidheight>54.00</geoidheight><course>358.8</course><type>1</type></trkpt>
      <trkpt lat="39.56978578" lon="-6.41731879"><ele>832</ele><speed>12.50</speed><time>2016-06-21T16:00:24Z</time><pdop>3.0</pdop><geoidheight>54.00</geoidheight><course>14.4</course><type>1</type></trkpt>
      <trkpt lat="39.56993269" lon="-6.41716486"><ele>836</ele><speed>10.25</speed><time>2016-06-21T16:00:26Z</time><pdop>3.0</pdop><geoidheight>54.00</geoidheight><course>45.5</course><type>1</type></trkpt>
      <trkpt lat="39.5699634" lon="-6.41707832"><ele>838</ele><speed>8.75</speed><time>2016-06-21T16:00:27Z</time><pdop>3.0</pdop><geoidheight>54.00</geoidheight><course>61.6</course><type>1</type></trkpt>
      <trkpt lat="39.56997283" lon="-6.41700257"><ele>840</ele><speed>6.75</speed><time>2016-06-21T16:00:28Z</time><pdop>3.0</pdop><geoidheight>54.00</geoidheight><course>77.3</course><type>1</type></trkpt>
      <trkpt lat="39.56995869" lon="-6.41690221"><ele>844</ele><speed>4.00</speed><time>2016-06-21T16:00:30Z</time><pdop>4.0</pdop><geoidheight>54.00</geoidheight><course>111.0</course><type>1</type></trkpt>
      <trkpt lat="39.56989798" lon="-6.41683451"><ele>849</ele><speed>4.50</speed><time>2016-06-21T16:00:32Z</time><pdop>3.0</pdop><geoidheight>54.00</geoidheight><course>149.8</course><type>1</type></trkpt>
      <trkpt lat="39.56981244" lon="-6.41686808"><ele>853</ele><speed>5.50</speed><time>2016-06-21T16:00:34Z</time><pdop>3.0</pdop><geoidheight>54.00</geoidheight><course>208.4</course><type>1</type></trkpt>
      <trkpt lat="39.56977811" lon="-6.41704761"><ele>859</ele><speed>5.25</speed><time>2016-06-21T16:00:37Z</time><pdop>4.0</pdop><geoidheight>54.00</geoidheight><course>262.0</course><type>1</type></trkpt>
      <trkpt lat="39.56981811" lon="-6.41713916"><ele>858</ele><speed>7.00</speed><time>2016-06-21T16:00:38Z</time><pdop>3.0</pdop><geoidheight>54.00</geoidheight><course>288.8</course><type>1</type></trkpt>
      <trkpt lat="39.56987884" lon="-6.41732962"><ele>859</ele><speed>9.75</speed><time>2016-06-21T16:00:40Z</time><pdop>3.0</pdop><geoidheight>54.00</geoidheight><course>294.7</course><type>1</type></trkpt>
      <trkpt lat="39.56993716" lon="-6.41742728"><ele>861</ele><speed>11.00</speed><time>2016-06-21T16:00:41Z</time><pdop>3.0</pdop><geoidheight>54.00</geoidheight><course>306.3</course><type>1</type></trkpt>
      <trkpt lat="39.57002743" lon="-6.41750956"><ele>862</ele><speed>12.00</speed><time>2016-06-21T16:00:42Z</time><pdop>3.0</pdop><geoidheight>54.00</geoidheight><course>322.1</course><type>1</type></trkpt>
      <trkpt lat="39.57013199" lon="-6.41757314"><ele>864</ele><speed>12.75</speed><time>2016-06-21T16:00:43Z</time><pdop>3.0</pdop><geoidheight>54.00</geoidheight><course>334.1</course><type>1</type></trkpt>
      <trkpt lat="39.57035292" lon="-6.41760957"><ele>867</ele><speed>11.50</speed><time>2016-06-21T16:00:45Z</time><pdop>3.0</pdop><geoidheight>54.00</geoidheight><course>355.1</course><type>1</type></trkpt>
      <trkpt lat="39.57045617" lon="-6.41762103"><ele>869</ele><speed>11.50</speed><time>2016-06-21T16:00:46Z</time><pdop>5.0</pdop><geoidheight>54.00</geoidheight><course>355.1</course><type>1</type></trkpt>
      <trkpt lat="39.5706028" lon="-6.41749486"><ele>870</ele><speed>9.25</speed><time>2016-06-21T16:00:48Z</time><pdop>3.0</pdop><geoidheight>54.00</geoidheight><course>30.3</course><type>1</type></trkpt>
      <trkpt lat="39.57065347" lon="-6.4174204"><ele>871</ele><speed>8.75</speed><time>2016-06-21T16:00:49Z</time><pdop>3.0</pdop><geoidheight>54.00</geoidheight><course>45.8</course><type>1</type></trkpt>
      <trkpt lat="39.57068628" lon="-6.41733267"><ele>872</ele><speed>8.50</speed><time>2016-06-21T16:00:50Z</time><pdop>3.0</pdop><geoidheight>54.00</geoidheight><course>60.6</course><type>1</type></trkpt>
      <trkpt lat="39.57070206" lon="-6.41724938"><ele>874</ele><speed>7.50</speed><time>2016-06-21T16:00:51Z</time><pdop>3.0</pdop><geoidheight>54.00</geoidheight><course>73.2</course><type>1</type></trkpt>
      <trkpt lat="39.57070599" lon="-6.41717633"><ele>876</ele><speed>6.75</speed><time>2016-06-21T16:00:52Z</time><pdop>3.0</pdop><geoidheight>54.00</geoidheight><course>83.9</course><type>1</type></trkpt>
      <trkpt lat="39.57067526" lon="-6.41704626"><ele>880</ele><speed>5.75</speed><time>2016-06-21T16:00:54Z</time><pdop>4.0</pdop><geoidheight>54.00</geoidheight><course>113.6</course><type>1</type></trkpt>
      <trkpt lat="39.57060228" lon="-6.41697664"><ele>883</ele><speed>4.75</speed><time>2016-06-21T16:00:56Z</time><pdop>3.0</pdop><geoidheight>54.00</geoidheight><course>152.2</course><type>1</type></trkpt>
      <trkpt lat="39.57053036" lon="-6.41696316"><ele>886</ele><speed>4.00</speed><time>2016-06-21T16:00:58Z</time><pdop>5.0</pdop><geoidheight>54.00</geoidheight><course>169.3</course><type>1</type></trkpt>
      <trkpt lat="39.57049838" lon="-6.41707053"><ele>889</ele><speed>4.25</speed><time>2016-06-21T16:01:00Z</time><pdop>3.0</pdop><geoidheight>54.00</geoidheight><course>245.3</course><type>1</type></trkpt>
      <trkpt lat="39.57050728" lon="-6.41722652"><ele>892</ele><speed>7.00</speed><time>2016-06-21T16:01:02Z</time><pdop>3.0</pdop><geoidheight>54.00</geoidheight><course>278.2</course><type>1</type></trkpt>
      <trkpt lat="39.57053914" lon="-6.41731058"><ele>894</ele><speed>8.25</speed><time>2016-06-21T16:01:03Z</time><pdop>3.0</pdop><geoidheight>54.00</geoidheight><course>294.6</course><type>1</type></trkpt>
      <trkpt lat="39.57059679" lon="-6.41739765"><ele>895</ele><speed>9.75</speed><time>2016-06-21T16:01:04Z</time><pdop>4.0</pdop><geoidheight>54.00</geoidheight><course>310.9</course><type>1</type></trkpt>
      <trkpt lat="39.57078797" lon="-6.41755086"><ele>897</ele><speed>12.00</speed><time>2016-06-21T16:01:06Z</time><pdop>4.0</pdop><geoidheight>54.00</geoidheight><course>327.1</course><type>1</type></trkpt>
      <trkpt lat="39.57092512" lon="-6.41755254"><ele>900</ele><speed>13.00</speed><time>2016-06-21T16:01:07Z</time><pdop>3.0</pdop><geoidheight>54.00</geoidheight><course>348.9</course><type>1</type></trkpt>
      <trkpt lat="39.57103637" lon="-6.41755909"><ele>903</ele><speed>12.25</speed><time>2016-06-21T16:01:08Z</time><pdop>3.0</pdop><geoidheight>54.00</geoidheight><course>357.0</course><type>1</type></trkpt>
      <trkpt lat="39.57123286" lon="-6.41752479"><ele>906</ele><speed>10.75</speed><time>2016-06-21T16:01:10Z</time><pdop>4.0</pdop><geoidheight>54.00</geoidheight><course>9.0</course><type>1</type></trkpt>
      <trkpt lat="39.57131785" lon="-6.41748587"><ele>907</ele><speed>10.00</speed><time>2016-06-21T16:01:11Z</time><pdop>4.0</pdop><geoidheight>54.00</geoidheight><course>17.0</course><type>1</type></trkpt>
      <trkpt lat="39.57138927" lon="-6.41743232"><ele>907</ele><speed>9.25</speed><time>2016-06-21T16:01:12Z</time><pdop>3.0</pdop><geoidheight>54.00</geoidheight><course>26.5</course><type>1</type></trkpt>
      <trkpt lat="39.57145629" lon="-6.41736676"><ele>907</ele><speed>9.25</speed><time>2016-06-21T16:01:13Z</time><pdop>3.0</pdop><geoidheight>54.00</geoidheight><course>35.2</course><type>1</type></trkpt>
      <trkpt lat="39.57156444" lon="-6.41720275"><ele>907</ele><speed>9.00</speed><time>2016-06-21T16:01:15Z</time><pdop>3.0</pdop><geoidheight>54.00</geoidheight><course>54.3</course><type>1</type></trkpt>
      <trkpt lat="39.57158429" lon="-6.41710293"><ele>908</ele><speed>8.50</speed><time>2016-06-21T16:01:16Z</time><pdop>3.0</pdop><geoidheight>54.00</geoidheight><course>73.7</course><type>1</type></trkpt>
      <trkpt lat="39.57157568" lon="-6.41691531"><ele>910</ele><speed>7.75</speed><time>2016-06-21T16:01:18Z</time><pdop>3.0</pdop><geoidheight>54.00</geoidheight><course>98.3</course><type>1</type></trkpt>
      <trkpt lat="39.57155902" lon="-6.41683674"><ele>912</ele><speed>7.00</speed><time>2016-06-21T16:01:19Z</time><pdop>3.0</pdop><geoidheight>54.00</geoidheight><course>103.7</course><type>1</type></trkpt>
      <trkpt lat="39.57154818" lon="-6.41676588"><ele>914</ele><speed>6.25</speed><time>2016-06-21T16:01:20Z</time><pdop>3.0</pdop><geoidheight>54.00</geoidheight><course>106.0</course><type>1</type></trkpt>
      <trkpt lat="39.57147381" lon="-6.41662352"><ele>917</ele><speed>4.25</speed><time>2016-06-21T16:01:23Z</time><pdop>3.0</pdop><geoidheight>54.00</geoidheight><course>139.3</course><type>1</type></trkpt>
      <trkpt lat="39.5714023" lon="-6.41661746"><ele>920</ele><speed>4.00</speed><time>2016-06-21T16:01:25Z</time><pdop>3.0</pdop><geoidheight>54.00</geoidheight><course>183.4</course><type>1</type></trkpt>
      <trkpt lat="39.57132913" lon="-6.4166358"><ele>923</ele><speed>2.50</speed><time>2016-06-21T16:01:28Z</time><pdop>5.0</pdop><geoidheight>54.00</geoidheight><course>190.5</course><type>1</type></trkpt>
      <trkpt lat="39.57131268" lon="-6.41686615"><ele>924</ele><speed>8.50</speed><time>2016-06-21T16:01:31Z</time><pdop>3.0</pdop><geoidheight>54.00</geoidheight><course>279.5</course><type>1</type></trkpt>
      <trkpt lat="39.57143241" lon="-6.41705101"><ele>928</ele><speed>11.00</speed><time>2016-06-21T16:01:33Z</time><pdop>3.0</pdop><geoidheight>54.00</geoidheight><course>316.7</course><type>1</type></trkpt>
      <trkpt lat="39.57152586" lon="-6.41711153"><ele>930</ele><speed>11.75</speed><time>2016-06-21T16:01:34Z</time><pdop>3.0</pdop><geoidheight>54.00</geoidheight><course>332.2</course><type>1</type></trkpt>
      <trkpt lat="39.57162791" lon="-6.41714522"><ele>932</ele><speed>12.00</speed><time>2016-06-21T16:01:35Z</time><pdop>3.0</pdop><geoidheight>54.00</geoidheight><course>343.7</course><type>1</type></trkpt>
      <trkpt lat="39.57184129" lon="-6.4171849"><ele>935</ele><speed>11.75</speed><time>2016-06-21T16:01:37Z</time><pdop>3.0</pdop><geoidheight>54.00</geoidheight><course>352.9</course><type>1</type></trkpt>
      <trkpt lat="39.57194329" lon="-6.41719231"><ele>937</ele><speed>11.25</speed><time>2016-06-21T16:01:38Z</time><pdop>3.0</pdop><geoidheight>54.00</geoidheight><course>356.3</course><type>1</type></trkpt>
      <trkpt lat="39.57212382" lon="-6.41717013"><ele>939</ele><speed>10.00</speed><time>2016-06-21T16:01:40Z</time><pdop>3.0</pdop><geoidheight>54.00</geoidheight><course>8.9</course><type>1</type></trkpt>
      <trkpt lat="39.57221079" lon="-6.41712945"><ele>939</ele><speed>10.25</speed><time>2016-06-21T16:01:41Z</time><pdop>3.0</pdop><geoidheight>54.00</geoidheight><course>19.6</course><type>1</type></trkpt>
      <trkpt lat="39.57228881" lon="-6.41706001"><ele>939</ele><speed>10.50</speed><time>2016-06-21T16:01:42Z</time><pdop>3.0</pdop><geoidheight>54.00</geoidheight><course>32.6</course><type>1</type></trkpt>
      <trkpt lat="39.57235648" lon="-6.41696711"><ele>940</ele><speed>11.00</speed><time>2016-06-21T16:01:43Z</time><pdop>3.0</pdop><geoidheight>54.00</geoidheight><course>44.1</course><type>1</type></trkpt>
      <trkpt lat="39.57243258" lon="-6.41675878"><ele>942</ele><speed>9.50</speed><time>2016-06-21T16:01:45Z</time><pdop>3.0</pdop><geoidheight>54.00</geoidheight><course>67.5</course><type>1</type></trkpt>
      <trkpt lat="39.57243897" lon="-6.41659907"><ele>946</ele><speed>6.25</speed><time>2016-06-21T16:01:47Z</time><pdop>3.0</pdop><geoidheight>54.00</geoidheight><course>92.9</course><type>1</type></trkpt>
      <trkpt lat="39.57241867" lon="-6.41648315"><ele>948</ele><speed>5.00</speed><time>2016-06-21T16:01:49Z</time><pdop>3.0</pdop><geoidheight>54.00</geoidheight><course>107.7</course><type>1</type></trkpt>
      <trkpt lat="39.57232057" lon="-6.41639982"><ele>951</ele><speed>4.75</speed><time>2016-06-21T16:01:52Z</time><pdop>3.0</pdop><geoidheight>54.00</geoidheight><course>177.5</course><type>1</type></trkpt>
      <trkpt lat="39.57220336" lon="-6.41654213"><ele>956</ele><speed>6.00</speed><time>2016-06-21T16:01:55Z</time><pdop>3.0</pdop><geoidheight>54.00</geoidheight><course>229.5</course><type>1</type></trkpt>
      <trkpt lat="39.57217404" lon="-6.41669411"><ele>960</ele><speed>7.25</speed><time>2016-06-21T16:01:57Z</time><pdop>3.0</pdop><geoidheight>54.00</geoidheight><course>262.0</course><type>1</type></trkpt>
      <trkpt lat="39.57218373" lon="-6.41679248"><ele>962</ele><speed>8.75</speed><time>2016-06-21T16:01:58Z</time><pdop>3.0</pdop><geoidheight>54.00</geoidheight><course>277.4</course><type>1</type></trkpt>
      <trkpt lat="39.57228382" lon="-6.41699502"><ele>966</ele><speed>10.00</speed><time>2016-06-21T16:02:00Z</time><pdop>3.0</pdop><geoidheight>54.00</geoidheight><course>309.7</course><type>1</type></trkpt>
      <trkpt lat="39.5723635" lon="-6.41705312"><ele>969</ele><speed>10.00</speed><time>2016-06-21T16:02:01Z</time><pdop>3.0</pdop><geoidheight>54.00</geoidheight><course>328.8</course><type>1</type></trkpt>
      <trkpt lat="39.57256163" lon="-6.41710239"><ele>972</ele><speed>11.50</speed><time>2016-06-21T16:02:03Z</time><pdop>3.0</pdop><geoidheight>54.00</geoidheight><course>353.1</course><type>1</type></trkpt>
      <trkpt lat="39.57266804" lon="-6.41709437"><ele>973</ele><speed>11.75</speed><time>2016-06-21T16:02:04Z</time><pdop>3.0</pdop><geoidheight>54.00</geoidheight><course>0.7</course><type>1</type></trkpt>
      <trkpt lat="39.57277426" lon="-6.41706329"><ele>974</ele><speed>12.00</speed><time>2016-06-21T16:02:05Z</time><pdop>3.0</pdop><geoidheight>54.00</geoidheight><course>11.5</course><type>1</type></trkpt>
      <trkpt lat="39.57287434" lon="-6.41699882"><ele>974</ele><speed>12.50</speed><time>2016-06-21T16:02:06Z</time><pdop>3.0</pdop><geoidheight>54.00</geoidheight><course>25.8</course><type>1</type></trkpt>
      <trkpt lat="39.57295501" lon="-6.41689397"><ele>975</ele><speed>12.50</speed><time>2016-06-21T16:02:07Z</time><pdop>3.0</pdop><geoidheight>54.00</geoidheight><course>42.5</course><type>1</type></trkpt>
      <trkpt lat="39.57300524" lon="-6.41665743"><ele>977</ele><speed>9.75</speed><time>2016-06-21T16:02:09Z</time><pdop>3.0</pdop><geoidheight>54.00</geoidheight><course>82.3</course><type>1</type></trkpt>
      <trkpt lat="39.57295228" lon="-6.4165188"><ele>982</ele><speed>6.00</speed><time>2016-06-21T16:02:11Z</time><pdop>3.0</pdop><geoidheight>54.00</geoidheight><course>126.9</course><type>1</type></trkpt>
      <trkpt lat="39.57287283" lon="-6.41651125"><ele>985</ele><speed>4.50</speed><time>2016-06-21T16:02:13Z</time><pdop>3.0</pdop><geoidheight>54.00</geoidheight><course>188.3</course><type>1</type></trkpt>
      <trkpt lat="39.57281645" lon="-6.41661862"><ele>990</ele><speed>6.00</speed><time>2016-06-21T16:02:15Z</time><pdop>3.0</pdop><geoidheight>54.00</geoidheight><course>243.4</course><type>1</type></trkpt>
      <trkpt lat="39.57286364" lon="-6.41687659"><ele>994</ele><speed>8.75</speed><time>2016-06-21T16:02:18Z</time><pdop>3.0</pdop><geoidheight>54.00</geoidheight><course>296.6</course><type>1</type></trkpt>
      <trkpt lat="39.57292592" lon="-6.41696574"><ele>996</ele><speed>10.00</speed><time>2016-06-21T16:02:19Z</time><pdop>4.0</pdop><geoidheight>54.00</geoidheight><course>311.3</course><type>1</type></trkpt>
      <trkpt lat="39.57301712" lon="-6.41702886"><ele>997</ele><speed>11.25</speed><time>2016-06-21T16:02:20Z</time><pdop>3.0</pdop><geoidheight>54.00</geoidheight><course>329.5</course><type>1</type></trkpt>
      <trkpt lat="39.5731235" lon="-6.41706378"><ele>1000</ele><speed>12.25</speed><time>2016-06-21T16:02:21Z</time><pdop>3.0</pdop><geoidheight>54.00</geoidheight><course>345.6</course><type>1</type></trkpt>
      <trkpt lat="39.57334467" lon="-6.41704436"><ele>1005</ele><speed>12.00</speed><time>2016-06-21T16:02:23Z</time><pdop>3.0</pdop><geoidheight>54.00</geoidheight><course>8.6</course><type>1</type></trkpt>
      <trkpt lat="39.5735278" lon="-6.41694296"><ele>1008</ele><speed>11.00</speed><time>2016-06-21T16:02:25Z</time><pdop>5.0</pdop><geoidheight>54.00</geoidheight><course>21.6</course><type>1</type></trkpt>
      <trkpt lat="39.57358725" lon="-6.4168463"><ele>1008</ele><speed>10.50</speed><time>2016-06-21T16:02:26Z</time><pdop>5.0</pdop><geoidheight>54.00</geoidheight><course>35.2</course><type>1</type></trkpt>
      <trkpt lat="39.57361137" lon="-6.41672121"><ele>1010</ele><speed>10.00</speed><time>2016-06-21T16:02:27Z</time><pdop>3.0</pdop><geoidheight>54.00</geoidheight><course>58.9</course><type>1</type></trkpt>
      <trkpt lat="39.57363411" lon="-6.41662486"><ele>1012</ele><speed>8.75</speed><time>2016-06-21T16:02:28Z</time><pdop>3.0</pdop><geoidheight>54.00</geoidheight><course>69.7</course><type>1</type></trkpt>
      <trkpt lat="39.57361358" lon="-6.41648627"><ele>1015</ele><speed>5.75</speed><time>2016-06-21T16:02:30Z</time><pdop>3.0</pdop><geoidheight>54.00</geoidheight><course>115.1</course><type>1</type></trkpt>
      <trkpt lat="39.57353129" lon="-6.41645042"><ele>1019</ele><speed>5.25</speed><time>2016-06-21T16:02:32Z</time><pdop>3.0</pdop><geoidheight>54.00</geoidheight><course>176.3</course><type>1</type></trkpt>
      <trkpt lat="39.57344665" lon="-6.41651725"><ele>1023</ele><speed>5.50</speed><time>2016-06-21T16:02:34Z</time><pdop>4.0</pdop><geoidheight>54.00</geoidheight><course>209.4</course><type>1</type></trkpt>
      <trkpt lat="39.5734492" lon="-6.41663385"><ele>1025</ele><speed>7.00</speed><time>2016-06-21T16:02:35Z</time><pdop>3.0</pdop><geoidheight>54.00</geoidheight><course>257.0</course><type>1</type></trkpt>
      <trkpt lat="39.57346158" lon="-6.4167313"><ele>1026</ele><speed>8.25</speed><time>2016-06-21T16:02:36Z</time><pdop>3.0</pdop><geoidheight>54.00</geoidheight><course>277.2</course><type>1</type></trkpt>
      <trkpt lat="39.5735724" lon="-6.41691952"><ele>1029</ele><speed>10.50</speed><time>2016-06-21T16:02:38Z</time><pdop>3.0</pdop><geoidheight>54.00</geoidheight><course>314.2</course><type>1</type></trkpt>
      <trkpt lat="39.57366659" lon="-6.4169798"><ele>1030</ele><speed>11.50</speed><time>2016-06-21T16:02:39Z</time><pdop>3.0</pdop><geoidheight>54.00</geoidheight><course>331.5</course><type>1</type></trkpt>
      <trkpt lat="39.57389358" lon="-6.41701412"><ele>1033</ele><speed>13.00</speed><time>2016-06-21T16:02:41Z</time><pdop>3.0</pdop><geoidheight>54.00</geoidheight><course>357.5</course><type>1</type></trkpt>
      <trkpt lat="39.57401077" lon="-6.41702067"><ele>1035</ele><speed>13.00</speed><time>2016-06-21T16:02:42Z</time><pdop>5.0</pdop><geoidheight>54.00</geoidheight><course>357.5</course><type>1</type></trkpt>
      <trkpt lat="39.57419944" lon="-6.41690332"><ele>1040</ele><speed>11.00</speed><time>2016-06-21T16:02:44Z</time><pdop>3.0</pdop><geoidheight>54.00</geoidheight><course>24.0</course><type>1</type></trkpt>
      <trkpt lat="39.57427008" lon="-6.41683143"><ele>1041</ele><speed>10.00</speed><time>2016-06-21T16:02:45Z</time><pdop>3.0</pdop><geoidheight>54.00</geoidheight><course>35.3</course><type>1</type></trkpt>
      <trkpt lat="39.57432041" lon="-6.41674578"><ele>1042</ele><speed>9.25</speed><time>2016-06-21T16:02:46Z</time><pdop>3.0</pdop><geoidheight>54.00</geoidheight><course>50.9</course><type>1</type></trkpt>
      <trkpt lat="39.57434312" lon="-6.41655632"><ele>1043</ele><speed>8.00</speed><time>2016-06-21T16:02:48Z</time><pdop>3.0</pdop><geoidheight>54.00</geoidheight><course>87.6</course><type>1</type></trkpt>
      <trkpt lat="39.57434615" lon="-6.41646265"><ele>1044</ele><speed>8.00</speed><time>2016-06-21T16:02:49Z</time><pdop>4.0</pdop><geoidheight>54.00</geoidheight><course>87.6</course><type>1</type></trkpt>
      <trkpt lat="39.57422984" lon="-6.41641892"><ele>1048</ele><speed>5.25</speed><time>2016-06-21T16:02:51Z</time><pdop>3.0</pdop><geoidheight>54.00</geoidheight><course>159.0</course><type>1</type></trkpt>
      <trkpt lat="39.57414598" lon="-6.41643815"><ele>1053</ele><speed>4.75</speed><time>2016-06-21T16:02:53Z</time><pdop>3.0</pdop><geoidheight>54.00</geoidheight><course>198.5</course><type>1</type></trkpt>
      <trkpt lat="39.57406826" lon="-6.41652903"><ele>1056</ele><speed>6.00</speed><time>2016-06-21T16:02:55Z</time><pdop>3.0</pdop><geoidheight>54.00</geoidheight><course>224.7</course><type>1</type></trkpt>
      <trkpt lat="39.57401388" lon="-6.41666358"><ele>1058</ele><speed>6.50</speed><time>2016-06-21T16:02:57Z</time><pdop>4.0</pdop><geoidheight>54.00</geoidheight><course>239.4</course><type>1</type></trkpt>
      <trkpt lat="39.57405167" lon="-6.4167821"><ele>1060</ele><speed>8.75</speed><time>2016-06-21T16:02:58Z</time><pdop>3.0</pdop><geoidheight>54.00</geoidheight><course>281.2</course><type>1</type></trkpt>
      <trkpt lat="39.5741707" lon="-6.41698761"><ele>1062</ele><speed>11.25</speed><time>2016-06-21T16:03:00Z</time><pdop>3.0</pdop><geoidheight>54.00</geoidheight><course>313.7</course><type>1</type></trkpt>
      <trkpt lat="39.57435531" lon="-6.41711896"><ele>1069</ele><speed>12.00</speed><time>2016-06-21T16:03:02Z</time><pdop>3.0</pdop><geoidheight>54.00</geoidheight><course>334.7</course><type>1</type></trkpt>
      <trkpt lat="39.57445834" lon="-6.41714897"><ele>1073</ele><speed>12.00</speed><time>2016-06-21T16:03:03Z</time><pdop>3.0</pdop><geoidheight>54.00</geoidheight><course>343.9</course><type>1</type></trkpt>
      <trkpt lat="39.57456098" lon="-6.41715477"><ele>1076</ele><speed>11.50</speed><time>2016-06-21T16:03:04Z</time><pdop>3.0</pdop><geoidheight>54.00</geoidheight><course>354.3</course><type>1</type></trkpt>
      <trkpt lat="39.5747513" lon="-6.41708619"><ele>1079</ele><speed>11.00</speed><time>2016-06-21T16:03:06Z</time><pdop>3.0</pdop><geoidheight>54.00</geoidheight><course>19.5</course><type>1</type></trkpt>
      <trkpt lat="39.5748912" lon="-6.41692341"><ele>1081</ele><speed>10.50</speed><time>2016-06-21T16:03:08Z</time><pdop>3.0</pdop><geoidheight>54.00</geoidheight><course>46.0</course><type>1</type></trkpt>
      <trkpt lat="39.57493509" lon="-6.41682427"><ele>1082</ele><speed>9.75</speed><time>2016-06-21T16:03:09Z</time><pdop>3.0</pdop><geoidheight>54.00</geoidheight><course>58.9</course><type>1</type></trkpt>
      <trkpt lat="39.5749729" lon="-6.41663216"><ele>1086</ele><speed>8.25</speed><time>2016-06-21T16:03:11Z</time><pdop>3.0</pdop><geoidheight>54.00</geoidheight><course>81.2</course><type>1</type></trkpt>
      <trkpt lat="39.57496668" lon="-6.41646328"><ele>1091</ele><speed>6.50</speed><time>2016-06-21T16:03:13Z</time><pdop>3.0</pdop><geoidheight>54.00</geoidheight><course>102.5</course><type>1</type></trkpt>
      <trkpt lat="39.57484674" lon="-6.41639107"><ele>1097</ele><speed>5.25</speed><time>2016-06-21T16:03:16Z</time><pdop>3.0</pdop><geoidheight>54.00</geoidheight><course>181.6</course><type>1</type></trkpt>
      <trkpt lat="39.57475056" lon="-6.41652085"><ele>1103</ele><speed>5.75</speed><time>2016-06-21T16:03:19Z</time><pdop>3.0</pdop><geoidheight>54.00</geoidheight><course>239.9</course><type>1</type></trkpt>
      <trkpt lat="39.57474009" lon="-6.41681588"><ele>1106</ele><speed>8.50</speed><time>2016-06-21T16:03:22Z</time><pdop>5.0</pdop><geoidheight>54.00</geoidheight><course>270.5</course><type>1</type></trkpt>
      <trkpt lat="39.57482459" lon="-6.41691698"><ele>1108</ele><speed>10.25</speed><time>2016-06-21T16:03:23Z</time><pdop>3.0</pdop><geoidheight>54.00</geoidheight><course>304.3</course><type>1</type></trkpt>
      <trkpt lat="39.57494577" lon="-6.41711843"><ele>1109</ele><speed>11.25</speed><time>2016-06-21T16:03:25Z</time><pdop>4.0</pdop><geoidheight>54.00</geoidheight><course>308.3</course><type>1</type></trkpt>
      <trkpt lat="39.57517405" lon="-6.41715706"><ele>1114</ele><speed>12.00</speed><time>2016-06-21T16:03:27Z</time><pdop>3.0</pdop><geoidheight>54.00</geoidheight><course>348.1</course><type>1</type></trkpt>
      <trkpt lat="39.57528324" lon="-6.41715374"><ele>1117</ele><speed>12.00</speed><time>2016-06-21T16:03:28Z</time><pdop>3.0</pdop><geoidheight>54.00</geoidheight><course>359.6</course><type>1</type></trkpt>
      <trkpt lat="39.57546855" lon="-6.41705949"><ele>1122</ele><speed>10.75</speed><time>2016-06-21T16:03:30Z</time><pdop>3.0</pdop><geoidheight>54.00</geoidheight><course>25.2</course><type>1</type></trkpt>
      <trkpt lat="39.57553904" lon="-6.41698117"><ele>1123</ele><speed>10.00</speed><time>2016-06-21T16:03:31Z</time><pdop>3.0</pdop><geoidheight>54.00</geoidheight><course>37.3</course><type>1</type></trkpt>
      <trkpt lat="39.5756272" lon="-6.41681615"><ele>1126</ele><speed>8.50</speed><time>2016-06-21T16:03:33Z</time><pdop>3.0</pdop><geoidheight>54.00</geoidheight><course>61.1</course><type>1</type></trkpt>
      <trkpt lat="39.57564589" lon="-6.41673063"><ele>1128</ele><speed>7.75</speed><time>2016-06-21T16:03:34Z</time><pdop>3.0</pdop><geoidheight>54.00</geoidheight><course>74.7</course><type>1</type></trkpt>
      <trkpt lat="39.575643" lon="-6.41664588"><ele>1131</ele><speed>7.25</speed><time>2016-06-21T16:03:35Z</time><pdop>3.0</pdop><geoidheight>54.00</geoidheight><course>93.9</course><type>1</type></trkpt>
      <trkpt lat="39.57558067" lon="-6.41650842"><ele>1136</ele><speed>6.75</speed><time>2016-06-21T16:03:37Z</time><pdop>3.0</pdop><geoidheight>54.00</geoidheight><course>132.1</course><type>1</type></trkpt>
      <trkpt lat="39.57548923" lon="-6.41649009"><ele>1142</ele><speed>5.50</speed><time>2016-06-21T16:03:39Z</time><pdop>3.0</pdop><geoidheight>54.00</geoidheight><course>183.3</course><type>1</type></trkpt>
      <trkpt lat="39.57541295" lon="-6.41658541"><ele>1146</ele><speed>6.00</speed><time>2016-06-21T16:03:41Z</time><pdop>4.0</pdop><geoidheight>54.00</geoidheight><course>232.9</course><type>1</type></trkpt>
      <trkpt lat="39.57540993" lon="-6.41685047"><ele>1149</ele><speed>8.50</speed><time>2016-06-21T16:03:44Z</time><pdop>3.0</pdop><geoidheight>54.00</geoidheight><course>281.2</course><type>1</type></trkpt>
      <trkpt lat="39.57544993" lon="-6.41694885"><ele>1150</ele><speed>9.75</speed><time>2016-06-21T16:03:45Z</time><pdop>3.0</pdop><geoidheight>54.00</geoidheight><course>295.2</course><type>1</type></trkpt>
      <trkpt lat="39.57550239" lon="-6.41704513"><ele>1151</ele><speed>10.25</speed><time>2016-06-21T16:03:46Z</time><pdop>3.0</pdop><geoidheight>54.00</geoidheight><course>305.2</course><type>1</type></trkpt>
      <trkpt lat="39.5756352" lon="-6.41720359"><ele>1155</ele><speed>10.00</speed><time>2016-06-21T16:03:48Z</time><pdop>3.0</pdop><geoidheight>54.00</geoidheight><course>320.8</course><type>1</type></trkpt>
      <trkpt lat="39.57571606" lon="-6.41725706"><ele>1157</ele><speed>10.25</speed><time>2016-06-21T16:03:49Z</time><pdop>3.0</pdop><geoidheight>54.00</geoidheight><course>333.5</course><type>1</type></trkpt>
      <trkpt lat="39.57580486" lon="-6.41729708"><ele>1158</ele><speed>10.75</speed><time>2016-06-21T16:03:50Z</time><pdop>3.0</pdop><geoidheight>54.00</geoidheight><course>341.6</course><type>1</type></trkpt>
      <trkpt lat="39.57589937" lon="-6.41732507"><ele>1160</ele><speed>11.00</speed><time>2016-06-21T16:03:51Z</time><pdop>3.0</pdop><geoidheight>54.00</geoidheight><course>348.2</course><type>1</type></trkpt>
      <trkpt lat="39.57599631" lon="-6.41735131"><ele>1162</ele><speed>11.00</speed><time>2016-06-21T16:03:52Z</time><pdop>5.0</pdop><geoidheight>54.00</geoidheight><course>348.2</course><type>1</type></trkpt>
      <trkpt lat="39.57609829" lon="-6.41730181"><ele>1164</ele><speed>11.25</speed><time>2016-06-21T16:03:53Z</time><pdop>3.0</pdop><geoidheight>54.00</geoidheight><course>9.9</course><type>1</type></trkpt>
      <trkpt lat="39.57625754" lon="-6.4171708"><ele>1167</ele><speed>10.50</speed><time>2016-06-21T16:03:55Z</time><pdop>3.0</pdop><geoidheight>54.00</geoidheight><course>37.1</course><type>1</type></trkpt>
      <trkpt lat="39.57630821" lon="-6.41708219"><ele>1169</ele><speed>9.50</speed><time>2016-06-21T16:03:56Z</time><pdop>3.0</pdop><geoidheight>54.00</geoidheight><course>50.5</course><type>1</type></trkpt>
      <trkpt lat="39.57633718" lon="-6.4169934"><ele>1171</ele><speed>8.50</speed><time>2016-06-21T16:03:57Z</time><pdop>3.0</pdop><geoidheight>54.00</geoidheight><course>65.1</course><type>1</type></trkpt>
      <trkpt lat="39.57635137" lon="-6.41682169"><ele>1175</ele><speed>7.50</speed><time>2016-06-21T16:03:59Z</time><pdop>3.0</pdop><geoidheight>54.00</geoidheight><course>89.3</course><type>1</type></trkpt>
      <trkpt lat="39.57634442" lon="-6.41674165"><ele>1178</ele><speed>7.00</speed><time>2016-06-21T16:04:00Z</time><pdop>3.0</pdop><geoidheight>54.00</geoidheight><course>99.3</course><type>1</type></trkpt>
      <trkpt lat="39.57629258" lon="-6.41662249"><ele>1184</ele><speed>5.50</speed><time>2016-06-21T16:04:02Z</time><pdop>3.0</pdop><geoidheight>54.00</geoidheight><course>128.7</course><type>1</type></trkpt>
      <trkpt lat="39.57620593" lon="-6.41659052"><ele>1188</ele><speed>5.25</speed><time>2016-06-21T16:04:04Z</time><pdop>3.0</pdop><geoidheight>54.00</geoidheight><course>174.3</course><type>1</type></trkpt>
      <trkpt lat="39.57609562" lon="-6.41662776"><ele>1191</ele><speed>6.25</speed><time>2016-06-21T16:04:06Z</time><pdop>5.0</pdop><geoidheight>54.00</geoidheight><course>194.0</course><type>1</type></trkpt>
      <trkpt lat="39.57604708" lon="-6.41680911"><ele>1196</ele><speed>6.75</speed><time>2016-06-21T16:04:08Z</time><pdop>3.0</pdop><geoidheight>54.00</geoidheight><course>252.2</course><type>1</type></trkpt>
      <trkpt lat="39.57604881" lon="-6.41689278"><ele>1197</ele><speed>7.25</speed><time>2016-06-21T16:04:09Z</time><pdop>3.0</pdop><geoidheight>54.00</geoidheight><course>268.0</course><type>1</type></trkpt>
      <trkpt lat="39.57608457" lon="-6.41707716"><ele>1199</ele><speed>9.25</speed><time>2016-06-21T16:04:11Z</time><pdop>3.0</pdop><geoidheight>54.00</geoidheight><course>288.7</course><type>1</type></trkpt>
      <trkpt lat="39.57613354" lon="-6.41717885"><ele>1200</ele><speed>10.00</speed><time>2016-06-21T16:04:12Z</time><pdop>3.0</pdop><geoidheight>54.00</geoidheight><course>300.1</course><type>1</type></trkpt>
      <trkpt lat="39.57620206" lon="-6.4172607"><ele>1202</ele><speed>10.25</speed><time>2016-06-21T16:04:13Z</time><pdop>3.0</pdop><geoidheight>54.00</geoidheight><course>316.1</course><type>1</type></trkpt>
      <trkpt lat="39.57638637" lon="-6.41734964"><ele>1205</ele><speed>11.25</speed><time>2016-06-21T16:04:15Z</time><pdop>3.0</pdop><geoidheight>54.00</geoidheight><course>345.7</course><type>1</type></trkpt>
      <trkpt lat="39.57658027" lon="-6.41730936"><ele>1208</ele><speed>10.75</speed><time>2016-06-21T16:04:17Z</time><pdop>3.0</pdop><geoidheight>54.00</geoidheight><course>13.9</course><type>1</type></trkpt>
      <trkpt lat="39.57665766" lon="-6.41723969"><ele>1209</ele><speed>10.25</speed><time>2016-06-21T16:04:18Z</time><pdop>3.0</pdop><geoidheight>54.00</geoidheight><course>28.9</course><type>1</type></trkpt>
      <trkpt lat="39.57671759" lon="-6.41716034"><ele>1211</ele><speed>9.50</speed><time>2016-06-21T16:04:19Z</time><pdop>3.0</pdop><geoidheight>54.00</geoidheight><course>44.2</course><type>1</type></trkpt>
      <trkpt lat="39.57675682" lon="-6.41707162"><ele>1213</ele><speed>8.75</speed><time>2016-06-21T16:04:20Z</time><pdop>3.0</pdop><geoidheight>54.00</geoidheight><course>57.1</course><type>1</type></trkpt>
      <trkpt lat="39.57677397" lon="-6.41698707"><ele>1215</ele><speed>8.00</speed><time>2016-06-21T16:04:21Z</time><pdop>3.0</pdop><geoidheight>54.00</geoidheight><course>71.6</course><type>1</type></trkpt>
      <trkpt lat="39.57678079" lon="-6.41681204"><ele>1218</ele><speed>7.50</speed><time>2016-06-21T16:04:23Z</time><pdop>5.0</pdop><geoidheight>54.00</geoidheight><course>86.1</course><type>1</type></trkpt>
      <trkpt lat="39.57671651" lon="-6.41676329"><ele>1219</ele><speed>6.50</speed><time>2016-06-21T16:04:24Z</time><pdop>3.0</pdop><geoidheight>54.00</geoidheight><course>124.0</course><type>1</type></trkpt>
      <trkpt lat="39.57658954" lon="-6.41674333"><ele>1223</ele><speed>4.50</speed><time>2016-06-21T16:04:27Z</time><pdop>3.0</pdop><geoidheight>54.00</geoidheight><course>197.2</course><type>1</type></trkpt>
      <trkpt lat="39.57649081" lon="-6.41690028"><ele>1226</ele><speed>6.00</speed><time>2016-06-21T16:04:30Z</time><pdop>4.0</pdop><geoidheight>54.00</geoidheight><course>233.5</course><type>1</type></trkpt>
      <trkpt lat="39.57656806" lon="-6.41715905"><ele>1229</ele><speed>8.00</speed><time>2016-06-21T16:04:33Z</time><pdop>3.0</pdop><geoidheight>54.00</geoidheight><course>306.3</course><type>1</type></trkpt>
      <trkpt lat="39.57662976" lon="-6.41724063"><ele>1229</ele><speed>9.50</speed><time>2016-06-21T16:04:34Z</time><pdop>4.0</pdop><geoidheight>54.00</geoidheight><course>313.6</course><type>1</type></trkpt>
      <trkpt lat="39.57671745" lon="-6.41730571"><ele>1229</ele><speed>11.00</speed><time>2016-06-21T16:04:35Z</time><pdop>3.0</pdop><geoidheight>54.00</geoidheight><course>326.2</course><type>1</type></trkpt>
      <trkpt lat="39.57680784" lon="-6.41736463"><ele>1230</ele><speed>11.75</speed><time>2016-06-21T16:04:36Z</time><pdop>3.0</pdop><geoidheight>54.00</geoidheight><course>332.6</course><type>1</type></trkpt>
      <trkpt lat="39.57700444" lon="-6.41745365"><ele>1233</ele><speed>11.50</speed><time>2016-06-21T16:04:38Z</time><pdop>4.0</pdop><geoidheight>54.00</geoidheight><course>339.7</course><type>1</type></trkpt>
      <trkpt lat="39.57709773" lon="-6.41747031"><ele>1234</ele><speed>10.75</speed><time>2016-06-21T16:04:39Z</time><pdop>5.0</pdop><geoidheight>54.00</geoidheight><course>344.9</course><type>1</type></trkpt>
      <trkpt lat="39.57718376" lon="-6.41748204"><ele>1235</ele><speed>10.50</speed><time>2016-06-21T16:04:40Z</time><pdop>3.0</pdop><geoidheight>54.00</geoidheight><course>350.8</course><type>1</type></trkpt>
      <trkpt lat="39.57737765" lon="-6.41749424"><ele>1236</ele><speed>11.00</speed><time>2016-06-21T16:04:42Z</time><pdop>3.0</pdop><geoidheight>54.00</geoidheight><course>0.8</course><type>1</type></trkpt>
      <trkpt lat="39.57747225" lon="-6.41746913"><ele>1238</ele><speed>11.00</speed><time>2016-06-21T16:04:43Z</time><pdop>3.0</pdop><geoidheight>54.00</geoidheight><course>10.2</course><type>1</type></trkpt>
      <trkpt lat="39.57755646" lon="-6.4174246"><ele>1240</ele><speed>10.25</speed><time>2016-06-21T16:04:44Z</time><pdop>3.0</pdop><geoidheight>54.00</geoidheight><course>19.3</course><type>1</type></trkpt>
      <trkpt lat="39.57763985" lon="-6.41737358"><ele>1241</ele><speed>10.00</speed><time>2016-06-21T16:04:45Z</time><pdop>3.0</pdop><geoidheight>54.00</geoidheight><course>25.0</course><type>1</type></trkpt>
      <trkpt lat="39.57779313" lon="-6.41725594"><ele>1245</ele><speed>10.00</speed><time>2016-06-21T16:04:47Z</time><pdop>3.0</pdop><geoidheight>54.00</geoidheight><course>32.9</course><type>1</type></trkpt>
      <trkpt lat="39.57785058" lon="-6.41718174"><ele>1246</ele><speed>9.25</speed><time>2016-06-21T16:04:48Z</time><pdop>3.0</pdop><geoidheight>54.00</geoidheight><course>43.0</course><type>1</type></trkpt>
      <trkpt lat="39.57788341" lon="-6.4170952"><ele>1248</ele><speed>8.50</speed><time>2016-06-21T16:04:49Z</time><pdop>3.0</pdop><geoidheight>54.00</geoidheight><course>61.0</course><type>1</type></trkpt>
      <trkpt lat="39.57789454" lon="-6.41700116"><ele>1251</ele><speed>8.25</speed><time>2016-06-21T16:04:50Z</time><pdop>3.0</pdop><geoidheight>54.00</geoidheight><course>80.5</course><type>1</type></trkpt>
      <trkpt lat="39.57787591" lon="-6.41681938"><ele>1256</ele><speed>7.75</speed><time>2016-06-21T16:04:52Z</time><pdop>5.0</pdop><geoidheight>54.00</geoidheight><course>98.7</course><type>1</type></trkpt>
      <trkpt lat="39.57773167" lon="-6.41680619"><ele>1262</ele><speed>4.75</speed><time>2016-06-21T16:04:55Z</time><pdop>3.0</pdop><geoidheight>54.00</geoidheight><course>191.9</course><type>1</type></trkpt>
      <trkpt lat="39.57768233" lon="-6.41684734"><ele>1263</ele><speed>6.00</speed><time>2016-06-21T16:04:56Z</time><pdop>3.0</pdop><geoidheight>54.00</geoidheight><course>212.9</course><type>1</type></trkpt>
      <trkpt lat="39.5776469" lon="-6.41690758"><ele>1264</ele><speed>6.50</speed><time>2016-06-21T16:04:57Z</time><pdop>3.0</pdop><geoidheight>54.00</geoidheight><course>232.4</course><type>1</type></trkpt>
      <trkpt lat="39.57764305" lon="-6.41708331"><ele>1266</ele><speed>8.25</speed><time>2016-06-21T16:04:59Z</time><pdop>3.0</pdop><geoidheight>54.00</geoidheight><course>275.2</course><type>1</type></trkpt>
      <trkpt lat="39.57770779" lon="-6.41729353"><ele>1268</ele><speed>9.75</speed><time>2016-06-21T16:05:01Z</time><pdop>3.0</pdop><geoidheight>54.00</geoidheight><course>295.2</course><type>1</type></trkpt>
      <trkpt lat="39.57776749" lon="-6.41739054"><ele>1270</ele><speed>10.25</speed><time>2016-06-21T16:05:02Z</time><pdop>3.0</pdop><geoidheight>54.00</geoidheight><course>307.2</course><type>1</type></trkpt>
      <trkpt lat="39.57793368" lon="-6.41753215"><ele>1273</ele><speed>11.25</speed><time>2016-06-21T16:05:04Z</time><pdop>3.0</pdop><geoidheight>54.00</geoidheight><course>330.9</course><type>1</type></trkpt>
      <trkpt lat="39.57802879" lon="-6.41757526"><ele>1275</ele><speed>11.25</speed><time>2016-06-21T16:05:05Z</time><pdop>3.0</pdop><geoidheight>54.00</geoidheight><course>340.7</course><type>1</type></trkpt>
      <trkpt lat="39.57823143" lon="-6.41761586"><ele>1255</ele><speed>11.50</speed><time>2016-06-21T16:05:07Z</time><pdop>3.0</pdop><geoidheight>54.00</geoidheight><course>353.7</course><type>1</type></trkpt>
      <trkpt lat="39.57833582" lon="-6.41760261"><ele>1265</ele><speed>11.50</speed><time>2016-06-21T16:05:08Z</time><pdop>3.0</pdop><geoidheight>54.00</geoidheight><course>4.6</course><type>1</type></trkpt>
      <trkpt lat="39.57843033" lon="-6.41755303"><ele>1271</ele><speed>11.50</speed><time>2016-06-21T16:05:09Z</time><pdop>3.0</pdop><geoidheight>54.00</geoidheight><course>19.9</course><type>1</type></trkpt>
      <trkpt lat="39.57850708" lon="-6.41746718"><ele>1275</ele><speed>11.25</speed><time>2016-06-21T16:05:10Z</time><pdop>3.0</pdop><geoidheight>54.00</geoidheight><course>36.9</course><type>1</type></trkpt>
      <trkpt lat="39.57866492" lon="-6.41729861"><ele>1277</ele><speed>11.50</speed><time>2016-06-21T16:05:12Z</time><pdop>5.0</pdop><geoidheight>54.00</geoidheight><course>37.7</course><type>1</type></trkpt>
      <trkpt lat="39.57863779" lon="-6.41717688"><ele>1284</ele><speed>9.00</speed><time>2016-06-21T16:05:13Z</time><pdop>3.0</pdop><geoidheight>54.00</geoidheight><course>74.4</course><type>1</type></trkpt>
      <trkpt lat="39.5786223" lon="-6.41699984"><ele>1293</ele><speed>7.50</speed><time>2016-06-21T16:05:15Z</time><pdop>3.0</pdop><geoidheight>54.00</geoidheight><course>104.1</course><type>1</type></trkpt>
      <trkpt lat="39.57859487" lon="-6.41693591"><ele>1297</ele><speed>7.00</speed><time>2016-06-21T16:05:16Z</time><pdop>3.0</pdop><geoidheight>54.00</geoidheight><course>121.3</course><type>1</type></trkpt>
      <trkpt lat="39.57850728" lon="-6.41687627"><ele>1302</ele><speed>5.50</speed><time>2016-06-21T16:05:18Z</time><pdop>3.0</pdop><geoidheight>54.00</geoidheight><course>163.6</course><type>1</type></trkpt>
      <trkpt lat="39.57842843" lon="-6.41691974"><ele>1306</ele><speed>5.00</speed><time>2016-06-21T16:05:20Z</time><pdop>3.0</pdop><geoidheight>54.00</geoidheight><course>218.2</course><type>1</type></trkpt>
      <trkpt lat="39.57840766" lon="-6.41715641"><ele>1307</ele><speed>8.00</speed><time>2016-06-21T16:05:23Z</time><pdop>3.0</pdop><geoidheight>54.00</geoidheight><course>274.0</course><type>1</type></trkpt>
      <trkpt lat="39.57849998" lon="-6.41735511"><ele>1309</ele><speed>10.50</speed><time>2016-06-21T16:05:25Z</time><pdop>3.0</pdop><geoidheight>54.00</geoidheight><course>307.3</course><type>1</type></trkpt>
      <trkpt lat="39.5785675" lon="-6.41745143"><ele>1311</ele><speed>11.50</speed><time>2016-06-21T16:05:26Z</time><pdop>4.0</pdop><geoidheight>54.00</geoidheight><course>312.2</course><type>1</type></trkpt>
      <trkpt lat="39.57874744" lon="-6.41759115"><ele>1314</ele><speed>11.50</speed><time>2016-06-21T16:05:28Z</time><pdop>6.0</pdop><geoidheight>54.00</geoidheight><course>325.6</course><type>1</type></trkpt>
      <trkpt lat="39.57887254" lon="-6.41755901"><ele>1322</ele><speed>10.75</speed><time>2016-06-21T16:05:29Z</time><pdop>3.0</pdop><geoidheight>54.00</geoidheight><course>349.3</course><type>1</type></trkpt>
      <trkpt lat="39.57905415" lon="-6.4175616"><ele>1327</ele><speed>10.00</speed><time>2016-06-21T16:05:31Z</time><pdop>3.0</pdop><geoidheight>54.00</geoidheight><course>0.4</course><type>1</type></trkpt>
      <trkpt lat="39.57914671" lon="-6.41753664"><ele>1328</ele><speed>10.75</speed><time>2016-06-21T16:05:32Z</time><pdop>3.0</pdop><geoidheight>54.00</geoidheight><course>9.7</course><type>1</type></trkpt>
      <trkpt lat="39.57923797" lon="-6.41748165"><ele>1329</ele><speed>11.25</speed><time>2016-06-21T16:05:33Z</time><pdop>3.0</pdop><geoidheight>54.00</geoidheight><course>23.0</course><type>1</type></trkpt>
      <trkpt lat="39.57939845" lon="-6.4173131"><ele>1332</ele><speed>11.50</speed><time>2016-06-21T16:05:35Z</time><pdop>5.0</pdop><geoidheight>54.00</geoidheight><course>38.5</course><type>1</type></trkpt>
      <trkpt lat="39.57942833" lon="-6.41718206"><ele>1331</ele><speed>10.50</speed><time>2016-06-21T16:05:36Z</time><pdop>3.0</pdop><geoidheight>54.00</geoidheight><course>59.8</course><type>1</type></trkpt>
      <trkpt lat="39.57945486" lon="-6.41707286"><ele>1335</ele><speed>10.00</speed><time>2016-06-21T16:05:37Z</time><pdop>3.0</pdop><geoidheight>54.00</geoidheight><course>71.1</course><type>1</type></trkpt>
      <trkpt lat="39.5794492" lon="-6.41686316"><ele>1339</ele><speed>8.50</speed><time>2016-06-21T16:05:39Z</time><pdop>3.0</pdop><geoidheight>54.00</geoidheight><course>98.8</course><type>1</type></trkpt>
      <trkpt lat="39.5794199" lon="-6.41678052"><ele>1341</ele><speed>8.00</speed><time>2016-06-21T16:05:40Z</time><pdop>3.0</pdop><geoidheight>54.00</geoidheight><course>116.3</course><type>1</type></trkpt>
      <trkpt lat="39.57932937" lon="-6.41667038"><ele>1342</ele><speed>6.50</speed><time>2016-06-21T16:05:42Z</time><pdop>3.0</pdop><geoidheight>54.00</geoidheight><course>144.1</course><type>1</type></trkpt>
      <trkpt lat="39.57925168" lon="-6.4166257"><ele>1348</ele><speed>5.00</speed><time>2016-06-21T16:05:44Z</time><pdop>4.0</pdop><geoidheight>54.00</geoidheight><course>156.5</course><type>1</type></trkpt>
      <trkpt lat="39.57919925" lon="-6.41672366"><ele>1347</ele><speed>5.00</speed><time>2016-06-21T16:05:46Z</time><pdop>3.0</pdop><geoidheight>54.00</geoidheight><course>220.9</course><type>1</type></trkpt>
      <trkpt lat="39.57916035" lon="-6.41678266"><ele>1347</ele><speed>6.50</speed><time>2016-06-21T16:05:47Z</time><pdop>3.0</pdop><geoidheight>54.00</geoidheight><course>229.6</course><type>1</type></trkpt>
      <trkpt lat="39.57914456" lon="-6.41696626"><ele>1349</ele><speed>8.50</speed><time>2016-06-21T16:05:49Z</time><pdop>3.0</pdop><geoidheight>54.00</geoidheight><course>271.9</course><type>1</type></trkpt>
      <trkpt lat="39.57918578" lon="-6.41706748"><ele>1350</ele><speed>9.50</speed><time>2016-06-21T16:05:50Z</time><pdop>3.0</pdop><geoidheight>54.00</geoidheight><course>294.2</course><type>1</type></trkpt>
      <trkpt lat="39.57924114" lon="-6.41715734"><ele>1351</ele><speed>9.75</speed><time>2016-06-21T16:05:51Z</time><pdop>3.0</pdop><geoidheight>54.00</geoidheight><course>307.5</course><type>1</type></trkpt>
      <trkpt lat="39.57936986" lon="-6.41732052"><ele>1355</ele><speed>10.25</speed><time>2016-06-21T16:05:53Z</time><pdop>3.0</pdop><geoidheight>54.00</geoidheight><course>317.4</course><type>1</type></trkpt>
      <trkpt lat="39.5795325" lon="-6.41746048"><ele>1359</ele><speed>11.25</speed><time>2016-06-21T16:05:55Z</time><pdop>3.0</pdop><geoidheight>54.00</geoidheight><course>330.1</course><type>1</type></trkpt>
      <trkpt lat="39.57962816" lon="-6.4175112"><ele>1361</ele><speed>11.25</speed><time>2016-06-21T16:05:56Z</time><pdop>3.0</pdop><geoidheight>54.00</geoidheight><course>337.5</course><type>1</type></trkpt>
      <trkpt lat="39.57972718" lon="-6.41754158"><ele>1355</ele><speed>11.25</speed><time>2016-06-21T16:05:57Z</time><pdop>3.0</pdop><geoidheight>54.00</geoidheight><course>345.4</course><type>1</type></trkpt>
      <trkpt lat="39.57992321" lon="-6.41755591"><ele>1363</ele><speed>10.75</speed><time>2016-06-21T16:05:59Z</time><pdop>5.0</pdop><geoidheight>54.00</geoidheight><course>355.7</course><type>1</type></trkpt>
      <trkpt lat="39.58007571" lon="-6.41737669"><ele>1368</ele><speed>10.75</speed><time>2016-06-21T16:06:01Z</time><pdop>3.0</pdop><geoidheight>54.00</geoidheight><course>40.0</course><type>1</type></trkpt>
      <trkpt lat="39.58015081" lon="-6.41717162"><ele>1373</ele><speed>9.25</speed><time>2016-06-21T16:06:03Z</time><pdop>3.0</pdop><geoidheight>54.00</geoidheight><course>70.3</course><type>1</type></trkpt>
      <trkpt lat="39.58016584" lon="-6.41706193"><ele>1376</ele><speed>9.75</speed><time>2016-06-21T16:06:04Z</time><pdop>4.0</pdop><geoidheight>54.00</geoidheight><course>77.0</course><type>1</type></trkpt>
      <trkpt lat="39.5801107" lon="-6.41692322"><ele>1379</ele><speed>4.25</speed><time>2016-06-21T16:06:07Z</time><pdop>4.0</pdop><geoidheight>54.00</geoidheight><course>124.9</course><type>1</type></trkpt>
      <trkpt lat="39.58001075" lon="-6.4169917"><ele>1377</ele><speed>5.00</speed><time>2016-06-21T16:06:09Z</time><pdop>5.0</pdop><geoidheight>54.00</geoidheight><course>195.5</course><type>1</type></trkpt>
      <trkpt lat="39.57996828" lon="-6.41717206"><ele>1379</ele><speed>7.75</speed><time>2016-06-21T16:06:11Z</time><pdop>3.0</pdop><geoidheight>54.00</geoidheight><course>257.4</course><type>1</type></trkpt>
      <trkpt lat="39.58001111" lon="-6.41741688"><ele>1381</ele><speed>11.00</speed><time>2016-06-21T16:06:13Z</time><pdop>3.0</pdop><geoidheight>54.00</geoidheight><course>287.8</course><type>1</type></trkpt>
      <trkpt lat="39.58007147" lon="-6.41752666"><ele>1383</ele><speed>11.50</speed><time>2016-06-21T16:06:14Z</time><pdop>3.0</pdop><geoidheight>54.00</geoidheight><course>302.6</course><type>1</type></trkpt>
      <trkpt lat="39.58014329" lon="-6.41762077"><ele>1386</ele><speed>11.25</speed><time>2016-06-21T16:06:15Z</time><pdop>3.0</pdop><geoidheight>54.00</geoidheight><course>314.2</course><type>1</type></trkpt>
      <trkpt lat="39.58030249" lon="-6.41775537"><ele>1389</ele><speed>10.75</speed><time>2016-06-21T16:06:17Z</time><pdop>3.0</pdop><geoidheight>54.00</geoidheight><course>329.1</course><type>1</type></trkpt>
      <trkpt lat="39.58039529" lon="-6.41780646"><ele>1391</ele><speed>11.00</speed><time>2016-06-21T16:06:18Z</time><pdop>3.0</pdop><geoidheight>54.00</geoidheight><course>337.7</course><type>1</type></trkpt>
      <trkpt lat="39.58061179" lon="-6.41783057"><ele>1394</ele><speed>12.50</speed><time>2016-06-21T16:06:20Z</time><pdop>3.0</pdop><geoidheight>54.00</geoidheight><course>1.0</course><type>1</type></trkpt>
      <trkpt lat="39.58083239" lon="-6.41774848"><ele>1344</ele><speed>12.75</speed><time>2016-06-21T16:06:22Z</time><pdop>5.0</pdop><geoidheight>54.00</geoidheight><course>15.2</course><type>1</type></trkpt>
      <trkpt lat="39.58088991" lon="-6.41763752"><ele>1377</ele><speed>10.75</speed><time>2016-06-21T16:06:23Z</time><pdop>3.0</pdop><geoidheight>54.00</geoidheight><course>41.1</course><type>1</type></trkpt>
      <trkpt lat="39.58095719" lon="-6.41745101"><ele>1392</ele><speed>8.50</speed><time>2016-06-21T16:06:25Z</time><pdop>4.0</pdop><geoidheight>54.00</geoidheight><course>69.0</course><type>1</type></trkpt>
      <trkpt lat="39.58094647" lon="-6.41731084"><ele>1399</ele><speed>6.00</speed><time>2016-06-21T16:06:27Z</time><pdop>3.0</pdop><geoidheight>54.00</geoidheight><course>104.1</course><type>1</type></trkpt>
      <trkpt lat="39.58089204" lon="-6.41724661"><ele>1402</ele><speed>3.75</speed><time>2016-06-21T16:06:29Z</time><pdop>3.0</pdop><geoidheight>54.00</geoidheight><course>153.9</course><type>1</type></trkpt>
      <trkpt lat="39.58079389" lon="-6.41736506"><ele>1404</ele><speed>6.50</speed><time>2016-06-21T16:06:32Z</time><pdop>3.0</pdop><geoidheight>54.00</geoidheight><course>235.1</course><type>1</type></trkpt>
      <trkpt lat="39.58077105" lon="-6.41744483"><ele>1405</ele><speed>7.25</speed><time>2016-06-21T16:06:33Z</time><pdop>3.0</pdop><geoidheight>54.00</geoidheight><course>249.5</course><type>1</type></trkpt>
      <trkpt lat="39.58076717" lon="-6.4175386"><ele>1406</ele><speed>8.00</speed><time>2016-06-21T16:06:34Z</time><pdop>3.0</pdop><geoidheight>54.00</geoidheight><course>264.6</course><type>1</type></trkpt>
      <trkpt lat="39.58082158" lon="-6.41775634"><ele>1409</ele><speed>10.50</speed><time>2016-06-21T16:06:36Z</time><pdop>3.0</pdop><geoidheight>54.00</geoidheight><course>290.9</course><type>1</type></trkpt>
      <trkpt lat="39.58087204" lon="-6.41787504"><ele>1409</ele><speed>11.75</speed><time>2016-06-21T16:06:37Z</time><pdop>4.0</pdop><geoidheight>54.00</geoidheight><course>298.6</course><type>1</type></trkpt>
      <trkpt lat="39.58104276" lon="-6.41806207"><ele>1411</ele><speed>12.50</speed><time>2016-06-21T16:06:39Z</time><pdop>4.0</pdop><geoidheight>54.00</geoidheight><course>319.8</course><type>1</type></trkpt>
      <trkpt lat="39.58116732" lon="-6.4181202"><ele>1414</ele><speed>13.75</speed><time>2016-06-21T16:06:40Z</time><pdop>3.0</pdop><geoidheight>54.00</geoidheight><course>335.8</course><type>1</type></trkpt>
      <trkpt lat="39.58139701" lon="-6.41820078"><ele>1418</ele><speed>13.00</speed><time>2016-06-21T16:06:42Z</time><pdop>4.0</pdop><geoidheight>54.00</geoidheight><course>346.4</course><type>1</type></trkpt>
      <trkpt lat="39.58151491" lon="-6.41821966"><ele>1421</ele><speed>13.25</speed><time>2016-06-21T16:06:43Z</time><pdop>3.0</pdop><geoidheight>54.00</geoidheight><course>352.0</course><type>1</type></trkpt>
      <trkpt lat="39.58163305" lon="-6.41823484"><ele>1423</ele><speed>13.25</speed><time>2016-06-21T16:06:44Z</time><pdop>3.0</pdop><geoidheight>54.00</geoidheight><course>353.7</course><type>1</type></trkpt>
      <trkpt lat="39.5818665" lon="-6.4182592"><ele>1427</ele><speed>13.25</speed><time>2016-06-21T16:06:46Z</time><pdop>5.0</pdop><geoidheight>54.00</geoidheight><course>355.0</course><type>1</type></trkpt>
      <trkpt lat="39.58198622" lon="-6.41825355"><ele>1430</ele><speed>13.25</speed><time>2016-06-21T16:06:47Z</time><pdop>5.0</pdop><geoidheight>54.00</geoidheight><course>358.9</course><type>1</type></trkpt>
      <trkpt lat="39.58208293" lon="-6.41817172"><ele>1430</ele><speed>12.25</speed><time>2016-06-21T16:06:48Z</time><pdop>3.0</pdop><geoidheight>54.00</geoidheight><course>19.6</course><type>1</type></trkpt>
      <trkpt lat="39.58225324" lon="-6.41802349"><ele>1433</ele><speed>11.50</speed><time>2016-06-21T16:06:50Z</time><pdop>4.0</pdop><geoidheight>54.00</geoidheight><course>33.3</course><type>1</type></trkpt>
      <trkpt lat="39.582265" lon="-6.41792782"><ele>1434</ele><speed>8.50</speed><time>2016-06-21T16:06:51Z</time><pdop>3.0</pdop><geoidheight>54.00</geoidheight><course>58.9</course><type>1</type></trkpt>
      <trkpt lat="39.58228094" lon="-6.41779476"><ele>1438</ele><speed>5.00</speed><time>2016-06-21T16:06:53Z</time><pdop>3.0</pdop><geoidheight>54.00</geoidheight><course>87.6</course><type>1</type></trkpt>
      <trkpt lat="39.58223752" lon="-6.41775154"><ele>1439</ele><speed>3.50</speed><time>2016-06-21T16:06:55Z</time><pdop>3.0</pdop><geoidheight>54.00</geoidheight><course>162.2</course><type>1</type></trkpt>
      <trkpt lat="39.58215884" lon="-6.41782375"><ele>1440</ele><speed>6.25</speed><time>2016-06-21T16:06:57Z</time><pdop>3.0</pdop><geoidheight>54.00</geoidheight><course>218.8</course><type>1</type></trkpt>
      <trkpt lat="39.58211549" lon="-6.41802599"><ele>1440</ele><speed>9.75</speed><time>2016-06-21T16:06:59Z</time><pdop>3.0</pdop><geoidheight>54.00</geoidheight><course>261.3</course><type>1</type></trkpt>
      <trkpt lat="39.58215873" lon="-6.41828489"><ele>1443</ele><speed>12.00</speed><time>2016-06-21T16:07:01Z</time><pdop>3.0</pdop><geoidheight>54.00</geoidheight><course>284.3</course><type>1</type></trkpt>
      <trkpt lat="39.5821851" lon="-6.41841905"><ele>1445</ele><speed>12.00</speed><time>2016-06-21T16:07:02Z</time><pdop>4.0</pdop><geoidheight>54.00</geoidheight><course>284.3</course><type>1</type></trkpt>
      <trkpt lat="39.58226422" lon="-6.41855027"><ele>1449</ele><speed>13.25</speed><time>2016-06-21T16:07:03Z</time><pdop>3.0</pdop><geoidheight>54.00</geoidheight><course>301.9</course><type>1</type></trkpt>
      <trkpt lat="39.58245046" lon="-6.41876171"><ele>1454</ele><speed>13.75</speed><time>2016-06-21T16:07:05Z</time><pdop>3.0</pdop><geoidheight>54.00</geoidheight><course>322.4</course><type>1</type></trkpt>
      <trkpt lat="39.58254912" lon="-6.41886002"><ele>1456</ele><speed>13.75</speed><time>2016-06-21T16:07:06Z</time><pdop>5.0</pdop><geoidheight>54.00</geoidheight><course>322.4</course><type>1</type></trkpt>
      <trkpt lat="39.58266043" lon="-6.41892202"><ele>1457</ele><speed>13.50</speed><time>2016-06-21T16:07:07Z</time><pdop>3.0</pdop><geoidheight>54.00</geoidheight><course>329.4</course><type>1</type></trkpt>
      <trkpt lat="39.5828881" lon="-6.41904585"><ele>1458</ele><speed>14.00</speed><time>2016-06-21T16:07:09Z</time><pdop>3.0</pdop><geoidheight>54.00</geoidheight><course>341.3</course><type>1</type></trkpt>
      <trkpt lat="39.5830204" lon="-6.41906339"><ele>1458</ele><speed>14.75</speed><time>2016-06-21T16:07:10Z</time><pdop>3.0</pdop><geoidheight>54.00</geoidheight><course>352.4</course><type>1</type></trkpt>
      <trkpt lat="39.58315162" lon="-6.41908591"><ele>1458</ele><speed>14.75</speed><time>2016-06-21T16:07:11Z</time><pdop>5.0</pdop><geoidheight>54.00</geoidheight><course>352.4</course><type>1</type></trkpt>
      <trkpt lat="39.58328133" lon="-6.41903836"><ele>1458</ele><speed>14.25</speed><time>2016-06-21T16:07:12Z</time><pdop>5.0</pdop><geoidheight>54.00</geoidheight><course>3.3</course><type>1</type></trkpt>
      <trkpt lat="39.58341711" lon="-6.41890383"><ele>1459</ele><speed>9.00</speed><time>2016-06-21T16:07:14Z</time><pdop>3.0</pdop><geoidheight>54.00</geoidheight><course>31.9</course><type>1</type></trkpt>
      <trkpt lat="39.5834609" lon="-6.41884835"><ele>1459</ele><speed>6.75</speed><time>2016-06-21T16:07:15Z</time><pdop>3.0</pdop><geoidheight>54.00</geoidheight><course>43.2</course><type>1</type></trkpt>
      <trkpt lat="39.58347729" lon="-6.41873247"><ele>1462</ele><speed>3.00</speed><time>2016-06-21T16:07:18Z</time><pdop>5.0</pdop><geoidheight>54.00</geoidheight><course>93.3</course><type>1</type></trkpt>
      <trkpt lat="39.58342338" lon="-6.41880667"><ele>1466</ele><speed>2.50</speed><time>2016-06-21T16:07:21Z</time><pdop>3.0</pdop><geoidheight>54.00</geoidheight><course>221.9</course><type>1</type></trkpt>
      <trkpt lat="39.58337898" lon="-6.41891658"><ele>1468</ele><speed>6.50</speed><time>2016-06-21T16:07:23Z</time><pdop>3.0</pdop><geoidheight>54.00</geoidheight><course>246.5</course><type>1</type></trkpt>
      <trkpt lat="39.58338583" lon="-6.41916528"><ele>1471</ele><speed>11.50</speed><time>2016-06-21T16:07:25Z</time><pdop>3.0</pdop><geoidheight>54.00</geoidheight><course>276.5</course><type>1</type></trkpt>
      <trkpt lat="39.58351951" lon="-6.41942305"><ele>1474</ele><speed>13.75</speed><time>2016-06-21T16:07:27Z</time><pdop>3.0</pdop><geoidheight>54.00</geoidheight><course>309.3</course><type>1</type></trkpt>
      <trkpt lat="39.58370341" lon="-6.41966422"><ele>1474</ele><speed>14.50</speed><time>2016-06-21T16:07:29Z</time><pdop>6.0</pdop><geoidheight>54.00</geoidheight><course>314.2</course><type>1</type></trkpt>
      <trkpt lat="39.58385174" lon="-6.41969819"><ele>1475</ele><speed>14.50</speed><time>2016-06-21T16:07:30Z</time><pdop>4.0</pdop><geoidheight>54.00</geoidheight><course>330.2</course><type>1</type></trkpt>
      <trkpt lat="39.58396868" lon="-6.41971966"><ele>1475</ele><speed>13.50</speed><time>2016-06-21T16:07:31Z</time><pdop>3.0</pdop><geoidheight>54.00</geoidheight><course>346.2</course><type>1</type></trkpt>
      <trkpt lat="39.5842082" lon="-6.41971675"><ele>1473</ele><speed>13.25</speed><time>2016-06-21T16:07:33Z</time><pdop>3.0</pdop><geoidheight>54.00</geoidheight><course>1.2</course><type>1</type></trkpt>
      <trkpt lat="39.58432825" lon="-6.41971337"><ele>1472</ele><speed>13.25</speed><time>2016-06-21T16:07:34Z</time><pdop>5.0</pdop><geoidheight>54.00</geoidheight><course>1.2</course><type>1</type></trkpt>
      <trkpt lat="39.5844415" lon="-6.41968525"><ele>1471</ele><speed>13.00</speed><time>2016-06-21T16:07:35Z</time><pdop>3.0</pdop><geoidheight>54.00</geoidheight><course>6.2</course><type>1</type></trkpt>
      <trkpt lat="39.58463935" lon="-6.4196084"><ele>1469</ele><speed>11.25</speed><time>2016-06-21T16:07:37Z</time><pdop>3.0</pdop><geoidheight>54.00</geoidheight><course>19.6</course><type>1</type></trkpt>
      <trkpt lat="39.58473558" lon="-6.41956413"><ele>1468</ele><speed>11.25</speed><time>2016-06-21T16:07:38Z</time><pdop>5.0</pdop><geoidheight>54.00</geoidheight><course>19.6</course><type>1</type></trkpt>
      <trkpt lat="39.58484202" lon="-6.41938313"><ele>1458</ele><speed>6.00</speed><time>2016-06-21T16:07:41Z</time><pdop>3.0</pdop><geoidheight>54.00</geoidheight><course>65.8</course><type>1</type></trkpt>
      <trkpt lat="39.58479977" lon="-6.41930753"><ele>1452</ele><speed>4.25</speed><time>2016-06-21T16:07:43Z</time><pdop>3.0</pdop><geoidheight>54.00</geoidheight><course>152.9</course><type>1</type></trkpt>
      <trkpt lat="39.58473443" lon="-6.41933144"><ele>1453</ele><speed>3.75</speed><time>2016-06-21T16:07:45Z</time><pdop>3.0</pdop><geoidheight>54.00</geoidheight><course>203.0</course><type>1</type></trkpt>
      <trkpt lat="39.58464181" lon="-6.41941285"><ele>1448</ele><speed>4.50</speed><time>2016-06-21T16:07:49Z</time><pdop>4.0</pdop><geoidheight>54.00</geoidheight><course>213.7</course><type>1</type></trkpt>
      <trkpt lat="39.58456988" lon="-6.41947972"><ele>1450</ele><speed>5.00</speed><time>2016-06-21T16:07:51Z</time><pdop>4.0</pdop><geoidheight>54.00</geoidheight><course>217.6</course><type>1</type></trkpt>
      <trkpt lat="39.58450781" lon="-6.41956626"><ele>1451</ele><speed>5.25</speed><time>2016-06-21T16:07:53Z</time><pdop>4.0</pdop><geoidheight>54.00</geoidheight><course>229.2</course><type>1</type></trkpt>
      <trkpt lat="39.58445618" lon="-6.41966157"><ele>1453</ele><speed>4.75</speed><time>2016-06-21T16:07:55Z</time><pdop>3.0</pdop><geoidheight>54.00</geoidheight><course>235.6</course><type>1</type></trkpt>
      <trkpt lat="39.58436646" lon="-6.41970119"><ele>1453</ele><speed>2.50</speed><time>2016-06-21T16:08:00Z</time><pdop>3.0</pdop><geoidheight>54.00</geoidheight><course>159.8</course><type>1</type></trkpt>
      <trkpt lat="39.58435937" lon="-6.41956479"><ele>1454</ele><speed>4.50</speed><time>2016-06-21T16:08:03Z</time><pdop>3.0</pdop><geoidheight>54.00</geoidheight><course>74.9</course><type>1</type></trkpt>
      <trkpt lat="39.58439687" lon="-6.41941019"><ele>1455</ele><speed>4.50</speed><time>2016-06-21T16:08:06Z</time><pdop>3.0</pdop><geoidheight>54.00</geoidheight><course>76.7</course><type>1</type></trkpt>
      <trkpt lat="39.58438509" lon="-6.41926768"><ele>1458</ele><speed>4.25</speed><time>2016-06-21T16:08:09Z</time><pdop>3.0</pdop><geoidheight>54.00</geoidheight><course>107.4</course><type>1</type></trkpt>
      <trkpt lat="39.58429953" lon="-6.41923623"><ele>1461</ele><speed>3.00</speed><time>2016-06-21T16:08:12Z</time><pdop>3.0</pdop><geoidheight>54.00</geoidheight><course>164.1</course><type>1</type></trkpt>
      <trkpt lat="39.58421213" lon="-6.4192801"><ele>1462</ele><speed>3.25</speed><time>2016-06-21T16:08:15Z</time><pdop>4.0</pdop><geoidheight>54.00</geoidheight><course>202.8</course><type>1</type></trkpt>
      <trkpt lat="39.58414882" lon="-6.41933327"><ele>1465</ele><speed>3.75</speed><time>2016-06-21T16:08:17Z</time><pdop>3.0</pdop><geoidheight>54.00</geoidheight><course>207.9</course><type>1</type></trkpt>
      <trkpt lat="39.58409042" lon="-6.41943424"><ele>1465</ele><speed>5.75</speed><time>2016-06-21T16:08:18Z</time><pdop>3.0</pdop><geoidheight>54.00</geoidheight><course>230.5</course><type>1</type></trkpt>
      <trkpt lat="39.58405042" lon="-6.41959142"><ele>1466</ele><speed>6.75</speed><time>2016-06-21T16:08:20Z</time><pdop>4.0</pdop><geoidheight>54.00</geoidheight><course>248.4</course><type>1</type></trkpt>
      <trkpt lat="39.58405881" lon="-6.41974405"><ele>1466</ele><speed>10.50</speed><time>2016-06-21T16:08:21Z</time><pdop>4.0</pdop><geoidheight>54.00</geoidheight><course>267.8</course><type>1</type></trkpt>
      <trkpt lat="39.58407775" lon="-6.41987596"><ele>1468</ele><speed>11.50</speed><time>2016-06-21T16:08:22Z</time><pdop>3.0</pdop><geoidheight>54.00</geoidheight><course>276.3</course><type>1</type></trkpt>
      <trkpt lat="39.58417513" lon="-6.42012908"><ele>1471</ele><speed>11.75</speed><time>2016-06-21T16:08:24Z</time><pdop>3.0</pdop><geoidheight>54.00</geoidheight><course>299.8</course><type>1</type></trkpt>
      <trkpt lat="39.58424212" lon="-6.42023686"><ele>1472</ele><speed>12.00</speed><time>2016-06-21T16:08:25Z</time><pdop>3.0</pdop><geoidheight>54.00</geoidheight><course>308.4</course><type>1</type></trkpt>
      <trkpt lat="39.58431287" lon="-6.42033871"><ele>1473</ele><speed>12.25</speed><time>2016-06-21T16:08:26Z</time><pdop>4.0</pdop><geoidheight>54.00</geoidheight><course>311.7</course><type>1</type></trkpt>
      <trkpt lat="39.58448507" lon="-6.4205218"><ele>1475</ele><speed>12.50</speed><time>2016-06-21T16:08:28Z</time><pdop>6.0</pdop><geoidheight>54.00</geoidheight><course>319.2</course><type>1</type></trkpt>
      <trkpt lat="39.58463509" lon="-6.42053332"><ele>1474</ele><speed>14.00</speed><time>2016-06-21T16:08:29Z</time><pdop>3.0</pdop><geoidheight>54.00</geoidheight><course>344.1</course><type>1</type></trkpt>
      <trkpt lat="39.58476075" lon="-6.4205574"><ele>1474</ele><speed>14.50</speed><time>2016-06-21T16:08:30Z</time><pdop>3.0</pdop><geoidheight>54.00</geoidheight><course>353.1</course><type>1</type></trkpt>
      <trkpt lat="39.58508273" lon="-6.42046186"><ele>1446</ele><speed>11.00</speed><time>2016-06-21T16:08:33Z</time><pdop>3.0</pdop><geoidheight>54.00</geoidheight><course>23.7</course><type>1</type></trkpt>
      <trkpt lat="39.58513748" lon="-6.42039805"><ele>1455</ele><speed>8.75</speed><time>2016-06-21T16:08:34Z</time><pdop>3.0</pdop><geoidheight>54.00</geoidheight><course>38.9</course><type>1</type></trkpt>
      <trkpt lat="39.58517629" lon="-6.42028982"><ele>1465</ele><speed>4.25</speed><time>2016-06-21T16:08:36Z</time><pdop>3.0</pdop><geoidheight>54.00</geoidheight><course>73.7</course><type>1</type></trkpt>
      <trkpt lat="39.58507518" lon="-6.42028113"><ele>1472</ele><speed>4.50</speed><time>2016-06-21T16:08:40Z</time><pdop>3.0</pdop><geoidheight>54.00</geoidheight><course>200.2</course><type>1</type></trkpt>
      <trkpt lat="39.58500131" lon="-6.42037657"><ele>1474</ele><speed>6.00</speed><time>2016-06-21T16:08:42Z</time><pdop>3.0</pdop><geoidheight>54.00</geoidheight><course>232.4</course><type>1</type></trkpt>
      <trkpt lat="39.58497613" lon="-6.42045208"><ele>1475</ele><speed>6.75</speed><time>2016-06-21T16:08:43Z</time><pdop>3.0</pdop><geoidheight>54.00</geoidheight><course>243.0</course><type>1</type></trkpt>
      <trkpt lat="39.58493333" lon="-6.42060049"><ele>1476</ele><speed>7.00</speed><time>2016-06-21T16:08:45Z</time><pdop>4.0</pdop><geoidheight>54.00</geoidheight><course>247.5</course><type>1</type></trkpt>
      <trkpt lat="39.58491842" lon="-6.42077956"><ele>1479</ele><speed>7.50</speed><time>2016-06-21T16:08:47Z</time><pdop>3.0</pdop><geoidheight>54.00</geoidheight><course>259.6</course><type>1</type></trkpt>
      <trkpt lat="39.58488423" lon="-6.42093848"><ele>1480</ele><speed>7.25</speed><time>2016-06-21T16:08:49Z</time><pdop>3.0</pdop><geoidheight>54.00</geoidheight><course>253.4</course><type>1</type></trkpt>
      <trkpt lat="39.58485315" lon="-6.42102287"><ele>1480</ele><speed>7.75</speed><time>2016-06-21T16:08:50Z</time><pdop>3.0</pdop><geoidheight>54.00</geoidheight><course>245.7</course><type>1</type></trkpt>
      <trkpt lat="39.58479151" lon="-6.42120577"><ele>1482</ele><speed>8.75</speed><time>2016-06-21T16:08:52Z</time><pdop>4.0</pdop><geoidheight>54.00</geoidheight><course>248.3</course><type>1</type></trkpt>
      <trkpt lat="39.58476947" lon="-6.42130547"><ele>1484</ele><speed>9.00</speed><time>2016-06-21T16:08:53Z</time><pdop>3.0</pdop><geoidheight>54.00</geoidheight><course>252.8</course><type>1</type></trkpt>
      <trkpt lat="39.58474552" lon="-6.42140111"><ele>1485</ele><speed>8.50</speed><time>2016-06-21T16:08:54Z</time><pdop>4.0</pdop><geoidheight>54.00</geoidheight><course>252.8</course><type>1</type></trkpt>
      <trkpt lat="39.58472053" lon="-6.42149469"><ele>1486</ele><speed>8.25</speed><time>2016-06-21T16:08:55Z</time><pdop>4.0</pdop><geoidheight>54.00</geoidheight><course>251.5</course><type>1</type></trkpt>
      <trkpt lat="39.58470072" lon="-6.4215873"><ele>1487</ele><speed>8.50</speed><time>2016-06-21T16:08:56Z</time><pdop>4.0</pdop><geoidheight>54.00</geoidheight><course>253.6</course><type>1</type></trkpt>
      <trkpt lat="39.5846846" lon="-6.42169034"><ele>1488</ele><speed>9.00</speed><time>2016-06-21T16:08:57Z</time><pdop>3.0</pdop><geoidheight>54.00</geoidheight><course>257.5</course><type>1</type></trkpt>
      <trkpt lat="39.58467029" lon="-6.42179688"><ele>1488</ele><speed>9.00</speed><time>2016-06-21T16:08:58Z</time><pdop>4.0</pdop><geoidheight>54.00</geoidheight><course>258.7</course><type>1</type></trkpt>
      <trkpt lat="39.58465374" lon="-6.42189808"><ele>1488</ele><speed>8.75</speed><time>2016-06-21T16:08:59Z</time><pdop>4.0</pdop><geoidheight>54.00</geoidheight><course>259.9</course><type>1</type></trkpt>
      <trkpt lat="39.5846379" lon="-6.4221073"><ele>1489</ele><speed>9.00</speed><time>2016-06-21T16:09:01Z</time><pdop>7.0</pdop><geoidheight>54.00</geoidheight><course>263.9</course><type>1</type></trkpt>
      <trkpt lat="39.58472944" lon="-6.42233317"><ele>1494</ele><speed>10.75</speed><time>2016-06-21T16:09:03Z</time><pdop>4.0</pdop><geoidheight>54.00</geoidheight><course>291.6</course><type>1</type></trkpt>
      <trkpt lat="39.58477028" lon="-6.42245928"><ele>1495</ele><speed>11.75</speed><time>2016-06-21T16:09:04Z</time><pdop>4.0</pdop><geoidheight>54.00</geoidheight><course>293.8</course><type>1</type></trkpt>
      <trkpt lat="39.58496337" lon="-6.422602"><ele>1498</ele><speed>12.50</speed><time>2016-06-21T16:09:06Z</time><pdop>3.0</pdop><geoidheight>54.00</geoidheight><course>330.3</course><type>1</type></trkpt>
      <trkpt lat="39.58506115" lon="-6.42266049"><ele>1500</ele><speed>12.25</speed><time>2016-06-21T16:09:07Z</time><pdop>3.0</pdop><geoidheight>54.00</geoidheight><course>340.9</course><type>1</type></trkpt>
      <trkpt lat="39.58526206" lon="-6.42269103"><ele>1410</ele><speed>11.00</speed><time>2016-06-21T16:09:09Z</time><pdop>3.0</pdop><geoidheight>54.00</geoidheight><course>357.2</course><type>1</type></trkpt>
      <trkpt lat="39.58536036" lon="-6.42269735"><ele>1411</ele><speed>11.00</speed><time>2016-06-21T16:09:10Z</time><pdop>5.0</pdop><geoidheight>54.00</geoidheight><course>357.2</course><type>1</type></trkpt>
      <trkpt lat="39.5855207" lon="-6.42251697"><ele>1483</ele><speed>7.50</speed><time>2016-06-21T16:09:13Z</time><pdop>3.0</pdop><geoidheight>54.00</geoidheight><course>40.0</course><type>1</type></trkpt>
      <trkpt lat="39.58555474" lon="-6.42241983"><ele>1491</ele><speed>4.00</speed><time>2016-06-21T16:09:15Z</time><pdop>3.0</pdop><geoidheight>54.00</geoidheight><course>75.1</course><type>1</type></trkpt>
      <trkpt lat="39.5855063" lon="-6.42236304"><ele>1495</ele><speed>2.50</speed><time>2016-06-21T16:09:18Z</time><pdop>4.0</pdop><geoidheight>54.00</geoidheight><course>155.5</course><type>1</type></trkpt>
      <trkpt lat="39.58539318" lon="-6.42239136"><ele>1498</ele><speed>3.25</speed><time>2016-06-21T16:09:22Z</time><pdop>3.0</pdop><geoidheight>54.00</geoidheight><course>203.6</course><type>1</type></trkpt>
      <trkpt lat="39.58532007" lon="-6.42231665"><ele>1501</ele><speed>3.00</speed><time>2016-06-21T16:09:26Z</time><pdop>4.0</pdop><geoidheight>54.00</geoidheight><course>111.0</course><type>1</type></trkpt>
      <trkpt lat="39.58527581" lon="-6.42217344"><ele>1503</ele><speed>4.75</speed><time>2016-06-21T16:09:29Z</time><pdop>3.0</pdop><geoidheight>54.00</geoidheight><course>112.8</course><type>1</type></trkpt>
      <trkpt lat="39.58523645" lon="-6.42207388"><ele>1503</ele><speed>4.50</speed><time>2016-06-21T16:09:31Z</time><pdop>4.0</pdop><geoidheight>54.00</geoidheight><course>116.9</course><type>1</type></trkpt>
      <trkpt lat="39.58518281" lon="-6.42196007"><ele>1504</ele><speed>5.75</speed><time>2016-06-21T16:09:33Z</time><pdop>4.0</pdop><geoidheight>54.00</geoidheight><course>119.8</course><type>1</type></trkpt>
      <trkpt lat="39.58513848" lon="-6.42185347"><ele>1508</ele><speed>4.75</speed><time>2016-06-21T16:09:35Z</time><pdop>4.0</pdop><geoidheight>54.00</geoidheight><course>116.6</course><type>1</type></trkpt>
      <trkpt lat="39.58510476" lon="-6.42172776"><ele>1509</ele><speed>4.00</speed><time>2016-06-21T16:09:38Z</time><pdop>4.0</pdop><geoidheight>54.00</geoidheight><course>107.6</course><type>1</type></trkpt>
      <trkpt lat="39.585033609999996" lon="-6.42166587"><ele>1511</ele><speed>3.25</speed><time>2016-06-21T16:09:41Z</time><pdop>5.0</pdop><geoidheight>54.00</geoidheight><course>156.9</course><type>1</type></trkpt>
      <trkpt lat="39.58496169" lon="-6.42179715"><ele>1510</ele><speed>6.75</speed><time>2016-06-21T16:09:43Z</time><pdop>3.0</pdop><geoidheight>54.00</geoidheight><course>234.8</course><type>1</type></trkpt>
      <trkpt lat="39.58495041" lon="-6.4219753"><ele>1514</ele><speed>8.75</speed><time>2016-06-21T16:09:45Z</time><pdop>3.0</pdop><geoidheight>54.00</geoidheight><course>272.2</course><type>1</type></trkpt>
      <trkpt lat="39.58497723" lon="-6.42208091"><ele>1516</ele><speed>9.50</speed><time>2016-06-21T16:09:46Z</time><pdop>3.0</pdop><geoidheight>54.00</geoidheight><course>285.7</course><type>1</type></trkpt>
      <trkpt lat="39.58505595" lon="-6.42228832"><ele>1518</ele><speed>10.25</speed><time>2016-06-21T16:09:48Z</time><pdop>4.0</pdop><geoidheight>54.00</geoidheight><course>297.6</course><type>1</type></trkpt>
      <trkpt lat="39.58517787" lon="-6.42249876"><ele>1520</ele><speed>11.25</speed><time>2016-06-21T16:09:50Z</time><pdop>6.0</pdop><geoidheight>54.00</geoidheight><course>305.1</course><type>1</type></trkpt>
      <trkpt lat="39.58529026" lon="-6.42258148"><ele>1521</ele><speed>12.50</speed><time>2016-06-21T16:09:51Z</time><pdop>5.0</pdop><geoidheight>54.00</geoidheight><course>316.4</course><type>1</type></trkpt>
      <trkpt lat="39.5855287" lon="-6.42267645"><ele>1529</ele><speed>12.50</speed><time>2016-06-21T16:09:53Z</time><pdop>3.0</pdop><geoidheight>54.00</geoidheight><course>341.4</course><type>1</type></trkpt>
      <trkpt lat="39.58563616" lon="-6.42272321"><ele>1532</ele><speed>12.50</speed><time>2016-06-21T16:09:54Z</time><pdop>5.0</pdop><geoidheight>54.00</geoidheight><course>341.4</course><type>1</type></trkpt>
      <trkpt lat="39.5857398" lon="-6.42273416"><ele>1532</ele><speed>11.75</speed><time>2016-06-21T16:09:55Z</time><pdop>4.0</pdop><geoidheight>54.00</geoidheight><course>348.3</course><type>1</type></trkpt>
      <trkpt lat="39.58584374" lon="-6.42274408"><ele>1532</ele><speed>11.25</speed><time>2016-06-21T16:09:56Z</time><pdop>5.0</pdop><geoidheight>54.00</geoidheight><course>350.6</course><type>1</type></trkpt>
      <trkpt lat="39.58595292" lon="-6.42276147"><ele>1531</ele><speed>11.50</speed><time>2016-06-21T16:09:57Z</time><pdop>4.0</pdop><geoidheight>54.00</geoidheight><course>348.1</course><type>1</type></trkpt>
      <trkpt lat="39.58607989" lon="-6.42266103"><ele>1448</ele><speed>12.75</speed><time>2016-06-21T16:09:58Z</time><pdop>3.0</pdop><geoidheight>54.00</geoidheight><course>14.7</course><type>1</type></trkpt>
      <trkpt lat="39.58624618" lon="-6.42251387"><ele>1499</ele><speed>10.50</speed><time>2016-06-21T16:10:00Z</time><pdop>3.0</pdop><geoidheight>54.00</geoidheight><course>36.5</course><type>1</type></trkpt>
      <trkpt lat="39.58629445" lon="-6.42243462"><ele>1510</ele><speed>8.00</speed><time>2016-06-21T16:10:01Z</time><pdop>3.0</pdop><geoidheight>54.00</geoidheight><course>46.2</course><type>1</type></trkpt>
      <trkpt lat="39.58632021" lon="-6.42233286"><ele>1518</ele><speed>4.00</speed><time>2016-06-21T16:10:03Z</time><pdop>3.0</pdop><geoidheight>54.00</geoidheight><course>85.3</course><type>1</type></trkpt>
      <trkpt lat="39.58626779" lon="-6.42224335"><ele>1522</ele><speed>3.25</speed><time>2016-06-21T16:10:06Z</time><pdop>5.0</pdop><geoidheight>54.00</geoidheight><course>137.9</course><type>1</type></trkpt>
      <trkpt lat="39.58618719" lon="-6.42235985"><ele>1527</ele><speed>6.25</speed><time>2016-06-21T16:10:08Z</time><pdop>3.0</pdop><geoidheight>54.00</geoidheight><course>230.7</course><type>1</type></trkpt>
      <trkpt lat="39.58616379" lon="-6.42244164"><ele>1529</ele><speed>7.25</speed><time>2016-06-21T16:10:09Z</time><pdop>3.0</pdop><geoidheight>54.00</geoidheight><course>249.9</course><type>1</type></trkpt>
      <trkpt lat="39.58618701" lon="-6.42265756"><ele>1532</ele><speed>9.75</speed><time>2016-06-21T16:10:11Z</time><pdop>3.0</pdop><geoidheight>54.00</geoidheight><course>281.7</course><type>1</type></trkpt>
      <trkpt lat="39.58628699" lon="-6.4229075"><ele>1536</ele><speed>12.50</speed><time>2016-06-21T16:10:13Z</time><pdop>3.0</pdop><geoidheight>54.00</geoidheight><course>300.3</course><type>1</type></trkpt>
      <trkpt lat="39.58634372" lon="-6.42303281"><ele>1537</ele><speed>12.50</speed><time>2016-06-21T16:10:14Z</time><pdop>5.0</pdop><geoidheight>54.00</geoidheight><course>300.3</course><type>1</type></trkpt>
      <trkpt lat="39.58653371" lon="-6.42323296"><ele>1540</ele><speed>12.75</speed><time>2016-06-21T16:10:16Z</time><pdop>3.0</pdop><geoidheight>54.00</geoidheight><course>320.8</course><type>1</type></trkpt>
      <trkpt lat="39.58662586" lon="-6.42330857"><ele>1542</ele><speed>12.25</speed><time>2016-06-21T16:10:17Z</time><pdop>3.0</pdop><geoidheight>54.00</geoidheight><course>329.1</course><type>1</type></trkpt>
      <trkpt lat="39.58683447" lon="-6.42338114"><ele>1545</ele><speed>12.25</speed><time>2016-06-21T16:10:19Z</time><pdop>3.0</pdop><geoidheight>54.00</geoidheight><course>350.0</course><type>1</type></trkpt>
      <trkpt lat="39.58694642" lon="-6.42337771"><ele>1545</ele><speed>12.00</speed><time>2016-06-21T16:10:20Z</time><pdop>3.0</pdop><geoidheight>54.00</geoidheight><course>359.7</course><type>1</type></trkpt>
      <trkpt lat="39.58704731" lon="-6.423359"><ele>1545</ele><speed>11.50</speed><time>2016-06-21T16:10:21Z</time><pdop>3.0</pdop><geoidheight>54.00</geoidheight><course>8.0</course><type>1</type></trkpt>
      <trkpt lat="39.58714998" lon="-6.42334036"><ele>1545</ele><speed>11.50</speed><time>2016-06-21T16:10:22Z</time><pdop>5.0</pdop><geoidheight>54.00</geoidheight><course>8.0</course><type>1</type></trkpt>
      <trkpt lat="39.5872293" lon="-6.42327812"><ele>1545</ele><speed>10.50</speed><time>2016-06-21T16:10:23Z</time><pdop>4.0</pdop><geoidheight>54.00</geoidheight><course>20.0</course><type>1</type></trkpt>
      <trkpt lat="39.58734441" lon="-6.42317965"><ele>1541</ele><speed>7.00</speed><time>2016-06-21T16:10:25Z</time><pdop>3.0</pdop><geoidheight>54.00</geoidheight><course>40.6</course><type>1</type></trkpt>
      <trkpt lat="39.58736786" lon="-6.42306924"><ele>1536</ele><speed>4.50</speed><time>2016-06-21T16:10:27Z</time><pdop>3.0</pdop><geoidheight>54.00</geoidheight><course>84.4</course><type>1</type></trkpt>
      <trkpt lat="39.58730628" lon="-6.42301547"><ele>1531</ele><speed>2.75</speed><time>2016-06-21T16:10:30Z</time><pdop>5.0</pdop><geoidheight>54.00</geoidheight><course>157.8</course><type>1</type></trkpt>
      <trkpt lat="39.5871449" lon="-6.42304893"><ele>1538</ele><speed>5.50</speed><time>2016-06-21T16:10:33Z</time><pdop>5.0</pdop><geoidheight>54.00</geoidheight><course>188.6</course><type>1</type></trkpt>
      <trkpt lat="39.58704556" lon="-6.42309364"><ele>1541</ele><speed>4.25</speed><time>2016-06-21T16:10:36Z</time><pdop>4.0</pdop><geoidheight>54.00</geoidheight><course>188.2</course><type>1</type></trkpt>
      <trkpt lat="39.58695176" lon="-6.4230913"><ele>1544</ele><speed>3.75</speed><time>2016-06-21T16:10:39Z</time><pdop>3.0</pdop><geoidheight>54.00</geoidheight><course>185.8</course><type>1</type></trkpt>
      <trkpt lat="39.58688599" lon="-6.42309394"><ele>1546</ele><speed>3.75</speed><time>2016-06-21T16:10:41Z</time><pdop>3.0</pdop><geoidheight>54.00</geoidheight><course>175.8</course><type>1</type></trkpt>
      <trkpt lat="39.58682983" lon="-6.42305169"><ele>1547</ele><speed>3.50</speed><time>2016-06-21T16:10:43Z</time><pdop>3.0</pdop><geoidheight>54.00</geoidheight><course>141.9</course><type>1</type></trkpt>
      <trkpt lat="39.58679817" lon="-6.42296538"><ele>1547</ele><speed>4.25</speed><time>2016-06-21T16:10:45Z</time><pdop>3.0</pdop><geoidheight>54.00</geoidheight><course>109.3</course><type>1</type></trkpt>
      <trkpt lat="39.5868064" lon="-6.42278538"><ele>1548</ele><speed>8.00</speed><time>2016-06-21T16:10:47Z</time><pdop>3.0</pdop><geoidheight>54.00</geoidheight><course>77.5</course><type>1</type></trkpt>
      <trkpt lat="39.58684489" lon="-6.42269617"><ele>1548</ele><speed>8.75</speed><time>2016-06-21T16:10:48Z</time><pdop>4.0</pdop><geoidheight>54.00</geoidheight><course>63.4</course><type>1</type></trkpt>
      <trkpt lat="39.58698099" lon="-6.42253345"><ele>1548</ele><speed>10.50</speed><time>2016-06-21T16:10:50Z</time><pdop>3.0</pdop><geoidheight>54.00</geoidheight><course>39.1</course><type>1</type></trkpt>
      <trkpt lat="39.58707102" lon="-6.42246347"><ele>1549</ele><speed>11.75</speed><time>2016-06-21T16:10:51Z</time><pdop>3.0</pdop><geoidheight>54.00</geoidheight><course>31.6</course><type>1</type></trkpt>
      <trkpt lat="39.58717094" lon="-6.42240756"><ele>1550</ele><speed>12.25</speed><time>2016-06-21T16:10:52Z</time><pdop>3.0</pdop><geoidheight>54.00</geoidheight><course>24.3</course><type>1</type></trkpt>
      <trkpt lat="39.58727812" lon="-6.42237976"><ele>1552</ele><speed>12.25</speed><time>2016-06-21T16:10:53Z</time><pdop>3.0</pdop><geoidheight>54.00</geoidheight><course>13.3</course><type>1</type></trkpt>
      <trkpt lat="39.58748872" lon="-6.42236905"><ele>1552</ele><speed>11.75</speed><time>2016-06-21T16:10:55Z</time><pdop>6.0</pdop><geoidheight>54.00</geoidheight><course>3.2</course><type>1</type></trkpt>
      <trkpt lat="39.5876174" lon="-6.42243782"><ele>1552</ele><speed>13.25</speed><time>2016-06-21T16:10:56Z</time><pdop>4.0</pdop><geoidheight>54.00</geoidheight><course>346.5</course><type>1</type></trkpt>
      <trkpt lat="39.58772848" lon="-6.42249678"><ele>1552</ele><speed>13.25</speed><time>2016-06-21T16:10:57Z</time><pdop>4.0</pdop><geoidheight>54.00</geoidheight><course>339.5</course><type>1</type></trkpt>
      <trkpt lat="39.58791159" lon="-6.42266753"><ele>1551</ele><speed>13.00</speed><time>2016-06-21T16:10:59Z</time><pdop>3.0</pdop><geoidheight>54.00</geoidheight><course>322.5</course><type>1</type></trkpt>
      <trkpt lat="39.58798622" lon="-6.42278268"><ele>1551</ele><speed>12.25</speed><time>2016-06-21T16:11:00Z</time><pdop>3.0</pdop><geoidheight>54.00</geoidheight><course>311.0</course><type>1</type></trkpt>
      <trkpt lat="39.58803622" lon="-6.4228937"><ele>1550</ele><speed>11.00</speed><time>2016-06-21T16:11:01Z</time><pdop>4.0</pdop><geoidheight>54.00</geoidheight><course>302.4</course><type>1</type></trkpt>
      <trkpt lat="39.58805291" lon="-6.42320669"><ele>1551</ele><speed>8.25</speed><time>2016-06-21T16:11:04Z</time><pdop>7.0</pdop><geoidheight>54.00</geoidheight><course>273.1</course><type>1</type></trkpt>
      <trkpt lat="39.58797754" lon="-6.42330355"><ele>1549</ele><speed>3.75</speed><time>2016-06-21T16:11:07Z</time><pdop>3.0</pdop><geoidheight>54.00</geoidheight><course>219.1</course><type>1</type></trkpt>
      <trkpt lat="39.58790414" lon="-6.42331399"><ele>1548</ele><speed>4.75</speed><time>2016-06-21T16:11:09Z</time><pdop>3.0</pdop><geoidheight>54.00</geoidheight><course>184.0</course><type>1</type></trkpt>
      <trkpt lat="39.58783329" lon="-6.42329859"><ele>1550</ele><speed>3.75</speed><time>2016-06-21T16:11:11Z</time><pdop>3.0</pdop><geoidheight>54.00</geoidheight><course>167.7</course><type>1</type></trkpt>
      <trkpt lat="39.58777444" lon="-6.4232809"><ele>1551</ele><speed>3.50</speed><time>2016-06-21T16:11:13Z</time><pdop>3.0</pdop><geoidheight>54.00</geoidheight><course>165.8</course><type>1</type></trkpt>
      <trkpt lat="39.5877083" lon="-6.42325433"><ele>1552</ele><speed>4.00</speed><time>2016-06-21T16:11:15Z</time><pdop>3.0</pdop><geoidheight>54.00</geoidheight><course>160.6</course><type>1</type></trkpt>
      <trkpt lat="39.58764568" lon="-6.42321842"><ele>1554</ele><speed>3.75</speed><time>2016-06-21T16:11:17Z</time><pdop>3.0</pdop><geoidheight>54.00</geoidheight><course>152.7</course><type>1</type></trkpt>
      <trkpt lat="39.58756746" lon="-6.4231509"><ele>1555</ele><speed>3.50</speed><time>2016-06-21T16:11:20Z</time><pdop>4.0</pdop><geoidheight>54.00</geoidheight><course>142.2</course><type>1</type></trkpt>
      <trkpt lat="39.58747069" lon="-6.42300171"><ele>1557</ele><speed>4.25</speed><time>2016-06-21T16:11:24Z</time><pdop>6.0</pdop><geoidheight>54.00</geoidheight><course>129.3</course><type>1</type></trkpt>
      <trkpt lat="39.58743911" lon="-6.42283368"><ele>1557</ele><speed>4.50</speed><time>2016-06-21T16:11:27Z</time><pdop>4.0</pdop><geoidheight>54.00</geoidheight><course>106.6</course><type>1</type></trkpt>
      <trkpt lat="39.58741336" lon="-6.42269997"><ele>1560</ele><speed>5.00</speed><time>2016-06-21T16:11:29Z</time><pdop>3.0</pdop><geoidheight>54.00</geoidheight><course>112.0</course><type>1</type></trkpt>
      <trkpt lat="39.58737866" lon="-6.42260235"><ele>1562</ele><speed>4.50</speed><time>2016-06-21T16:11:31Z</time><pdop>4.0</pdop><geoidheight>54.00</geoidheight><course>114.1</course><type>1</type></trkpt>
      <trkpt lat="39.58734568" lon="-6.42252005"><ele>1565</ele><speed>4.00</speed><time>2016-06-21T16:11:33Z</time><pdop>3.0</pdop><geoidheight>54.00</geoidheight><course>122.0</course><type>1</type></trkpt>
      <trkpt lat="39.58727348" lon="-6.42249496"><ele>1570</ele><speed>3.00</speed><time>2016-06-21T16:11:36Z</time><pdop>3.0</pdop><geoidheight>54.00</geoidheight><course>193.6</course><type>1</type></trkpt>
      <trkpt lat="39.5872332" lon="-6.42256585"><ele>1524</ele><speed>4.00</speed><time>2016-06-21T16:11:38Z</time><pdop>4.0</pdop><geoidheight>54.00</geoidheight><course>243.5</course><type>1</type></trkpt>
      <trkpt lat="39.58721626" lon="-6.42278333"><ele>1563</ele><speed>7.25</speed><time>2016-06-21T16:11:41Z</time><pdop>3.0</pdop><geoidheight>54.00</geoidheight><course>260.0</course><type>1</type></trkpt>
      <trkpt lat="39.58721087" lon="-6.4228785"><ele>1567</ele><speed>8.50</speed><time>2016-06-21T16:11:42Z</time><pdop>3.0</pdop><geoidheight>54.00</geoidheight><course>264.2</course><type>1</type></trkpt>
      <trkpt lat="39.58723028" lon="-6.42299069"><ele>1571</ele><speed>9.50</speed><time>2016-06-21T16:11:43Z</time><pdop>3.0</pdop><geoidheight>54.00</geoidheight><course>279.2</course><type>1</type></trkpt>
      <trkpt lat="39.58727617" lon="-6.42311078"><ele>1573</ele><speed>11.25</speed><time>2016-06-21T16:11:44Z</time><pdop>4.0</pdop><geoidheight>54.00</geoidheight><course>294.7</course><type>1</type></trkpt>
      <trkpt lat="39.58744955" lon="-6.42333227"><ele>1578</ele><speed>13.25</speed><time>2016-06-21T16:11:46Z</time><pdop>5.0</pdop><geoidheight>54.00</geoidheight><course>313.3</course><type>1</type></trkpt>
      <trkpt lat="39.58754656" lon="-6.42338809"><ele>1580</ele><speed>12.00</speed><time>2016-06-21T16:11:47Z</time><pdop>4.0</pdop><geoidheight>54.00</geoidheight><course>327.3</course><type>1</type></trkpt>
      <trkpt lat="39.58777207" lon="-6.4234638"><ele>1490</ele><speed>12.00</speed><time>2016-06-21T16:11:49Z</time><pdop>3.0</pdop><geoidheight>54.00</geoidheight><course>348.7</course><type>1</type></trkpt>
      <trkpt lat="39.58799701" lon="-6.42343025"><ele>1550</ele><speed>12.75</speed><time>2016-06-21T16:11:51Z</time><pdop>3.0</pdop><geoidheight>54.00</geoidheight><course>9.2</course><type>1</type></trkpt>
      <trkpt lat="39.58811115" lon="-6.42340629"><ele>1551</ele><speed>12.75</speed><time>2016-06-21T16:11:52Z</time><pdop>5.0</pdop><geoidheight>54.00</geoidheight><course>9.2</course><type>1</type></trkpt>
      <trkpt lat="39.58820295" lon="-6.42331857"><ele>1574</ele><speed>12.00</speed><time>2016-06-21T16:11:53Z</time><pdop>3.0</pdop><geoidheight>54.00</geoidheight><course>26.1</course><type>1</type></trkpt>
      <trkpt lat="39.58831128" lon="-6.42316149"><ele>1584</ele><speed>8.50</speed><time>2016-06-21T16:11:55Z</time><pdop>3.0</pdop><geoidheight>54.00</geoidheight><course>54.8</course><type>1</type></trkpt>
      <trkpt lat="39.58835564" lon="-6.42308025"><ele>1584</ele><speed>8.50</speed><time>2016-06-21T16:11:56Z</time><pdop>5.0</pdop><geoidheight>54.00</geoidheight><course>54.8</course><type>1</type></trkpt>
      <trkpt lat="39.58833506" lon="-6.4229591"><ele>1592</ele><speed>4.50</speed><time>2016-06-21T16:11:58Z</time><pdop>3.0</pdop><geoidheight>54.00</geoidheight><course>93.0</course><type>1</type></trkpt>
      <trkpt lat="39.58829057" lon="-6.42291859"><ele>1595</ele><speed>2.25</speed><time>2016-06-21T16:12:01Z</time><pdop>3.0</pdop><geoidheight>54.00</geoidheight><course>169.0</course><type>1</type></trkpt>
      <trkpt lat="39.58819714" lon="-6.42293874"><ele>1597</ele><speed>3.50</speed><time>2016-06-21T16:12:04Z</time><pdop>6.0</pdop><geoidheight>54.00</geoidheight><course>187.7</course><type>1</type></trkpt>
      <trkpt lat="39.58810402" lon="-6.4230091"><ele>1601</ele><speed>3.50</speed><time>2016-06-21T16:12:08Z</time><pdop>4.0</pdop><geoidheight>54.00</geoidheight><course>206.8</course><type>1</type></trkpt>
      <trkpt lat="39.58803794" lon="-6.42304599"><ele>1602</ele><speed>4.00</speed><time>2016-06-21T16:12:10Z</time><pdop>4.0</pdop><geoidheight>54.00</geoidheight><course>205.0</course><type>1</type></trkpt>
      <trkpt lat="39.58793569" lon="-6.42314233"><ele>1604</ele><speed>4.50</speed><time>2016-06-21T16:12:13Z</time><pdop>4.0</pdop><geoidheight>54.00</geoidheight><course>220.7</course><type>1</type></trkpt>
      <trkpt lat="39.5878718" lon="-6.42327344"><ele>1609</ele><speed>4.50</speed><time>2016-06-21T16:12:16Z</time><pdop>3.0</pdop><geoidheight>54.00</geoidheight><course>236.4</course><type>1</type></trkpt>
      <trkpt lat="39.58776719" lon="-6.42333078"><ele>1615</ele><speed>4.50</speed><time>2016-06-21T16:12:19Z</time><pdop>3.0</pdop><geoidheight>54.00</geoidheight><course>187.5</course><type>1</type></trkpt>
      <trkpt lat="39.587695" lon="-6.42327498"><ele>1619</ele><speed>4.50</speed><time>2016-06-21T16:12:21Z</time><pdop>3.0</pdop><geoidheight>54.00</geoidheight><course>153.1</course><type>1</type></trkpt>
      <trkpt lat="39.58758179" lon="-6.42321179"><ele>1625</ele><speed>4.50</speed><time>2016-06-21T16:12:24Z</time><pdop>3.0</pdop><geoidheight>54.00</geoidheight><course>172.6</course><type>1</type></trkpt>
      <trkpt lat="39.58749849" lon="-6.42325459"><ele>1630</ele><speed>5.00</speed><time>2016-06-21T16:12:26Z</time><pdop>3.0</pdop><geoidheight>54.00</geoidheight><course>203.7</course><type>1</type></trkpt>
      <trkpt lat="39.58746247" lon="-6.42339948"><ele>1632</ele><speed>6.25</speed><time>2016-06-21T16:12:28Z</time><pdop>3.0</pdop><geoidheight>54.00</geoidheight><course>249.2</course><type>1</type></trkpt>
      <trkpt lat="39.58745527" lon="-6.42348942"><ele>1633</ele><speed>8.00</speed><time>2016-06-21T16:12:29Z</time><pdop>3.0</pdop><geoidheight>54.00</geoidheight><course>259.5</course><type>1</type></trkpt>
      <trkpt lat="39.58747327" lon="-6.42372435"><ele>1635</ele><speed>11.00</speed><time>2016-06-21T16:12:31Z</time><pdop>4.0</pdop><geoidheight>54.00</geoidheight><course>281.2</course><type>1</type></trkpt>
      <trkpt lat="39.58761506" lon="-6.42395279"><ele>1639</ele><speed>13.00</speed><time>2016-06-21T16:12:33Z</time><pdop>3.0</pdop><geoidheight>54.00</geoidheight><course>313.7</course><type>1</type></trkpt>
      <trkpt lat="39.58783597" lon="-6.42406794"><ele>1642</ele><speed>13.00</speed><time>2016-06-21T16:12:35Z</time><pdop>3.0</pdop><geoidheight>54.00</geoidheight><course>343.6</course><type>1</type></trkpt>
      <trkpt lat="39.58808984" lon="-6.42406346"><ele>1646</ele><speed>14.00</speed><time>2016-06-21T16:12:37Z</time><pdop>4.0</pdop><geoidheight>54.00</geoidheight><course>359.8</course><type>1</type></trkpt>
      <trkpt lat="39.58826363" lon="-6.4239078"><ele>1653</ele><speed>11.75</speed><time>2016-06-21T16:12:39Z</time><pdop>3.0</pdop><geoidheight>54.00</geoidheight><course>34.2</course><type>1</type></trkpt>
      <trkpt lat="39.58832728" lon="-6.42381728"><ele>1655</ele><speed>10.50</speed><time>2016-06-21T16:12:40Z</time><pdop>3.0</pdop><geoidheight>54.00</geoidheight><course>46.8</course><type>1</type></trkpt>
      <trkpt lat="39.58839088" lon="-6.42365351"><ele>1659</ele><speed>7.25</speed><time>2016-06-21T16:12:42Z</time><pdop>3.0</pdop><geoidheight>54.00</geoidheight><course>66.0</course><type>1</type></trkpt>
      <trkpt lat="39.58833837" lon="-6.42346727"><ele>1662</ele><speed>5.50</speed><time>2016-06-21T16:12:45Z</time><pdop>3.0</pdop><geoidheight>54.00</geoidheight><course>128.7</course><type>1</type></trkpt>
      <trkpt lat="39.58823312" lon="-6.42345014"><ele>1668</ele><speed>3.50</speed><time>2016-06-21T16:12:48Z</time><pdop>3.0</pdop><geoidheight>54.00</geoidheight><course>185.9</course><type>1</type></trkpt>
      <trkpt lat="39.58817391" lon="-6.42348832"><ele>1669</ele><speed>3.75</speed><time>2016-06-21T16:12:50Z</time><pdop>3.0</pdop><geoidheight>54.00</geoidheight><course>208.4</course><type>1</type></trkpt>
      <trkpt lat="39.58805242" lon="-6.42366192"><ele>1671</ele><speed>8.00</speed><time>2016-06-21T16:12:53Z</time><pdop>3.0</pdop><geoidheight>54.00</geoidheight><course>235.2</course><type>1</type></trkpt>
      <trkpt lat="39.58802737" lon="-6.42376852"><ele>1673</ele><speed>9.50</speed><time>2016-06-21T16:12:54Z</time><pdop>3.0</pdop><geoidheight>54.00</geoidheight><course>249.9</course><type>1</type></trkpt>
      <trkpt lat="39.58802853" lon="-6.42400421"><ele>1677</ele><speed>10.25</speed><time>2016-06-21T16:12:56Z</time><pdop>3.0</pdop><geoidheight>54.00</geoidheight><course>272.7</course><type>1</type></trkpt>
      <trkpt lat="39.58803295" lon="-6.42412407"><ele>1679</ele><speed>10.25</speed><time>2016-06-21T16:12:57Z</time><pdop>5.0</pdop><geoidheight>54.00</geoidheight><course>272.7</course><type>1</type></trkpt>
      <trkpt lat="39.58811074" lon="-6.42437118"><ele>1680</ele><speed>11.75</speed><time>2016-06-21T16:12:59Z</time><pdop>4.0</pdop><geoidheight>54.00</geoidheight><course>290.5</course><type>1</type></trkpt>
      <trkpt lat="39.588175" lon="-6.42450066"><ele>1681</ele><speed>13.00</speed><time>2016-06-21T16:13:00Z</time><pdop>4.0</pdop><geoidheight>54.00</geoidheight><course>299.7</course><type>1</type></trkpt>
      <trkpt lat="39.58826554" lon="-6.42460299"><ele>1682</ele><speed>13.75</speed><time>2016-06-21T16:13:01Z</time><pdop>4.0</pdop><geoidheight>54.00</geoidheight><course>311.1</course><type>1</type></trkpt>
      <trkpt lat="39.58848582" lon="-6.42472024"><ele>1686</ele><speed>13.25</speed><time>2016-06-21T16:13:03Z</time><pdop>3.0</pdop><geoidheight>54.00</geoidheight><course>338.6</course><type>1</type></trkpt>
      <trkpt lat="39.5887117" lon="-6.42478584"><ele>1534</ele><speed>12.75</speed><time>2016-06-21T16:13:05Z</time><pdop>5.0</pdop><geoidheight>54.00</geoidheight><course>347.2</course><type>1</type></trkpt>
      <trkpt lat="39.58882018" lon="-6.42475967"><ele>1631</ele><speed>12.00</speed><time>2016-06-21T16:13:06Z</time><pdop>3.0</pdop><geoidheight>54.00</geoidheight><course>359.3</course><type>1</type></trkpt>
      <trkpt lat="39.58903176" lon="-6.42470317"><ele>1632</ele><speed>12.00</speed><time>2016-06-21T16:13:08Z</time><pdop>3.0</pdop><geoidheight>54.00</geoidheight><course>13.8</course><type>1</type></trkpt>
      <trkpt lat="39.58913606" lon="-6.42467007"><ele>1634</ele><speed>12.00</speed><time>2016-06-21T16:13:09Z</time><pdop>5.0</pdop><geoidheight>54.00</geoidheight><course>13.8</course><type>1</type></trkpt>
      <trkpt lat="39.58921996" lon="-6.42458706"><ele>1676</ele><speed>11.00</speed><time>2016-06-21T16:13:10Z</time><pdop>3.0</pdop><geoidheight>54.00</geoidheight><course>29.9</course><type>1</type></trkpt>
      <trkpt lat="39.5893204" lon="-6.42444865"><ele>1693</ele><speed>7.50</speed><time>2016-06-21T16:13:12Z</time><pdop>3.0</pdop><geoidheight>54.00</geoidheight><course>52.3</course><type>1</type></trkpt>
      <trkpt lat="39.58935642" lon="-6.42430439"><ele>1701</ele><speed>6.25</speed><time>2016-06-21T16:13:14Z</time><pdop>3.0</pdop><geoidheight>54.00</geoidheight><course>77.1</course><type>1</type></trkpt>
      <trkpt lat="39.58934125" lon="-6.42422192"><ele>1708</ele><speed>3.25</speed><time>2016-06-21T16:13:16Z</time><pdop>3.0</pdop><geoidheight>54.00</geoidheight><course>116.7</course><type>1</type></trkpt>
      <trkpt lat="39.58928026" lon="-6.424228"><ele>1697</ele><speed>3.75</speed><time>2016-06-21T16:13:18Z</time><pdop>3.0</pdop><geoidheight>54.00</geoidheight><course>197.2</course><type>1</type></trkpt>
      <trkpt lat="39.58918321" lon="-6.42435405"><ele>1635</ele><speed>5.50</speed><time>2016-06-21T16:13:21Z</time><pdop>5.0</pdop><geoidheight>54.00</geoidheight><course>217.8</course><type>1</type></trkpt>
      <trkpt lat="39.58919795" lon="-6.42448224"><ele>1665</ele><speed>8.25</speed><time>2016-06-21T16:13:22Z</time><pdop>4.0</pdop><geoidheight>54.00</geoidheight><course>258.6</course><type>1</type></trkpt>
      <trkpt lat="39.58920757" lon="-6.42471151"><ele>1685</ele><speed>10.00</speed><time>2016-06-21T16:13:24Z</time><pdop>5.0</pdop><geoidheight>54.00</geoidheight><course>271.5</course><type>1</type></trkpt>
      <trkpt lat="39.58925119" lon="-6.42487628"><ele>1698</ele><speed>12.00</speed><time>2016-06-21T16:13:25Z</time><pdop>5.0</pdop><geoidheight>54.00</geoidheight><course>281.0</course><type>1</type></trkpt>
      <trkpt lat="39.58936527" lon="-6.4249962"><ele>1715</ele><speed>12.75</speed><time>2016-06-21T16:13:26Z</time><pdop>3.0</pdop><geoidheight>54.00</geoidheight><course>308.7</course><type>1</type></trkpt>
      <trkpt lat="39.58946187" lon="-6.42507262"><ele>1721</ele><speed>12.25</speed><time>2016-06-21T16:13:27Z</time><pdop>3.0</pdop><geoidheight>54.00</geoidheight><course>324.2</course><type>1</type></trkpt>
      <trkpt lat="39.58966767" lon="-6.42513122"><ele>1729</ele><speed>12.25</speed><time>2016-06-21T16:13:29Z</time><pdop>3.0</pdop><geoidheight>54.00</geoidheight><course>354.3</course><type>1</type></trkpt>
      <trkpt lat="39.58977877" lon="-6.42510597"><ele>1733</ele><speed>12.50</speed><time>2016-06-21T16:13:30Z</time><pdop>3.0</pdop><geoidheight>54.00</geoidheight><course>8.2</course><type>1</type></trkpt>
      <trkpt lat="39.58988017" lon="-6.42505074"><ele>1595</ele><speed>12.25</speed><time>2016-06-21T16:13:31Z</time><pdop>3.0</pdop><geoidheight>54.00</geoidheight><course>21.1</course><type>1</type></trkpt>
      <trkpt lat="39.59004459" lon="-6.42490924"><ele>1658</ele><speed>11.00</speed><time>2016-06-21T16:13:33Z</time><pdop>5.0</pdop><geoidheight>54.00</geoidheight><course>32.9</course><type>1</type></trkpt>
      <trkpt lat="39.59004894" lon="-6.42476544"><ele>1721</ele><speed>5.50</speed><time>2016-06-21T16:13:35Z</time><pdop>3.0</pdop><geoidheight>54.00</geoidheight><course>80.6</course><type>1</type></trkpt>
      <trkpt lat="39.59002854" lon="-6.42468184"><ele>1739</ele><speed>3.50</speed><time>2016-06-21T16:13:37Z</time><pdop>3.0</pdop><geoidheight>54.00</geoidheight><course>116.2</course><type>1</type></trkpt>
      <trkpt lat="39.58993087" lon="-6.42470256"><ele>1753</ele><speed>5.00</speed><time>2016-06-21T16:13:40Z</time><pdop>3.0</pdop><geoidheight>54.00</geoidheight><course>207.0</course><type>1</type></trkpt>
      <trkpt lat="39.58989577" lon="-6.42476112"><ele>1757</ele><speed>6.25</speed><time>2016-06-21T16:13:41Z</time><pdop>3.0</pdop><geoidheight>54.00</geoidheight><course>228.7</course><type>1</type></trkpt>
      <trkpt lat="39.58987462" lon="-6.42484885"><ele>1761</ele><speed>7.75</speed><time>2016-06-21T16:13:42Z</time><pdop>3.0</pdop><geoidheight>54.00</geoidheight><course>248.0</course><type>1</type></trkpt>
      <trkpt lat="39.58986418" lon="-6.42495914"><ele>1764</ele><speed>9.50</speed><time>2016-06-21T16:13:43Z</time><pdop>3.0</pdop><geoidheight>54.00</geoidheight><course>260.8</course><type>1</type></trkpt>
      <trkpt lat="39.58987721" lon="-6.42520132"><ele>1772</ele><speed>10.25</speed><time>2016-06-21T16:13:45Z</time><pdop>4.0</pdop><geoidheight>54.00</geoidheight><course>273.3</course><type>1</type></trkpt>
      <trkpt lat="39.58996252" lon="-6.42530474"><ele>1776</ele><speed>11.25</speed><time>2016-06-21T16:13:46Z</time><pdop>3.0</pdop><geoidheight>54.00</geoidheight><course>303.0</course><type>1</type></trkpt>
      <trkpt lat="39.59002783" lon="-6.42541247"><ele>1777</ele><speed>11.75</speed><time>2016-06-21T16:13:47Z</time><pdop>4.0</pdop><geoidheight>54.00</geoidheight><course>307.1</course><type>1</type></trkpt>
      <trkpt lat="39.5902296" lon="-6.42552046"><ele>1782</ele><speed>12.00</speed><time>2016-06-21T16:13:49Z</time><pdop>3.0</pdop><geoidheight>54.00</geoidheight><course>338.6</course><type>1</type></trkpt>
      <trkpt lat="39.59033427" lon="-6.42555156"><ele>1633</ele><speed>12.00</speed><time>2016-06-21T16:13:50Z</time><pdop>3.0</pdop><geoidheight>54.00</geoidheight><course>346.5</course><type>1</type></trkpt>
      <trkpt lat="39.59043928" lon="-6.42558423"><ele>1634</ele><speed>12.00</speed><time>2016-06-21T16:13:51Z</time><pdop>5.0</pdop><geoidheight>54.00</geoidheight><course>346.5</course><type>1</type></trkpt>
      <trkpt lat="39.59056053" lon="-6.4255343"><ele>1725</ele><speed>12.50</speed><time>2016-06-21T16:13:52Z</time><pdop>3.0</pdop><geoidheight>54.00</geoidheight><course>7.2</course><type>1</type></trkpt>
      <trkpt lat="39.59067209" lon="-6.42551614"><ele>1726</ele><speed>12.50</speed><time>2016-06-21T16:13:53Z</time><pdop>5.0</pdop><geoidheight>54.00</geoidheight><course>7.2</course><type>1</type></trkpt>
      <trkpt lat="39.59077071" lon="-6.4254179"><ele>1758</ele><speed>12.50</speed><time>2016-06-21T16:13:54Z</time><pdop>5.0</pdop><geoidheight>54.00</geoidheight><course>23.5</course><type>1</type></trkpt>
      <trkpt lat="39.5908426" lon="-6.42523222"><ele>1772</ele><speed>9.25</speed><time>2016-06-21T16:13:56Z</time><pdop>5.0</pdop><geoidheight>54.00</geoidheight><course>52.1</course><type>1</type></trkpt>
      <trkpt lat="39.590777" lon="-6.42513718"><ele>1786</ele><speed>4.50</speed><time>2016-06-21T16:13:58Z</time><pdop>3.0</pdop><geoidheight>54.00</geoidheight><course>118.0</course><type>1</type></trkpt>
      <trkpt lat="39.59071173" lon="-6.42510374"><ele>1793</ele><speed>4.25</speed><time>2016-06-21T16:14:00Z</time><pdop>3.0</pdop><geoidheight>54.00</geoidheight><course>174.5</course><type>1</type></trkpt>
      <trkpt lat="39.59066688" lon="-6.4251481"><ele>1795</ele><speed>6.00</speed><time>2016-06-21T16:14:01Z</time><pdop>3.0</pdop><geoidheight>54.00</geoidheight><course>214.6</course><type>1</type></trkpt>
      <trkpt lat="39.59060302" lon="-6.42536339"><ele>1802</ele><speed>10.25</speed><time>2016-06-21T16:14:03Z</time><pdop>3.0</pdop><geoidheight>54.00</geoidheight><course>254.7</course><type>1</type></trkpt>
      <trkpt lat="39.59066082" lon="-6.42559393"><ele>1811</ele><speed>10.75</speed><time>2016-06-21T16:14:05Z</time><pdop>3.0</pdop><geoidheight>54.00</geoidheight><course>294.7</course><type>1</type></trkpt>
      <trkpt lat="39.59077718" lon="-6.42579187"><ele>1815</ele><speed>10.75</speed><time>2016-06-21T16:14:07Z</time><pdop>6.0</pdop><geoidheight>54.00</geoidheight><course>306.6</course><type>1</type></trkpt>
      <trkpt lat="39.59096626" lon="-6.42590577"><ele>1816</ele><speed>11.50</speed><time>2016-06-21T16:14:09Z</time><pdop>4.0</pdop><geoidheight>54.00</geoidheight><course>334.7</course><type>1</type></trkpt>
      <trkpt lat="39.59121597" lon="-6.42594478"><ele>1820</ele><speed>13.25</speed><time>2016-06-21T16:14:11Z</time><pdop>5.0</pdop><geoidheight>54.00</geoidheight><course>349.9</course><type>1</type></trkpt>
      <trkpt lat="39.59133767" lon="-6.42588022"><ele>1821</ele><speed>13.00</speed><time>2016-06-21T16:14:12Z</time><pdop>5.0</pdop><geoidheight>54.00</geoidheight><course>6.0</course><type>1</type></trkpt>
      <trkpt lat="39.59138177" lon="-6.42573793"><ele>1822</ele><speed>11.00</speed><time>2016-06-21T16:14:13Z</time><pdop>3.0</pdop><geoidheight>54.00</geoidheight><course>43.4</course><type>1</type></trkpt>
      <trkpt lat="39.59144741" lon="-6.42554152"><ele>1828</ele><speed>8.50</speed><time>2016-06-21T16:14:15Z</time><pdop>3.0</pdop><geoidheight>54.00</geoidheight><course>72.4</course><type>1</type></trkpt>
      <trkpt lat="39.59147083" lon="-6.42544588"><ele>1831</ele><speed>8.50</speed><time>2016-06-21T16:14:16Z</time><pdop>5.0</pdop><geoidheight>54.00</geoidheight><course>72.4</course><type>1</type></trkpt>
      <trkpt lat="39.59134823" lon="-6.42536932"><ele>1838</ele><speed>5.00</speed><time>2016-06-21T16:14:19Z</time><pdop>3.0</pdop><geoidheight>54.00</geoidheight><course>170.2</course><type>1</type></trkpt>
      <trkpt lat="39.59123966" lon="-6.4254499"><ele>1842</ele><speed>7.50</speed><time>2016-06-21T16:14:21Z</time><pdop>3.0</pdop><geoidheight>54.00</geoidheight><course>218.1</course><type>1</type></trkpt>
      <trkpt lat="39.59117872" lon="-6.42565136"><ele>1850</ele><speed>9.75</speed><time>2016-06-21T16:14:23Z</time><pdop>3.0</pdop><geoidheight>54.00</geoidheight><course>253.3</course><type>1</type></trkpt>
      <trkpt lat="39.59120085" lon="-6.42587385"><ele>1856</ele><speed>9.50</speed><time>2016-06-21T16:14:25Z</time><pdop>3.0</pdop><geoidheight>54.00</geoidheight><course>283.0</course><type>1</type></trkpt>
      <trkpt lat="39.59122004" lon="-6.42598107"><ele>1859</ele><speed>9.50</speed><time>2016-06-21T16:14:26Z</time><pdop>5.0</pdop><geoidheight>54.00</geoidheight><course>283.0</course><type>1</type></trkpt>
      <trkpt lat="39.59130252" lon="-6.42606724"><ele>1859</ele><speed>10.50</speed><time>2016-06-21T16:14:27Z</time><pdop>3.0</pdop><geoidheight>54.00</geoidheight><course>307.5</course><type>1</type></trkpt>
      <trkpt lat="39.59148761" lon="-6.42621881"><ele>1861</ele><speed>12.75</speed><time>2016-06-21T16:14:29Z</time><pdop>3.0</pdop><geoidheight>54.00</geoidheight><course>332.1</course><type>1</type></trkpt>
      <trkpt lat="39.59158843" lon="-6.42628789"><ele>1862</ele><speed>12.75</speed><time>2016-06-21T16:14:30Z</time><pdop>5.0</pdop><geoidheight>54.00</geoidheight><course>332.1</course><type>1</type></trkpt>
      <trkpt lat="39.59182485" lon="-6.42621379"><ele>1866</ele><speed>11.75</speed><time>2016-06-21T16:14:32Z</time><pdop>3.0</pdop><geoidheight>54.00</geoidheight><course>11.5</course><type>1</type></trkpt>
      <trkpt lat="39.59191186" lon="-6.4261636"><ele>1759</ele><speed>10.50</speed><time>2016-06-21T16:14:33Z</time><pdop>3.0</pdop><geoidheight>54.00</geoidheight><course>23.7</course><type>1</type></trkpt>
      <trkpt lat="39.59198571" lon="-6.42609865"><ele>1804</ele><speed>9.75</speed><time>2016-06-21T16:14:34Z</time><pdop>3.0</pdop><geoidheight>54.00</geoidheight><course>33.0</course><type>1</type></trkpt>
      <trkpt lat="39.59211487" lon="-6.42594911"><ele>1845</ele><speed>9.50</speed><time>2016-06-21T16:14:36Z</time><pdop>3.0</pdop><geoidheight>54.00</geoidheight><course>44.6</course><type>1</type></trkpt>
      <trkpt lat="39.59216445" lon="-6.42585978"><ele>1857</ele><speed>9.00</speed><time>2016-06-21T16:14:37Z</time><pdop>3.0</pdop><geoidheight>54.00</geoidheight><course>54.1</course><type>1</type></trkpt>
      <trkpt lat="39.59218978" lon="-6.4257801"><ele>1865</ele><speed>7.50</speed><time>2016-06-21T16:14:38Z</time><pdop>3.0</pdop><geoidheight>54.00</geoidheight><course>67.5</course><type>1</type></trkpt>
      <trkpt lat="39.59216615" lon="-6.42566828"><ele>1874</ele><speed>5.00</speed><time>2016-06-21T16:14:40Z</time><pdop>3.0</pdop><geoidheight>54.00</geoidheight><course>115.6</course><type>1</type></trkpt>
      <trkpt lat="39.59212411" lon="-6.4256204"><ele>1877</ele><speed>6.00</speed><time>2016-06-21T16:14:41Z</time><pdop>3.0</pdop><geoidheight>54.00</geoidheight><course>137.2</course><type>1</type></trkpt>
      <trkpt lat="39.5920647" lon="-6.4255854"><ele>1880</ele><speed>7.25</speed><time>2016-06-21T16:14:42Z</time><pdop>3.0</pdop><geoidheight>54.00</geoidheight><course>153.8</course><type>1</type></trkpt>
      <trkpt lat="39.59192204" lon="-6.42560246"><ele>1887</ele><speed>8.50</speed><time>2016-06-21T16:14:44Z</time><pdop>3.0</pdop><geoidheight>54.00</geoidheight><course>194.1</course><type>1</type></trkpt>
      <trkpt lat="39.59185697" lon="-6.4256443"><ele>1890</ele><speed>8.25</speed><time>2016-06-21T16:14:45Z</time><pdop>4.0</pdop><geoidheight>54.00</geoidheight><course>205.4</course><type>1</type></trkpt>
      <trkpt lat="39.59177242" lon="-6.42580421"><ele>1901</ele><speed>5.00</speed><time>2016-06-21T16:14:48Z</time><pdop>3.0</pdop><geoidheight>54.00</geoidheight><course>252.2</course><type>1</type></trkpt>
      <trkpt lat="39.59176605" lon="-6.42587578"><ele>1903</ele><speed>6.00</speed><time>2016-06-21T16:14:49Z</time><pdop>3.0</pdop><geoidheight>54.00</geoidheight><course>262.3</course><type>1</type></trkpt>
      <trkpt lat="39.59176648" lon="-6.42605608"><ele>1904</ele><speed>8.50</speed><time>2016-06-21T16:14:51Z</time><pdop>4.0</pdop><geoidheight>54.00</geoidheight><course>274.0</course><type>1</type></trkpt>
      <trkpt lat="39.59180064" lon="-6.42616582"><ele>1783</ele><speed>10.25</speed><time>2016-06-21T16:14:52Z</time><pdop>3.0</pdop><geoidheight>54.00</geoidheight><course>290.3</course><type>1</type></trkpt>
      <trkpt lat="39.59182967" lon="-6.42627563"><ele>1832</ele><speed>10.00</speed><time>2016-06-21T16:14:53Z</time><pdop>4.0</pdop><geoidheight>54.00</geoidheight><course>287.9</course><type>1</type></trkpt>
      <trkpt lat="39.59188778" lon="-6.42639077"><ele>1858</ele><speed>11.00</speed><time>2016-06-21T16:14:54Z</time><pdop>5.0</pdop><geoidheight>54.00</geoidheight><course>295.4</course><type>1</type></trkpt>
      <trkpt lat="39.59200497" lon="-6.4264236"><ele>1873</ele><speed>10.50</speed><time>2016-06-21T16:14:55Z</time><pdop>5.0</pdop><geoidheight>54.00</geoidheight><course>321.6</course><type>1</type></trkpt>
      <trkpt lat="39.59216223" lon="-6.42634531"><ele>1884</ele><speed>11.75</speed><time>2016-06-21T16:14:56Z</time><pdop>3.0</pdop><geoidheight>54.00</geoidheight><course>2.8</course><type>1</type></trkpt>
      <trkpt lat="39.59225862" lon="-6.42632327"><ele>1892</ele><speed>11.00</speed><time>2016-06-21T16:14:57Z</time><pdop>3.0</pdop><geoidheight>54.00</geoidheight><course>11.8</course><type>1</type></trkpt>
      <trkpt lat="39.59246152" lon="-6.42624606"><ele>1879</ele><speed>12.00</speed><time>2016-06-21T16:14:59Z</time><pdop>3.0</pdop><geoidheight>54.00</geoidheight><course>16.5</course><type>1</type></trkpt>
      <trkpt lat="39.5925744" lon="-6.42620319"><ele>1896</ele><speed>12.75</speed><time>2016-06-21T16:15:00Z</time><pdop>3.0</pdop><geoidheight>54.00</geoidheight><course>16.3</course><type>1</type></trkpt>
      <trkpt lat="39.59279181" lon="-6.42610955"><ele>1915</ele><speed>12.25</speed><time>2016-06-21T16:15:02Z</time><pdop>3.0</pdop><geoidheight>54.00</geoidheight><course>19.4</course><type>1</type></trkpt>
      <trkpt lat="39.59287982" lon="-6.42604993"><ele>1922</ele><speed>10.75</speed><time>2016-06-21T16:15:03Z</time><pdop>3.0</pdop><geoidheight>54.00</geoidheight><course>26.5</course><type>1</type></trkpt>
      <trkpt lat="39.59293884" lon="-6.42598865"><ele>1926</ele><speed>8.50</speed><time>2016-06-21T16:15:04Z</time><pdop>3.0</pdop><geoidheight>54.00</geoidheight><course>36.9</course><type>1</type></trkpt>
      <trkpt lat="39.59297633" lon="-6.42592664"><ele>1928</ele><speed>6.75</speed><time>2016-06-21T16:15:05Z</time><pdop>3.0</pdop><geoidheight>54.00</geoidheight><course>51.8</course><type>1</type></trkpt>
      <trkpt lat="39.59300294" lon="-6.42586519"><ele>1928</ele><speed>6.00</speed><time>2016-06-21T16:15:06Z</time><pdop>3.0</pdop><geoidheight>54.00</geoidheight><course>60.3</course><type>1</type></trkpt>
      <trkpt lat="39.59302479" lon="-6.42579958"><ele>1927</ele><speed>6.25</speed><time>2016-06-21T16:15:07Z</time><pdop>3.0</pdop><geoidheight>54.00</geoidheight><course>65.0</course><type>1</type></trkpt>
      <trkpt lat="39.59304885" lon="-6.42572042"><ele>1926</ele><speed>7.00</speed><time>2016-06-21T16:15:08Z</time><pdop>3.0</pdop><geoidheight>54.00</geoidheight><course>73.9</course><type>1</type></trkpt>
      <trkpt lat="39.59304373" lon="-6.42562994"><ele>1924</ele><speed>7.75</speed><time>2016-06-21T16:15:09Z</time><pdop>3.0</pdop><geoidheight>54.00</geoidheight><course>94.5</course><type>1</type></trkpt>
      <trkpt lat="39.59294819" lon="-6.42550112"><ele>1922</ele><speed>7.75</speed><time>2016-06-21T16:15:11Z</time><pdop>3.0</pdop><geoidheight>54.00</geoidheight><course>146.1</course><type>1</type></trkpt>
      <trkpt lat="39.59289234" lon="-6.42548853"><ele>1921</ele><speed>6.75</speed><time>2016-06-21T16:15:12Z</time><pdop>3.0</pdop><geoidheight>54.00</geoidheight><course>169.7</course><type>1</type></trkpt>
      <trkpt lat="39.59273098" lon="-6.42553541"><ele>1917</ele><speed>6.50</speed><time>2016-06-21T16:15:15Z</time><pdop>4.0</pdop><geoidheight>54.00</geoidheight><course>190.8</course><type>1</type></trkpt>
      <trkpt lat="39.59266369" lon="-6.4255548"><ele>1914</ele><speed>7.75</speed><time>2016-06-21T16:15:16Z</time><pdop>3.0</pdop><geoidheight>54.00</geoidheight><course>190.4</course><type>1</type></trkpt>
      <trkpt lat="39.59250163" lon="-6.42556286"><ele>1917</ele><speed>9.50</speed><time>2016-06-21T16:15:18Z</time><pdop>4.0</pdop><geoidheight>54.00</geoidheight><course>181.0</course><type>1</type></trkpt>
      <trkpt lat="39.59241693" lon="-6.42556481"><ele>1917</ele><speed>9.50</speed><time>2016-06-21T16:15:19Z</time><pdop>5.0</pdop><geoidheight>54.00</geoidheight><course>181.0</course><type>1</type></trkpt>
      <trkpt lat="39.592277" lon="-6.42554097"><ele>1914</ele><speed>8.00</speed><time>2016-06-21T16:15:21Z</time><pdop>3.0</pdop><geoidheight>54.00</geoidheight><course>167.8</course><type>1</type></trkpt>
      <trkpt lat="39.59221546" lon="-6.42551454"><ele>1913</ele><speed>7.50</speed><time>2016-06-21T16:15:22Z</time><pdop>3.0</pdop><geoidheight>54.00</geoidheight><course>162.1</course><type>1</type></trkpt>
      <trkpt lat="39.59215116" lon="-6.42548457"><ele>1911</ele><speed>7.50</speed><time>2016-06-21T16:15:23Z</time><pdop>3.0</pdop><geoidheight>54.00</geoidheight><course>159.4</course><type>1</type></trkpt>
      <trkpt lat="39.59200412" lon="-6.4254174"><ele>1908</ele><speed>9.00</speed><time>2016-06-21T16:15:25Z</time><pdop>3.0</pdop><geoidheight>54.00</geoidheight><course>163.6</course><type>1</type></trkpt>
      <trkpt lat="39.59185923" lon="-6.42542896"><ele>1906</ele><speed>7.75</speed><time>2016-06-21T16:15:27Z</time><pdop>3.0</pdop><geoidheight>54.00</geoidheight><course>188.0</course><type>1</type></trkpt>
      <trkpt lat="39.59181078" lon="-6.42546395"><ele>1904</ele><speed>6.25</speed><time>2016-06-21T16:15:28Z</time><pdop>3.0</pdop><geoidheight>54.00</geoidheight><course>204.7</course><type>1</type></trkpt>
      <trkpt lat="39.59180439" lon="-6.42570458"><ele>1894</ele><speed>9.00</speed><time>2016-06-21T16:15:31Z</time><pdop>3.0</pdop><geoidheight>54.00</geoidheight><course>286.1</course><type>1</type></trkpt>
      <trkpt lat="39.59186302" lon="-6.42579968"><ele>1891</ele><speed>10.25</speed><time>2016-06-21T16:15:32Z</time><pdop>3.0</pdop><geoidheight>54.00</geoidheight><course>307.5</course><type>1</type></trkpt>
      <trkpt lat="39.5919423" lon="-6.42586662"><ele>1890</ele><speed>10.75</speed><time>2016-06-21T16:15:33Z</time><pdop>3.0</pdop><geoidheight>54.00</geoidheight><course>325.9</course><type>1</type></trkpt>
      <trkpt lat="39.59202555" lon="-6.42591004"><ele>1891</ele><speed>9.75</speed><time>2016-06-21T16:15:34Z</time><pdop>3.0</pdop><geoidheight>54.00</geoidheight><course>338.1</course><type>1</type></trkpt>
      <trkpt lat="39.59217095" lon="-6.42595331"><ele>1891</ele><speed>8.00</speed><time>2016-06-21T16:15:36Z</time><pdop>3.0</pdop><geoidheight>54.00</geoidheight><course>346.0</course><type>1</type></trkpt>
      <trkpt lat="39.59224964" lon="-6.42598089"><ele>1890</ele><speed>9.00</speed><time>2016-06-21T16:15:37Z</time><pdop>3.0</pdop><geoidheight>54.00</geoidheight><course>345.9</course><type>1</type></trkpt>
      <trkpt lat="39.59241639" lon="-6.42600275"><ele>1888</ele><speed>9.25</speed><time>2016-06-21T16:15:39Z</time><pdop>3.0</pdop><geoidheight>54.00</geoidheight><course>358.5</course><type>1</type></trkpt>
      <trkpt lat="39.59249632" lon="-6.42598835"><ele>1887</ele><speed>9.00</speed><time>2016-06-21T16:15:40Z</time><pdop>3.0</pdop><geoidheight>54.00</geoidheight><course>6.6</course><type>1</type></trkpt>
      <trkpt lat="39.59257375" lon="-6.42596783"><ele>1886</ele><speed>9.00</speed><time>2016-06-21T16:15:41Z</time><pdop>3.0</pdop><geoidheight>54.00</geoidheight><course>11.1</course><type>1</type></trkpt>
      <trkpt lat="39.5926473" lon="-6.42595018"><ele>1884</ele><speed>8.50</speed><time>2016-06-21T16:15:42Z</time><pdop>3.0</pdop><geoidheight>54.00</geoidheight><course>11.7</course><type>1</type></trkpt>
      <trkpt lat="39.59277263" lon="-6.42593917"><ele>1883</ele><speed>7.00</speed><time>2016-06-21T16:15:44Z</time><pdop>4.0</pdop><geoidheight>54.00</geoidheight><course>359.1</course><type>1</type></trkpt>
      <trkpt lat="39.59283991" lon="-6.42595071"><ele>1880</ele><speed>7.25</speed><time>2016-06-21T16:15:45Z</time><pdop>3.0</pdop><geoidheight>54.00</geoidheight><course>352.1</course><type>1</type></trkpt>
      <trkpt lat="39.59299537" lon="-6.42598216"><ele>1872</ele><speed>9.25</speed><time>2016-06-21T16:15:47Z</time><pdop>3.0</pdop><geoidheight>54.00</geoidheight><course>351.4</course><type>1</type></trkpt>
      <trkpt lat="39.59308235" lon="-6.42599029"><ele>1871</ele><speed>9.50</speed><time>2016-06-21T16:15:48Z</time><pdop>3.0</pdop><geoidheight>54.00</geoidheight><course>354.9</course><type>1</type></trkpt>
      <trkpt lat="39.59315987" lon="-6.42599557"><ele>1870</ele><speed>9.00</speed><time>2016-06-21T16:15:49Z</time><pdop>3.0</pdop><geoidheight>54.00</geoidheight><course>356.5</course><type>1</type></trkpt>
      <trkpt lat="39.59327983" lon="-6.42601461"><ele>1867</ele><speed>6.25</speed><time>2016-06-21T16:15:51Z</time><pdop>3.0</pdop><geoidheight>54.00</geoidheight><course>352.9</course><type>1</type></trkpt>
      <trkpt lat="39.59333405" lon="-6.42601639"><ele>1864</ele><speed>6.25</speed><time>2016-06-21T16:15:52Z</time><pdop>3.0</pdop><geoidheight>54.00</geoidheight><course>359.6</course><type>1</type></trkpt>
      <trkpt lat="39.59346077" lon="-6.42591118"><ele>1855</ele><speed>9.75</speed><time>2016-06-21T16:15:54Z</time><pdop>3.0</pdop><geoidheight>54.00</geoidheight><course>39.8</course><type>1</type></trkpt>
      <trkpt lat="39.59352841" lon="-6.42583832"><ele>1852</ele><speed>9.75</speed><time>2016-06-21T16:15:55Z</time><pdop>5.0</pdop><geoidheight>54.00</geoidheight><course>39.8</course><type>1</type></trkpt>
      <trkpt lat="39.59359435" lon="-6.42570638"><ele>1854</ele><speed>11.50</speed><time>2016-06-21T16:15:56Z</time><pdop>4.0</pdop><geoidheight>54.00</geoidheight><course>48.3</course><type>1</type></trkpt>
      <trkpt lat="39.59370606" lon="-6.42557088"><ele>1858</ele><speed>8.00</speed><time>2016-06-21T16:15:58Z</time><pdop>3.0</pdop><geoidheight>54.00</geoidheight><course>42.7</course><type>1</type></trkpt>
      <trkpt lat="39.59381532" lon="-6.42545652"><ele>1862</ele><speed>8.25</speed><time>2016-06-21T16:16:00Z</time><pdop>3.0</pdop><geoidheight>54.00</geoidheight><course>37.4</course><type>1</type></trkpt>
      <trkpt lat="39.59387848" lon="-6.42540359"><ele>1863</ele><speed>8.50</speed><time>2016-06-21T16:16:01Z</time><pdop>3.0</pdop><geoidheight>54.00</geoidheight><course>32.3</course><type>1</type></trkpt>
      <trkpt lat="39.59395996" lon="-6.42536394"><ele>1864</ele><speed>9.50</speed><time>2016-06-21T16:16:02Z</time><pdop>3.0</pdop><geoidheight>54.00</geoidheight><course>21.1</course><type>1</type></trkpt>
      <trkpt lat="39.5940555" lon="-6.42533096"><ele>1865</ele><speed>10.75</speed><time>2016-06-21T16:16:03Z</time><pdop>3.0</pdop><geoidheight>54.00</geoidheight><course>15.1</course><type>1</type></trkpt>
      <trkpt lat="39.59415369" lon="-6.42529399"><ele>1869</ele><speed>11.25</speed><time>2016-06-21T16:16:04Z</time><pdop>3.0</pdop><geoidheight>54.00</geoidheight><course>16.1</course><type>1</type></trkpt>
      <trkpt lat="39.59432892" lon="-6.42517149"><ele>1871</ele><speed>11.00</speed><time>2016-06-21T16:16:06Z</time><pdop>3.0</pdop><geoidheight>54.00</geoidheight><course>30.7</course><type>1</type></trkpt>
      <trkpt lat="39.59441376" lon="-6.42511204"><ele>1870</ele><speed>10.75</speed><time>2016-06-21T16:16:07Z</time><pdop>3.0</pdop><geoidheight>54.00</geoidheight><course>30.3</course><type>1</type></trkpt>
      <trkpt lat="39.59461397" lon="-6.42502481"><ele>1864</ele><speed>12.25</speed><time>2016-06-21T16:16:09Z</time><pdop>3.0</pdop><geoidheight>54.00</geoidheight><course>16.7</course><type>1</type></trkpt>
      <trkpt lat="39.59472402" lon="-6.42497965"><ele>1862</ele><speed>12.50</speed><time>2016-06-21T16:16:10Z</time><pdop>4.0</pdop><geoidheight>54.00</geoidheight><course>17.1</course><type>1</type></trkpt>
      <trkpt lat="39.59483343" lon="-6.42492552"><ele>1859</ele><speed>12.75</speed><time>2016-06-21T16:16:11Z</time><pdop>3.0</pdop><geoidheight>54.00</geoidheight><course>20.6</course><type>1</type></trkpt>
      <trkpt lat="39.59504566" lon="-6.4248039"><ele>1852</ele><speed>13.00</speed><time>2016-06-21T16:16:13Z</time><pdop>3.0</pdop><geoidheight>54.00</geoidheight><course>23.7</course><type>1</type></trkpt>
      <trkpt lat="39.59515476" lon="-6.42474604"><ele>1850</ele><speed>13.25</speed><time>2016-06-21T16:16:14Z</time><pdop>3.0</pdop><geoidheight>54.00</geoidheight><course>21.8</course><type>1</type></trkpt>
      <trkpt lat="39.59526479" lon="-6.42470522"><ele>1848</ele><speed>12.75</speed><time>2016-06-21T16:16:15Z</time><pdop>3.0</pdop><geoidheight>54.00</geoidheight><course>17.7</course><type>1</type></trkpt>
      <trkpt lat="39.59546351" lon="-6.42463345"><ele>1845</ele><speed>11.25</speed><time>2016-06-21T16:16:17Z</time><pdop>3.0</pdop><geoidheight>54.00</geoidheight><course>15.4</course><type>1</type></trkpt>
      <trkpt lat="39.59555679" lon="-6.4245998"><ele>1843</ele><speed>10.75</speed><time>2016-06-21T16:16:18Z</time><pdop>3.0</pdop><geoidheight>54.00</geoidheight><course>15.5</course><type>1</type></trkpt>
      <trkpt lat="39.59564582" lon="-6.42457252"><ele>1841</ele><speed>10.50</speed><time>2016-06-21T16:16:19Z</time><pdop>3.0</pdop><geoidheight>54.00</geoidheight><course>14.1</course><type>1</type></trkpt>
      <trkpt lat="39.59582841" lon="-6.42451327"><ele>1846</ele><speed>10.75</speed><time>2016-06-21T16:16:21Z</time><pdop>3.0</pdop><geoidheight>54.00</geoidheight><course>14.3</course><type>1</type></trkpt>
      <trkpt lat="39.59592866" lon="-6.42447749"><ele>1838</ele><speed>11.75</speed><time>2016-06-21T16:16:22Z</time><pdop>3.0</pdop><geoidheight>54.00</geoidheight><course>16.0</course><type>1</type></trkpt>
      <trkpt lat="39.59603533" lon="-6.4244298"><ele>1833</ele><speed>12.50</speed><time>2016-06-21T16:16:23Z</time><pdop>4.0</pdop><geoidheight>54.00</geoidheight><course>19.4</course><type>1</type></trkpt>
      <trkpt lat="39.59613575" lon="-6.42437045"><ele>1830</ele><speed>12.25</speed><time>2016-06-21T16:16:24Z</time><pdop>3.0</pdop><geoidheight>54.00</geoidheight><course>23.1</course><type>1</type></trkpt>
      <trkpt lat="39.59622943" lon="-6.42431663"><ele>1829</ele><speed>11.25</speed><time>2016-06-21T16:16:25Z</time><pdop>3.0</pdop><geoidheight>54.00</geoidheight><course>24.0</course><type>1</type></trkpt>
      <trkpt lat="39.59631776" lon="-6.42427122"><ele>1828</ele><speed>10.25</speed><time>2016-06-21T16:16:26Z</time><pdop>3.0</pdop><geoidheight>54.00</geoidheight><course>21.6</course><type>1</type></trkpt>
      <trkpt lat="39.59640525" lon="-6.42423566"><ele>1826</ele><speed>9.75</speed><time>2016-06-21T16:16:27Z</time><pdop>3.0</pdop><geoidheight>54.00</geoidheight><course>16.9</course><type>1</type></trkpt>
      <trkpt lat="39.59658604" lon="-6.42416535"><ele>1821</ele><speed>10.75</speed><time>2016-06-21T16:16:29Z</time><pdop>3.0</pdop><geoidheight>54.00</geoidheight><course>19.9</course><type>1</type></trkpt>
      <trkpt lat="39.59667638" lon="-6.42410519"><ele>1819</ele><speed>11.25</speed><time>2016-06-21T16:16:30Z</time><pdop>3.0</pdop><geoidheight>54.00</geoidheight><course>25.4</course><type>1</type></trkpt>
      <trkpt lat="39.59685891" lon="-6.42396392"><ele>1815</ele><speed>11.75</speed><time>2016-06-21T16:16:32Z</time><pdop>3.0</pdop><geoidheight>54.00</geoidheight><course>30.7</course><type>1</type></trkpt>
      <trkpt lat="39.59706618" lon="-6.42383331"><ele>1820</ele><speed>13.25</speed><time>2016-06-21T16:16:34Z</time><pdop>3.0</pdop><geoidheight>54.00</geoidheight><course>24.3</course><type>1</type></trkpt>
      <trkpt lat="39.59717004" lon="-6.42377371"><ele>1816</ele><speed>13.00</speed><time>2016-06-21T16:16:35Z</time><pdop>3.0</pdop><geoidheight>54.00</geoidheight><course>24.9</course><type>1</type></trkpt>
      <trkpt lat="39.59726812" lon="-6.42370198"><ele>1813</ele><speed>12.50</speed><time>2016-06-21T16:16:36Z</time><pdop>3.0</pdop><geoidheight>54.00</geoidheight><course>29.3</course><type>1</type></trkpt>
      <trkpt lat="39.59744643" lon="-6.4235343"><ele>1811</ele><speed>12.25</speed><time>2016-06-21T16:16:38Z</time><pdop>3.0</pdop><geoidheight>54.00</geoidheight><course>35.2</course><type>1</type></trkpt>
      <trkpt lat="39.59754117" lon="-6.42345829"><ele>1811</ele><speed>12.50</speed><time>2016-06-21T16:16:39Z</time><pdop>3.0</pdop><geoidheight>54.00</geoidheight><course>31.8</course><type>1</type></trkpt>
      <trkpt lat="39.59764907" lon="-6.42339085"><ele>1811</ele><speed>13.25</speed><time>2016-06-21T16:16:40Z</time><pdop>3.0</pdop><geoidheight>54.00</geoidheight><course>26.6</course><type>1</type></trkpt>
      <trkpt lat="39.59785967" lon="-6.4232748"><ele>1814</ele><speed>12.25</speed><time>2016-06-21T16:16:42Z</time><pdop>3.0</pdop><geoidheight>54.00</geoidheight><course>23.6</course><type>1</type></trkpt>
      <trkpt lat="39.59795216" lon="-6.42322294"><ele>1816</ele><speed>11.25</speed><time>2016-06-21T16:16:43Z</time><pdop>3.0</pdop><geoidheight>54.00</geoidheight><course>23.6</course><type>1</type></trkpt>
      <trkpt lat="39.59804267" lon="-6.42316841"><ele>1816</ele><speed>11.25</speed><time>2016-06-21T16:16:44Z</time><pdop>3.0</pdop><geoidheight>54.00</geoidheight><course>22.9</course><type>1</type></trkpt>
      <trkpt lat="39.59824304" lon="-6.42307096"><ele>1817</ele><speed>12.00</speed><time>2016-06-21T16:16:46Z</time><pdop>3.0</pdop><geoidheight>54.00</geoidheight><course>20.3</course><type>1</type></trkpt>
      <trkpt lat="39.598465589999996" lon="-6.42297093"><ele>1817</ele><speed>13.25</speed><time>2016-06-21T16:16:48Z</time><pdop>3.0</pdop><geoidheight>54.00</geoidheight><course>19.1</course><type>1</type></trkpt>
      <trkpt lat="39.59857984" lon="-6.42291426"><ele>1817</ele><speed>13.75</speed><time>2016-06-21T16:16:49Z</time><pdop>3.0</pdop><geoidheight>54.00</geoidheight><course>20.6</course><type>1</type></trkpt>
      <trkpt lat="39.59879172" lon="-6.42280526"><ele>1820</ele><speed>12.00</speed><time>2016-06-21T16:16:51Z</time><pdop>3.0</pdop><geoidheight>54.00</geoidheight><course>20.5</course><type>1</type></trkpt>
      <trkpt lat="39.59889085" lon="-6.42277316"><ele>1821</ele><speed>11.25</speed><time>2016-06-21T16:16:52Z</time><pdop>3.0</pdop><geoidheight>54.00</geoidheight><course>15.8</course><type>1</type></trkpt>
      <trkpt lat="39.59907264" lon="-6.42271612"><ele>1819</ele><speed>10.25</speed><time>2016-06-21T16:16:54Z</time><pdop>3.0</pdop><geoidheight>54.00</geoidheight><course>12.9</course><type>1</type></trkpt>
      <trkpt lat="39.59916398" lon="-6.42268821"><ele>1818</ele><speed>10.50</speed><time>2016-06-21T16:16:55Z</time><pdop>3.0</pdop><geoidheight>54.00</geoidheight><course>12.5</course><type>1</type></trkpt>
      <trkpt lat="39.59925584" lon="-6.422662"><ele>1817</ele><speed>10.75</speed><time>2016-06-21T16:16:56Z</time><pdop>3.0</pdop><geoidheight>54.00</geoidheight><course>12.4</course><type>1</type></trkpt>
      <trkpt lat="39.59935499" lon="-6.42263145"><ele>1815</ele><speed>11.25</speed><time>2016-06-21T16:16:57Z</time><pdop>3.0</pdop><geoidheight>54.00</geoidheight><course>13.4</course><type>1</type></trkpt>
      <trkpt lat="39.59956338" lon="-6.42254912"><ele>1811</ele><speed>12.50</speed><time>2016-06-21T16:16:59Z</time><pdop>3.0</pdop><geoidheight>54.00</geoidheight><course>18.7</course><type>1</type></trkpt>
      <trkpt lat="39.59966927" lon="-6.42249833"><ele>1810</ele><speed>12.50</speed><time>2016-06-21T16:17:00Z</time><pdop>3.0</pdop><geoidheight>54.00</geoidheight><course>20.0</course><type>1</type></trkpt>
      <trkpt lat="39.59987324" lon="-6.42240857"><ele>1807</ele><speed>12.00</speed><time>2016-06-21T16:17:02Z</time><pdop>3.0</pdop><geoidheight>54.00</geoidheight><course>18.2</course><type>1</type></trkpt>
      <trkpt lat="39.59997502" lon="-6.42236538"><ele>1805</ele><speed>12.00</speed><time>2016-06-21T16:17:03Z</time><pdop>5.0</pdop><geoidheight>54.00</geoidheight><course>18.2</course><type>1</type></trkpt>
      <trkpt lat="39.60009174" lon="-6.4223298"><ele>1804</ele><speed>12.75</speed><time>2016-06-21T16:17:04Z</time><pdop>3.0</pdop><geoidheight>54.00</geoidheight><course>15.6</course><type>1</type></trkpt>
      <trkpt lat="39.600326" lon="-6.42223447"><ele>1803</ele><speed>14.00</speed><time>2016-06-21T16:17:06Z</time><pdop>3.0</pdop><geoidheight>54.00</geoidheight><course>19.4</course><type>1</type></trkpt>
      <trkpt lat="39.60043841" lon="-6.42217307"><ele>1803</ele><speed>13.75</speed><time>2016-06-21T16:17:07Z</time><pdop>3.0</pdop><geoidheight>54.00</geoidheight><course>22.2</course><type>1</type></trkpt>
      <trkpt lat="39.60066052" lon="-6.42204759"><ele>1805</ele><speed>13.50</speed><time>2016-06-21T16:17:09Z</time><pdop>3.0</pdop><geoidheight>54.00</geoidheight><course>23.8</course><type>1</type></trkpt>
      <trkpt lat="39.60076563" lon="-6.42198634"><ele>1807</ele><speed>13.00</speed><time>2016-06-21T16:17:10Z</time><pdop>3.0</pdop><geoidheight>54.00</geoidheight><course>22.9</course><type>1</type></trkpt>
      <trkpt lat="39.60095144" lon="-6.42189179"><ele>1808</ele><speed>10.75</speed><time>2016-06-21T16:17:12Z</time><pdop>3.0</pdop><geoidheight>54.00</geoidheight><course>20.0</course><type>1</type></trkpt>
      <trkpt lat="39.60103934" lon="-6.42185061"><ele>1806</ele><speed>10.50</speed><time>2016-06-21T16:17:13Z</time><pdop>3.0</pdop><geoidheight>54.00</geoidheight><course>19.7</course><type>1</type></trkpt>
      <trkpt lat="39.60123166" lon="-6.42176066"><ele>1802</ele><speed>11.50</speed><time>2016-06-21T16:17:15Z</time><pdop>3.0</pdop><geoidheight>54.00</geoidheight><course>20.0</course><type>1</type></trkpt>
      <trkpt lat="39.60132945" lon="-6.42171106"><ele>1800</ele><speed>12.00</speed><time>2016-06-21T16:17:16Z</time><pdop>3.0</pdop><geoidheight>54.00</geoidheight><course>20.6</course><type>1</type></trkpt>
      <trkpt lat="39.60153531" lon="-6.42161888"><ele>1796</ele><speed>12.00</speed><time>2016-06-21T16:17:18Z</time><pdop>3.0</pdop><geoidheight>54.00</geoidheight><course>19.0</course><type>1</type></trkpt>
      <trkpt lat="39.60173898" lon="-6.42152013"><ele>1792</ele><speed>12.00</speed><time>2016-06-21T16:17:20Z</time><pdop>5.0</pdop><geoidheight>54.00</geoidheight><course>20.5</course><type>1</type></trkpt>
      <trkpt lat="39.60193456" lon="-6.42140636"><ele>1789</ele><speed>11.75</speed><time>2016-06-21T16:17:22Z</time><pdop>3.0</pdop><geoidheight>54.00</geoidheight><course>22.7</course><type>1</type></trkpt>
      <trkpt lat="39.6020341" lon="-6.42134899"><ele>1787</ele><speed>11.75</speed><time>2016-06-21T16:17:23Z</time><pdop>3.0</pdop><geoidheight>54.00</geoidheight><course>24.9</course><type>1</type></trkpt>
      <trkpt lat="39.60222218" lon="-6.42123223"><ele>1782</ele><speed>11.50</speed><time>2016-06-21T16:17:25Z</time><pdop>5.0</pdop><geoidheight>54.00</geoidheight><course>25.2</course><type>1</type></trkpt>
      <trkpt lat="39.6024069" lon="-6.42111105"><ele>1777</ele><speed>11.75</speed><time>2016-06-21T16:17:27Z</time><pdop>5.0</pdop><geoidheight>54.00</geoidheight><course>27.5</course><type>1</type></trkpt>
      <trkpt lat="39.60250225" lon="-6.42103342"><ele>1774</ele><speed>12.25</speed><time>2016-06-21T16:17:28Z</time><pdop>3.0</pdop><geoidheight>54.00</geoidheight><course>29.6</course><type>1</type></trkpt>
      <trkpt lat="39.60259861" lon="-6.42096486"><ele>1773</ele><speed>12.00</speed><time>2016-06-21T16:17:29Z</time><pdop>3.0</pdop><geoidheight>54.00</geoidheight><course>28.8</course><type>1</type></trkpt>
      <trkpt lat="39.60278457" lon="-6.42083863"><ele>1769</ele><speed>11.25</speed><time>2016-06-21T16:17:31Z</time><pdop>3.0</pdop><geoidheight>54.00</geoidheight><course>29.1</course><type>1</type></trkpt>
      <trkpt lat="39.60286981" lon="-6.42077768"><ele>1768</ele><speed>10.75</speed><time>2016-06-21T16:17:32Z</time><pdop>3.0</pdop><geoidheight>54.00</geoidheight><course>28.4</course><type>1</type></trkpt>
      <trkpt lat="39.60303896" lon="-6.42068059"><ele>1766</ele><speed>10.50</speed><time>2016-06-21T16:17:34Z</time><pdop>3.0</pdop><geoidheight>54.00</geoidheight><course>22.7</course><type>1</type></trkpt>
      <trkpt lat="39.60312677" lon="-6.42064398"><ele>1764</ele><speed>10.00</speed><time>2016-06-21T16:17:35Z</time><pdop>3.0</pdop><geoidheight>54.00</geoidheight><course>19.1</course><type>1</type></trkpt>
      <trkpt lat="39.60329441" lon="-6.42056745"><ele>1761</ele><speed>10.00</speed><time>2016-06-21T16:17:37Z</time><pdop>3.0</pdop><geoidheight>54.00</geoidheight><course>19.8</course><type>1</type></trkpt>
      <trkpt lat="39.60337858" lon="-6.42051928"><ele>1759</ele><speed>10.25</speed><time>2016-06-21T16:17:38Z</time><pdop>3.0</pdop><geoidheight>54.00</geoidheight><course>23.3</course><type>1</type></trkpt>
      <trkpt lat="39.60355682" lon="-6.42042855"><ele>1756</ele><speed>10.50</speed><time>2016-06-21T16:17:40Z</time><pdop>3.0</pdop><geoidheight>54.00</geoidheight><course>21.3</course><type>1</type></trkpt>
      <trkpt lat="39.60373481" lon="-6.42034786"><ele>1753</ele><speed>10.50</speed><time>2016-06-21T16:17:42Z</time><pdop>3.0</pdop><geoidheight>54.00</geoidheight><course>20.6</course><type>1</type></trkpt>
      <trkpt lat="39.60382592" lon="-6.420303"><ele>1752</ele><speed>10.75</speed><time>2016-06-21T16:17:43Z</time><pdop>3.0</pdop><geoidheight>54.00</geoidheight><course>21.5</course><type>1</type></trkpt>
      <trkpt lat="39.60402326" lon="-6.42021881"><ele>1749</ele><speed>11.75</speed><time>2016-06-21T16:17:45Z</time><pdop>3.0</pdop><geoidheight>54.00</geoidheight><course>18.4</course><type>1</type></trkpt>
      <trkpt lat="39.6042212" lon="-6.42013585"><ele>1746</ele><speed>11.50</speed><time>2016-06-21T16:17:47Z</time><pdop>3.0</pdop><geoidheight>54.00</geoidheight><course>17.6</course><type>1</type></trkpt>
      <trkpt lat="39.60439876" lon="-6.42005373"><ele>1744</ele><speed>10.25</speed><time>2016-06-21T16:17:49Z</time><pdop>3.0</pdop><geoidheight>54.00</geoidheight><course>20.0</course><type>1</type></trkpt>
      <trkpt lat="39.60448504" lon="-6.42001319"><ele>1743</ele><speed>10.00</speed><time>2016-06-21T16:17:50Z</time><pdop>3.0</pdop><geoidheight>54.00</geoidheight><course>19.9</course><type>1</type></trkpt>
      <trkpt lat="39.60466763" lon="-6.41995393"><ele>1739</ele><speed>10.75</speed><time>2016-06-21T16:17:52Z</time><pdop>3.0</pdop><geoidheight>54.00</geoidheight><course>11.5</course><type>1</type></trkpt>
      <trkpt lat="39.6048641" lon="-6.41990174"><ele>1738</ele><speed>10.75</speed><time>2016-06-21T16:17:54Z</time><pdop>3.0</pdop><geoidheight>54.00</geoidheight><course>13.9</course><type>1</type></trkpt>
      <trkpt lat="39.60495351" lon="-6.41986402"><ele>1737</ele><speed>10.25</speed><time>2016-06-21T16:17:55Z</time><pdop>3.0</pdop><geoidheight>54.00</geoidheight><course>17.5</course><type>1</type></trkpt>
      <trkpt lat="39.60511474" lon="-6.41979681"><ele>1735</ele><speed>9.25</speed><time>2016-06-21T16:17:57Z</time><pdop>3.0</pdop><geoidheight>54.00</geoidheight><course>17.6</course><type>1</type></trkpt>
      <trkpt lat="39.60527429" lon="-6.41972225"><ele>1732</ele><speed>9.50</speed><time>2016-06-21T16:17:59Z</time><pdop>3.0</pdop><geoidheight>54.00</geoidheight><course>21.4</course><type>1</type></trkpt>
      <trkpt lat="39.60535907" lon="-6.41967183"><ele>1731</ele><speed>9.75</speed><time>2016-06-21T16:18:00Z</time><pdop>3.0</pdop><geoidheight>54.00</geoidheight><course>24.1</course><type>1</type></trkpt>
      <trkpt lat="39.60553148" lon="-6.41957738"><ele>1727</ele><speed>10.25</speed><time>2016-06-21T16:18:02Z</time><pdop>3.0</pdop><geoidheight>54.00</geoidheight><course>22.2</course><type>1</type></trkpt>
      <trkpt lat="39.60570323" lon="-6.41949426"><ele>1724</ele><speed>10.25</speed><time>2016-06-21T16:18:04Z</time><pdop>3.0</pdop><geoidheight>54.00</geoidheight><course>19.6</course><type>1</type></trkpt>
      <trkpt lat="39.60578851" lon="-6.41945461"><ele>1723</ele><speed>10.00</speed><time>2016-06-21T16:18:05Z</time><pdop>3.0</pdop><geoidheight>54.00</geoidheight><course>20.2</course><type>1</type></trkpt>
      <trkpt lat="39.60595078" lon="-6.41935871"><ele>1718</ele><speed>10.00</speed><time>2016-06-21T16:18:07Z</time><pdop>3.0</pdop><geoidheight>54.00</geoidheight><course>24.8</course><type>1</type></trkpt>
      <trkpt lat="39.60610479" lon="-6.41924564"><ele>1719</ele><speed>9.75</speed><time>2016-06-21T16:18:09Z</time><pdop>3.0</pdop><geoidheight>54.00</geoidheight><course>30.1</course><type>1</type></trkpt>
      <trkpt lat="39.60623936" lon="-6.41911666"><ele>1712</ele><speed>9.25</speed><time>2016-06-21T16:18:11Z</time><pdop>3.0</pdop><geoidheight>54.00</geoidheight><course>39.0</course><type>1</type></trkpt>
      <trkpt lat="39.60630193" lon="-6.41904377"><ele>1711</ele><speed>9.50</speed><time>2016-06-21T16:18:12Z</time><pdop>3.0</pdop><geoidheight>54.00</geoidheight><course>41.1</course><type>1</type></trkpt>
      <trkpt lat="39.60637351" lon="-6.41897903"><ele>1709</ele><speed>9.25</speed><time>2016-06-21T16:18:13Z</time><pdop>3.0</pdop><geoidheight>54.00</geoidheight><course>37.9</course><type>1</type></trkpt>
      <trkpt lat="39.60651944" lon="-6.41886246"><ele>1707</ele><speed>9.50</speed><time>2016-06-21T16:18:15Z</time><pdop>3.0</pdop><geoidheight>54.00</geoidheight><course>32.1</course><type>1</type></trkpt>
      <trkpt lat="39.60659236" lon="-6.41879795"><ele>1706</ele><speed>9.75</speed><time>2016-06-21T16:18:16Z</time><pdop>3.0</pdop><geoidheight>54.00</geoidheight><course>34.8</course><type>1</type></trkpt>
      <trkpt lat="39.60673546" lon="-6.41866317"><ele>1706</ele><speed>9.75</speed><time>2016-06-21T16:18:18Z</time><pdop>3.0</pdop><geoidheight>54.00</geoidheight><course>36.0</course><type>1</type></trkpt>
      <trkpt lat="39.60681243" lon="-6.41860753"><ele>1707</ele><speed>9.75</speed><time>2016-06-21T16:18:19Z</time><pdop>3.0</pdop><geoidheight>54.00</geoidheight><course>31.1</course><type>1</type></trkpt>
      <trkpt lat="39.6069622" lon="-6.4185078"><ele>1708</ele><speed>9.25</speed><time>2016-06-21T16:18:21Z</time><pdop>3.0</pdop><geoidheight>54.00</geoidheight><course>27.1</course><type>1</type></trkpt>
      <trkpt lat="39.60703631" lon="-6.41845131"><ele>1707</ele><speed>9.50</speed><time>2016-06-21T16:18:22Z</time><pdop>3.0</pdop><geoidheight>54.00</geoidheight><course>29.7</course><type>1</type></trkpt>
      <trkpt lat="39.60718196" lon="-6.41832923"><ele>1706</ele><speed>9.50</speed><time>2016-06-21T16:18:24Z</time><pdop>3.0</pdop><geoidheight>54.00</geoidheight><course>35.1</course><type>1</type></trkpt>
      <trkpt lat="39.60725167" lon="-6.41826174"><ele>1704</ele><speed>9.75</speed><time>2016-06-21T16:18:25Z</time><pdop>3.0</pdop><geoidheight>54.00</geoidheight><course>36.3</course><type>1</type></trkpt>
      <trkpt lat="39.60739612" lon="-6.41812885"><ele>1704</ele><speed>9.75</speed><time>2016-06-21T16:18:27Z</time><pdop>4.0</pdop><geoidheight>54.00</geoidheight><course>36.5</course><type>1</type></trkpt>
      <trkpt lat="39.60746354" lon="-6.41806345"><ele>1705</ele><speed>9.50</speed><time>2016-06-21T16:18:28Z</time><pdop>3.0</pdop><geoidheight>54.00</geoidheight><course>37.6</course><type>1</type></trkpt>
      <trkpt lat="39.60752653" lon="-6.41799478"><ele>1705</ele><speed>9.50</speed><time>2016-06-21T16:18:29Z</time><pdop>3.0</pdop><geoidheight>54.00</geoidheight><course>37.6</course><type>1</type></trkpt>
      <trkpt lat="39.60765241" lon="-6.41785533"><ele>1704</ele><speed>9.25</speed><time>2016-06-21T16:18:31Z</time><pdop>3.0</pdop><geoidheight>54.00</geoidheight><course>40.5</course><type>1</type></trkpt>
      <trkpt lat="39.60770832" lon="-6.4177758"><ele>1703</ele><speed>9.25</speed><time>2016-06-21T16:18:32Z</time><pdop>3.0</pdop><geoidheight>54.00</geoidheight><course>47.9</course><type>1</type></trkpt>
      <trkpt lat="39.60775632" lon="-6.41768529"><ele>1702</ele><speed>9.50</speed><time>2016-06-21T16:18:33Z</time><pdop>3.0</pdop><geoidheight>54.00</geoidheight><course>54.9</course><type>1</type></trkpt>
      <trkpt lat="39.60780555" lon="-6.41758963"><ele>1702</ele><speed>9.75</speed><time>2016-06-21T16:18:34Z</time><pdop>3.0</pdop><geoidheight>54.00</geoidheight><course>55.4</course><type>1</type></trkpt>
      <trkpt lat="39.60785478" lon="-6.41749728"><ele>1702</ele><speed>9.75</speed><time>2016-06-21T16:18:35Z</time><pdop>5.0</pdop><geoidheight>54.00</geoidheight><course>55.4</course><type>1</type></trkpt>
      <trkpt lat="39.60792062" lon="-6.41740095"><ele>1702</ele><speed>10.25</speed><time>2016-06-21T16:18:36Z</time><pdop>3.0</pdop><geoidheight>54.00</geoidheight><course>50.8</course><type>1</type></trkpt>
      <trkpt lat="39.60802973" lon="-6.41726273"><ele>1704</ele><speed>8.00</speed><time>2016-06-21T16:18:38Z</time><pdop>3.0</pdop><geoidheight>54.00</geoidheight><course>43.4</course><type>1</type></trkpt>
      <trkpt lat="39.6081257" lon="-6.41714005"><ele>1702</ele><speed>7.50</speed><time>2016-06-21T16:18:40Z</time><pdop>3.0</pdop><geoidheight>54.00</geoidheight><course>45.6</course><type>1</type></trkpt>
      <trkpt lat="39.60822772" lon="-6.41698999"><ele>1700</ele><speed>9.25</speed><time>2016-06-21T16:18:42Z</time><pdop>3.0</pdop><geoidheight>54.00</geoidheight><course>49.4</course><type>1</type></trkpt>
      <trkpt lat="39.60828517" lon="-6.41690238"><ele>1699</ele><speed>10.00</speed><time>2016-06-21T16:18:43Z</time><pdop>3.0</pdop><geoidheight>54.00</geoidheight><course>49.9</course><type>1</type></trkpt>
      <trkpt lat="39.60839914" lon="-6.41672165"><ele>1699</ele><speed>10.00</speed><time>2016-06-21T16:18:45Z</time><pdop>5.0</pdop><geoidheight>54.00</geoidheight><course>50.5</course><type>1</type></trkpt>
      <trkpt lat="39.60844824" lon="-6.41665148"><ele>1698</ele><speed>8.50</speed><time>2016-06-21T16:18:46Z</time><pdop>3.0</pdop><geoidheight>54.00</geoidheight><course>50.2</course><type>1</type></trkpt>
      <trkpt lat="39.60849754" lon="-6.41657504"><ele>1698</ele><speed>8.50</speed><time>2016-06-21T16:18:47Z</time><pdop>5.0</pdop><geoidheight>54.00</geoidheight><course>50.2</course><type>1</type></trkpt>
      <trkpt lat="39.60854905" lon="-6.41648045"><ele>1695</ele><speed>9.50</speed><time>2016-06-21T16:18:48Z</time><pdop>4.0</pdop><geoidheight>54.00</geoidheight><course>54.3</course><type>1</type></trkpt>
      <trkpt lat="39.60860424" lon="-6.41638467"><ele>1693</ele><speed>10.00</speed><time>2016-06-21T16:18:49Z</time><pdop>3.0</pdop><geoidheight>54.00</geoidheight><course>54.3</course><type>1</type></trkpt>
      <trkpt lat="39.6087065" lon="-6.41618344"><ele>1689</ele><speed>10.25</speed><time>2016-06-21T16:18:51Z</time><pdop>3.0</pdop><geoidheight>54.00</geoidheight><course>57.5</course><type>1</type></trkpt>
      <trkpt lat="39.60874895" lon="-6.4160853"><ele>1688</ele><speed>9.75</speed><time>2016-06-21T16:18:52Z</time><pdop>3.0</pdop><geoidheight>54.00</geoidheight><course>59.0</course><type>1</type></trkpt>
      <trkpt lat="39.60879667" lon="-6.41598371"><ele>1687</ele><speed>10.00</speed><time>2016-06-21T16:18:53Z</time><pdop>3.0</pdop><geoidheight>54.00</geoidheight><course>58.5</course><type>1</type></trkpt>
      <trkpt lat="39.60884478" lon="-6.41588065"><ele>1687</ele><speed>10.50</speed><time>2016-06-21T16:18:54Z</time><pdop>3.0</pdop><geoidheight>54.00</geoidheight><course>59.3</course><type>1</type></trkpt>
      <trkpt lat="39.60893832" lon="-6.41566602"><ele>1687</ele><speed>10.50</speed><time>2016-06-21T16:18:56Z</time><pdop>4.0</pdop><geoidheight>54.00</geoidheight><course>61.5</course><type>1</type></trkpt>
      <trkpt lat="39.60898436" lon="-6.4155665"><ele>1687</ele><speed>10.00</speed><time>2016-06-21T16:18:57Z</time><pdop>4.0</pdop><geoidheight>54.00</geoidheight><course>60.3</course><type>1</type></trkpt>
      <trkpt lat="39.60903205" lon="-6.41546742"><ele>1687</ele><speed>10.00</speed><time>2016-06-21T16:18:58Z</time><pdop>3.0</pdop><geoidheight>54.00</geoidheight><course>58.6</course><type>1</type></trkpt>
      <trkpt lat="39.60908175" lon="-6.41536926"><ele>1687</ele><speed>10.25</speed><time>2016-06-21T16:18:59Z</time><pdop>3.0</pdop><geoidheight>54.00</geoidheight><course>56.4</course><type>1</type></trkpt>
      <trkpt lat="39.6092167" lon="-6.41516107"><ele>1686</ele><speed>12.00</speed><time>2016-06-21T16:19:01Z</time><pdop>3.0</pdop><geoidheight>54.00</geoidheight><course>48.0</course><type>1</type></trkpt>
      <trkpt lat="39.60929013" lon="-6.41505823"><ele>1688</ele><speed>12.50</speed><time>2016-06-21T16:19:02Z</time><pdop>4.0</pdop><geoidheight>54.00</geoidheight><course>48.8</course><type>1</type></trkpt>
      <trkpt lat="39.60935894" lon="-6.41498088"><ele>1688</ele><speed>10.75</speed><time>2016-06-21T16:19:03Z</time><pdop>4.0</pdop><geoidheight>54.00</geoidheight><course>45.7</course><type>1</type></trkpt>
      <trkpt lat="39.60941421" lon="-6.41489082"><ele>1688</ele><speed>9.75</speed><time>2016-06-21T16:19:04Z</time><pdop>4.0</pdop><geoidheight>54.00</geoidheight><course>49.3</course><type>1</type></trkpt>
      <trkpt lat="39.60946399" lon="-6.41480127"><ele>1688</ele><speed>9.75</speed><time>2016-06-21T16:19:05Z</time><pdop>3.0</pdop><geoidheight>54.00</geoidheight><course>53.8</course><type>1</type></trkpt>
      <trkpt lat="39.60951762" lon="-6.41470394"><ele>1688</ele><speed>10.25</speed><time>2016-06-21T16:19:06Z</time><pdop>3.0</pdop><geoidheight>54.00</geoidheight><course>54.9</course><type>1</type></trkpt>
      <trkpt lat="39.60957849" lon="-6.41460802"><ele>1689</ele><speed>10.75</speed><time>2016-06-21T16:19:07Z</time><pdop>3.0</pdop><geoidheight>54.00</geoidheight><course>52.1</course><type>1</type></trkpt>
      <trkpt lat="39.60964347" lon="-6.41451798"><ele>1689</ele><speed>10.75</speed><time>2016-06-21T16:19:08Z</time><pdop>4.0</pdop><geoidheight>54.00</geoidheight><course>47.7</course><type>1</type></trkpt>
      <trkpt lat="39.60977163" lon="-6.41435274"><ele>1690</ele><speed>9.75</speed><time>2016-06-21T16:19:10Z</time><pdop>3.0</pdop><geoidheight>54.00</geoidheight><course>44.4</course><type>1</type></trkpt>
      <trkpt lat="39.60982948" lon="-6.41426954"><ele>1689</ele><speed>9.75</speed><time>2016-06-21T16:19:11Z</time><pdop>3.0</pdop><geoidheight>54.00</geoidheight><course>48.0</course><type>1</type></trkpt>
      <trkpt lat="39.60988651" lon="-6.41416854"><ele>1688</ele><speed>10.50</speed><time>2016-06-21T16:19:12Z</time><pdop>3.0</pdop><geoidheight>54.00</geoidheight><course>52.9</course><type>1</type></trkpt>
      <trkpt lat="39.61001095" lon="-6.41394606"><ele>1687</ele><speed>12.00</speed><time>2016-06-21T16:19:14Z</time><pdop>3.0</pdop><geoidheight>54.00</geoidheight><course>54.3</course><type>1</type></trkpt>
      <trkpt lat="39.610131" lon="-6.41374368"><ele>1687</ele><speed>10.75</speed><time>2016-06-21T16:19:16Z</time><pdop>4.0</pdop><geoidheight>54.00</geoidheight><course>51.4</course><type>1</type></trkpt>
      <trkpt lat="39.610184" lon="-6.41364929"><ele>1687</ele><speed>10.25</speed><time>2016-06-21T16:19:17Z</time><pdop>3.0</pdop><geoidheight>54.00</geoidheight><course>52.7</course><type>1</type></trkpt>
      <trkpt lat="39.6102392" lon="-6.4135527"><ele>1687</ele><speed>10.25</speed><time>2016-06-21T16:19:18Z</time><pdop>4.0</pdop><geoidheight>54.00</geoidheight><course>53.8</course><type>1</type></trkpt>
      <trkpt lat="39.61034881" lon="-6.41336098"><ele>1687</ele><speed>10.25</speed><time>2016-06-21T16:19:20Z</time><pdop>3.0</pdop><geoidheight>54.00</geoidheight><course>53.9</course><type>1</type></trkpt>
      <trkpt lat="39.61045574" lon="-6.41317009"><ele>1686</ele><speed>10.00</speed><time>2016-06-21T16:19:22Z</time><pdop>3.0</pdop><geoidheight>54.00</geoidheight><course>54.0</course><type>1</type></trkpt>
      <trkpt lat="39.61050866" lon="-6.41307609"><ele>1686</ele><speed>10.00</speed><time>2016-06-21T16:19:23Z</time><pdop>5.0</pdop><geoidheight>54.00</geoidheight><course>54.0</course><type>1</type></trkpt>
      <trkpt lat="39.61056365" lon="-6.41298464"><ele>1684</ele><speed>10.00</speed><time>2016-06-21T16:19:24Z</time><pdop>3.0</pdop><geoidheight>54.00</geoidheight><course>54.3</course><type>1</type></trkpt>
      <trkpt lat="39.61067408" lon="-6.41278314"><ele>1682</ele><speed>10.75</speed><time>2016-06-21T16:19:26Z</time><pdop>3.0</pdop><geoidheight>54.00</geoidheight><course>54.9</course><type>1</type></trkpt>
      <trkpt lat="39.61073188" lon="-6.41268141"><ele>1683</ele><speed>10.50</speed><time>2016-06-21T16:19:27Z</time><pdop>3.0</pdop><geoidheight>54.00</geoidheight><course>53.8</course><type>1</type></trkpt>
      <trkpt lat="39.61078778" lon="-6.41259327"><ele>1683</ele><speed>9.75</speed><time>2016-06-21T16:19:28Z</time><pdop>3.0</pdop><geoidheight>54.00</geoidheight><course>52.4</course><type>1</type></trkpt>
      <trkpt lat="39.61089251" lon="-6.41242677"><ele>1682</ele><speed>9.25</speed><time>2016-06-21T16:19:30Z</time><pdop>3.0</pdop><geoidheight>54.00</geoidheight><course>50.5</course><type>1</type></trkpt>
      <trkpt lat="39.61094489" lon="-6.41232637"><ele>1680</ele><speed>10.75</speed><time>2016-06-21T16:19:31Z</time><pdop>3.0</pdop><geoidheight>54.00</geoidheight><course>55.3</course><type>1</type></trkpt>
      <trkpt lat="39.61103636" lon="-6.41208151"><ele>1680</ele><speed>11.25</speed><time>2016-06-21T16:19:33Z</time><pdop>4.0</pdop><geoidheight>54.00</geoidheight><course>63.8</course><type>1</type></trkpt>
      <trkpt lat="39.61108124" lon="-6.41196336"><ele>1681</ele><speed>11.25</speed><time>2016-06-21T16:19:34Z</time><pdop>6.0</pdop><geoidheight>54.00</geoidheight><course>63.8</course><type>1</type></trkpt>
      <trkpt lat="39.61115282" lon="-6.41178497"><ele>1682</ele><speed>9.50</speed><time>2016-06-21T16:19:36Z</time><pdop>3.0</pdop><geoidheight>54.00</geoidheight><course>62.8</course><type>1</type></trkpt>
      <trkpt lat="39.61119183" lon="-6.41168679"><ele>1682</ele><speed>9.50</speed><time>2016-06-21T16:19:37Z</time><pdop>4.0</pdop><geoidheight>54.00</geoidheight><course>62.8</course><type>1</type></trkpt>
      <trkpt lat="39.6112234" lon="-6.41155358"><ele>1682</ele><speed>10.75</speed><time>2016-06-21T16:19:38Z</time><pdop>4.0</pdop><geoidheight>54.00</geoidheight><course>70.1</course><type>1</type></trkpt>
      <trkpt lat="39.61125837" lon="-6.41133281"><ele>1685</ele><speed>9.25</speed><time>2016-06-21T16:19:40Z</time><pdop>3.0</pdop><geoidheight>54.00</geoidheight><course>78.9</course><type>1</type></trkpt>
      <trkpt lat="39.61130252" lon="-6.41112791"><ele>1687</ele><speed>9.25</speed><time>2016-06-21T16:19:42Z</time><pdop>4.0</pdop><geoidheight>54.00</geoidheight><course>72.8</course><type>1</type></trkpt>
      <trkpt lat="39.61136952" lon="-6.41093906"><ele>1693</ele><speed>8.25</speed><time>2016-06-21T16:19:44Z</time><pdop>3.0</pdop><geoidheight>54.00</geoidheight><course>62.5</course><type>1</type></trkpt>
      <trkpt lat="39.61143098" lon="-6.41078813"><ele>1695</ele><speed>7.25</speed><time>2016-06-21T16:19:46Z</time><pdop>3.0</pdop><geoidheight>54.00</geoidheight><course>65.7</course><type>1</type></trkpt>
      <trkpt lat="39.61144142" lon="-6.41062364"><ele>1698</ele><speed>7.50</speed><time>2016-06-21T16:19:48Z</time><pdop>3.0</pdop><geoidheight>54.00</geoidheight><course>91.2</course><type>1</type></trkpt>
      <trkpt lat="39.61141614" lon="-6.41054368"><ele>1700</ele><speed>7.50</speed><time>2016-06-21T16:19:49Z</time><pdop>3.0</pdop><geoidheight>54.00</geoidheight><course>108.6</course><type>1</type></trkpt>
      <trkpt lat="39.61127962" lon="-6.41048555"><ele>1706</ele><speed>6.25</speed><time>2016-06-21T16:19:52Z</time><pdop>3.0</pdop><geoidheight>54.00</geoidheight><course>195.2</course><type>1</type></trkpt>
      <trkpt lat="39.61123893" lon="-6.41054369"><ele>1708</ele><speed>6.50</speed><time>2016-06-21T16:19:53Z</time><pdop>3.0</pdop><geoidheight>54.00</geoidheight><course>222.9</course><type>1</type></trkpt>
      <trkpt lat="39.6112176" lon="-6.41069941"><ele>1713</ele><speed>7.00</speed><time>2016-06-21T16:19:55Z</time><pdop>3.0</pdop><geoidheight>54.00</geoidheight><course>265.5</course><type>1</type></trkpt>
      <trkpt lat="39.61123061" lon="-6.41078859"><ele>1714</ele><speed>7.50</speed><time>2016-06-21T16:19:56Z</time><pdop>4.0</pdop><geoidheight>54.00</geoidheight><course>278.3</course><type>1</type></trkpt>
      <trkpt lat="39.61128824" lon="-6.41099319"><ele>1717</ele><speed>10.50</speed><time>2016-06-21T16:19:58Z</time><pdop>3.0</pdop><geoidheight>54.00</geoidheight><course>292.8</course><type>1</type></trkpt>
      <trkpt lat="39.61134463" lon="-6.41110973"><ele>1719</ele><speed>11.50</speed><time>2016-06-21T16:19:59Z</time><pdop>3.0</pdop><geoidheight>54.00</geoidheight><course>301.3</course><type>1</type></trkpt>
      <trkpt lat="39.61149237" lon="-6.41131206"><ele>1721</ele><speed>11.75</speed><time>2016-06-21T16:20:01Z</time><pdop>4.0</pdop><geoidheight>54.00</geoidheight><course>313.7</course><type>1</type></trkpt>
      <trkpt lat="39.61159596" lon="-6.41139732"><ele>1724</ele><speed>13.25</speed><time>2016-06-21T16:20:02Z</time><pdop>3.0</pdop><geoidheight>54.00</geoidheight><course>323.6</course><type>1</type></trkpt>
      <trkpt lat="39.61168902" lon="-6.41147535"><ele>1727</ele><speed>12.25</speed><time>2016-06-21T16:20:03Z</time><pdop>3.0</pdop><geoidheight>54.00</geoidheight><course>327.5</course><type>1</type></trkpt>
      <trkpt lat="39.61177623" lon="-6.41153029"><ele>1730</ele><speed>11.25</speed><time>2016-06-21T16:20:04Z</time><pdop>3.0</pdop><geoidheight>54.00</geoidheight><course>336.0</course><type>1</type></trkpt>
      <trkpt lat="39.61187296" lon="-6.41156079"><ele>1732</ele><speed>11.25</speed><time>2016-06-21T16:20:05Z</time><pdop>3.0</pdop><geoidheight>54.00</geoidheight><course>348.4</course><type>1</type></trkpt>
      <trkpt lat="39.61197739" lon="-6.41155646"><ele>1732</ele><speed>11.25</speed><time>2016-06-21T16:20:06Z</time><pdop>3.0</pdop><geoidheight>54.00</geoidheight><course>359.6</course><type>1</type></trkpt>
      <trkpt lat="39.61215431" lon="-6.41147793"><ele>1734</ele><speed>10.00</speed><time>2016-06-21T16:20:08Z</time><pdop>3.0</pdop><geoidheight>54.00</geoidheight><course>23.1</course><type>1</type></trkpt>
      <trkpt lat="39.61221303" lon="-6.41139635"><ele>1734</ele><speed>9.25</speed><time>2016-06-21T16:20:09Z</time><pdop>3.0</pdop><geoidheight>54.00</geoidheight><course>41.7</course><type>1</type></trkpt>
      <trkpt lat="39.61225006" lon="-6.41130232"><ele>1733</ele><speed>9.25</speed><time>2016-06-21T16:20:10Z</time><pdop>3.0</pdop><geoidheight>54.00</geoidheight><course>61.1</course><type>1</type></trkpt>
      <trkpt lat="39.61226263" lon="-6.41120048"><ele>1733</ele><speed>9.00</speed><time>2016-06-21T16:20:11Z</time><pdop>3.0</pdop><geoidheight>54.00</geoidheight><course>77.2</course><type>1</type></trkpt>
      <trkpt lat="39.61223526" lon="-6.41102362"><ele>1736</ele><speed>7.50</speed><time>2016-06-21T16:20:13Z</time><pdop>3.0</pdop><geoidheight>54.00</geoidheight><course>108.2</course><type>1</type></trkpt>
      <trkpt lat="39.61211173" lon="-6.41086828"><ele>1740</ele><speed>6.50</speed><time>2016-06-21T16:20:16Z</time><pdop>4.0</pdop><geoidheight>54.00</geoidheight><course>144.2</course><type>1</type></trkpt>
      <trkpt lat="39.61202415" lon="-6.4107922"><ele>1744</ele><speed>6.25</speed><time>2016-06-21T16:20:18Z</time><pdop>3.0</pdop><geoidheight>54.00</geoidheight><course>146.0</course><type>1</type></trkpt>
      <trkpt lat="39.61192597" lon="-6.41074984"><ele>1748</ele><speed>5.75</speed><time>2016-06-21T16:20:20Z</time><pdop>3.0</pdop><geoidheight>54.00</geoidheight><course>168.6</course><type>1</type></trkpt>
      <trkpt lat="39.61182692" lon="-6.41079314"><ele>1752</ele><speed>6.25</speed><time>2016-06-21T16:20:22Z</time><pdop>3.0</pdop><geoidheight>54.00</geoidheight><course>203.1</course><type>1</type></trkpt>
      <trkpt lat="39.61173192" lon="-6.41093083"><ele>1757</ele><speed>8.50</speed><time>2016-06-21T16:20:24Z</time><pdop>3.0</pdop><geoidheight>54.00</geoidheight><course>234.0</course><type>1</type></trkpt>
      <trkpt lat="39.61172101" lon="-6.41114899"><ele>1767</ele><speed>9.75</speed><time>2016-06-21T16:20:26Z</time><pdop>4.0</pdop><geoidheight>54.00</geoidheight><course>272.8</course><type>1</type></trkpt>
      <trkpt lat="39.61171965" lon="-6.41126087"><ele>1773</ele><speed>9.00</speed><time>2016-06-21T16:20:27Z</time><pdop>4.0</pdop><geoidheight>54.00</geoidheight><course>267.9</course><type>1</type></trkpt>
      <trkpt lat="39.61175628" lon="-6.41139871"><ele>1779</ele><speed>11.00</speed><time>2016-06-21T16:20:28Z</time><pdop>5.0</pdop><geoidheight>54.00</geoidheight><course>281.0</course><type>1</type></trkpt>
      <trkpt lat="39.6118098" lon="-6.41149831"><ele>1782</ele><speed>10.50</speed><time>2016-06-21T16:20:29Z</time><pdop>5.0</pdop><geoidheight>54.00</geoidheight><course>293.6</course><type>1</type></trkpt>
      <trkpt lat="39.61212863" lon="-6.41160768"><ele>1784</ele><speed>12.25</speed><time>2016-06-21T16:20:32Z</time><pdop>3.0</pdop><geoidheight>54.00</geoidheight><course>342.2</course><type>1</type></trkpt>
      <trkpt lat="39.61224381" lon="-6.41164286"><ele>1786</ele><speed>12.75</speed><time>2016-06-21T16:20:33Z</time><pdop>3.0</pdop><geoidheight>54.00</geoidheight><course>344.6</course><type>1</type></trkpt>
      <trkpt lat="39.6123548" lon="-6.41166772"><ele>1789</ele><speed>12.50</speed><time>2016-06-21T16:20:34Z</time><pdop>3.0</pdop><geoidheight>54.00</geoidheight><course>349.8</course><type>1</type></trkpt>
      <trkpt lat="39.61246362" lon="-6.41167049"><ele>1791</ele><speed>11.75</speed><time>2016-06-21T16:20:35Z</time><pdop>3.0</pdop><geoidheight>54.00</geoidheight><course>357.2</course><type>1</type></trkpt>
      <trkpt lat="39.61255622" lon="-6.41165165"><ele>1792</ele><speed>10.75</speed><time>2016-06-21T16:20:36Z</time><pdop>3.0</pdop><geoidheight>54.00</geoidheight><course>7.9</course><type>1</type></trkpt>
      <trkpt lat="39.61272742" lon="-6.4115473099999996"><ele>1794</ele><speed>10.00</speed><time>2016-06-21T16:20:38Z</time><pdop>3.0</pdop><geoidheight>54.00</geoidheight><course>27.9</course><type>1</type></trkpt>
      <trkpt lat="39.6127915" lon="-6.41147277"><ele>1796</ele><speed>9.75</speed><time>2016-06-21T16:20:39Z</time><pdop>3.0</pdop><geoidheight>54.00</geoidheight><course>39.1</course><type>1</type></trkpt>
      <trkpt lat="39.61284844" lon="-6.41138467"><ele>1797</ele><speed>9.50</speed><time>2016-06-21T16:20:40Z</time><pdop>3.0</pdop><geoidheight>54.00</geoidheight><course>50.3</course><type>1</type></trkpt>
      <trkpt lat="39.61288598" lon="-6.41121032"><ele>1801</ele><speed>7.50</speed><time>2016-06-21T16:20:42Z</time><pdop>3.0</pdop><geoidheight>54.00</geoidheight><course>81.9</course><type>1</type></trkpt>
      <trkpt lat="39.61287872" lon="-6.41113357"><ele>1804</ele><speed>6.75</speed><time>2016-06-21T16:20:43Z</time><pdop>3.0</pdop><geoidheight>54.00</geoidheight><course>95.6</course><type>1</type></trkpt>
      <trkpt lat="39.6127848" lon="-6.41098106"><ele>1811</ele><speed>6.00</speed><time>2016-06-21T16:20:46Z</time><pdop>3.0</pdop><geoidheight>54.00</geoidheight><course>149.8</course><type>1</type></trkpt>
      <trkpt lat="39.61273098" lon="-6.41097222"><ele>1813</ele><speed>6.25</speed><time>2016-06-21T16:20:47Z</time><pdop>3.0</pdop><geoidheight>54.00</geoidheight><course>171.6</course><type>1</type></trkpt>
      <trkpt lat="39.61262866" lon="-6.41103618"><ele>1817</ele><speed>6.50</speed><time>2016-06-21T16:20:49Z</time><pdop>3.0</pdop><geoidheight>54.00</geoidheight><course>213.0</course><type>1</type></trkpt>
      <trkpt lat="39.61256398" lon="-6.41120529"><ele>1817</ele><speed>8.50</speed><time>2016-06-21T16:20:51Z</time><pdop>3.0</pdop><geoidheight>54.00</geoidheight><course>248.7</course><type>1</type></trkpt>
      <trkpt lat="39.61256564" lon="-6.41133328"><ele>1820</ele><speed>10.75</speed><time>2016-06-21T16:20:52Z</time><pdop>3.0</pdop><geoidheight>54.00</geoidheight><course>267.5</course><type>1</type></trkpt>
      <trkpt lat="39.61259709" lon="-6.41147647"><ele>1822</ele><speed>12.50</speed><time>2016-06-21T16:20:53Z</time><pdop>3.0</pdop><geoidheight>54.00</geoidheight><course>284.0</course><type>1</type></trkpt>
      <trkpt lat="39.61274956" lon="-6.4117066"><ele>1827</ele><speed>13.25</speed><time>2016-06-21T16:20:55Z</time><pdop>3.0</pdop><geoidheight>54.00</geoidheight><course>316.2</course><type>1</type></trkpt>
      <trkpt lat="39.61284283" lon="-6.41178509"><ele>1830</ele><speed>12.75</speed><time>2016-06-21T16:20:56Z</time><pdop>3.0</pdop><geoidheight>54.00</geoidheight><course>327.0</course><type>1</type></trkpt>
      <trkpt lat="39.61293985" lon="-6.41184442"><ele>1833</ele><speed>12.00</speed><time>2016-06-21T16:20:57Z</time><pdop>3.0</pdop><geoidheight>54.00</geoidheight><course>334.7</course><type>1</type></trkpt>
      <trkpt lat="39.61303757" lon="-6.41187912"><ele>1836</ele><speed>11.25</speed><time>2016-06-21T16:20:58Z</time><pdop>3.0</pdop><geoidheight>54.00</geoidheight><course>341.7</course><type>1</type></trkpt>
      <trkpt lat="39.61322291" lon="-6.41188397"><ele>1841</ele><speed>10.25</speed><time>2016-06-21T16:21:00Z</time><pdop>3.0</pdop><geoidheight>54.00</geoidheight><course>3.4</course><type>1</type></trkpt>
      <trkpt lat="39.61330702" lon="-6.41184654"><ele>1842</ele><speed>10.00</speed><time>2016-06-21T16:21:01Z</time><pdop>3.0</pdop><geoidheight>54.00</geoidheight><course>16.8</course><type>1</type></trkpt>
      <trkpt lat="39.61344437" lon="-6.41170086"><ele>1844</ele><speed>9.50</speed><time>2016-06-21T16:21:03Z</time><pdop>3.0</pdop><geoidheight>54.00</geoidheight><course>43.1</course><type>1</type></trkpt>
      <trkpt lat="39.61348714" lon="-6.411612"><ele>1846</ele><speed>9.00</speed><time>2016-06-21T16:21:04Z</time><pdop>3.0</pdop><geoidheight>54.00</geoidheight><course>58.0</course><type>1</type></trkpt>
      <trkpt lat="39.61350866" lon="-6.41151648"><ele>1847</ele><speed>8.50</speed><time>2016-06-21T16:21:05Z</time><pdop>3.0</pdop><geoidheight>54.00</geoidheight><course>73.8</course><type>1</type></trkpt>
      <trkpt lat="39.61349594" lon="-6.41133728"><ele>1851</ele><speed>7.50</speed><time>2016-06-21T16:21:07Z</time><pdop>3.0</pdop><geoidheight>54.00</geoidheight><course>99.9</course><type>1</type></trkpt>
      <trkpt lat="39.61347037" lon="-6.41127008"><ele>1854</ele><speed>6.50</speed><time>2016-06-21T16:21:08Z</time><pdop>3.0</pdop><geoidheight>54.00</geoidheight><course>114.5</course><type>1</type></trkpt>
      <trkpt lat="39.61334222" lon="-6.41110575"><ele>1860</ele><speed>7.75</speed><time>2016-06-21T16:21:11Z</time><pdop>3.0</pdop><geoidheight>54.00</geoidheight><course>137.7</course><type>1</type></trkpt>
      <trkpt lat="39.61321721" lon="-6.41104944"><ele>1865</ele><speed>7.50</speed><time>2016-06-21T16:21:13Z</time><pdop>3.0</pdop><geoidheight>54.00</geoidheight><course>170.1</course><type>1</type></trkpt>
      <trkpt lat="39.61314906" lon="-6.41107267"><ele>1868</ele><speed>7.75</speed><time>2016-06-21T16:21:14Z</time><pdop>3.0</pdop><geoidheight>54.00</geoidheight><course>192.2</course><type>1</type></trkpt>
      <trkpt lat="39.61309099" lon="-6.41112314"><ele>1870</ele><speed>7.75</speed><time>2016-06-21T16:21:15Z</time><pdop>3.0</pdop><geoidheight>54.00</geoidheight><course>211.9</course><type>1</type></trkpt>
      <trkpt lat="39.61305221" lon="-6.41119817"><ele>1874</ele><speed>7.50</speed><time>2016-06-21T16:21:16Z</time><pdop>3.0</pdop><geoidheight>54.00</geoidheight><course>233.9</course><type>1</type></trkpt>
      <trkpt lat="39.61303794" lon="-6.41129381"><ele>1876</ele><speed>8.00</speed><time>2016-06-21T16:21:17Z</time><pdop>3.0</pdop><geoidheight>54.00</geoidheight><course>255.5</course><type>1</type></trkpt>
      <trkpt lat="39.61304883" lon="-6.41139752"><ele>1878</ele><speed>8.75</speed><time>2016-06-21T16:21:18Z</time><pdop>4.0</pdop><geoidheight>54.00</geoidheight><course>276.1</course><type>1</type></trkpt>
      <trkpt lat="39.61308847" lon="-6.41149888"><ele>1879</ele><speed>10.00</speed><time>2016-06-21T16:21:19Z</time><pdop>4.0</pdop><geoidheight>54.00</geoidheight><course>294.6</course><type>1</type></trkpt>
      <trkpt lat="39.61323127" lon="-6.4117076"><ele>1880</ele><speed>12.25</speed><time>2016-06-21T16:21:21Z</time><pdop>4.0</pdop><geoidheight>54.00</geoidheight><course>310.6</course><type>1</type></trkpt>
      <trkpt lat="39.61335458" lon="-6.41175091"><ele>1883</ele><speed>13.00</speed><time>2016-06-21T16:21:22Z</time><pdop>3.0</pdop><geoidheight>54.00</geoidheight><course>333.2</course><type>1</type></trkpt>
      <trkpt lat="39.61359415" lon="-6.41178482"><ele>1887</ele><speed>13.25</speed><time>2016-06-21T16:21:24Z</time><pdop>3.0</pdop><geoidheight>54.00</geoidheight><course>357.5</course><type>1</type></trkpt>
      <trkpt lat="39.61371295" lon="-6.41176618"><ele>1889</ele><speed>13.00</speed><time>2016-06-21T16:21:25Z</time><pdop>4.0</pdop><geoidheight>54.00</geoidheight><course>4.7</course><type>1</type></trkpt>
      <trkpt lat="39.61381574" lon="-6.41172683"><ele>1892</ele><speed>12.00</speed><time>2016-06-21T16:21:26Z</time><pdop>3.0</pdop><geoidheight>54.00</geoidheight><course>13.1</course><type>1</type></trkpt>
      <trkpt lat="39.61399188" lon="-6.41162186"><ele>1896</ele><speed>11.00</speed><time>2016-06-21T16:21:28Z</time><pdop>3.0</pdop><geoidheight>54.00</geoidheight><course>28.2</course><type>1</type></trkpt>
      <trkpt lat="39.61406932" lon="-6.41153801"><ele>1897</ele><speed>11.25</speed><time>2016-06-21T16:21:29Z</time><pdop>3.0</pdop><geoidheight>54.00</geoidheight><course>38.3</course><type>1</type></trkpt>
      <trkpt lat="39.61416864" lon="-6.41131719"><ele>1901</ele><speed>10.50</speed><time>2016-06-21T16:21:31Z</time><pdop>3.0</pdop><geoidheight>54.00</geoidheight><course>67.1</course><type>1</type></trkpt>
      <trkpt lat="39.61417134" lon="-6.41121373"><ele>1896</ele><speed>9.00</speed><time>2016-06-21T16:21:32Z</time><pdop>3.0</pdop><geoidheight>54.00</geoidheight><course>84.5</course><type>1</type></trkpt>
      <trkpt lat="39.61415144" lon="-6.41113057"><ele>1901</ele><speed>7.50</speed><time>2016-06-21T16:21:33Z</time><pdop>3.0</pdop><geoidheight>54.00</geoidheight><course>105.2</course><type>1</type></trkpt>
      <trkpt lat="39.61406276" lon="-6.41102568"><ele>1908</ele><speed>6.75</speed><time>2016-06-21T16:21:35Z</time><pdop>3.0</pdop><geoidheight>54.00</geoidheight><course>144.7</course><type>1</type></trkpt>
      <trkpt lat="39.61394988" lon="-6.41099692"><ele>1915</ele><speed>6.50</speed><time>2016-06-21T16:21:37Z</time><pdop>3.0</pdop><geoidheight>54.00</geoidheight><course>176.7</course><type>1</type></trkpt>
      <trkpt lat="39.61385975" lon="-6.41107995"><ele>1921</ele><speed>6.25</speed><time>2016-06-21T16:21:39Z</time><pdop>3.0</pdop><geoidheight>54.00</geoidheight><course>226.8</course><type>1</type></trkpt>
      <trkpt lat="39.61383417" lon="-6.41116232"><ele>1923</ele><speed>7.50</speed><time>2016-06-21T16:21:40Z</time><pdop>3.0</pdop><geoidheight>54.00</geoidheight><course>244.6</course><type>1</type></trkpt>
      <trkpt lat="39.61378473" lon="-6.41130831"><ele>1925</ele><speed>6.75</speed><time>2016-06-21T16:21:42Z</time><pdop>5.0</pdop><geoidheight>54.00</geoidheight><course>244.9</course><type>1</type></trkpt>
      <trkpt lat="39.61380665" lon="-6.41142275"><ele>1925</ele><speed>7.00</speed><time>2016-06-21T16:21:43Z</time><pdop>5.0</pdop><geoidheight>54.00</geoidheight><course>265.3</course><type>1</type></trkpt>
      <trkpt lat="39.61392638" lon="-6.41153999"><ele>1928</ele><speed>10.00</speed><time>2016-06-21T16:21:44Z</time><pdop>3.0</pdop><geoidheight>54.00</geoidheight><course>307.1</course><type>1</type></trkpt>
      <trkpt lat="39.61400833" lon="-6.41162374"><ele>1929</ele><speed>11.50</speed><time>2016-06-21T16:21:45Z</time><pdop>3.0</pdop><geoidheight>54.00</geoidheight><course>320.0</course><type>1</type></trkpt>
      <trkpt lat="39.61408627" lon="-6.41170299"><ele>1930</ele><speed>12.00</speed><time>2016-06-21T16:21:46Z</time><pdop>4.0</pdop><geoidheight>54.00</geoidheight><course>324.5</course><type>1</type></trkpt>
      <trkpt lat="39.6141696" lon="-6.41175385"><ele>1931</ele><speed>10.75</speed><time>2016-06-21T16:21:47Z</time><pdop>4.0</pdop><geoidheight>54.00</geoidheight><course>330.1</course><type>1</type></trkpt>
      <trkpt lat="39.61428655" lon="-6.41180522"><ele>1932</ele><speed>12.25</speed><time>2016-06-21T16:21:48Z</time><pdop>4.0</pdop><geoidheight>54.00</geoidheight><course>335.2</course><type>1</type></trkpt>
      <trkpt lat="39.61441516" lon="-6.41172957"><ele>1934</ele><speed>12.50</speed><time>2016-06-21T16:21:49Z</time><pdop>4.0</pdop><geoidheight>54.00</geoidheight><course>6.6</course><type>1</type></trkpt>
      <trkpt lat="39.61451383" lon="-6.41166088"><ele>1936</ele><speed>12.25</speed><time>2016-06-21T16:21:50Z</time><pdop>3.0</pdop><geoidheight>54.00</geoidheight><course>23.6</course><type>1</type></trkpt>
      <trkpt lat="39.61464759" lon="-6.41146119"><ele>1937</ele><speed>11.50</speed><time>2016-06-21T16:21:52Z</time><pdop>4.0</pdop><geoidheight>54.00</geoidheight><course>56.2</course><type>1</type></trkpt>
      <trkpt lat="39.6146822" lon="-6.41134027"><ele>1940</ele><speed>10.75</speed><time>2016-06-21T16:21:53Z</time><pdop>3.0</pdop><geoidheight>54.00</geoidheight><course>68.5</course><type>1</type></trkpt>
      <trkpt lat="39.6146994" lon="-6.4112341"><ele>1945</ele><speed>9.00</speed><time>2016-06-21T16:21:54Z</time><pdop>3.0</pdop><geoidheight>54.00</geoidheight><course>78.5</course><type>1</type></trkpt>
      <trkpt lat="39.61472003" lon="-6.41106898"><ele>1953</ele><speed>6.50</speed><time>2016-06-21T16:21:56Z</time><pdop>3.0</pdop><geoidheight>54.00</geoidheight><course>75.8</course><type>1</type></trkpt>
      <trkpt lat="39.61476459" lon="-6.41095429"><ele>1956</ele><speed>5.25</speed><time>2016-06-21T16:21:58Z</time><pdop>3.0</pdop><geoidheight>54.00</geoidheight><course>68.4</course><type>1</type></trkpt>
      <trkpt lat="39.61469773" lon="-6.41075912"><ele>1962</ele><speed>7.00</speed><time>2016-06-21T16:22:01Z</time><pdop>3.0</pdop><geoidheight>54.00</geoidheight><course>130.1</course><type>1</type></trkpt>
      <trkpt lat="39.61460165" lon="-6.41074915"><ele>1970</ele><speed>5.50</speed><time>2016-06-21T16:22:03Z</time><pdop>3.0</pdop><geoidheight>54.00</geoidheight><course>191.1</course><type>1</type></trkpt>
      <trkpt lat="39.61456085" lon="-6.41080372"><ele>1972</ele><speed>6.25</speed><time>2016-06-21T16:22:04Z</time><pdop>3.0</pdop><geoidheight>54.00</geoidheight><course>223.8</course><type>1</type></trkpt>
      <trkpt lat="39.61453266" lon="-6.41088951"><ele>1974</ele><speed>7.75</speed><time>2016-06-21T16:22:05Z</time><pdop>3.0</pdop><geoidheight>54.00</geoidheight><course>244.2</course><type>1</type></trkpt>
      <trkpt lat="39.61450675" lon="-6.4111063"><ele>1979</ele><speed>9.75</speed><time>2016-06-21T16:22:07Z</time><pdop>3.0</pdop><geoidheight>54.00</geoidheight><course>264.0</course><type>1</type></trkpt>
      <trkpt lat="39.6145223" lon="-6.41123038"><ele>1981</ele><speed>10.50</speed><time>2016-06-21T16:22:08Z</time><pdop>3.0</pdop><geoidheight>54.00</geoidheight><course>278.2</course><type>1</type></trkpt>
      <trkpt lat="39.61457383" lon="-6.41135343"><ele>1982</ele><speed>11.50</speed><time>2016-06-21T16:22:09Z</time><pdop>3.0</pdop><geoidheight>54.00</geoidheight><course>296.3</course><type>1</type></trkpt>
      <trkpt lat="39.61463292" lon="-6.41147329"><ele>1983</ele><speed>12.50</speed><time>2016-06-21T16:22:10Z</time><pdop>4.0</pdop><geoidheight>54.00</geoidheight><course>302.4</course><type>1</type></trkpt>
      <trkpt lat="39.61475297" lon="-6.41151375"><ele>1986</ele><speed>12.50</speed><time>2016-06-21T16:22:11Z</time><pdop>3.0</pdop><geoidheight>54.00</geoidheight><course>335.1</course><type>1</type></trkpt>
      <trkpt lat="39.61496966" lon="-6.41151615"><ele>1992</ele><speed>11.75</speed><time>2016-06-21T16:22:13Z</time><pdop>3.0</pdop><geoidheight>54.00</geoidheight><course>4.2</course><type>1</type></trkpt>
      <trkpt lat="39.61505625" lon="-6.41148302"><ele>1994</ele><speed>10.25</speed><time>2016-06-21T16:22:14Z</time><pdop>3.0</pdop><geoidheight>54.00</geoidheight><course>16.4</course><type>1</type></trkpt>
      <trkpt lat="39.61512654" lon="-6.41143068"><ele>1995</ele><speed>9.50</speed><time>2016-06-21T16:22:15Z</time><pdop>3.0</pdop><geoidheight>54.00</geoidheight><course>30.2</course><type>1</type></trkpt>
      <trkpt lat="39.61518437" lon="-6.41135487"><ele>1996</ele><speed>9.00</speed><time>2016-06-21T16:22:16Z</time><pdop>3.0</pdop><geoidheight>54.00</geoidheight><course>44.3</course><type>1</type></trkpt>
      <trkpt lat="39.61523912" lon="-6.41117389"><ele>2000</ele><speed>8.25</speed><time>2016-06-21T16:22:18Z</time><pdop>3.0</pdop><geoidheight>54.00</geoidheight><course>74.8</course><type>1</type></trkpt>
      <trkpt lat="39.61523204" lon="-6.41108036"><ele>2003</ele><speed>7.75</speed><time>2016-06-21T16:22:19Z</time><pdop>3.0</pdop><geoidheight>54.00</geoidheight><course>92.8</course><type>1</type></trkpt>
      <trkpt lat="39.61521352" lon="-6.41099861"><ele>2006</ele><speed>7.50</speed><time>2016-06-21T16:22:20Z</time><pdop>3.0</pdop><geoidheight>54.00</geoidheight><course>106.7</course><type>1</type></trkpt>
      <trkpt lat="39.61516324" lon="-6.41085315"><ele>2012</ele><speed>6.50</speed><time>2016-06-21T16:22:22Z</time><pdop>3.0</pdop><geoidheight>54.00</geoidheight><course>118.1</course><type>1</type></trkpt>
      <trkpt lat="39.61510578" lon="-6.41077816"><ele>2018</ele><speed>4.25</speed><time>2016-06-21T16:22:24Z</time><pdop>3.0</pdop><geoidheight>54.00</geoidheight><course>146.1</course><type>1</type></trkpt>
      <trkpt lat="39.61501015" lon="-6.41078093"><ele>2019</ele><speed>6.00</speed><time>2016-06-21T16:22:26Z</time><pdop>3.0</pdop><geoidheight>54.00</geoidheight><course>187.3</course><type>1</type></trkpt>
      <trkpt lat="39.61489209" lon="-6.41088565"><ele>2023</ele><speed>8.25</speed><time>2016-06-21T16:22:28Z</time><pdop>3.0</pdop><geoidheight>54.00</geoidheight><course>220.8</course><type>1</type></trkpt>
      <trkpt lat="39.61485991" lon="-6.41099063"><ele>2024</ele><speed>9.50</speed><time>2016-06-21T16:22:29Z</time><pdop>3.0</pdop><geoidheight>54.00</geoidheight><course>246.1</course><type>1</type></trkpt>
      <trkpt lat="39.61486221" lon="-6.41111695"><ele>2025</ele><speed>10.75</speed><time>2016-06-21T16:22:30Z</time><pdop>3.0</pdop><geoidheight>54.00</geoidheight><course>269.4</course><type>1</type></trkpt>
      <trkpt lat="39.61489926" lon="-6.41124813"><ele>2026</ele><speed>12.00</speed><time>2016-06-21T16:22:31Z</time><pdop>3.0</pdop><geoidheight>54.00</geoidheight><course>288.8</course><type>1</type></trkpt>
      <trkpt lat="39.6150378" lon="-6.41146523"><ele>2031</ele><speed>12.25</speed><time>2016-06-21T16:22:33Z</time><pdop>4.0</pdop><geoidheight>54.00</geoidheight><course>309.5</course><type>1</type></trkpt>
      <trkpt lat="39.6151487" lon="-6.41150819"><ele>2034</ele><speed>12.00</speed><time>2016-06-21T16:22:34Z</time><pdop>3.0</pdop><geoidheight>54.00</geoidheight><course>333.0</course><type>1</type></trkpt>
      <trkpt lat="39.61524864" lon="-6.41154101"><ele>2038</ele><speed>11.50</speed><time>2016-06-21T16:22:35Z</time><pdop>3.0</pdop><geoidheight>54.00</geoidheight><course>342.3</course><type>1</type></trkpt>
      <trkpt lat="39.61543765" lon="-6.41152915"><ele>2041</ele><speed>10.00</speed><time>2016-06-21T16:22:37Z</time><pdop>4.0</pdop><geoidheight>54.00</geoidheight><course>7.6</course><type>1</type></trkpt>
      <trkpt lat="39.61552002" lon="-6.41147859"><ele>2042</ele><speed>10.00</speed><time>2016-06-21T16:22:38Z</time><pdop>3.0</pdop><geoidheight>54.00</geoidheight><course>23.4</course><type>1</type></trkpt>
      <trkpt lat="39.61560286" lon="-6.41143232"><ele>2043</ele><speed>10.00</speed><time>2016-06-21T16:22:39Z</time><pdop>5.0</pdop><geoidheight>54.00</geoidheight><course>23.4</course><type>1</type></trkpt>
      <trkpt lat="39.61569198" lon="-6.41122679"><ele>2050</ele><speed>9.00</speed><time>2016-06-21T16:22:41Z</time><pdop>3.0</pdop><geoidheight>54.00</geoidheight><course>57.9</course><type>1</type></trkpt>
      <trkpt lat="39.61571383" lon="-6.41114346"><ele>2054</ele><speed>7.50</speed><time>2016-06-21T16:22:42Z</time><pdop>3.0</pdop><geoidheight>54.00</geoidheight><course>71.1</course><type>1</type></trkpt>
      <trkpt lat="39.61571706" lon="-6.4109899"><ele>2059</ele><speed>6.50</speed><time>2016-06-21T16:22:44Z</time><pdop>5.0</pdop><geoidheight>54.00</geoidheight><course>90.0</course><type>1</type></trkpt>
      <trkpt lat="39.6156107" lon="-6.41090897"><ele>2061</ele><speed>6.25</speed><time>2016-06-21T16:22:46Z</time><pdop>3.0</pdop><geoidheight>54.00</geoidheight><course>147.9</course><type>1</type></trkpt>
      <trkpt lat="39.61548569" lon="-6.4109084"><ele>2062</ele><speed>7.25</speed><time>2016-06-21T16:22:48Z</time><pdop>3.0</pdop><geoidheight>54.00</geoidheight><course>185.2</course><type>1</type></trkpt>
      <trkpt lat="39.61542146" lon="-6.41094488"><ele>2063</ele><speed>8.00</speed><time>2016-06-21T16:22:49Z</time><pdop>3.0</pdop><geoidheight>54.00</geoidheight><course>202.4</course><type>1</type></trkpt>
      <trkpt lat="39.6153674" lon="-6.41100824"><ele>2064</ele><speed>8.00</speed><time>2016-06-21T16:22:50Z</time><pdop>3.0</pdop><geoidheight>54.00</geoidheight><course>220.4</course><type>1</type></trkpt>
      <trkpt lat="39.61531668" lon="-6.41119128"><ele>2066</ele><speed>8.75</speed><time>2016-06-21T16:22:52Z</time><pdop>3.0</pdop><geoidheight>54.00</geoidheight><course>256.8</course><type>1</type></trkpt>
      <trkpt lat="39.61531861" lon="-6.41130354"><ele>2066</ele><speed>9.50</speed><time>2016-06-21T16:22:53Z</time><pdop>3.0</pdop><geoidheight>54.00</geoidheight><course>268.9</course><type>1</type></trkpt>
      <trkpt lat="39.61534084" lon="-6.41142655"><ele>2065</ele><speed>10.50</speed><time>2016-06-21T16:22:54Z</time><pdop>3.0</pdop><geoidheight>54.00</geoidheight><course>280.8</course><type>1</type></trkpt>
      <trkpt lat="39.61546322" lon="-6.41163843"><ele>2067</ele><speed>11.75</speed><time>2016-06-21T16:22:56Z</time><pdop>3.0</pdop><geoidheight>54.00</geoidheight><course>314.1</course><type>1</type></trkpt>
      <trkpt lat="39.61556327" lon="-6.41169934"><ele>2068</ele><speed>12.25</speed><time>2016-06-21T16:22:57Z</time><pdop>3.0</pdop><geoidheight>54.00</geoidheight><course>332.4</course><type>1</type></trkpt>
      <trkpt lat="39.61566949" lon="-6.41173354"><ele>2069</ele><speed>12.00</speed><time>2016-06-21T16:22:58Z</time><pdop>3.0</pdop><geoidheight>54.00</geoidheight><course>344.7</course><type>1</type></trkpt>
      <trkpt lat="39.61577081" lon="-6.41174819"><ele>2071</ele><speed>11.00</speed><time>2016-06-21T16:22:59Z</time><pdop>3.0</pdop><geoidheight>54.00</geoidheight><course>351.5</course><type>1</type></trkpt>
      <trkpt lat="39.61586309" lon="-6.41175733"><ele>2075</ele><speed>10.25</speed><time>2016-06-21T16:23:00Z</time><pdop>3.0</pdop><geoidheight>54.00</geoidheight><course>355.1</course><type>1</type></trkpt>
      <trkpt lat="39.61595228" lon="-6.41176263"><ele>2079</ele><speed>10.25</speed><time>2016-06-21T16:23:01Z</time><pdop>3.0</pdop><geoidheight>54.00</geoidheight><course>357.2</course><type>1</type></trkpt>
      <trkpt lat="39.61612676" lon="-6.4117389"><ele>2086</ele><speed>9.50</speed><time>2016-06-21T16:23:03Z</time><pdop>3.0</pdop><geoidheight>54.00</geoidheight><course>8.7</course><type>1</type></trkpt>
      <trkpt lat="39.61620919" lon="-6.411705"><ele>2089</ele><speed>9.50</speed><time>2016-06-21T16:23:04Z</time><pdop>4.0</pdop><geoidheight>54.00</geoidheight><course>16.7</course><type>1</type></trkpt>
      <trkpt lat="39.61628476" lon="-6.41165693"><ele>2092</ele><speed>9.50</speed><time>2016-06-21T16:23:05Z</time><pdop>3.0</pdop><geoidheight>54.00</geoidheight><course>24.9</course><type>1</type></trkpt>
      <trkpt lat="39.6163455" lon="-6.41158685"><ele>2095</ele><speed>9.00</speed><time>2016-06-21T16:23:06Z</time><pdop>4.0</pdop><geoidheight>54.00</geoidheight><course>37.5</course><type>1</type></trkpt>
      <trkpt lat="39.61638604" lon="-6.4115065"><ele>2098</ele><speed>8.25</speed><time>2016-06-21T16:23:07Z</time><pdop>4.0</pdop><geoidheight>54.00</geoidheight><course>54.5</course><type>1</type></trkpt>
      <trkpt lat="39.61638184" lon="-6.41136295"><ele>2107</ele><speed>6.00</speed><time>2016-06-21T16:23:09Z</time><pdop>3.0</pdop><geoidheight>54.00</geoidheight><course>98.5</course><type>1</type></trkpt>
      <trkpt lat="39.61627742" lon="-6.41118005"><ele>2117</ele><speed>7.25</speed><time>2016-06-21T16:23:12Z</time><pdop>4.0</pdop><geoidheight>54.00</geoidheight><course>137.3</course><type>1</type></trkpt>
      <trkpt lat="39.61620637" lon="-6.411146"><ele>2121</ele><speed>8.25</speed><time>2016-06-21T16:23:13Z</time><pdop>3.0</pdop><geoidheight>54.00</geoidheight><course>156.0</course><type>1</type></trkpt>
      <trkpt lat="39.61612181" lon="-6.41113937"><ele>2124</ele><speed>8.75</speed><time>2016-06-21T16:23:14Z</time><pdop>3.0</pdop><geoidheight>54.00</geoidheight><course>172.9</course><type>1</type></trkpt>
      <trkpt lat="39.61598935" lon="-6.41119876"><ele>2127</ele><speed>7.25</speed><time>2016-06-21T16:23:16Z</time><pdop>3.0</pdop><geoidheight>54.00</geoidheight><course>206.9</course><type>1</type></trkpt>
      <trkpt lat="39.61595537" lon="-6.41126447"><ele>2128</ele><speed>6.75</speed><time>2016-06-21T16:23:17Z</time><pdop>3.0</pdop><geoidheight>54.00</geoidheight><course>232.7</course><type>1</type></trkpt>
      <trkpt lat="39.61591711" lon="-6.41142684"><ele>2128</ele><speed>7.25</speed><time>2016-06-21T16:23:19Z</time><pdop>5.0</pdop><geoidheight>54.00</geoidheight><course>251.8</course><type>1</type></trkpt>
      <trkpt lat="39.61592449" lon="-6.41154337"><ele>2127</ele><speed>8.75</speed><time>2016-06-21T16:23:20Z</time><pdop>4.0</pdop><geoidheight>54.00</geoidheight><course>265.6</course><type>1</type></trkpt>
      <trkpt lat="39.61599926" lon="-6.41175485"><ele>2127</ele><speed>10.75</speed><time>2016-06-21T16:23:22Z</time><pdop>3.0</pdop><geoidheight>54.00</geoidheight><course>302.8</course><type>1</type></trkpt>
      <trkpt lat="39.61609109" lon="-6.41183536"><ele>2126</ele><speed>12.00</speed><time>2016-06-21T16:23:23Z</time><pdop>3.0</pdop><geoidheight>54.00</geoidheight><course>323.3</course><type>1</type></trkpt>
      <trkpt lat="39.61620234" lon="-6.41188202"><ele>2127</ele><speed>13.00</speed><time>2016-06-21T16:23:24Z</time><pdop>3.0</pdop><geoidheight>54.00</geoidheight><course>339.9</course><type>1</type></trkpt>
      <trkpt lat="39.61631821" lon="-6.41189844"><ele>2129</ele><speed>12.75</speed><time>2016-06-21T16:23:25Z</time><pdop>3.0</pdop><geoidheight>54.00</geoidheight><course>351.4</course><type>1</type></trkpt>
      <trkpt lat="39.61650462" lon="-6.41188552"><ele>2140</ele><speed>9.50</speed><time>2016-06-21T16:23:27Z</time><pdop>3.0</pdop><geoidheight>54.00</geoidheight><course>6.1</course><type>1</type></trkpt>
      <trkpt lat="39.61657155" lon="-6.41187856"><ele>2145</ele><speed>7.75</speed><time>2016-06-21T16:23:28Z</time><pdop>3.0</pdop><geoidheight>54.00</geoidheight><course>7.1</course><type>1</type></trkpt>
      <trkpt lat="39.61668102" lon="-6.41186699"><ele>2151</ele><speed>6.50</speed><time>2016-06-21T16:23:30Z</time><pdop>4.0</pdop><geoidheight>54.00</geoidheight><course>3.0</course><type>1</type></trkpt>
      <trkpt lat="39.61680501" lon="-6.41183189"><ele>2154</ele><speed>6.75</speed><time>2016-06-21T16:23:32Z</time><pdop>4.0</pdop><geoidheight>54.00</geoidheight><course>9.4</course><type>1</type></trkpt>
      <trkpt lat="39.61698502" lon="-6.41181626"><ele>2162</ele><speed>9.25</speed><time>2016-06-21T16:23:34Z</time><pdop>4.0</pdop><geoidheight>54.00</geoidheight><course>5.8</course><type>1</type></trkpt>
      <trkpt lat="39.6170677" lon="-6.41180679"><ele>2166</ele><speed>9.25</speed><time>2016-06-21T16:23:35Z</time><pdop>3.0</pdop><geoidheight>54.00</geoidheight><course>5.3</course><type>1</type></trkpt>
      <trkpt lat="39.61722539" lon="-6.41178163"><ele>2173</ele><speed>8.75</speed><time>2016-06-21T16:23:37Z</time><pdop>3.0</pdop><geoidheight>54.00</geoidheight><course>8.5</course><type>1</type></trkpt>
      <trkpt lat="39.61729553" lon="-6.4117516"><ele>2177</ele><speed>8.50</speed><time>2016-06-21T16:23:38Z</time><pdop>3.0</pdop><geoidheight>54.00</geoidheight><course>15.7</course><type>1</type></trkpt>
      <trkpt lat="39.617365649999996" lon="-6.41170439"><ele>2180</ele><speed>8.50</speed><time>2016-06-21T16:23:39Z</time><pdop>3.0</pdop><geoidheight>54.00</geoidheight><course>25.7</course><type>1</type></trkpt>
      <trkpt lat="39.61742746" lon="-6.41164083"><ele>2183</ele><speed>8.75</speed><time>2016-06-21T16:23:40Z</time><pdop>3.0</pdop><geoidheight>54.00</geoidheight><course>37.3</course><type>1</type></trkpt>
      <trkpt lat="39.61750023" lon="-6.41148483"><ele>2190</ele><speed>7.50</speed><time>2016-06-21T16:23:42Z</time><pdop>3.0</pdop><geoidheight>54.00</geoidheight><course>63.2</course><type>1</type></trkpt>
      <trkpt lat="39.61750935" lon="-6.41140306"><ele>2193</ele><speed>7.25</speed><time>2016-06-21T16:23:43Z</time><pdop>3.0</pdop><geoidheight>54.00</geoidheight><course>76.6</course><type>1</type></trkpt>
      <trkpt lat="39.61749595" lon="-6.41124621"><ele>2201</ele><speed>6.75</speed><time>2016-06-21T16:23:45Z</time><pdop>3.0</pdop><geoidheight>54.00</geoidheight><course>108.6</course><type>1</type></trkpt>
      <trkpt lat="39.6174569" lon="-6.41118713"><ele>2205</ele><speed>6.75</speed><time>2016-06-21T16:23:46Z</time><pdop>3.0</pdop><geoidheight>54.00</geoidheight><course>129.8</course><type>1</type></trkpt>
      <trkpt lat="39.61739884" lon="-6.41114795"><ele>2209</ele><speed>7.25</speed><time>2016-06-21T16:23:47Z</time><pdop>3.0</pdop><geoidheight>54.00</geoidheight><course>150.0</course><type>1</type></trkpt>
      <trkpt lat="39.61733452" lon="-6.4111285"><ele>2214</ele><speed>7.50</speed><time>2016-06-21T16:23:48Z</time><pdop>4.0</pdop><geoidheight>54.00</geoidheight><course>164.9</course><type>1</type></trkpt>
      <trkpt lat="39.61721618" lon="-6.41118427"><ele>2222</ele><speed>6.50</speed><time>2016-06-21T16:23:50Z</time><pdop>3.0</pdop><geoidheight>54.00</geoidheight><course>206.0</course><type>1</type></trkpt>
      <trkpt lat="39.61718326" lon="-6.41124695"><ele>2225</ele><speed>6.25</speed><time>2016-06-21T16:23:51Z</time><pdop>3.0</pdop><geoidheight>54.00</geoidheight><course>230.0</course><type>1</type></trkpt>
      <trkpt lat="39.61715932" lon="-6.41145341"><ele>2224</ele><speed>6.50</speed><time>2016-06-21T16:23:54Z</time><pdop>4.0</pdop><geoidheight>54.00</geoidheight><course>271.4</course><type>1</type></trkpt>
      <trkpt lat="39.61719246" lon="-6.41162483"><ele>2232</ele><speed>8.25</speed><time>2016-06-21T16:23:56Z</time><pdop>4.0</pdop><geoidheight>54.00</geoidheight><course>285.5</course><type>1</type></trkpt>
      <trkpt lat="39.61724737" lon="-6.41170791"><ele>2238</ele><speed>9.00</speed><time>2016-06-21T16:23:57Z</time><pdop>3.0</pdop><geoidheight>54.00</geoidheight><course>302.1</course><type>1</type></trkpt>
      <trkpt lat="39.61729665" lon="-6.41180092"><ele>2244</ele><speed>9.50</speed><time>2016-06-21T16:23:58Z</time><pdop>3.0</pdop><geoidheight>54.00</geoidheight><course>304.6</course><type>1</type></trkpt>
      <trkpt lat="39.6173992" lon="-6.41193922"><ele>2255</ele><speed>7.75</speed><time>2016-06-21T16:24:00Z</time><pdop>3.0</pdop><geoidheight>54.00</geoidheight><course>317.6</course><type>1</type></trkpt>
      <trkpt lat="39.61752269" lon="-6.41199832"><ele>2261</ele><speed>7.25</speed><time>2016-06-21T16:24:02Z</time><pdop>3.0</pdop><geoidheight>54.00</geoidheight><course>343.4</course><type>1</type></trkpt>
      <trkpt lat="39.61768636" lon="-6.41197017"><ele>2264</ele><speed>9.50</speed><time>2016-06-21T16:24:04Z</time><pdop>3.0</pdop><geoidheight>54.00</geoidheight><course>12.7</course><type>1</type></trkpt>
      <trkpt lat="39.6177679" lon="-6.41190856"><ele>2267</ele><speed>10.25</speed><time>2016-06-21T16:24:05Z</time><pdop>3.0</pdop><geoidheight>54.00</geoidheight><course>28.8</course><type>1</type></trkpt>
      <trkpt lat="39.61788333" lon="-6.4117287"><ele>2275</ele><speed>9.75</speed><time>2016-06-21T16:24:07Z</time><pdop>3.0</pdop><geoidheight>54.00</geoidheight><course>54.3</course><type>1</type></trkpt>
      <trkpt lat="39.6179203" lon="-6.41162804"><ele>2279</ele><speed>9.25</speed><time>2016-06-21T16:24:08Z</time><pdop>4.0</pdop><geoidheight>54.00</geoidheight><course>63.8</course><type>1</type></trkpt>
      <trkpt lat="39.6179127" lon="-6.41145014"><ele>2286</ele><speed>8.00</speed><time>2016-06-21T16:24:10Z</time><pdop>3.0</pdop><geoidheight>54.00</geoidheight><course>97.7</course><type>1</type></trkpt>
      <trkpt lat="39.61788117" lon="-6.41135556"><ele>2290</ele><speed>8.50</speed><time>2016-06-21T16:24:11Z</time><pdop>3.0</pdop><geoidheight>54.00</geoidheight><course>111.9</course><type>1</type></trkpt>
      <trkpt lat="39.6177857" lon="-6.41120882"><ele>2299</ele><speed>8.00</speed><time>2016-06-21T16:24:13Z</time><pdop>3.0</pdop><geoidheight>54.00</geoidheight><course>134.5</course><type>1</type></trkpt>
      <trkpt lat="39.61773191" lon="-6.41115268"><ele>2302</ele><speed>8.00</speed><time>2016-06-21T16:24:14Z</time><pdop>3.0</pdop><geoidheight>54.00</geoidheight><course>143.6</course><type>1</type></trkpt>
      <trkpt lat="39.6176673" lon="-6.41111323"><ele>2305</ele><speed>8.00</speed><time>2016-06-21T16:24:15Z</time><pdop>3.0</pdop><geoidheight>54.00</geoidheight><course>151.5</course><type>1</type></trkpt>
      <trkpt lat="39.61760428" lon="-6.41109039"><ele>2307</ele><speed>7.25</speed><time>2016-06-21T16:24:16Z</time><pdop>3.0</pdop><geoidheight>54.00</geoidheight><course>164.0</course><type>1</type></trkpt>
      <trkpt lat="39.61754211" lon="-6.41110309"><ele>2309</ele><speed>6.50</speed><time>2016-06-21T16:24:17Z</time><pdop>3.0</pdop><geoidheight>54.00</geoidheight><course>186.1</course><type>1</type></trkpt>
      <trkpt lat="39.61745247" lon="-6.41124144"><ele>2309</ele><speed>8.00</speed><time>2016-06-21T16:24:19Z</time><pdop>3.0</pdop><geoidheight>54.00</geoidheight><course>238.1</course><type>1</type></trkpt>
      <trkpt lat="39.61744023" lon="-6.41134744"><ele>2310</ele><speed>9.25</speed><time>2016-06-21T16:24:20Z</time><pdop>3.0</pdop><geoidheight>54.00</geoidheight><course>259.0</course><type>1</type></trkpt>
      <trkpt lat="39.61749684" lon="-6.41158313"><ele>2311</ele><speed>10.75</speed><time>2016-06-21T16:24:22Z</time><pdop>3.0</pdop><geoidheight>54.00</geoidheight><course>293.3</course><type>1</type></trkpt>
      <trkpt lat="39.61755327" lon="-6.41170624"><ele>2313</ele><speed>12.25</speed><time>2016-06-21T16:24:23Z</time><pdop>4.0</pdop><geoidheight>54.00</geoidheight><course>299.8</course><type>1</type></trkpt>
      <trkpt lat="39.61763324" lon="-6.41181586"><ele>2316</ele><speed>12.75</speed><time>2016-06-21T16:24:24Z</time><pdop>3.0</pdop><geoidheight>54.00</geoidheight><course>309.0</course><type>1</type></trkpt>
      <trkpt lat="39.61777921" lon="-6.41197477"><ele>2327</ele><speed>9.75</speed><time>2016-06-21T16:24:26Z</time><pdop>3.0</pdop><geoidheight>54.00</geoidheight><course>324.3</course><type>1</type></trkpt>
      <trkpt lat="39.61784829" lon="-6.41201395"><ele>2332</ele><speed>8.50</speed><time>2016-06-21T16:24:27Z</time><pdop>3.0</pdop><geoidheight>54.00</geoidheight><course>335.2</course><type>1</type></trkpt>
      <trkpt lat="39.61791462" lon="-6.4120511"><ele>2334</ele><speed>8.00</speed><time>2016-06-21T16:24:28Z</time><pdop>4.0</pdop><geoidheight>54.00</geoidheight><course>338.6</course><type>1</type></trkpt>
      <trkpt lat="39.61805145" lon="-6.41211875"><ele>2338</ele><speed>8.50</speed><time>2016-06-21T16:24:30Z</time><pdop>4.0</pdop><geoidheight>54.00</geoidheight><course>340.2</course><type>1</type></trkpt>
      <trkpt lat="39.61823911" lon="-6.41217594"><ele>2343</ele><speed>10.25</speed><time>2016-06-21T16:24:32Z</time><pdop>5.0</pdop><geoidheight>54.00</geoidheight><course>345.0</course><type>1</type></trkpt>
      <trkpt lat="39.61843953" lon="-6.41210559"><ele>2351</ele><speed>10.50</speed><time>2016-06-21T16:24:34Z</time><pdop>3.0</pdop><geoidheight>54.00</geoidheight><course>12.7</course><type>1</type></trkpt>
      <trkpt lat="39.61860282" lon="-6.41201947"><ele>2358</ele><speed>9.75</speed><time>2016-06-21T16:24:36Z</time><pdop>3.0</pdop><geoidheight>54.00</geoidheight><course>23.5</course><type>1</type></trkpt>
      <trkpt lat="39.61867578" lon="-6.41196603"><ele>2362</ele><speed>9.75</speed><time>2016-06-21T16:24:37Z</time><pdop>3.0</pdop><geoidheight>54.00</geoidheight><course>29.2</course><type>1</type></trkpt>
      <trkpt lat="39.61880852" lon="-6.4118248"><ele>2369</ele><speed>9.25</speed><time>2016-06-21T16:24:39Z</time><pdop>3.0</pdop><geoidheight>54.00</geoidheight><course>39.2</course><type>1</type></trkpt>
      <trkpt lat="39.61886598" lon="-6.41174861"><ele>2373</ele><speed>8.75</speed><time>2016-06-21T16:24:40Z</time><pdop>3.0</pdop><geoidheight>54.00</geoidheight><course>44.2</course><type>1</type></trkpt>
      <trkpt lat="39.61891132" lon="-6.41166959"><ele>2377</ele><speed>8.50</speed><time>2016-06-21T16:24:41Z</time><pdop>3.0</pdop><geoidheight>54.00</geoidheight><course>53.4</course><type>1</type></trkpt>
      <trkpt lat="39.61895636" lon="-6.41148905"><ele>2384</ele><speed>8.00</speed><time>2016-06-21T16:24:43Z</time><pdop>3.0</pdop><geoidheight>54.00</geoidheight><course>78.3</course><type>1</type></trkpt>
      <trkpt lat="39.61895318" lon="-6.41140573"><ele>2387</ele><speed>7.25</speed><time>2016-06-21T16:24:44Z</time><pdop>3.0</pdop><geoidheight>54.00</geoidheight><course>90.5</course><type>1</type></trkpt>
      <trkpt lat="39.61885441" lon="-6.41125079"><ele>2395</ele><speed>6.00</speed><time>2016-06-21T16:24:47Z</time><pdop>3.0</pdop><geoidheight>54.00</geoidheight><course>142.0</course><type>1</type></trkpt>
      <trkpt lat="39.61875202" lon="-6.41116605"><ele>2399</ele><speed>6.75</speed><time>2016-06-21T16:24:49Z</time><pdop>3.0</pdop><geoidheight>54.00</geoidheight><course>147.6</course><type>1</type></trkpt>
      <trkpt lat="39.61864001" lon="-6.41111744"><ele>2405</ele><speed>6.50</speed><time>2016-06-21T16:24:51Z</time><pdop>3.0</pdop><geoidheight>54.00</geoidheight><course>167.8</course><type>1</type></trkpt>
      <trkpt lat="39.61857893" lon="-6.4111292"><ele>2407</ele><speed>7.00</speed><time>2016-06-21T16:24:52Z</time><pdop>3.0</pdop><geoidheight>54.00</geoidheight><course>187.4</course><type>1</type></trkpt>
      <trkpt lat="39.61851354" lon="-6.41117146"><ele>2410</ele><speed>7.75</speed><time>2016-06-21T16:24:53Z</time><pdop>3.0</pdop><geoidheight>54.00</geoidheight><course>203.8</course><type>1</type></trkpt>
      <trkpt lat="39.61845763" lon="-6.41122793"><ele>2412</ele><speed>8.00</speed><time>2016-06-21T16:24:54Z</time><pdop>3.0</pdop><geoidheight>54.00</geoidheight><course>216.9</course><type>1</type></trkpt>
      <trkpt lat="39.61836719" lon="-6.41138083"><ele>2415</ele><speed>8.25</speed><time>2016-06-21T16:24:56Z</time><pdop>3.0</pdop><geoidheight>54.00</geoidheight><course>233.1</course><type>1</type></trkpt>
      <trkpt lat="39.61831825" lon="-6.41146445"><ele>2388</ele><speed>8.75</speed><time>2016-06-21T16:24:57Z</time><pdop>4.0</pdop><geoidheight>54.00</geoidheight><course>234.5</course><type>1</type></trkpt>
      <trkpt lat="39.61827108" lon="-6.41166087"><ele>2408</ele><speed>9.25</speed><time>2016-06-21T16:24:59Z</time><pdop>3.0</pdop><geoidheight>54.00</geoidheight><course>257.7</course><type>1</type></trkpt>
      <trkpt lat="39.61828301" lon="-6.41178287"><ele>2414</ele><speed>10.25</speed><time>2016-06-21T16:25:00Z</time><pdop>3.0</pdop><geoidheight>54.00</geoidheight><course>274.7</course><type>1</type></trkpt>
      <trkpt lat="39.61830907" lon="-6.41190614"><ele>2419</ele><speed>11.00</speed><time>2016-06-21T16:25:01Z</time><pdop>4.0</pdop><geoidheight>54.00</geoidheight><course>284.1</course><type>1</type></trkpt>
      <trkpt lat="39.61840143" lon="-6.41212643"><ele>2429</ele><speed>10.25</speed><time>2016-06-21T16:25:03Z</time><pdop>3.0</pdop><geoidheight>54.00</geoidheight><course>300.8</course><type>1</type></trkpt>
      <trkpt lat="39.618451" lon="-6.41222626"><ele>2433</ele><speed>10.25</speed><time>2016-06-21T16:25:04Z</time><pdop>4.0</pdop><geoidheight>54.00</geoidheight><course>301.9</course><type>1</type></trkpt>
      <trkpt lat="39.61851328" lon="-6.41230802"><ele>2421</ele><speed>9.75</speed><time>2016-06-21T16:25:05Z</time><pdop>3.0</pdop><geoidheight>54.00</geoidheight><course>310.1</course><type>1</type></trkpt>
      <trkpt lat="39.61857212" lon="-6.41238226"><ele>2433</ele><speed>9.25</speed><time>2016-06-21T16:25:06Z</time><pdop>3.0</pdop><geoidheight>54.00</geoidheight><course>314.6</course><type>1</type></trkpt>
      <trkpt lat="39.61870619" lon="-6.41250568"><ele>2446</ele><speed>9.25</speed><time>2016-06-21T16:25:08Z</time><pdop>4.0</pdop><geoidheight>54.00</geoidheight><course>325.8</course><type>1</type></trkpt>
      <trkpt lat="39.61879273" lon="-6.41254235"><ele>2451</ele><speed>9.75</speed><time>2016-06-21T16:25:09Z</time><pdop>4.0</pdop><geoidheight>54.00</geoidheight><course>335.7</course><type>1</type></trkpt>
      <trkpt lat="39.61887976" lon="-6.41257378"><ele>2455</ele><speed>10.00</speed><time>2016-06-21T16:25:10Z</time><pdop>3.0</pdop><geoidheight>54.00</geoidheight><course>341.3</course><type>1</type></trkpt>
      <trkpt lat="39.61896617" lon="-6.41259621"><ele>2453</ele><speed>9.75</speed><time>2016-06-21T16:25:11Z</time><pdop>3.0</pdop><geoidheight>54.00</geoidheight><course>348.8</course><type>1</type></trkpt>
      <trkpt lat="39.61904857" lon="-6.41260149"><ele>2459</ele><speed>9.25</speed><time>2016-06-21T16:25:12Z</time><pdop>3.0</pdop><geoidheight>54.00</geoidheight><course>356.5</course><type>1</type></trkpt>
      <trkpt lat="39.61918899" lon="-6.41256034"><ele>2466</ele><speed>8.00</speed><time>2016-06-21T16:25:14Z</time><pdop>4.0</pdop><geoidheight>54.00</geoidheight><course>15.4</course><type>1</type></trkpt>
      <trkpt lat="39.61926186" lon="-6.41251882"><ele>2467</ele><speed>8.75</speed><time>2016-06-21T16:25:15Z</time><pdop>4.0</pdop><geoidheight>54.00</geoidheight><course>23.7</course><type>1</type></trkpt>
      <trkpt lat="39.61933574" lon="-6.41245877"><ele>2467</ele><speed>9.50</speed><time>2016-06-21T16:25:16Z</time><pdop>3.0</pdop><geoidheight>54.00</geoidheight><course>32.1</course><type>1</type></trkpt>
      <trkpt lat="39.61943776" lon="-6.41229287"><ele>2473</ele><speed>9.00</speed><time>2016-06-21T16:25:18Z</time><pdop>3.0</pdop><geoidheight>54.00</geoidheight><course>55.5</course><type>1</type></trkpt>
      <trkpt lat="39.61946751" lon="-6.41219774"><ele>2477</ele><speed>8.50</speed><time>2016-06-21T16:25:19Z</time><pdop>3.0</pdop><geoidheight>54.00</geoidheight><course>68.6</course><type>1</type></trkpt>
      <trkpt lat="39.61948021" lon="-6.41211342"><ele>2481</ele><speed>7.25</speed><time>2016-06-21T16:25:20Z</time><pdop>3.0</pdop><geoidheight>54.00</geoidheight><course>77.6</course><type>1</type></trkpt>
      <trkpt lat="39.6194346" lon="-6.41197528"><ele>2492</ele><speed>4.25</speed><time>2016-06-21T16:25:23Z</time><pdop>3.0</pdop><geoidheight>54.00</geoidheight><course>137.9</course><type>1</type></trkpt>
      <trkpt lat="39.61933638" lon="-6.41196167"><ele>2496</ele><speed>6.00</speed><time>2016-06-21T16:25:25Z</time><pdop>3.0</pdop><geoidheight>54.00</geoidheight><course>179.0</course><type>1</type></trkpt>
      <trkpt lat="39.61927837" lon="-6.41199479"><ele>2498</ele><speed>6.75</speed><time>2016-06-21T16:25:26Z</time><pdop>3.0</pdop><geoidheight>54.00</geoidheight><course>199.0</course><type>1</type></trkpt>
      <trkpt lat="39.61922457" lon="-6.41205842"><ele>2500</ele><speed>8.00</speed><time>2016-06-21T16:25:27Z</time><pdop>3.0</pdop><geoidheight>54.00</geoidheight><course>220.8</course><type>1</type></trkpt>
      <trkpt lat="39.61916034" lon="-6.41227168"><ele>2505</ele><speed>10.25</speed><time>2016-06-21T16:25:29Z</time><pdop>4.0</pdop><geoidheight>54.00</geoidheight><course>256.2</course><type>1</type></trkpt>
      <trkpt lat="39.61916686" lon="-6.41238862"><ele>2509</ele><speed>10.00</speed><time>2016-06-21T16:25:30Z</time><pdop>3.0</pdop><geoidheight>54.00</geoidheight><course>270.5</course><type>1</type></trkpt>
      <trkpt lat="39.61918402" lon="-6.41249594"><ele>2513</ele><speed>9.00</speed><time>2016-06-21T16:25:31Z</time><pdop>3.0</pdop><geoidheight>54.00</geoidheight><course>281.2</course><type>1</type></trkpt>
      <trkpt lat="39.61921393" lon="-6.4125888"><ele>2495</ele><speed>8.25</speed><time>2016-06-21T16:25:32Z</time><pdop>3.0</pdop><geoidheight>54.00</geoidheight><course>290.6</course><type>1</type></trkpt>
      <trkpt lat="39.61924489" lon="-6.4126809"><ele>2506</ele><speed>8.75</speed><time>2016-06-21T16:25:33Z</time><pdop>4.0</pdop><geoidheight>54.00</geoidheight><course>293.3</course><type>1</type></trkpt>
      <trkpt lat="39.61928419" lon="-6.41277922"><ele>2509</ele><speed>9.50</speed><time>2016-06-21T16:25:34Z</time><pdop>4.0</pdop><geoidheight>54.00</geoidheight><course>296.5</course><type>1</type></trkpt>
      <trkpt lat="39.619364589999996" lon="-6.41284118"><ele>2515</ele><speed>10.00</speed><time>2016-06-21T16:25:35Z</time><pdop>3.0</pdop><geoidheight>54.00</geoidheight><course>313.2</course><type>1</type></trkpt>
      <trkpt lat="39.61942809" lon="-6.41292633"><ele>2518</ele><speed>10.25</speed><time>2016-06-21T16:25:36Z</time><pdop>4.0</pdop><geoidheight>54.00</geoidheight><course>313.7</course><type>1</type></trkpt>
      <trkpt lat="39.61951802" lon="-6.41297789"><ele>2523</ele><speed>10.50</speed><time>2016-06-21T16:25:37Z</time><pdop>3.0</pdop><geoidheight>54.00</geoidheight><course>326.6</course><type>1</type></trkpt>
      <trkpt lat="39.61960272" lon="-6.41301632"><ele>2526</ele><speed>10.00</speed><time>2016-06-21T16:25:38Z</time><pdop>3.0</pdop><geoidheight>54.00</geoidheight><course>337.3</course><type>1</type></trkpt>
      <trkpt lat="39.61969387" lon="-6.41303119"><ele>2528</ele><speed>9.75</speed><time>2016-06-21T16:25:39Z</time><pdop>3.0</pdop><geoidheight>54.00</geoidheight><course>347.9</course><type>1</type></trkpt>
      <trkpt lat="39.61978389" lon="-6.41304699"><ele>2530</ele><speed>10.00</speed><time>2016-06-21T16:25:40Z</time><pdop>3.0</pdop><geoidheight>54.00</geoidheight><course>350.7</course><type>1</type></trkpt>
      <trkpt lat="39.61997266" lon="-6.41309098"><ele>2534</ele><speed>10.75</speed><time>2016-06-21T16:25:42Z</time><pdop>3.0</pdop><geoidheight>54.00</geoidheight><course>350.8</course><type>1</type></trkpt>
      <trkpt lat="39.62006127" lon="-6.41308542"><ele>2538</ele><speed>10.00</speed><time>2016-06-21T16:25:43Z</time><pdop>3.0</pdop><geoidheight>54.00</geoidheight><course>358.9</course><type>1</type></trkpt>
      <trkpt lat="39.6201403" lon="-6.41306529"><ele>2541</ele><speed>9.00</speed><time>2016-06-21T16:25:44Z</time><pdop>3.0</pdop><geoidheight>54.00</geoidheight><course>10.4</course><type>1</type></trkpt>
      <trkpt lat="39.62027276" lon="-6.41297637"><ele>2530</ele><speed>8.00</speed><time>2016-06-21T16:25:46Z</time><pdop>3.0</pdop><geoidheight>54.00</geoidheight><course>28.9</course><type>1</type></trkpt>
      <trkpt lat="39.62038466" lon="-6.41286635"><ele>2544</ele><speed>7.50</speed><time>2016-06-21T16:25:48Z</time><pdop>4.0</pdop><geoidheight>54.00</geoidheight><course>36.9</course><type>1</type></trkpt>
      <trkpt lat="39.6204253" lon="-6.412802"><ele>2548</ele><speed>7.25</speed><time>2016-06-21T16:25:49Z</time><pdop>3.0</pdop><geoidheight>54.00</geoidheight><course>48.5</course><type>1</type></trkpt>
      <trkpt lat="39.62045832" lon="-6.41272717"><ele>2550</ele><speed>7.50</speed><time>2016-06-21T16:25:50Z</time><pdop>3.0</pdop><geoidheight>54.00</geoidheight><course>60.7</course><type>1</type></trkpt>
      <trkpt lat="39.62047354" lon="-6.41264388"><ele>2553</ele><speed>7.50</speed><time>2016-06-21T16:25:51Z</time><pdop>3.0</pdop><geoidheight>54.00</geoidheight><course>74.5</course><type>1</type></trkpt>
      <trkpt lat="39.62042982" lon="-6.41248509"><ele>2558</ele><speed>7.25</speed><time>2016-06-21T16:25:53Z</time><pdop>3.0</pdop><geoidheight>54.00</geoidheight><course>118.6</course><type>1</type></trkpt>
      <trkpt lat="39.620382" lon="-6.41243855"><ele>2561</ele><speed>6.75</speed><time>2016-06-21T16:25:54Z</time><pdop>3.0</pdop><geoidheight>54.00</geoidheight><course>140.7</course><type>1</type></trkpt>
      <trkpt lat="39.62027988" lon="-6.41241077"><ele>2567</ele><speed>5.75</speed><time>2016-06-21T16:25:56Z</time><pdop>3.0</pdop><geoidheight>54.00</geoidheight><course>177.3</course><type>1</type></trkpt>
      <trkpt lat="39.62022543" lon="-6.41243822"><ele>2570</ele><speed>6.25</speed><time>2016-06-21T16:25:57Z</time><pdop>3.0</pdop><geoidheight>54.00</geoidheight><course>196.1</course><type>1</type></trkpt>
      <trkpt lat="39.62010872" lon="-6.41255994"><ele>2572</ele><speed>8.75</speed><time>2016-06-21T16:25:59Z</time><pdop>3.0</pdop><geoidheight>54.00</geoidheight><course>222.0</course><type>1</type></trkpt>
      <trkpt lat="39.62000634" lon="-6.41276114"><ele>2579</ele><speed>10.50</speed><time>2016-06-21T16:26:01Z</time><pdop>4.0</pdop><geoidheight>54.00</geoidheight><course>239.4</course><type>1</type></trkpt>
      <trkpt lat="39.61992326" lon="-6.41298666"><ele>2581</ele><speed>10.50</speed><time>2016-06-21T16:26:03Z</time><pdop>4.0</pdop><geoidheight>54.00</geoidheight><course>244.8</course><type>1</type></trkpt>
      <trkpt lat="39.61992369" lon="-6.41307591"><ele>2587</ele><speed>8.75</speed><time>2016-06-21T16:26:04Z</time><pdop>3.0</pdop><geoidheight>54.00</geoidheight><course>258.8</course><type>1</type></trkpt>
      <trkpt lat="39.61992041" lon="-6.41316909"><ele>2590</ele><speed>7.75</speed><time>2016-06-21T16:26:05Z</time><pdop>3.0</pdop><geoidheight>54.00</geoidheight><course>268.0</course><type>1</type></trkpt>
      <trkpt lat="39.61992798" lon="-6.4132551"><ele>2592</ele><speed>7.25</speed><time>2016-06-21T16:26:06Z</time><pdop>3.0</pdop><geoidheight>54.00</geoidheight><course>277.3</course><type>1</type></trkpt>
      <trkpt lat="39.61995947" lon="-6.41344746"><ele>2596</ele><speed>9.00</speed><time>2016-06-21T16:26:08Z</time><pdop>3.0</pdop><geoidheight>54.00</geoidheight><course>283.0</course><type>1</type></trkpt>
      <trkpt lat="39.62000347" lon="-6.4135607"><ele>2599</ele><speed>10.50</speed><time>2016-06-21T16:26:09Z</time><pdop>3.0</pdop><geoidheight>54.00</geoidheight><course>293.9</course><type>1</type></trkpt>
      <trkpt lat="39.62007407" lon="-6.41366853"><ele>2598</ele><speed>11.50</speed><time>2016-06-21T16:26:10Z</time><pdop>3.0</pdop><geoidheight>54.00</geoidheight><course>307.8</course><type>1</type></trkpt>
      <trkpt lat="39.62023826" lon="-6.41381596"><ele>2606</ele><speed>10.75</speed><time>2016-06-21T16:26:12Z</time><pdop>3.0</pdop><geoidheight>54.00</geoidheight><course>328.1</course><type>1</type></trkpt>
      <trkpt lat="39.62032138" lon="-6.41386368"><ele>2608</ele><speed>10.25</speed><time>2016-06-21T16:26:13Z</time><pdop>3.0</pdop><geoidheight>54.00</geoidheight><course>336.2</course><type>1</type></trkpt>
      <trkpt lat="39.62040934" lon="-6.41389159"><ele>2610</ele><speed>10.25</speed><time>2016-06-21T16:26:14Z</time><pdop>3.0</pdop><geoidheight>54.00</geoidheight><course>343.4</course><type>1</type></trkpt>
      <trkpt lat="39.62061655" lon="-6.41390968"><ele>2613</ele><speed>12.00</speed><time>2016-06-21T16:26:16Z</time><pdop>3.0</pdop><geoidheight>54.00</geoidheight><course>357.8</course><type>1</type></trkpt>
      <trkpt lat="39.62073718" lon="-6.41391851"><ele>2615</ele><speed>13.25</speed><time>2016-06-21T16:26:17Z</time><pdop>3.0</pdop><geoidheight>54.00</geoidheight><course>356.7</course><type>1</type></trkpt>
      <trkpt lat="39.6208574" lon="-6.41394853"><ele>2617</ele><speed>13.50</speed><time>2016-06-21T16:26:18Z</time><pdop>4.0</pdop><geoidheight>54.00</geoidheight><course>350.3</course><type>1</type></trkpt>
      <trkpt lat="39.62110673" lon="-6.41402227"><ele>2619</ele><speed>15.00</speed><time>2016-06-21T16:26:20Z</time><pdop>5.0</pdop><geoidheight>54.00</geoidheight><course>347.0</course><type>1</type></trkpt>
      <trkpt lat="39.62124208" lon="-6.41389025"><ele>2625</ele><speed>7.25</speed><time>2016-06-21T16:26:23Z</time><pdop>4.0</pdop><geoidheight>54.00</geoidheight><course>27.5</course><type>1</type></trkpt>
      <trkpt lat="39.62131669" lon="-6.41384824"><ele>2626</ele><speed>8.75</speed><time>2016-06-21T16:26:24Z</time><pdop>3.0</pdop><geoidheight>54.00</geoidheight><course>23.3</course><type>1</type></trkpt>
      <trkpt lat="39.62139444" lon="-6.41380998"><ele>2628</ele><speed>9.50</speed><time>2016-06-21T16:26:25Z</time><pdop>3.0</pdop><geoidheight>54.00</geoidheight><course>22.2</course><type>1</type></trkpt>
      <trkpt lat="39.62146879" lon="-6.4137577"><ele>2630</ele><speed>9.25</speed><time>2016-06-21T16:26:26Z</time><pdop>4.0</pdop><geoidheight>54.00</geoidheight><course>28.7</course><type>1</type></trkpt>
      <trkpt lat="39.62154841" lon="-6.41368252"><ele>2631</ele><speed>10.50</speed><time>2016-06-21T16:26:27Z</time><pdop>4.0</pdop><geoidheight>54.00</geoidheight><course>36.3</course><type>1</type></trkpt>
      <trkpt lat="39.62160044" lon="-6.41359994"><ele>2632</ele><speed>9.75</speed><time>2016-06-21T16:26:28Z</time><pdop>5.0</pdop><geoidheight>54.00</geoidheight><course>46.7</course><type>1</type></trkpt>
      <trkpt lat="39.62158863" lon="-6.41343074"><ele>2639</ele><speed>7.00</speed><time>2016-06-21T16:26:30Z</time><pdop>3.0</pdop><geoidheight>54.00</geoidheight><course>90.4</course><type>1</type></trkpt>
      <trkpt lat="39.62157735" lon="-6.41335008"><ele>2641</ele><speed>7.00</speed><time>2016-06-21T16:26:31Z</time><pdop>4.0</pdop><geoidheight>54.00</geoidheight><course>97.9</course><type>1</type></trkpt>
      <trkpt lat="39.62150183" lon="-6.41329491"><ele>2647</ele><speed>5.00</speed><time>2016-06-21T16:26:33Z</time><pdop>3.0</pdop><geoidheight>54.00</geoidheight><course>147.8</course><type>1</type></trkpt>
      <trkpt lat="39.62140852" lon="-6.41329965"><ele>2652</ele><speed>5.25</speed><time>2016-06-21T16:26:35Z</time><pdop>4.0</pdop><geoidheight>54.00</geoidheight><course>190.6</course><type>1</type></trkpt>
      <trkpt lat="39.62129765" lon="-6.41340443"><ele>2654</ele><speed>7.50</speed><time>2016-06-21T16:26:37Z</time><pdop>3.0</pdop><geoidheight>54.00</geoidheight><course>218.6</course><type>1</type></trkpt>
      <trkpt lat="39.62120157" lon="-6.41357227"><ele>2659</ele><speed>9.25</speed><time>2016-06-21T16:26:39Z</time><pdop>3.0</pdop><geoidheight>54.00</geoidheight><course>234.4</course><type>1</type></trkpt>
      <trkpt lat="39.621153" lon="-6.41381419"><ele>2664</ele><speed>11.75</speed><time>2016-06-21T16:26:41Z</time><pdop>3.0</pdop><geoidheight>54.00</geoidheight><course>262.4</course><type>1</type></trkpt>
      <trkpt lat="39.62121916" lon="-6.41411506"><ele>2668</ele><speed>14.00</speed><time>2016-06-21T16:26:43Z</time><pdop>3.0</pdop><geoidheight>54.00</geoidheight><course>291.5</course><type>1</type></trkpt>
      <trkpt lat="39.62136978" lon="-6.41435787"><ele>2674</ele><speed>13.25</speed><time>2016-06-21T16:26:45Z</time><pdop>4.0</pdop><geoidheight>54.00</geoidheight><course>310.1</course><type>1</type></trkpt>
      <trkpt lat="39.62147288" lon="-6.41441469"><ele>2677</ele><speed>12.00</speed><time>2016-06-21T16:26:46Z</time><pdop>3.0</pdop><geoidheight>54.00</geoidheight><course>326.3</course><type>1</type></trkpt>
      <trkpt lat="39.62155467" lon="-6.4144628"><ele>2680</ele><speed>10.50</speed><time>2016-06-21T16:26:47Z</time><pdop>3.0</pdop><geoidheight>54.00</geoidheight><course>335.4</course><type>1</type></trkpt>
      <trkpt lat="39.62164135" lon="-6.41448915"><ele>2681</ele><speed>10.00</speed><time>2016-06-21T16:26:48Z</time><pdop>3.0</pdop><geoidheight>54.00</geoidheight><course>344.2</course><type>1</type></trkpt>
      <trkpt lat="39.62183009" lon="-6.4144813"><ele>2682</ele><speed>10.75</speed><time>2016-06-21T16:26:50Z</time><pdop>3.0</pdop><geoidheight>54.00</geoidheight><course>4.0</course><type>1</type></trkpt>
      <trkpt lat="39.62192794" lon="-6.41445113"><ele>2683</ele><speed>11.25</speed><time>2016-06-21T16:26:51Z</time><pdop>3.0</pdop><geoidheight>54.00</geoidheight><course>12.8</course><type>1</type></trkpt>
      <trkpt lat="39.62201849" lon="-6.41440089"><ele>2685</ele><speed>10.75</speed><time>2016-06-21T16:26:52Z</time><pdop>3.0</pdop><geoidheight>54.00</geoidheight><course>22.3</course><type>1</type></trkpt>
      <trkpt lat="39.6221428" lon="-6.41427487"><ele>2689</ele><speed>8.25</speed><time>2016-06-21T16:26:54Z</time><pdop>4.0</pdop><geoidheight>54.00</geoidheight><course>41.2</course><type>1</type></trkpt>
      <trkpt lat="39.62218847" lon="-6.41420995"><ele>2691</ele><speed>7.50</speed><time>2016-06-21T16:26:55Z</time><pdop>3.0</pdop><geoidheight>54.00</geoidheight><course>45.7</course><type>1</type></trkpt>
      <trkpt lat="39.62222872" lon="-6.41414063"><ele>2692</ele><speed>7.50</speed><time>2016-06-21T16:26:56Z</time><pdop>3.0</pdop><geoidheight>54.00</geoidheight><course>52.3</course><type>1</type></trkpt>
      <trkpt lat="39.62226763" lon="-6.41396833"><ele>2694</ele><speed>8.00</speed><time>2016-06-21T16:26:58Z</time><pdop>3.0</pdop><geoidheight>54.00</geoidheight><course>80.3</course><type>1</type></trkpt>
      <trkpt lat="39.62222075" lon="-6.41381032"><ele>2698</ele><speed>7.25</speed><time>2016-06-21T16:27:00Z</time><pdop>3.0</pdop><geoidheight>54.00</geoidheight><course>121.0</course><type>1</type></trkpt>
      <trkpt lat="39.62216926" lon="-6.41377081"><ele>2701</ele><speed>7.00</speed><time>2016-06-21T16:27:01Z</time><pdop>3.0</pdop><geoidheight>54.00</geoidheight><course>146.8</course><type>1</type></trkpt>
      <trkpt lat="39.62204055" lon="-6.41380096"><ele>2705</ele><speed>7.50</speed><time>2016-06-21T16:27:03Z</time><pdop>3.0</pdop><geoidheight>54.00</geoidheight><course>198.1</course><type>1</type></trkpt>
      <trkpt lat="39.62198076" lon="-6.4138564"><ele>2707</ele><speed>7.75</speed><time>2016-06-21T16:27:04Z</time><pdop>3.0</pdop><geoidheight>54.00</geoidheight><course>213.3</course><type>1</type></trkpt>
      <trkpt lat="39.62192671" lon="-6.41392032"><ele>2710</ele><speed>7.75</speed><time>2016-06-21T16:27:05Z</time><pdop>3.0</pdop><geoidheight>54.00</geoidheight><course>221.0</course><type>1</type></trkpt>
      <trkpt lat="39.62184672" lon="-6.41407607"><ele>2716</ele><speed>8.25</speed><time>2016-06-21T16:27:07Z</time><pdop>3.0</pdop><geoidheight>54.00</geoidheight><course>238.7</course><type>1</type></trkpt>
      <trkpt lat="39.62180268" lon="-6.41427146"><ele>2504</ele><speed>9.00</speed><time>2016-06-21T16:27:09Z</time><pdop>4.0</pdop><geoidheight>54.00</geoidheight><course>255.1</course><type>1</type></trkpt>
      <trkpt lat="39.62179314" lon="-6.4143788"><ele>2580</ele><speed>9.25</speed><time>2016-06-21T16:27:10Z</time><pdop>3.0</pdop><geoidheight>54.00</geoidheight><course>262.3</course><type>1</type></trkpt>
      <trkpt lat="39.62179581" lon="-6.41448745"><ele>2625</ele><speed>9.50</speed><time>2016-06-21T16:27:11Z</time><pdop>3.0</pdop><geoidheight>54.00</geoidheight><course>271.9</course><type>1</type></trkpt>
      <trkpt lat="39.62187771" lon="-6.41470599"><ele>2671</ele><speed>11.00</speed><time>2016-06-21T16:27:13Z</time><pdop>3.0</pdop><geoidheight>54.00</geoidheight><course>300.0</course><type>1</type></trkpt>
      <trkpt lat="39.62194455" lon="-6.41481954"><ele>2684</ele><speed>12.00</speed><time>2016-06-21T16:27:14Z</time><pdop>4.0</pdop><geoidheight>54.00</geoidheight><course>305.9</course><type>1</type></trkpt>
      <trkpt lat="39.6220359" lon="-6.41489337"><ele>2696</ele><speed>11.75</speed><time>2016-06-21T16:27:15Z</time><pdop>3.0</pdop><geoidheight>54.00</geoidheight><course>321.1</course><type>1</type></trkpt>
      <trkpt lat="39.62221641" lon="-6.41495895"><ele>2591</ele><speed>10.25</speed><time>2016-06-21T16:27:17Z</time><pdop>3.0</pdop><geoidheight>54.00</geoidheight><course>349.9</course><type>1</type></trkpt>
      <trkpt lat="39.62230632" lon="-6.41493635"><ele>2652</ele><speed>10.25</speed><time>2016-06-21T16:27:18Z</time><pdop>3.0</pdop><geoidheight>54.00</geoidheight><course>8.4</course><type>1</type></trkpt>
      <trkpt lat="39.62238606" lon="-6.41488229"><ele>2685</ele><speed>10.00</speed><time>2016-06-21T16:27:19Z</time><pdop>3.0</pdop><geoidheight>54.00</geoidheight><course>25.1</course><type>1</type></trkpt>
      <trkpt lat="39.62250372" lon="-6.41472099"><ele>2717</ele><speed>9.00</speed><time>2016-06-21T16:27:21Z</time><pdop>3.0</pdop><geoidheight>54.00</geoidheight><course>52.1</course><type>1</type></trkpt>
      <trkpt lat="39.62254168" lon="-6.41463442"><ele>2725</ele><speed>8.50</speed><time>2016-06-21T16:27:22Z</time><pdop>3.0</pdop><geoidheight>54.00</geoidheight><course>61.4</course><type>1</type></trkpt>
      <trkpt lat="39.62257757" lon="-6.41454841"><ele>2731</ele><speed>8.25</speed><time>2016-06-21T16:27:23Z</time><pdop>3.0</pdop><geoidheight>54.00</geoidheight><course>62.4</course><type>1</type></trkpt>
      <trkpt lat="39.62262428" lon="-6.41445949"><ele>2736</ele><speed>8.50</speed><time>2016-06-21T16:27:24Z</time><pdop>3.0</pdop><geoidheight>54.00</geoidheight><course>57.5</course><type>1</type></trkpt>
      <trkpt lat="39.62267238" lon="-6.41437529"><ele>2739</ele><speed>9.00</speed><time>2016-06-21T16:27:25Z</time><pdop>3.0</pdop><geoidheight>54.00</geoidheight><course>53.2</course><type>1</type></trkpt>
      <trkpt lat="39.62278344" lon="-6.41418399"><ele>2688</ele><speed>10.50</speed><time>2016-06-21T16:27:27Z</time><pdop>3.0</pdop><geoidheight>54.00</geoidheight><course>52.1</course><type>1</type></trkpt>
      <trkpt lat="39.62284165" lon="-6.41408084"><ele>2716</ele><speed>11.00</speed><time>2016-06-21T16:27:28Z</time><pdop>3.0</pdop><geoidheight>54.00</geoidheight><course>53.7</course><type>1</type></trkpt>
      <trkpt lat="39.62289503" lon="-6.41398492"><ele>2733</ele><speed>10.50</speed><time>2016-06-21T16:27:29Z</time><pdop>3.0</pdop><geoidheight>54.00</geoidheight><course>55.5</course><type>1</type></trkpt>
      <trkpt lat="39.62296944" lon="-6.41381376"><ele>2752</ele><speed>7.50</speed><time>2016-06-21T16:27:31Z</time><pdop>3.0</pdop><geoidheight>54.00</geoidheight><course>60.5</course><type>1</type></trkpt>
      <trkpt lat="39.62299353" lon="-6.41368278"><ele>2504</ele><speed>5.75</speed><time>2016-06-21T16:27:33Z</time><pdop>3.0</pdop><geoidheight>54.00</geoidheight><course>83.9</course><type>1</type></trkpt>
      <trkpt lat="39.62297357" lon="-6.41354692"><ele>2651</ele><speed>6.00</speed><time>2016-06-21T16:27:35Z</time><pdop>3.0</pdop><geoidheight>54.00</geoidheight><course>106.6</course><type>1</type></trkpt>
      <trkpt lat="39.62290566" lon="-6.4134663"><ele>2711</ele><speed>5.00</speed><time>2016-06-21T16:27:37Z</time><pdop>3.0</pdop><geoidheight>54.00</geoidheight><course>149.8</course><type>1</type></trkpt>
      <trkpt lat="39.62279676" lon="-6.41349184"><ele>2714</ele><speed>6.75</speed><time>2016-06-21T16:27:39Z</time><pdop>3.0</pdop><geoidheight>54.00</geoidheight><course>196.8</course><type>1</type></trkpt>
      <trkpt lat="39.62273849" lon="-6.41354341"><ele>2746</ele><speed>7.75</speed><time>2016-06-21T16:27:40Z</time><pdop>3.0</pdop><geoidheight>54.00</geoidheight><course>213.3</course><type>1</type></trkpt>
      <trkpt lat="39.62269799" lon="-6.41362758"><ele>2764</ele><speed>8.00</speed><time>2016-06-21T16:27:41Z</time><pdop>3.0</pdop><geoidheight>54.00</geoidheight><course>233.7</course><type>1</type></trkpt>
      <trkpt lat="39.62267261" lon="-6.41383956"><ele>2782</ele><speed>9.00</speed><time>2016-06-21T16:27:43Z</time><pdop>4.0</pdop><geoidheight>54.00</geoidheight><course>267.0</course><type>1</type></trkpt>
      <trkpt lat="39.62268878" lon="-6.41395194"><ele>2789</ele><speed>10.00</speed><time>2016-06-21T16:27:44Z</time><pdop>3.0</pdop><geoidheight>54.00</geoidheight><course>279.6</course><type>1</type></trkpt>
      <trkpt lat="39.62272646" lon="-6.41407345"><ele>2795</ele><speed>10.75</speed><time>2016-06-21T16:27:45Z</time><pdop>3.0</pdop><geoidheight>54.00</geoidheight><course>289.7</course><type>1</type></trkpt>
      <trkpt lat="39.62285314" lon="-6.41429876"><ele>2803</ele><speed>12.00</speed><time>2016-06-21T16:27:47Z</time><pdop>3.0</pdop><geoidheight>54.00</geoidheight><course>308.9</course><type>1</type></trkpt>
      <trkpt lat="39.62303877" lon="-6.41446514"><ele>2812</ele><speed>13.00</speed><time>2016-06-21T16:27:49Z</time><pdop>3.0</pdop><geoidheight>54.00</geoidheight><course>328.6</course><type>1</type></trkpt>
      <trkpt lat="39.62314315" lon="-6.41451172"><ele>2815</ele><speed>12.50</speed><time>2016-06-21T16:27:50Z</time><pdop>3.0</pdop><geoidheight>54.00</geoidheight><course>340.2</course><type>1</type></trkpt>
      <trkpt lat="39.62334943" lon="-6.41451338"><ele>2819</ele><speed>11.50</speed><time>2016-06-21T16:27:52Z</time><pdop>3.0</pdop><geoidheight>54.00</geoidheight><course>4.1</course><type>1</type></trkpt>
      <trkpt lat="39.62344923" lon="-6.41447529"><ele>2820</ele><speed>11.75</speed><time>2016-06-21T16:27:53Z</time><pdop>3.0</pdop><geoidheight>54.00</geoidheight><course>14.3</course><type>1</type></trkpt>
      <trkpt lat="39.62361376" lon="-6.41435002"><ele>2823</ele><speed>10.00</speed><time>2016-06-21T16:27:55Z</time><pdop>4.0</pdop><geoidheight>54.00</geoidheight><course>34.7</course><type>1</type></trkpt>
      <trkpt lat="39.62366671" lon="-6.41426862"><ele>2824</ele><speed>9.00</speed><time>2016-06-21T16:27:56Z</time><pdop>4.0</pdop><geoidheight>54.00</geoidheight><course>49.0</course><type>1</type></trkpt>
      <trkpt lat="39.62370203" lon="-6.41417669"><ele>2824</ele><speed>8.75</speed><time>2016-06-21T16:27:57Z</time><pdop>3.0</pdop><geoidheight>54.00</geoidheight><course>62.0</course><type>1</type></trkpt>
      <trkpt lat="39.62372425" lon="-6.41407899"><ele>2826</ele><speed>8.75</speed><time>2016-06-21T16:27:58Z</time><pdop>3.0</pdop><geoidheight>54.00</geoidheight><course>72.3</course><type>1</type></trkpt>
      <trkpt lat="39.62372781" lon="-6.41397696"><ele>2829</ele><speed>8.50</speed><time>2016-06-21T16:27:59Z</time><pdop>3.0</pdop><geoidheight>54.00</geoidheight><course>83.7</course><type>1</type></trkpt>
      <trkpt lat="39.62369965" lon="-6.41380296"><ele>2836</ele><speed>7.50</speed><time>2016-06-21T16:28:01Z</time><pdop>3.0</pdop><geoidheight>54.00</geoidheight><course>110.2</course><type>1</type></trkpt>
      <trkpt lat="39.62366528" lon="-6.41374017"><ele>2840</ele><speed>6.75</speed><time>2016-06-21T16:28:02Z</time><pdop>3.0</pdop><geoidheight>54.00</geoidheight><course>123.6</course><type>1</type></trkpt>
      <trkpt lat="39.6235784" lon="-6.41367474"><ele>2847</ele><speed>5.50</speed><time>2016-06-21T16:28:04Z</time><pdop>4.0</pdop><geoidheight>54.00</geoidheight><course>155.9</course><type>1</type></trkpt>
      <trkpt lat="39.62346789" lon="-6.41369561"><ele>2854</ele><speed>6.25</speed><time>2016-06-21T16:28:06Z</time><pdop>3.0</pdop><geoidheight>54.00</geoidheight><course>189.6</course><type>1</type></trkpt>
      <trkpt lat="39.62342031" lon="-6.41373219"><ele>2856</ele><speed>5.75</speed><time>2016-06-21T16:28:07Z</time><pdop>3.0</pdop><geoidheight>54.00</geoidheight><course>207.5</course><type>1</type></trkpt>
      <trkpt lat="39.62336927" lon="-6.41396226"><ele>2861</ele><speed>8.00</speed><time>2016-06-21T16:28:10Z</time><pdop>3.0</pdop><geoidheight>54.00</geoidheight><course>261.2</course><type>1</type></trkpt>
      <trkpt lat="39.62337012" lon="-6.41407261"><ele>2862</ele><speed>9.25</speed><time>2016-06-21T16:28:11Z</time><pdop>3.0</pdop><geoidheight>54.00</geoidheight><course>270.2</course><type>1</type></trkpt>
      <trkpt lat="39.62338348" lon="-6.41418629"><ele>2864</ele><speed>10.25</speed><time>2016-06-21T16:28:12Z</time><pdop>3.0</pdop><geoidheight>54.00</geoidheight><course>278.7</course><type>1</type></trkpt>
      <trkpt lat="39.62344875" lon="-6.41444346"><ele>2867</ele><speed>12.00</speed><time>2016-06-21T16:28:14Z</time><pdop>4.0</pdop><geoidheight>54.00</geoidheight><course>287.5</course><type>1</type></trkpt>
      <trkpt lat="39.62356564" lon="-6.41466528"><ele>2875</ele><speed>11.50</speed><time>2016-06-21T16:28:16Z</time><pdop>4.0</pdop><geoidheight>54.00</geoidheight><course>304.0</course><type>1</type></trkpt>
      <trkpt lat="39.62373724" lon="-6.41482448"><ele>2880</ele><speed>11.75</speed><time>2016-06-21T16:28:18Z</time><pdop>3.0</pdop><geoidheight>54.00</geoidheight><course>327.4</course><type>1</type></trkpt>
      <trkpt lat="39.62394843" lon="-6.41491628"><ele>2885</ele><speed>12.25</speed><time>2016-06-21T16:28:20Z</time><pdop>3.0</pdop><geoidheight>54.00</geoidheight><course>345.6</course><type>1</type></trkpt>
      <trkpt lat="39.62404151" lon="-6.41492805"><ele>2888</ele><speed>10.75</speed><time>2016-06-21T16:28:21Z</time><pdop>3.0</pdop><geoidheight>54.00</geoidheight><course>353.0</course><type>1</type></trkpt>
      <trkpt lat="39.62419706" lon="-6.41488696"><ele>2891</ele><speed>8.75</speed><time>2016-06-21T16:28:23Z</time><pdop>3.0</pdop><geoidheight>54.00</geoidheight><course>16.2</course><type>1</type></trkpt>
      <trkpt lat="39.62427098" lon="-6.41483447"><ele>2891</ele><speed>9.25</speed><time>2016-06-21T16:28:24Z</time><pdop>4.0</pdop><geoidheight>54.00</geoidheight><course>26.6</course><type>1</type></trkpt>
      <trkpt lat="39.62440282" lon="-6.41467846"><ele>2686</ele><speed>10.00</speed><time>2016-06-21T16:28:26Z</time><pdop>3.0</pdop><geoidheight>54.00</geoidheight><course>45.9</course><type>1</type></trkpt>
      <trkpt lat="39.62444776" lon="-6.41457759"><ele>2756</ele><speed>10.00</speed><time>2016-06-21T16:28:27Z</time><pdop>4.0</pdop><geoidheight>54.00</geoidheight><course>59.4</course><type>1</type></trkpt>
      <trkpt lat="39.62447268" lon="-6.41445917"><ele>2798</ele><speed>10.25</speed><time>2016-06-21T16:28:28Z</time><pdop>3.0</pdop><geoidheight>54.00</geoidheight><course>73.6</course><type>1</type></trkpt>
      <trkpt lat="39.62449062" lon="-6.41421432"><ele>2844</ele><speed>10.50</speed><time>2016-06-21T16:28:30Z</time><pdop>4.0</pdop><geoidheight>54.00</geoidheight><course>85.8</course><type>1</type></trkpt>
      <trkpt lat="39.62449602" lon="-6.41410942"><ele>2859</ele><speed>9.25</speed><time>2016-06-21T16:28:31Z</time><pdop>4.0</pdop><geoidheight>54.00</geoidheight><course>85.7</course><type>1</type></trkpt>
      <trkpt lat="39.62447438" lon="-6.41397911"><ele>2766</ele><speed>5.25</speed><time>2016-06-21T16:28:33Z</time><pdop>3.0</pdop><geoidheight>54.00</geoidheight><course>103.5</course><type>1</type></trkpt>
      <trkpt lat="39.62442627" lon="-6.41390492"><ele>2860</ele><speed>4.25</speed><time>2016-06-21T16:28:35Z</time><pdop>3.0</pdop><geoidheight>54.00</geoidheight><course>139.8</course><type>1</type></trkpt>
      <trkpt lat="39.62428942" lon="-6.413908"><ele>2894</ele><speed>6.25</speed><time>2016-06-21T16:28:38Z</time><pdop>3.0</pdop><geoidheight>54.00</geoidheight><course>199.2</course><type>1</type></trkpt>
      <trkpt lat="39.62420391" lon="-6.41405585"><ele>2904</ele><speed>8.50</speed><time>2016-06-21T16:28:40Z</time><pdop>3.0</pdop><geoidheight>54.00</geoidheight><course>239.6</course><type>1</type></trkpt>
      <trkpt lat="39.62418367" lon="-6.41416262"><ele>2854</ele><speed>9.25</speed><time>2016-06-21T16:28:41Z</time><pdop>3.0</pdop><geoidheight>54.00</geoidheight><course>253.8</course><type>1</type></trkpt>
      <trkpt lat="39.62418642" lon="-6.41439454"><ele>2897</ele><speed>10.25</speed><time>2016-06-21T16:28:43Z</time><pdop>3.0</pdop><geoidheight>54.00</geoidheight><course>274.8</course><type>1</type></trkpt>
      <trkpt lat="39.62421271" lon="-6.41450918"><ele>2907</ele><speed>10.25</speed><time>2016-06-21T16:28:44Z</time><pdop>3.0</pdop><geoidheight>54.00</geoidheight><course>285.1</course><type>1</type></trkpt>
      <trkpt lat="39.62425222" lon="-6.41461876"><ele>2913</ele><speed>10.25</speed><time>2016-06-21T16:28:45Z</time><pdop>3.0</pdop><geoidheight>54.00</geoidheight><course>293.5</course><type>1</type></trkpt>
      <trkpt lat="39.62429891" lon="-6.4147283"><ele>2916</ele><speed>10.75</speed><time>2016-06-21T16:28:46Z</time><pdop>3.0</pdop><geoidheight>54.00</geoidheight><course>298.6</course><type>1</type></trkpt>
      <trkpt lat="39.62439694" lon="-6.41497824"><ele>2920</ele><speed>12.25</speed><time>2016-06-21T16:28:48Z</time><pdop>4.0</pdop><geoidheight>54.00</geoidheight><course>296.4</course><type>1</type></trkpt>
      <trkpt lat="39.62454342" lon="-6.41520842"><ele>2797</ele><speed>12.50</speed><time>2016-06-21T16:28:50Z</time><pdop>3.0</pdop><geoidheight>54.00</geoidheight><course>310.4</course><type>1</type></trkpt>
      <trkpt lat="39.6246244" lon="-6.41533068"><ele>2851</ele><speed>13.50</speed><time>2016-06-21T16:28:51Z</time><pdop>5.0</pdop><geoidheight>54.00</geoidheight><course>310.3</course><type>1</type></trkpt>
      <trkpt lat="39.62483989" lon="-6.4153733"><ele>2899</ele><speed>12.25</speed><time>2016-06-21T16:28:53Z</time><pdop>3.0</pdop><geoidheight>54.00</geoidheight><course>347.4</course><type>1</type></trkpt>
      <trkpt lat="39.62505828" lon="-6.41538689"><ele>2919</ele><speed>12.25</speed><time>2016-06-21T16:28:55Z</time><pdop>3.0</pdop><geoidheight>54.00</geoidheight><course>1.3</course><type>1</type></trkpt>
      <trkpt lat="39.62515855" lon="-6.41535727"><ele>2925</ele><speed>11.50</speed><time>2016-06-21T16:28:56Z</time><pdop>3.0</pdop><geoidheight>54.00</geoidheight><course>10.4</course><type>1</type></trkpt>
      <trkpt lat="39.62524448" lon="-6.41531129"><ele>2883</ele><speed>10.50</speed><time>2016-06-21T16:28:57Z</time><pdop>3.0</pdop><geoidheight>54.00</geoidheight><course>20.5</course><type>1</type></trkpt>
      <trkpt lat="39.62538951" lon="-6.415177"><ele>2924</ele><speed>10.00</speed><time>2016-06-21T16:28:59Z</time><pdop>3.0</pdop><geoidheight>54.00</geoidheight><course>37.9</course><type>1</type></trkpt>
      <trkpt lat="39.62544932" lon="-6.41509111"><ele>2933</ele><speed>9.75</speed><time>2016-06-21T16:29:00Z</time><pdop>3.0</pdop><geoidheight>54.00</geoidheight><course>45.6</course><type>1</type></trkpt>
      <trkpt lat="39.62549741" lon="-6.4149998"><ele>2939</ele><speed>9.25</speed><time>2016-06-21T16:29:01Z</time><pdop>3.0</pdop><geoidheight>54.00</geoidheight><course>54.9</course><type>1</type></trkpt>
      <trkpt lat="39.62552838" lon="-6.41482633"><ele>2941</ele><speed>7.25</speed><time>2016-06-21T16:29:03Z</time><pdop>3.0</pdop><geoidheight>54.00</geoidheight><course>81.5</course><type>1</type></trkpt>
      <trkpt lat="39.6254925" lon="-6.4146823"><ele>2949</ele><speed>6.50</speed><time>2016-06-21T16:29:05Z</time><pdop>3.0</pdop><geoidheight>54.00</geoidheight><course>114.2</course><type>1</type></trkpt>
      <trkpt lat="39.6254545" lon="-6.41462514"><ele>2953</ele><speed>6.50</speed><time>2016-06-21T16:29:06Z</time><pdop>3.0</pdop><geoidheight>54.00</geoidheight><course>130.6</course><type>1</type></trkpt>
      <trkpt lat="39.62540302" lon="-6.41458558"><ele>2955</ele><speed>6.50</speed><time>2016-06-21T16:29:07Z</time><pdop>3.0</pdop><geoidheight>54.00</geoidheight><course>147.9</course><type>1</type></trkpt>
      <trkpt lat="39.62529252" lon="-6.4145712"><ele>2960</ele><speed>6.25</speed><time>2016-06-21T16:29:09Z</time><pdop>3.0</pdop><geoidheight>54.00</geoidheight><course>179.6</course><type>1</type></trkpt>
      <trkpt lat="39.62523567" lon="-6.414592"><ele>2962</ele><speed>6.50</speed><time>2016-06-21T16:29:10Z</time><pdop>3.0</pdop><geoidheight>54.00</geoidheight><course>192.4</course><type>1</type></trkpt>
      <trkpt lat="39.62518191" lon="-6.41462624"><ele>2963</ele><speed>6.50</speed><time>2016-06-21T16:29:11Z</time><pdop>3.0</pdop><geoidheight>54.00</geoidheight><course>203.5</course><type>1</type></trkpt>
      <trkpt lat="39.62512877" lon="-6.41467329"><ele>2964</ele><speed>7.00</speed><time>2016-06-21T16:29:12Z</time><pdop>3.0</pdop><geoidheight>54.00</geoidheight><course>213.2</course><type>1</type></trkpt>
      <trkpt lat="39.62503009" lon="-6.41481266"><ele>2965</ele><speed>8.00</speed><time>2016-06-21T16:29:14Z</time><pdop>4.0</pdop><geoidheight>54.00</geoidheight><course>224.0</course><type>1</type></trkpt>
      <trkpt lat="39.6249881" lon="-6.41490165"><ele>2965</ele><speed>8.75</speed><time>2016-06-21T16:29:15Z</time><pdop>4.0</pdop><geoidheight>54.00</geoidheight><course>231.5</course><type>1</type></trkpt>
      <trkpt lat="39.62495905" lon="-6.41502881"><ele>2966</ele><speed>10.50</speed><time>2016-06-21T16:29:16Z</time><pdop>4.0</pdop><geoidheight>54.00</geoidheight><course>245.7</course><type>1</type></trkpt>
      <trkpt lat="39.62505724" lon="-6.41527171"><ele>2971</ele><speed>10.50</speed><time>2016-06-21T16:29:18Z</time><pdop>3.0</pdop><geoidheight>54.00</geoidheight><course>292.2</course><type>1</type></trkpt>
      <trkpt lat="39.6252069" lon="-6.41546256"><ele>2976</ele><speed>11.75</speed><time>2016-06-21T16:29:20Z</time><pdop>4.0</pdop><geoidheight>54.00</geoidheight><course>316.9</course><type>1</type></trkpt>
      <trkpt lat="39.62531392" lon="-6.4155105"><ele>2978</ele><speed>12.00</speed><time>2016-06-21T16:29:21Z</time><pdop>3.0</pdop><geoidheight>54.00</geoidheight><course>334.3</course><type>1</type></trkpt>
      <trkpt lat="39.62551718" lon="-6.41557172"><ele>2983</ele><speed>11.50</speed><time>2016-06-21T16:29:23Z</time><pdop>3.0</pdop><geoidheight>54.00</geoidheight><course>349.4</course><type>1</type></trkpt>
      <trkpt lat="39.62561873" lon="-6.41559636"><ele>2985</ele><speed>11.50</speed><time>2016-06-21T16:29:24Z</time><pdop>5.0</pdop><geoidheight>54.00</geoidheight><course>349.4</course><type>1</type></trkpt>
      <trkpt lat="39.62571518" lon="-6.41557595"><ele>2986</ele><speed>11.00</speed><time>2016-06-21T16:29:25Z</time><pdop>3.0</pdop><geoidheight>54.00</geoidheight><course>1.9</course><type>1</type></trkpt>
      <trkpt lat="39.62590559" lon="-6.41553181"><ele>2990</ele><speed>11.00</speed><time>2016-06-21T16:29:27Z</time><pdop>3.0</pdop><geoidheight>54.00</geoidheight><course>12.3</course><type>1</type></trkpt>
      <trkpt lat="39.6259985" lon="-6.41548558"><ele>2991</ele><speed>11.00</speed><time>2016-06-21T16:29:28Z</time><pdop>3.0</pdop><geoidheight>54.00</geoidheight><course>19.0</course><type>1</type></trkpt>
      <trkpt lat="39.62614018" lon="-6.41533557"><ele>2994</ele><speed>9.75</speed><time>2016-06-21T16:29:30Z</time><pdop>3.0</pdop><geoidheight>54.00</geoidheight><course>45.3</course><type>1</type></trkpt>
      <trkpt lat="39.62617859" lon="-6.41524273"><ele>2995</ele><speed>9.25</speed><time>2016-06-21T16:29:31Z</time><pdop>3.0</pdop><geoidheight>54.00</geoidheight><course>60.1</course><type>1</type></trkpt>
      <trkpt lat="39.62620365" lon="-6.41514874"><ele>2996</ele><speed>8.25</speed><time>2016-06-21T16:29:32Z</time><pdop>3.0</pdop><geoidheight>54.00</geoidheight><course>71.0</course><type>1</type></trkpt>
      <trkpt lat="39.62621533" lon="-6.41497805"><ele>2999</ele><speed>7.25</speed><time>2016-06-21T16:29:34Z</time><pdop>3.0</pdop><geoidheight>54.00</geoidheight><course>87.0</course><type>1</type></trkpt>
      <trkpt lat="39.62620238" lon="-6.41489983"><ele>3001</ele><speed>7.00</speed><time>2016-06-21T16:29:35Z</time><pdop>3.0</pdop><geoidheight>54.00</geoidheight><course>101.3</course><type>1</type></trkpt>
      <trkpt lat="39.62617095" lon="-6.41482985"><ele>3001</ele><speed>7.00</speed><time>2016-06-21T16:29:36Z</time><pdop>3.0</pdop><geoidheight>54.00</geoidheight><course>119.0</course><type>1</type></trkpt>
      <trkpt lat="39.62606333" lon="-6.41474633"><ele>3004</ele><speed>7.25</speed><time>2016-06-21T16:29:38Z</time><pdop>3.0</pdop><geoidheight>54.00</geoidheight><course>157.7</course><type>1</type></trkpt>
      <trkpt lat="39.62600601" lon="-6.41474801"><ele>3006</ele><speed>6.50</speed><time>2016-06-21T16:29:39Z</time><pdop>3.0</pdop><geoidheight>54.00</geoidheight><course>179.4</course><type>1</type></trkpt>
      <trkpt lat="39.62595208" lon="-6.41478199"><ele>3007</ele><speed>6.50</speed><time>2016-06-21T16:29:40Z</time><pdop>3.0</pdop><geoidheight>54.00</geoidheight><course>202.6</course><type>1</type></trkpt>
      <trkpt lat="39.62590384" lon="-6.41484067"><ele>3008</ele><speed>7.00</speed><time>2016-06-21T16:29:41Z</time><pdop>3.0</pdop><geoidheight>54.00</geoidheight><course>220.8</course><type>1</type></trkpt>
      <trkpt lat="39.62586422" lon="-6.41491827"><ele>3009</ele><speed>8.00</speed><time>2016-06-21T16:29:42Z</time><pdop>3.0</pdop><geoidheight>54.00</geoidheight><course>233.1</course><type>1</type></trkpt>
      <trkpt lat="39.62583098" lon="-6.41501766"><ele>3009</ele><speed>8.75</speed><time>2016-06-21T16:29:43Z</time><pdop>3.0</pdop><geoidheight>54.00</geoidheight><course>243.4</course><type>1</type></trkpt>
      <trkpt lat="39.6258118" lon="-6.41512572"><ele>2971</ele><speed>9.50</speed><time>2016-06-21T16:29:44Z</time><pdop>3.0</pdop><geoidheight>54.00</geoidheight><course>255.3</course><type>1</type></trkpt>
      <trkpt lat="39.62580969" lon="-6.41524651"><ele>2987</ele><speed>10.25</speed><time>2016-06-21T16:29:45Z</time><pdop>3.0</pdop><geoidheight>54.00</geoidheight><course>268.4</course><type>1</type></trkpt>
      <trkpt lat="39.62587184" lon="-6.41550864"><ele>3002</ele><speed>12.00</speed><time>2016-06-21T16:29:47Z</time><pdop>4.0</pdop><geoidheight>54.00</geoidheight><course>290.2</course><type>1</type></trkpt>
      <trkpt lat="39.62600778" lon="-6.4157075"><ele>3011</ele><speed>11.25</speed><time>2016-06-21T16:29:49Z</time><pdop>3.0</pdop><geoidheight>54.00</geoidheight><course>313.3</course><type>1</type></trkpt>
      <trkpt lat="39.62608839" lon="-6.41577751"><ele>3015</ele><speed>10.75</speed><time>2016-06-21T16:29:50Z</time><pdop>3.0</pdop><geoidheight>54.00</geoidheight><course>324.6</course><type>1</type></trkpt>
      <trkpt lat="39.62617586" lon="-6.41583248"><ele>3018</ele><speed>10.75</speed><time>2016-06-21T16:29:51Z</time><pdop>4.0</pdop><geoidheight>54.00</geoidheight><course>333.5</course><type>1</type></trkpt>
      <trkpt lat="39.62637036" lon="-6.41591005"><ele>3023</ele><speed>11.00</speed><time>2016-06-21T16:29:53Z</time><pdop>3.0</pdop><geoidheight>54.00</geoidheight><course>342.8</course><type>1</type></trkpt>
      <trkpt lat="39.62645985" lon="-6.41593135"><ele>3025</ele><speed>10.00</speed><time>2016-06-21T16:29:54Z</time><pdop>3.0</pdop><geoidheight>54.00</geoidheight><course>347.2</course><type>1</type></trkpt>
      <trkpt lat="39.62654441" lon="-6.41593413"><ele>3026</ele><speed>9.25</speed><time>2016-06-21T16:29:55Z</time><pdop>3.0</pdop><geoidheight>54.00</geoidheight><course>356.3</course><type>1</type></trkpt>
      <trkpt lat="39.62673422" lon="-6.41588761"><ele>3028</ele><speed>11.25</speed><time>2016-06-21T16:29:57Z</time><pdop>3.0</pdop><geoidheight>54.00</geoidheight><course>13.2</course><type>1</type></trkpt>
      <trkpt lat="39.6268326" lon="-6.41585775"><ele>3029</ele><speed>11.25</speed><time>2016-06-21T16:29:58Z</time><pdop>5.0</pdop><geoidheight>54.00</geoidheight><course>13.2</course><type>1</type></trkpt>
      <trkpt lat="39.62701659" lon="-6.41576084"><ele>3034</ele><speed>10.50</speed><time>2016-06-21T16:30:00Z</time><pdop>3.0</pdop><geoidheight>54.00</geoidheight><course>19.3</course><type>1</type></trkpt>
      <trkpt lat="39.62710069" lon="-6.41571727"><ele>3036</ele><speed>9.75</speed><time>2016-06-21T16:30:01Z</time><pdop>3.0</pdop><geoidheight>54.00</geoidheight><course>21.0</course><type>1</type></trkpt>
      <trkpt lat="39.62724252" lon="-6.41560537"><ele>3039</ele><speed>9.00</speed><time>2016-06-21T16:30:03Z</time><pdop>3.0</pdop><geoidheight>54.00</geoidheight><course>33.7</course><type>1</type></trkpt>
      <trkpt lat="39.62729671" lon="-6.4155294"><ele>3040</ele><speed>8.75</speed><time>2016-06-21T16:30:04Z</time><pdop>3.0</pdop><geoidheight>54.00</geoidheight><course>45.3</course><type>1</type></trkpt>
      <trkpt lat="39.62735583" lon="-6.41534064"><ele>3040</ele><speed>9.00</speed><time>2016-06-21T16:30:06Z</time><pdop>4.0</pdop><geoidheight>54.00</geoidheight><course>73.0</course><type>1</type></trkpt>
      <trkpt lat="39.62733778" lon="-6.41515137"><ele>3043</ele><speed>8.25</speed><time>2016-06-21T16:30:08Z</time><pdop>4.0</pdop><geoidheight>54.00</geoidheight><course>103.4</course><type>1</type></trkpt>
      <trkpt lat="39.62730226" lon="-6.41508154"><ele>3045</ele><speed>7.50</speed><time>2016-06-21T16:30:09Z</time><pdop>3.0</pdop><geoidheight>54.00</geoidheight><course>121.1</course><type>1</type></trkpt>
      <trkpt lat="39.627199" lon="-6.41499293"><ele>3047</ele><speed>6.75</speed><time>2016-06-21T16:30:11Z</time><pdop>4.0</pdop><geoidheight>54.00</geoidheight><course>150.9</course><type>1</type></trkpt>
      <trkpt lat="39.62709621" lon="-6.41494797"><ele>3051</ele><speed>6.00</speed><time>2016-06-21T16:30:13Z</time><pdop>3.0</pdop><geoidheight>54.00</geoidheight><course>165.6</course><type>1</type></trkpt>
      <trkpt lat="39.62697991" lon="-6.41498867"><ele>3051</ele><speed>7.00</speed><time>2016-06-21T16:30:15Z</time><pdop>3.0</pdop><geoidheight>54.00</geoidheight><course>199.7</course><type>1</type></trkpt>
      <trkpt lat="39.62692148" lon="-6.41504353"><ele>3052</ele><speed>8.00</speed><time>2016-06-21T16:30:16Z</time><pdop>3.0</pdop><geoidheight>54.00</geoidheight><course>214.3</course><type>1</type></trkpt>
      <trkpt lat="39.62682634" lon="-6.41518301"><ele>3055</ele><speed>8.00</speed><time>2016-06-21T16:30:18Z</time><pdop>5.0</pdop><geoidheight>54.00</geoidheight><course>227.6</course><type>1</type></trkpt>
      <trkpt lat="39.62682081" lon="-6.41527861"><ele>3055</ele><speed>7.75</speed><time>2016-06-21T16:30:19Z</time><pdop>3.0</pdop><geoidheight>54.00</geoidheight><course>251.8</course><type>1</type></trkpt>
      <trkpt lat="39.62680014" lon="-6.41537183"><ele>3056</ele><speed>8.25</speed><time>2016-06-21T16:30:20Z</time><pdop>3.0</pdop><geoidheight>54.00</geoidheight><course>256.7</course><type>1</type></trkpt>
      <trkpt lat="39.6267912" lon="-6.41558573"><ele>3056</ele><speed>9.50</speed><time>2016-06-21T16:30:22Z</time><pdop>3.0</pdop><geoidheight>54.00</geoidheight><course>269.7</course><type>1</type></trkpt>
      <trkpt lat="39.62684557" lon="-6.41582134"><ele>3056</ele><speed>10.50</speed><time>2016-06-21T16:30:24Z</time><pdop>3.0</pdop><geoidheight>54.00</geoidheight><course>288.6</course><type>1</type></trkpt>
      <trkpt lat="39.62689365" lon="-6.41593041"><ele>3057</ele><speed>10.50</speed><time>2016-06-21T16:30:25Z</time><pdop>3.0</pdop><geoidheight>54.00</geoidheight><course>298.1</course><type>1</type></trkpt>
      <trkpt lat="39.62703188" lon="-6.41609791"><ele>3059</ele><speed>10.50</speed><time>2016-06-21T16:30:27Z</time><pdop>3.0</pdop><geoidheight>54.00</geoidheight><course>321.9</course><type>1</type></trkpt>
      <trkpt lat="39.62721126" lon="-6.41619261"><ele>3060</ele><speed>10.75</speed><time>2016-06-21T16:30:29Z</time><pdop>3.0</pdop><geoidheight>54.00</geoidheight><course>341.4</course><type>1</type></trkpt>
      <trkpt lat="39.62730952" lon="-6.4162085"><ele>3063</ele><speed>11.00</speed><time>2016-06-21T16:30:30Z</time><pdop>3.0</pdop><geoidheight>54.00</geoidheight><course>351.4</course><type>1</type></trkpt>
      <trkpt lat="39.6274052" lon="-6.41620826"><ele>3064</ele><speed>10.75</speed><time>2016-06-21T16:30:31Z</time><pdop>4.0</pdop><geoidheight>54.00</geoidheight><course>359.8</course><type>1</type></trkpt>
      <trkpt lat="39.62749834" lon="-6.41617016"><ele>3066</ele><speed>10.75</speed><time>2016-06-21T16:30:32Z</time><pdop>3.0</pdop><geoidheight>54.00</geoidheight><course>12.3</course><type>1</type></trkpt>
      <trkpt lat="39.62768512" lon="-6.41607469"><ele>3070</ele><speed>11.00</speed><time>2016-06-21T16:30:34Z</time><pdop>3.0</pdop><geoidheight>54.00</geoidheight><course>21.6</course><type>1</type></trkpt>
      <trkpt lat="39.62777371" lon="-6.41601693"><ele>3072</ele><speed>11.00</speed><time>2016-06-21T16:30:35Z</time><pdop>3.0</pdop><geoidheight>54.00</geoidheight><course>25.7</course><type>1</type></trkpt>
      <trkpt lat="39.62784903" lon="-6.41594853"><ele>3074</ele><speed>10.25</speed><time>2016-06-21T16:30:36Z</time><pdop>3.0</pdop><geoidheight>54.00</geoidheight><course>33.2</course><type>1</type></trkpt>
      <trkpt lat="39.62797953" lon="-6.41578777"><ele>3075</ele><speed>9.75</speed><time>2016-06-21T16:30:38Z</time><pdop>3.0</pdop><geoidheight>54.00</geoidheight><course>44.7</course><type>1</type></trkpt>
      <trkpt lat="39.62804757" lon="-6.41570148"><ele>3076</ele><speed>10.50</speed><time>2016-06-21T16:30:39Z</time><pdop>3.0</pdop><geoidheight>54.00</geoidheight><course>44.4</course><type>1</type></trkpt>
      <trkpt lat="39.62811514" lon="-6.41561594"><ele>3076</ele><speed>10.50</speed><time>2016-06-21T16:30:40Z</time><pdop>5.0</pdop><geoidheight>54.00</geoidheight><course>44.4</course><type>1</type></trkpt>
      <trkpt lat="39.62827961" lon="-6.41540936"><ele>3080</ele><speed>11.50</speed><time>2016-06-21T16:30:42Z</time><pdop>3.0</pdop><geoidheight>54.00</geoidheight><course>45.0</course><type>1</type></trkpt>
      <trkpt lat="39.62834986" lon="-6.41532087"><ele>3081</ele><speed>10.75</speed><time>2016-06-21T16:30:43Z</time><pdop>3.0</pdop><geoidheight>54.00</geoidheight><course>44.2</course><type>1</type></trkpt>
      <trkpt lat="39.62841933" lon="-6.41523984"><ele>3082</ele><speed>10.50</speed><time>2016-06-21T16:30:44Z</time><pdop>3.0</pdop><geoidheight>54.00</geoidheight><course>43.1</course><type>1</type></trkpt>
      <trkpt lat="39.62855511" lon="-6.41506548"><ele>3085</ele><speed>10.75</speed><time>2016-06-21T16:30:46Z</time><pdop>3.0</pdop><geoidheight>54.00</geoidheight><course>44.8</course><type>1</type></trkpt>
      <trkpt lat="39.62861818" lon="-6.41497337"><ele>3086</ele><speed>10.50</speed><time>2016-06-21T16:30:47Z</time><pdop>3.0</pdop><geoidheight>54.00</geoidheight><course>48.3</course><type>1</type></trkpt>
      <trkpt lat="39.62867288" lon="-6.41487943"><ele>3088</ele><speed>10.00</speed><time>2016-06-21T16:30:48Z</time><pdop>3.0</pdop><geoidheight>54.00</geoidheight><course>53.5</course><type>1</type></trkpt>
      <trkpt lat="39.62874098" lon="-6.4146994"><ele>3091</ele><speed>8.00</speed><time>2016-06-21T16:30:50Z</time><pdop>3.0</pdop><geoidheight>54.00</geoidheight><course>66.8</course><type>1</type></trkpt>
      <trkpt lat="39.62874674" lon="-6.4146154"><ele>3091</ele><speed>7.50</speed><time>2016-06-21T16:30:51Z</time><pdop>3.0</pdop><geoidheight>54.00</geoidheight><course>81.6</course><type>1</type></trkpt>
      <trkpt lat="39.62871451" lon="-6.41444068"><ele>3091</ele><speed>7.75</speed><time>2016-06-21T16:30:53Z</time><pdop>4.0</pdop><geoidheight>54.00</geoidheight><course>108.1</course><type>1</type></trkpt>
      <trkpt lat="39.62862112" lon="-6.41435899"><ele>3093</ele><speed>6.00</speed><time>2016-06-21T16:30:55Z</time><pdop>3.0</pdop><geoidheight>54.00</geoidheight><course>150.8</course><type>1</type></trkpt>
      <trkpt lat="39.62851379" lon="-6.41436634"><ele>3095</ele><speed>5.75</speed><time>2016-06-21T16:30:57Z</time><pdop>4.0</pdop><geoidheight>54.00</geoidheight><course>183.4</course><type>1</type></trkpt>
      <trkpt lat="39.62845125" lon="-6.41441531"><ele>3096</ele><speed>7.00</speed><time>2016-06-21T16:30:58Z</time><pdop>3.0</pdop><geoidheight>54.00</geoidheight><course>203.8</course><type>1</type></trkpt>
      <trkpt lat="39.628393" lon="-6.41447302"><ele>3097</ele><speed>7.50</speed><time>2016-06-21T16:30:59Z</time><pdop>3.0</pdop><geoidheight>54.00</geoidheight><course>216.0</course><type>1</type></trkpt>
      <trkpt lat="39.62835257" lon="-6.4145495"><ele>3098</ele><speed>7.75</speed><time>2016-06-21T16:31:00Z</time><pdop>3.0</pdop><geoidheight>54.00</geoidheight><course>233.2</course><type>1</type></trkpt>
      <trkpt lat="39.628312" lon="-6.41475151"><ele>3100</ele><speed>9.00</speed><time>2016-06-21T16:31:02Z</time><pdop>3.0</pdop><geoidheight>54.00</geoidheight><course>260.8</course><type>1</type></trkpt>
      <trkpt lat="39.62832874" lon="-6.41497459"><ele>3102</ele><speed>9.75</speed><time>2016-06-21T16:31:04Z</time><pdop>3.0</pdop><geoidheight>54.00</geoidheight><course>277.4</course><type>1</type></trkpt>
      <trkpt lat="39.62836021" lon="-6.41509151"><ele>3103</ele><speed>10.25</speed><time>2016-06-21T16:31:05Z</time><pdop>4.0</pdop><geoidheight>54.00</geoidheight><course>286.3</course><type>1</type></trkpt>
      <trkpt lat="39.6284163" lon="-6.41519918"><ele>3104</ele><speed>11.00</speed><time>2016-06-21T16:31:06Z</time><pdop>4.0</pdop><geoidheight>54.00</geoidheight><course>299.1</course><type>1</type></trkpt>
      <trkpt lat="39.62850198" lon="-6.41527848"><ele>3104</ele><speed>11.50</speed><time>2016-06-21T16:31:07Z</time><pdop>3.0</pdop><geoidheight>54.00</geoidheight><course>316.0</course><type>1</type></trkpt>
      <trkpt lat="39.62867762" lon="-6.41542564"><ele>3105</ele><speed>11.50</speed><time>2016-06-21T16:31:09Z</time><pdop>6.0</pdop><geoidheight>54.00</geoidheight><course>325.9</course><type>1</type></trkpt>
      <trkpt lat="39.62888957" lon="-6.41544163"><ele>3108</ele><speed>11.25</speed><time>2016-06-21T16:31:11Z</time><pdop>5.0</pdop><geoidheight>54.00</geoidheight><course>348.1</course><type>1</type></trkpt>
      <trkpt lat="39.62898717" lon="-6.41540717"><ele>3107</ele><speed>11.00</speed><time>2016-06-21T16:31:12Z</time><pdop>3.0</pdop><geoidheight>54.00</geoidheight><course>4.1</course><type>1</type></trkpt>
      <trkpt lat="39.62908572" lon="-6.41537885"><ele>3108</ele><speed>11.25</speed><time>2016-06-21T16:31:13Z</time><pdop>3.0</pdop><geoidheight>54.00</geoidheight><course>11.7</course><type>1</type></trkpt>
      <trkpt lat="39.62928048" lon="-6.41526406"><ele>3108</ele><speed>11.75</speed><time>2016-06-21T16:31:15Z</time><pdop>3.0</pdop><geoidheight>54.00</geoidheight><course>26.0</course><type>1</type></trkpt>
      <trkpt lat="39.6293674" lon="-6.4151887"><ele>3108</ele><speed>11.50</speed><time>2016-06-21T16:31:16Z</time><pdop>3.0</pdop><geoidheight>54.00</geoidheight><course>32.6</course><type>1</type></trkpt>
      <trkpt lat="39.62952447" lon="-6.41501369"><ele>3108</ele><speed>11.25</speed><time>2016-06-21T16:31:18Z</time><pdop>3.0</pdop><geoidheight>54.00</geoidheight><course>40.1</course><type>1</type></trkpt>
      <trkpt lat="39.62960018" lon="-6.41492222"><ele>3110</ele><speed>11.00</speed><time>2016-06-21T16:31:19Z</time><pdop>3.0</pdop><geoidheight>54.00</geoidheight><course>41.4</course><type>1</type></trkpt>
      <trkpt lat="39.62967259" lon="-6.41483187"><ele>3111</ele><speed>10.75</speed><time>2016-06-21T16:31:20Z</time><pdop>3.0</pdop><geoidheight>54.00</geoidheight><course>43.5</course><type>1</type></trkpt>
      <trkpt lat="39.62973634" lon="-6.4147389"><ele>3112</ele><speed>10.50</speed><time>2016-06-21T16:31:21Z</time><pdop>3.0</pdop><geoidheight>54.00</geoidheight><course>48.4</course><type>1</type></trkpt>
      <trkpt lat="39.62982612" lon="-6.4145397"><ele>3115</ele><speed>9.75</speed><time>2016-06-21T16:31:23Z</time><pdop>3.0</pdop><geoidheight>54.00</geoidheight><course>63.1</course><type>1</type></trkpt>
      <trkpt lat="39.62984996" lon="-6.41434909"><ele>3117</ele><speed>8.25</speed><time>2016-06-21T16:31:25Z</time><pdop>3.0</pdop><geoidheight>54.00</geoidheight><course>85.6</course><type>1</type></trkpt>
      <trkpt lat="39.6298116" lon="-6.41418584"><ele>3118</ele><speed>7.25</speed><time>2016-06-21T16:31:27Z</time><pdop>3.0</pdop><geoidheight>54.00</geoidheight><course>111.1</course><type>1</type></trkpt>
      <trkpt lat="39.62977032" lon="-6.41411973"><ele>3118</ele><speed>7.00</speed><time>2016-06-21T16:31:28Z</time><pdop>3.0</pdop><geoidheight>54.00</geoidheight><course>125.8</course><type>1</type></trkpt>
      <trkpt lat="39.62971658" lon="-6.41407138"><ele>3118</ele><speed>7.25</speed><time>2016-06-21T16:31:29Z</time><pdop>3.0</pdop><geoidheight>54.00</geoidheight><course>141.5</course><type>1</type></trkpt>
      <trkpt lat="39.62965292" lon="-6.4140453"><ele>3118</ele><speed>7.25</speed><time>2016-06-21T16:31:30Z</time><pdop>3.0</pdop><geoidheight>54.00</geoidheight><course>157.2</course><type>1</type></trkpt>
      <trkpt lat="39.62958704" lon="-6.41404365"><ele>3119</ele><speed>7.25</speed><time>2016-06-21T16:31:31Z</time><pdop>3.0</pdop><geoidheight>54.00</geoidheight><course>175.1</course><type>1</type></trkpt>
      <trkpt lat="39.62946457" lon="-6.41410707"><ele>3121</ele><speed>7.25</speed><time>2016-06-21T16:31:33Z</time><pdop>4.0</pdop><geoidheight>54.00</geoidheight><course>205.3</course><type>1</type></trkpt>
      <trkpt lat="39.62941528" lon="-6.41416224"><ele>3122</ele><speed>7.00</speed><time>2016-06-21T16:31:34Z</time><pdop>3.0</pdop><geoidheight>54.00</geoidheight><course>217.2</course><type>1</type></trkpt>
      <trkpt lat="39.62937088" lon="-6.41422658"><ele>3123</ele><speed>7.00</speed><time>2016-06-21T16:31:35Z</time><pdop>3.0</pdop><geoidheight>54.00</geoidheight><course>225.2</course><type>1</type></trkpt>
      <trkpt lat="39.62929803" lon="-6.41438174"><ele>3124</ele><speed>8.00</speed><time>2016-06-21T16:31:37Z</time><pdop>3.0</pdop><geoidheight>54.00</geoidheight><course>239.6</course><type>1</type></trkpt>
      <trkpt lat="39.62927401" lon="-6.41448266"><ele>3124</ele><speed>9.00</speed><time>2016-06-21T16:31:38Z</time><pdop>3.0</pdop><geoidheight>54.00</geoidheight><course>250.3</course><type>1</type></trkpt>
      <trkpt lat="39.62927886" lon="-6.41471584"><ele>3124</ele><speed>10.75</speed><time>2016-06-21T16:31:40Z</time><pdop>3.0</pdop><geoidheight>54.00</geoidheight><course>277.2</course><type>1</type></trkpt>
      <trkpt lat="39.62931906" lon="-6.41484377"><ele>3124</ele><speed>11.25</speed><time>2016-06-21T16:31:41Z</time><pdop>3.0</pdop><geoidheight>54.00</geoidheight><course>289.9</course><type>1</type></trkpt>
      <trkpt lat="39.62936677" lon="-6.41496112"><ele>3124</ele><speed>11.50</speed><time>2016-06-21T16:31:42Z</time><pdop>4.0</pdop><geoidheight>54.00</geoidheight><course>295.8</course><type>1</type></trkpt>
      <trkpt lat="39.6294398" lon="-6.41505151"><ele>3125</ele><speed>11.25</speed><time>2016-06-21T16:31:43Z</time><pdop>3.0</pdop><geoidheight>54.00</geoidheight><course>311.4</course><type>1</type></trkpt>
      <trkpt lat="39.62960256" lon="-6.41518678"><ele>3125</ele><speed>10.50</speed><time>2016-06-21T16:31:45Z</time><pdop>3.0</pdop><geoidheight>54.00</geoidheight><course>330.6</course><type>1</type></trkpt>
      <trkpt lat="39.62969324" lon="-6.41523258"><ele>3125</ele><speed>10.75</speed><time>2016-06-21T16:31:46Z</time><pdop>3.0</pdop><geoidheight>54.00</geoidheight><course>336.6</course><type>1</type></trkpt>
      <trkpt lat="39.6297877" lon="-6.41528199"><ele>3125</ele><speed>11.25</speed><time>2016-06-21T16:31:47Z</time><pdop>3.0</pdop><geoidheight>54.00</geoidheight><course>338.8</course><type>1</type></trkpt>
      <trkpt lat="39.62998246" lon="-6.41537112"><ele>3125</ele><speed>11.50</speed><time>2016-06-21T16:31:49Z</time><pdop>3.0</pdop><geoidheight>54.00</geoidheight><course>341.7</course><type>1</type></trkpt>
      <trkpt lat="39.63008184" lon="-6.41540736"><ele>3126</ele><speed>11.75</speed><time>2016-06-21T16:31:50Z</time><pdop>3.0</pdop><geoidheight>54.00</geoidheight><course>343.5</course><type>1</type></trkpt>
      <trkpt lat="39.6301818" lon="-6.41543956"><ele>3127</ele><speed>11.50</speed><time>2016-06-21T16:31:51Z</time><pdop>4.0</pdop><geoidheight>54.00</geoidheight><course>345.3</course><type>1</type></trkpt>
      <trkpt lat="39.63038504" lon="-6.41549419"><ele>3129</ele><speed>11.75</speed><time>2016-06-21T16:31:53Z</time><pdop>3.0</pdop><geoidheight>54.00</geoidheight><course>348.0</course><type>1</type></trkpt>
      <trkpt lat="39.63059709" lon="-6.41555351"><ele>3130</ele><speed>12.00</speed><time>2016-06-21T16:31:55Z</time><pdop>5.0</pdop><geoidheight>54.00</geoidheight><course>347.9</course><type>1</type></trkpt>
      <trkpt lat="39.6308248" lon="-6.41562411"><ele>3131</ele><speed>13.00</speed><time>2016-06-21T16:31:57Z</time><pdop>3.0</pdop><geoidheight>54.00</geoidheight><course>347.4</course><type>1</type></trkpt>
      <trkpt lat="39.63093903" lon="-6.41565686"><ele>3131</ele><speed>13.25</speed><time>2016-06-21T16:31:58Z</time><pdop>3.0</pdop><geoidheight>54.00</geoidheight><course>347.1</course><type>1</type></trkpt>
      <trkpt lat="39.63105276" lon="-6.41569145"><ele>3132</ele><speed>13.00</speed><time>2016-06-21T16:31:59Z</time><pdop>3.0</pdop><geoidheight>54.00</geoidheight><course>346.5</course><type>1</type></trkpt>
      <trkpt lat="39.63116411" lon="-6.41572842"><ele>3133</ele><speed>13.00</speed><time>2016-06-21T16:32:00Z</time><pdop>3.0</pdop><geoidheight>54.00</geoidheight><course>345.9</course><type>1</type></trkpt>
      <trkpt lat="39.63138777" lon="-6.41581342"><ele>3133</ele><speed>13.00</speed><time>2016-06-21T16:32:02Z</time><pdop>3.0</pdop><geoidheight>54.00</geoidheight><course>343.8</course><type>1</type></trkpt>
      <trkpt lat="39.63150218" lon="-6.41585655"><ele>3134</ele><speed>13.25</speed><time>2016-06-21T16:32:03Z</time><pdop>3.0</pdop><geoidheight>54.00</geoidheight><course>343.8</course><type>1</type></trkpt>
      <trkpt lat="39.63162116" lon="-6.4158978"><ele>3134</ele><speed>13.25</speed><time>2016-06-21T16:32:04Z</time><pdop>3.0</pdop><geoidheight>54.00</geoidheight><course>344.8</course><type>1</type></trkpt>
      <trkpt lat="39.6318497" lon="-6.41597344"><ele>3135</ele><speed>13.25</speed><time>2016-06-21T16:32:06Z</time><pdop>5.0</pdop><geoidheight>54.00</geoidheight><course>345.8</course><type>1</type></trkpt>
      <trkpt lat="39.63195525" lon="-6.41600725"><ele>3135</ele><speed>12.50</speed><time>2016-06-21T16:32:07Z</time><pdop>4.0</pdop><geoidheight>54.00</geoidheight><course>346.8</course><type>1</type></trkpt>
      <trkpt lat="39.6320646" lon="-6.41604066"><ele>3135</ele><speed>12.75</speed><time>2016-06-21T16:32:08Z</time><pdop>3.0</pdop><geoidheight>54.00</geoidheight><course>347.5</course><type>1</type></trkpt>
      <trkpt lat="39.6321767" lon="-6.41607268"><ele>3135</ele><speed>12.75</speed><time>2016-06-21T16:32:09Z</time><pdop>5.0</pdop><geoidheight>54.00</geoidheight><course>347.5</course><type>1</type></trkpt>
      <trkpt lat="39.63230138" lon="-6.41609652"><ele>3134</ele><speed>13.50</speed><time>2016-06-21T16:32:10Z</time><pdop>4.0</pdop><geoidheight>54.00</geoidheight><course>349.9</course><type>1</type></trkpt>
      <trkpt lat="39.63253657" lon="-6.41613373"><ele>3136</ele><speed>13.00</speed><time>2016-06-21T16:32:12Z</time><pdop>3.0</pdop><geoidheight>54.00</geoidheight><course>354.6</course><type>1</type></trkpt>
      <trkpt lat="39.63265108" lon="-6.41614495"><ele>3136</ele><speed>12.75</speed><time>2016-06-21T16:32:13Z</time><pdop>4.0</pdop><geoidheight>54.00</geoidheight><course>356.3</course><type>1</type></trkpt>
      <trkpt lat="39.63287555" lon="-6.41616037"><ele>3138</ele><speed>12.50</speed><time>2016-06-21T16:32:15Z</time><pdop>4.0</pdop><geoidheight>54.00</geoidheight><course>356.0</course><type>1</type></trkpt>
      <trkpt lat="39.63299041" lon="-6.41616997"><ele>3139</ele><speed>12.75</speed><time>2016-06-21T16:32:16Z</time><pdop>4.0</pdop><geoidheight>54.00</geoidheight><course>356.6</course><type>1</type></trkpt>
      <trkpt lat="39.63322664" lon="-6.41616578"><ele>3140</ele><speed>13.25</speed><time>2016-06-21T16:32:18Z</time><pdop>3.0</pdop><geoidheight>54.00</geoidheight><course>1.8</course><type>1</type></trkpt>
      <trkpt lat="39.63334563" lon="-6.41616089"><ele>3141</ele><speed>13.25</speed><time>2016-06-21T16:32:19Z</time><pdop>5.0</pdop><geoidheight>54.00</geoidheight><course>1.8</course><type>1</type></trkpt>
      <trkpt lat="39.63347375" lon="-6.41612788"><ele>3142</ele><speed>14.00</speed><time>2016-06-21T16:32:20Z</time><pdop>3.0</pdop><geoidheight>54.00</geoidheight><course>7.9</course><type>1</type></trkpt>
      <trkpt lat="39.63371847" lon="-6.41608132"><ele>3144</ele><speed>13.75</speed><time>2016-06-21T16:32:22Z</time><pdop>6.0</pdop><geoidheight>54.00</geoidheight><course>8.6</course><type>1</type></trkpt>
      <trkpt lat="39.63382411" lon="-6.41607024"><ele>3147</ele><speed>12.75</speed><time>2016-06-21T16:32:23Z</time><pdop>5.0</pdop><geoidheight>54.00</geoidheight><course>6.7</course><type>1</type></trkpt>
      <trkpt lat="39.63391681" lon="-6.41608339"><ele>3147</ele><speed>11.50</speed><time>2016-06-21T16:32:24Z</time><pdop>3.0</pdop><geoidheight>54.00</geoidheight><course>359.5</course><type>1</type></trkpt>
      <trkpt lat="39.63412419" lon="-6.41609711"><ele>3147</ele><speed>11.50</speed><time>2016-06-21T16:32:26Z</time><pdop>3.0</pdop><geoidheight>54.00</geoidheight><course>357.2</course><type>1</type></trkpt>
      <trkpt lat="39.63433171" lon="-6.41610107"><ele>3147</ele><speed>11.50</speed><time>2016-06-21T16:32:28Z</time><pdop>5.0</pdop><geoidheight>54.00</geoidheight><course>358.7</course><type>1</type></trkpt>
      <trkpt lat="39.6344356" lon="-6.41609259"><ele>3147</ele><speed>11.50</speed><time>2016-06-21T16:32:29Z</time><pdop>5.0</pdop><geoidheight>54.00</geoidheight><course>0.9</course><type>1</type></trkpt>
      <trkpt lat="39.63453541" lon="-6.41609498"><ele>3147</ele><speed>11.25</speed><time>2016-06-21T16:32:30Z</time><pdop>3.0</pdop><geoidheight>54.00</geoidheight><course>359.3</course><type>1</type></trkpt>
      <trkpt lat="39.63472306" lon="-6.41614534"><ele>3147</ele><speed>10.25</speed><time>2016-06-21T16:32:32Z</time><pdop>4.0</pdop><geoidheight>54.00</geoidheight><course>343.3</course><type>1</type></trkpt>
      <trkpt lat="39.63481068" lon="-6.41619843"><ele>3147</ele><speed>10.25</speed><time>2016-06-21T16:32:33Z</time><pdop>4.0</pdop><geoidheight>54.00</geoidheight><course>335.5</course><type>1</type></trkpt>
      <trkpt lat="39.63488638" lon="-6.41626327"><ele>3147</ele><speed>10.00</speed><time>2016-06-21T16:32:34Z</time><pdop>3.0</pdop><geoidheight>54.00</geoidheight><course>328.4</course><type>1</type></trkpt>
      <trkpt lat="39.63495856" lon="-6.4163282"><ele>3146</ele><speed>9.75</speed><time>2016-06-21T16:32:35Z</time><pdop>4.0</pdop><geoidheight>54.00</geoidheight><course>325.4</course><type>1</type></trkpt>
      <trkpt lat="39.63506534" lon="-6.41652544"><ele>3144</ele><speed>10.00</speed><time>2016-06-21T16:32:37Z</time><pdop>3.0</pdop><geoidheight>54.00</geoidheight><course>303.9</course><type>1</type></trkpt>
      <trkpt lat="39.63511544" lon="-6.41662176"><ele>3143</ele><speed>10.00</speed><time>2016-06-21T16:32:38Z</time><pdop>5.0</pdop><geoidheight>54.00</geoidheight><course>303.9</course><type>1</type></trkpt>
      <trkpt lat="39.63517499" lon="-6.41672326"><ele>3144</ele><speed>10.25</speed><time>2016-06-21T16:32:39Z</time><pdop>3.0</pdop><geoidheight>54.00</geoidheight><course>305.1</course><type>1</type></trkpt>
      <trkpt lat="39.63529615" lon="-6.41688677"><ele>3144</ele><speed>9.25</speed><time>2016-06-21T16:32:41Z</time><pdop>4.0</pdop><geoidheight>54.00</geoidheight><course>314.0</course><type>1</type></trkpt>
      <trkpt lat="39.63550448" lon="-6.41707346"><ele>3140</ele><speed>9.50</speed><time>2016-06-21T16:32:44Z</time><pdop>5.0</pdop><geoidheight>54.00</geoidheight><course>325.7</course><type>1</type></trkpt>
      <trkpt lat="39.63559544" lon="-6.4171211"><ele>3138</ele><speed>10.00</speed><time>2016-06-21T16:32:45Z</time><pdop>5.0</pdop><geoidheight>54.00</geoidheight><course>333.4</course><type>1</type></trkpt>
      <trkpt lat="39.63572359" lon="-6.41711577"><ele>3138</ele><speed>12.00</speed><time>2016-06-21T16:32:46Z</time><pdop>3.0</pdop><geoidheight>54.00</geoidheight><course>352.6</course><type>1</type></trkpt>
      <trkpt lat="39.63592854" lon="-6.41707334"><ele>3137</ele><speed>11.00</speed><time>2016-06-21T16:32:48Z</time><pdop>4.0</pdop><geoidheight>54.00</geoidheight><course>11.7</course><type>1</type></trkpt>
      <trkpt lat="39.63610332" lon="-6.4169846"><ele>3136</ele><speed>10.50</speed><time>2016-06-21T16:32:50Z</time><pdop>3.0</pdop><geoidheight>54.00</geoidheight><course>19.7</course><type>1</type></trkpt>
      <trkpt lat="39.63629882" lon="-6.41688733"><ele>3133</ele><speed>12.00</speed><time>2016-06-21T16:32:52Z</time><pdop>4.0</pdop><geoidheight>54.00</geoidheight><course>21.1</course><type>1</type></trkpt>
      <trkpt lat="39.63640479" lon="-6.41682071"><ele>3133</ele><speed>13.00</speed><time>2016-06-21T16:32:53Z</time><pdop>4.0</pdop><geoidheight>54.00</geoidheight><course>25.2</course><type>1</type></trkpt>
      <trkpt lat="39.63650614" lon="-6.41674521"><ele>3134</ele><speed>13.00</speed><time>2016-06-21T16:32:54Z</time><pdop>3.0</pdop><geoidheight>54.00</geoidheight><course>29.4</course><type>1</type></trkpt>
      <trkpt lat="39.63660241" lon="-6.41667198"><ele>3134</ele><speed>12.50</speed><time>2016-06-21T16:32:55Z</time><pdop>4.0</pdop><geoidheight>54.00</geoidheight><course>29.8</course><type>1</type></trkpt>
      <trkpt lat="39.63678714" lon="-6.41655487"><ele>3136</ele><speed>11.00</speed><time>2016-06-21T16:32:57Z</time><pdop>4.0</pdop><geoidheight>54.00</geoidheight><course>23.9</course><type>1</type></trkpt>
      <trkpt lat="39.63687639" lon="-6.41651119"><ele>3134</ele><speed>11.00</speed><time>2016-06-21T16:32:58Z</time><pdop>3.0</pdop><geoidheight>54.00</geoidheight><course>21.2</course><type>1</type></trkpt>
      <trkpt lat="39.63697086" lon="-6.41646286"><ele>3133</ele><speed>11.25</speed><time>2016-06-21T16:32:59Z</time><pdop>4.0</pdop><geoidheight>54.00</geoidheight><course>21.5</course><type>1</type></trkpt>
      <trkpt lat="39.63717427" lon="-6.41636368"><ele>3130</ele><speed>12.00</speed><time>2016-06-21T16:33:01Z</time><pdop>3.0</pdop><geoidheight>54.00</geoidheight><course>19.7</course><type>1</type></trkpt>
      <trkpt lat="39.63728313" lon="-6.4163226"><ele>3128</ele><speed>12.50</speed><time>2016-06-21T16:33:02Z</time><pdop>3.0</pdop><geoidheight>54.00</geoidheight><course>16.1</course><type>1</type></trkpt>
      <trkpt lat="39.63739007" lon="-6.41628909"><ele>3127</ele><speed>12.75</speed><time>2016-06-21T16:33:03Z</time><pdop>3.0</pdop><geoidheight>54.00</geoidheight><course>14.1</course><type>1</type></trkpt>
      <trkpt lat="39.63749907" lon="-6.41625284"><ele>3125</ele><speed>12.75</speed><time>2016-06-21T16:33:04Z</time><pdop>3.0</pdop><geoidheight>54.00</geoidheight><course>13.4</course><type>1</type></trkpt>
      <trkpt lat="39.63770569" lon="-6.41618367"><ele>3127</ele><speed>12.00</speed><time>2016-06-21T16:33:06Z</time><pdop>3.0</pdop><geoidheight>54.00</geoidheight><course>14.7</course><type>1</type></trkpt>
      <trkpt lat="39.63781007" lon="-6.41614978"><ele>3124</ele><speed>12.00</speed><time>2016-06-21T16:33:07Z</time><pdop>3.0</pdop><geoidheight>54.00</geoidheight><course>16.3</course><type>1</type></trkpt>
      <trkpt lat="39.63802968" lon="-6.41604588"><ele>3120</ele><speed>13.25</speed><time>2016-06-21T16:33:09Z</time><pdop>3.0</pdop><geoidheight>54.00</geoidheight><course>20.1</course><type>1</type></trkpt>
      <trkpt lat="39.63824755" lon="-6.41594426"><ele>3117</ele><speed>12.25</speed><time>2016-06-21T16:33:11Z</time><pdop>3.0</pdop><geoidheight>54.00</geoidheight><course>18.0</course><type>1</type></trkpt>
      <trkpt lat="39.63834454" lon="-6.41590692"><ele>3116</ele><speed>11.25</speed><time>2016-06-21T16:33:12Z</time><pdop>3.0</pdop><geoidheight>54.00</geoidheight><course>15.7</course><type>1</type></trkpt>
      <trkpt lat="39.63844131" lon="-6.41586929"><ele>3114</ele><speed>11.00</speed><time>2016-06-21T16:33:13Z</time><pdop>3.0</pdop><geoidheight>54.00</geoidheight><course>15.5</course><type>1</type></trkpt>
      <trkpt lat="39.63854248" lon="-6.41582601"><ele>3112</ele><speed>11.75</speed><time>2016-06-21T16:33:14Z</time><pdop>3.0</pdop><geoidheight>54.00</geoidheight><course>17.2</course><type>1</type></trkpt>
      <trkpt lat="39.63865397" lon="-6.41577844"><ele>3110</ele><speed>12.75</speed><time>2016-06-21T16:33:15Z</time><pdop>3.0</pdop><geoidheight>54.00</geoidheight><course>17.8</course><type>1</type></trkpt>
      <trkpt lat="39.638877719999996" lon="-6.41569678"><ele>3109</ele><speed>12.50</speed><time>2016-06-21T16:33:17Z</time><pdop>3.0</pdop><geoidheight>54.00</geoidheight><course>16.6</course><type>1</type></trkpt>
      <trkpt lat="39.63897789" lon="-6.41565483"><ele>3108</ele><speed>11.75</speed><time>2016-06-21T16:33:18Z</time><pdop>3.0</pdop><geoidheight>54.00</geoidheight><course>17.7</course><type>1</type></trkpt>
      <trkpt lat="39.63906995" lon="-6.41561325"><ele>3106</ele><speed>11.00</speed><time>2016-06-21T16:33:19Z</time><pdop>3.0</pdop><geoidheight>54.00</geoidheight><course>18.9</course><type>1</type></trkpt>
      <trkpt lat="39.63925241" lon="-6.41553038"><ele>3102</ele><speed>10.75</speed><time>2016-06-21T16:33:21Z</time><pdop>5.0</pdop><geoidheight>54.00</geoidheight><course>18.9</course><type>1</type></trkpt>
      <trkpt lat="39.63935631" lon="-6.41550555"><ele>3099</ele><speed>11.50</speed><time>2016-06-21T16:33:22Z</time><pdop>3.0</pdop><geoidheight>54.00</geoidheight><course>14.6</course><type>1</type></trkpt>
      <trkpt lat="39.63957146" lon="-6.41544385"><ele>3094</ele><speed>12.25</speed><time>2016-06-21T16:33:24Z</time><pdop>5.0</pdop><geoidheight>54.00</geoidheight><course>12.6</course><type>1</type></trkpt>
      <trkpt lat="39.6396958" lon="-6.41542068"><ele>3095</ele><speed>13.00</speed><time>2016-06-21T16:33:25Z</time><pdop>3.0</pdop><geoidheight>54.00</geoidheight><course>11.1</course><type>1</type></trkpt>
      <trkpt lat="39.63981044" lon="-6.41539161"><ele>3094</ele><speed>13.00</speed><time>2016-06-21T16:33:26Z</time><pdop>5.0</pdop><geoidheight>54.00</geoidheight><course>11.1</course><type>1</type></trkpt>
      <trkpt lat="39.63990648" lon="-6.41535075"><ele>3092</ele><speed>12.00</speed><time>2016-06-21T16:33:27Z</time><pdop>3.0</pdop><geoidheight>54.00</geoidheight><course>15.5</course><type>1</type></trkpt>
      <trkpt lat="39.64011674" lon="-6.41527334"><ele>3089</ele><speed>12.00</speed><time>2016-06-21T16:33:29Z</time><pdop>5.0</pdop><geoidheight>54.00</geoidheight><course>16.1</course><type>1</type></trkpt>
      <trkpt lat="39.64024446" lon="-6.41526216"><ele>3088</ele><speed>13.25</speed><time>2016-06-21T16:33:30Z</time><pdop>3.0</pdop><geoidheight>54.00</geoidheight><course>7.7</course><type>1</type></trkpt>
      <trkpt lat="39.64036205" lon="-6.41524162"><ele>3086</ele><speed>13.25</speed><time>2016-06-21T16:33:31Z</time><pdop>5.0</pdop><geoidheight>54.00</geoidheight><course>7.7</course><type>1</type></trkpt>
      <trkpt lat="39.64058355" lon="-6.41521985"><ele>3084</ele><speed>12.25</speed><time>2016-06-21T16:33:33Z</time><pdop>3.0</pdop><geoidheight>54.00</geoidheight><course>7.6</course><type>1</type></trkpt>
      <trkpt lat="39.64069174" lon="-6.41519041"><ele>3082</ele><speed>12.00</speed><time>2016-06-21T16:33:34Z</time><pdop>3.0</pdop><geoidheight>54.00</geoidheight><course>10.2</course><type>1</type></trkpt>
      <trkpt lat="39.64091171" lon="-6.41512251"><ele>3078</ele><speed>12.75</speed><time>2016-06-21T16:33:36Z</time><pdop>3.0</pdop><geoidheight>54.00</geoidheight><course>13.6</course><type>1</type></trkpt>
      <trkpt lat="39.64102453" lon="-6.41508551"><ele>3076</ele><speed>13.00</speed><time>2016-06-21T16:33:37Z</time><pdop>3.0</pdop><geoidheight>54.00</geoidheight><course>14.5</course><type>1</type></trkpt>
      <trkpt lat="39.64113508" lon="-6.41504156"><ele>3075</ele><speed>13.00</speed><time>2016-06-21T16:33:38Z</time><pdop>3.0</pdop><geoidheight>54.00</geoidheight><course>15.9</course><type>1</type></trkpt>
      <trkpt lat="39.64123943" lon="-6.41500301"><ele>3074</ele><speed>12.25</speed><time>2016-06-21T16:33:39Z</time><pdop>3.0</pdop><geoidheight>54.00</geoidheight><course>16.5</course><type>1</type></trkpt>
      <trkpt lat="39.6413435" lon="-6.41497034"><ele>3073</ele><speed>12.00</speed><time>2016-06-21T16:33:40Z</time><pdop>3.0</pdop><geoidheight>54.00</geoidheight><course>14.3</course><type>1</type></trkpt>
      <trkpt lat="39.64145272" lon="-6.41494268"><ele>3072</ele><speed>12.50</speed><time>2016-06-21T16:33:41Z</time><pdop>3.0</pdop><geoidheight>54.00</geoidheight><course>11.5</course><type>1</type></trkpt>
      <trkpt lat="39.64156226" lon="-6.41491378"><ele>3070</ele><speed>12.50</speed><time>2016-06-21T16:33:42Z</time><pdop>5.0</pdop><geoidheight>54.00</geoidheight><course>11.5</course><type>1</type></trkpt>
      <trkpt lat="39.6416799" lon="-6.41487346"><ele>3069</ele><speed>13.25</speed><time>2016-06-21T16:33:43Z</time><pdop>3.0</pdop><geoidheight>54.00</geoidheight><course>14.6</course><type>1</type></trkpt>
      <trkpt lat="39.64178933" lon="-6.41482538"><ele>3068</ele><speed>13.00</speed><time>2016-06-21T16:33:44Z</time><pdop>3.0</pdop><geoidheight>54.00</geoidheight><course>18.8</course><type>1</type></trkpt>
      <trkpt lat="39.64190093" lon="-6.41477633"><ele>3067</ele><speed>13.00</speed><time>2016-06-21T16:33:45Z</time><pdop>5.0</pdop><geoidheight>54.00</geoidheight><course>18.8</course><type>1</type></trkpt>
      <trkpt lat="39.64199859" lon="-6.41473388"><ele>3065</ele><speed>12.25</speed><time>2016-06-21T16:33:46Z</time><pdop>3.0</pdop><geoidheight>54.00</geoidheight><course>16.4</course><type>1</type></trkpt>
      <trkpt lat="39.64210509" lon="-6.41469325"><ele>3064</ele><speed>12.25</speed><time>2016-06-21T16:33:47Z</time><pdop>5.0</pdop><geoidheight>54.00</geoidheight><course>16.4</course><type>1</type></trkpt>
      <trkpt lat="39.6423317" lon="-6.41466123"><ele>3060</ele><speed>12.50</speed><time>2016-06-21T16:33:49Z</time><pdop>5.0</pdop><geoidheight>54.00</geoidheight><course>8.5</course><type>1</type></trkpt>
      <trkpt lat="39.64245025" lon="-6.41461256"><ele>3058</ele><speed>13.00</speed><time>2016-06-21T16:33:50Z</time><pdop>3.0</pdop><geoidheight>54.00</geoidheight><course>16.6</course><type>1</type></trkpt>
      <trkpt lat="39.64256266" lon="-6.41456922"><ele>3056</ele><speed>13.00</speed><time>2016-06-21T16:33:51Z</time><pdop>5.0</pdop><geoidheight>54.00</geoidheight><course>16.6</course><type>1</type></trkpt>
      <trkpt lat="39.64267093" lon="-6.41450613"><ele>3056</ele><speed>12.75</speed><time>2016-06-21T16:33:52Z</time><pdop>3.0</pdop><geoidheight>54.00</geoidheight><course>19.8</course><type>1</type></trkpt>
      <trkpt lat="39.6428706" lon="-6.41442764"><ele>3054</ele><speed>11.25</speed><time>2016-06-21T16:33:54Z</time><pdop>3.0</pdop><geoidheight>54.00</geoidheight><course>16.8</course><type>1</type></trkpt>
      <trkpt lat="39.64306664" lon="-6.4143218"><ele>3049</ele><speed>12.50</speed><time>2016-06-21T16:33:56Z</time><pdop>3.0</pdop><geoidheight>54.00</geoidheight><course>24.1</course><type>1</type></trkpt>
      <trkpt lat="39.64317579" lon="-6.4142572"><ele>3047</ele><speed>13.25</speed><time>2016-06-21T16:33:57Z</time><pdop>3.0</pdop><geoidheight>54.00</geoidheight><course>24.4</course><type>1</type></trkpt>
      <trkpt lat="39.64340535" lon="-6.41416335"><ele>3043</ele><speed>13.25</speed><time>2016-06-21T16:33:59Z</time><pdop>3.0</pdop><geoidheight>54.00</geoidheight><course>15.3</course><type>1</type></trkpt>
      <trkpt lat="39.64352288" lon="-6.41412875"><ele>3043</ele><speed>13.25</speed><time>2016-06-21T16:34:00Z</time><pdop>3.0</pdop><geoidheight>54.00</geoidheight><course>13.0</course><type>1</type></trkpt>
      <trkpt lat="39.64364355" lon="-6.41408585"><ele>3040</ele><speed>13.50</speed><time>2016-06-21T16:34:01Z</time><pdop>3.0</pdop><geoidheight>54.00</geoidheight><course>15.3</course><type>1</type></trkpt>
      <trkpt lat="39.64376105" lon="-6.41404434"><ele>3038</ele><speed>13.50</speed><time>2016-06-21T16:34:02Z</time><pdop>5.0</pdop><geoidheight>54.00</geoidheight><course>15.3</course><type>1</type></trkpt>
      <trkpt lat="39.64388416" lon="-6.41398179"><ele>3036</ele><speed>14.00</speed><time>2016-06-21T16:34:03Z</time><pdop>3.0</pdop><geoidheight>54.00</geoidheight><course>17.7</course><type>1</type></trkpt>
      <trkpt lat="39.64401191" lon="-6.41394623"><ele>3034</ele><speed>14.25</speed><time>2016-06-21T16:34:04Z</time><pdop>3.0</pdop><geoidheight>54.00</geoidheight><course>12.4</course><type>1</type></trkpt>
      <trkpt lat="39.64413776" lon="-6.41391035"><ele>3033</ele><speed>14.25</speed><time>2016-06-21T16:34:05Z</time><pdop>5.0</pdop><geoidheight>54.00</geoidheight><course>12.4</course><type>1</type></trkpt>
      <trkpt lat="39.6442644" lon="-6.41391933"><ele>3032</ele><speed>14.00</speed><time>2016-06-21T16:34:06Z</time><pdop>3.0</pdop><geoidheight>54.00</geoidheight><course>4.2</course><type>1</type></trkpt>
      <trkpt lat="39.64449526" lon="-6.41386406"><ele>3029</ele><speed>13.00</speed><time>2016-06-21T16:34:08Z</time><pdop>3.0</pdop><geoidheight>54.00</geoidheight><course>12.8</course><type>1</type></trkpt>
      <trkpt lat="39.64473679" lon="-6.41377918"><ele>3026</ele><speed>14.25</speed><time>2016-06-21T16:34:10Z</time><pdop>3.0</pdop><geoidheight>54.00</geoidheight><course>13.9</course><type>1</type></trkpt>
      <trkpt lat="39.64498564" lon="-6.41370581"><ele>3024</ele><speed>14.25</speed><time>2016-06-21T16:34:12Z</time><pdop>3.0</pdop><geoidheight>54.00</geoidheight><course>12.6</course><type>1</type></trkpt>
      <trkpt lat="39.64521716" lon="-6.41362349"><ele>3025</ele><speed>13.25</speed><time>2016-06-21T16:34:14Z</time><pdop>5.0</pdop><geoidheight>54.00</geoidheight><course>15.6</course><type>1</type></trkpt>
      <trkpt lat="39.64532238" lon="-6.41358623"><ele>3023</ele><speed>12.75</speed><time>2016-06-21T16:34:15Z</time><pdop>3.0</pdop><geoidheight>54.00</geoidheight><course>14.7</course><type>1</type></trkpt>
      <trkpt lat="39.64556068" lon="-6.41353013"><ele>3020</ele><speed>13.75</speed><time>2016-06-21T16:34:17Z</time><pdop>3.0</pdop><geoidheight>54.00</geoidheight><course>10.0</course><type>1</type></trkpt>
      <trkpt lat="39.64568519" lon="-6.41349979"><ele>3019</ele><speed>14.00</speed><time>2016-06-21T16:34:18Z</time><pdop>3.0</pdop><geoidheight>54.00</geoidheight><course>10.5</course><type>1</type></trkpt>
      <trkpt lat="39.64580999" lon="-6.41346463"><ele>3018</ele><speed>14.25</speed><time>2016-06-21T16:34:19Z</time><pdop>3.0</pdop><geoidheight>54.00</geoidheight><course>12.5</course><type>1</type></trkpt>
      <trkpt lat="39.64607736" lon="-6.41338023"><ele>3018</ele><speed>15.25</speed><time>2016-06-21T16:34:21Z</time><pdop>3.0</pdop><geoidheight>54.00</geoidheight><course>13.2</course><type>1</type></trkpt>
      <trkpt lat="39.64620821" lon="-6.41334496"><ele>3018</ele><speed>14.75</speed><time>2016-06-21T16:34:22Z</time><pdop>3.0</pdop><geoidheight>54.00</geoidheight><course>11.6</course><type>1</type></trkpt>
      <trkpt lat="39.64644887" lon="-6.4132854"><ele>3017</ele><speed>13.75</speed><time>2016-06-21T16:34:24Z</time><pdop>3.0</pdop><geoidheight>54.00</geoidheight><course>11.8</course><type>1</type></trkpt>
      <trkpt lat="39.6465738" lon="-6.41324496"><ele>3015</ele><speed>14.25</speed><time>2016-06-21T16:34:25Z</time><pdop>3.0</pdop><geoidheight>54.00</geoidheight><course>13.8</course><type>1</type></trkpt>
      <trkpt lat="39.6467082" lon="-6.41319905"><ele>3014</ele><speed>15.25</speed><time>2016-06-21T16:34:26Z</time><pdop>3.0</pdop><geoidheight>54.00</geoidheight><course>14.8</course><type>1</type></trkpt>
      <trkpt lat="39.64698505" lon="-6.41312205"><ele>3014</ele><speed>15.75</speed><time>2016-06-21T16:34:28Z</time><pdop>3.0</pdop><geoidheight>54.00</geoidheight><course>10.6</course><type>1</type></trkpt>
      <trkpt lat="39.6471209" lon="-6.41309991"><ele>3014</ele><speed>15.25</speed><time>2016-06-21T16:34:29Z</time><pdop>3.0</pdop><geoidheight>54.00</geoidheight><course>7.4</course><type>1</type></trkpt>
      <trkpt lat="39.64724963" lon="-6.41308945"><ele>3015</ele><speed>14.50</speed><time>2016-06-21T16:34:30Z</time><pdop>4.0</pdop><geoidheight>54.00</geoidheight><course>4.8</course><type>1</type></trkpt>
      <trkpt lat="39.64749705" lon="-6.41305336"><ele>3013</ele><speed>13.75</speed><time>2016-06-21T16:34:32Z</time><pdop>3.0</pdop><geoidheight>54.00</geoidheight><course>8.4</course><type>1</type></trkpt>
      <trkpt lat="39.64761993" lon="-6.41301885"><ele>3012</ele><speed>14.00</speed><time>2016-06-21T16:34:33Z</time><pdop>3.0</pdop><geoidheight>54.00</geoidheight><course>11.5</course><type>1</type></trkpt>
      <trkpt lat="39.64773888" lon="-6.41297964"><ele>3010</ele><speed>13.75</speed><time>2016-06-21T16:34:34Z</time><pdop>3.0</pdop><geoidheight>54.00</geoidheight><course>14.0</course><type>1</type></trkpt>
      <trkpt lat="39.64798252" lon="-6.41288303"><ele>3008</ele><speed>14.25</speed><time>2016-06-21T16:34:36Z</time><pdop>3.0</pdop><geoidheight>54.00</geoidheight><course>17.5</course><type>1</type></trkpt>
      <trkpt lat="39.64810746" lon="-6.41282728"><ele>3006</ele><speed>14.75</speed><time>2016-06-21T16:34:37Z</time><pdop>3.0</pdop><geoidheight>54.00</geoidheight><course>18.4</course><type>1</type></trkpt>
      <trkpt lat="39.64823525" lon="-6.41277437"><ele>3005</ele><speed>15.00</speed><time>2016-06-21T16:34:38Z</time><pdop>3.0</pdop><geoidheight>54.00</geoidheight><course>18.2</course><type>1</type></trkpt>
      <trkpt lat="39.64848847" lon="-6.41266785"><ele>3004</ele><speed>14.50</speed><time>2016-06-21T16:34:40Z</time><pdop>3.0</pdop><geoidheight>54.00</geoidheight><course>18.3</course><type>1</type></trkpt>
      <trkpt lat="39.64860759" lon="-6.41261499"><ele>3004</ele><speed>14.25</speed><time>2016-06-21T16:34:41Z</time><pdop>3.0</pdop><geoidheight>54.00</geoidheight><course>19.4</course><type>1</type></trkpt>
      <trkpt lat="39.64872447" lon="-6.4125563"><ele>3003</ele><speed>14.00</speed><time>2016-06-21T16:34:42Z</time><pdop>3.0</pdop><geoidheight>54.00</geoidheight><course>20.7</course><type>1</type></trkpt>
      <trkpt lat="39.64895421" lon="-6.41243731"><ele>3002</ele><speed>13.75</speed><time>2016-06-21T16:34:44Z</time><pdop>3.0</pdop><geoidheight>54.00</geoidheight><course>21.8</course><type>1</type></trkpt>
      <trkpt lat="39.64907233" lon="-6.41237693"><ele>3000</ele><speed>14.25</speed><time>2016-06-21T16:34:45Z</time><pdop>3.0</pdop><geoidheight>54.00</geoidheight><course>21.3</course><type>1</type></trkpt>
      <trkpt lat="39.64919761" lon="-6.41231447"><ele>2999</ele><speed>14.75</speed><time>2016-06-21T16:34:46Z</time><pdop>3.0</pdop><geoidheight>54.00</geoidheight><course>20.8</course><type>1</type></trkpt>
      <trkpt lat="39.64944701" lon="-6.4121822"><ele>2998</ele><speed>14.75</speed><time>2016-06-21T16:34:48Z</time><pdop>3.0</pdop><geoidheight>54.00</geoidheight><course>23.2</course><type>1</type></trkpt>
      <trkpt lat="39.64956498" lon="-6.41210907"><ele>2997</ele><speed>14.50</speed><time>2016-06-21T16:34:49Z</time><pdop>3.0</pdop><geoidheight>54.00</geoidheight><course>25.3</course><type>1</type></trkpt>
      <trkpt lat="39.64968064" lon="-6.41203338"><ele>2996</ele><speed>14.25</speed><time>2016-06-21T16:34:50Z</time><pdop>3.0</pdop><geoidheight>54.00</geoidheight><course>26.7</course><type>1</type></trkpt>
      <trkpt lat="39.64979512" lon="-6.41195582"><ele>2994</ele><speed>14.25</speed><time>2016-06-21T16:34:51Z</time><pdop>3.0</pdop><geoidheight>54.00</geoidheight><course>27.7</course><type>1</type></trkpt>
      <trkpt lat="39.64990822" lon="-6.41187397"><ele>2993</ele><speed>14.50</speed><time>2016-06-21T16:34:52Z</time><pdop>3.0</pdop><geoidheight>54.00</geoidheight><course>29.0</course><type>1</type></trkpt>
      <trkpt lat="39.6500212" lon="-6.41178541"><ele>2992</ele><speed>14.50</speed><time>2016-06-21T16:34:53Z</time><pdop>3.0</pdop><geoidheight>54.00</geoidheight><course>30.2</course><type>1</type></trkpt>
      <trkpt lat="39.65013313" lon="-6.41169709"><ele>2991</ele><speed>14.25</speed><time>2016-06-21T16:34:54Z</time><pdop>3.0</pdop><geoidheight>54.00</geoidheight><course>30.3</course><type>1</type></trkpt>
      <trkpt lat="39.65024438" lon="-6.41162032"><ele>2990</ele><speed>14.00</speed><time>2016-06-21T16:34:55Z</time><pdop>3.0</pdop><geoidheight>54.00</geoidheight><course>29.3</course><type>1</type></trkpt>
      <trkpt lat="39.65035778" lon="-6.4115434"><ele>2989</ele><speed>14.00</speed><time>2016-06-21T16:34:56Z</time><pdop>3.0</pdop><geoidheight>54.00</geoidheight><course>28.5</course><type>1</type></trkpt>
      <trkpt lat="39.65046985" lon="-6.41146272"><ele>2988</ele><speed>14.25</speed><time>2016-06-21T16:34:57Z</time><pdop>3.0</pdop><geoidheight>54.00</geoidheight><course>28.9</course><type>1</type></trkpt>
      <trkpt lat="39.6505831" lon="-6.41137963"><ele>2987</ele><speed>14.25</speed><time>2016-06-21T16:34:58Z</time><pdop>3.0</pdop><geoidheight>54.00</geoidheight><course>29.5</course><type>1</type></trkpt>
      <trkpt lat="39.65081301" lon="-6.41122575"><ele>2985</ele><speed>14.25</speed><time>2016-06-21T16:35:00Z</time><pdop>3.0</pdop><geoidheight>54.00</geoidheight><course>27.3</course><type>1</type></trkpt>
      <trkpt lat="39.65093082" lon="-6.41115311"><ele>2984</ele><speed>14.50</speed><time>2016-06-21T16:35:01Z</time><pdop>3.0</pdop><geoidheight>54.00</geoidheight><course>25.6</course><type>1</type></trkpt>
      <trkpt lat="39.65104542" lon="-6.41108099"><ele>2984</ele><speed>14.25</speed><time>2016-06-21T16:35:02Z</time><pdop>3.0</pdop><geoidheight>54.00</geoidheight><course>25.8</course><type>1</type></trkpt>
      <trkpt lat="39.65115511" lon="-6.41100047"><ele>2984</ele><speed>14.25</speed><time>2016-06-21T16:35:03Z</time><pdop>3.0</pdop><geoidheight>54.00</geoidheight><course>28.4</course><type>1</type></trkpt>
      <trkpt lat="39.65126972" lon="-6.4109099"><ele>2984</ele><speed>14.50</speed><time>2016-06-21T16:35:04Z</time><pdop>3.0</pdop><geoidheight>54.00</geoidheight><course>31.5</course><type>1</type></trkpt>
      <trkpt lat="39.65137691" lon="-6.41081869"><ele>2985</ele><speed>14.25</speed><time>2016-06-21T16:35:05Z</time><pdop>3.0</pdop><geoidheight>54.00</geoidheight><course>32.8</course><type>1</type></trkpt>
      <trkpt lat="39.65147879" lon="-6.4107366"><ele>2987</ele><speed>13.25</speed><time>2016-06-21T16:35:06Z</time><pdop>3.0</pdop><geoidheight>54.00</geoidheight><course>32.3</course><type>1</type></trkpt>
      <trkpt lat="39.65157095" lon="-6.41066189"><ele>2988</ele><speed>12.00</speed><time>2016-06-21T16:35:07Z</time><pdop>3.0</pdop><geoidheight>54.00</geoidheight><course>32.3</course><type>1</type></trkpt>
      <trkpt lat="39.65175808" lon="-6.41050709"><ele>2986</ele><speed>12.50</speed><time>2016-06-21T16:35:09Z</time><pdop>3.0</pdop><geoidheight>54.00</geoidheight><course>31.7</course><type>1</type></trkpt>
      <trkpt lat="39.65186426" lon="-6.41042662"><ele>2984</ele><speed>13.50</speed><time>2016-06-21T16:35:10Z</time><pdop>3.0</pdop><geoidheight>54.00</geoidheight><course>30.8</course><type>1</type></trkpt>
      <trkpt lat="39.65197561" lon="-6.41034437"><ele>2984</ele><speed>14.25</speed><time>2016-06-21T16:35:11Z</time><pdop>3.0</pdop><geoidheight>54.00</geoidheight><course>29.2</course><type>1</type></trkpt>
      <trkpt lat="39.65220615" lon="-6.41022679"><ele>2984</ele><speed>13.50</speed><time>2016-06-21T16:35:13Z</time><pdop>3.0</pdop><geoidheight>54.00</geoidheight><course>18.5</course><type>1</type></trkpt>
      <trkpt lat="39.6523165" lon="-6.41018914"><ele>2983</ele><speed>13.00</speed><time>2016-06-21T16:35:14Z</time><pdop>3.0</pdop><geoidheight>54.00</geoidheight><course>14.6</course><type>1</type></trkpt>
      <trkpt lat="39.65242407" lon="-6.41014922"><ele>2982</ele><speed>12.50</speed><time>2016-06-21T16:35:15Z</time><pdop>3.0</pdop><geoidheight>54.00</geoidheight><course>15.9</course><type>1</type></trkpt>
      <trkpt lat="39.65263797" lon="-6.41003482"><ele>2979</ele><speed>13.25</speed><time>2016-06-21T16:35:17Z</time><pdop>3.0</pdop><geoidheight>54.00</geoidheight><course>24.5</course><type>1</type></trkpt>
      <trkpt lat="39.65275364" lon="-6.40997055"><ele>2978</ele><speed>14.00</speed><time>2016-06-21T16:35:18Z</time><pdop>3.0</pdop><geoidheight>54.00</geoidheight><course>24.1</course><type>1</type></trkpt>
      <trkpt lat="39.65287395" lon="-6.40990998"><ele>2978</ele><speed>14.50</speed><time>2016-06-21T16:35:19Z</time><pdop>3.0</pdop><geoidheight>54.00</geoidheight><course>21.1</course><type>1</type></trkpt>
      <trkpt lat="39.65299373" lon="-6.40985926"><ele>2979</ele><speed>14.00</speed><time>2016-06-21T16:35:20Z</time><pdop>4.0</pdop><geoidheight>54.00</geoidheight><course>19.1</course><type>1</type></trkpt>
      <trkpt lat="39.65321307" lon="-6.40976419"><ele>2982</ele><speed>12.75</speed><time>2016-06-21T16:35:22Z</time><pdop>3.0</pdop><geoidheight>54.00</geoidheight><course>19.0</course><type>1</type></trkpt>
      <trkpt lat="39.65331311" lon="-6.40971579"><ele>2983</ele><speed>12.25</speed><time>2016-06-21T16:35:23Z</time><pdop>3.0</pdop><geoidheight>54.00</geoidheight><course>21.8</course><type>1</type></trkpt>
      <trkpt lat="39.65341778" lon="-6.40965845"><ele>2984</ele><speed>12.25</speed><time>2016-06-21T16:35:24Z</time><pdop>3.0</pdop><geoidheight>54.00</geoidheight><course>23.1</course><type>1</type></trkpt>
      <trkpt lat="39.65359805" lon="-6.40953184"><ele>2987</ele><speed>11.00</speed><time>2016-06-21T16:35:26Z</time><pdop>3.0</pdop><geoidheight>54.00</geoidheight><course>30.8</course><type>1</type></trkpt>
      <trkpt lat="39.65367196" lon="-6.40945062"><ele>2987</ele><speed>10.75</speed><time>2016-06-21T16:35:27Z</time><pdop>3.0</pdop><geoidheight>54.00</geoidheight><course>38.5</course><type>1</type></trkpt>
      <trkpt lat="39.6537323" lon="-6.40935821"><ele>2988</ele><speed>10.25</speed><time>2016-06-21T16:35:28Z</time><pdop>3.0</pdop><geoidheight>54.00</geoidheight><course>48.0</course><type>1</type></trkpt>
      <trkpt lat="39.65377258" lon="-6.40926056"><ele>2989</ele><speed>9.50</speed><time>2016-06-21T16:35:29Z</time><pdop>3.0</pdop><geoidheight>54.00</geoidheight><course>59.9</course><type>1</type></trkpt>
      <trkpt lat="39.65378187" lon="-6.40915675"><ele>2989</ele><speed>9.00</speed><time>2016-06-21T16:35:30Z</time><pdop>3.0</pdop><geoidheight>54.00</geoidheight><course>78.3</course><type>1</type></trkpt>
      <trkpt lat="39.65376536" lon="-6.40904863"><ele>2988</ele><speed>9.50</speed><time>2016-06-21T16:35:31Z</time><pdop>3.0</pdop><geoidheight>54.00</geoidheight><course>99.5</course><type>1</type></trkpt>
      <trkpt lat="39.65372094" lon="-6.40895312"><ele>2988</ele><speed>9.75</speed><time>2016-06-21T16:35:32Z</time><pdop>3.0</pdop><geoidheight>54.00</geoidheight><course>119.8</course><type>1</type></trkpt>
      <trkpt lat="39.65365627" lon="-6.40888333"><ele>2989</ele><speed>9.50</speed><time>2016-06-21T16:35:33Z</time><pdop>3.0</pdop><geoidheight>54.00</geoidheight><course>138.7</course><type>1</type></trkpt>
      <trkpt lat="39.65359015" lon="-6.40884492"><ele>2991</ele><speed>8.25</speed><time>2016-06-21T16:35:34Z</time><pdop>3.0</pdop><geoidheight>54.00</geoidheight><course>157.0</course><type>1</type></trkpt>
      <trkpt lat="39.65352672" lon="-6.40884891"><ele>2993</ele><speed>7.00</speed><time>2016-06-21T16:35:35Z</time><pdop>4.0</pdop><geoidheight>54.00</geoidheight><course>177.1</course><type>1</type></trkpt>
      <trkpt lat="39.65343626" lon="-6.40892338"><ele>2995</ele><speed>6.25</speed><time>2016-06-21T16:35:37Z</time><pdop>4.0</pdop><geoidheight>54.00</geoidheight><course>215.9</course><type>1</type></trkpt>
      <trkpt lat="39.65339322" lon="-6.40898523"><ele>2995</ele><speed>7.00</speed><time>2016-06-21T16:35:38Z</time><pdop>3.0</pdop><geoidheight>54.00</geoidheight><course>225.2</course><type>1</type></trkpt>
      <trkpt lat="39.65335037" lon="-6.40907193"><ele>2994</ele><speed>8.25</speed><time>2016-06-21T16:35:39Z</time><pdop>3.0</pdop><geoidheight>54.00</geoidheight><course>234.6</course><type>1</type></trkpt>
      <trkpt lat="39.65332074" lon="-6.40918321"><ele>2993</ele><speed>9.75</speed><time>2016-06-21T16:35:40Z</time><pdop>3.0</pdop><geoidheight>54.00</geoidheight><course>249.2</course><type>1</type></trkpt>
      <trkpt lat="39.65336597" lon="-6.40943383"><ele>2993</ele><speed>11.00</speed><time>2016-06-21T16:35:42Z</time><pdop>3.0</pdop><geoidheight>54.00</geoidheight><course>289.7</course><type>1</type></trkpt>
      <trkpt lat="39.65343282" lon="-6.40953637"><ele>2994</ele><speed>11.00</speed><time>2016-06-21T16:35:43Z</time><pdop>3.0</pdop><geoidheight>54.00</geoidheight><course>307.8</course><type>1</type></trkpt>
      <trkpt lat="39.65351013" lon="-6.40960367"><ele>2995</ele><speed>10.50</speed><time>2016-06-21T16:35:44Z</time><pdop>3.0</pdop><geoidheight>54.00</geoidheight><course>323.8</course><type>1</type></trkpt>
      <trkpt lat="39.65359605" lon="-6.40964249"><ele>2995</ele><speed>10.50</speed><time>2016-06-21T16:35:45Z</time><pdop>3.0</pdop><geoidheight>54.00</geoidheight><course>338.8</course><type>1</type></trkpt>
      <trkpt lat="39.65369227" lon="-6.40966545"><ele>2995</ele><speed>11.00</speed><time>2016-06-21T16:35:46Z</time><pdop>3.0</pdop><geoidheight>54.00</geoidheight><course>350.9</course><type>1</type></trkpt>
      <trkpt lat="39.6538028" lon="-6.40967184"><ele>2994</ele><speed>12.25</speed><time>2016-06-21T16:35:47Z</time><pdop>4.0</pdop><geoidheight>54.00</geoidheight><course>357.1</course><type>1</type></trkpt>
      <trkpt lat="39.65391994" lon="-6.40966438"><ele>2992</ele><speed>13.25</speed><time>2016-06-21T16:35:48Z</time><pdop>3.0</pdop><geoidheight>54.00</geoidheight><course>1.4</course><type>1</type></trkpt>
      <trkpt lat="39.65403859" lon="-6.40964917"><ele>2993</ele><speed>13.50</speed><time>2016-06-21T16:35:49Z</time><pdop>3.0</pdop><geoidheight>54.00</geoidheight><course>4.8</course><type>1</type></trkpt>
      <trkpt lat="39.65415267" lon="-6.40963118"><ele>2993</ele><speed>12.75</speed><time>2016-06-21T16:35:50Z</time><pdop>3.0</pdop><geoidheight>54.00</geoidheight><course>6.7</course><type>1</type></trkpt>
      <trkpt lat="39.65425959" lon="-6.40961338"><ele>2995</ele><speed>12.00</speed><time>2016-06-21T16:35:51Z</time><pdop>4.0</pdop><geoidheight>54.00</geoidheight><course>6.8</course><type>1</type></trkpt>
      <trkpt lat="39.65435769" lon="-6.40959566"><ele>2997</ele><speed>11.00</speed><time>2016-06-21T16:35:52Z</time><pdop>3.0</pdop><geoidheight>54.00</geoidheight><course>6.3</course><type>1</type></trkpt>
      <trkpt lat="39.65444862" lon="-6.40958796"><ele>2998</ele><speed>10.25</speed><time>2016-06-21T16:35:53Z</time><pdop>4.0</pdop><geoidheight>54.00</geoidheight><course>5.5</course><type>1</type></trkpt>
      <trkpt lat="39.65453304" lon="-6.40957816"><ele>2998</ele><speed>9.50</speed><time>2016-06-21T16:35:54Z</time><pdop>3.0</pdop><geoidheight>54.00</geoidheight><course>4.6</course><type>1</type></trkpt>
      <trkpt lat="39.65462142" lon="-6.40956884"><ele>2998</ele><speed>9.75</speed><time>2016-06-21T16:35:55Z</time><pdop>3.0</pdop><geoidheight>54.00</geoidheight><course>4.7</course><type>1</type></trkpt>
      <trkpt lat="39.65471737" lon="-6.4095564"><ele>2999</ele><speed>10.50</speed><time>2016-06-21T16:35:56Z</time><pdop>4.0</pdop><geoidheight>54.00</geoidheight><course>6.3</course><type>1</type></trkpt>
      <trkpt lat="39.65481755" lon="-6.40953549"><ele>2999</ele><speed>11.25</speed><time>2016-06-21T16:35:57Z</time><pdop>4.0</pdop><geoidheight>54.00</geoidheight><course>8.7</course><type>1</type></trkpt>
      <trkpt lat="39.65491961" lon="-6.40950814"><ele>3000</ele><speed>11.50</speed><time>2016-06-21T16:35:58Z</time><pdop>4.0</pdop><geoidheight>54.00</geoidheight><course>10.7</course><type>1</type></trkpt>
      <trkpt lat="39.65502204" lon="-6.40948096"><ele>3001</ele><speed>11.50</speed><time>2016-06-21T16:35:59Z</time><pdop>3.0</pdop><geoidheight>54.00</geoidheight><course>11.1</course><type>1</type></trkpt>
      <trkpt lat="39.65522053" lon="-6.40943508"><ele>3004</ele><speed>11.25</speed><time>2016-06-21T16:36:01Z</time><pdop>3.0</pdop><geoidheight>54.00</geoidheight><course>8.8</course><type>1</type></trkpt>
      <trkpt lat="39.65532244" lon="-6.40941632"><ele>3005</ele><speed>11.50</speed><time>2016-06-21T16:36:02Z</time><pdop>3.0</pdop><geoidheight>54.00</geoidheight><course>9.4</course><type>1</type></trkpt>
      <trkpt lat="39.65542498" lon="-6.40939122"><ele>3006</ele><speed>11.50</speed><time>2016-06-21T16:36:03Z</time><pdop>4.0</pdop><geoidheight>54.00</geoidheight><course>10.0</course><type>1</type></trkpt>
      <trkpt lat="39.65552923" lon="-6.40936606"><ele>3007</ele><speed>11.75</speed><time>2016-06-21T16:36:04Z</time><pdop>3.0</pdop><geoidheight>54.00</geoidheight><course>10.9</course><type>1</type></trkpt>
      <trkpt lat="39.65562251" lon="-6.40932941"><ele>3003</ele><speed>11.00</speed><time>2016-06-21T16:36:05Z</time><pdop>3.0</pdop><geoidheight>54.00</geoidheight><course>14.9</course><type>1</type></trkpt>
      <trkpt lat="39.65570727" lon="-6.40929286"><ele>3006</ele><speed>10.25</speed><time>2016-06-21T16:36:06Z</time><pdop>3.0</pdop><geoidheight>54.00</geoidheight><course>17.7</course><type>1</type></trkpt>
      <trkpt lat="39.65578712" lon="-6.40925913"><ele>3007</ele><speed>9.25</speed><time>2016-06-21T16:36:07Z</time><pdop>3.0</pdop><geoidheight>54.00</geoidheight><course>16.7</course><type>1</type></trkpt>
      <trkpt lat="39.65586388" lon="-6.40923326"><ele>3006</ele><speed>9.00</speed><time>2016-06-21T16:36:08Z</time><pdop>3.0</pdop><geoidheight>54.00</geoidheight><course>15.0</course><type>1</type></trkpt>
      <trkpt lat="39.655953769999996" lon="-6.40920307"><ele>3005</ele><speed>10.00</speed><time>2016-06-21T16:36:09Z</time><pdop>3.0</pdop><geoidheight>54.00</geoidheight><course>15.3</course><type>1</type></trkpt>
      <trkpt lat="39.65605056" lon="-6.40916406"><ele>3003</ele><speed>11.25</speed><time>2016-06-21T16:36:10Z</time><pdop>3.0</pdop><geoidheight>54.00</geoidheight><course>16.7</course><type>1</type></trkpt>
      <trkpt lat="39.65615606" lon="-6.40912031"><ele>3003</ele><speed>12.25</speed><time>2016-06-21T16:36:11Z</time><pdop>3.0</pdop><geoidheight>54.00</geoidheight><course>16.8</course><type>1</type></trkpt>
      <trkpt lat="39.65626992" lon="-6.40907977"><ele>3003</ele><speed>12.50</speed><time>2016-06-21T16:36:12Z</time><pdop>3.0</pdop><geoidheight>54.00</geoidheight><course>15.7</course><type>1</type></trkpt>
      <trkpt lat="39.65637233" lon="-6.4090511"><ele>3003</ele><speed>12.00</speed><time>2016-06-21T16:36:13Z</time><pdop>3.0</pdop><geoidheight>54.00</geoidheight><course>12.6</course><type>1</type></trkpt>
      <trkpt lat="39.65657608" lon="-6.40900895"><ele>3001</ele><speed>11.75</speed><time>2016-06-21T16:36:15Z</time><pdop>3.0</pdop><geoidheight>54.00</geoidheight><course>8.7</course><type>1</type></trkpt>
      <trkpt lat="39.65668465" lon="-6.4089786"><ele>3000</ele><speed>12.50</speed><time>2016-06-21T16:36:16Z</time><pdop>3.0</pdop><geoidheight>54.00</geoidheight><course>12.2</course><type>1</type></trkpt>
      <trkpt lat="39.65679881" lon="-6.40893449"><ele>2999</ele><speed>13.25</speed><time>2016-06-21T16:36:17Z</time><pdop>3.0</pdop><geoidheight>54.00</geoidheight><course>15.7</course><type>1</type></trkpt>
      <trkpt lat="39.65691091" lon="-6.40889592"><ele>2999</ele><speed>13.00</speed><time>2016-06-21T16:36:18Z</time><pdop>3.0</pdop><geoidheight>54.00</geoidheight><course>15.8</course><type>1</type></trkpt>
      <trkpt lat="39.65701305" lon="-6.40886202"><ele>2999</ele><speed>11.75</speed><time>2016-06-21T16:36:19Z</time><pdop>3.0</pdop><geoidheight>54.00</geoidheight><course>13.9</course><type>1</type></trkpt>
      <trkpt lat="39.65711192" lon="-6.40883366"><ele>2999</ele><speed>11.25</speed><time>2016-06-21T16:36:20Z</time><pdop>3.0</pdop><geoidheight>54.00</geoidheight><course>12.6</course><type>1</type></trkpt>
      <trkpt lat="39.65721518" lon="-6.40880171"><ele>2998</ele><speed>11.75</speed><time>2016-06-21T16:36:21Z</time><pdop>3.0</pdop><geoidheight>54.00</geoidheight><course>12.8</course><type>1</type></trkpt>
      <trkpt lat="39.65732672" lon="-6.40876937"><ele>2996</ele><speed>12.50</speed><time>2016-06-21T16:36:22Z</time><pdop>3.0</pdop><geoidheight>54.00</geoidheight><course>13.0</course><type>1</type></trkpt>
      <trkpt lat="39.65744241" lon="-6.40873619"><ele>2995</ele><speed>13.00</speed><time>2016-06-21T16:36:23Z</time><pdop>3.0</pdop><geoidheight>54.00</geoidheight><course>12.8</course><type>1</type></trkpt>
      <trkpt lat="39.65755986" lon="-6.40870024"><ele>2994</ele><speed>13.25</speed><time>2016-06-21T16:36:24Z</time><pdop>3.0</pdop><geoidheight>54.00</geoidheight><course>13.4</course><type>1</type></trkpt>
      <trkpt lat="39.65767687" lon="-6.40866018"><ele>2994</ele><speed>13.50</speed><time>2016-06-21T16:36:25Z</time><pdop>4.0</pdop><geoidheight>54.00</geoidheight><course>14.8</course><type>1</type></trkpt>
      <trkpt lat="39.65779342" lon="-6.40861703"><ele>2995</ele><speed>13.25</speed><time>2016-06-21T16:36:26Z</time><pdop>4.0</pdop><geoidheight>54.00</geoidheight><course>14.7</course><type>1</type></trkpt>
      <trkpt lat="39.65790175" lon="-6.4085845"><ele>2997</ele><speed>12.50</speed><time>2016-06-21T16:36:27Z</time><pdop>4.0</pdop><geoidheight>54.00</geoidheight><course>13.5</course><type>1</type></trkpt>
      <trkpt lat="39.6580016" lon="-6.40855971"><ele>2999</ele><speed>11.25</speed><time>2016-06-21T16:36:28Z</time><pdop>4.0</pdop><geoidheight>54.00</geoidheight><course>11.9</course><type>1</type></trkpt>
      <trkpt lat="39.65809309" lon="-6.40854468"><ele>2999</ele><speed>10.00</speed><time>2016-06-21T16:36:29Z</time><pdop>4.0</pdop><geoidheight>54.00</geoidheight><course>7.2</course><type>1</type></trkpt>
      <trkpt lat="39.65818031" lon="-6.4085454"><ele>2998</ele><speed>9.75</speed><time>2016-06-21T16:36:30Z</time><pdop>4.0</pdop><geoidheight>54.00</geoidheight><course>1.3</course><type>1</type></trkpt>
      <trkpt lat="39.65827293" lon="-6.40854719"><ele>2998</ele><speed>10.25</speed><time>2016-06-21T16:36:31Z</time><pdop>3.0</pdop><geoidheight>54.00</geoidheight><course>359.7</course><type>1</type></trkpt>
      <trkpt lat="39.65837079" lon="-6.4085396"><ele>2997</ele><speed>11.00</speed><time>2016-06-21T16:36:32Z</time><pdop>3.0</pdop><geoidheight>54.00</geoidheight><course>3.0</course><type>1</type></trkpt>
      <trkpt lat="39.65847604" lon="-6.40852599"><ele>2997</ele><speed>11.50</speed><time>2016-06-21T16:36:33Z</time><pdop>4.0</pdop><geoidheight>54.00</geoidheight><course>5.9</course><type>1</type></trkpt>
      <trkpt lat="39.65869967" lon="-6.40851746"><ele>2997</ele><speed>12.00</speed><time>2016-06-21T16:36:35Z</time><pdop>3.0</pdop><geoidheight>54.00</geoidheight><course>359.4</course><type>1</type></trkpt>
      <trkpt lat="39.65880705" lon="-6.40852818"><ele>2998</ele><speed>12.00</speed><time>2016-06-21T16:36:36Z</time><pdop>3.0</pdop><geoidheight>54.00</geoidheight><course>355.9</course><type>1</type></trkpt>
      <trkpt lat="39.65890781" lon="-6.40853496"><ele>2998</ele><speed>11.75</speed><time>2016-06-21T16:36:37Z</time><pdop>3.0</pdop><geoidheight>54.00</geoidheight><course>356.6</course><type>1</type></trkpt>
      <trkpt lat="39.65900518" lon="-6.40853203"><ele>2998</ele><speed>11.25</speed><time>2016-06-21T16:36:38Z</time><pdop>3.0</pdop><geoidheight>54.00</geoidheight><course>0.0</course><type>1</type></trkpt>
      <trkpt lat="39.659181" lon="-6.40849798"><ele>2997</ele><speed>10.00</speed><time>2016-06-21T16:36:40Z</time><pdop>3.0</pdop><geoidheight>54.00</geoidheight><course>9.0</course><type>1</type></trkpt>
      <trkpt lat="39.65926629" lon="-6.40847434"><ele>2996</ele><speed>10.00</speed><time>2016-06-21T16:36:41Z</time><pdop>3.0</pdop><geoidheight>54.00</geoidheight><course>12.1</course><type>1</type></trkpt>
      <trkpt lat="39.65935728" lon="-6.4084487"><ele>2994</ele><speed>10.25</speed><time>2016-06-21T16:36:42Z</time><pdop>3.0</pdop><geoidheight>54.00</geoidheight><course>12.6</course><type>1</type></trkpt>
      <trkpt lat="39.65945237" lon="-6.40842267"><ele>2993</ele><speed>10.75</speed><time>2016-06-21T16:36:43Z</time><pdop>3.0</pdop><geoidheight>54.00</geoidheight><course>12.8</course><type>1</type></trkpt>
      <trkpt lat="39.65954897" lon="-6.40838944"><ele>2991</ele><speed>11.50</speed><time>2016-06-21T16:36:44Z</time><pdop>3.0</pdop><geoidheight>54.00</geoidheight><course>14.6</course><type>1</type></trkpt>
      <trkpt lat="39.65964884" lon="-6.40835571"><ele>2990</ele><speed>11.50</speed><time>2016-06-21T16:36:45Z</time><pdop>5.0</pdop><geoidheight>54.00</geoidheight><course>14.6</course><type>1</type></trkpt>
      <trkpt lat="39.65975184" lon="-6.40830968"><ele>2990</ele><speed>11.75</speed><time>2016-06-21T16:36:46Z</time><pdop>3.0</pdop><geoidheight>54.00</geoidheight><course>18.1</course><type>1</type></trkpt>
      <trkpt lat="39.65985482" lon="-6.40827176"><ele>2989</ele><speed>12.00</speed><time>2016-06-21T16:36:47Z</time><pdop>3.0</pdop><geoidheight>54.00</geoidheight><course>16.6</course><type>1</type></trkpt>
      <trkpt lat="39.65995894" lon="-6.40824179"><ele>2989</ele><speed>11.50</speed><time>2016-06-21T16:36:48Z</time><pdop>3.0</pdop><geoidheight>54.00</geoidheight><course>12.8</course><type>1</type></trkpt>
      <trkpt lat="39.66006088" lon="-6.40821182"><ele>2989</ele><speed>11.50</speed><time>2016-06-21T16:36:49Z</time><pdop>5.0</pdop><geoidheight>54.00</geoidheight><course>12.8</course><type>1</type></trkpt>
      <trkpt lat="39.660165" lon="-6.40819742"><ele>2989</ele><speed>11.50</speed><time>2016-06-21T16:36:50Z</time><pdop>3.0</pdop><geoidheight>54.00</geoidheight><course>10.1</course><type>1</type></trkpt>
      <trkpt lat="39.66027079" lon="-6.40817051"><ele>2989</ele><speed>11.75</speed><time>2016-06-21T16:36:51Z</time><pdop>3.0</pdop><geoidheight>54.00</geoidheight><course>11.0</course><type>1</type></trkpt>
      <trkpt lat="39.6603767" lon="-6.40814335"><ele>2989</ele><speed>11.75</speed><time>2016-06-21T16:36:52Z</time><pdop>4.0</pdop><geoidheight>54.00</geoidheight><course>10.9</course><type>1</type></trkpt>
      <trkpt lat="39.66048298" lon="-6.40811723"><ele>2989</ele><speed>12.00</speed><time>2016-06-21T16:36:53Z</time><pdop>4.0</pdop><geoidheight>54.00</geoidheight><course>10.5</course><type>1</type></trkpt>
      <trkpt lat="39.66058867" lon="-6.40809134"><ele>2989</ele><speed>12.00</speed><time>2016-06-21T16:36:54Z</time><pdop>4.0</pdop><geoidheight>54.00</geoidheight><course>10.8</course><type>1</type></trkpt>
      <trkpt lat="39.66069226" lon="-6.40805576"><ele>2989</ele><speed>11.75</speed><time>2016-06-21T16:36:55Z</time><pdop>3.0</pdop><geoidheight>54.00</geoidheight><course>13.8</course><type>1</type></trkpt>
      <trkpt lat="39.66079063" lon="-6.40801292"><ele>2988</ele><speed>11.75</speed><time>2016-06-21T16:36:56Z</time><pdop>3.0</pdop><geoidheight>54.00</geoidheight><course>17.5</course><type>1</type></trkpt>
      <trkpt lat="39.66089424" lon="-6.40797022"><ele>2987</ele><speed>11.75</speed><time>2016-06-21T16:36:57Z</time><pdop>3.0</pdop><geoidheight>54.00</geoidheight><course>18.0</course><type>1</type></trkpt>
      <trkpt lat="39.66099676" lon="-6.4079336"><ele>2986</ele><speed>12.00</speed><time>2016-06-21T16:36:58Z</time><pdop>3.0</pdop><geoidheight>54.00</geoidheight><course>15.1</course><type>1</type></trkpt>
      <trkpt lat="39.66110688" lon="-6.40790188"><ele>2984</ele><speed>12.50</speed><time>2016-06-21T16:36:59Z</time><pdop>3.0</pdop><geoidheight>54.00</geoidheight><course>12.2</course><type>1</type></trkpt>
      <trkpt lat="39.66122331" lon="-6.40786963"><ele>2982</ele><speed>13.25</speed><time>2016-06-21T16:37:00Z</time><pdop>3.0</pdop><geoidheight>54.00</geoidheight><course>11.7</course><type>1</type></trkpt>
      <trkpt lat="39.66134243" lon="-6.4078309"><ele>2981</ele><speed>13.75</speed><time>2016-06-21T16:37:01Z</time><pdop>3.0</pdop><geoidheight>54.00</geoidheight><course>13.9</course><type>1</type></trkpt>
      <trkpt lat="39.66146286" lon="-6.40778376"><ele>2980</ele><speed>13.75</speed><time>2016-06-21T16:37:02Z</time><pdop>3.0</pdop><geoidheight>54.00</geoidheight><course>16.0</course><type>1</type></trkpt>
      <trkpt lat="39.66157954" lon="-6.40774377"><ele>2980</ele><speed>13.50</speed><time>2016-06-21T16:37:03Z</time><pdop>4.0</pdop><geoidheight>54.00</geoidheight><course>15.3</course><type>1</type></trkpt>
      <trkpt lat="39.66169668" lon="-6.40770935"><ele>2980</ele><speed>13.25</speed><time>2016-06-21T16:37:04Z</time><pdop>4.0</pdop><geoidheight>54.00</geoidheight><course>12.9</course><type>1</type></trkpt>
      <trkpt lat="39.66180502" lon="-6.40767645"><ele>2978</ele><speed>12.75</speed><time>2016-06-21T16:37:05Z</time><pdop>3.0</pdop><geoidheight>54.00</geoidheight><course>12.3</course><type>1</type></trkpt>
      <trkpt lat="39.66192059" lon="-6.40763783"><ele>2976</ele><speed>13.00</speed><time>2016-06-21T16:37:06Z</time><pdop>3.0</pdop><geoidheight>54.00</geoidheight><course>14.9</course><type>1</type></trkpt>
      <trkpt lat="39.66203355" lon="-6.4075921"><ele>2974</ele><speed>13.00</speed><time>2016-06-21T16:37:07Z</time><pdop>3.0</pdop><geoidheight>54.00</geoidheight><course>17.6</course><type>1</type></trkpt>
      <trkpt lat="39.66215435" lon="-6.40755025"><ele>2973</ele><speed>13.75</speed><time>2016-06-21T16:37:08Z</time><pdop>4.0</pdop><geoidheight>54.00</geoidheight><course>16.9</course><type>1</type></trkpt>
      <trkpt lat="39.66226769" lon="-6.40750983"><ele>2971</ele><speed>13.25</speed><time>2016-06-21T16:37:09Z</time><pdop>3.0</pdop><geoidheight>54.00</geoidheight><course>15.3</course><type>1</type></trkpt>
      <trkpt lat="39.66238373" lon="-6.4074688"><ele>2969</ele><speed>13.25</speed><time>2016-06-21T16:37:10Z</time><pdop>5.0</pdop><geoidheight>54.00</geoidheight><course>15.3</course><type>1</type></trkpt>
      <trkpt lat="39.6625045" lon="-6.40741197"><ele>2967</ele><speed>13.75</speed><time>2016-06-21T16:37:11Z</time><pdop>3.0</pdop><geoidheight>54.00</geoidheight><course>17.5</course><type>1</type></trkpt>
      <trkpt lat="39.66262229" lon="-6.40735524"><ele>2966</ele><speed>14.00</speed><time>2016-06-21T16:37:12Z</time><pdop>3.0</pdop><geoidheight>54.00</geoidheight><course>20.0</course><type>1</type></trkpt>
      <trkpt lat="39.66274553" lon="-6.40729498"><ele>2965</ele><speed>14.25</speed><time>2016-06-21T16:37:13Z</time><pdop>4.0</pdop><geoidheight>54.00</geoidheight><course>20.8</course><type>1</type></trkpt>
      <trkpt lat="39.6628674" lon="-6.40723987"><ele>2963</ele><speed>14.50</speed><time>2016-06-21T16:37:14Z</time><pdop>4.0</pdop><geoidheight>54.00</geoidheight><course>20.2</course><type>1</type></trkpt>
      <trkpt lat="39.66298574" lon="-6.40718653"><ele>2963</ele><speed>14.25</speed><time>2016-06-21T16:37:15Z</time><pdop>4.0</pdop><geoidheight>54.00</geoidheight><course>20.0</course><type>1</type></trkpt>
      <trkpt lat="39.66309908" lon="-6.40713065"><ele>2961</ele><speed>13.75</speed><time>2016-06-21T16:37:16Z</time><pdop>4.0</pdop><geoidheight>54.00</geoidheight><course>21.0</course><type>1</type></trkpt>
      <trkpt lat="39.66321387" lon="-6.40707335"><ele>2959</ele><speed>13.75</speed><time>2016-06-21T16:37:17Z</time><pdop>4.0</pdop><geoidheight>54.00</geoidheight><course>22.0</course><type>1</type></trkpt>
      <trkpt lat="39.6633317" lon="-6.40700967"><ele>2957</ele><speed>14.25</speed><time>2016-06-21T16:37:18Z</time><pdop>4.0</pdop><geoidheight>54.00</geoidheight><course>22.5</course><type>1</type></trkpt>
      <trkpt lat="39.66345852" lon="-6.40694364"><ele>2955</ele><speed>15.00</speed><time>2016-06-21T16:37:19Z</time><pdop>4.0</pdop><geoidheight>54.00</geoidheight><course>22.1</course><type>1</type></trkpt>
      <trkpt lat="39.66371486" lon="-6.40680585"><ele>2952</ele><speed>15.50</speed><time>2016-06-21T16:37:21Z</time><pdop>3.0</pdop><geoidheight>54.00</geoidheight><course>22.7</course><type>1</type></trkpt>
      <trkpt lat="39.6639634" lon="-6.40665953"><ele>2949</ele><speed>15.25</speed><time>2016-06-21T16:37:23Z</time><pdop>5.0</pdop><geoidheight>54.00</geoidheight><course>24.4</course><type>1</type></trkpt>
      <trkpt lat="39.66407698" lon="-6.40656962"><ele>2947</ele><speed>15.00</speed><time>2016-06-21T16:37:24Z</time><pdop>3.0</pdop><geoidheight>54.00</geoidheight><course>27.6</course><type>1</type></trkpt>
      <trkpt lat="39.66420315" lon="-6.40648693"><ele>2945</ele><speed>15.75</speed><time>2016-06-21T16:37:25Z</time><pdop>4.0</pdop><geoidheight>54.00</geoidheight><course>27.1</course><type>1</type></trkpt>
      <trkpt lat="39.66447388" lon="-6.40632211"><ele>2942</ele><speed>16.50</speed><time>2016-06-21T16:37:27Z</time><pdop>4.0</pdop><geoidheight>54.00</geoidheight><course>24.3</course><type>1</type></trkpt>
      <trkpt lat="39.66460997" lon="-6.40624798"><ele>2941</ele><speed>16.25</speed><time>2016-06-21T16:37:28Z</time><pdop>3.0</pdop><geoidheight>54.00</geoidheight><course>23.3</course><type>1</type></trkpt>
      <trkpt lat="39.66474989" lon="-6.4061703"><ele>2940</ele><speed>16.75</speed><time>2016-06-21T16:37:29Z</time><pdop>3.0</pdop><geoidheight>54.00</geoidheight><course>22.8</course><type>1</type></trkpt>
      <trkpt lat="39.66501607" lon="-6.40600035"><ele>2939</ele><speed>16.25</speed><time>2016-06-21T16:37:31Z</time><pdop>3.0</pdop><geoidheight>54.00</geoidheight><course>27.1</course><type>1</type></trkpt>
      <trkpt lat="39.66513214" lon="-6.40591699"><ele>2939</ele><speed>15.00</speed><time>2016-06-21T16:37:32Z</time><pdop>3.0</pdop><geoidheight>54.00</geoidheight><course>29.0</course><type>1</type></trkpt>
      <trkpt lat="39.66523999" lon="-6.4058331"><ele>2938</ele><speed>14.00</speed><time>2016-06-21T16:37:33Z</time><pdop>3.0</pdop><geoidheight>54.00</geoidheight><course>29.9</course><type>1</type></trkpt>
      <trkpt lat="39.66546711" lon="-6.40566861"><ele>2936</ele><speed>14.75</speed><time>2016-06-21T16:37:35Z</time><pdop>3.0</pdop><geoidheight>54.00</geoidheight><course>29.3</course><type>1</type></trkpt>
      <trkpt lat="39.66559278" lon="-6.40557729"><ele>2934</ele><speed>16.00</speed><time>2016-06-21T16:37:36Z</time><pdop>3.0</pdop><geoidheight>54.00</geoidheight><course>30.0</course><type>1</type></trkpt>
      <trkpt lat="39.66583581" lon="-6.4053378"><ele>2934</ele><speed>16.75</speed><time>2016-06-21T16:37:38Z</time><pdop>3.0</pdop><geoidheight>54.00</geoidheight><course>38.9</course><type>1</type></trkpt>
      <trkpt lat="39.66601916" lon="-6.40510681"><ele>2935</ele><speed>13.50</speed><time>2016-06-21T16:37:40Z</time><pdop>3.0</pdop><geoidheight>54.00</geoidheight><course>44.1</course><type>1</type></trkpt>
      <trkpt lat="39.66610379" lon="-6.40502463"><ele>2936</ele><speed>11.50</speed><time>2016-06-21T16:37:41Z</time><pdop>3.0</pdop><geoidheight>54.00</geoidheight><course>39.0</course><type>1</type></trkpt>
      <trkpt lat="39.66618673" lon="-6.40496545"><ele>2935</ele><speed>10.50</speed><time>2016-06-21T16:37:42Z</time><pdop>3.0</pdop><geoidheight>54.00</geoidheight><course>29.7</course><type>1</type></trkpt>
      <trkpt lat="39.6663717" lon="-6.40483567"><ele>2930</ele><speed>12.25</speed><time>2016-06-21T16:37:44Z</time><pdop>3.0</pdop><geoidheight>54.00</geoidheight><course>29.5</course><type>1</type></trkpt>
      <trkpt lat="39.66656162" lon="-6.40465333"><ele>2926</ele><speed>13.00</speed><time>2016-06-21T16:37:46Z</time><pdop>3.0</pdop><geoidheight>54.00</geoidheight><course>37.9</course><type>1</type></trkpt>
      <trkpt lat="39.66666275" lon="-6.40455827"><ele>2923</ele><speed>13.75</speed><time>2016-06-21T16:37:47Z</time><pdop>3.0</pdop><geoidheight>54.00</geoidheight><course>35.9</course><type>1</type></trkpt>
      <trkpt lat="39.66677531" lon="-6.40447243"><ele>2921</ele><speed>14.50</speed><time>2016-06-21T16:37:48Z</time><pdop>3.0</pdop><geoidheight>54.00</geoidheight><course>31.5</course><type>1</type></trkpt>
      <trkpt lat="39.66700266" lon="-6.40431601"><ele>2918</ele><speed>14.25</speed><time>2016-06-21T16:37:50Z</time><pdop>3.0</pdop><geoidheight>54.00</geoidheight><course>28.4</course><type>1</type></trkpt>
      <trkpt lat="39.66722941" lon="-6.40417274"><ele>2914</ele><speed>14.25</speed><time>2016-06-21T16:37:52Z</time><pdop>3.0</pdop><geoidheight>54.00</geoidheight><course>25.5</course><type>1</type></trkpt>
      <trkpt lat="39.66734908" lon="-6.40410552"><ele>2912</ele><speed>14.50</speed><time>2016-06-21T16:37:53Z</time><pdop>3.0</pdop><geoidheight>54.00</geoidheight><course>24.1</course><type>1</type></trkpt>
      <trkpt lat="39.66758111" lon="-6.40397111"><ele>2908</ele><speed>14.00</speed><time>2016-06-21T16:37:55Z</time><pdop>3.0</pdop><geoidheight>54.00</geoidheight><course>23.1</course><type>1</type></trkpt>
      <trkpt lat="39.66769929" lon="-6.40391121"><ele>2907</ele><speed>14.00</speed><time>2016-06-21T16:37:56Z</time><pdop>4.0</pdop><geoidheight>54.00</geoidheight><course>21.2</course><type>1</type></trkpt>
      <trkpt lat="39.6678199" lon="-6.40385495"><ele>2904</ele><speed>14.00</speed><time>2016-06-21T16:37:57Z</time><pdop>3.0</pdop><geoidheight>54.00</geoidheight><course>19.9</course><type>1</type></trkpt>
      <trkpt lat="39.66806838" lon="-6.40374793"><ele>2899</ele><speed>14.50</speed><time>2016-06-21T16:37:59Z</time><pdop>4.0</pdop><geoidheight>54.00</geoidheight><course>18.2</course><type>1</type></trkpt>
      <trkpt lat="39.66820074" lon="-6.40370559"><ele>2897</ele><speed>14.75</speed><time>2016-06-21T16:38:00Z</time><pdop>3.0</pdop><geoidheight>54.00</geoidheight><course>14.7</course><type>1</type></trkpt>
      <trkpt lat="39.66832763" lon="-6.40367117"><ele>2896</ele><speed>14.25</speed><time>2016-06-21T16:38:01Z</time><pdop>3.0</pdop><geoidheight>54.00</geoidheight><course>12.6</course><type>1</type></trkpt>
      <trkpt lat="39.66856453" lon="-6.40360873"><ele>2893</ele><speed>13.50</speed><time>2016-06-21T16:38:03Z</time><pdop>4.0</pdop><geoidheight>54.00</geoidheight><course>10.8</course><type>1</type></trkpt>
      <trkpt lat="39.66880187" lon="-6.40358417"><ele>2890</ele><speed>13.25</speed><time>2016-06-21T16:38:05Z</time><pdop>3.0</pdop><geoidheight>54.00</geoidheight><course>4.6</course><type>1</type></trkpt>
      <trkpt lat="39.66891393" lon="-6.40355744"><ele>2888</ele><speed>13.00</speed><time>2016-06-21T16:38:06Z</time><pdop>3.0</pdop><geoidheight>54.00</geoidheight><course>9.9</course><type>1</type></trkpt>
      <trkpt lat="39.66913896" lon="-6.40344551"><ele>2883</ele><speed>13.50</speed><time>2016-06-21T16:38:08Z</time><pdop>3.0</pdop><geoidheight>54.00</geoidheight><course>22.4</course><type>1</type></trkpt>
      <trkpt lat="39.66925346" lon="-6.40338597"><ele>2881</ele><speed>13.75</speed><time>2016-06-21T16:38:09Z</time><pdop>3.0</pdop><geoidheight>54.00</geoidheight><course>22.6</course><type>1</type></trkpt>
      <trkpt lat="39.66936968" lon="-6.40332994"><ele>2880</ele><speed>13.75</speed><time>2016-06-21T16:38:10Z</time><pdop>3.0</pdop><geoidheight>54.00</geoidheight><course>21.2</course><type>1</type></trkpt>
      <trkpt lat="39.66948276" lon="-6.40327619"><ele>2879</ele><speed>13.25</speed><time>2016-06-21T16:38:11Z</time><pdop>3.0</pdop><geoidheight>54.00</geoidheight><course>20.4</course><type>1</type></trkpt>
      <trkpt lat="39.66969595" lon="-6.40317405"><ele>2891</ele><speed>12.50</speed><time>2016-06-21T16:38:13Z</time><pdop>3.0</pdop><geoidheight>54.00</geoidheight><course>20.8</course><type>1</type></trkpt>
      <trkpt lat="39.66980315" lon="-6.40311717"><ele>2884</ele><speed>12.75</speed><time>2016-06-21T16:38:14Z</time><pdop>4.0</pdop><geoidheight>54.00</geoidheight><course>22.1</course><type>1</type></trkpt>
      <trkpt lat="39.66990753" lon="-6.40306307"><ele>2879</ele><speed>12.75</speed><time>2016-06-21T16:38:15Z</time><pdop>3.0</pdop><geoidheight>54.00</geoidheight><course>21.5</course><type>1</type></trkpt>
      <trkpt lat="39.67001886" lon="-6.40302385"><ele>2876</ele><speed>13.00</speed><time>2016-06-21T16:38:16Z</time><pdop>3.0</pdop><geoidheight>54.00</geoidheight><course>15.7</course><type>1</type></trkpt>
      <trkpt lat="39.67024052" lon="-6.40297881"><ele>2872</ele><speed>13.00</speed><time>2016-06-21T16:38:18Z</time><pdop>4.0</pdop><geoidheight>54.00</geoidheight><course>8.1</course><type>1</type></trkpt>
      <trkpt lat="39.67034976" lon="-6.40293932"><ele>2871</ele><speed>12.50</speed><time>2016-06-21T16:38:19Z</time><pdop>3.0</pdop><geoidheight>54.00</geoidheight><course>14.8</course><type>1</type></trkpt>
      <trkpt lat="39.67044569" lon="-6.40287663"><ele>2869</ele><speed>12.25</speed><time>2016-06-21T16:38:20Z</time><pdop>3.0</pdop><geoidheight>54.00</geoidheight><course>23.2</course><type>1</type></trkpt>
      <trkpt lat="39.67054805" lon="-6.40281101"><ele>2867</ele><speed>12.50</speed><time>2016-06-21T16:38:21Z</time><pdop>3.0</pdop><geoidheight>54.00</geoidheight><course>26.4</course><type>1</type></trkpt>
      <trkpt lat="39.67076083" lon="-6.40270645"><ele>2864</ele><speed>12.75</speed><time>2016-06-21T16:38:23Z</time><pdop>3.0</pdop><geoidheight>54.00</geoidheight><course>20.0</course><type>1</type></trkpt>
      <trkpt lat="39.67087021" lon="-6.40265487"><ele>2863</ele><speed>12.75</speed><time>2016-06-21T16:38:24Z</time><pdop>3.0</pdop><geoidheight>54.00</geoidheight><course>18.5</course><type>1</type></trkpt>
      <trkpt lat="39.67097775" lon="-6.40260449"><ele>2862</ele><speed>12.75</speed><time>2016-06-21T16:38:25Z</time><pdop>3.0</pdop><geoidheight>54.00</geoidheight><course>19.8</course><type>1</type></trkpt>
      <trkpt lat="39.67108086" lon="-6.40254595"><ele>2861</ele><speed>12.50</speed><time>2016-06-21T16:38:26Z</time><pdop>3.0</pdop><geoidheight>54.00</geoidheight><course>22.6</course><type>1</type></trkpt>
      <trkpt lat="39.67128506" lon="-6.4024196"><ele>2858</ele><speed>12.75</speed><time>2016-06-21T16:38:28Z</time><pdop>3.0</pdop><geoidheight>54.00</geoidheight><course>26.6</course><type>1</type></trkpt>
      <trkpt lat="39.67139069" lon="-6.40235183"><ele>2857</ele><speed>13.00</speed><time>2016-06-21T16:38:29Z</time><pdop>3.0</pdop><geoidheight>54.00</geoidheight><course>26.5</course><type>1</type></trkpt>
      <trkpt lat="39.67149922" lon="-6.40228673"><ele>2855</ele><speed>13.25</speed><time>2016-06-21T16:38:30Z</time><pdop>3.0</pdop><geoidheight>54.00</geoidheight><course>25.7</course><type>1</type></trkpt>
      <trkpt lat="39.67171523" lon="-6.40214436"><ele>2853</ele><speed>13.50</speed><time>2016-06-21T16:38:32Z</time><pdop>3.0</pdop><geoidheight>54.00</geoidheight><course>27.3</course><type>1</type></trkpt>
      <trkpt lat="39.67182084" lon="-6.40206599"><ele>2851</ele><speed>13.50</speed><time>2016-06-21T16:38:33Z</time><pdop>3.0</pdop><geoidheight>54.00</geoidheight><course>28.6</course><type>1</type></trkpt>
      <trkpt lat="39.67192847" lon="-6.40198612"><ele>2849</ele><speed>13.75</speed><time>2016-06-21T16:38:34Z</time><pdop>3.0</pdop><geoidheight>54.00</geoidheight><course>29.4</course><type>1</type></trkpt>
      <trkpt lat="39.67204222" lon="-6.40190656"><ele>2848</ele><speed>14.00</speed><time>2016-06-21T16:38:35Z</time><pdop>3.0</pdop><geoidheight>54.00</geoidheight><course>28.2</course><type>1</type></trkpt>
      <trkpt lat="39.67216162" lon="-6.40183998"><ele>2847</ele><speed>14.25</speed><time>2016-06-21T16:38:36Z</time><pdop>3.0</pdop><geoidheight>54.00</geoidheight><course>24.9</course><type>1</type></trkpt>
      <trkpt lat="39.67228317" lon="-6.40178886"><ele>2847</ele><speed>14.00</speed><time>2016-06-21T16:38:37Z</time><pdop>3.0</pdop><geoidheight>54.00</geoidheight><course>19.7</course><type>1</type></trkpt>
      <trkpt lat="39.67250745" lon="-6.40167764"><ele>2845</ele><speed>13.25</speed><time>2016-06-21T16:38:39Z</time><pdop>3.0</pdop><geoidheight>54.00</geoidheight><course>22.9</course><type>1</type></trkpt>
      <trkpt lat="39.67261019" lon="-6.40160489"><ele>2843</ele><speed>13.00</speed><time>2016-06-21T16:38:40Z</time><pdop>3.0</pdop><geoidheight>54.00</geoidheight><course>27.2</course><type>1</type></trkpt>
      <trkpt lat="39.67272257" lon="-6.40153412"><ele>2841</ele><speed>13.50</speed><time>2016-06-21T16:38:41Z</time><pdop>3.0</pdop><geoidheight>54.00</geoidheight><course>26.3</course><type>1</type></trkpt>
      <trkpt lat="39.67297917" lon="-6.40142104"><ele>2840</ele><speed>15.25</speed><time>2016-06-21T16:38:43Z</time><pdop>3.0</pdop><geoidheight>54.00</geoidheight><course>16.9</course><type>1</type></trkpt>
      <trkpt lat="39.6731019" lon="-6.4013666"><ele>2841</ele><speed>14.50</speed><time>2016-06-21T16:38:44Z</time><pdop>3.0</pdop><geoidheight>54.00</geoidheight><course>18.8</course><type>1</type></trkpt>
      <trkpt lat="39.67320862" lon="-6.40129637"><ele>2841</ele><speed>14.00</speed><time>2016-06-21T16:38:45Z</time><pdop>3.0</pdop><geoidheight>54.00</geoidheight><course>24.4</course><type>1</type></trkpt>
      <trkpt lat="39.67331841" lon="-6.40122"><ele>2841</ele><speed>14.00</speed><time>2016-06-21T16:38:46Z</time><pdop>3.0</pdop><geoidheight>54.00</geoidheight><course>28.4</course><type>1</type></trkpt>
      <trkpt lat="39.6735455" lon="-6.40107528"><ele>2840</ele><speed>13.75</speed><time>2016-06-21T16:38:48Z</time><pdop>3.0</pdop><geoidheight>54.00</geoidheight><course>26.1</course><type>1</type></trkpt>
      <trkpt lat="39.67366073" lon="-6.40100868"><ele>2840</ele><speed>14.00</speed><time>2016-06-21T16:38:49Z</time><pdop>3.0</pdop><geoidheight>54.00</geoidheight><course>24.9</course><type>1</type></trkpt>
      <trkpt lat="39.6737787" lon="-6.4009427"><ele>2839</ele><speed>14.25</speed><time>2016-06-21T16:38:50Z</time><pdop>3.0</pdop><geoidheight>54.00</geoidheight><course>24.0</course><type>1</type></trkpt>
      <trkpt lat="39.67401818" lon="-6.40080735"><ele>2838</ele><speed>14.50</speed><time>2016-06-21T16:38:52Z</time><pdop>3.0</pdop><geoidheight>54.00</geoidheight><course>23.5</course><type>1</type></trkpt>
      <trkpt lat="39.67414187" lon="-6.40073987"><ele>2837</ele><speed>14.50</speed><time>2016-06-21T16:38:53Z</time><pdop>3.0</pdop><geoidheight>54.00</geoidheight><course>23.7</course><type>1</type></trkpt>
      <trkpt lat="39.67426658" lon="-6.40066695"><ele>2836</ele><speed>15.00</speed><time>2016-06-21T16:38:54Z</time><pdop>3.0</pdop><geoidheight>54.00</geoidheight><course>24.5</course><type>1</type></trkpt>
      <trkpt lat="39.6745115" lon="-6.40050341"><ele>2835</ele><speed>15.00</speed><time>2016-06-21T16:38:56Z</time><pdop>3.0</pdop><geoidheight>54.00</geoidheight><course>28.1</course><type>1</type></trkpt>
      <trkpt lat="39.67462421" lon="-6.40042362"><ele>2835</ele><speed>14.25</speed><time>2016-06-21T16:38:57Z</time><pdop>3.0</pdop><geoidheight>54.00</geoidheight><course>27.8</course><type>1</type></trkpt>
      <trkpt lat="39.67473854" lon="-6.40035517"><ele>2834</ele><speed>14.00</speed><time>2016-06-21T16:38:58Z</time><pdop>3.0</pdop><geoidheight>54.00</geoidheight><course>26.2</course><type>1</type></trkpt>
      <trkpt lat="39.67496652" lon="-6.40019624"><ele>2832</ele><speed>14.50</speed><time>2016-06-21T16:39:00Z</time><pdop>4.0</pdop><geoidheight>54.00</geoidheight><course>30.0</course><type>1</type></trkpt>
      <trkpt lat="39.67506053" lon="-6.40008704"><ele>2831</ele><speed>14.50</speed><time>2016-06-21T16:39:01Z</time><pdop>4.0</pdop><geoidheight>54.00</geoidheight><course>38.6</course><type>1</type></trkpt>
      <trkpt lat="39.67520725" lon="-6.39983035"><ele>2828</ele><speed>13.00</speed><time>2016-06-21T16:39:03Z</time><pdop>3.0</pdop><geoidheight>54.00</geoidheight><course>54.2</course><type>1</type></trkpt>
      <trkpt lat="39.67527001" lon="-6.39972275"><ele>2827</ele><speed>11.75</speed><time>2016-06-21T16:39:04Z</time><pdop>3.0</pdop><geoidheight>54.00</geoidheight><course>51.5</course><type>1</type></trkpt>
      <trkpt lat="39.67534084" lon="-6.39963296"><ele>2825</ele><speed>11.00</speed><time>2016-06-21T16:39:05Z</time><pdop>3.0</pdop><geoidheight>54.00</geoidheight><course>47.9</course><type>1</type></trkpt>
      <trkpt lat="39.67546529" lon="-6.39940893"><ele>2818</ele><speed>12.25</speed><time>2016-06-21T16:39:07Z</time><pdop>3.0</pdop><geoidheight>54.00</geoidheight><course>58.7</course><type>1</type></trkpt>
      <trkpt lat="39.67551941" lon="-6.39926883"><ele>2815</ele><speed>13.50</speed><time>2016-06-21T16:39:08Z</time><pdop>3.0</pdop><geoidheight>54.00</geoidheight><course>63.8</course><type>1</type></trkpt>
      <trkpt lat="39.67565478" lon="-6.39898889"><ele>2813</ele><speed>13.75</speed><time>2016-06-21T16:39:10Z</time><pdop>3.0</pdop><geoidheight>54.00</geoidheight><course>55.5</course><type>1</type></trkpt>
      <trkpt lat="39.67578899" lon="-6.39876507"><ele>2812</ele><speed>11.25</speed><time>2016-06-21T16:39:12Z</time><pdop>3.0</pdop><geoidheight>54.00</geoidheight><course>52.6</course><type>1</type></trkpt>
      <trkpt lat="39.67584274" lon="-6.39866611"><ele>2811</ele><speed>10.50</speed><time>2016-06-21T16:39:13Z</time><pdop>3.0</pdop><geoidheight>54.00</geoidheight><course>55.3</course><type>1</type></trkpt>
      <trkpt lat="39.67597389" lon="-6.39846234"><ele>2805</ele><speed>12.00</speed><time>2016-06-21T16:39:15Z</time><pdop>3.0</pdop><geoidheight>54.00</geoidheight><course>48.7</course><type>1</type></trkpt>
      <trkpt lat="39.67616855" lon="-6.39826105"><ele>2802</ele><speed>14.25</speed><time>2016-06-21T16:39:17Z</time><pdop>3.0</pdop><geoidheight>54.00</geoidheight><course>36.5</course><type>1</type></trkpt>
      <trkpt lat="39.676375469999996" lon="-6.39810899"><ele>2801</ele><speed>12.75</speed><time>2016-06-21T16:39:19Z</time><pdop>3.0</pdop><geoidheight>54.00</geoidheight><course>27.8</course><type>1</type></trkpt>
      <trkpt lat="39.67647574" lon="-6.3980604"><ele>2800</ele><speed>12.25</speed><time>2016-06-21T16:39:20Z</time><pdop>3.0</pdop><geoidheight>54.00</geoidheight><course>21.9</course><type>1</type></trkpt>
      <trkpt lat="39.67658264" lon="-6.39802708"><ele>2798</ele><speed>12.50</speed><time>2016-06-21T16:39:21Z</time><pdop>3.0</pdop><geoidheight>54.00</geoidheight><course>15.7</course><type>1</type></trkpt>
      <trkpt lat="39.67682802" lon="-6.39798656"><ele>2793</ele><speed>14.25</speed><time>2016-06-21T16:39:23Z</time><pdop>3.0</pdop><geoidheight>54.00</geoidheight><course>6.5</course><type>1</type></trkpt>
      <trkpt lat="39.67695672" lon="-6.39797287"><ele>2793</ele><speed>14.50</speed><time>2016-06-21T16:39:24Z</time><pdop>4.0</pdop><geoidheight>54.00</geoidheight><course>4.8</course><type>1</type></trkpt>
      <trkpt lat="39.67719801" lon="-6.39795878"><ele>2792</ele><speed>13.25</speed><time>2016-06-21T16:39:26Z</time><pdop>4.0</pdop><geoidheight>54.00</geoidheight><course>1.6</course><type>1</type></trkpt>
      <trkpt lat="39.67731719" lon="-6.39795456"><ele>2791</ele><speed>13.25</speed><time>2016-06-21T16:39:27Z</time><pdop>5.0</pdop><geoidheight>54.00</geoidheight><course>1.6</course><type>1</type></trkpt>
      <trkpt lat="39.67754134" lon="-6.39797821"><ele>2788</ele><speed>13.00</speed><time>2016-06-21T16:39:29Z</time><pdop>4.0</pdop><geoidheight>54.00</geoidheight><course>357.0</course><type>1</type></trkpt>
      <trkpt lat="39.67766229" lon="-6.39798943"><ele>2786</ele><speed>13.50</speed><time>2016-06-21T16:39:30Z</time><pdop>4.0</pdop><geoidheight>54.00</geoidheight><course>356.5</course><type>1</type></trkpt>
      <trkpt lat="39.67778448" lon="-6.39799976"><ele>2784</ele><speed>13.75</speed><time>2016-06-21T16:39:31Z</time><pdop>4.0</pdop><geoidheight>54.00</geoidheight><course>356.3</course><type>1</type></trkpt>
      <trkpt lat="39.6779066" lon="-6.39801236"><ele>2783</ele><speed>13.75</speed><time>2016-06-21T16:39:32Z</time><pdop>5.0</pdop><geoidheight>54.00</geoidheight><course>354.9</course><type>1</type></trkpt>
      <trkpt lat="39.67816096" lon="-6.39805967"><ele>2780</ele><speed>14.25</speed><time>2016-06-21T16:39:34Z</time><pdop>4.0</pdop><geoidheight>54.00</geoidheight><course>351.7</course><type>1</type></trkpt>
      <trkpt lat="39.6782889" lon="-6.39808517"><ele>2779</ele><speed>14.25</speed><time>2016-06-21T16:39:35Z</time><pdop>4.0</pdop><geoidheight>54.00</geoidheight><course>351.0</course><type>1</type></trkpt>
      <trkpt lat="39.67840567" lon="-6.39811337"><ele>2778</ele><speed>13.50</speed><time>2016-06-21T16:39:36Z</time><pdop>4.0</pdop><geoidheight>54.00</geoidheight><course>350.1</course><type>1</type></trkpt>
      <trkpt lat="39.6786316" lon="-6.39815515"><ele>2776</ele><speed>13.00</speed><time>2016-06-21T16:39:38Z</time><pdop>3.0</pdop><geoidheight>54.00</geoidheight><course>352.2</course><type>1</type></trkpt>
      <trkpt lat="39.67875184" lon="-6.39817376"><ele>2774</ele><speed>13.25</speed><time>2016-06-21T16:39:39Z</time><pdop>3.0</pdop><geoidheight>54.00</geoidheight><course>353.5</course><type>1</type></trkpt>
      <trkpt lat="39.67887204" lon="-6.39819736"><ele>2773</ele><speed>13.25</speed><time>2016-06-21T16:39:40Z</time><pdop>4.0</pdop><geoidheight>54.00</geoidheight><course>352.5</course><type>1</type></trkpt>
      <trkpt lat="39.67912194" lon="-6.39824508"><ele>2769</ele><speed>14.00</speed><time>2016-06-21T16:39:42Z</time><pdop>4.0</pdop><geoidheight>54.00</geoidheight><course>351.1</course><type>1</type></trkpt>
      <trkpt lat="39.67925015" lon="-6.39826721"><ele>2767</ele><speed>14.50</speed><time>2016-06-21T16:39:43Z</time><pdop>4.0</pdop><geoidheight>54.00</geoidheight><course>353.2</course><type>1</type></trkpt>
      <trkpt lat="39.67951747" lon="-6.3982986"><ele>2762</ele><speed>15.25</speed><time>2016-06-21T16:39:45Z</time><pdop>4.0</pdop><geoidheight>54.00</geoidheight><course>355.9</course><type>1</type></trkpt>
      <trkpt lat="39.67965198" lon="-6.39830748"><ele>2761</ele><speed>15.00</speed><time>2016-06-21T16:39:46Z</time><pdop>4.0</pdop><geoidheight>54.00</geoidheight><course>356.3</course><type>1</type></trkpt>
      <trkpt lat="39.67991181" lon="-6.3983348"><ele>2757</ele><speed>14.50</speed><time>2016-06-21T16:39:48Z</time><pdop>3.0</pdop><geoidheight>54.00</geoidheight><course>354.6</course><type>1</type></trkpt>
      <trkpt lat="39.68004071" lon="-6.3983515"><ele>2755</ele><speed>14.50</speed><time>2016-06-21T16:39:49Z</time><pdop>4.0</pdop><geoidheight>54.00</geoidheight><course>355.2</course><type>1</type></trkpt>
      <trkpt lat="39.68017301" lon="-6.39835745"><ele>2752</ele><speed>14.50</speed><time>2016-06-21T16:39:50Z</time><pdop>4.0</pdop><geoidheight>54.00</geoidheight><course>356.5</course><type>1</type></trkpt>
      <trkpt lat="39.68044395" lon="-6.39836357"><ele>2748</ele><speed>15.00</speed><time>2016-06-21T16:39:52Z</time><pdop>4.0</pdop><geoidheight>54.00</geoidheight><course>359.1</course><type>1</type></trkpt>
      <trkpt lat="39.68071041" lon="-6.39838209"><ele>2743</ele><speed>15.00</speed><time>2016-06-21T16:39:54Z</time><pdop>4.0</pdop><geoidheight>54.00</geoidheight><course>356.6</course><type>1</type></trkpt>
      <trkpt lat="39.68083808" lon="-6.39839987"><ele>2741</ele><speed>14.50</speed><time>2016-06-21T16:39:55Z</time><pdop>4.0</pdop><geoidheight>54.00</geoidheight><course>356.6</course><type>1</type></trkpt>
      <trkpt lat="39.68096682" lon="-6.39840886"><ele>2739</ele><speed>14.50</speed><time>2016-06-21T16:39:56Z</time><pdop>4.0</pdop><geoidheight>54.00</geoidheight><course>357.5</course><type>1</type></trkpt>
      <trkpt lat="39.68122695" lon="-6.39842389"><ele>2759</ele><speed>14.75</speed><time>2016-06-21T16:39:58Z</time><pdop>4.0</pdop><geoidheight>54.00</geoidheight><course>356.6</course><type>1</type></trkpt>
      <trkpt lat="39.68136424" lon="-6.39843646"><ele>2752</ele><speed>15.25</speed><time>2016-06-21T16:39:59Z</time><pdop>5.0</pdop><geoidheight>54.00</geoidheight><course>356.3</course><type>1</type></trkpt>
      <trkpt lat="39.68150661" lon="-6.39845846"><ele>2744</ele><speed>15.75</speed><time>2016-06-21T16:40:00Z</time><pdop>5.0</pdop><geoidheight>54.00</geoidheight><course>354.3</course><type>1</type></trkpt>
      <trkpt lat="39.68177566" lon="-6.39852332"><ele>2733</ele><speed>15.00</speed><time>2016-06-21T16:40:02Z</time><pdop>4.0</pdop><geoidheight>54.00</geoidheight><course>348.6</course><type>1</type></trkpt>
      <trkpt lat="39.68191485" lon="-6.39855871"><ele>2730</ele><speed>15.50</speed><time>2016-06-21T16:40:03Z</time><pdop>4.0</pdop><geoidheight>54.00</geoidheight><course>347.7</course><type>1</type></trkpt>
      <trkpt lat="39.6821958" lon="-6.39862419"><ele>2721</ele><speed>16.00</speed><time>2016-06-21T16:40:05Z</time><pdop>4.0</pdop><geoidheight>54.00</geoidheight><course>351.9</course><type>1</type></trkpt>
      <trkpt lat="39.6823395" lon="-6.39862616"><ele>2718</ele><speed>15.75</speed><time>2016-06-21T16:40:06Z</time><pdop>3.0</pdop><geoidheight>54.00</geoidheight><course>358.5</course><type>1</type></trkpt>
      <trkpt lat="39.68248676" lon="-6.39861068"><ele>2716</ele><speed>16.00</speed><time>2016-06-21T16:40:07Z</time><pdop>3.0</pdop><geoidheight>54.00</geoidheight><course>4.5</course><type>1</type></trkpt>
      <trkpt lat="39.68262786" lon="-6.39858894"><ele>2714</ele><speed>16.00</speed><time>2016-06-21T16:40:08Z</time><pdop>3.0</pdop><geoidheight>54.00</geoidheight><course>6.9</course><type>1</type></trkpt>
      <trkpt lat="39.6827647" lon="-6.39856842"><ele>2713</ele><speed>15.75</speed><time>2016-06-21T16:40:09Z</time><pdop>4.0</pdop><geoidheight>54.00</geoidheight><course>6.8</course><type>1</type></trkpt>
      <trkpt lat="39.68290808" lon="-6.39855357"><ele>2711</ele><speed>15.75</speed><time>2016-06-21T16:40:10Z</time><pdop>3.0</pdop><geoidheight>54.00</geoidheight><course>5.7</course><type>1</type></trkpt>
      <trkpt lat="39.68320313" lon="-6.39849772"><ele>2710</ele><speed>16.25</speed><time>2016-06-21T16:40:12Z</time><pdop>3.0</pdop><geoidheight>54.00</geoidheight><course>10.3</course><type>1</type></trkpt>
      <trkpt lat="39.6833471" lon="-6.39845838"><ele>2708</ele><speed>16.25</speed><time>2016-06-21T16:40:13Z</time><pdop>3.0</pdop><geoidheight>54.00</geoidheight><course>11.4</course><type>1</type></trkpt>
      <trkpt lat="39.68349308" lon="-6.39842905"><ele>2707</ele><speed>16.25</speed><time>2016-06-21T16:40:14Z</time><pdop>3.0</pdop><geoidheight>54.00</geoidheight><course>9.7</course><type>1</type></trkpt>
      <trkpt lat="39.68363555" lon="-6.39841374"><ele>2706</ele><speed>16.25</speed><time>2016-06-21T16:40:15Z</time><pdop>3.0</pdop><geoidheight>54.00</geoidheight><course>5.4</course><type>1</type></trkpt>
      <trkpt lat="39.68389392" lon="-6.39840862"><ele>2708</ele><speed>13.50</speed><time>2016-06-21T16:40:17Z</time><pdop>3.0</pdop><geoidheight>54.00</geoidheight><course>1.7</course><type>1</type></trkpt>
      <trkpt lat="39.68399974" lon="-6.39839859"><ele>2709</ele><speed>11.75</speed><time>2016-06-21T16:40:18Z</time><pdop>4.0</pdop><geoidheight>54.00</geoidheight><course>5.3</course><type>1</type></trkpt>
      <trkpt lat="39.68409083" lon="-6.3983694"><ele>2709</ele><speed>10.75</speed><time>2016-06-21T16:40:19Z</time><pdop>3.0</pdop><geoidheight>54.00</geoidheight><course>10.4</course><type>1</type></trkpt>
      <trkpt lat="39.68428814" lon="-6.39831435"><ele>2706</ele><speed>11.25</speed><time>2016-06-21T16:40:21Z</time><pdop>3.0</pdop><geoidheight>54.00</geoidheight><course>10.7</course><type>1</type></trkpt>
      <trkpt lat="39.68439316" lon="-6.39828991"><ele>2704</ele><speed>12.00</speed><time>2016-06-21T16:40:22Z</time><pdop>3.0</pdop><geoidheight>54.00</geoidheight><course>8.1</course><type>1</type></trkpt>
      <trkpt lat="39.68463113" lon="-6.3982475"><ele>2701</ele><speed>13.50</speed><time>2016-06-21T16:40:24Z</time><pdop>3.0</pdop><geoidheight>54.00</geoidheight><course>9.0</course><type>1</type></trkpt>
      <trkpt lat="39.68474467" lon="-6.39821695"><ele>2701</ele><speed>13.00</speed><time>2016-06-21T16:40:25Z</time><pdop>3.0</pdop><geoidheight>54.00</geoidheight><course>11.4</course><type>1</type></trkpt>
      <trkpt lat="39.68485212" lon="-6.39818686"><ele>2701</ele><speed>12.50</speed><time>2016-06-21T16:40:26Z</time><pdop>3.0</pdop><geoidheight>54.00</geoidheight><course>11.5</course><type>1</type></trkpt>
      <trkpt lat="39.68507589" lon="-6.39815017"><ele>2700</ele><speed>12.75</speed><time>2016-06-21T16:40:28Z</time><pdop>3.0</pdop><geoidheight>54.00</geoidheight><course>6.6</course><type>1</type></trkpt>
      <trkpt lat="39.68519329" lon="-6.39813986"><ele>2701</ele><speed>13.00</speed><time>2016-06-21T16:40:29Z</time><pdop>3.0</pdop><geoidheight>54.00</geoidheight><course>4.5</course><type>1</type></trkpt>
      <trkpt lat="39.68530139" lon="-6.39813586"><ele>2701</ele><speed>12.00</speed><time>2016-06-21T16:40:30Z</time><pdop>4.0</pdop><geoidheight>54.00</geoidheight><course>2.1</course><type>1</type></trkpt>
      <trkpt lat="39.68540148" lon="-6.3981334"><ele>2702</ele><speed>11.25</speed><time>2016-06-21T16:40:31Z</time><pdop>3.0</pdop><geoidheight>54.00</geoidheight><course>0.7</course><type>1</type></trkpt>
      <trkpt lat="39.68560622" lon="-6.39813734"><ele>2700</ele><speed>11.75</speed><time>2016-06-21T16:40:33Z</time><pdop>4.0</pdop><geoidheight>54.00</geoidheight><course>358.6</course><type>1</type></trkpt>
      <trkpt lat="39.68572339" lon="-6.39813763"><ele>2698</ele><speed>13.00</speed><time>2016-06-21T16:40:34Z</time><pdop>4.0</pdop><geoidheight>54.00</geoidheight><course>0.5</course><type>1</type></trkpt>
      <trkpt lat="39.68596021" lon="-6.39811739"><ele>2695</ele><speed>13.25</speed><time>2016-06-21T16:40:36Z</time><pdop>3.0</pdop><geoidheight>54.00</geoidheight><course>4.0</course><type>1</type></trkpt>
      <trkpt lat="39.68607059" lon="-6.3981136"><ele>2694</ele><speed>12.50</speed><time>2016-06-21T16:40:37Z</time><pdop>3.0</pdop><geoidheight>54.00</geoidheight><course>2.8</course><type>1</type></trkpt>
      <trkpt lat="39.6861764" lon="-6.39810676"><ele>2693</ele><speed>11.75</speed><time>2016-06-21T16:40:38Z</time><pdop>3.0</pdop><geoidheight>54.00</geoidheight><course>1.6</course><type>1</type></trkpt>
      <trkpt lat="39.68628235" lon="-6.39810013"><ele>2690</ele><speed>11.75</speed><time>2016-06-21T16:40:39Z</time><pdop>3.0</pdop><geoidheight>54.00</geoidheight><course>2.4</course><type>1</type></trkpt>
      <trkpt lat="39.68639749" lon="-6.39808672"><ele>2698</ele><speed>12.75</speed><time>2016-06-21T16:40:40Z</time><pdop>4.0</pdop><geoidheight>54.00</geoidheight><course>4.6</course><type>1</type></trkpt>
      <trkpt lat="39.68663325" lon="-6.39804856"><ele>2689</ele><speed>13.50</speed><time>2016-06-21T16:40:42Z</time><pdop>4.0</pdop><geoidheight>54.00</geoidheight><course>7.3</course><type>1</type></trkpt>
      <trkpt lat="39.68675089" lon="-6.39803179"><ele>2686</ele><speed>13.25</speed><time>2016-06-21T16:40:43Z</time><pdop>4.0</pdop><geoidheight>54.00</geoidheight><course>5.5</course><type>1</type></trkpt>
      <trkpt lat="39.6868637" lon="-6.3980349499999996"><ele>2684</ele><speed>12.50</speed><time>2016-06-21T16:40:44Z</time><pdop>4.0</pdop><geoidheight>54.00</geoidheight><course>0.2</course><type>1</type></trkpt>
      <trkpt lat="39.68707997" lon="-6.39807849"><ele>2682</ele><speed>12.00</speed><time>2016-06-21T16:40:46Z</time><pdop>3.0</pdop><geoidheight>54.00</geoidheight><course>350.1</course><type>1</type></trkpt>
      <trkpt lat="39.68718603" lon="-6.3981005"><ele>2682</ele><speed>11.75</speed><time>2016-06-21T16:40:47Z</time><pdop>4.0</pdop><geoidheight>54.00</geoidheight><course>351.0</course><type>1</type></trkpt>
      <trkpt lat="39.68728903" lon="-6.3981183"><ele>2681</ele><speed>11.50</speed><time>2016-06-21T16:40:48Z</time><pdop>3.0</pdop><geoidheight>54.00</geoidheight><course>352.5</course><type>1</type></trkpt>
      <trkpt lat="39.68750208" lon="-6.39816421"><ele>2678</ele><speed>12.50</speed><time>2016-06-21T16:40:50Z</time><pdop>3.0</pdop><geoidheight>54.00</geoidheight><course>349.1</course><type>1</type></trkpt>
      <trkpt lat="39.68761812" lon="-6.39820537"><ele>2678</ele><speed>13.50</speed><time>2016-06-21T16:40:51Z</time><pdop>3.0</pdop><geoidheight>54.00</geoidheight><course>345.7</course><type>1</type></trkpt>
      <trkpt lat="39.68784541" lon="-6.39829766"><ele>2681</ele><speed>13.00</speed><time>2016-06-21T16:40:53Z</time><pdop>3.0</pdop><geoidheight>54.00</geoidheight><course>343.3</course><type>1</type></trkpt>
      <trkpt lat="39.68795322" lon="-6.39833153"><ele>2682</ele><speed>12.25</speed><time>2016-06-21T16:40:54Z</time><pdop>3.0</pdop><geoidheight>54.00</geoidheight><course>346.0</course><type>1</type></trkpt>
      <trkpt lat="39.68814955" lon="-6.39838915"><ele>2682</ele><speed>11.25</speed><time>2016-06-21T16:40:56Z</time><pdop>4.0</pdop><geoidheight>54.00</geoidheight><course>347.9</course><type>1</type></trkpt>
      <trkpt lat="39.68825339" lon="-6.3984257"><ele>2681</ele><speed>11.75</speed><time>2016-06-21T16:40:57Z</time><pdop>4.0</pdop><geoidheight>54.00</geoidheight><course>345.4</course><type>1</type></trkpt>
      <trkpt lat="39.6883584" lon="-6.39846741"><ele>2685</ele><speed>12.00</speed><time>2016-06-21T16:40:58Z</time><pdop>3.0</pdop><geoidheight>54.00</geoidheight><course>343.3</course><type>1</type></trkpt>
      <trkpt lat="39.68855973" lon="-6.39856384"><ele>2680</ele><speed>12.00</speed><time>2016-06-21T16:41:00Z</time><pdop>3.0</pdop><geoidheight>54.00</geoidheight><course>339.9</course><type>1</type></trkpt>
      <trkpt lat="39.68865614" lon="-6.39861405"><ele>2679</ele><speed>11.50</speed><time>2016-06-21T16:41:01Z</time><pdop>3.0</pdop><geoidheight>54.00</geoidheight><course>339.4</course><type>1</type></trkpt>
      <trkpt lat="39.68875382" lon="-6.39865925"><ele>2678</ele><speed>11.50</speed><time>2016-06-21T16:41:02Z</time><pdop>3.0</pdop><geoidheight>54.00</geoidheight><course>340.8</course><type>1</type></trkpt>
      <trkpt lat="39.68894689" lon="-6.39872301"><ele>2675</ele><speed>11.00</speed><time>2016-06-21T16:41:04Z</time><pdop>3.0</pdop><geoidheight>54.00</geoidheight><course>346.8</course><type>1</type></trkpt>
      <trkpt lat="39.68905081" lon="-6.39874448"><ele>2674</ele><speed>11.25</speed><time>2016-06-21T16:41:05Z</time><pdop>4.0</pdop><geoidheight>54.00</geoidheight><course>350.1</course><type>1</type></trkpt>
      <trkpt lat="39.68925366" lon="-6.39878454"><ele>2670</ele><speed>11.50</speed><time>2016-06-21T16:41:07Z</time><pdop>3.0</pdop><geoidheight>54.00</geoidheight><course>352.2</course><type>1</type></trkpt>
      <trkpt lat="39.68935682" lon="-6.39881237"><ele>2668</ele><speed>12.25</speed><time>2016-06-21T16:41:08Z</time><pdop>3.0</pdop><geoidheight>54.00</geoidheight><course>349.8</course><type>1</type></trkpt>
      <trkpt lat="39.68946814" lon="-6.39884707"><ele>2667</ele><speed>12.75</speed><time>2016-06-21T16:41:09Z</time><pdop>3.0</pdop><geoidheight>54.00</geoidheight><course>346.5</course><type>1</type></trkpt>
      <trkpt lat="39.68970276" lon="-6.3989071299999996"><ele>2666</ele><speed>13.25</speed><time>2016-06-21T16:41:11Z</time><pdop>3.0</pdop><geoidheight>54.00</geoidheight><course>350.5</course><type>1</type></trkpt>
      <trkpt lat="39.68981294" lon="-6.39891166"><ele>2665</ele><speed>12.50</speed><time>2016-06-21T16:41:12Z</time><pdop>3.0</pdop><geoidheight>54.00</geoidheight><course>356.4</course><type>1</type></trkpt>
      <trkpt lat="39.68991945" lon="-6.39890967"><ele>2664</ele><speed>11.75</speed><time>2016-06-21T16:41:13Z</time><pdop>3.0</pdop><geoidheight>54.00</geoidheight><course>359.6</course><type>1</type></trkpt>
      <trkpt lat="39.6901284" lon="-6.39892348"><ele>2660</ele><speed>11.75</speed><time>2016-06-21T16:41:15Z</time><pdop>4.0</pdop><geoidheight>54.00</geoidheight><course>355.8</course><type>1</type></trkpt>
      <trkpt lat="39.69023536" lon="-6.39893607"><ele>2667</ele><speed>12.00</speed><time>2016-06-21T16:41:16Z</time><pdop>4.0</pdop><geoidheight>54.00</geoidheight><course>354.3</course><type>1</type></trkpt>
      <trkpt lat="39.69047452" lon="-6.39895405"><ele>2659</ele><speed>13.25</speed><time>2016-06-21T16:41:18Z</time><pdop>4.0</pdop><geoidheight>54.00</geoidheight><course>358.6</course><type>1</type></trkpt>
      <trkpt lat="39.69059138" lon="-6.39894692"><ele>2659</ele><speed>12.50</speed><time>2016-06-21T16:41:19Z</time><pdop>3.0</pdop><geoidheight>54.00</geoidheight><course>2.7</course><type>1</type></trkpt>
      <trkpt lat="39.69069789" lon="-6.39893476"><ele>2658</ele><speed>12.00</speed><time>2016-06-21T16:41:20Z</time><pdop>4.0</pdop><geoidheight>54.00</geoidheight><course>4.8</course><type>1</type></trkpt>
      <trkpt lat="39.69090797" lon="-6.39891375"><ele>2655</ele><speed>11.75</speed><time>2016-06-21T16:41:22Z</time><pdop>3.0</pdop><geoidheight>54.00</geoidheight><course>1.7</course><type>1</type></trkpt>
      <trkpt lat="39.69101899" lon="-6.39891545"><ele>2653</ele><speed>12.25</speed><time>2016-06-21T16:41:23Z</time><pdop>4.0</pdop><geoidheight>54.00</geoidheight><course>359.0</course><type>1</type></trkpt>
      <trkpt lat="39.69124918" lon="-6.39891502"><ele>2650</ele><speed>13.00</speed><time>2016-06-21T16:41:25Z</time><pdop>4.0</pdop><geoidheight>54.00</geoidheight><course>1.4</course><type>1</type></trkpt>
      <trkpt lat="39.69136516" lon="-6.39889948"><ele>2650</ele><speed>13.00</speed><time>2016-06-21T16:41:26Z</time><pdop>3.0</pdop><geoidheight>54.00</geoidheight><course>5.1</course><type>1</type></trkpt>
      <trkpt lat="39.69148213" lon="-6.39887958"><ele>2650</ele><speed>13.00</speed><time>2016-06-21T16:41:27Z</time><pdop>3.0</pdop><geoidheight>54.00</geoidheight><course>7.8</course><type>1</type></trkpt>
      <trkpt lat="39.69170021" lon="-6.39884597"><ele>2650</ele><speed>12.00</speed><time>2016-06-21T16:41:29Z</time><pdop>3.0</pdop><geoidheight>54.00</geoidheight><course>5.3</course><type>1</type></trkpt>
      <trkpt lat="39.69181495" lon="-6.39883771"><ele>2649</ele><speed>12.25</speed><time>2016-06-21T16:41:30Z</time><pdop>3.0</pdop><geoidheight>54.00</geoidheight><course>2.4</course><type>1</type></trkpt>
      <trkpt lat="39.69192845" lon="-6.39883735"><ele>2648</ele><speed>12.75</speed><time>2016-06-21T16:41:31Z</time><pdop>3.0</pdop><geoidheight>54.00</geoidheight><course>0.6</course><type>1</type></trkpt>
      <trkpt lat="39.69216962" lon="-6.39882818"><ele>2645</ele><speed>13.25</speed><time>2016-06-21T16:41:33Z</time><pdop>4.0</pdop><geoidheight>54.00</geoidheight><course>2.1</course><type>1</type></trkpt>
      <trkpt lat="39.69228422" lon="-6.39882298"><ele>2645</ele><speed>12.75</speed><time>2016-06-21T16:41:34Z</time><pdop>3.0</pdop><geoidheight>54.00</geoidheight><course>2.8</course><type>1</type></trkpt>
      <trkpt lat="39.69250252" lon="-6.39881048"><ele>2642</ele><speed>12.25</speed><time>2016-06-21T16:41:36Z</time><pdop>3.0</pdop><geoidheight>54.00</geoidheight><course>1.0</course><type>1</type></trkpt>
      <trkpt lat="39.69262156" lon="-6.39881425"><ele>2640</ele><speed>13.00</speed><time>2016-06-21T16:41:37Z</time><pdop>3.0</pdop><geoidheight>54.00</geoidheight><course>359.2</course><type>1</type></trkpt>
      <trkpt lat="39.69286927" lon="-6.39882098"><ele>2638</ele><speed>13.50</speed><time>2016-06-21T16:41:39Z</time><pdop>4.0</pdop><geoidheight>54.00</geoidheight><course>359.5</course><type>1</type></trkpt>
      <trkpt lat="39.69298187" lon="-6.39881916"><ele>2638</ele><speed>12.75</speed><time>2016-06-21T16:41:40Z</time><pdop>3.0</pdop><geoidheight>54.00</geoidheight><course>0.9</course><type>1</type></trkpt>
      <trkpt lat="39.69309121" lon="-6.39881668"><ele>2637</ele><speed>12.25</speed><time>2016-06-21T16:41:41Z</time><pdop>4.0</pdop><geoidheight>54.00</geoidheight><course>359.9</course><type>1</type></trkpt>
      <trkpt lat="39.69329952" lon="-6.39884032"><ele>2635</ele><speed>11.50</speed><time>2016-06-21T16:41:43Z</time><pdop>3.0</pdop><geoidheight>54.00</geoidheight><course>354.7</course><type>1</type></trkpt>
      <trkpt lat="39.69339994" lon="-6.39884861"><ele>2632</ele><speed>11.25</speed><time>2016-06-21T16:41:44Z</time><pdop>3.0</pdop><geoidheight>54.00</geoidheight><course>356.9</course><type>1</type></trkpt>
      <trkpt lat="39.69363338" lon="-6.39886246"><ele>2628</ele><speed>13.25</speed><time>2016-06-21T16:41:46Z</time><pdop>3.0</pdop><geoidheight>54.00</geoidheight><course>356.5</course><type>1</type></trkpt>
      <trkpt lat="39.69376008" lon="-6.39888734"><ele>2627</ele><speed>14.25</speed><time>2016-06-21T16:41:47Z</time><pdop>3.0</pdop><geoidheight>54.00</geoidheight><course>353.0</course><type>1</type></trkpt>
      <trkpt lat="39.69388582" lon="-6.39891578"><ele>2628</ele><speed>14.25</speed><time>2016-06-21T16:41:48Z</time><pdop>3.0</pdop><geoidheight>54.00</geoidheight><course>351.2</course><type>1</type></trkpt>
      <trkpt lat="39.69411564" lon="-6.39895754"><ele>2631</ele><speed>12.75</speed><time>2016-06-21T16:41:50Z</time><pdop>3.0</pdop><geoidheight>54.00</geoidheight><course>351.8</course><type>1</type></trkpt>
      <trkpt lat="39.69422577" lon="-6.39897835"><ele>2633</ele><speed>12.50</speed><time>2016-06-21T16:41:51Z</time><pdop>4.0</pdop><geoidheight>54.00</geoidheight><course>351.8</course><type>1</type></trkpt>
      <trkpt lat="39.69433348" lon="-6.39900478"><ele>2634</ele><speed>12.25</speed><time>2016-06-21T16:41:52Z</time><pdop>4.0</pdop><geoidheight>54.00</geoidheight><course>350.0</course><type>1</type></trkpt>
      <trkpt lat="39.69453477" lon="-6.39906521"><ele>2637</ele><speed>11.25</speed><time>2016-06-21T16:41:54Z</time><pdop>4.0</pdop><geoidheight>54.00</geoidheight><course>344.9</course><type>1</type></trkpt>
      <trkpt lat="39.69462954" lon="-6.39909522"><ele>2640</ele><speed>10.75</speed><time>2016-06-21T16:41:55Z</time><pdop>4.0</pdop><geoidheight>54.00</geoidheight><course>346.5</course><type>1</type></trkpt>
      <trkpt lat="39.69472251" lon="-6.39910864"><ele>2642</ele><speed>10.25</speed><time>2016-06-21T16:41:56Z</time><pdop>3.0</pdop><geoidheight>54.00</geoidheight><course>352.9</course><type>1</type></trkpt>
      <trkpt lat="39.6949007" lon="-6.39906831"><ele>2643</ele><speed>10.25</speed><time>2016-06-21T16:41:58Z</time><pdop>3.0</pdop><geoidheight>54.00</geoidheight><course>14.6</course><type>1</type></trkpt>
      <trkpt lat="39.69497174" lon="-6.39900244"><ele>2643</ele><speed>10.00</speed><time>2016-06-21T16:41:59Z</time><pdop>3.0</pdop><geoidheight>54.00</geoidheight><course>29.9</course><type>1</type></trkpt>
      <trkpt lat="39.69503865" lon="-6.39883592"><ele>2643</ele><speed>7.75</speed><time>2016-06-21T16:42:01Z</time><pdop>3.0</pdop><geoidheight>54.00</geoidheight><course>70.0</course><type>1</type></trkpt>
      <trkpt lat="39.69502804" lon="-6.39875936"><ele>2643</ele><speed>6.50</speed><time>2016-06-21T16:42:02Z</time><pdop>3.0</pdop><geoidheight>54.00</geoidheight><course>97.2</course><type>1</type></trkpt>
      <trkpt lat="39.69489536" lon="-6.39868172"><ele>2641</ele><speed>6.75</speed><time>2016-06-21T16:42:05Z</time><pdop>3.0</pdop><geoidheight>54.00</geoidheight><course>178.3</course><type>1</type></trkpt>
      <trkpt lat="39.6948343" lon="-6.39870441"><ele>2641</ele><speed>7.25</speed><time>2016-06-21T16:42:06Z</time><pdop>4.0</pdop><geoidheight>54.00</geoidheight><course>191.9</course><type>1</type></trkpt>
      <trkpt lat="39.69466746" lon="-6.39880682"><ele>2642</ele><speed>6.75</speed><time>2016-06-21T16:42:09Z</time><pdop>3.0</pdop><geoidheight>54.00</geoidheight><course>205.5</course><type>1</type></trkpt>
      <trkpt lat="39.69461335" lon="-6.39884973"><ele>2641</ele><speed>7.00</speed><time>2016-06-21T16:42:10Z</time><pdop>4.0</pdop><geoidheight>54.00</geoidheight><course>209.7</course><type>1</type></trkpt>
      <trkpt lat="39.69451602" lon="-6.39898151"><ele>2642</ele><speed>7.50</speed><time>2016-06-21T16:42:12Z</time><pdop>4.0</pdop><geoidheight>54.00</geoidheight><course>230.1</course><type>1</type></trkpt>
      <trkpt lat="39.69445888" lon="-6.39916569"><ele>2642</ele><speed>9.25</speed><time>2016-06-21T16:42:14Z</time><pdop>3.0</pdop><geoidheight>54.00</geoidheight><course>253.4</course><type>1</type></trkpt>
      <trkpt lat="39.6944635" lon="-6.39929163"><ele>2641</ele><speed>10.50</speed><time>2016-06-21T16:42:15Z</time><pdop>3.0</pdop><geoidheight>54.00</geoidheight><course>268.5</course><type>1</type></trkpt>
      <trkpt lat="39.69450003" lon="-6.39942522"><ele>2641</ele><speed>11.75</speed><time>2016-06-21T16:42:16Z</time><pdop>3.0</pdop><geoidheight>54.00</geoidheight><course>286.5</course><type>1</type></trkpt>
      <trkpt lat="39.69466667" lon="-6.39964932"><ele>2642</ele><speed>14.00</speed><time>2016-06-21T16:42:18Z</time><pdop>3.0</pdop><geoidheight>54.00</geoidheight><course>320.5</course><type>1</type></trkpt>
      <trkpt lat="39.69477816" lon="-6.39971514"><ele>2643</ele><speed>13.50</speed><time>2016-06-21T16:42:19Z</time><pdop>3.0</pdop><geoidheight>54.00</geoidheight><course>334.4</course><type>1</type></trkpt>
      <trkpt lat="39.69498675" lon="-6.39978437"><ele>2646</ele><speed>11.75</speed><time>2016-06-21T16:42:21Z</time><pdop>3.0</pdop><geoidheight>54.00</geoidheight><course>347.1</course><type>1</type></trkpt>
      <trkpt lat="39.69508575" lon="-6.39981118"><ele>2648</ele><speed>11.25</speed><time>2016-06-21T16:42:22Z</time><pdop>3.0</pdop><geoidheight>54.00</geoidheight><course>348.9</course><type>1</type></trkpt>
      <trkpt lat="39.69518291" lon="-6.39983314"><ele>2649</ele><speed>11.00</speed><time>2016-06-21T16:42:23Z</time><pdop>4.0</pdop><geoidheight>54.00</geoidheight><course>349.4</course><type>1</type></trkpt>
      <trkpt lat="39.69536833" lon="-6.39986281"><ele>2652</ele><speed>10.25</speed><time>2016-06-21T16:42:25Z</time><pdop>3.0</pdop><geoidheight>54.00</geoidheight><course>352.5</course><type>1</type></trkpt>
      <trkpt lat="39.69545511" lon="-6.39986767"><ele>2652</ele><speed>9.75</speed><time>2016-06-21T16:42:26Z</time><pdop>3.0</pdop><geoidheight>54.00</geoidheight><course>355.8</course><type>1</type></trkpt>
      <trkpt lat="39.69553961" lon="-6.39986379"><ele>2652</ele><speed>9.50</speed><time>2016-06-21T16:42:27Z</time><pdop>3.0</pdop><geoidheight>54.00</geoidheight><course>0.4</course><type>1</type></trkpt>
      <trkpt lat="39.69572023" lon="-6.39984425"><ele>2653</ele><speed>10.25</speed><time>2016-06-21T16:42:29Z</time><pdop>3.0</pdop><geoidheight>54.00</geoidheight><course>4.4</course><type>1</type></trkpt>
      <trkpt lat="39.69581196" lon="-6.39982985"><ele>2653</ele><speed>10.50</speed><time>2016-06-21T16:42:30Z</time><pdop>3.0</pdop><geoidheight>54.00</geoidheight><course>5.8</course><type>1</type></trkpt>
      <trkpt lat="39.69590828" lon="-6.39981649"><ele>2653</ele><speed>10.50</speed><time>2016-06-21T16:42:31Z</time><pdop>3.0</pdop><geoidheight>54.00</geoidheight><course>6.9</course><type>1</type></trkpt>
      <trkpt lat="39.69611651" lon="-6.39977686"><ele>2653</ele><speed>12.00</speed><time>2016-06-21T16:42:33Z</time><pdop>3.0</pdop><geoidheight>54.00</geoidheight><course>8.8</course><type>1</type></trkpt>
      <trkpt lat="39.69623107" lon="-6.39975236"><ele>2653</ele><speed>12.75</speed><time>2016-06-21T16:42:34Z</time><pdop>3.0</pdop><geoidheight>54.00</geoidheight><course>10.0</course><type>1</type></trkpt>
      <trkpt lat="39.6963459" lon="-6.39972579"><ele>2654</ele><speed>13.00</speed><time>2016-06-21T16:42:35Z</time><pdop>3.0</pdop><geoidheight>54.00</geoidheight><course>10.0</course><type>1</type></trkpt>
      <trkpt lat="39.69656858" lon="-6.39968893"><ele>2659</ele><speed>12.25</speed><time>2016-06-21T16:42:37Z</time><pdop>3.0</pdop><geoidheight>54.00</geoidheight><course>6.0</course><type>1</type></trkpt>
      <trkpt lat="39.69667533" lon="-6.39967293"><ele>2661</ele><speed>11.75</speed><time>2016-06-21T16:42:38Z</time><pdop>3.0</pdop><geoidheight>54.00</geoidheight><course>5.6</course><type>1</type></trkpt>
      <trkpt lat="39.69687859" lon="-6.39965672"><ele>2663</ele><speed>11.25</speed><time>2016-06-21T16:42:40Z</time><pdop>3.0</pdop><geoidheight>54.00</geoidheight><course>1.6</course><type>1</type></trkpt>
      <trkpt lat="39.69697839" lon="-6.39966131"><ele>2663</ele><speed>11.00</speed><time>2016-06-21T16:42:41Z</time><pdop>3.0</pdop><geoidheight>54.00</geoidheight><course>357.8</course><type>1</type></trkpt>
      <trkpt lat="39.69717262" lon="-6.39966777"><ele>2662</ele><speed>10.50</speed><time>2016-06-21T16:42:43Z</time><pdop>3.0</pdop><geoidheight>54.00</geoidheight><course>0.1</course><type>1</type></trkpt>
      <trkpt lat="39.69726424" lon="-6.39966201"><ele>2661</ele><speed>10.25</speed><time>2016-06-21T16:42:44Z</time><pdop>3.0</pdop><geoidheight>54.00</geoidheight><course>2.9</course><type>1</type></trkpt>
      <trkpt lat="39.69735405" lon="-6.39965555"><ele>2660</ele><speed>10.25</speed><time>2016-06-21T16:42:45Z</time><pdop>3.0</pdop><geoidheight>54.00</geoidheight><course>3.1</course><type>1</type></trkpt>
      <trkpt lat="39.69754871" lon="-6.39965444"><ele>2658</ele><speed>11.00</speed><time>2016-06-21T16:42:47Z</time><pdop>3.0</pdop><geoidheight>54.00</geoidheight><course>359.5</course><type>1</type></trkpt>
      <trkpt lat="39.69776203" lon="-6.3996709"><ele>2657</ele><speed>12.00</speed><time>2016-06-21T16:42:49Z</time><pdop>3.0</pdop><geoidheight>54.00</geoidheight><course>354.4</course><type>1</type></trkpt>
      <trkpt lat="39.69796269" lon="-6.39972381"><ele>2656</ele><speed>11.50</speed><time>2016-06-21T16:42:51Z</time><pdop>4.0</pdop><geoidheight>54.00</geoidheight><course>346.7</course><type>1</type></trkpt>
      <trkpt lat="39.69806203" lon="-6.39975771"><ele>2656</ele><speed>11.50</speed><time>2016-06-21T16:42:52Z</time><pdop>3.0</pdop><geoidheight>54.00</geoidheight><course>345.9</course><type>1</type></trkpt>
      <trkpt lat="39.69816255" lon="-6.3997872"><ele>2655</ele><speed>11.25</speed><time>2016-06-21T16:42:53Z</time><pdop>3.0</pdop><geoidheight>54.00</geoidheight><course>347.4</course><type>1</type></trkpt>
      <trkpt lat="39.69826044" lon="-6.39981307"><ele>2654</ele><speed>11.00</speed><time>2016-06-21T16:42:54Z</time><pdop>3.0</pdop><geoidheight>54.00</geoidheight><course>348.6</course><type>1</type></trkpt>
      <trkpt lat="39.69845628" lon="-6.39987826"><ele>2652</ele><speed>11.25</speed><time>2016-06-21T16:42:56Z</time><pdop>4.0</pdop><geoidheight>54.00</geoidheight><course>346.7</course><type>1</type></trkpt>
      <trkpt lat="39.69867027" lon="-6.39993008"><ele>2650</ele><speed>12.00</speed><time>2016-06-21T16:42:58Z</time><pdop>4.0</pdop><geoidheight>54.00</geoidheight><course>350.1</course><type>1</type></trkpt>
      <trkpt lat="39.69878066" lon="-6.39995815"><ele>2650</ele><speed>12.25</speed><time>2016-06-21T16:42:59Z</time><pdop>4.0</pdop><geoidheight>54.00</geoidheight><course>349.3</course><type>1</type></trkpt>
      <trkpt lat="39.69889069" lon="-6.40000027"><ele>2650</ele><speed>12.75</speed><time>2016-06-21T16:43:00Z</time><pdop>3.0</pdop><geoidheight>54.00</geoidheight><course>344.1</course><type>1</type></trkpt>
      <trkpt lat="39.69899556" lon="-6.40006162"><ele>2650</ele><speed>13.00</speed><time>2016-06-21T16:43:01Z</time><pdop>3.0</pdop><geoidheight>54.00</geoidheight><course>338.1</course><type>1</type></trkpt>
      <trkpt lat="39.69920068" lon="-6.40020389"><ele>2649</ele><speed>13.00</speed><time>2016-06-21T16:43:03Z</time><pdop>4.0</pdop><geoidheight>54.00</geoidheight><course>332.3</course><type>1</type></trkpt>
      <trkpt lat="39.69930663" lon="-6.40027756"><ele>2648</ele><speed>13.25</speed><time>2016-06-21T16:43:04Z</time><pdop>4.0</pdop><geoidheight>54.00</geoidheight><course>332.4</course><type>1</type></trkpt>
      <trkpt lat="39.69940975" lon="-6.4003496"><ele>2648</ele><speed>13.00</speed><time>2016-06-21T16:43:05Z</time><pdop>3.0</pdop><geoidheight>54.00</geoidheight><course>332.8</course><type>1</type></trkpt>
      <trkpt lat="39.69951798" lon="-6.40041283"><ele>2648</ele><speed>13.00</speed><time>2016-06-21T16:43:06Z</time><pdop>4.0</pdop><geoidheight>54.00</geoidheight><course>335.0</course><type>1</type></trkpt>
      <trkpt lat="39.69962601" lon="-6.40046981"><ele>2648</ele><speed>13.00</speed><time>2016-06-21T16:43:07Z</time><pdop>4.0</pdop><geoidheight>54.00</geoidheight><course>337.9</course><type>1</type></trkpt>
      <trkpt lat="39.69984578" lon="-6.40056583"><ele>2647</ele><speed>12.75</speed><time>2016-06-21T16:43:09Z</time><pdop>3.0</pdop><geoidheight>54.00</geoidheight><course>342.0</course><type>1</type></trkpt>
      <trkpt lat="39.69995867" lon="-6.40060343"><ele>2647</ele><speed>12.75</speed><time>2016-06-21T16:43:10Z</time><pdop>4.0</pdop><geoidheight>54.00</geoidheight><course>344.9</course><type>1</type></trkpt>
      <trkpt lat="39.70006386" lon="-6.40062317"><ele>2647</ele><speed>12.50</speed><time>2016-06-21T16:43:11Z</time><pdop>3.0</pdop><geoidheight>54.00</geoidheight><course>349.9</course><type>1</type></trkpt>
      <trkpt lat="39.70017118" lon="-6.40063151"><ele>2647</ele><speed>12.00</speed><time>2016-06-21T16:43:12Z</time><pdop>3.0</pdop><geoidheight>54.00</geoidheight><course>355.1</course><type>1</type></trkpt>
      <trkpt lat="39.70037594" lon="-6.40062663"><ele>2647</ele><speed>11.00</speed><time>2016-06-21T16:43:14Z</time><pdop>3.0</pdop><geoidheight>54.00</geoidheight><course>3.1</course><type>1</type></trkpt>
      <trkpt lat="39.70047459" lon="-6.40061087"><ele>2646</ele><speed>11.00</speed><time>2016-06-21T16:43:15Z</time><pdop>3.0</pdop><geoidheight>54.00</geoidheight><course>6.7</course><type>1</type></trkpt>
      <trkpt lat="39.70057415" lon="-6.40059035"><ele>2645</ele><speed>11.25</speed><time>2016-06-21T16:43:16Z</time><pdop>3.0</pdop><geoidheight>54.00</geoidheight><course>8.2</course><type>1</type></trkpt>
      <trkpt lat="39.70078889" lon="-6.40055368"><ele>2644</ele><speed>11.75</speed><time>2016-06-21T16:43:18Z</time><pdop>3.0</pdop><geoidheight>54.00</geoidheight><course>5.8</course><type>1</type></trkpt>
      <trkpt lat="39.70088948" lon="-6.40054427"><ele>2643</ele><speed>11.25</speed><time>2016-06-21T16:43:19Z</time><pdop>3.0</pdop><geoidheight>54.00</geoidheight><course>5.4</course><type>1</type></trkpt>
      <trkpt lat="39.70098576" lon="-6.40052689"><ele>2643</ele><speed>10.75</speed><time>2016-06-21T16:43:20Z</time><pdop>3.0</pdop><geoidheight>54.00</geoidheight><course>6.3</course><type>1</type></trkpt>
      <trkpt lat="39.70108083" lon="-6.40051516"><ele>2641</ele><speed>10.75</speed><time>2016-06-21T16:43:21Z</time><pdop>3.0</pdop><geoidheight>54.00</geoidheight><course>5.1</course><type>1</type></trkpt>
      <trkpt lat="39.70128694" lon="-6.40051911"><ele>2638</ele><speed>11.75</speed><time>2016-06-21T16:43:23Z</time><pdop>3.0</pdop><geoidheight>54.00</geoidheight><course>356.5</course><type>1</type></trkpt>
      <trkpt lat="39.70139405" lon="-6.40053092"><ele>2635</ele><speed>12.00</speed><time>2016-06-21T16:43:24Z</time><pdop>3.0</pdop><geoidheight>54.00</geoidheight><course>355.0</course><type>1</type></trkpt>
      <trkpt lat="39.70150334" lon="-6.40053501"><ele>2632</ele><speed>12.25</speed><time>2016-06-21T16:43:25Z</time><pdop>3.0</pdop><geoidheight>54.00</geoidheight><course>357.6</course><type>1</type></trkpt>
      <trkpt lat="39.70172241" lon="-6.40052949"><ele>2628</ele><speed>12.50</speed><time>2016-06-21T16:43:27Z</time><pdop>3.0</pdop><geoidheight>54.00</geoidheight><course>1.8</course><type>1</type></trkpt>
      <trkpt lat="39.70193372" lon="-6.40053422"><ele>2626</ele><speed>11.00</speed><time>2016-06-21T16:43:29Z</time><pdop>3.0</pdop><geoidheight>54.00</geoidheight><course>358.2</course><type>1</type></trkpt>
      <trkpt lat="39.70202689" lon="-6.40053349"><ele>2624</ele><speed>10.50</speed><time>2016-06-21T16:43:30Z</time><pdop>3.0</pdop><geoidheight>54.00</geoidheight><course>359.9</course><type>1</type></trkpt>
      <trkpt lat="39.7021151" lon="-6.40053223"><ele>2621</ele><speed>10.25</speed><time>2016-06-21T16:43:31Z</time><pdop>3.0</pdop><geoidheight>54.00</geoidheight><course>1.6</course><type>1</type></trkpt>
      <trkpt lat="39.7023052" lon="-6.40053739"><ele>2617</ele><speed>10.50</speed><time>2016-06-21T16:43:33Z</time><pdop>3.0</pdop><geoidheight>54.00</geoidheight><course>358.2</course><type>1</type></trkpt>
      <trkpt lat="39.70240529" lon="-6.4005484"><ele>2614</ele><speed>11.00</speed><time>2016-06-21T16:43:34Z</time><pdop>3.0</pdop><geoidheight>54.00</geoidheight><course>354.4</course><type>1</type></trkpt>
      <trkpt lat="39.70250956" lon="-6.4005702"><ele>2612</ele><speed>11.50</speed><time>2016-06-21T16:43:35Z</time><pdop>3.0</pdop><geoidheight>54.00</geoidheight><course>350.9</course><type>1</type></trkpt>
      <trkpt lat="39.70261357" lon="-6.40059739"><ele>2611</ele><speed>11.75</speed><time>2016-06-21T16:43:36Z</time><pdop>4.0</pdop><geoidheight>54.00</geoidheight><course>348.3</course><type>1</type></trkpt>
      <trkpt lat="39.70281685" lon="-6.40066757"><ele>2609</ele><speed>11.50</speed><time>2016-06-21T16:43:38Z</time><pdop>4.0</pdop><geoidheight>54.00</geoidheight><course>345.6</course><type>1</type></trkpt>
      <trkpt lat="39.70291931" lon="-6.40068807"><ele>2606</ele><speed>11.75</speed><time>2016-06-21T16:43:39Z</time><pdop>3.0</pdop><geoidheight>54.00</geoidheight><course>350.3</course><type>1</type></trkpt>
      <trkpt lat="39.70313772" lon="-6.40070259"><ele>2601</ele><speed>12.00</speed><time>2016-06-21T16:43:41Z</time><pdop>3.0</pdop><geoidheight>54.00</geoidheight><course>356.9</course><type>1</type></trkpt>
      <trkpt lat="39.70323995" lon="-6.40071048"><ele>2600</ele><speed>11.50</speed><time>2016-06-21T16:43:42Z</time><pdop>3.0</pdop><geoidheight>54.00</geoidheight><course>357.6</course><type>1</type></trkpt>
      <trkpt lat="39.70341396" lon="-6.40072751"><ele>2597</ele><speed>9.50</speed><time>2016-06-21T16:43:44Z</time><pdop>3.0</pdop><geoidheight>54.00</geoidheight><course>354.5</course><type>1</type></trkpt>
      <trkpt lat="39.70349858" lon="-6.40074088"><ele>2595</ele><speed>9.50</speed><time>2016-06-21T16:43:45Z</time><pdop>3.0</pdop><geoidheight>54.00</geoidheight><course>352.9</course><type>1</type></trkpt>
      <trkpt lat="39.7035864" lon="-6.40075842"><ele>2592</ele><speed>10.00</speed><time>2016-06-21T16:43:46Z</time><pdop>3.0</pdop><geoidheight>54.00</geoidheight><course>352.4</course><type>1</type></trkpt>
      <trkpt lat="39.70378856" lon="-6.40078767"><ele>2586</ele><speed>11.50</speed><time>2016-06-21T16:43:48Z</time><pdop>3.0</pdop><geoidheight>54.00</geoidheight><course>354.5</course><type>1</type></trkpt>
      <trkpt lat="39.70388989" lon="-6.40079636"><ele>2585</ele><speed>11.25</speed><time>2016-06-21T16:43:49Z</time><pdop>3.0</pdop><geoidheight>54.00</geoidheight><course>355.7</course><type>1</type></trkpt>
      <trkpt lat="39.70398543" lon="-6.40080735"><ele>2584</ele><speed>10.75</speed><time>2016-06-21T16:43:50Z</time><pdop>3.0</pdop><geoidheight>54.00</geoidheight><course>354.9</course><type>1</type></trkpt>
      <trkpt lat="39.70416945" lon="-6.4008366"><ele>2581</ele><speed>10.25</speed><time>2016-06-21T16:43:52Z</time><pdop>4.0</pdop><geoidheight>54.00</geoidheight><course>352.4</course><type>1</type></trkpt>
      <trkpt lat="39.70435811" lon="-6.4008657"><ele>2579</ele><speed>10.50</speed><time>2016-06-21T16:43:54Z</time><pdop>3.0</pdop><geoidheight>54.00</geoidheight><course>353.7</course><type>1</type></trkpt>
      <trkpt lat="39.7044505" lon="-6.40087753"><ele>2579</ele><speed>10.50</speed><time>2016-06-21T16:43:55Z</time><pdop>3.0</pdop><geoidheight>54.00</geoidheight><course>354.6</course><type>1</type></trkpt>
      <trkpt lat="39.70453728" lon="-6.40089391"><ele>2580</ele><speed>10.25</speed><time>2016-06-21T16:43:56Z</time><pdop>3.0</pdop><geoidheight>54.00</geoidheight><course>353.9</course><type>1</type></trkpt>
      <trkpt lat="39.70469939" lon="-6.40094741"><ele>2580</ele><speed>9.25</speed><time>2016-06-21T16:43:58Z</time><pdop>3.0</pdop><geoidheight>54.00</geoidheight><course>344.5</course><type>1</type></trkpt>
      <trkpt lat="39.70477603" lon="-6.40097335"><ele>2579</ele><speed>9.25</speed><time>2016-06-21T16:43:59Z</time><pdop>3.0</pdop><geoidheight>54.00</geoidheight><course>343.7</course><type>1</type></trkpt>
      <trkpt lat="39.70485973" lon="-6.40099755"><ele>2577</ele><speed>9.25</speed><time>2016-06-21T16:44:00Z</time><pdop>3.0</pdop><geoidheight>54.00</geoidheight><course>346.1</course><type>1</type></trkpt>
      <trkpt lat="39.70502367" lon="-6.4010371"><ele>2575</ele><speed>9.25</speed><time>2016-06-21T16:44:02Z</time><pdop>3.0</pdop><geoidheight>54.00</geoidheight><course>349.7</course><type>1</type></trkpt>
      <trkpt lat="39.70510438" lon="-6.40105406"><ele>2574</ele><speed>9.00</speed><time>2016-06-21T16:44:03Z</time><pdop>3.0</pdop><geoidheight>54.00</geoidheight><course>350.5</course><type>1</type></trkpt>
      <trkpt lat="39.7051853" lon="-6.40106745"><ele>2572</ele><speed>9.00</speed><time>2016-06-21T16:44:04Z</time><pdop>3.0</pdop><geoidheight>54.00</geoidheight><course>351.7</course><type>1</type></trkpt>
      <trkpt lat="39.70526707" lon="-6.40108078"><ele>2571</ele><speed>9.25</speed><time>2016-06-21T16:44:05Z</time><pdop>3.0</pdop><geoidheight>54.00</geoidheight><course>353.1</course><type>1</type></trkpt>
      <trkpt lat="39.70534927" lon="-6.40109286"><ele>2569</ele><speed>9.00</speed><time>2016-06-21T16:44:06Z</time><pdop>3.0</pdop><geoidheight>54.00</geoidheight><course>353.4</course><type>1</type></trkpt>
      <trkpt lat="39.70552074" lon="-6.40111382"><ele>2567</ele><speed>9.50</speed><time>2016-06-21T16:44:08Z</time><pdop>3.0</pdop><geoidheight>54.00</geoidheight><course>355.3</course><type>1</type></trkpt>
      <trkpt lat="39.70561017" lon="-6.40112444"><ele>2565</ele><speed>9.75</speed><time>2016-06-21T16:44:09Z</time><pdop>3.0</pdop><geoidheight>54.00</geoidheight><course>355.5</course><type>1</type></trkpt>
      <trkpt lat="39.70569981" lon="-6.40113303"><ele>2564</ele><speed>10.00</speed><time>2016-06-21T16:44:10Z</time><pdop>3.0</pdop><geoidheight>54.00</geoidheight><course>355.6</course><type>1</type></trkpt>
      <trkpt lat="39.70578868" lon="-6.40113947"><ele>2563</ele><speed>9.75</speed><time>2016-06-21T16:44:11Z</time><pdop>3.0</pdop><geoidheight>54.00</geoidheight><course>355.7</course><type>1</type></trkpt>
      <trkpt lat="39.70596057" lon="-6.40115677"><ele>2560</ele><speed>9.50</speed><time>2016-06-21T16:44:13Z</time><pdop>3.0</pdop><geoidheight>54.00</geoidheight><course>356.3</course><type>1</type></trkpt>
      <trkpt lat="39.70604402" lon="-6.40115836"><ele>2559</ele><speed>9.50</speed><time>2016-06-21T16:44:14Z</time><pdop>3.0</pdop><geoidheight>54.00</geoidheight><course>356.9</course><type>1</type></trkpt>
      <trkpt lat="39.70612603" lon="-6.40116387"><ele>2558</ele><speed>9.25</speed><time>2016-06-21T16:44:15Z</time><pdop>3.0</pdop><geoidheight>54.00</geoidheight><course>357.3</course><type>1</type></trkpt>
      <trkpt lat="39.7062087" lon="-6.40116212"><ele>2557</ele><speed>9.25</speed><time>2016-06-21T16:44:16Z</time><pdop>3.0</pdop><geoidheight>54.00</geoidheight><course>358.8</course><type>1</type></trkpt>
      <trkpt lat="39.70638309" lon="-6.40116869"><ele>2555</ele><speed>9.50</speed><time>2016-06-21T16:44:18Z</time><pdop>3.0</pdop><geoidheight>54.00</geoidheight><course>357.7</course><type>1</type></trkpt>
      <trkpt lat="39.70656525" lon="-6.40120477"><ele>2553</ele><speed>10.00</speed><time>2016-06-21T16:44:20Z</time><pdop>3.0</pdop><geoidheight>54.00</geoidheight><course>350.3</course><type>1</type></trkpt>
      <trkpt lat="39.70665369" lon="-6.4012249"><ele>2552</ele><speed>10.00</speed><time>2016-06-21T16:44:21Z</time><pdop>4.0</pdop><geoidheight>54.00</geoidheight><course>350.0</course><type>1</type></trkpt>
      <trkpt lat="39.7067401" lon="-6.40124409"><ele>2549</ele><speed>9.75</speed><time>2016-06-21T16:44:22Z</time><pdop>3.0</pdop><geoidheight>54.00</geoidheight><course>350.1</course><type>1</type></trkpt>
      <trkpt lat="39.70682954" lon="-6.40126728"><ele>2547</ele><speed>10.00</speed><time>2016-06-21T16:44:23Z</time><pdop>3.0</pdop><geoidheight>54.00</geoidheight><course>350.0</course><type>1</type></trkpt>
      <trkpt lat="39.70692587" lon="-6.40128893"><ele>2547</ele><speed>10.50</speed><time>2016-06-21T16:44:24Z</time><pdop>3.0</pdop><geoidheight>54.00</geoidheight><course>349.2</course><type>1</type></trkpt>
      <trkpt lat="39.70702244" lon="-6.40131277"><ele>2544</ele><speed>11.00</speed><time>2016-06-21T16:44:25Z</time><pdop>3.0</pdop><geoidheight>54.00</geoidheight><course>349.4</course><type>1</type></trkpt>
      <trkpt lat="39.70711681" lon="-6.40133051"><ele>2541</ele><speed>11.00</speed><time>2016-06-21T16:44:26Z</time><pdop>3.0</pdop><geoidheight>54.00</geoidheight><course>350.9</course><type>1</type></trkpt>
      <trkpt lat="39.70730952" lon="-6.40137326"><ele>2536</ele><speed>11.00</speed><time>2016-06-21T16:44:28Z</time><pdop>3.0</pdop><geoidheight>54.00</geoidheight><course>350.2</course><type>1</type></trkpt>
      <trkpt lat="39.70740515" lon="-6.40140191"><ele>2534</ele><speed>11.25</speed><time>2016-06-21T16:44:29Z</time><pdop>4.0</pdop><geoidheight>54.00</geoidheight><course>348.4</course><type>1</type></trkpt>
      <trkpt lat="39.70759806" lon="-6.40146759"><ele>2533</ele><speed>10.75</speed><time>2016-06-21T16:44:31Z</time><pdop>4.0</pdop><geoidheight>54.00</geoidheight><course>343.7</course><type>1</type></trkpt>
      <trkpt lat="39.7077638" lon="-6.40151514"><ele>2531</ele><speed>9.50</speed><time>2016-06-21T16:44:33Z</time><pdop>3.0</pdop><geoidheight>54.00</geoidheight><course>348.6</course><type>1</type></trkpt>
      <trkpt lat="39.70784728" lon="-6.4015369"><ele>2531</ele><speed>9.50</speed><time>2016-06-21T16:44:34Z</time><pdop>5.0</pdop><geoidheight>54.00</geoidheight><course>348.6</course><type>1</type></trkpt>
      <trkpt lat="39.70793402" lon="-6.4015341"><ele>2529</ele><speed>9.50</speed><time>2016-06-21T16:44:35Z</time><pdop>3.0</pdop><geoidheight>54.00</geoidheight><course>356.8</course><type>1</type></trkpt>
      <trkpt lat="39.70802241" lon="-6.40154384"><ele>2528</ele><speed>10.00</speed><time>2016-06-21T16:44:36Z</time><pdop>3.0</pdop><geoidheight>54.00</geoidheight><course>357.7</course><type>1</type></trkpt>
      <trkpt lat="39.70820349" lon="-6.40155303"><ele>2527</ele><speed>10.00</speed><time>2016-06-21T16:44:38Z</time><pdop>3.0</pdop><geoidheight>54.00</geoidheight><course>356.9</course><type>1</type></trkpt>
      <trkpt lat="39.70838309" lon="-6.40155532"><ele>2525</ele><speed>10.00</speed><time>2016-06-21T16:44:40Z</time><pdop>3.0</pdop><geoidheight>54.00</geoidheight><course>359.6</course><type>1</type></trkpt>
      <trkpt lat="39.70847607" lon="-6.40155513"><ele>2525</ele><speed>10.25</speed><time>2016-06-21T16:44:41Z</time><pdop>3.0</pdop><geoidheight>54.00</geoidheight><course>359.8</course><type>1</type></trkpt>
      <trkpt lat="39.70865942" lon="-6.40157503"><ele>2523</ele><speed>10.25</speed><time>2016-06-21T16:44:43Z</time><pdop>4.0</pdop><geoidheight>54.00</geoidheight><course>354.1</course><type>1</type></trkpt>
      <trkpt lat="39.70875191" lon="-6.40158737"><ele>2522</ele><speed>10.25</speed><time>2016-06-21T16:44:44Z</time><pdop>5.0</pdop><geoidheight>54.00</geoidheight><course>354.1</course><type>1</type></trkpt>
      <trkpt lat="39.70884423" lon="-6.4016057"><ele>2521</ele><speed>10.25</speed><time>2016-06-21T16:44:45Z</time><pdop>5.0</pdop><geoidheight>54.00</geoidheight><course>352.3</course><type>1</type></trkpt>
      <trkpt lat="39.70902769" lon="-6.4016238"><ele>2519</ele><speed>10.00</speed><time>2016-06-21T16:44:47Z</time><pdop>3.0</pdop><geoidheight>54.00</geoidheight><course>357.6</course><type>1</type></trkpt>
      <trkpt lat="39.70911905" lon="-6.40162894"><ele>2516</ele><speed>10.00</speed><time>2016-06-21T16:44:48Z</time><pdop>3.0</pdop><geoidheight>54.00</geoidheight><course>358.4</course><type>1</type></trkpt>
      <trkpt lat="39.70921027" lon="-6.40163097"><ele>2515</ele><speed>10.25</speed><time>2016-06-21T16:44:49Z</time><pdop>3.0</pdop><geoidheight>54.00</geoidheight><course>357.9</course><type>1</type></trkpt>
      <trkpt lat="39.70930604" lon="-6.40163662"><ele>2513</ele><speed>10.50</speed><time>2016-06-21T16:44:50Z</time><pdop>3.0</pdop><geoidheight>54.00</geoidheight><course>357.2</course><type>1</type></trkpt>
      <trkpt lat="39.70949839" lon="-6.4016608"><ele>2509</ele><speed>10.75</speed><time>2016-06-21T16:44:52Z</time><pdop>3.0</pdop><geoidheight>54.00</geoidheight><course>354.3</course><type>1</type></trkpt>
      <trkpt lat="39.70959254" lon="-6.40167612"><ele>2507</ele><speed>10.50</speed><time>2016-06-21T16:44:53Z</time><pdop>3.0</pdop><geoidheight>54.00</geoidheight><course>353.5</course><type>1</type></trkpt>
      <trkpt lat="39.70967778" lon="-6.40168685"><ele>2504</ele><speed>9.50</speed><time>2016-06-21T16:44:54Z</time><pdop>3.0</pdop><geoidheight>54.00</geoidheight><course>354.0</course><type>1</type></trkpt>
      <trkpt lat="39.70975595" lon="-6.40169582"><ele>2502</ele><speed>8.75</speed><time>2016-06-21T16:44:55Z</time><pdop>3.0</pdop><geoidheight>54.00</geoidheight><course>354.4</course><type>1</type></trkpt>
      <trkpt lat="39.70992974" lon="-6.40172113"><ele>2496</ele><speed>10.00</speed><time>2016-06-21T16:44:57Z</time><pdop>3.0</pdop><geoidheight>54.00</geoidheight><course>354.0</course><type>1</type></trkpt>
      <trkpt lat="39.71002597" lon="-6.4017375"><ele>2494</ele><speed>10.75</speed><time>2016-06-21T16:44:58Z</time><pdop>3.0</pdop><geoidheight>54.00</geoidheight><course>353.6</course><type>1</type></trkpt>
      <trkpt lat="39.71030748" lon="-6.40177569"><ele>2491</ele><speed>10.25</speed><time>2016-06-21T16:45:01Z</time><pdop>3.0</pdop><geoidheight>54.00</geoidheight><course>354.5</course><type>1</type></trkpt>
      <trkpt lat="39.71062308" lon="-6.40185788"><ele>2485</ele><speed>8.50</speed><time>2016-06-21T16:45:05Z</time><pdop>3.0</pdop><geoidheight>54.00</geoidheight><course>347.4</course><type>1</type></trkpt>
      <trkpt lat="39.71070586" lon="-6.40187515"><ele>2482</ele><speed>9.25</speed><time>2016-06-21T16:45:06Z</time><pdop>3.0</pdop><geoidheight>54.00</geoidheight><course>350.7</course><type>1</type></trkpt>
      <trkpt lat="39.71079557" lon="-6.40188596"><ele>2479</ele><speed>9.75</speed><time>2016-06-21T16:45:07Z</time><pdop>3.0</pdop><geoidheight>54.00</geoidheight><course>355.6</course><type>1</type></trkpt>
      <trkpt lat="39.71098506" lon="-6.40188389"><ele>2475</ele><speed>10.50</speed><time>2016-06-21T16:45:09Z</time><pdop>3.0</pdop><geoidheight>54.00</geoidheight><course>2.0</course><type>1</type></trkpt>
      <trkpt lat="39.71107581" lon="-6.40188039"><ele>2474</ele><speed>10.25</speed><time>2016-06-21T16:45:10Z</time><pdop>3.0</pdop><geoidheight>54.00</geoidheight><course>1.5</course><type>1</type></trkpt>
      <trkpt lat="39.71116601" lon="-6.401878"><ele>2472</ele><speed>10.00</speed><time>2016-06-21T16:45:11Z</time><pdop>3.0</pdop><geoidheight>54.00</geoidheight><course>1.0</course><type>1</type></trkpt>
      <trkpt lat="39.71125666" lon="-6.40187723"><ele>2471</ele><speed>10.00</speed><time>2016-06-21T16:45:12Z</time><pdop>3.0</pdop><geoidheight>54.00</geoidheight><course>0.5</course><type>1</type></trkpt>
      <trkpt lat="39.71134739" lon="-6.40187602"><ele>2469</ele><speed>10.00</speed><time>2016-06-21T16:45:13Z</time><pdop>3.0</pdop><geoidheight>54.00</geoidheight><course>359.8</course><type>1</type></trkpt>
      <trkpt lat="39.71143672" lon="-6.40187162"><ele>2468</ele><speed>10.25</speed><time>2016-06-21T16:45:14Z</time><pdop>3.0</pdop><geoidheight>54.00</geoidheight><course>0.7</course><type>1</type></trkpt>
      <trkpt lat="39.7115287" lon="-6.40186461"><ele>2467</ele><speed>10.25</speed><time>2016-06-21T16:45:15Z</time><pdop>3.0</pdop><geoidheight>54.00</geoidheight><course>2.4</course><type>1</type></trkpt>
      <trkpt lat="39.71161789" lon="-6.40185584"><ele>2466</ele><speed>10.00</speed><time>2016-06-21T16:45:16Z</time><pdop>3.0</pdop><geoidheight>54.00</geoidheight><course>3.3</course><type>1</type></trkpt>
      <trkpt lat="39.71170648" lon="-6.40185288"><ele>2466</ele><speed>9.75</speed><time>2016-06-21T16:45:17Z</time><pdop>3.0</pdop><geoidheight>54.00</geoidheight><course>2.8</course><type>1</type></trkpt>
      <trkpt lat="39.71188593" lon="-6.4018452"><ele>2463</ele><speed>10.00</speed><time>2016-06-21T16:45:19Z</time><pdop>3.0</pdop><geoidheight>54.00</geoidheight><course>2.1</course><type>1</type></trkpt>
      <trkpt lat="39.712081069999996" lon="-6.40183442"><ele>2459</ele><speed>11.00</speed><time>2016-06-21T16:45:21Z</time><pdop>3.0</pdop><geoidheight>54.00</geoidheight><course>2.9</course><type>1</type></trkpt>
      <trkpt lat="39.71245755" lon="-6.40190189"><ele>2454</ele><speed>10.50</speed><time>2016-06-21T16:45:25Z</time><pdop>3.0</pdop><geoidheight>54.00</geoidheight><course>347.4</course><type>1</type></trkpt>
      <trkpt lat="39.71255634" lon="-6.40192771"><ele>2451</ele><speed>11.00</speed><time>2016-06-21T16:45:26Z</time><pdop>3.0</pdop><geoidheight>54.00</geoidheight><course>347.1</course><type>1</type></trkpt>
      <trkpt lat="39.71266006" lon="-6.40195241"><ele>2449</ele><speed>11.50</speed><time>2016-06-21T16:45:27Z</time><pdop>4.0</pdop><geoidheight>54.00</geoidheight><course>348.7</course><type>1</type></trkpt>
      <trkpt lat="39.71276709" lon="-6.40197739"><ele>2448</ele><speed>12.00</speed><time>2016-06-21T16:45:28Z</time><pdop>4.0</pdop><geoidheight>54.00</geoidheight><course>349.8</course><type>1</type></trkpt>
      <trkpt lat="39.71286691" lon="-6.40200417"><ele>2447</ele><speed>11.25</speed><time>2016-06-21T16:45:29Z</time><pdop>3.0</pdop><geoidheight>54.00</geoidheight><course>349.0</course><type>1</type></trkpt>
      <trkpt lat="39.71295859" lon="-6.40202916"><ele>2445</ele><speed>10.75</speed><time>2016-06-21T16:45:30Z</time><pdop>3.0</pdop><geoidheight>54.00</geoidheight><course>348.5</course><type>1</type></trkpt>
      <trkpt lat="39.71305571" lon="-6.40205476"><ele>2445</ele><speed>10.75</speed><time>2016-06-21T16:45:31Z</time><pdop>4.0</pdop><geoidheight>54.00</geoidheight><course>348.5</course><type>1</type></trkpt>
      <trkpt lat="39.71315502" lon="-6.40207808"><ele>2443</ele><speed>11.00</speed><time>2016-06-21T16:45:32Z</time><pdop>4.0</pdop><geoidheight>54.00</geoidheight><course>348.6</course><type>1</type></trkpt>
      <trkpt lat="39.71334825" lon="-6.40212101"><ele>2441</ele><speed>11.00</speed><time>2016-06-21T16:45:34Z</time><pdop>3.0</pdop><geoidheight>54.00</geoidheight><course>350.9</course><type>1</type></trkpt>
      <trkpt lat="39.71344656" lon="-6.40213541"><ele>2440</ele><speed>10.75</speed><time>2016-06-21T16:45:35Z</time><pdop>4.0</pdop><geoidheight>54.00</geoidheight><course>352.1</course><type>1</type></trkpt>
      <trkpt lat="39.71354463" lon="-6.40215132"><ele>2439</ele><speed>10.75</speed><time>2016-06-21T16:45:36Z</time><pdop>4.0</pdop><geoidheight>54.00</geoidheight><course>352.6</course><type>1</type></trkpt>
      <trkpt lat="39.71363638" lon="-6.40216673"><ele>2439</ele><speed>10.50</speed><time>2016-06-21T16:45:37Z</time><pdop>4.0</pdop><geoidheight>54.00</geoidheight><course>352.3</course><type>1</type></trkpt>
      <trkpt lat="39.71372893" lon="-6.40218696"><ele>2438</ele><speed>10.50</speed><time>2016-06-21T16:45:38Z</time><pdop>3.0</pdop><geoidheight>54.00</geoidheight><course>351.5</course><type>1</type></trkpt>
      <trkpt lat="39.71382467" lon="-6.40220374"><ele>2437</ele><speed>10.50</speed><time>2016-06-21T16:45:39Z</time><pdop>3.0</pdop><geoidheight>54.00</geoidheight><course>351.0</course><type>1</type></trkpt>
      <trkpt lat="39.71392003" lon="-6.40221702"><ele>2436</ele><speed>10.50</speed><time>2016-06-21T16:45:40Z</time><pdop>3.0</pdop><geoidheight>54.00</geoidheight><course>353.1</course><type>1</type></trkpt>
      <trkpt lat="39.71401187" lon="-6.40222203"><ele>2435</ele><speed>10.75</speed><time>2016-06-21T16:45:41Z</time><pdop>3.0</pdop><geoidheight>54.00</geoidheight><course>358.2</course><type>1</type></trkpt>
      <trkpt lat="39.71410922" lon="-6.40221627"><ele>2434</ele><speed>11.00</speed><time>2016-06-21T16:45:42Z</time><pdop>3.0</pdop><geoidheight>54.00</geoidheight><course>1.8</course><type>1</type></trkpt>
      <trkpt lat="39.71420515" lon="-6.40221292"><ele>2434</ele><speed>10.75</speed><time>2016-06-21T16:45:43Z</time><pdop>3.0</pdop><geoidheight>54.00</geoidheight><course>1.2</course><type>1</type></trkpt>
      <trkpt lat="39.71429832" lon="-6.40221752"><ele>2434</ele><speed>10.50</speed><time>2016-06-21T16:45:44Z</time><pdop>3.0</pdop><geoidheight>54.00</geoidheight><course>357.0</course><type>1</type></trkpt>
      <trkpt lat="39.71438701" lon="-6.4022343"><ele>2433</ele><speed>10.00</speed><time>2016-06-21T16:45:45Z</time><pdop>3.0</pdop><geoidheight>54.00</geoidheight><course>353.2</course><type>1</type></trkpt>
      <trkpt lat="39.71447218" lon="-6.40224883"><ele>2432</ele><speed>9.50</speed><time>2016-06-21T16:45:46Z</time><pdop>3.0</pdop><geoidheight>54.00</geoidheight><course>353.4</course><type>1</type></trkpt>
      <trkpt lat="39.7145492" lon="-6.40225297"><ele>2429</ele><speed>9.25</speed><time>2016-06-21T16:45:47Z</time><pdop>3.0</pdop><geoidheight>54.00</geoidheight><course>356.9</course><type>1</type></trkpt>
      <trkpt lat="39.71463696" lon="-6.4022535"><ele>2426</ele><speed>9.75</speed><time>2016-06-21T16:45:48Z</time><pdop>3.0</pdop><geoidheight>54.00</geoidheight><course>0.2</course><type>1</type></trkpt>
      <trkpt lat="39.71473611" lon="-6.40225404"><ele>2422</ele><speed>10.75</speed><time>2016-06-21T16:45:49Z</time><pdop>3.0</pdop><geoidheight>54.00</geoidheight><course>0.4</course><type>1</type></trkpt>
      <trkpt lat="39.71484031" lon="-6.40225515"><ele>2431</ele><speed>11.50</speed><time>2016-06-21T16:45:50Z</time><pdop>3.0</pdop><geoidheight>54.00</geoidheight><course>358.7</course><type>1</type></trkpt>
      <trkpt lat="39.71494628" lon="-6.40225606"><ele>2427</ele><speed>11.50</speed><time>2016-06-21T16:45:51Z</time><pdop>3.0</pdop><geoidheight>54.00</geoidheight><course>0.1</course><type>1</type></trkpt>
      <trkpt lat="39.71504063" lon="-6.40224594"><ele>2425</ele><speed>10.50</speed><time>2016-06-21T16:45:52Z</time><pdop>3.0</pdop><geoidheight>54.00</geoidheight><course>4.7</course><type>1</type></trkpt>
      <trkpt lat="39.71512512" lon="-6.40222854"><ele>2424</ele><speed>9.50</speed><time>2016-06-21T16:45:53Z</time><pdop>3.0</pdop><geoidheight>54.00</geoidheight><course>8.5</course><type>1</type></trkpt>
      <trkpt lat="39.7152049" lon="-6.4022194"><ele>2423</ele><speed>9.25</speed><time>2016-06-21T16:45:54Z</time><pdop>3.0</pdop><geoidheight>54.00</geoidheight><course>5.7</course><type>1</type></trkpt>
      <trkpt lat="39.71529676" lon="-6.4022245"><ele>2421</ele><speed>10.00</speed><time>2016-06-21T16:45:55Z</time><pdop>3.0</pdop><geoidheight>54.00</geoidheight><course>358.8</course><type>1</type></trkpt>
      <trkpt lat="39.71539902" lon="-6.40223938"><ele>2420</ele><speed>11.25</speed><time>2016-06-21T16:45:56Z</time><pdop>4.0</pdop><geoidheight>54.00</geoidheight><course>353.3</course><type>1</type></trkpt>
      <trkpt lat="39.71550653" lon="-6.40225923"><ele>2420</ele><speed>11.75</speed><time>2016-06-21T16:45:57Z</time><pdop>4.0</pdop><geoidheight>54.00</geoidheight><course>351.5</course><type>1</type></trkpt>
      <trkpt lat="39.71560418" lon="-6.40227679"><ele>2420</ele><speed>11.25</speed><time>2016-06-21T16:45:58Z</time><pdop>4.0</pdop><geoidheight>54.00</geoidheight><course>352.9</course><type>1</type></trkpt>
      <trkpt lat="39.71569492" lon="-6.40228191"><ele>2421</ele><speed>10.25</speed><time>2016-06-21T16:45:59Z</time><pdop>3.0</pdop><geoidheight>54.00</geoidheight><course>357.1</course><type>1</type></trkpt>
      <trkpt lat="39.71578286" lon="-6.40227999"><ele>2423</ele><speed>9.75</speed><time>2016-06-21T16:46:00Z</time><pdop>3.0</pdop><geoidheight>54.00</geoidheight><course>359.5</course><type>1</type></trkpt>
      <trkpt lat="39.71586998" lon="-6.40228737"><ele>2422</ele><speed>9.75</speed><time>2016-06-21T16:46:01Z</time><pdop>3.0</pdop><geoidheight>54.00</geoidheight><course>358.4</course><type>1</type></trkpt>
      <trkpt lat="39.71605402" lon="-6.40230715"><ele>2420</ele><speed>10.50</speed><time>2016-06-21T16:46:03Z</time><pdop>3.0</pdop><geoidheight>54.00</geoidheight><course>354.3</course><type>1</type></trkpt>
      <trkpt lat="39.71614882" lon="-6.40231567"><ele>2420</ele><speed>10.50</speed><time>2016-06-21T16:46:04Z</time><pdop>4.0</pdop><geoidheight>54.00</geoidheight><course>355.4</course><type>1</type></trkpt>
      <trkpt lat="39.71623944" lon="-6.40232431"><ele>2420</ele><speed>10.25</speed><time>2016-06-21T16:46:05Z</time><pdop>4.0</pdop><geoidheight>54.00</geoidheight><course>356.1</course><type>1</type></trkpt>
      <trkpt lat="39.71633433" lon="-6.40233684"><ele>2419</ele><speed>10.50</speed><time>2016-06-21T16:46:06Z</time><pdop>3.0</pdop><geoidheight>54.00</geoidheight><course>354.4</course><type>1</type></trkpt>
      <trkpt lat="39.71643619" lon="-6.40235409"><ele>2419</ele><speed>11.50</speed><time>2016-06-21T16:46:07Z</time><pdop>4.0</pdop><geoidheight>54.00</geoidheight><course>352.8</course><type>1</type></trkpt>
      <trkpt lat="39.71654298" lon="-6.40237624"><ele>2418</ele><speed>12.00</speed><time>2016-06-21T16:46:08Z</time><pdop>4.0</pdop><geoidheight>54.00</geoidheight><course>351.7</course><type>1</type></trkpt>
      <trkpt lat="39.71664317" lon="-6.40239465"><ele>2419</ele><speed>11.50</speed><time>2016-06-21T16:46:09Z</time><pdop>4.0</pdop><geoidheight>54.00</geoidheight><course>352.1</course><type>1</type></trkpt>
      <trkpt lat="39.71674317" lon="-6.40240912"><ele>2421</ele><speed>11.00</speed><time>2016-06-21T16:46:10Z</time><pdop>3.0</pdop><geoidheight>54.00</geoidheight><course>353.5</course><type>1</type></trkpt>
      <trkpt lat="39.71683556" lon="-6.40242374"><ele>2422</ele><speed>10.00</speed><time>2016-06-21T16:46:11Z</time><pdop>3.0</pdop><geoidheight>54.00</geoidheight><course>353.9</course><type>1</type></trkpt>
      <trkpt lat="39.71701596" lon="-6.40246201"><ele>2421</ele><speed>10.75</speed><time>2016-06-21T16:46:13Z</time><pdop>3.0</pdop><geoidheight>54.00</geoidheight><course>349.2</course><type>1</type></trkpt>
      <trkpt lat="39.71722364" lon="-6.40251057"><ele>2421</ele><speed>12.00</speed><time>2016-06-21T16:46:15Z</time><pdop>3.0</pdop><geoidheight>54.00</geoidheight><course>349.2</course><type>1</type></trkpt>
      <trkpt lat="39.71732432" lon="-6.40253788"><ele>2421</ele><speed>12.00</speed><time>2016-06-21T16:46:16Z</time><pdop>3.0</pdop><geoidheight>54.00</geoidheight><course>348.7</course><type>1</type></trkpt>
      <trkpt lat="39.71742489" lon="-6.40257032"><ele>2422</ele><speed>11.50</speed><time>2016-06-21T16:46:17Z</time><pdop>3.0</pdop><geoidheight>54.00</geoidheight><course>346.5</course><type>1</type></trkpt>
      <trkpt lat="39.71751574" lon="-6.40260655"><ele>2422</ele><speed>10.50</speed><time>2016-06-21T16:46:18Z</time><pdop>3.0</pdop><geoidheight>54.00</geoidheight><course>344.2</course><type>1</type></trkpt>
      <trkpt lat="39.71770346" lon="-6.40266803"><ele>2419</ele><speed>11.25</speed><time>2016-06-21T16:46:20Z</time><pdop>3.0</pdop><geoidheight>54.00</geoidheight><course>346.6</course><type>1</type></trkpt>
      <trkpt lat="39.71781092" lon="-6.40269697"><ele>2418</ele><speed>12.25</speed><time>2016-06-21T16:46:21Z</time><pdop>3.0</pdop><geoidheight>54.00</geoidheight><course>348.0</course><type>1</type></trkpt>
      <trkpt lat="39.71802496" lon="-6.40276667"><ele>2419</ele><speed>12.00</speed><time>2016-06-21T16:46:23Z</time><pdop>3.0</pdop><geoidheight>54.00</geoidheight><course>345.1</course><type>1</type></trkpt>
      <trkpt lat="39.71811982" lon="-6.40279907"><ele>2420</ele><speed>11.25</speed><time>2016-06-21T16:46:24Z</time><pdop>3.0</pdop><geoidheight>54.00</geoidheight><course>344.7</course><type>1</type></trkpt>
      <trkpt lat="39.71831922" lon="-6.40284332"><ele>2419</ele><speed>11.50</speed><time>2016-06-21T16:46:26Z</time><pdop>3.0</pdop><geoidheight>54.00</geoidheight><course>351.9</course><type>1</type></trkpt>
      <trkpt lat="39.71842927" lon="-6.40285947"><ele>2418</ele><speed>12.50</speed><time>2016-06-21T16:46:27Z</time><pdop>3.0</pdop><geoidheight>54.00</geoidheight><course>352.9</course><type>1</type></trkpt>
      <trkpt lat="39.71853996" lon="-6.40288661"><ele>2419</ele><speed>12.75</speed><time>2016-06-21T16:46:28Z</time><pdop>3.0</pdop><geoidheight>54.00</geoidheight><course>349.8</course><type>1</type></trkpt>
      <trkpt lat="39.71875061" lon="-6.40296059"><ele>2420</ele><speed>11.75</speed><time>2016-06-21T16:46:30Z</time><pdop>3.0</pdop><geoidheight>54.00</geoidheight><course>343.6</course><type>1</type></trkpt>
      <trkpt lat="39.71885095" lon="-6.40299395"><ele>2420</ele><speed>11.50</speed><time>2016-06-21T16:46:31Z</time><pdop>3.0</pdop><geoidheight>54.00</geoidheight><course>345.0</course><type>1</type></trkpt>
      <trkpt lat="39.71895951" lon="-6.40302154"><ele>2421</ele><speed>12.00</speed><time>2016-06-21T16:46:32Z</time><pdop>4.0</pdop><geoidheight>54.00</geoidheight><course>348.6</course><type>1</type></trkpt>
      <trkpt lat="39.71907358" lon="-6.40304397"><ele>2420</ele><speed>12.75</speed><time>2016-06-21T16:46:33Z</time><pdop>3.0</pdop><geoidheight>54.00</geoidheight><course>351.0</course><type>1</type></trkpt>
      <trkpt lat="39.71930228" lon="-6.40309702"><ele>2421</ele><speed>12.75</speed><time>2016-06-21T16:46:35Z</time><pdop>3.0</pdop><geoidheight>54.00</geoidheight><course>350.0</course><type>1</type></trkpt>
      <trkpt lat="39.71940739" lon="-6.40312495"><ele>2421</ele><speed>12.25</speed><time>2016-06-21T16:46:36Z</time><pdop>3.0</pdop><geoidheight>54.00</geoidheight><course>347.8</course><type>1</type></trkpt>
      <trkpt lat="39.71951407" lon="-6.4031597"><ele>2421</ele><speed>12.00</speed><time>2016-06-21T16:46:37Z</time><pdop>3.0</pdop><geoidheight>54.00</geoidheight><course>346.7</course><type>1</type></trkpt>
      <trkpt lat="39.7196167" lon="-6.40319175"><ele>2421</ele><speed>12.00</speed><time>2016-06-21T16:46:38Z</time><pdop>3.0</pdop><geoidheight>54.00</geoidheight><course>346.4</course><type>1</type></trkpt>
      <trkpt lat="39.71972146" lon="-6.40322454"><ele>2422</ele><speed>12.00</speed><time>2016-06-21T16:46:39Z</time><pdop>5.0</pdop><geoidheight>54.00</geoidheight><course>346.4</course><type>1</type></trkpt>
      <trkpt lat="39.71993527" lon="-6.40328076"><ele>2421</ele><speed>12.25</speed><time>2016-06-21T16:46:41Z</time><pdop>3.0</pdop><geoidheight>54.00</geoidheight><course>349.8</course><type>1</type></trkpt>
      <trkpt lat="39.72004599" lon="-6.40330371"><ele>2422</ele><speed>12.25</speed><time>2016-06-21T16:46:42Z</time><pdop>3.0</pdop><geoidheight>54.00</geoidheight><course>350.1</course><type>1</type></trkpt>
      <trkpt lat="39.7202619" lon="-6.40335848"><ele>2422</ele><speed>12.25</speed><time>2016-06-21T16:46:44Z</time><pdop>3.0</pdop><geoidheight>54.00</geoidheight><course>349.0</course><type>1</type></trkpt>
      <trkpt lat="39.72048826" lon="-6.40341938"><ele>2422</ele><speed>13.00</speed><time>2016-06-21T16:46:46Z</time><pdop>3.0</pdop><geoidheight>54.00</geoidheight><course>349.1</course><type>1</type></trkpt>
      <trkpt lat="39.72060367" lon="-6.40343907"><ele>2422</ele><speed>13.00</speed><time>2016-06-21T16:46:47Z</time><pdop>3.0</pdop><geoidheight>54.00</geoidheight><course>351.9</course><type>1</type></trkpt>
      <trkpt lat="39.72082327" lon="-6.40346996"><ele>2424</ele><speed>12.25</speed><time>2016-06-21T16:46:49Z</time><pdop>3.0</pdop><geoidheight>54.00</geoidheight><course>352.1</course><type>1</type></trkpt>
      <trkpt lat="39.72104914" lon="-6.40354645"><ele>2424</ele><speed>13.00</speed><time>2016-06-21T16:46:51Z</time><pdop>4.0</pdop><geoidheight>54.00</geoidheight><course>343.9</course><type>1</type></trkpt>
      <trkpt lat="39.72151506" lon="-6.40362047"><ele>2425</ele><speed>12.50</speed><time>2016-06-21T16:46:55Z</time><pdop>3.0</pdop><geoidheight>54.00</geoidheight><course>356.9</course><type>1</type></trkpt>
      <trkpt lat="39.72163174" lon="-6.40363916"><ele>2426</ele><speed>12.75</speed><time>2016-06-21T16:46:56Z</time><pdop>3.0</pdop><geoidheight>54.00</geoidheight><course>353.3</course><type>1</type></trkpt>
      <trkpt lat="39.7218727" lon="-6.40370827"><ele>2426</ele><speed>13.75</speed><time>2016-06-21T16:46:58Z</time><pdop>4.0</pdop><geoidheight>54.00</geoidheight><course>347.6</course><type>1</type></trkpt>
      <trkpt lat="39.72200079" lon="-6.40375044"><ele>2427</ele><speed>14.25</speed><time>2016-06-21T16:46:59Z</time><pdop>4.0</pdop><geoidheight>54.00</geoidheight><course>345.5</course><type>1</type></trkpt>
      <trkpt lat="39.72213817" lon="-6.4037931"><ele>2428</ele><speed>15.50</speed><time>2016-06-21T16:47:00Z</time><pdop>5.0</pdop><geoidheight>54.00</geoidheight><course>344.4</course><type>1</type></trkpt>
      <trkpt lat="39.7222846" lon="-6.40378318"><ele>2428</ele><speed>16.00</speed><time>2016-06-21T16:47:01Z</time><pdop>5.0</pdop><geoidheight>54.00</geoidheight><course>354.0</course><type>1</type></trkpt>
      <trkpt lat="39.72243682" lon="-6.40381703"><ele>2429</ele><speed>11.75</speed><time>2016-06-21T16:47:03Z</time><pdop>3.0</pdop><geoidheight>54.00</geoidheight><course>351.0</course><type>1</type></trkpt>
      <trkpt lat="39.72254201" lon="-6.40383498"><ele>2429</ele><speed>12.25</speed><time>2016-06-21T16:47:04Z</time><pdop>3.0</pdop><geoidheight>54.00</geoidheight><course>352.3</course><type>1</type></trkpt>
      <trkpt lat="39.72265769" lon="-6.40385683"><ele>2429</ele><speed>13.00</speed><time>2016-06-21T16:47:05Z</time><pdop>3.0</pdop><geoidheight>54.00</geoidheight><course>354.3</course><type>1</type></trkpt>
      <trkpt lat="39.7227697" lon="-6.403866"><ele>2430</ele><speed>12.50</speed><time>2016-06-21T16:47:06Z</time><pdop>3.0</pdop><geoidheight>54.00</geoidheight><course>355.9</course><type>1</type></trkpt>
      <trkpt lat="39.72287217" lon="-6.40387371"><ele>2431</ele><speed>11.75</speed><time>2016-06-21T16:47:07Z</time><pdop>3.0</pdop><geoidheight>54.00</geoidheight><course>355.9</course><type>1</type></trkpt>
      <trkpt lat="39.7230756" lon="-6.40389212"><ele>2431</ele><speed>11.25</speed><time>2016-06-21T16:47:09Z</time><pdop>3.0</pdop><geoidheight>54.00</geoidheight><course>356.5</course><type>1</type></trkpt>
      <trkpt lat="39.72318391" lon="-6.40389502"><ele>2431</ele><speed>11.75</speed><time>2016-06-21T16:47:10Z</time><pdop>3.0</pdop><geoidheight>54.00</geoidheight><course>359.3</course><type>1</type></trkpt>
      <trkpt lat="39.72329641" lon="-6.40388614"><ele>2431</ele><speed>12.00</speed><time>2016-06-21T16:47:11Z</time><pdop>3.0</pdop><geoidheight>54.00</geoidheight><course>3.1</course><type>1</type></trkpt>
      <trkpt lat="39.72340098" lon="-6.40387191"><ele>2431</ele><speed>11.75</speed><time>2016-06-21T16:47:12Z</time><pdop>3.0</pdop><geoidheight>54.00</geoidheight><course>5.7</course><type>1</type></trkpt>
      <trkpt lat="39.72350327" lon="-6.40386162"><ele>2432</ele><speed>11.25</speed><time>2016-06-21T16:47:13Z</time><pdop>3.0</pdop><geoidheight>54.00</geoidheight><course>4.7</course><type>1</type></trkpt>
      <trkpt lat="39.72360017" lon="-6.40386106"><ele>2433</ele><speed>11.00</speed><time>2016-06-21T16:47:14Z</time><pdop>3.0</pdop><geoidheight>54.00</geoidheight><course>1.7</course><type>1</type></trkpt>
      <trkpt lat="39.72369816" lon="-6.40386106"><ele>2433</ele><speed>11.25</speed><time>2016-06-21T16:47:15Z</time><pdop>3.0</pdop><geoidheight>54.00</geoidheight><course>0.4</course><type>1</type></trkpt>
      <trkpt lat="39.72380264" lon="-6.40385849"><ele>2433</ele><speed>11.50</speed><time>2016-06-21T16:47:16Z</time><pdop>3.0</pdop><geoidheight>54.00</geoidheight><course>0.7</course><type>1</type></trkpt>
      <trkpt lat="39.72390597" lon="-6.40385631"><ele>2433</ele><speed>11.25</speed><time>2016-06-21T16:47:17Z</time><pdop>3.0</pdop><geoidheight>54.00</geoidheight><course>1.1</course><type>1</type></trkpt>
      <trkpt lat="39.7240051" lon="-6.40385295"><ele>2434</ele><speed>10.75</speed><time>2016-06-21T16:47:18Z</time><pdop>3.0</pdop><geoidheight>54.00</geoidheight><course>0.2</course><type>1</type></trkpt>
      <trkpt lat="39.72410426" lon="-6.4038526"><ele>2435</ele><speed>10.75</speed><time>2016-06-21T16:47:19Z</time><pdop>3.0</pdop><geoidheight>54.00</geoidheight><course>359.6</course><type>1</type></trkpt>
      <trkpt lat="39.72420202" lon="-6.40385248"><ele>2435</ele><speed>11.00</speed><time>2016-06-21T16:47:20Z</time><pdop>3.0</pdop><geoidheight>54.00</geoidheight><course>0.5</course><type>1</type></trkpt>
      <trkpt lat="39.72429904" lon="-6.40385186"><ele>2436</ele><speed>11.00</speed><time>2016-06-21T16:47:21Z</time><pdop>3.0</pdop><geoidheight>54.00</geoidheight><course>2.3</course><type>1</type></trkpt>
      <trkpt lat="39.72439562" lon="-6.40384008"><ele>2436</ele><speed>10.75</speed><time>2016-06-21T16:47:22Z</time><pdop>3.0</pdop><geoidheight>54.00</geoidheight><course>4.2</course><type>1</type></trkpt>
      <trkpt lat="39.724489319999996" lon="-6.40383136"><ele>2436</ele><speed>11.00</speed><time>2016-06-21T16:47:23Z</time><pdop>3.0</pdop><geoidheight>54.00</geoidheight><course>4.4</course><type>1</type></trkpt>
      <trkpt lat="39.72459508" lon="-6.40381976"><ele>2436</ele><speed>11.50</speed><time>2016-06-21T16:47:24Z</time><pdop>3.0</pdop><geoidheight>54.00</geoidheight><course>3.8</course><type>1</type></trkpt>
      <trkpt lat="39.72470254" lon="-6.40380996"><ele>2437</ele><speed>12.00</speed><time>2016-06-21T16:47:25Z</time><pdop>3.0</pdop><geoidheight>54.00</geoidheight><course>4.2</course><type>1</type></trkpt>
      <trkpt lat="39.72480978" lon="-6.40379513"><ele>2438</ele><speed>11.75</speed><time>2016-06-21T16:47:26Z</time><pdop>3.0</pdop><geoidheight>54.00</geoidheight><course>5.2</course><type>1</type></trkpt>
      <trkpt lat="39.72491049" lon="-6.40378408"><ele>2439</ele><speed>11.25</speed><time>2016-06-21T16:47:27Z</time><pdop>3.0</pdop><geoidheight>54.00</geoidheight><course>5.9</course><type>1</type></trkpt>
      <trkpt lat="39.72500808" lon="-6.40376909"><ele>2441</ele><speed>11.00</speed><time>2016-06-21T16:47:28Z</time><pdop>3.0</pdop><geoidheight>54.00</geoidheight><course>6.3</course><type>1</type></trkpt>
      <trkpt lat="39.72510965" lon="-6.4037557"><ele>2442</ele><speed>11.00</speed><time>2016-06-21T16:47:29Z</time><pdop>3.0</pdop><geoidheight>54.00</geoidheight><course>5.3</course><type>1</type></trkpt>
      <trkpt lat="39.7252107" lon="-6.4037495"><ele>2443</ele><speed>11.25</speed><time>2016-06-21T16:47:30Z</time><pdop>3.0</pdop><geoidheight>54.00</geoidheight><course>3.0</course><type>1</type></trkpt>
      <trkpt lat="39.72531272" lon="-6.4037457"><ele>2444</ele><speed>11.25</speed><time>2016-06-21T16:47:31Z</time><pdop>3.0</pdop><geoidheight>54.00</geoidheight><course>1.3</course><type>1</type></trkpt>
      <trkpt lat="39.72541722" lon="-6.40374042"><ele>2445</ele><speed>11.50</speed><time>2016-06-21T16:47:32Z</time><pdop>3.0</pdop><geoidheight>54.00</geoidheight><course>1.5</course><type>1</type></trkpt>
      <trkpt lat="39.72552335" lon="-6.40372837"><ele>2446</ele><speed>12.00</speed><time>2016-06-21T16:47:33Z</time><pdop>3.0</pdop><geoidheight>54.00</geoidheight><course>3.9</course><type>1</type></trkpt>
      <trkpt lat="39.72563338" lon="-6.403713"><ele>2447</ele><speed>12.25</speed><time>2016-06-21T16:47:34Z</time><pdop>3.0</pdop><geoidheight>54.00</geoidheight><course>6.0</course><type>1</type></trkpt>
      <trkpt lat="39.72573847" lon="-6.4036982"><ele>2449</ele><speed>11.75</speed><time>2016-06-21T16:47:35Z</time><pdop>3.0</pdop><geoidheight>54.00</geoidheight><course>5.6</course><type>1</type></trkpt>
      <trkpt lat="39.72583911" lon="-6.40369846"><ele>2450</ele><speed>11.25</speed><time>2016-06-21T16:47:36Z</time><pdop>3.0</pdop><geoidheight>54.00</geoidheight><course>0.9</course><type>1</type></trkpt>
      <trkpt lat="39.7259417" lon="-6.40371442"><ele>2451</ele><speed>11.25</speed><time>2016-06-21T16:47:37Z</time><pdop>3.0</pdop><geoidheight>54.00</geoidheight><course>355.7</course><type>1</type></trkpt>
      <trkpt lat="39.72604442" lon="-6.40372508"><ele>2451</ele><speed>11.75</speed><time>2016-06-21T16:47:38Z</time><pdop>3.0</pdop><geoidheight>54.00</geoidheight><course>354.6</course><type>1</type></trkpt>
      <trkpt lat="39.72615261" lon="-6.40373119"><ele>2451</ele><speed>12.00</speed><time>2016-06-21T16:47:39Z</time><pdop>3.0</pdop><geoidheight>54.00</geoidheight><course>357.6</course><type>1</type></trkpt>
      <trkpt lat="39.72626365" lon="-6.40371918"><ele>2451</ele><speed>12.25</speed><time>2016-06-21T16:47:40Z</time><pdop>3.0</pdop><geoidheight>54.00</geoidheight><course>2.7</course><type>1</type></trkpt>
      <trkpt lat="39.72637736" lon="-6.40369948"><ele>2451</ele><speed>12.75</speed><time>2016-06-21T16:47:41Z</time><pdop>3.0</pdop><geoidheight>54.00</geoidheight><course>7.2</course><type>1</type></trkpt>
      <trkpt lat="39.72649484" lon="-6.40367341"><ele>2452</ele><speed>13.25</speed><time>2016-06-21T16:47:42Z</time><pdop>3.0</pdop><geoidheight>54.00</geoidheight><course>9.2</course><type>1</type></trkpt>
      <trkpt lat="39.72661531" lon="-6.40364746"><ele>2453</ele><speed>13.50</speed><time>2016-06-21T16:47:43Z</time><pdop>3.0</pdop><geoidheight>54.00</geoidheight><course>9.2</course><type>1</type></trkpt>
      <trkpt lat="39.72694317" lon="-6.40358548"><ele>2460</ele><speed>11.75</speed><time>2016-06-21T16:47:46Z</time><pdop>3.0</pdop><geoidheight>54.00</geoidheight><course>6.3</course><type>1</type></trkpt>
      <trkpt lat="39.72704874" lon="-6.40356979"><ele>2461</ele><speed>12.00</speed><time>2016-06-21T16:47:47Z</time><pdop>3.0</pdop><geoidheight>54.00</geoidheight><course>5.2</course><type>1</type></trkpt>
      <trkpt lat="39.72715706" lon="-6.40355578"><ele>2462</ele><speed>12.00</speed><time>2016-06-21T16:47:48Z</time><pdop>3.0</pdop><geoidheight>54.00</geoidheight><course>5.5</course><type>1</type></trkpt>
      <trkpt lat="39.72726528" lon="-6.40354214"><ele>2463</ele><speed>12.00</speed><time>2016-06-21T16:47:49Z</time><pdop>3.0</pdop><geoidheight>54.00</geoidheight><course>5.4</course><type>1</type></trkpt>
      <trkpt lat="39.72737614" lon="-6.40353343"><ele>2464</ele><speed>12.25</speed><time>2016-06-21T16:47:50Z</time><pdop>3.0</pdop><geoidheight>54.00</geoidheight><course>4.6</course><type>1</type></trkpt>
      <trkpt lat="39.72749054" lon="-6.40352534"><ele>2464</ele><speed>12.75</speed><time>2016-06-21T16:47:51Z</time><pdop>3.0</pdop><geoidheight>54.00</geoidheight><course>3.4</course><type>1</type></trkpt>
      <trkpt lat="39.72760785" lon="-6.40352111"><ele>2464</ele><speed>13.00</speed><time>2016-06-21T16:47:52Z</time><pdop>3.0</pdop><geoidheight>54.00</geoidheight><course>1.8</course><type>1</type></trkpt>
      <trkpt lat="39.72784477" lon="-6.40352614"><ele>2465</ele><speed>13.00</speed><time>2016-06-21T16:47:54Z</time><pdop>3.0</pdop><geoidheight>54.00</geoidheight><course>358.4</course><type>1</type></trkpt>
      <trkpt lat="39.72796186" lon="-6.40352615"><ele>2466</ele><speed>13.00</speed><time>2016-06-21T16:47:55Z</time><pdop>3.0</pdop><geoidheight>54.00</geoidheight><course>358.9</course><type>1</type></trkpt>
      <trkpt lat="39.72818564" lon="-6.40350983"><ele>2455</ele><speed>12.00</speed><time>2016-06-21T16:47:57Z</time><pdop>4.0</pdop><geoidheight>54.00</geoidheight><course>4.8</course><type>1</type></trkpt>
      <trkpt lat="39.72829983" lon="-6.40348151"><ele>2461</ele><speed>12.50</speed><time>2016-06-21T16:47:58Z</time><pdop>3.0</pdop><geoidheight>54.00</geoidheight><course>10.2</course><type>1</type></trkpt>
      <trkpt lat="39.72841761" lon="-6.40346081"><ele>2466</ele><speed>12.75</speed><time>2016-06-21T16:47:59Z</time><pdop>3.0</pdop><geoidheight>54.00</geoidheight><course>8.7</course><type>1</type></trkpt>
      <trkpt lat="39.72853821" lon="-6.40344597"><ele>2469</ele><speed>13.25</speed><time>2016-06-21T16:48:00Z</time><pdop>3.0</pdop><geoidheight>54.00</geoidheight><course>5.4</course><type>1</type></trkpt>
      <trkpt lat="39.72865685" lon="-6.40343706"><ele>2471</ele><speed>13.00</speed><time>2016-06-21T16:48:01Z</time><pdop>3.0</pdop><geoidheight>54.00</geoidheight><course>3.5</course><type>1</type></trkpt>
      <trkpt lat="39.72887992" lon="-6.403426"><ele>2476</ele><speed>12.25</speed><time>2016-06-21T16:48:03Z</time><pdop>3.0</pdop><geoidheight>54.00</geoidheight><course>1.8</course><type>1</type></trkpt>
      <trkpt lat="39.72898909" lon="-6.40342161"><ele>2477</ele><speed>12.25</speed><time>2016-06-21T16:48:04Z</time><pdop>5.0</pdop><geoidheight>54.00</geoidheight><course>1.8</course><type>1</type></trkpt>
      <trkpt lat="39.72909005" lon="-6.40343545"><ele>2477</ele><speed>11.50</speed><time>2016-06-21T16:48:05Z</time><pdop>3.0</pdop><geoidheight>54.00</geoidheight><course>358.3</course><type>1</type></trkpt>
      <trkpt lat="39.72919384" lon="-6.4034403"><ele>2477</ele><speed>11.50</speed><time>2016-06-21T16:48:06Z</time><pdop>3.0</pdop><geoidheight>54.00</geoidheight><course>358.2</course><type>1</type></trkpt>
      <trkpt lat="39.72929943" lon="-6.40344446"><ele>2476</ele><speed>11.75</speed><time>2016-06-21T16:48:07Z</time><pdop>3.0</pdop><geoidheight>54.00</geoidheight><course>358.6</course><type>1</type></trkpt>
      <trkpt lat="39.72940805" lon="-6.4034578"><ele>2476</ele><speed>12.00</speed><time>2016-06-21T16:48:08Z</time><pdop>3.0</pdop><geoidheight>54.00</geoidheight><course>355.4</course><type>1</type></trkpt>
      <trkpt lat="39.72952331" lon="-6.40348309"><ele>2476</ele><speed>12.75</speed><time>2016-06-21T16:48:09Z</time><pdop>3.0</pdop><geoidheight>54.00</geoidheight><course>351.0</course><type>1</type></trkpt>
      <trkpt lat="39.72964464" lon="-6.40351812"><ele>2476</ele><speed>13.50</speed><time>2016-06-21T16:48:10Z</time><pdop>3.0</pdop><geoidheight>54.00</geoidheight><course>348.0</course><type>1</type></trkpt>
      <trkpt lat="39.72976349" lon="-6.40354564"><ele>2477</ele><speed>13.25</speed><time>2016-06-21T16:48:11Z</time><pdop>3.0</pdop><geoidheight>54.00</geoidheight><course>349.5</course><type>1</type></trkpt>
      <trkpt lat="39.7298814" lon="-6.40357381"><ele>2478</ele><speed>13.25</speed><time>2016-06-21T16:48:12Z</time><pdop>5.0</pdop><geoidheight>54.00</geoidheight><course>349.5</course><type>1</type></trkpt>
      <trkpt lat="39.72997194" lon="-6.40359061"><ele>2482</ele><speed>11.00</speed><time>2016-06-21T16:48:13Z</time><pdop>3.0</pdop><geoidheight>54.00</geoidheight><course>350.0</course><type>1</type></trkpt>
      <trkpt lat="39.73014311" lon="-6.4036532"><ele>2483</ele><speed>9.50</speed><time>2016-06-21T16:48:15Z</time><pdop>3.0</pdop><geoidheight>54.00</geoidheight><course>344.2</course><type>1</type></trkpt>
      <trkpt lat="39.73023026" lon="-6.40367132"><ele>2483</ele><speed>9.75</speed><time>2016-06-21T16:48:16Z</time><pdop>3.0</pdop><geoidheight>54.00</geoidheight><course>349.3</course><type>1</type></trkpt>
      <trkpt lat="39.73032212" lon="-6.40367901"><ele>2483</ele><speed>10.50</speed><time>2016-06-21T16:48:17Z</time><pdop>3.0</pdop><geoidheight>54.00</geoidheight><course>355.2</course><type>1</type></trkpt>
      <trkpt lat="39.73042609" lon="-6.40368833"><ele>2483</ele><speed>11.50</speed><time>2016-06-21T16:48:18Z</time><pdop>3.0</pdop><geoidheight>54.00</geoidheight><course>356.9</course><type>1</type></trkpt>
      <trkpt lat="39.73053758" lon="-6.40370329"><ele>2484</ele><speed>12.00</speed><time>2016-06-21T16:48:19Z</time><pdop>3.0</pdop><geoidheight>54.00</geoidheight><course>353.8</course><type>1</type></trkpt>
      <trkpt lat="39.73064619" lon="-6.4037281"><ele>2485</ele><speed>12.25</speed><time>2016-06-21T16:48:20Z</time><pdop>3.0</pdop><geoidheight>54.00</geoidheight><course>350.1</course><type>1</type></trkpt>
      <trkpt lat="39.73075119" lon="-6.40375585"><ele>2486</ele><speed>12.00</speed><time>2016-06-21T16:48:21Z</time><pdop>3.0</pdop><geoidheight>54.00</geoidheight><course>348.6</course><type>1</type></trkpt>
      <trkpt lat="39.73084997" lon="-6.4037821"><ele>2486</ele><speed>11.25</speed><time>2016-06-21T16:48:22Z</time><pdop>3.0</pdop><geoidheight>54.00</geoidheight><course>347.7</course><type>1</type></trkpt>
      <trkpt lat="39.73103726" lon="-6.40385065"><ele>2485</ele><speed>11.00</speed><time>2016-06-21T16:48:24Z</time><pdop>3.0</pdop><geoidheight>54.00</geoidheight><course>345.3</course><type>1</type></trkpt>
      <trkpt lat="39.73114275" lon="-6.40388744"><ele>2484</ele><speed>12.00</speed><time>2016-06-21T16:48:25Z</time><pdop>3.0</pdop><geoidheight>54.00</geoidheight><course>346.2</course><type>1</type></trkpt>
      <trkpt lat="39.73125155" lon="-6.40391418"><ele>2484</ele><speed>12.50</speed><time>2016-06-21T16:48:26Z</time><pdop>3.0</pdop><geoidheight>54.00</geoidheight><course>347.8</course><type>1</type></trkpt>
      <trkpt lat="39.73136325" lon="-6.40393926"><ele>2484</ele><speed>12.50</speed><time>2016-06-21T16:48:27Z</time><pdop>3.0</pdop><geoidheight>54.00</geoidheight><course>348.4</course><type>1</type></trkpt>
      <trkpt lat="39.73147213" lon="-6.40396559"><ele>2484</ele><speed>12.25</speed><time>2016-06-21T16:48:28Z</time><pdop>3.0</pdop><geoidheight>54.00</geoidheight><course>349.7</course><type>1</type></trkpt>
      <trkpt lat="39.73157842" lon="-6.40399015"><ele>2483</ele><speed>12.25</speed><time>2016-06-21T16:48:29Z</time><pdop>4.0</pdop><geoidheight>54.00</geoidheight><course>350.6</course><type>1</type></trkpt>
      <trkpt lat="39.73168938" lon="-6.40401128"><ele>2483</ele><speed>12.25</speed><time>2016-06-21T16:48:30Z</time><pdop>3.0</pdop><geoidheight>54.00</geoidheight><course>351.2</course><type>1</type></trkpt>
      <trkpt lat="39.73180072" lon="-6.40403243"><ele>2482</ele><speed>12.50</speed><time>2016-06-21T16:48:31Z</time><pdop>4.0</pdop><geoidheight>54.00</geoidheight><course>352.4</course><type>1</type></trkpt>
      <trkpt lat="39.73191586" lon="-6.40404192"><ele>2481</ele><speed>12.75</speed><time>2016-06-21T16:48:32Z</time><pdop>3.0</pdop><geoidheight>54.00</geoidheight><course>354.7</course><type>1</type></trkpt>
      <trkpt lat="39.73202549" lon="-6.40405183"><ele>2480</ele><speed>12.50</speed><time>2016-06-21T16:48:33Z</time><pdop>3.0</pdop><geoidheight>54.00</geoidheight><course>356.2</course><type>1</type></trkpt>
      <trkpt lat="39.73213494" lon="-6.40405901"><ele>2478</ele><speed>12.50</speed><time>2016-06-21T16:48:34Z</time><pdop>3.0</pdop><geoidheight>54.00</geoidheight><course>356.6</course><type>1</type></trkpt>
      <trkpt lat="39.73224692" lon="-6.40406514"><ele>2476</ele><speed>12.75</speed><time>2016-06-21T16:48:35Z</time><pdop>3.0</pdop><geoidheight>54.00</geoidheight><course>356.6</course><type>1</type></trkpt>
      <trkpt lat="39.73235759" lon="-6.40407734"><ele>2473</ele><speed>12.50</speed><time>2016-06-21T16:48:36Z</time><pdop>3.0</pdop><geoidheight>54.00</geoidheight><course>356.6</course><type>1</type></trkpt>
      <trkpt lat="39.73257849" lon="-6.40412056"><ele>2466</ele><speed>12.25</speed><time>2016-06-21T16:48:38Z</time><pdop>3.0</pdop><geoidheight>54.00</geoidheight><course>349.6</course><type>1</type></trkpt>
      <trkpt lat="39.73268756" lon="-6.40414647"><ele>2462</ele><speed>12.25</speed><time>2016-06-21T16:48:39Z</time><pdop>4.0</pdop><geoidheight>54.00</geoidheight><course>349.6</course><type>1</type></trkpt>
      <trkpt lat="39.7329329" lon="-6.40422558"><ele>2455</ele><speed>13.50</speed><time>2016-06-21T16:48:41Z</time><pdop>5.0</pdop><geoidheight>54.00</geoidheight><course>347.1</course><type>1</type></trkpt>
      <trkpt lat="39.73304977" lon="-6.40425652"><ele>2451</ele><speed>13.75</speed><time>2016-06-21T16:48:42Z</time><pdop>3.0</pdop><geoidheight>54.00</geoidheight><course>347.3</course><type>1</type></trkpt>
      <trkpt lat="39.7332716" lon="-6.40431052"><ele>2445</ele><speed>12.50</speed><time>2016-06-21T16:48:44Z</time><pdop>3.0</pdop><geoidheight>54.00</geoidheight><course>349.5</course><type>1</type></trkpt>
      <trkpt lat="39.73337461" lon="-6.40433462"><ele>2449</ele><speed>12.25</speed><time>2016-06-21T16:48:45Z</time><pdop>3.0</pdop><geoidheight>54.00</geoidheight><course>349.3</course><type>1</type></trkpt>
      <trkpt lat="39.73348448" lon="-6.40436442"><ele>2443</ele><speed>12.25</speed><time>2016-06-21T16:48:46Z</time><pdop>4.0</pdop><geoidheight>54.00</geoidheight><course>347.8</course><type>1</type></trkpt>
      <trkpt lat="39.73369518" lon="-6.40444413"><ele>2432</ele><speed>12.50</speed><time>2016-06-21T16:48:48Z</time><pdop>3.0</pdop><geoidheight>54.00</geoidheight><course>341.3</course><type>1</type></trkpt>
      <trkpt lat="39.73380522" lon="-6.40449587"><ele>2426</ele><speed>13.00</speed><time>2016-06-21T16:48:49Z</time><pdop>3.0</pdop><geoidheight>54.00</geoidheight><course>339.7</course><type>1</type></trkpt>
      <trkpt lat="39.73392" lon="-6.40454013"><ele>2421</ele><speed>13.00</speed><time>2016-06-21T16:48:50Z</time><pdop>4.0</pdop><geoidheight>54.00</geoidheight><course>342.2</course><type>1</type></trkpt>
      <trkpt lat="39.73403824" lon="-6.40457689"><ele>2425</ele><speed>13.25</speed><time>2016-06-21T16:48:51Z</time><pdop>4.0</pdop><geoidheight>54.00</geoidheight><course>347.1</course><type>1</type></trkpt>
      <trkpt lat="39.73427597" lon="-6.4046367"><ele>2412</ele><speed>13.50</speed><time>2016-06-21T16:48:53Z</time><pdop>3.0</pdop><geoidheight>54.00</geoidheight><course>348.9</course><type>1</type></trkpt>
      <trkpt lat="39.73439168" lon="-6.40467469"><ele>2408</ele><speed>13.25</speed><time>2016-06-21T16:48:54Z</time><pdop>3.0</pdop><geoidheight>54.00</geoidheight><course>346.7</course><type>1</type></trkpt>
      <trkpt lat="39.73463029" lon="-6.40476265"><ele>2401</ele><speed>13.50</speed><time>2016-06-21T16:48:56Z</time><pdop>6.0</pdop><geoidheight>54.00</geoidheight><course>344.5</course><type>1</type></trkpt>
      <trkpt lat="39.73474412" lon="-6.40481228"><ele>2407</ele><speed>13.50</speed><time>2016-06-21T16:48:57Z</time><pdop>3.0</pdop><geoidheight>54.00</geoidheight><course>343.6</course><type>1</type></trkpt>
      <trkpt lat="39.73497588" lon="-6.404918"><ele>2394</ele><speed>13.75</speed><time>2016-06-21T16:48:59Z</time><pdop>3.0</pdop><geoidheight>54.00</geoidheight><course>339.6</course><type>1</type></trkpt>
      <trkpt lat="39.73508212" lon="-6.40497824"><ele>2391</ele><speed>13.25</speed><time>2016-06-21T16:49:00Z</time><pdop>3.0</pdop><geoidheight>54.00</geoidheight><course>337.9</course><type>1</type></trkpt>
      <trkpt lat="39.73518664" lon="-6.40503343"><ele>2388</ele><speed>12.50</speed><time>2016-06-21T16:49:01Z</time><pdop>3.0</pdop><geoidheight>54.00</geoidheight><course>338.0</course><type>1</type></trkpt>
      <trkpt lat="39.73539282" lon="-6.40511708"><ele>2383</ele><speed>12.00</speed><time>2016-06-21T16:49:03Z</time><pdop>3.0</pdop><geoidheight>54.00</geoidheight><course>344.2</course><type>1</type></trkpt>
      <trkpt lat="39.73550211" lon="-6.40515025"><ele>2380</ele><speed>12.25</speed><time>2016-06-21T16:49:04Z</time><pdop>3.0</pdop><geoidheight>54.00</geoidheight><course>346.5</course><type>1</type></trkpt>
      <trkpt lat="39.73561285" lon="-6.40517998"><ele>2376</ele><speed>12.50</speed><time>2016-06-21T16:49:05Z</time><pdop>3.0</pdop><geoidheight>54.00</geoidheight><course>347.7</course><type>1</type></trkpt>
      <trkpt lat="39.7357268" lon="-6.40521074"><ele>2373</ele><speed>12.75</speed><time>2016-06-21T16:49:06Z</time><pdop>3.0</pdop><geoidheight>54.00</geoidheight><course>348.4</course><type>1</type></trkpt>
      <trkpt lat="39.73584249" lon="-6.40524349"><ele>2371</ele><speed>13.00</speed><time>2016-06-21T16:49:07Z</time><pdop>3.0</pdop><geoidheight>54.00</geoidheight><course>348.2</course><type>1</type></trkpt>
      <trkpt lat="39.73605896" lon="-6.40530345"><ele>2368</ele><speed>12.00</speed><time>2016-06-21T16:49:09Z</time><pdop>3.0</pdop><geoidheight>54.00</geoidheight><course>348.2</course><type>1</type></trkpt>
      <trkpt lat="39.73616259" lon="-6.40533211"><ele>2366</ele><speed>12.00</speed><time>2016-06-21T16:49:10Z</time><pdop>4.0</pdop><geoidheight>54.00</geoidheight><course>348.7</course><type>1</type></trkpt>
      <trkpt lat="39.73627103" lon="-6.40535636"><ele>2364</ele><speed>12.50</speed><time>2016-06-21T16:49:11Z</time><pdop>4.0</pdop><geoidheight>54.00</geoidheight><course>349.7</course><type>1</type></trkpt>
      <trkpt lat="39.73638092" lon="-6.40538214"><ele>2363</ele><speed>12.50</speed><time>2016-06-21T16:49:12Z</time><pdop>5.0</pdop><geoidheight>54.00</geoidheight><course>349.7</course><type>1</type></trkpt>
      <trkpt lat="39.73661406" lon="-6.40545608"><ele>2359</ele><speed>13.00</speed><time>2016-06-21T16:49:14Z</time><pdop>3.0</pdop><geoidheight>54.00</geoidheight><course>347.0</course><type>1</type></trkpt>
      <trkpt lat="39.73672524" lon="-6.40549632"><ele>2357</ele><speed>13.00</speed><time>2016-06-21T16:49:15Z</time><pdop>3.0</pdop><geoidheight>54.00</geoidheight><course>345.3</course><type>1</type></trkpt>
      <trkpt lat="39.73683593" lon="-6.40553603"><ele>2355</ele><speed>13.00</speed><time>2016-06-21T16:49:16Z</time><pdop>4.0</pdop><geoidheight>54.00</geoidheight><course>344.1</course><type>1</type></trkpt>
      <trkpt lat="39.73706242" lon="-6.40558771"><ele>2349</ele><speed>13.25</speed><time>2016-06-21T16:49:18Z</time><pdop>3.0</pdop><geoidheight>54.00</geoidheight><course>351.2</course><type>1</type></trkpt>
      <trkpt lat="39.73730288" lon="-6.40561741"><ele>2346</ele><speed>13.25</speed><time>2016-06-21T16:49:20Z</time><pdop>4.0</pdop><geoidheight>54.00</geoidheight><course>353.9</course><type>1</type></trkpt>
      <trkpt lat="39.73741854" lon="-6.40564552"><ele>2344</ele><speed>13.00</speed><time>2016-06-21T16:49:21Z</time><pdop>4.0</pdop><geoidheight>54.00</geoidheight><course>351.3</course><type>1</type></trkpt>
      <trkpt lat="39.73775708" lon="-6.40570493"><ele>2338</ele><speed>12.50</speed><time>2016-06-21T16:49:24Z</time><pdop>4.0</pdop><geoidheight>54.00</geoidheight><course>353.3</course><type>1</type></trkpt>
      <trkpt lat="39.73786573" lon="-6.40572699"><ele>2337</ele><speed>12.50</speed><time>2016-06-21T16:49:25Z</time><pdop>4.0</pdop><geoidheight>54.00</geoidheight><course>351.8</course><type>1</type></trkpt>
      <trkpt lat="39.73797158" lon="-6.40574662"><ele>2333</ele><speed>12.00</speed><time>2016-06-21T16:49:26Z</time><pdop>3.0</pdop><geoidheight>54.00</geoidheight><course>350.5</course><type>1</type></trkpt>
      <trkpt lat="39.7380798" lon="-6.40577644"><ele>2329</ele><speed>12.00</speed><time>2016-06-21T16:49:27Z</time><pdop>3.0</pdop><geoidheight>54.00</geoidheight><course>348.0</course><type>1</type></trkpt>
      <trkpt lat="39.73818509" lon="-6.40580554"><ele>2326</ele><speed>12.00</speed><time>2016-06-21T16:49:28Z</time><pdop>5.0</pdop><geoidheight>54.00</geoidheight><course>348.0</course><type>1</type></trkpt>
      <trkpt lat="39.73830603" lon="-6.40582815"><ele>2322</ele><speed>12.75</speed><time>2016-06-21T16:49:29Z</time><pdop>4.0</pdop><geoidheight>54.00</geoidheight><course>350.1</course><type>1</type></trkpt>
      <trkpt lat="39.7384198" lon="-6.40585382"><ele>2319</ele><speed>12.75</speed><time>2016-06-21T16:49:30Z</time><pdop>6.0</pdop><geoidheight>54.00</geoidheight><course>350.1</course><type>1</type></trkpt>
      <trkpt lat="39.73854163" lon="-6.40587852"><ele>2316</ele><speed>13.25</speed><time>2016-06-21T16:49:31Z</time><pdop>4.0</pdop><geoidheight>54.00</geoidheight><course>350.7</course><type>1</type></trkpt>
      <trkpt lat="39.73877143" lon="-6.4059354"><ele>2310</ele><speed>12.75</speed><time>2016-06-21T16:49:33Z</time><pdop>3.0</pdop><geoidheight>54.00</geoidheight><course>347.8</course><type>1</type></trkpt>
      <trkpt lat="39.73899071" lon="-6.4060014"><ele>2302</ele><speed>12.50</speed><time>2016-06-21T16:49:35Z</time><pdop>3.0</pdop><geoidheight>54.00</geoidheight><course>347.1</course><type>1</type></trkpt>
      <trkpt lat="39.7391046" lon="-6.4060288"><ele>2297</ele><speed>12.75</speed><time>2016-06-21T16:49:36Z</time><pdop>3.0</pdop><geoidheight>54.00</geoidheight><course>349.1</course><type>1</type></trkpt>
      <trkpt lat="39.7393417" lon="-6.40607131"><ele>2288</ele><speed>13.50</speed><time>2016-06-21T16:49:38Z</time><pdop>3.0</pdop><geoidheight>54.00</geoidheight><course>352.8</course><type>1</type></trkpt>
      <trkpt lat="39.73958668" lon="-6.4061168"><ele>2280</ele><speed>13.75</speed><time>2016-06-21T16:49:40Z</time><pdop>3.0</pdop><geoidheight>54.00</geoidheight><course>352.6</course><type>1</type></trkpt>
      <trkpt lat="39.73970863" lon="-6.4061463"><ele>2278</ele><speed>13.50</speed><time>2016-06-21T16:49:41Z</time><pdop>4.0</pdop><geoidheight>54.00</geoidheight><course>350.3</course><type>1</type></trkpt>
      <trkpt lat="39.73993954" lon="-6.40619799"><ele>2273</ele><speed>13.00</speed><time>2016-06-21T16:49:43Z</time><pdop>4.0</pdop><geoidheight>54.00</geoidheight><course>350.4</course><type>1</type></trkpt>
      <trkpt lat="39.74015642" lon="-6.40624544"><ele>2267</ele><speed>12.50</speed><time>2016-06-21T16:49:45Z</time><pdop>3.0</pdop><geoidheight>54.00</geoidheight><course>351.0</course><type>1</type></trkpt>
      <trkpt lat="39.74027107" lon="-6.40626382"><ele>2265</ele><speed>12.75</speed><time>2016-06-21T16:49:46Z</time><pdop>4.0</pdop><geoidheight>54.00</geoidheight><course>352.4</course><type>1</type></trkpt>
      <trkpt lat="39.74038652" lon="-6.40627218"><ele>2261</ele><speed>13.25</speed><time>2016-06-21T16:49:47Z</time><pdop>3.0</pdop><geoidheight>54.00</geoidheight><course>355.5</course><type>1</type></trkpt>
      <trkpt lat="39.74050195" lon="-6.40627618"><ele>2258</ele><speed>13.75</speed><time>2016-06-21T16:49:48Z</time><pdop>3.0</pdop><geoidheight>54.00</geoidheight><course>357.6</course><type>1</type></trkpt>
      <trkpt lat="39.7406238" lon="-6.40627758"><ele>2255</ele><speed>13.75</speed><time>2016-06-21T16:49:49Z</time><pdop>3.0</pdop><geoidheight>54.00</geoidheight><course>0.1</course><type>1</type></trkpt>
      <trkpt lat="39.74074018" lon="-6.40627684"><ele>2252</ele><speed>13.00</speed><time>2016-06-21T16:49:50Z</time><pdop>3.0</pdop><geoidheight>54.00</geoidheight><course>1.5</course><type>1</type></trkpt>
      <trkpt lat="39.74085598" lon="-6.40627252"><ele>2249</ele><speed>12.75</speed><time>2016-06-21T16:49:51Z</time><pdop>3.0</pdop><geoidheight>54.00</geoidheight><course>2.2</course><type>1</type></trkpt>
      <trkpt lat="39.74108136" lon="-6.40626074"><ele>2241</ele><speed>12.75</speed><time>2016-06-21T16:49:53Z</time><pdop>3.0</pdop><geoidheight>54.00</geoidheight><course>2.5</course><type>1</type></trkpt>
      <trkpt lat="39.74131083" lon="-6.40625354"><ele>2234</ele><speed>12.25</speed><time>2016-06-21T16:49:55Z</time><pdop>3.0</pdop><geoidheight>54.00</geoidheight><course>1.6</course><type>1</type></trkpt>
      <trkpt lat="39.741416889999996" lon="-6.40624776"><ele>2230</ele><speed>12.00</speed><time>2016-06-21T16:49:56Z</time><pdop>3.0</pdop><geoidheight>54.00</geoidheight><course>2.1</course><type>1</type></trkpt>
      <trkpt lat="39.74162806" lon="-6.4062174"><ele>2223</ele><speed>12.00</speed><time>2016-06-21T16:49:58Z</time><pdop>3.0</pdop><geoidheight>54.00</geoidheight><course>7.0</course><type>1</type></trkpt>
      <trkpt lat="39.74184817" lon="-6.40617231"><ele>2216</ele><speed>12.25</speed><time>2016-06-21T16:50:00Z</time><pdop>4.0</pdop><geoidheight>54.00</geoidheight><course>8.8</course><type>1</type></trkpt>
      <trkpt lat="39.74196865" lon="-6.40614326"><ele>2269</ele><speed>13.00</speed><time>2016-06-21T16:50:01Z</time><pdop>3.0</pdop><geoidheight>54.00</geoidheight><course>11.0</course><type>1</type></trkpt>
      <trkpt lat="39.74219008" lon="-6.40607532"><ele>2230</ele><speed>12.25</speed><time>2016-06-21T16:50:03Z</time><pdop>3.0</pdop><geoidheight>54.00</geoidheight><course>13.2</course><type>1</type></trkpt>
      <trkpt lat="39.74240824" lon="-6.40600864"><ele>2213</ele><speed>12.75</speed><time>2016-06-21T16:50:05Z</time><pdop>3.0</pdop><geoidheight>54.00</geoidheight><course>12.9</course><type>1</type></trkpt>
      <trkpt lat="39.74265205" lon="-6.40594602"><ele>2203</ele><speed>14.00</speed><time>2016-06-21T16:50:07Z</time><pdop>3.0</pdop><geoidheight>54.00</geoidheight><course>10.1</course><type>1</type></trkpt>
      <trkpt lat="39.74277481" lon="-6.40592204"><ele>2200</ele><speed>13.75</speed><time>2016-06-21T16:50:08Z</time><pdop>3.0</pdop><geoidheight>54.00</geoidheight><course>7.8</course><type>1</type></trkpt>
      <trkpt lat="39.74299579" lon="-6.40588632"><ele>2196</ele><speed>12.00</speed><time>2016-06-21T16:50:10Z</time><pdop>3.0</pdop><geoidheight>54.00</geoidheight><course>7.9</course><type>1</type></trkpt>
      <trkpt lat="39.74309618" lon="-6.40585328"><ele>2194</ele><speed>11.75</speed><time>2016-06-21T16:50:11Z</time><pdop>3.0</pdop><geoidheight>54.00</geoidheight><course>11.4</course><type>1</type></trkpt>
      <trkpt lat="39.74330791" lon="-6.405792"><ele>2187</ele><speed>11.75</speed><time>2016-06-21T16:50:13Z</time><pdop>3.0</pdop><geoidheight>54.00</geoidheight><course>13.8</course><type>1</type></trkpt>
      <trkpt lat="39.74352915" lon="-6.40572979"><ele>2182</ele><speed>12.75</speed><time>2016-06-21T16:50:15Z</time><pdop>3.0</pdop><geoidheight>54.00</geoidheight><course>11.7</course><type>1</type></trkpt>
      <trkpt lat="39.74364921" lon="-6.40569965"><ele>2180</ele><speed>13.25</speed><time>2016-06-21T16:50:16Z</time><pdop>3.0</pdop><geoidheight>54.00</geoidheight><course>11.3</course><type>1</type></trkpt>
      <trkpt lat="39.74376034" lon="-6.40566897"><ele>2178</ele><speed>12.75</speed><time>2016-06-21T16:50:17Z</time><pdop>3.0</pdop><geoidheight>54.00</geoidheight><course>12.1</course><type>1</type></trkpt>
      <trkpt lat="39.74386462" lon="-6.40564389"><ele>2176</ele><speed>12.00</speed><time>2016-06-21T16:50:18Z</time><pdop>3.0</pdop><geoidheight>54.00</geoidheight><course>11.0</course><type>1</type></trkpt>
      <trkpt lat="39.74408028" lon="-6.40560549"><ele>2172</ele><speed>12.25</speed><time>2016-06-21T16:50:20Z</time><pdop>3.0</pdop><geoidheight>54.00</geoidheight><course>6.9</course><type>1</type></trkpt>
      <trkpt lat="39.74419427" lon="-6.4056003"><ele>2170</ele><speed>12.75</speed><time>2016-06-21T16:50:21Z</time><pdop>3.0</pdop><geoidheight>54.00</geoidheight><course>2.6</course><type>1</type></trkpt>
      <trkpt lat="39.74430917" lon="-6.40559355"><ele>2167</ele><speed>12.75</speed><time>2016-06-21T16:50:22Z</time><pdop>5.0</pdop><geoidheight>54.00</geoidheight><course>2.6</course><type>1</type></trkpt>
      <trkpt lat="39.74454094" lon="-6.40560702"><ele>2164</ele><speed>12.75</speed><time>2016-06-21T16:50:24Z</time><pdop>4.0</pdop><geoidheight>54.00</geoidheight><course>1.8</course><type>1</type></trkpt>
      <trkpt lat="39.74476464" lon="-6.40555404"><ele>2161</ele><speed>12.50</speed><time>2016-06-21T16:50:26Z</time><pdop>4.0</pdop><geoidheight>54.00</geoidheight><course>11.4</course><type>1</type></trkpt>
      <trkpt lat="39.74487058" lon="-6.40552635"><ele>2160</ele><speed>12.25</speed><time>2016-06-21T16:50:27Z</time><pdop>4.0</pdop><geoidheight>54.00</geoidheight><course>10.8</course><type>1</type></trkpt>
      <trkpt lat="39.74497815" lon="-6.40550687"><ele>2159</ele><speed>12.00</speed><time>2016-06-21T16:50:28Z</time><pdop>4.0</pdop><geoidheight>54.00</geoidheight><course>8.4</course><type>1</type></trkpt>
      <trkpt lat="39.74520382" lon="-6.40547725"><ele>2156</ele><speed>12.75</speed><time>2016-06-21T16:50:30Z</time><pdop>3.0</pdop><geoidheight>54.00</geoidheight><course>5.3</course><type>1</type></trkpt>
      <trkpt lat="39.74532158" lon="-6.40546365"><ele>2154</ele><speed>12.75</speed><time>2016-06-21T16:50:31Z</time><pdop>3.0</pdop><geoidheight>54.00</geoidheight><course>5.4</course><type>1</type></trkpt>
      <trkpt lat="39.7454356" lon="-6.40544825"><ele>2151</ele><speed>12.75</speed><time>2016-06-21T16:50:32Z</time><pdop>4.0</pdop><geoidheight>54.00</geoidheight><course>6.0</course><type>1</type></trkpt>
      <trkpt lat="39.74554411" lon="-6.40542758"><ele>2150</ele><speed>12.50</speed><time>2016-06-21T16:50:33Z</time><pdop>4.0</pdop><geoidheight>54.00</geoidheight><course>6.9</course><type>1</type></trkpt>
      <trkpt lat="39.74565631" lon="-6.40540988"><ele>2148</ele><speed>12.50</speed><time>2016-06-21T16:50:34Z</time><pdop>5.0</pdop><geoidheight>54.00</geoidheight><course>6.9</course><type>1</type></trkpt>
      <trkpt lat="39.74587726" lon="-6.40536733"><ele>2143</ele><speed>12.50</speed><time>2016-06-21T16:50:36Z</time><pdop>4.0</pdop><geoidheight>54.00</geoidheight><course>8.9</course><type>1</type></trkpt>
      <trkpt lat="39.74599699" lon="-6.40534528"><ele>2141</ele><speed>13.25</speed><time>2016-06-21T16:50:37Z</time><pdop>4.0</pdop><geoidheight>54.00</geoidheight><course>8.7</course><type>1</type></trkpt>
      <trkpt lat="39.74624727" lon="-6.40531518"><ele>2137</ele><speed>13.75</speed><time>2016-06-21T16:50:39Z</time><pdop>3.0</pdop><geoidheight>54.00</geoidheight><course>4.2</course><type>1</type></trkpt>
      <trkpt lat="39.74637089" lon="-6.4053101"><ele>2136</ele><speed>13.50</speed><time>2016-06-21T16:50:40Z</time><pdop>3.0</pdop><geoidheight>54.00</geoidheight><course>1.6</course><type>1</type></trkpt>
      <trkpt lat="39.74648742" lon="-6.40530664"><ele>2136</ele><speed>12.75</speed><time>2016-06-21T16:50:41Z</time><pdop>3.0</pdop><geoidheight>54.00</geoidheight><course>1.5</course><type>1</type></trkpt>
      <trkpt lat="39.7467001" lon="-6.40527785"><ele>2135</ele><speed>12.00</speed><time>2016-06-21T16:50:43Z</time><pdop>3.0</pdop><geoidheight>54.00</geoidheight><course>6.6</course><type>1</type></trkpt>
      <trkpt lat="39.74680662" lon="-6.40526205"><ele>2134</ele><speed>12.25</speed><time>2016-06-21T16:50:44Z</time><pdop>4.0</pdop><geoidheight>54.00</geoidheight><course>7.2</course><type>1</type></trkpt>
      <trkpt lat="39.74703531" lon="-6.40523659"><ele>2132</ele><speed>12.75</speed><time>2016-06-21T16:50:46Z</time><pdop>4.0</pdop><geoidheight>54.00</geoidheight><course>4.7</course><type>1</type></trkpt>
      <trkpt lat="39.74714695" lon="-6.40523099"><ele>2131</ele><speed>12.75</speed><time>2016-06-21T16:50:47Z</time><pdop>4.0</pdop><geoidheight>54.00</geoidheight><course>4.2</course><type>1</type></trkpt>
      <trkpt lat="39.74726343" lon="-6.40521998"><ele>2130</ele><speed>12.75</speed><time>2016-06-21T16:50:48Z</time><pdop>3.0</pdop><geoidheight>54.00</geoidheight><course>4.6</course><type>1</type></trkpt>
      <trkpt lat="39.7473796" lon="-6.40521065"><ele>2129</ele><speed>12.75</speed><time>2016-06-21T16:50:49Z</time><pdop>3.0</pdop><geoidheight>54.00</geoidheight><course>3.0</course><type>1</type></trkpt>
      <trkpt lat="39.74749607" lon="-6.40521317"><ele>2127</ele><speed>12.75</speed><time>2016-06-21T16:50:50Z</time><pdop>3.0</pdop><geoidheight>54.00</geoidheight><course>359.1</course><type>1</type></trkpt>
      <trkpt lat="39.74773343" lon="-6.40524038"><ele>2125</ele><speed>13.00</speed><time>2016-06-21T16:50:52Z</time><pdop>3.0</pdop><geoidheight>54.00</geoidheight><course>354.6</course><type>1</type></trkpt>
      <trkpt lat="39.74785068" lon="-6.40525082"><ele>2127</ele><speed>13.00</speed><time>2016-06-21T16:50:53Z</time><pdop>3.0</pdop><geoidheight>54.00</geoidheight><course>355.9</course><type>1</type></trkpt>
      <trkpt lat="39.74808513" lon="-6.40527435"><ele>2125</ele><speed>13.00</speed><time>2016-06-21T16:50:55Z</time><pdop>3.0</pdop><geoidheight>54.00</geoidheight><course>355.0</course><type>1</type></trkpt>
      <trkpt lat="39.74829941" lon="-6.40531097"><ele>2127</ele><speed>11.50</speed><time>2016-06-21T16:50:57Z</time><pdop>3.0</pdop><geoidheight>54.00</geoidheight><course>351.7</course><type>1</type></trkpt>
      <trkpt lat="39.74848366" lon="-6.40535083"><ele>2127</ele><speed>10.25</speed><time>2016-06-21T16:50:59Z</time><pdop>3.0</pdop><geoidheight>54.00</geoidheight><course>351.0</course><type>1</type></trkpt>
      <trkpt lat="39.74857951" lon="-6.40536745"><ele>2126</ele><speed>10.75</speed><time>2016-06-21T16:51:00Z</time><pdop>3.0</pdop><geoidheight>54.00</geoidheight><course>351.8</course><type>1</type></trkpt>
      <trkpt lat="39.74868263" lon="-6.40538594"><ele>2124</ele><speed>11.50</speed><time>2016-06-21T16:51:01Z</time><pdop>4.0</pdop><geoidheight>54.00</geoidheight><course>352.3</course><type>1</type></trkpt>
      <trkpt lat="39.7487917" lon="-6.40540628"><ele>2123</ele><speed>12.25</speed><time>2016-06-21T16:51:02Z</time><pdop>3.0</pdop><geoidheight>54.00</geoidheight><course>351.4</course><type>1</type></trkpt>
      <trkpt lat="39.74901645" lon="-6.4054569"><ele>2123</ele><speed>12.75</speed><time>2016-06-21T16:51:04Z</time><pdop>3.0</pdop><geoidheight>54.00</geoidheight><course>350.6</course><type>1</type></trkpt>
      <trkpt lat="39.74912883" lon="-6.40547913"><ele>2122</ele><speed>12.50</speed><time>2016-06-21T16:51:05Z</time><pdop>3.0</pdop><geoidheight>54.00</geoidheight><course>351.2</course><type>1</type></trkpt>
      <trkpt lat="39.74935967" lon="-6.40551552"><ele>2121</ele><speed>13.00</speed><time>2016-06-21T16:51:07Z</time><pdop>3.0</pdop><geoidheight>54.00</geoidheight><course>354.0</course><type>1</type></trkpt>
      <trkpt lat="39.7495788" lon="-6.40552086"><ele>2121</ele><speed>12.00</speed><time>2016-06-21T16:51:09Z</time><pdop>3.0</pdop><geoidheight>54.00</geoidheight><course>359.6</course><type>1</type></trkpt>
      <trkpt lat="39.74978992" lon="-6.40556162"><ele>2122</ele><speed>12.00</speed><time>2016-06-21T16:51:11Z</time><pdop>4.0</pdop><geoidheight>54.00</geoidheight><course>349.8</course><type>1</type></trkpt>
      <trkpt lat="39.74989696" lon="-6.40560549"><ele>2123</ele><speed>12.25</speed><time>2016-06-21T16:51:12Z</time><pdop>3.0</pdop><geoidheight>54.00</geoidheight><course>343.6</course><type>1</type></trkpt>
      <trkpt lat="39.75010844" lon="-6.40569525"><ele>2123</ele><speed>12.50</speed><time>2016-06-21T16:51:14Z</time><pdop>4.0</pdop><geoidheight>54.00</geoidheight><course>341.5</course><type>1</type></trkpt>
      <trkpt lat="39.75021419" lon="-6.40574102"><ele>2123</ele><speed>12.50</speed><time>2016-06-21T16:51:15Z</time><pdop>6.0</pdop><geoidheight>54.00</geoidheight><course>341.5</course><type>1</type></trkpt>
      <trkpt lat="39.75043411" lon="-6.40581899"><ele>2123</ele><speed>12.50</speed><time>2016-06-21T16:51:17Z</time><pdop>6.0</pdop><geoidheight>54.00</geoidheight><course>343.2</course><type>1</type></trkpt>
      <trkpt lat="39.75077073" lon="-6.40593408"><ele>1889</ele><speed>12.50</speed><time>2016-06-21T16:51:20Z</time><pdop>3.0</pdop><geoidheight>54.00</geoidheight><course>346.1</course><type>1</type></trkpt>
      <trkpt lat="39.75088057" lon="-6.40596941"><ele>1888</ele><speed>12.50</speed><time>2016-06-21T16:51:21Z</time><pdop>5.0</pdop><geoidheight>54.00</geoidheight><course>346.1</course><type>1</type></trkpt>
      <trkpt lat="39.75099806" lon="-6.40601355"><ele>2023</ele><speed>13.25</speed><time>2016-06-21T16:51:22Z</time><pdop>3.0</pdop><geoidheight>54.00</geoidheight><course>344.1</course><type>1</type></trkpt>
      <trkpt lat="39.75111259" lon="-6.4060558"><ele>2022</ele><speed>13.25</speed><time>2016-06-21T16:51:23Z</time><pdop>5.0</pdop><geoidheight>54.00</geoidheight><course>344.1</course><type>1</type></trkpt>
      <trkpt lat="39.75123335" lon="-6.40611016"><ele>2049</ele><speed>13.50</speed><time>2016-06-21T16:51:24Z</time><pdop>5.0</pdop><geoidheight>54.00</geoidheight><course>342.9</course><type>1</type></trkpt>
      <trkpt lat="39.7514513" lon="-6.40617359"><ele>2078</ele><speed>12.75</speed><time>2016-06-21T16:51:26Z</time><pdop>5.0</pdop><geoidheight>54.00</geoidheight><course>346.7</course><type>1</type></trkpt>
      <trkpt lat="39.7515561" lon="-6.406189"><ele>2082</ele><speed>12.25</speed><time>2016-06-21T16:51:27Z</time><pdop>4.0</pdop><geoidheight>54.00</geoidheight><course>350.1</course><type>1</type></trkpt>
      <trkpt lat="39.7517974" lon="-6.40625784"><ele>2095</ele><speed>14.00</speed><time>2016-06-21T16:51:29Z</time><pdop>4.0</pdop><geoidheight>54.00</geoidheight><course>345.8</course><type>1</type></trkpt>
      <trkpt lat="39.75204509" lon="-6.40637229"><ele>2099</ele><speed>14.25</speed><time>2016-06-21T16:51:31Z</time><pdop>3.0</pdop><geoidheight>54.00</geoidheight><course>339.9</course><type>1</type></trkpt>
      <trkpt lat="39.75215946" lon="-6.40642965"><ele>2101</ele><speed>13.75</speed><time>2016-06-21T16:51:32Z</time><pdop>4.0</pdop><geoidheight>54.00</geoidheight><course>339.4</course><type>1</type></trkpt>
      <trkpt lat="39.75238878" lon="-6.40652118"><ele>2103</ele><speed>13.25</speed><time>2016-06-21T16:51:34Z</time><pdop>5.0</pdop><geoidheight>54.00</geoidheight><course>342.3</course><type>1</type></trkpt>
      <trkpt lat="39.75250088" lon="-6.40655257"><ele>2104</ele><speed>13.00</speed><time>2016-06-21T16:51:35Z</time><pdop>3.0</pdop><geoidheight>54.00</geoidheight><course>344.6</course><type>1</type></trkpt>
      <trkpt lat="39.75272314" lon="-6.40663362"><ele>2105</ele><speed>13.00</speed><time>2016-06-21T16:51:37Z</time><pdop>5.0</pdop><geoidheight>54.00</geoidheight><course>344.9</course><type>1</type></trkpt>
      <trkpt lat="39.75282482" lon="-6.40666324"><ele>2105</ele><speed>12.00</speed><time>2016-06-21T16:51:38Z</time><pdop>3.0</pdop><geoidheight>54.00</geoidheight><course>345.3</course><type>1</type></trkpt>
      <trkpt lat="39.75292663" lon="-6.40670058"><ele>2016</ele><speed>11.75</speed><time>2016-06-21T16:51:39Z</time><pdop>3.0</pdop><geoidheight>54.00</geoidheight><course>345.1</course><type>1</type></trkpt>
      <trkpt lat="39.75312821" lon="-6.40677856"><ele>2073</ele><speed>11.75</speed><time>2016-06-21T16:51:41Z</time><pdop>3.0</pdop><geoidheight>54.00</geoidheight><course>342.4</course><type>1</type></trkpt>
      <trkpt lat="39.75323279" lon="-6.40682016"><ele>2083</ele><speed>12.00</speed><time>2016-06-21T16:51:42Z</time><pdop>3.0</pdop><geoidheight>54.00</geoidheight><course>342.9</course><type>1</type></trkpt>
      <trkpt lat="39.75344319" lon="-6.40689956"><ele>2086</ele><speed>12.25</speed><time>2016-06-21T16:51:44Z</time><pdop>5.0</pdop><geoidheight>54.00</geoidheight><course>343.7</course><type>1</type></trkpt>
      <trkpt lat="39.75354927" lon="-6.40695103"><ele>2092</ele><speed>12.25</speed><time>2016-06-21T16:51:45Z</time><pdop>3.0</pdop><geoidheight>54.00</geoidheight><course>340.8</course><type>1</type></trkpt>
      <trkpt lat="39.75375586" lon="-6.40706838"><ele>2092</ele><speed>12.50</speed><time>2016-06-21T16:51:47Z</time><pdop>4.0</pdop><geoidheight>54.00</geoidheight><course>337.1</course><type>1</type></trkpt>
      <trkpt lat="39.75386012" lon="-6.40712551"><ele>2091</ele><speed>12.50</speed><time>2016-06-21T16:51:48Z</time><pdop>6.0</pdop><geoidheight>54.00</geoidheight><course>337.1</course><type>1</type></trkpt>
      <trkpt lat="39.75395139" lon="-6.40718262"><ele>2091</ele><speed>12.00</speed><time>2016-06-21T16:51:49Z</time><pdop>4.0</pdop><geoidheight>54.00</geoidheight><course>337.5</course><type>1</type></trkpt>
      <trkpt lat="39.75415534" lon="-6.40728315"><ele>2089</ele><speed>12.25</speed><time>2016-06-21T16:51:51Z</time><pdop>3.0</pdop><geoidheight>54.00</geoidheight><course>339.2</course><type>1</type></trkpt>
      <trkpt lat="39.75425642" lon="-6.40733467"><ele>2087</ele><speed>12.50</speed><time>2016-06-21T16:51:52Z</time><pdop>3.0</pdop><geoidheight>54.00</geoidheight><course>339.1</course><type>1</type></trkpt>
      <trkpt lat="39.75446425" lon="-6.40744173"><ele>2083</ele><speed>12.50</speed><time>2016-06-21T16:51:54Z</time><pdop>5.0</pdop><geoidheight>54.00</geoidheight><course>338.6</course><type>1</type></trkpt>
      <trkpt lat="39.75456622" lon="-6.40750415"><ele>2083</ele><speed>12.50</speed><time>2016-06-21T16:51:55Z</time><pdop>5.0</pdop><geoidheight>54.00</geoidheight><course>336.6</course><type>1</type></trkpt>
      <trkpt lat="39.75466449" lon="-6.4075885"><ele>2081</ele><speed>12.75</speed><time>2016-06-21T16:51:56Z</time><pdop>3.0</pdop><geoidheight>54.00</geoidheight><course>332.5</course><type>1</type></trkpt>
      <trkpt lat="39.75487444" lon="-6.40771905"><ele>2078</ele><speed>13.00</speed><time>2016-06-21T16:51:58Z</time><pdop>3.0</pdop><geoidheight>54.00</geoidheight><course>335.1</course><type>1</type></trkpt>
      <trkpt lat="39.75508688" lon="-6.40785861"><ele>2075</ele><speed>13.25</speed><time>2016-06-21T16:52:00Z</time><pdop>4.0</pdop><geoidheight>54.00</geoidheight><course>332.6</course><type>1</type></trkpt>
      <trkpt lat="39.75529247" lon="-6.4080176699999996"><ele>2074</ele><speed>13.00</speed><time>2016-06-21T16:52:02Z</time><pdop>4.0</pdop><geoidheight>54.00</geoidheight><course>328.6</course><type>1</type></trkpt>
      <trkpt lat="39.75548996" lon="-6.40816409"><ele>2072</ele><speed>12.50</speed><time>2016-06-21T16:52:04Z</time><pdop>4.0</pdop><geoidheight>54.00</geoidheight><course>330.9</course><type>1</type></trkpt>
      <trkpt lat="39.75582462" lon="-6.40840874"><ele>2191</ele><speed>15.00</speed><time>2016-06-21T16:52:07Z</time><pdop>5.0</pdop><geoidheight>54.00</geoidheight><course>332.3</course><type>1</type></trkpt>
      <trkpt lat="39.75594751" lon="-6.4084846"><ele>2154</ele><speed>15.25</speed><time>2016-06-21T16:52:08Z</time><pdop>4.0</pdop><geoidheight>54.00</geoidheight><course>333.6</course><type>1</type></trkpt>
      <trkpt lat="39.75600579" lon="-6.40855863"><ele>2131</ele><speed>12.75</speed><time>2016-06-21T16:52:09Z</time><pdop>3.0</pdop><geoidheight>54.00</geoidheight><course>330.8</course><type>1</type></trkpt>
      <trkpt lat="39.7561856" lon="-6.40867338"><ele>2139</ele><speed>11.50</speed><time>2016-06-21T16:52:11Z</time><pdop>4.0</pdop><geoidheight>54.00</geoidheight><course>331.1</course><type>1</type></trkpt>
      <trkpt lat="39.75628356" lon="-6.40871213"><ele>2111</ele><speed>11.00</speed><time>2016-06-21T16:52:12Z</time><pdop>3.0</pdop><geoidheight>54.00</geoidheight><course>336.8</course><type>1</type></trkpt>
      <trkpt lat="39.75656378" lon="-6.40888522"><ele>2082</ele><speed>12.00</speed><time>2016-06-21T16:52:15Z</time><pdop>5.0</pdop><geoidheight>54.00</geoidheight><course>333.6</course><type>1</type></trkpt>
      <trkpt lat="39.75678438" lon="-6.40902432"><ele>2066</ele><speed>13.75</speed><time>2016-06-21T16:52:17Z</time><pdop>3.0</pdop><geoidheight>54.00</geoidheight><course>333.9</course><type>1</type></trkpt>
      <trkpt lat="39.75689053" lon="-6.40909337"><ele>2064</ele><speed>13.50</speed><time>2016-06-21T16:52:18Z</time><pdop>3.0</pdop><geoidheight>54.00</geoidheight><course>333.7</course><type>1</type></trkpt>
      <trkpt lat="39.75716301" lon="-6.40932279"><ele>2059</ele><speed>11.75</speed><time>2016-06-21T16:52:21Z</time><pdop>4.0</pdop><geoidheight>54.00</geoidheight><course>325.7</course><type>1</type></trkpt>
      <trkpt lat="39.75724861" lon="-6.40940424"><ele>2056</ele><speed>12.00</speed><time>2016-06-21T16:52:22Z</time><pdop>4.0</pdop><geoidheight>54.00</geoidheight><course>326.0</course><type>1</type></trkpt>
      <trkpt lat="39.75743623" lon="-6.40955339"><ele>2051</ele><speed>12.75</speed><time>2016-06-21T16:52:24Z</time><pdop>3.0</pdop><geoidheight>54.00</geoidheight><course>328.1</course><type>1</type></trkpt>
      <trkpt lat="39.75753996" lon="-6.40963575"><ele>2050</ele><speed>13.50</speed><time>2016-06-21T16:52:25Z</time><pdop>3.0</pdop><geoidheight>54.00</geoidheight><course>328.1</course><type>1</type></trkpt>
      <trkpt lat="39.75785183" lon="-6.40990848"><ele>2046</ele><speed>14.00</speed><time>2016-06-21T16:52:28Z</time><pdop>3.0</pdop><geoidheight>54.00</geoidheight><course>325.4</course><type>1</type></trkpt>
      <trkpt lat="39.75795357" lon="-6.41000556"><ele>2045</ele><speed>13.75</speed><time>2016-06-21T16:52:29Z</time><pdop>3.0</pdop><geoidheight>54.00</geoidheight><course>324.7</course><type>1</type></trkpt>
      <trkpt lat="39.75814593" lon="-6.41018675"><ele>2041</ele><speed>13.00</speed><time>2016-06-21T16:52:31Z</time><pdop>4.0</pdop><geoidheight>54.00</geoidheight><course>324.6</course><type>1</type></trkpt>
      <trkpt lat="39.75835291" lon="-6.41035288"><ele>2036</ele><speed>13.50</speed><time>2016-06-21T16:52:33Z</time><pdop>4.0</pdop><geoidheight>54.00</geoidheight><course>329.7</course><type>1</type></trkpt>
      <trkpt lat="39.75845309" lon="-6.41043919"><ele>2033</ele><speed>13.25</speed><time>2016-06-21T16:52:34Z</time><pdop>3.0</pdop><geoidheight>54.00</geoidheight><course>328.1</course><type>1</type></trkpt>
      <trkpt lat="39.75855848" lon="-6.4105271"><ele>2031</ele><speed>13.75</speed><time>2016-06-21T16:52:35Z</time><pdop>4.0</pdop><geoidheight>54.00</geoidheight><course>327.3</course><type>1</type></trkpt>
      <trkpt lat="39.75866298" lon="-6.41062595"><ele>2028</ele><speed>14.25</speed><time>2016-06-21T16:52:36Z</time><pdop>4.0</pdop><geoidheight>54.00</geoidheight><course>324.8</course><type>1</type></trkpt>
      <trkpt lat="39.75876933" lon="-6.41072998"><ele>2026</ele><speed>14.50</speed><time>2016-06-21T16:52:37Z</time><pdop>4.0</pdop><geoidheight>54.00</geoidheight><course>323.1</course><type>1</type></trkpt>
      <trkpt lat="39.75886781" lon="-6.41083057"><ele>2025</ele><speed>14.00</speed><time>2016-06-21T16:52:38Z</time><pdop>3.0</pdop><geoidheight>54.00</geoidheight><course>323.0</course><type>1</type></trkpt>
      <trkpt lat="39.75896155" lon="-6.4109191"><ele>2025</ele><speed>13.00</speed><time>2016-06-21T16:52:39Z</time><pdop>3.0</pdop><geoidheight>54.00</geoidheight><course>324.2</course><type>1</type></trkpt>
      <trkpt lat="39.7590521" lon="-6.41099391"><ele>2024</ele><speed>12.00</speed><time>2016-06-21T16:52:40Z</time><pdop>4.0</pdop><geoidheight>54.00</geoidheight><course>326.7</course><type>1</type></trkpt>
      <trkpt lat="39.75922667" lon="-6.41111827"><ele>2021</ele><speed>11.00</speed><time>2016-06-21T16:52:42Z</time><pdop>3.0</pdop><geoidheight>54.00</geoidheight><course>331.3</course><type>1</type></trkpt>
      <trkpt lat="39.75931663" lon="-6.41118042"><ele>2019</ele><speed>11.25</speed><time>2016-06-21T16:52:43Z</time><pdop>3.0</pdop><geoidheight>54.00</geoidheight><course>332.1</course><type>1</type></trkpt>
      <trkpt lat="39.75940913" lon="-6.41125096"><ele>2017</ele><speed>11.75</speed><time>2016-06-21T16:52:44Z</time><pdop>3.0</pdop><geoidheight>54.00</geoidheight><course>330.3</course><type>1</type></trkpt>
      <trkpt lat="39.75949982" lon="-6.41133073"><ele>2015</ele><speed>12.50</speed><time>2016-06-21T16:52:45Z</time><pdop>3.0</pdop><geoidheight>54.00</geoidheight><course>328.4</course><type>1</type></trkpt>
      <trkpt lat="39.75959911" lon="-6.41141169"><ele>2013</ele><speed>12.75</speed><time>2016-06-21T16:52:46Z</time><pdop>3.0</pdop><geoidheight>54.00</geoidheight><course>328.1</course><type>1</type></trkpt>
      <trkpt lat="39.75969581" lon="-6.41148968"><ele>2011</ele><speed>12.25</speed><time>2016-06-21T16:52:47Z</time><pdop>3.0</pdop><geoidheight>54.00</geoidheight><course>329.2</course><type>1</type></trkpt>
      <trkpt lat="39.75978473" lon="-6.41155685"><ele>2010</ele><speed>11.75</speed><time>2016-06-21T16:52:48Z</time><pdop>3.0</pdop><geoidheight>54.00</geoidheight><course>329.8</course><type>1</type></trkpt>
      <trkpt lat="39.75995394" lon="-6.41169739"><ele>2007</ele><speed>11.00</speed><time>2016-06-21T16:52:50Z</time><pdop>3.0</pdop><geoidheight>54.00</geoidheight><course>327.0</course><type>1</type></trkpt>
      <trkpt lat="39.76003916" lon="-6.41176861"><ele>2004</ele><speed>11.00</speed><time>2016-06-21T16:52:51Z</time><pdop>3.0</pdop><geoidheight>54.00</geoidheight><course>327.9</course><type>1</type></trkpt>
      <trkpt lat="39.76012386" lon="-6.41182801"><ele>2002</ele><speed>10.75</speed><time>2016-06-21T16:52:52Z</time><pdop>3.0</pdop><geoidheight>54.00</geoidheight><course>330.8</course><type>1</type></trkpt>
      <trkpt lat="39.76021346" lon="-6.41188634"><ele>2001</ele><speed>11.00</speed><time>2016-06-21T16:52:53Z</time><pdop>4.0</pdop><geoidheight>54.00</geoidheight><course>333.3</course><type>1</type></trkpt>
      <trkpt lat="39.76031877" lon="-6.41194241"><ele>2000</ele><speed>12.00</speed><time>2016-06-21T16:52:54Z</time><pdop>4.0</pdop><geoidheight>54.00</geoidheight><course>336.6</course><type>1</type></trkpt>
      <trkpt lat="39.76042675" lon="-6.41199407"><ele>1999</ele><speed>12.50</speed><time>2016-06-21T16:52:55Z</time><pdop>4.0</pdop><geoidheight>54.00</geoidheight><course>338.2</course><type>1</type></trkpt>
      <trkpt lat="39.76051906" lon="-6.41206218"><ele>1995</ele><speed>12.25</speed><time>2016-06-21T16:52:56Z</time><pdop>3.0</pdop><geoidheight>54.00</geoidheight><course>334.1</course><type>1</type></trkpt>
      <trkpt lat="39.7607147" lon="-6.41219003"><ele>1990</ele><speed>12.00</speed><time>2016-06-21T16:52:58Z</time><pdop>3.0</pdop><geoidheight>54.00</geoidheight><course>333.8</course><type>1</type></trkpt>
      <trkpt lat="39.76090794" lon="-6.41229618"><ele>1987</ele><speed>11.50</speed><time>2016-06-21T16:53:00Z</time><pdop>3.0</pdop><geoidheight>54.00</geoidheight><course>337.2</course><type>1</type></trkpt>
      <trkpt lat="39.76100037" lon="-6.41235204"><ele>1985</ele><speed>11.75</speed><time>2016-06-21T16:53:01Z</time><pdop>3.0</pdop><geoidheight>54.00</geoidheight><course>336.1</course><type>1</type></trkpt>
      <trkpt lat="39.76109538" lon="-6.41241785"><ele>1983</ele><speed>12.00</speed><time>2016-06-21T16:53:02Z</time><pdop>3.0</pdop><geoidheight>54.00</geoidheight><course>333.4</course><type>1</type></trkpt>
      <trkpt lat="39.76129977" lon="-6.41256156"><ele>1979</ele><speed>12.75</speed><time>2016-06-21T16:53:04Z</time><pdop>3.0</pdop><geoidheight>54.00</geoidheight><course>331.3</course><type>1</type></trkpt>
      <trkpt lat="39.76139688" lon="-6.41263526"><ele>1977</ele><speed>12.75</speed><time>2016-06-21T16:53:05Z</time><pdop>3.0</pdop><geoidheight>54.00</geoidheight><course>329.2</course><type>1</type></trkpt>
      <trkpt lat="39.76149035" lon="-6.41271662"><ele>1976</ele><speed>12.75</speed><time>2016-06-21T16:53:06Z</time><pdop>3.0</pdop><geoidheight>54.00</geoidheight><course>326.3</course><type>1</type></trkpt>
      <trkpt lat="39.76167629" lon="-6.41289713"><ele>1973</ele><speed>13.00</speed><time>2016-06-21T16:53:08Z</time><pdop>3.0</pdop><geoidheight>54.00</geoidheight><course>323.0</course><type>1</type></trkpt>
      <trkpt lat="39.76176978" lon="-6.41298656"><ele>1972</ele><speed>13.00</speed><time>2016-06-21T16:53:09Z</time><pdop>3.0</pdop><geoidheight>54.00</geoidheight><course>323.9</course><type>1</type></trkpt>
      <trkpt lat="39.76196607" lon="-6.41315062"><ele>1970</ele><speed>13.00</speed><time>2016-06-21T16:53:11Z</time><pdop>3.0</pdop><geoidheight>54.00</geoidheight><course>328.3</course><type>1</type></trkpt>
      <trkpt lat="39.76206864" lon="-6.41322594"><ele>1970</ele><speed>13.00</speed><time>2016-06-21T16:53:12Z</time><pdop>3.0</pdop><geoidheight>54.00</geoidheight><course>330.2</course><type>1</type></trkpt>
      <trkpt lat="39.76217149" lon="-6.41330086"><ele>1969</ele><speed>13.00</speed><time>2016-06-21T16:53:13Z</time><pdop>3.0</pdop><geoidheight>54.00</geoidheight><course>331.4</course><type>1</type></trkpt>
      <trkpt lat="39.76237681" lon="-6.413441"><ele>1969</ele><speed>13.00</speed><time>2016-06-21T16:53:15Z</time><pdop>3.0</pdop><geoidheight>54.00</geoidheight><course>330.3</course><type>1</type></trkpt>
      <trkpt lat="39.76247451" lon="-6.4135215"><ele>1969</ele><speed>12.75</speed><time>2016-06-21T16:53:16Z</time><pdop>3.0</pdop><geoidheight>54.00</geoidheight><course>328.6</course><type>1</type></trkpt>
      <trkpt lat="39.76256457" lon="-6.41359733"><ele>1970</ele><speed>12.00</speed><time>2016-06-21T16:53:17Z</time><pdop>3.0</pdop><geoidheight>54.00</geoidheight><course>327.8</course><type>1</type></trkpt>
      <trkpt lat="39.76273987" lon="-6.41372267"><ele>1971</ele><speed>11.25</speed><time>2016-06-21T16:53:19Z</time><pdop>3.0</pdop><geoidheight>54.00</geoidheight><course>332.1</course><type>1</type></trkpt>
      <trkpt lat="39.76283293" lon="-6.4137824"><ele>1972</ele><speed>11.75</speed><time>2016-06-21T16:53:20Z</time><pdop>3.0</pdop><geoidheight>54.00</geoidheight><course>333.5</course><type>1</type></trkpt>
      <trkpt lat="39.76292946" lon="-6.41384156"><ele>1973</ele><speed>12.00</speed><time>2016-06-21T16:53:21Z</time><pdop>3.0</pdop><geoidheight>54.00</geoidheight><course>334.0</course><type>1</type></trkpt>
      <trkpt lat="39.7631133" lon="-6.41391363"><ele>1994</ele><speed>10.25</speed><time>2016-06-21T16:53:23Z</time><pdop>3.0</pdop><geoidheight>54.00</geoidheight><course>344.7</course><type>1</type></trkpt>
      <trkpt lat="39.76319819" lon="-6.413907"><ele>1985</ele><speed>9.50</speed><time>2016-06-21T16:53:24Z</time><pdop>3.0</pdop><geoidheight>54.00</geoidheight><course>358.2</course><type>1</type></trkpt>
      <trkpt lat="39.76328218" lon="-6.41387384"><ele>1978</ele><speed>9.75</speed><time>2016-06-21T16:53:25Z</time><pdop>3.0</pdop><geoidheight>54.00</geoidheight><course>13.6</course><type>1</type></trkpt>
      <trkpt lat="39.76344001" lon="-6.41373582"><ele>1970</ele><speed>10.50</speed><time>2016-06-21T16:53:27Z</time><pdop>3.0</pdop><geoidheight>54.00</geoidheight><course>36.4</course><type>1</type></trkpt>
      <trkpt lat="39.76351461" lon="-6.41365168"><ele>1968</ele><speed>10.50</speed><time>2016-06-21T16:53:28Z</time><pdop>3.0</pdop><geoidheight>54.00</geoidheight><course>38.4</course><type>1</type></trkpt>
      <trkpt lat="39.76358941" lon="-6.41358951"><ele>1967</ele><speed>10.00</speed><time>2016-06-21T16:53:29Z</time><pdop>3.0</pdop><geoidheight>54.00</geoidheight><course>33.1</course><type>1</type></trkpt>
      <trkpt lat="39.76375809" lon="-6.41351474"><ele>1963</ele><speed>10.25</speed><time>2016-06-21T16:53:31Z</time><pdop>3.0</pdop><geoidheight>54.00</geoidheight><course>17.4</course><type>1</type></trkpt>
      <trkpt lat="39.76385548" lon="-6.41348944"><ele>1962</ele><speed>11.25</speed><time>2016-06-21T16:53:32Z</time><pdop>3.0</pdop><geoidheight>54.00</geoidheight><course>12.3</course><type>1</type></trkpt>
      <trkpt lat="39.76395804" lon="-6.41347788"><ele>1961</ele><speed>11.50</speed><time>2016-06-21T16:53:33Z</time><pdop>3.0</pdop><geoidheight>54.00</geoidheight><course>5.6</course><type>1</type></trkpt>
      <trkpt lat="39.76416396" lon="-6.4134867"><ele>1959</ele><speed>11.50</speed><time>2016-06-21T16:53:35Z</time><pdop>4.0</pdop><geoidheight>54.00</geoidheight><course>358.4</course><type>1</type></trkpt>
      <trkpt lat="39.76426779" lon="-6.41353973"><ele>1959</ele><speed>12.00</speed><time>2016-06-21T16:53:36Z</time><pdop>3.0</pdop><geoidheight>54.00</geoidheight><course>346.7</course><type>1</type></trkpt>
      <trkpt lat="39.76437409" lon="-6.41358463"><ele>1959</ele><speed>12.50</speed><time>2016-06-21T16:53:37Z</time><pdop>4.0</pdop><geoidheight>54.00</geoidheight><course>342.7</course><type>1</type></trkpt>
      <trkpt lat="39.76458491" lon="-6.41372595"><ele>1959</ele><speed>13.25</speed><time>2016-06-21T16:53:39Z</time><pdop>3.0</pdop><geoidheight>54.00</geoidheight><course>331.6</course><type>1</type></trkpt>
      <trkpt lat="39.76476746" lon="-6.41392822"><ele>1959</ele><speed>13.25</speed><time>2016-06-21T16:53:41Z</time><pdop>3.0</pdop><geoidheight>54.00</geoidheight><course>317.6</course><type>1</type></trkpt>
      <trkpt lat="39.76490704" lon="-6.41414281"><ele>1959</ele><speed>11.50</speed><time>2016-06-21T16:53:43Z</time><pdop>3.0</pdop><geoidheight>54.00</geoidheight><course>308.1</course><type>1</type></trkpt>
      <trkpt lat="39.76497073" lon="-6.41424576"><ele>1958</ele><speed>11.25</speed><time>2016-06-21T16:53:44Z</time><pdop>3.0</pdop><geoidheight>54.00</geoidheight><course>308.8</course><type>1</type></trkpt>
      <trkpt lat="39.76503846" lon="-6.41434651"><ele>1957</ele><speed>11.50</speed><time>2016-06-21T16:53:45Z</time><pdop>3.0</pdop><geoidheight>54.00</geoidheight><course>310.7</course><type>1</type></trkpt>
      <trkpt lat="39.76511159" lon="-6.4144472"><ele>1956</ele><speed>11.75</speed><time>2016-06-21T16:53:46Z</time><pdop>3.0</pdop><geoidheight>54.00</geoidheight><course>312.2</course><type>1</type></trkpt>
      <trkpt lat="39.76517948" lon="-6.4145358"><ele>1955</ele><speed>10.75</speed><time>2016-06-21T16:53:47Z</time><pdop>3.0</pdop><geoidheight>54.00</geoidheight><course>313.8</course><type>1</type></trkpt>
      <trkpt lat="39.76523858" lon="-6.41461801"><ele>1954</ele><speed>9.75</speed><time>2016-06-21T16:53:48Z</time><pdop>3.0</pdop><geoidheight>54.00</geoidheight><course>313.3</course><type>1</type></trkpt>
      <trkpt lat="39.76530068" lon="-6.41470465"><ele>1953</ele><speed>10.00</speed><time>2016-06-21T16:53:49Z</time><pdop>4.0</pdop><geoidheight>54.00</geoidheight><course>313.6</course><type>1</type></trkpt>
      <trkpt lat="39.76536498" lon="-6.41480267"><ele>1950</ele><speed>11.00</speed><time>2016-06-21T16:53:50Z</time><pdop>3.0</pdop><geoidheight>54.00</geoidheight><course>310.2</course><type>1</type></trkpt>
      <trkpt lat="39.76550805" lon="-6.41502927"><ele>1948</ele><speed>12.50</speed><time>2016-06-21T16:53:52Z</time><pdop>3.0</pdop><geoidheight>54.00</geoidheight><course>308.5</course><type>1</type></trkpt>
      <trkpt lat="39.76558261" lon="-6.41514788"><ele>1948</ele><speed>13.00</speed><time>2016-06-21T16:53:53Z</time><pdop>3.0</pdop><geoidheight>54.00</geoidheight><course>308.6</course><type>1</type></trkpt>
      <trkpt lat="39.76565688" lon="-6.41526519"><ele>1948</ele><speed>13.00</speed><time>2016-06-21T16:53:54Z</time><pdop>3.0</pdop><geoidheight>54.00</geoidheight><course>308.6</course><type>1</type></trkpt>
      <trkpt lat="39.76580111" lon="-6.41548704"><ele>1949</ele><speed>12.25</speed><time>2016-06-21T16:53:56Z</time><pdop>3.0</pdop><geoidheight>54.00</geoidheight><course>310.6</course><type>1</type></trkpt>
      <trkpt lat="39.76587114" lon="-6.41559151"><ele>1948</ele><speed>12.00</speed><time>2016-06-21T16:53:57Z</time><pdop>3.0</pdop><geoidheight>54.00</geoidheight><course>311.6</course><type>1</type></trkpt>
      <trkpt lat="39.76601658" lon="-6.41580923"><ele>1947</ele><speed>12.25</speed><time>2016-06-21T16:53:59Z</time><pdop>5.0</pdop><geoidheight>54.00</geoidheight><course>311.4</course><type>1</type></trkpt>
      <trkpt lat="39.7660895" lon="-6.41593061"><ele>1946</ele><speed>12.75</speed><time>2016-06-21T16:54:00Z</time><pdop>3.0</pdop><geoidheight>54.00</geoidheight><course>309.9</course><type>1</type></trkpt>
      <trkpt lat="39.76624197" lon="-6.41616361"><ele>1946</ele><speed>13.00</speed><time>2016-06-21T16:54:02Z</time><pdop>3.0</pdop><geoidheight>54.00</geoidheight><course>311.9</course><type>1</type></trkpt>
      <trkpt lat="39.76639776" lon="-6.41639909"><ele>1944</ele><speed>13.25</speed><time>2016-06-21T16:54:04Z</time><pdop>3.0</pdop><geoidheight>54.00</geoidheight><course>310.2</course><type>1</type></trkpt>
      <trkpt lat="39.76647365" lon="-6.41651277"><ele>1943</ele><speed>13.00</speed><time>2016-06-21T16:54:05Z</time><pdop>3.0</pdop><geoidheight>54.00</geoidheight><course>310.5</course><type>1</type></trkpt>
      <trkpt lat="39.7665545" lon="-6.41663212"><ele>1940</ele><speed>13.25</speed><time>2016-06-21T16:54:06Z</time><pdop>3.0</pdop><geoidheight>54.00</geoidheight><course>311.3</course><type>1</type></trkpt>
      <trkpt lat="39.76663699" lon="-6.4167536"><ele>1939</ele><speed>13.75</speed><time>2016-06-21T16:54:07Z</time><pdop>3.0</pdop><geoidheight>54.00</geoidheight><course>310.9</course><type>1</type></trkpt>
      <trkpt lat="39.76671548" lon="-6.41687759"><ele>1937</ele><speed>13.75</speed><time>2016-06-21T16:54:08Z</time><pdop>3.0</pdop><geoidheight>54.00</geoidheight><course>309.9</course><type>1</type></trkpt>
      <trkpt lat="39.76686638" lon="-6.4171046"><ele>1937</ele><speed>12.25</speed><time>2016-06-21T16:54:10Z</time><pdop>3.0</pdop><geoidheight>54.00</geoidheight><course>312.9</course><type>1</type></trkpt>
      <trkpt lat="39.76694083" lon="-6.41720045"><ele>1937</ele><speed>11.50</speed><time>2016-06-21T16:54:11Z</time><pdop>3.0</pdop><geoidheight>54.00</geoidheight><course>313.9</course><type>1</type></trkpt>
      <trkpt lat="39.76708658" lon="-6.41739021"><ele>1940</ele><speed>11.50</speed><time>2016-06-21T16:54:13Z</time><pdop>3.0</pdop><geoidheight>54.00</geoidheight><course>314.4</course><type>1</type></trkpt>
      <trkpt lat="39.76715671" lon="-6.4174957"><ele>1939</ele><speed>12.00</speed><time>2016-06-21T16:54:14Z</time><pdop>3.0</pdop><geoidheight>54.00</geoidheight><course>311.1</course><type>1</type></trkpt>
      <trkpt lat="39.76722514" lon="-6.41762112"><ele>1938</ele><speed>13.00</speed><time>2016-06-21T16:54:15Z</time><pdop>4.0</pdop><geoidheight>54.00</geoidheight><course>305.8</course><type>1</type></trkpt>
      <trkpt lat="39.76736266" lon="-6.41791001"><ele>1939</ele><speed>14.50</speed><time>2016-06-21T16:54:17Z</time><pdop>3.0</pdop><geoidheight>54.00</geoidheight><course>300.7</course><type>1</type></trkpt>
      <trkpt lat="39.76742705" lon="-6.41804714"><ele>1940</ele><speed>14.00</speed><time>2016-06-21T16:54:18Z</time><pdop>3.0</pdop><geoidheight>54.00</geoidheight><course>300.8</course><type>1</type></trkpt>
      <trkpt lat="39.76749385" lon="-6.41818447"><ele>1942</ele><speed>13.75</speed><time>2016-06-21T16:54:19Z</time><pdop>3.0</pdop><geoidheight>54.00</geoidheight><course>302.6</course><type>1</type></trkpt>
      <trkpt lat="39.7676446" lon="-6.41845276"><ele>1944</ele><speed>13.75</speed><time>2016-06-21T16:54:21Z</time><pdop>4.0</pdop><geoidheight>54.00</geoidheight><course>307.0</course><type>1</type></trkpt>
      <trkpt lat="39.76771218" lon="-6.41857761"><ele>1945</ele><speed>13.25</speed><time>2016-06-21T16:54:22Z</time><pdop>3.0</pdop><geoidheight>54.00</geoidheight><course>306.0</course><type>1</type></trkpt>
      <trkpt lat="39.76783095" lon="-6.41885306"><ele>1944</ele><speed>13.50</speed><time>2016-06-21T16:54:24Z</time><pdop>3.0</pdop><geoidheight>54.00</geoidheight><course>296.7</course><type>1</type></trkpt>
      <trkpt lat="39.76788689" lon="-6.41900353"><ele>1942</ele><speed>14.00</speed><time>2016-06-21T16:54:25Z</time><pdop>4.0</pdop><geoidheight>54.00</geoidheight><course>295.4</course><type>1</type></trkpt>
      <trkpt lat="39.76794732" lon="-6.41916755"><ele>1941</ele><speed>15.00</speed><time>2016-06-21T16:54:26Z</time><pdop>4.0</pdop><geoidheight>54.00</geoidheight><course>294.8</course><type>1</type></trkpt>
      <trkpt lat="39.76800982" lon="-6.41932273"><ele>1939</ele><speed>15.25</speed><time>2016-06-21T16:54:27Z</time><pdop>3.0</pdop><geoidheight>54.00</geoidheight><course>296.7</course><type>1</type></trkpt>
      <trkpt lat="39.76814212" lon="-6.41961861"><ele>1936</ele><speed>14.50</speed><time>2016-06-21T16:54:29Z</time><pdop>3.0</pdop><geoidheight>54.00</geoidheight><course>299.8</course><type>1</type></trkpt>
      <trkpt lat="39.76820652" lon="-6.41976308"><ele>1934</ele><speed>14.25</speed><time>2016-06-21T16:54:30Z</time><pdop>3.0</pdop><geoidheight>54.00</geoidheight><course>299.7</course><type>1</type></trkpt>
      <trkpt lat="39.76834014" lon="-6.42003894"><ele>1932</ele><speed>14.00</speed><time>2016-06-21T16:54:32Z</time><pdop>3.0</pdop><geoidheight>54.00</geoidheight><course>303.0</course><type>1</type></trkpt>
      <trkpt lat="39.7684127" lon="-6.42016551"><ele>1929</ele><speed>13.50</speed><time>2016-06-21T16:54:33Z</time><pdop>3.0</pdop><geoidheight>54.00</geoidheight><course>305.9</course><type>1</type></trkpt>
      <trkpt lat="39.7685656" lon="-6.42040221"><ele>1924</ele><speed>13.25</speed><time>2016-06-21T16:54:35Z</time><pdop>3.0</pdop><geoidheight>54.00</geoidheight><course>309.2</course><type>1</type></trkpt>
      <trkpt lat="39.76871618" lon="-6.42065589"><ele>1918</ele><speed>14.00</speed><time>2016-06-21T16:54:37Z</time><pdop>3.0</pdop><geoidheight>54.00</geoidheight><course>307.0</course><type>1</type></trkpt>
      <trkpt lat="39.76879549" lon="-6.42078665"><ele>1916</ele><speed>14.00</speed><time>2016-06-21T16:54:38Z</time><pdop>3.0</pdop><geoidheight>54.00</geoidheight><course>308.0</course><type>1</type></trkpt>
      <trkpt lat="39.76887901" lon="-6.42091175"><ele>1913</ele><speed>14.50</speed><time>2016-06-21T16:54:39Z</time><pdop>3.0</pdop><geoidheight>54.00</geoidheight><course>310.4</course><type>1</type></trkpt>
      <trkpt lat="39.76905985" lon="-6.42115949"><ele>1909</ele><speed>14.25</speed><time>2016-06-21T16:54:41Z</time><pdop>3.0</pdop><geoidheight>54.00</geoidheight><course>313.7</course><type>1</type></trkpt>
      <trkpt lat="39.76914857" lon="-6.42127302"><ele>1907</ele><speed>13.75</speed><time>2016-06-21T16:54:42Z</time><pdop>3.0</pdop><geoidheight>54.00</geoidheight><course>314.5</course><type>1</type></trkpt>
      <trkpt lat="39.76923292" lon="-6.42138707"><ele>1906</ele><speed>13.50</speed><time>2016-06-21T16:54:43Z</time><pdop>3.0</pdop><geoidheight>54.00</geoidheight><course>314.0</course><type>1</type></trkpt>
      <trkpt lat="39.76940713" lon="-6.42159387"><ele>1902</ele><speed>13.25</speed><time>2016-06-21T16:54:45Z</time><pdop>3.0</pdop><geoidheight>54.00</geoidheight><course>318.9</course><type>1</type></trkpt>
      <trkpt lat="39.76960178" lon="-6.42178606"><ele>1897</ele><speed>13.75</speed><time>2016-06-21T16:54:47Z</time><pdop>3.0</pdop><geoidheight>54.00</geoidheight><course>322.8</course><type>1</type></trkpt>
      <trkpt lat="39.76970404" lon="-6.421886"><ele>1896</ele><speed>14.25</speed><time>2016-06-21T16:54:48Z</time><pdop>3.0</pdop><geoidheight>54.00</geoidheight><course>322.5</course><type>1</type></trkpt>
      <trkpt lat="39.76990348" lon="-6.42207543"><ele>1894</ele><speed>13.50</speed><time>2016-06-21T16:54:50Z</time><pdop>3.0</pdop><geoidheight>54.00</geoidheight><course>324.1</course><type>1</type></trkpt>
      <trkpt lat="39.77001221" lon="-6.4221586"><ele>1893</ele><speed>13.75</speed><time>2016-06-21T16:54:51Z</time><pdop>3.0</pdop><geoidheight>54.00</geoidheight><course>328.1</course><type>1</type></trkpt>
      <trkpt lat="39.77023236" lon="-6.42231186"><ele>1891</ele><speed>13.75</speed><time>2016-06-21T16:54:53Z</time><pdop>3.0</pdop><geoidheight>54.00</geoidheight><course>331.4</course><type>1</type></trkpt>
      <trkpt lat="39.77044398" lon="-6.42245744"><ele>1892</ele><speed>13.00</speed><time>2016-06-21T16:54:55Z</time><pdop>3.0</pdop><geoidheight>54.00</geoidheight><course>331.8</course><type>1</type></trkpt>
      <trkpt lat="39.7705429" lon="-6.42251994"><ele>1892</ele><speed>12.25</speed><time>2016-06-21T16:54:56Z</time><pdop>4.0</pdop><geoidheight>54.00</geoidheight><course>332.8</course><type>1</type></trkpt>
      <trkpt lat="39.77073486" lon="-6.42264035"><ele>1891</ele><speed>12.00</speed><time>2016-06-21T16:54:58Z</time><pdop>3.0</pdop><geoidheight>54.00</geoidheight><course>333.6</course><type>1</type></trkpt>
      <trkpt lat="39.77083085" lon="-6.42270135"><ele>1891</ele><speed>12.25</speed><time>2016-06-21T16:54:59Z</time><pdop>3.0</pdop><geoidheight>54.00</geoidheight><course>333.0</course><type>1</type></trkpt>
      <trkpt lat="39.77102276" lon="-6.42281636"><ele>1892</ele><speed>11.50</speed><time>2016-06-21T16:55:01Z</time><pdop>3.0</pdop><geoidheight>54.00</geoidheight><course>336.6</course><type>1</type></trkpt>
      <trkpt lat="39.77117853" lon="-6.42289961"><ele>1893</ele><speed>9.25</speed><time>2016-06-21T16:55:03Z</time><pdop>4.0</pdop><geoidheight>54.00</geoidheight><course>337.4</course><type>1</type></trkpt>
      <trkpt lat="39.77125383" lon="-6.42293971"><ele>1892</ele><speed>9.25</speed><time>2016-06-21T16:55:04Z</time><pdop>3.0</pdop><geoidheight>54.00</geoidheight><course>336.6</course><type>1</type></trkpt>
      <trkpt lat="39.7713327" lon="-6.42298558"><ele>1889</ele><speed>9.50</speed><time>2016-06-21T16:55:05Z</time><pdop>3.0</pdop><geoidheight>54.00</geoidheight><course>333.8</course><type>1</type></trkpt>
      <trkpt lat="39.77148371" lon="-6.42311727"><ele>1883</ele><speed>10.50</speed><time>2016-06-21T16:55:07Z</time><pdop>3.0</pdop><geoidheight>54.00</geoidheight><course>325.3</course><type>1</type></trkpt>
      <trkpt lat="39.77156342" lon="-6.42319588"><ele>1881</ele><speed>11.00</speed><time>2016-06-21T16:55:08Z</time><pdop>3.0</pdop><geoidheight>54.00</geoidheight><course>322.7</course><type>1</type></trkpt>
      <trkpt lat="39.77173253" lon="-6.42335763"><ele>1879</ele><speed>11.50</speed><time>2016-06-21T16:55:10Z</time><pdop>3.0</pdop><geoidheight>54.00</geoidheight><course>323.7</course><type>1</type></trkpt>
      <trkpt lat="39.77181808" lon="-6.42342853"><ele>1879</ele><speed>11.25</speed><time>2016-06-21T16:55:11Z</time><pdop>3.0</pdop><geoidheight>54.00</geoidheight><course>327.5</course><type>1</type></trkpt>
      <trkpt lat="39.77197787" lon="-6.42356256"><ele>1878</ele><speed>10.25</speed><time>2016-06-21T16:55:13Z</time><pdop>3.0</pdop><geoidheight>54.00</geoidheight><course>326.2</course><type>1</type></trkpt>
      <trkpt lat="39.77205056" lon="-6.42363727"><ele>1875</ele><speed>10.50</speed><time>2016-06-21T16:55:14Z</time><pdop>3.0</pdop><geoidheight>54.00</geoidheight><course>321.2</course><type>1</type></trkpt>
      <trkpt lat="39.7721877" lon="-6.42382539"><ele>1872</ele><speed>11.50</speed><time>2016-06-21T16:55:16Z</time><pdop>3.0</pdop><geoidheight>54.00</geoidheight><course>312.5</course><type>1</type></trkpt>
      <trkpt lat="39.77232556" lon="-6.42401554"><ele>1869</ele><speed>11.00</speed><time>2016-06-21T16:55:18Z</time><pdop>3.0</pdop><geoidheight>54.00</geoidheight><course>314.6</course><type>1</type></trkpt>
      <trkpt lat="39.77239512" lon="-6.42410258"><ele>1868</ele><speed>11.00</speed><time>2016-06-21T16:55:19Z</time><pdop>3.0</pdop><geoidheight>54.00</geoidheight><course>315.5</course><type>1</type></trkpt>
      <trkpt lat="39.7724638" lon="-6.42419398"><ele>1866</ele><speed>11.00</speed><time>2016-06-21T16:55:20Z</time><pdop>3.0</pdop><geoidheight>54.00</geoidheight><course>314.3</course><type>1</type></trkpt>
      <trkpt lat="39.77260393" lon="-6.42438004"><ele>1864</ele><speed>11.25</speed><time>2016-06-21T16:55:22Z</time><pdop>3.0</pdop><geoidheight>54.00</geoidheight><course>315.1</course><type>1</type></trkpt>
      <trkpt lat="39.77267961" lon="-6.42446874"><ele>1863</ele><speed>11.25</speed><time>2016-06-21T16:55:23Z</time><pdop>3.0</pdop><geoidheight>54.00</geoidheight><course>317.8</course><type>1</type></trkpt>
      <trkpt lat="39.77275285" lon="-6.42455061"><ele>1892</ele><speed>10.75</speed><time>2016-06-21T16:55:24Z</time><pdop>3.0</pdop><geoidheight>54.00</geoidheight><course>319.5</course><type>1</type></trkpt>
      <trkpt lat="39.77282042" lon="-6.42462969"><ele>1879</ele><speed>10.00</speed><time>2016-06-21T16:55:25Z</time><pdop>3.0</pdop><geoidheight>54.00</geoidheight><course>317.6</course><type>1</type></trkpt>
      <trkpt lat="39.77294092" lon="-6.42478964"><ele>1868</ele><speed>9.25</speed><time>2016-06-21T16:55:27Z</time><pdop>3.0</pdop><geoidheight>54.00</geoidheight><course>312.9</course><type>1</type></trkpt>
      <trkpt lat="39.77299625" lon="-6.4248763"><ele>1865</ele><speed>9.25</speed><time>2016-06-21T16:55:28Z</time><pdop>3.0</pdop><geoidheight>54.00</geoidheight><course>310.8</course><type>1</type></trkpt>
      <trkpt lat="39.77305217" lon="-6.42496325"><ele>1863</ele><speed>9.50</speed><time>2016-06-21T16:55:29Z</time><pdop>3.0</pdop><geoidheight>54.00</geoidheight><course>310.9</course><type>1</type></trkpt>
      <trkpt lat="39.77310908" lon="-6.42504824"><ele>1862</ele><speed>9.75</speed><time>2016-06-21T16:55:30Z</time><pdop>3.0</pdop><geoidheight>54.00</geoidheight><course>311.3</course><type>1</type></trkpt>
      <trkpt lat="39.77322946" lon="-6.42522214"><ele>1859</ele><speed>10.25</speed><time>2016-06-21T16:55:32Z</time><pdop>3.0</pdop><geoidheight>54.00</geoidheight><course>312.6</course><type>1</type></trkpt>
      <trkpt lat="39.77335894" lon="-6.42538469"><ele>1859</ele><speed>9.75</speed><time>2016-06-21T16:55:34Z</time><pdop>3.0</pdop><geoidheight>54.00</geoidheight><course>317.1</course><type>1</type></trkpt>
      <trkpt lat="39.7734875" lon="-6.42553449"><ele>1858</ele><speed>9.75</speed><time>2016-06-21T16:55:36Z</time><pdop>3.0</pdop><geoidheight>54.00</geoidheight><course>316.8</course><type>1</type></trkpt>
      <trkpt lat="39.77355033" lon="-6.42561404"><ele>1858</ele><speed>10.00</speed><time>2016-06-21T16:55:37Z</time><pdop>3.0</pdop><geoidheight>54.00</geoidheight><course>315.9</course><type>1</type></trkpt>
      <trkpt lat="39.77361673" lon="-6.42569199"><ele>1858</ele><speed>10.00</speed><time>2016-06-21T16:55:38Z</time><pdop>3.0</pdop><geoidheight>54.00</geoidheight><course>316.8</course><type>1</type></trkpt>
      <trkpt lat="39.77368427" lon="-6.42576777"><ele>1858</ele><speed>10.00</speed><time>2016-06-21T16:55:39Z</time><pdop>3.0</pdop><geoidheight>54.00</geoidheight><course>318.9</course><type>1</type></trkpt>
      <trkpt lat="39.77382716" lon="-6.42591364"><ele>1866</ele><speed>10.00</speed><time>2016-06-21T16:55:41Z</time><pdop>3.0</pdop><geoidheight>54.00</geoidheight><course>320.5</course><type>1</type></trkpt>
      <trkpt lat="39.77389506" lon="-6.42598427"><ele>1862</ele><speed>9.75</speed><time>2016-06-21T16:55:42Z</time><pdop>3.0</pdop><geoidheight>54.00</geoidheight><course>320.0</course><type>1</type></trkpt>
      <trkpt lat="39.77403082" lon="-6.4261201"><ele>1855</ele><speed>9.75</speed><time>2016-06-21T16:55:44Z</time><pdop>3.0</pdop><geoidheight>54.00</geoidheight><course>323.6</course><type>1</type></trkpt>
      <trkpt lat="39.77410647" lon="-6.42617804"><ele>1854</ele><speed>10.00</speed><time>2016-06-21T16:55:45Z</time><pdop>3.0</pdop><geoidheight>54.00</geoidheight><course>328.3</course><type>1</type></trkpt>
      <trkpt lat="39.77427914" lon="-6.42627521"><ele>1852</ele><speed>10.50</speed><time>2016-06-21T16:55:47Z</time><pdop>3.0</pdop><geoidheight>54.00</geoidheight><course>336.8</course><type>1</type></trkpt>
      <trkpt lat="39.77436445" lon="-6.42632051"><ele>1852</ele><speed>10.50</speed><time>2016-06-21T16:55:48Z</time><pdop>4.0</pdop><geoidheight>54.00</geoidheight><course>337.2</course><type>1</type></trkpt>
      <trkpt lat="39.77452474" lon="-6.42642169"><ele>1851</ele><speed>10.00</speed><time>2016-06-21T16:55:50Z</time><pdop>3.0</pdop><geoidheight>54.00</geoidheight><course>332.6</course><type>1</type></trkpt>
      <trkpt lat="39.77460747" lon="-6.4264787"><ele>1850</ele><speed>10.25</speed><time>2016-06-21T16:55:51Z</time><pdop>3.0</pdop><geoidheight>54.00</geoidheight><course>331.4</course><type>1</type></trkpt>
      <trkpt lat="39.77477877" lon="-6.42659417"><ele>1847</ele><speed>11.00</speed><time>2016-06-21T16:55:53Z</time><pdop>3.0</pdop><geoidheight>54.00</geoidheight><course>332.4</course><type>1</type></trkpt>
      <trkpt lat="39.7748683" lon="-6.42665565"><ele>1846</ele><speed>11.25</speed><time>2016-06-21T16:55:54Z</time><pdop>3.0</pdop><geoidheight>54.00</geoidheight><course>332.1</course><type>1</type></trkpt>
      <trkpt lat="39.77495215" lon="-6.426719"><ele>1846</ele><speed>11.00</speed><time>2016-06-21T16:55:55Z</time><pdop>3.0</pdop><geoidheight>54.00</geoidheight><course>331.1</course><type>1</type></trkpt>
      <trkpt lat="39.77511765" lon="-6.42683782"><ele>1846</ele><speed>10.50</speed><time>2016-06-21T16:55:57Z</time><pdop>5.0</pdop><geoidheight>54.00</geoidheight><course>331.1</course><type>1</type></trkpt>
      <trkpt lat="39.77520316" lon="-6.42688726"><ele>1845</ele><speed>10.25</speed><time>2016-06-21T16:55:58Z</time><pdop>3.0</pdop><geoidheight>54.00</geoidheight><course>334.2</course><type>1</type></trkpt>
      <trkpt lat="39.7752912" lon="-6.42693671"><ele>1843</ele><speed>10.50</speed><time>2016-06-21T16:55:59Z</time><pdop>3.0</pdop><geoidheight>54.00</geoidheight><course>335.5</course><type>1</type></trkpt>
      <trkpt lat="39.77546524" lon="-6.427047"><ele>1840</ele><speed>10.50</speed><time>2016-06-21T16:56:01Z</time><pdop>3.0</pdop><geoidheight>54.00</geoidheight><course>332.8</course><type>1</type></trkpt>
      <trkpt lat="39.77554835" lon="-6.42710635"><ele>1839</ele><speed>10.50</speed><time>2016-06-21T16:56:02Z</time><pdop>3.0</pdop><geoidheight>54.00</geoidheight><course>331.0</course><type>1</type></trkpt>
      <trkpt lat="39.77563052" lon="-6.42716673"><ele>1837</ele><speed>10.75</speed><time>2016-06-21T16:56:03Z</time><pdop>3.0</pdop><geoidheight>54.00</geoidheight><course>330.9</course><type>1</type></trkpt>
      <trkpt lat="39.77580371" lon="-6.42728147"><ele>1833</ele><speed>10.75</speed><time>2016-06-21T16:56:05Z</time><pdop>3.0</pdop><geoidheight>54.00</geoidheight><course>333.2</course><type>1</type></trkpt>
      <trkpt lat="39.77588906" lon="-6.42733229"><ele>1832</ele><speed>10.50</speed><time>2016-06-21T16:56:06Z</time><pdop>3.0</pdop><geoidheight>54.00</geoidheight><course>334.7</course><type>1</type></trkpt>
      <trkpt lat="39.77605576" lon="-6.42743334"><ele>1828</ele><speed>10.50</speed><time>2016-06-21T16:56:08Z</time><pdop>4.0</pdop><geoidheight>54.00</geoidheight><course>335.5</course><type>1</type></trkpt>
      <trkpt lat="39.77614572" lon="-6.42748313"><ele>1827</ele><speed>10.75</speed><time>2016-06-21T16:56:09Z</time><pdop>4.0</pdop><geoidheight>54.00</geoidheight><course>336.6</course><type>1</type></trkpt>
      <trkpt lat="39.77633616" lon="-6.4275777"><ele>1822</ele><speed>11.50</speed><time>2016-06-21T16:56:11Z</time><pdop>3.0</pdop><geoidheight>54.00</geoidheight><course>337.5</course><type>1</type></trkpt>
      <trkpt lat="39.77643027" lon="-6.42763853"><ele>1821</ele><speed>11.75</speed><time>2016-06-21T16:56:12Z</time><pdop>3.0</pdop><geoidheight>54.00</geoidheight><course>333.8</course><type>1</type></trkpt>
      <trkpt lat="39.77652128" lon="-6.42770898"><ele>1820</ele><speed>11.75</speed><time>2016-06-21T16:56:13Z</time><pdop>3.0</pdop><geoidheight>54.00</geoidheight><course>331.5</course><type>1</type></trkpt>
      <trkpt lat="39.77670322" lon="-6.42783283"><ele>1818</ele><speed>11.25</speed><time>2016-06-21T16:56:15Z</time><pdop>3.0</pdop><geoidheight>54.00</geoidheight><course>333.2</course><type>1</type></trkpt>
      <trkpt lat="39.77679646" lon="-6.42789332"><ele>1816</ele><speed>11.25</speed><time>2016-06-21T16:56:16Z</time><pdop>3.0</pdop><geoidheight>54.00</geoidheight><course>334.7</course><type>1</type></trkpt>
      <trkpt lat="39.77689063" lon="-6.42794719"><ele>1815</ele><speed>11.50</speed><time>2016-06-21T16:56:17Z</time><pdop>3.0</pdop><geoidheight>54.00</geoidheight><course>334.9</course><type>1</type></trkpt>
      <trkpt lat="39.77707493" lon="-6.42808436"><ele>1811</ele><speed>11.75</speed><time>2016-06-21T16:56:19Z</time><pdop>3.0</pdop><geoidheight>54.00</geoidheight><course>329.3</course><type>1</type></trkpt>
      <trkpt lat="39.77716424" lon="-6.42816261"><ele>1810</ele><speed>11.75</speed><time>2016-06-21T16:56:20Z</time><pdop>3.0</pdop><geoidheight>54.00</geoidheight><course>327.8</course><type>1</type></trkpt>
      <trkpt lat="39.77734187" lon="-6.42829786"><ele>1808</ele><speed>11.25</speed><time>2016-06-21T16:56:22Z</time><pdop>3.0</pdop><geoidheight>54.00</geoidheight><course>329.2</course><type>1</type></trkpt>
      <trkpt lat="39.77742874" lon="-6.42836332"><ele>1807</ele><speed>11.25</speed><time>2016-06-21T16:56:23Z</time><pdop>3.0</pdop><geoidheight>54.00</geoidheight><course>329.2</course><type>1</type></trkpt>
      <trkpt lat="39.77760922" lon="-6.42852286"><ele>1804</ele><speed>12.50</speed><time>2016-06-21T16:56:25Z</time><pdop>4.0</pdop><geoidheight>54.00</geoidheight><course>324.7</course><type>1</type></trkpt>
      <trkpt lat="39.77770541" lon="-6.42860563"><ele>1802</ele><speed>12.75</speed><time>2016-06-21T16:56:26Z</time><pdop>3.0</pdop><geoidheight>54.00</geoidheight><course>326.6</course><type>1</type></trkpt>
      <trkpt lat="39.77780217" lon="-6.42868784"><ele>1801</ele><speed>12.75</speed><time>2016-06-21T16:56:27Z</time><pdop>3.0</pdop><geoidheight>54.00</geoidheight><course>327.5</course><type>1</type></trkpt>
      <trkpt lat="39.77799023" lon="-6.42884044"><ele>1800</ele><speed>12.25</speed><time>2016-06-21T16:56:29Z</time><pdop>4.0</pdop><geoidheight>54.00</geoidheight><course>328.4</course><type>1</type></trkpt>
      <trkpt lat="39.77807933" lon="-6.42891781"><ele>1799</ele><speed>12.00</speed><time>2016-06-21T16:56:30Z</time><pdop>4.0</pdop><geoidheight>54.00</geoidheight><course>327.6</course><type>1</type></trkpt>
      <trkpt lat="39.77826106" lon="-6.42907714"><ele>1797</ele><speed>12.25</speed><time>2016-06-21T16:56:32Z</time><pdop>4.0</pdop><geoidheight>54.00</geoidheight><course>326.4</course><type>1</type></trkpt>
      <trkpt lat="39.77835532" lon="-6.42916102"><ele>1796</ele><speed>12.50</speed><time>2016-06-21T16:56:33Z</time><pdop>4.0</pdop><geoidheight>54.00</geoidheight><course>325.8</course><type>1</type></trkpt>
      <trkpt lat="39.77844896" lon="-6.4292393"><ele>1794</ele><speed>12.50</speed><time>2016-06-21T16:56:34Z</time><pdop>3.0</pdop><geoidheight>54.00</geoidheight><course>326.9</course><type>1</type></trkpt>
      <trkpt lat="39.77864612" lon="-6.42938655"><ele>1792</ele><speed>12.75</speed><time>2016-06-21T16:56:36Z</time><pdop>3.0</pdop><geoidheight>54.00</geoidheight><course>329.8</course><type>1</type></trkpt>
      <trkpt lat="39.77874023" lon="-6.42945871"><ele>1792</ele><speed>12.25</speed><time>2016-06-21T16:56:37Z</time><pdop>3.0</pdop><geoidheight>54.00</geoidheight><course>329.3</course><type>1</type></trkpt>
      <trkpt lat="39.77882877" lon="-6.42952907"><ele>1791</ele><speed>11.75</speed><time>2016-06-21T16:56:38Z</time><pdop>4.0</pdop><geoidheight>54.00</geoidheight><course>327.4</course><type>1</type></trkpt>
      <trkpt lat="39.77901287" lon="-6.42967951"><ele>1788</ele><speed>12.25</speed><time>2016-06-21T16:56:40Z</time><pdop>3.0</pdop><geoidheight>54.00</geoidheight><course>328.6</course><type>1</type></trkpt>
      <trkpt lat="39.77912049" lon="-6.42974792"><ele>1786</ele><speed>13.25</speed><time>2016-06-21T16:56:41Z</time><pdop>3.0</pdop><geoidheight>54.00</geoidheight><course>332.2</course><type>1</type></trkpt>
      <trkpt lat="39.77923241" lon="-6.4298211"><ele>1786</ele><speed>14.25</speed><time>2016-06-21T16:56:42Z</time><pdop>4.0</pdop><geoidheight>54.00</geoidheight><course>332.6</course><type>1</type></trkpt>
      <trkpt lat="39.77944615" lon="-6.42996389"><ele>1787</ele><speed>13.00</speed><time>2016-06-21T16:56:44Z</time><pdop>3.0</pdop><geoidheight>54.00</geoidheight><course>332.1</course><type>1</type></trkpt>
      <trkpt lat="39.77954375" lon="-6.43001731"><ele>1787</ele><speed>12.00</speed><time>2016-06-21T16:56:45Z</time><pdop>3.0</pdop><geoidheight>54.00</geoidheight><course>334.1</course><type>1</type></trkpt>
      <trkpt lat="39.77963856" lon="-6.43007513"><ele>1787</ele><speed>12.00</speed><time>2016-06-21T16:56:46Z</time><pdop>3.0</pdop><geoidheight>54.00</geoidheight><course>335.3</course><type>1</type></trkpt>
      <trkpt lat="39.77984955" lon="-6.43021948"><ele>1786</ele><speed>13.75</speed><time>2016-06-21T16:56:48Z</time><pdop>4.0</pdop><geoidheight>54.00</geoidheight><course>332.1</course><type>1</type></trkpt>
      <trkpt lat="39.7799665" lon="-6.43029556"><ele>1785</ele><speed>14.25</speed><time>2016-06-21T16:56:49Z</time><pdop>3.0</pdop><geoidheight>54.00</geoidheight><course>332.3</course><type>1</type></trkpt>
      <trkpt lat="39.78019678" lon="-6.43042256"><ele>1787</ele><speed>13.75</speed><time>2016-06-21T16:56:51Z</time><pdop>3.0</pdop><geoidheight>54.00</geoidheight><course>338.5</course><type>1</type></trkpt>
      <trkpt lat="39.78031007" lon="-6.4304705"><ele>1787</ele><speed>13.25</speed><time>2016-06-21T16:56:52Z</time><pdop>3.0</pdop><geoidheight>54.00</geoidheight><course>341.3</course><type>1</type></trkpt>
      <trkpt lat="39.78042485" lon="-6.43052071"><ele>1787</ele><speed>13.50</speed><time>2016-06-21T16:56:53Z</time><pdop>3.0</pdop><geoidheight>54.00</geoidheight><course>341.4</course><type>1</type></trkpt>
      <trkpt lat="39.78064636" lon="-6.43063592"><ele>1788</ele><speed>13.25</speed><time>2016-06-21T16:56:55Z</time><pdop>4.0</pdop><geoidheight>54.00</geoidheight><course>337.1</course><type>1</type></trkpt>
      <trkpt lat="39.78075173" lon="-6.43070072"><ele>1790</ele><speed>13.00</speed><time>2016-06-21T16:56:56Z</time><pdop>3.0</pdop><geoidheight>54.00</geoidheight><course>334.7</course><type>1</type></trkpt>
      <trkpt lat="39.78085095" lon="-6.43077259"><ele>1791</ele><speed>12.50</speed><time>2016-06-21T16:56:57Z</time><pdop>3.0</pdop><geoidheight>54.00</geoidheight><course>330.6</course><type>1</type></trkpt>
      <trkpt lat="39.78102885" lon="-6.43090112"><ele>1793</ele><speed>10.75</speed><time>2016-06-21T16:56:59Z</time><pdop>3.0</pdop><geoidheight>54.00</geoidheight><course>332.2</course><type>1</type></trkpt>
      <trkpt lat="39.78120691" lon="-6.43094383"><ele>1804</ele><speed>10.50</speed><time>2016-06-21T16:57:01Z</time><pdop>3.0</pdop><geoidheight>54.00</geoidheight><course>353.0</course><type>1</type></trkpt>
      <trkpt lat="39.78139192" lon="-6.43087748"><ele>1802</ele><speed>10.75</speed><time>2016-06-21T16:57:03Z</time><pdop>3.0</pdop><geoidheight>54.00</geoidheight><course>20.1</course><type>1</type></trkpt>
      <trkpt lat="39.78146096" lon="-6.43080572"><ele>1798</ele><speed>10.00</speed><time>2016-06-21T16:57:04Z</time><pdop>4.0</pdop><geoidheight>54.00</geoidheight><course>35.8</course><type>1</type></trkpt>
      <trkpt lat="39.78150068" lon="-6.43071409"><ele>1795</ele><speed>9.00</speed><time>2016-06-21T16:57:05Z</time><pdop>3.0</pdop><geoidheight>54.00</geoidheight><course>55.3</course><type>1</type></trkpt>
      <trkpt lat="39.78150437" lon="-6.43051922"><ele>1790</ele><speed>8.50</speed><time>2016-06-21T16:57:07Z</time><pdop>3.0</pdop><geoidheight>54.00</geoidheight><course>96.0</course><type>1</type></trkpt>
      <trkpt lat="39.78146923" lon="-6.4304387"><ele>1790</ele><speed>8.00</speed><time>2016-06-21T16:57:08Z</time><pdop>3.0</pdop><geoidheight>54.00</geoidheight><course>117.2</course><type>1</type></trkpt>
      <trkpt lat="39.7814141" lon="-6.43038631"><ele>1789</ele><speed>7.50</speed><time>2016-06-21T16:57:09Z</time><pdop>3.0</pdop><geoidheight>54.00</geoidheight><course>140.3</course><type>1</type></trkpt>
      <trkpt lat="39.7813508" lon="-6.43035602"><ele>1789</ele><speed>7.50</speed><time>2016-06-21T16:57:10Z</time><pdop>4.0</pdop><geoidheight>54.00</geoidheight><course>158.8</course><type>1</type></trkpt>
      <trkpt lat="39.78116606" lon="-6.43034563"><ele>1791</ele><speed>6.75</speed><time>2016-06-21T16:57:13Z</time><pdop>3.0</pdop><geoidheight>54.00</geoidheight><course>178.3</course><type>1</type></trkpt>
      <trkpt lat="39.78106585" lon="-6.43036108"><ele>1795</ele><speed>5.50</speed><time>2016-06-21T16:57:15Z</time><pdop>3.0</pdop><geoidheight>54.00</geoidheight><course>186.9</course><type>1</type></trkpt>
      <trkpt lat="39.78098038" lon="-6.43037885"><ele>1796</ele><speed>5.25</speed><time>2016-06-21T16:57:17Z</time><pdop>3.0</pdop><geoidheight>54.00</geoidheight><course>185.5</course><type>1</type></trkpt>
      <trkpt lat="39.7808956" lon="-6.43042338"><ele>1797</ele><speed>5.00</speed><time>2016-06-21T16:57:19Z</time><pdop>4.0</pdop><geoidheight>54.00</geoidheight><course>208.3</course><type>1</type></trkpt>
      <trkpt lat="39.78085244" lon="-6.43056659"><ele>1793</ele><speed>7.50</speed><time>2016-06-21T16:57:21Z</time><pdop>3.0</pdop><geoidheight>54.00</geoidheight><course>255.3</course><type>1</type></trkpt>
      <trkpt lat="39.7808569" lon="-6.43067036"><ele>1793</ele><speed>9.00</speed><time>2016-06-21T16:57:22Z</time><pdop>3.0</pdop><geoidheight>54.00</geoidheight><course>270.2</course><type>1</type></trkpt>
      <trkpt lat="39.78094659" lon="-6.43089904"><ele>1793</ele><speed>11.75</speed><time>2016-06-21T16:57:24Z</time><pdop>3.0</pdop><geoidheight>54.00</geoidheight><course>302.3</course><type>1</type></trkpt>
      <trkpt lat="39.78112736" lon="-6.43109911"><ele>1795</ele><speed>13.00</speed><time>2016-06-21T16:57:26Z</time><pdop>3.0</pdop><geoidheight>54.00</geoidheight><course>322.3</course><type>1</type></trkpt>
      <trkpt lat="39.78121811" lon="-6.43116199"><ele>1797</ele><speed>12.00</speed><time>2016-06-21T16:57:27Z</time><pdop>3.0</pdop><geoidheight>54.00</geoidheight><course>330.3</course><type>1</type></trkpt>
      <trkpt lat="39.78140198" lon="-6.43120131"><ele>1796</ele><speed>10.25</speed><time>2016-06-21T16:57:29Z</time><pdop>3.0</pdop><geoidheight>54.00</geoidheight><course>356.9</course><type>1</type></trkpt>
      <trkpt lat="39.7814897" lon="-6.4311653"><ele>1795</ele><speed>10.25</speed><time>2016-06-21T16:57:30Z</time><pdop>3.0</pdop><geoidheight>54.00</geoidheight><course>14.2</course><type>1</type></trkpt>
      <trkpt lat="39.78160286" lon="-6.43100219"><ele>1794</ele><speed>9.00</speed><time>2016-06-21T16:57:32Z</time><pdop>3.0</pdop><geoidheight>54.00</geoidheight><course>57.9</course><type>1</type></trkpt>
      <trkpt lat="39.78159392" lon="-6.43090589"><ele>1793</ele><speed>8.25</speed><time>2016-06-21T16:57:33Z</time><pdop>3.0</pdop><geoidheight>54.00</geoidheight><course>90.4</course><type>1</type></trkpt>
      <trkpt lat="39.78150448" lon="-6.43080538"><ele>1794</ele><speed>6.50</speed><time>2016-06-21T16:57:35Z</time><pdop>3.0</pdop><geoidheight>54.00</geoidheight><course>154.8</course><type>1</type></trkpt>
      <trkpt lat="39.78141019" lon="-6.43086486"><ele>1796</ele><speed>5.75</speed><time>2016-06-21T16:57:37Z</time><pdop>3.0</pdop><geoidheight>54.00</geoidheight><course>214.2</course><type>1</type></trkpt>
      <trkpt lat="39.78133601" lon="-6.43098462"><ele>1797</ele><speed>6.75</speed><time>2016-06-21T16:57:39Z</time><pdop>4.0</pdop><geoidheight>54.00</geoidheight><course>231.1</course><type>1</type></trkpt>
      <trkpt lat="39.78125272" lon="-6.43125756"><ele>1800</ele><speed>9.50</speed><time>2016-06-21T16:57:42Z</time><pdop>3.0</pdop><geoidheight>54.00</geoidheight><course>261.5</course><type>1</type></trkpt>
      <trkpt lat="39.78127457" lon="-6.43137718"><ele>1801</ele><speed>10.25</speed><time>2016-06-21T16:57:43Z</time><pdop>3.0</pdop><geoidheight>54.00</geoidheight><course>279.6</course><type>1</type></trkpt>
      <trkpt lat="39.7813692" lon="-6.43159247"><ele>1802</ele><speed>10.25</speed><time>2016-06-21T16:57:45Z</time><pdop>3.0</pdop><geoidheight>54.00</geoidheight><course>302.0</course><type>1</type></trkpt>
      <trkpt lat="39.78142005" lon="-6.43168881"><ele>1803</ele><speed>10.00</speed><time>2016-06-21T16:57:46Z</time><pdop>3.0</pdop><geoidheight>54.00</geoidheight><course>303.5</course><type>1</type></trkpt>
      <trkpt lat="39.78153038" lon="-6.43186356"><ele>1805</ele><speed>10.00</speed><time>2016-06-21T16:57:48Z</time><pdop>3.0</pdop><geoidheight>54.00</geoidheight><course>309.5</course><type>1</type></trkpt>
      <trkpt lat="39.78160759" lon="-6.43194561"><ele>1805</ele><speed>10.75</speed><time>2016-06-21T16:57:49Z</time><pdop>3.0</pdop><geoidheight>54.00</geoidheight><course>320.1</course><type>1</type></trkpt>
      <trkpt lat="39.78170409" lon="-6.43201495"><ele>1805</ele><speed>11.75</speed><time>2016-06-21T16:57:50Z</time><pdop>3.0</pdop><geoidheight>54.00</geoidheight><course>329.6</course><type>1</type></trkpt>
      <trkpt lat="39.78188988" lon="-6.43214346"><ele>1806</ele><speed>11.50</speed><time>2016-06-21T16:57:52Z</time><pdop>4.0</pdop><geoidheight>54.00</geoidheight><course>330.2</course><type>1</type></trkpt>
      <trkpt lat="39.78196636" lon="-6.43222283"><ele>1805</ele><speed>11.00</speed><time>2016-06-21T16:57:53Z</time><pdop>4.0</pdop><geoidheight>54.00</geoidheight><course>324.1</course><type>1</type></trkpt>
      <trkpt lat="39.78203589" lon="-6.43230591"><ele>1804</ele><speed>10.75</speed><time>2016-06-21T16:57:54Z</time><pdop>3.0</pdop><geoidheight>54.00</geoidheight><course>318.9</course><type>1</type></trkpt>
      <trkpt lat="39.78218518" lon="-6.43250393"><ele>1802</ele><speed>12.25</speed><time>2016-06-21T16:57:56Z</time><pdop>4.0</pdop><geoidheight>54.00</geoidheight><course>313.4</course><type>1</type></trkpt>
      <trkpt lat="39.78226633" lon="-6.43260568"><ele>1801</ele><speed>12.25</speed><time>2016-06-21T16:57:57Z</time><pdop>3.0</pdop><geoidheight>54.00</geoidheight><course>314.5</course><type>1</type></trkpt>
      <trkpt lat="39.78234494" lon="-6.43269981"><ele>1801</ele><speed>12.00</speed><time>2016-06-21T16:57:58Z</time><pdop>3.0</pdop><geoidheight>54.00</geoidheight><course>316.8</course><type>1</type></trkpt>
      <trkpt lat="39.7825122" lon="-6.43286437"><ele>1801</ele><speed>11.25</speed><time>2016-06-21T16:58:00Z</time><pdop>3.0</pdop><geoidheight>54.00</geoidheight><course>322.7</course><type>1</type></trkpt>
      <trkpt lat="39.78259339" lon="-6.43294533"><ele>1800</ele><speed>11.25</speed><time>2016-06-21T16:58:01Z</time><pdop>3.0</pdop><geoidheight>54.00</geoidheight><course>322.5</course><type>1</type></trkpt>
      <trkpt lat="39.78266626" lon="-6.43303187"><ele>1799</ele><speed>11.25</speed><time>2016-06-21T16:58:02Z</time><pdop>3.0</pdop><geoidheight>54.00</geoidheight><course>318.3</course><type>1</type></trkpt>
      <trkpt lat="39.78280387" lon="-6.43323198"><ele>1798</ele><speed>11.50</speed><time>2016-06-21T16:58:04Z</time><pdop>3.0</pdop><geoidheight>54.00</geoidheight><course>311.4</course><type>1</type></trkpt>
      <trkpt lat="39.78295577" lon="-6.43340921"><ele>1798</ele><speed>11.25</speed><time>2016-06-21T16:58:06Z</time><pdop>3.0</pdop><geoidheight>54.00</geoidheight><course>318.7</course><type>1</type></trkpt>
      <trkpt lat="39.78303605" lon="-6.43348806"><ele>1798</ele><speed>11.25</speed><time>2016-06-21T16:58:07Z</time><pdop>3.0</pdop><geoidheight>54.00</geoidheight><course>320.6</course><type>1</type></trkpt>
      <trkpt lat="39.78311212" lon="-6.4335782"><ele>1797</ele><speed>11.25</speed><time>2016-06-21T16:58:08Z</time><pdop>3.0</pdop><geoidheight>54.00</geoidheight><course>318.2</course><type>1</type></trkpt>
      <trkpt lat="39.78325637" lon="-6.43377451"><ele>1796</ele><speed>11.50</speed><time>2016-06-21T16:58:10Z</time><pdop>3.0</pdop><geoidheight>54.00</geoidheight><course>313.5</course><type>1</type></trkpt>
      <trkpt lat="39.78332407" lon="-6.43386611"><ele>1795</ele><speed>10.75</speed><time>2016-06-21T16:58:11Z</time><pdop>3.0</pdop><geoidheight>54.00</geoidheight><course>313.7</course><type>1</type></trkpt>
      <trkpt lat="39.78339294" lon="-6.43395176"><ele>1794</ele><speed>10.50</speed><time>2016-06-21T16:58:12Z</time><pdop>3.0</pdop><geoidheight>54.00</geoidheight><course>316.4</course><type>1</type></trkpt>
      <trkpt lat="39.78355508" lon="-6.43411213"><ele>1792</ele><speed>11.75</speed><time>2016-06-21T16:58:14Z</time><pdop>3.0</pdop><geoidheight>54.00</geoidheight><course>324.1</course><type>1</type></trkpt>
      <trkpt lat="39.78364249" lon="-6.43419707"><ele>1792</ele><speed>12.25</speed><time>2016-06-21T16:58:15Z</time><pdop>4.0</pdop><geoidheight>54.00</geoidheight><course>323.1</course><type>1</type></trkpt>
      <trkpt lat="39.78372095" lon="-6.43429102"><ele>1793</ele><speed>11.75</speed><time>2016-06-21T16:58:16Z</time><pdop>3.0</pdop><geoidheight>54.00</geoidheight><course>318.0</course><type>1</type></trkpt>
      <trkpt lat="39.78385815" lon="-6.43447548"><ele>1794</ele><speed>11.00</speed><time>2016-06-21T16:58:18Z</time><pdop>3.0</pdop><geoidheight>54.00</geoidheight><course>313.5</course><type>1</type></trkpt>
      <trkpt lat="39.78392857" lon="-6.4345735"><ele>1793</ele><speed>11.25</speed><time>2016-06-21T16:58:19Z</time><pdop>3.0</pdop><geoidheight>54.00</geoidheight><course>312.5</course><type>1</type></trkpt>
      <trkpt lat="39.78400142" lon="-6.43467577"><ele>1793</ele><speed>11.75</speed><time>2016-06-21T16:58:20Z</time><pdop>3.0</pdop><geoidheight>54.00</geoidheight><course>312.5</course><type>1</type></trkpt>
      <trkpt lat="39.78414572" lon="-6.43488319"><ele>1794</ele><speed>12.00</speed><time>2016-06-21T16:58:22Z</time><pdop>3.0</pdop><geoidheight>54.00</geoidheight><course>312.8</course><type>1</type></trkpt>
      <trkpt lat="39.78421721" lon="-6.43498306"><ele>1794</ele><speed>11.50</speed><time>2016-06-21T16:58:23Z</time><pdop>3.0</pdop><geoidheight>54.00</geoidheight><course>314.0</course><type>1</type></trkpt>
      <trkpt lat="39.78429021" lon="-6.43507778"><ele>1794</ele><speed>11.25</speed><time>2016-06-21T16:58:24Z</time><pdop>3.0</pdop><geoidheight>54.00</geoidheight><course>314.5</course><type>1</type></trkpt>
      <trkpt lat="39.78444901" lon="-6.43526545"><ele>1795</ele><speed>11.75</speed><time>2016-06-21T16:58:26Z</time><pdop>3.0</pdop><geoidheight>54.00</geoidheight><course>317.6</course><type>1</type></trkpt>
      <trkpt lat="39.78460574" lon="-6.43545233"><ele>1815</ele><speed>12.00</speed><time>2016-06-21T16:58:28Z</time><pdop>3.0</pdop><geoidheight>54.00</geoidheight><course>316.4</course><type>1</type></trkpt>
      <trkpt lat="39.78468348" lon="-6.43554948"><ele>1809</ele><speed>12.00</speed><time>2016-06-21T16:58:29Z</time><pdop>3.0</pdop><geoidheight>54.00</geoidheight><course>315.3</course><type>1</type></trkpt>
      <trkpt lat="39.78475357" lon="-6.43565352"><ele>1806</ele><speed>11.75</speed><time>2016-06-21T16:58:30Z</time><pdop>3.0</pdop><geoidheight>54.00</geoidheight><course>312.0</course><type>1</type></trkpt>
      <trkpt lat="39.78481896" lon="-6.43575678"><ele>1806</ele><speed>11.25</speed><time>2016-06-21T16:58:31Z</time><pdop>4.0</pdop><geoidheight>54.00</geoidheight><course>309.1</course><type>1</type></trkpt>
      <trkpt lat="39.78487967" lon="-6.43584417"><ele>1807</ele><speed>10.50</speed><time>2016-06-21T16:58:32Z</time><pdop>3.0</pdop><geoidheight>54.00</geoidheight><course>309.9</course><type>1</type></trkpt>
      <trkpt lat="39.78493975" lon="-6.43590704"><ele>1808</ele><speed>9.00</speed><time>2016-06-21T16:58:33Z</time><pdop>3.0</pdop><geoidheight>54.00</geoidheight><course>318.4</course><type>1</type></trkpt>
      <trkpt lat="39.78499931" lon="-6.43595099"><ele>1808</ele><speed>8.00</speed><time>2016-06-21T16:58:34Z</time><pdop>3.0</pdop><geoidheight>54.00</geoidheight><course>332.9</course><type>1</type></trkpt>
      <trkpt lat="39.78506778" lon="-6.43595593"><ele>1807</ele><speed>7.75</speed><time>2016-06-21T16:58:35Z</time><pdop>3.0</pdop><geoidheight>54.00</geoidheight><course>353.6</course><type>1</type></trkpt>
      <trkpt lat="39.78518896" lon="-6.43586015"><ele>1806</ele><speed>7.75</speed><time>2016-06-21T16:58:37Z</time><pdop>3.0</pdop><geoidheight>54.00</geoidheight><course>36.0</course><type>1</type></trkpt>
      <trkpt lat="39.78521937" lon="-6.43578664"><ele>1805</ele><speed>7.25</speed><time>2016-06-21T16:58:38Z</time><pdop>3.0</pdop><geoidheight>54.00</geoidheight><course>58.8</course><type>1</type></trkpt>
      <trkpt lat="39.78522495" lon="-6.4357006"><ele>1805</ele><speed>7.00</speed><time>2016-06-21T16:58:39Z</time><pdop>3.0</pdop><geoidheight>54.00</geoidheight><course>80.5</course><type>1</type></trkpt>
      <trkpt lat="39.78517682" lon="-6.43555089"><ele>1804</ele><speed>7.00</speed><time>2016-06-21T16:58:41Z</time><pdop>3.0</pdop><geoidheight>54.00</geoidheight><course>118.1</course><type>1</type></trkpt>
      <trkpt lat="39.78508461" lon="-6.43546935"><ele>1806</ele><speed>5.75</speed><time>2016-06-21T16:58:43Z</time><pdop>4.0</pdop><geoidheight>54.00</geoidheight><course>150.9</course><type>1</type></trkpt>
      <trkpt lat="39.78497821" lon="-6.43544422"><ele>1806</ele><speed>6.25</speed><time>2016-06-21T16:58:45Z</time><pdop>3.0</pdop><geoidheight>54.00</geoidheight><course>171.0</course><type>1</type></trkpt>
      <trkpt lat="39.78484791" lon="-6.43544553"><ele>1804</ele><speed>7.25</speed><time>2016-06-21T16:58:47Z</time><pdop>3.0</pdop><geoidheight>54.00</geoidheight><course>180.8</course><type>1</type></trkpt>
      <trkpt lat="39.78478327" lon="-6.43545537"><ele>1805</ele><speed>7.25</speed><time>2016-06-21T16:58:48Z</time><pdop>3.0</pdop><geoidheight>54.00</geoidheight><course>185.3</course><type>1</type></trkpt>
      <trkpt lat="39.78471957" lon="-6.43546883"><ele>1806</ele><speed>7.00</speed><time>2016-06-21T16:58:49Z</time><pdop>3.0</pdop><geoidheight>54.00</geoidheight><course>187.4</course><type>1</type></trkpt>
      <trkpt lat="39.78465683" lon="-6.4354816"><ele>1807</ele><speed>7.25</speed><time>2016-06-21T16:58:50Z</time><pdop>3.0</pdop><geoidheight>54.00</geoidheight><course>187.5</course><type>1</type></trkpt>
      <trkpt lat="39.78452182" lon="-6.43553237"><ele>1807</ele><speed>7.75</speed><time>2016-06-21T16:58:52Z</time><pdop>4.0</pdop><geoidheight>54.00</geoidheight><course>199.9</course><type>1</type></trkpt>
      <trkpt lat="39.784462" lon="-6.43559023"><ele>1806</ele><speed>8.25</speed><time>2016-06-21T16:58:53Z</time><pdop>3.0</pdop><geoidheight>54.00</geoidheight><course>214.4</course><type>1</type></trkpt>
      <trkpt lat="39.784414" lon="-6.43567485"><ele>1806</ele><speed>8.75</speed><time>2016-06-21T16:58:54Z</time><pdop>3.0</pdop><geoidheight>54.00</geoidheight><course>233.1</course><type>1</type></trkpt>
      <trkpt lat="39.78439154" lon="-6.43578424"><ele>1806</ele><speed>9.25</speed><time>2016-06-21T16:58:55Z</time><pdop>3.0</pdop><geoidheight>54.00</geoidheight><course>252.4</course><type>1</type></trkpt>
      <trkpt lat="39.7844456" lon="-6.43603414"><ele>1804</ele><speed>11.00</speed><time>2016-06-21T16:58:57Z</time><pdop>3.0</pdop><geoidheight>54.00</geoidheight><course>290.1</course><type>1</type></trkpt>
      <trkpt lat="39.78450354" lon="-6.43614286"><ele>1805</ele><speed>11.50</speed><time>2016-06-21T16:58:58Z</time><pdop>3.0</pdop><geoidheight>54.00</geoidheight><course>303.4</course><type>1</type></trkpt>
      <trkpt lat="39.78457352" lon="-6.43624042"><ele>1806</ele><speed>11.25</speed><time>2016-06-21T16:58:59Z</time><pdop>3.0</pdop><geoidheight>54.00</geoidheight><course>312.0</course><type>1</type></trkpt>
      <trkpt lat="39.78464596" lon="-6.43632678"><ele>1807</ele><speed>10.75</speed><time>2016-06-21T16:59:00Z</time><pdop>3.0</pdop><geoidheight>54.00</geoidheight><course>316.1</course><type>1</type></trkpt>
      <trkpt lat="39.78471268" lon="-6.43640866"><ele>1807</ele><speed>10.50</speed><time>2016-06-21T16:59:01Z</time><pdop>3.0</pdop><geoidheight>54.00</geoidheight><course>315.5</course><type>1</type></trkpt>
      <trkpt lat="39.78485377" lon="-6.43659329"><ele>1808</ele><speed>11.25</speed><time>2016-06-21T16:59:03Z</time><pdop>3.0</pdop><geoidheight>54.00</geoidheight><course>314.7</course><type>1</type></trkpt>
      <trkpt lat="39.78493293" lon="-6.43668369"><ele>1808</ele><speed>11.75</speed><time>2016-06-21T16:59:04Z</time><pdop>3.0</pdop><geoidheight>54.00</geoidheight><course>317.6</course><type>1</type></trkpt>
      <trkpt lat="39.78501695" lon="-6.43677531"><ele>1809</ele><speed>12.00</speed><time>2016-06-21T16:59:05Z</time><pdop>3.0</pdop><geoidheight>54.00</geoidheight><course>319.2</course><type>1</type></trkpt>
      <trkpt lat="39.78509686" lon="-6.43686839"><ele>1810</ele><speed>12.25</speed><time>2016-06-21T16:59:06Z</time><pdop>3.0</pdop><geoidheight>54.00</geoidheight><course>317.8</course><type>1</type></trkpt>
      <trkpt lat="39.78524691" lon="-6.43705982"><ele>1811</ele><speed>11.25</speed><time>2016-06-21T16:59:08Z</time><pdop>3.0</pdop><geoidheight>54.00</geoidheight><course>314.5</course><type>1</type></trkpt>
      <trkpt lat="39.78531891" lon="-6.43714665"><ele>1811</ele><speed>10.75</speed><time>2016-06-21T16:59:09Z</time><pdop>3.0</pdop><geoidheight>54.00</geoidheight><course>316.2</course><type>1</type></trkpt>
      <trkpt lat="39.78538693" lon="-6.43722823"><ele>1812</ele><speed>10.25</speed><time>2016-06-21T16:59:10Z</time><pdop>3.0</pdop><geoidheight>54.00</geoidheight><course>316.1</course><type>1</type></trkpt>
      <trkpt lat="39.78551723" lon="-6.43740498"><ele>1812</ele><speed>10.50</speed><time>2016-06-21T16:59:12Z</time><pdop>3.0</pdop><geoidheight>54.00</geoidheight><course>313.2</course><type>1</type></trkpt>
      <trkpt lat="39.78558393" lon="-6.43749233"><ele>1812</ele><speed>10.50</speed><time>2016-06-21T16:59:13Z</time><pdop>3.0</pdop><geoidheight>54.00</geoidheight><course>314.5</course><type>1</type></trkpt>
      <trkpt lat="39.78564921" lon="-6.43757698"><ele>1812</ele><speed>10.25</speed><time>2016-06-21T16:59:14Z</time><pdop>3.0</pdop><geoidheight>54.00</geoidheight><course>315.3</course><type>1</type></trkpt>
      <trkpt lat="39.78571186" lon="-6.43766062"><ele>1811</ele><speed>9.75</speed><time>2016-06-21T16:59:15Z</time><pdop>3.0</pdop><geoidheight>54.00</geoidheight><course>313.3</course><type>1</type></trkpt>
      <trkpt lat="39.78583113" lon="-6.43784367"><ele>1808</ele><speed>10.25</speed><time>2016-06-21T16:59:17Z</time><pdop>5.0</pdop><geoidheight>54.00</geoidheight><course>310.0</course><type>1</type></trkpt>
      <trkpt lat="39.78589624" lon="-6.43795139"><ele>1807</ele><speed>10.75</speed><time>2016-06-21T16:59:18Z</time><pdop>3.0</pdop><geoidheight>54.00</geoidheight><course>309.2</course><type>1</type></trkpt>
      <trkpt lat="39.78596175" lon="-6.43803685"><ele>1807</ele><speed>10.50</speed><time>2016-06-21T16:59:19Z</time><pdop>3.0</pdop><geoidheight>54.00</geoidheight><course>314.0</course><type>1</type></trkpt>
      <trkpt lat="39.78611015" lon="-6.43818745"><ele>1804</ele><speed>11.00</speed><time>2016-06-21T16:59:21Z</time><pdop>3.0</pdop><geoidheight>54.00</geoidheight><course>324.4</course><type>1</type></trkpt>
      <trkpt lat="39.78627486" lon="-6.4383324"><ele>1803</ele><speed>11.00</speed><time>2016-06-21T16:59:23Z</time><pdop>4.0</pdop><geoidheight>54.00</geoidheight><course>325.0</course><type>1</type></trkpt>
      <trkpt lat="39.78635724" lon="-6.43840852"><ele>1800</ele><speed>11.25</speed><time>2016-06-21T16:59:24Z</time><pdop>3.0</pdop><geoidheight>54.00</geoidheight><course>324.4</course><type>1</type></trkpt>
      <trkpt lat="39.78643789" lon="-6.43850442"><ele>1797</ele><speed>12.00</speed><time>2016-06-21T16:59:25Z</time><pdop>3.0</pdop><geoidheight>54.00</geoidheight><course>321.1</course><type>1</type></trkpt>
      <trkpt lat="39.78660831" lon="-6.4387306"><ele>1790</ele><speed>14.00</speed><time>2016-06-21T16:59:27Z</time><pdop>3.0</pdop><geoidheight>54.00</geoidheight><course>313.7</course><type>1</type></trkpt>
      <trkpt lat="39.78669541" lon="-6.43885015"><ele>1789</ele><speed>14.00</speed><time>2016-06-21T16:59:28Z</time><pdop>3.0</pdop><geoidheight>54.00</geoidheight><course>313.2</course><type>1</type></trkpt>
      <trkpt lat="39.7867745" lon="-6.43895638"><ele>1787</ele><speed>12.75</speed><time>2016-06-21T16:59:29Z</time><pdop>3.0</pdop><geoidheight>54.00</geoidheight><course>313.2</course><type>1</type></trkpt>
      <trkpt lat="39.78690504" lon="-6.4391295"><ele>1786</ele><speed>9.75</speed><time>2016-06-21T16:59:31Z</time><pdop>3.0</pdop><geoidheight>54.00</geoidheight><course>314.2</course><type>1</type></trkpt>
      <trkpt lat="39.78695868" lon="-6.43919947"><ele>1785</ele><speed>8.75</speed><time>2016-06-21T16:59:32Z</time><pdop>3.0</pdop><geoidheight>54.00</geoidheight><course>313.4</course><type>1</type></trkpt>
      <trkpt lat="39.78706493" lon="-6.43934734"><ele>1783</ele><speed>8.50</speed><time>2016-06-21T16:59:34Z</time><pdop>3.0</pdop><geoidheight>54.00</geoidheight><course>311.9</course><type>1</type></trkpt>
      <trkpt lat="39.78711997" lon="-6.43942445"><ele>1781</ele><speed>9.00</speed><time>2016-06-21T16:59:35Z</time><pdop>3.0</pdop><geoidheight>54.00</geoidheight><course>313.1</course><type>1</type></trkpt>
      <trkpt lat="39.78717952" lon="-6.43950277"><ele>1780</ele><speed>9.50</speed><time>2016-06-21T16:59:36Z</time><pdop>3.0</pdop><geoidheight>54.00</geoidheight><course>314.1</course><type>1</type></trkpt>
      <trkpt lat="39.7872422" lon="-6.43958498"><ele>1779</ele><speed>10.00</speed><time>2016-06-21T16:59:37Z</time><pdop>3.0</pdop><geoidheight>54.00</geoidheight><course>314.5</course><type>1</type></trkpt>
      <trkpt lat="39.787384" lon="-6.43975907"><ele>1776</ele><speed>11.00</speed><time>2016-06-21T16:59:39Z</time><pdop>3.0</pdop><geoidheight>54.00</geoidheight><course>316.6</course><type>1</type></trkpt>
      <trkpt lat="39.78745808" lon="-6.43984538"><ele>1774</ele><speed>11.25</speed><time>2016-06-21T16:59:40Z</time><pdop>3.0</pdop><geoidheight>54.00</geoidheight><course>317.6</course><type>1</type></trkpt>
      <trkpt lat="39.78753405" lon="-6.43993159"><ele>1773</ele><speed>11.00</speed><time>2016-06-21T16:59:41Z</time><pdop>3.0</pdop><geoidheight>54.00</geoidheight><course>318.4</course><type>1</type></trkpt>
      <trkpt lat="39.78768342" lon="-6.4401037"><ele>1771</ele><speed>11.25</speed><time>2016-06-21T16:59:43Z</time><pdop>3.0</pdop><geoidheight>54.00</geoidheight><course>316.7</course><type>1</type></trkpt>
      <trkpt lat="39.78775569" lon="-6.44019481"><ele>1770</ele><speed>11.25</speed><time>2016-06-21T16:59:44Z</time><pdop>3.0</pdop><geoidheight>54.00</geoidheight><course>316.2</course><type>1</type></trkpt>
      <trkpt lat="39.7878277" lon="-6.44028511"><ele>1770</ele><speed>11.00</speed><time>2016-06-21T16:59:45Z</time><pdop>3.0</pdop><geoidheight>54.00</geoidheight><course>317.0</course><type>1</type></trkpt>
      <trkpt lat="39.78796613" lon="-6.44045425"><ele>1767</ele><speed>10.50</speed><time>2016-06-21T16:59:47Z</time><pdop>3.0</pdop><geoidheight>54.00</geoidheight><course>317.5</course><type>1</type></trkpt>
      <trkpt lat="39.78804011" lon="-6.44053981"><ele>1764</ele><speed>10.75</speed><time>2016-06-21T16:59:48Z</time><pdop>3.0</pdop><geoidheight>54.00</geoidheight><course>317.8</course><type>1</type></trkpt>
      <trkpt lat="39.78811247" lon="-6.44062497"><ele>1761</ele><speed>10.75</speed><time>2016-06-21T16:59:49Z</time><pdop>5.0</pdop><geoidheight>54.00</geoidheight><course>317.8</course><type>1</type></trkpt>
      <trkpt lat="39.78818605" lon="-6.44072761"><ele>1766</ele><speed>11.00</speed><time>2016-06-21T16:59:50Z</time><pdop>3.0</pdop><geoidheight>54.00</geoidheight><course>313.3</course><type>1</type></trkpt>
      <trkpt lat="39.78832033" lon="-6.44091127"><ele>1758</ele><speed>10.75</speed><time>2016-06-21T16:59:52Z</time><pdop>3.0</pdop><geoidheight>54.00</geoidheight><course>314.2</course><type>1</type></trkpt>
      <trkpt lat="39.78838597" lon="-6.44099178"><ele>1754</ele><speed>10.00</speed><time>2016-06-21T16:59:53Z</time><pdop>3.0</pdop><geoidheight>54.00</geoidheight><course>315.0</course><type>1</type></trkpt>
      <trkpt lat="39.78845244" lon="-6.44107004"><ele>1751</ele><speed>10.00</speed><time>2016-06-21T16:59:54Z</time><pdop>3.0</pdop><geoidheight>54.00</geoidheight><course>317.1</course><type>1</type></trkpt>
      <trkpt lat="39.78852443" lon="-6.44114948"><ele>1747</ele><speed>10.50</speed><time>2016-06-21T16:59:55Z</time><pdop>3.0</pdop><geoidheight>54.00</geoidheight><course>320.4</course><type>1</type></trkpt>
      <trkpt lat="39.78860343" lon="-6.44123309"><ele>1744</ele><speed>11.00</speed><time>2016-06-21T16:59:56Z</time><pdop>3.0</pdop><geoidheight>54.00</geoidheight><course>322.5</course><type>1</type></trkpt>
      <trkpt lat="39.78876932" lon="-6.44138796"><ele>1738</ele><speed>11.50</speed><time>2016-06-21T16:59:58Z</time><pdop>3.0</pdop><geoidheight>54.00</geoidheight><course>326.7</course><type>1</type></trkpt>
      <trkpt lat="39.78885492" lon="-6.4414546"><ele>1736</ele><speed>11.25</speed><time>2016-06-21T16:59:59Z</time><pdop>3.0</pdop><geoidheight>54.00</geoidheight><course>329.0</course><type>1</type></trkpt>
      <trkpt lat="39.78902884" lon="-6.44160223"><ele>1731</ele><speed>12.00</speed><time>2016-06-21T17:00:01Z</time><pdop>3.0</pdop><geoidheight>54.00</geoidheight><course>327.1</course><type>1</type></trkpt>
      <trkpt lat="39.78922141" lon="-6.44176631"><ele>1728</ele><speed>13.00</speed><time>2016-06-21T17:00:03Z</time><pdop>3.0</pdop><geoidheight>54.00</geoidheight><course>327.5</course><type>1</type></trkpt>
      <trkpt lat="39.78932013" lon="-6.44185005"><ele>1727</ele><speed>13.00</speed><time>2016-06-21T17:00:04Z</time><pdop>3.0</pdop><geoidheight>54.00</geoidheight><course>327.7</course><type>1</type></trkpt>
      <trkpt lat="39.78941956" lon="-6.44193147"><ele>1727</ele><speed>13.00</speed><time>2016-06-21T17:00:05Z</time><pdop>4.0</pdop><geoidheight>54.00</geoidheight><course>327.7</course><type>1</type></trkpt>
      <trkpt lat="39.78960964" lon="-6.44212425"><ele>1728</ele><speed>13.25</speed><time>2016-06-21T17:00:07Z</time><pdop>3.0</pdop><geoidheight>54.00</geoidheight><course>323.6</course><type>1</type></trkpt>
      <trkpt lat="39.78969919" lon="-6.44220653"><ele>1729</ele><speed>12.50</speed><time>2016-06-21T17:00:08Z</time><pdop>3.0</pdop><geoidheight>54.00</geoidheight><course>326.6</course><type>1</type></trkpt>
      <trkpt lat="39.78979441" lon="-6.44227402"><ele>1730</ele><speed>12.25</speed><time>2016-06-21T17:00:09Z</time><pdop>3.0</pdop><geoidheight>54.00</geoidheight><course>331.1</course><type>1</type></trkpt>
      <trkpt lat="39.78989661" lon="-6.44233448"><ele>1730</ele><speed>12.50</speed><time>2016-06-21T17:00:10Z</time><pdop>3.0</pdop><geoidheight>54.00</geoidheight><course>333.0</course><type>1</type></trkpt>
      <trkpt lat="39.79010037" lon="-6.44246543"><ele>1732</ele><speed>13.00</speed><time>2016-06-21T17:00:12Z</time><pdop>4.0</pdop><geoidheight>54.00</geoidheight><course>332.6</course><type>1</type></trkpt>
      <trkpt lat="39.7902963" lon="-6.44259037"><ele>1735</ele><speed>11.75</speed><time>2016-06-21T17:00:14Z</time><pdop>3.0</pdop><geoidheight>54.00</geoidheight><course>334.4</course><type>1</type></trkpt>
      <trkpt lat="39.79039171" lon="-6.44264971"><ele>1737</ele><speed>11.75</speed><time>2016-06-21T17:00:15Z</time><pdop>4.0</pdop><geoidheight>54.00</geoidheight><course>334.4</course><type>1</type></trkpt>
      <trkpt lat="39.79047189" lon="-6.44263529"><ele>1739</ele><speed>9.50</speed><time>2016-06-21T17:00:16Z</time><pdop>3.0</pdop><geoidheight>54.00</geoidheight><course>355.2</course><type>1</type></trkpt>
      <trkpt lat="39.79060908" lon="-6.44256727"><ele>1744</ele><speed>7.50</speed><time>2016-06-21T17:00:18Z</time><pdop>3.0</pdop><geoidheight>54.00</geoidheight><course>26.9</course><type>1</type></trkpt>
      <trkpt lat="39.79064737" lon="-6.4425154"><ele>1747</ele><speed>6.25</speed><time>2016-06-21T17:00:19Z</time><pdop>3.0</pdop><geoidheight>54.00</geoidheight><course>43.1</course><type>1</type></trkpt>
      <trkpt lat="39.79064768" lon="-6.44233063"><ele>1749</ele><speed>5.75</speed><time>2016-06-21T17:00:22Z</time><pdop>3.0</pdop><geoidheight>54.00</geoidheight><course>105.1</course><type>1</type></trkpt>
      <trkpt lat="39.79055707" lon="-6.44220948"><ele>1748</ele><speed>7.50</speed><time>2016-06-21T17:00:24Z</time><pdop>4.0</pdop><geoidheight>54.00</geoidheight><course>138.3</course><type>1</type></trkpt>
      <trkpt lat="39.79042255" lon="-6.44213687"><ele>1762</ele><speed>7.75</speed><time>2016-06-21T17:00:26Z</time><pdop>3.0</pdop><geoidheight>54.00</geoidheight><course>161.2</course><type>1</type></trkpt>
      <trkpt lat="39.79029369" lon="-6.44215459"><ele>1756</ele><speed>7.00</speed><time>2016-06-21T17:00:28Z</time><pdop>3.0</pdop><geoidheight>54.00</geoidheight><course>194.2</course><type>1</type></trkpt>
      <trkpt lat="39.79024691" lon="-6.44220466"><ele>1755</ele><speed>7.00</speed><time>2016-06-21T17:00:29Z</time><pdop>3.0</pdop><geoidheight>54.00</geoidheight><course>217.8</course><type>1</type></trkpt>
      <trkpt lat="39.7902078" lon="-6.44228635"><ele>1755</ele><speed>7.75</speed><time>2016-06-21T17:00:30Z</time><pdop>3.0</pdop><geoidheight>54.00</geoidheight><course>235.9</course><type>1</type></trkpt>
      <trkpt lat="39.79018113" lon="-6.44238135"><ele>1755</ele><speed>8.25</speed><time>2016-06-21T17:00:31Z</time><pdop>3.0</pdop><geoidheight>54.00</geoidheight><course>248.0</course><type>1</type></trkpt>
      <trkpt lat="39.79018365" lon="-6.44258934"><ele>1756</ele><speed>9.00</speed><time>2016-06-21T17:00:33Z</time><pdop>3.0</pdop><geoidheight>54.00</geoidheight><course>273.3</course><type>1</type></trkpt>
      <trkpt lat="39.79021853" lon="-6.44270255"><ele>1755</ele><speed>10.25</speed><time>2016-06-21T17:00:34Z</time><pdop>3.0</pdop><geoidheight>54.00</geoidheight><course>288.8</course><type>1</type></trkpt>
      <trkpt lat="39.79028199" lon="-6.44281094"><ele>1755</ele><speed>11.50</speed><time>2016-06-21T17:00:35Z</time><pdop>3.0</pdop><geoidheight>54.00</geoidheight><course>303.8</course><type>1</type></trkpt>
      <trkpt lat="39.79045712" lon="-6.44298238"><ele>1756</ele><speed>12.00</speed><time>2016-06-21T17:00:37Z</time><pdop>3.0</pdop><geoidheight>54.00</geoidheight><course>325.7</course><type>1</type></trkpt>
      <trkpt lat="39.79063011" lon="-6.44311154"><ele>1759</ele><speed>10.75</speed><time>2016-06-21T17:00:39Z</time><pdop>3.0</pdop><geoidheight>54.00</geoidheight><course>331.6</course><type>1</type></trkpt>
      <trkpt lat="39.79071582" lon="-6.44316379"><ele>1760</ele><speed>10.75</speed><time>2016-06-21T17:00:40Z</time><pdop>3.0</pdop><geoidheight>54.00</geoidheight><course>333.5</course><type>1</type></trkpt>
      <trkpt lat="39.790804" lon="-6.44321357"><ele>1761</ele><speed>10.75</speed><time>2016-06-21T17:00:41Z</time><pdop>3.0</pdop><geoidheight>54.00</geoidheight><course>337.2</course><type>1</type></trkpt>
      <trkpt lat="39.7909748" lon="-6.44325614"><ele>1763</ele><speed>9.25</speed><time>2016-06-21T17:00:43Z</time><pdop>3.0</pdop><geoidheight>54.00</geoidheight><course>354.2</course><type>1</type></trkpt>
      <trkpt lat="39.79103907" lon="-6.44323262"><ele>1765</ele><speed>7.50</speed><time>2016-06-21T17:00:44Z</time><pdop>3.0</pdop><geoidheight>54.00</geoidheight><course>10.5</course><type>1</type></trkpt>
      <trkpt lat="39.79113823" lon="-6.44308161"><ele>1768</ele><speed>5.25</speed><time>2016-06-21T17:00:47Z</time><pdop>3.0</pdop><geoidheight>54.00</geoidheight><course>65.4</course><type>1</type></trkpt>
      <trkpt lat="39.79112427" lon="-6.44294853"><ele>1768</ele><speed>6.00</speed><time>2016-06-21T17:00:49Z</time><pdop>3.0</pdop><geoidheight>54.00</geoidheight><course>103.2</course><type>1</type></trkpt>
      <trkpt lat="39.79109532" lon="-6.44287012"><ele>1768</ele><speed>7.25</speed><time>2016-06-21T17:00:50Z</time><pdop>3.0</pdop><geoidheight>54.00</geoidheight><course>113.4</course><type>1</type></trkpt>
      <trkpt lat="39.79100549" lon="-6.44275952"><ele>1769</ele><speed>6.75</speed><time>2016-06-21T17:00:52Z</time><pdop>4.0</pdop><geoidheight>54.00</geoidheight><course>144.6</course><type>1</type></trkpt>
      <trkpt lat="39.79088988" lon="-6.44278382"><ele>1767</ele><speed>6.50</speed><time>2016-06-21T17:00:54Z</time><pdop>4.0</pdop><geoidheight>54.00</geoidheight><course>197.0</course><type>1</type></trkpt>
      <trkpt lat="39.79079938" lon="-6.44290079"><ele>1768</ele><speed>7.25</speed><time>2016-06-21T17:00:56Z</time><pdop>3.0</pdop><geoidheight>54.00</geoidheight><course>229.7</course><type>1</type></trkpt>
      <trkpt lat="39.79075811" lon="-6.44312185"><ele>1767</ele><speed>10.25</speed><time>2016-06-21T17:00:58Z</time><pdop>3.0</pdop><geoidheight>54.00</geoidheight><course>261.8</course><type>1</type></trkpt>
      <trkpt lat="39.79078215" lon="-6.44325787"><ele>1766</ele><speed>11.50</speed><time>2016-06-21T17:00:59Z</time><pdop>3.0</pdop><geoidheight>54.00</geoidheight><course>279.4</course><type>1</type></trkpt>
      <trkpt lat="39.79083819" lon="-6.44338336"><ele>1766</ele><speed>12.00</speed><time>2016-06-21T17:01:00Z</time><pdop>3.0</pdop><geoidheight>54.00</geoidheight><course>296.5</course><type>1</type></trkpt>
      <trkpt lat="39.79090702" lon="-6.44348628"><ele>1768</ele><speed>11.75</speed><time>2016-06-21T17:01:01Z</time><pdop>3.0</pdop><geoidheight>54.00</geoidheight><course>308.7</course><type>1</type></trkpt>
      <trkpt lat="39.79105503" lon="-6.44365065"><ele>1770</ele><speed>10.75</speed><time>2016-06-21T17:01:03Z</time><pdop>3.0</pdop><geoidheight>54.00</geoidheight><course>320.7</course><type>1</type></trkpt>
      <trkpt lat="39.79113366" lon="-6.44372317"><ele>1770</ele><speed>11.00</speed><time>2016-06-21T17:01:04Z</time><pdop>3.0</pdop><geoidheight>54.00</geoidheight><course>324.5</course><type>1</type></trkpt>
      <trkpt lat="39.79122122" lon="-6.44379433"><ele>1770</ele><speed>11.75</speed><time>2016-06-21T17:01:05Z</time><pdop>3.0</pdop><geoidheight>54.00</geoidheight><course>327.7</course><type>1</type></trkpt>
      <trkpt lat="39.79131282" lon="-6.44386636"><ele>1770</ele><speed>11.75</speed><time>2016-06-21T17:01:06Z</time><pdop>3.0</pdop><geoidheight>54.00</geoidheight><course>330.0</course><type>1</type></trkpt>
      <trkpt lat="39.791489" lon="-6.4439828"><ele>1771</ele><speed>10.75</speed><time>2016-06-21T17:01:08Z</time><pdop>3.0</pdop><geoidheight>54.00</geoidheight><course>332.7</course><type>1</type></trkpt>
      <trkpt lat="39.79156995" lon="-6.44404058"><ele>1771</ele><speed>10.25</speed><time>2016-06-21T17:01:09Z</time><pdop>3.0</pdop><geoidheight>54.00</geoidheight><course>330.2</course><type>1</type></trkpt>
      <trkpt lat="39.79164411" lon="-6.44410782"><ele>1770</ele><speed>10.25</speed><time>2016-06-21T17:01:10Z</time><pdop>3.0</pdop><geoidheight>54.00</geoidheight><course>326.9</course><type>1</type></trkpt>
      <trkpt lat="39.79172261" lon="-6.44418054"><ele>1768</ele><speed>10.75</speed><time>2016-06-21T17:01:11Z</time><pdop>3.0</pdop><geoidheight>54.00</geoidheight><course>325.7</course><type>1</type></trkpt>
      <trkpt lat="39.79189239" lon="-6.44433139"><ele>1764</ele><speed>11.75</speed><time>2016-06-21T17:01:13Z</time><pdop>3.0</pdop><geoidheight>54.00</geoidheight><course>326.5</course><type>1</type></trkpt>
      <trkpt lat="39.79198279" lon="-6.44441052"><ele>1765</ele><speed>12.25</speed><time>2016-06-21T17:01:14Z</time><pdop>3.0</pdop><geoidheight>54.00</geoidheight><course>326.1</course><type>1</type></trkpt>
      <trkpt lat="39.79207836" lon="-6.44449193"><ele>1763</ele><speed>12.50</speed><time>2016-06-21T17:01:15Z</time><pdop>3.0</pdop><geoidheight>54.00</geoidheight><course>327.4</course><type>1</type></trkpt>
      <trkpt lat="39.79225809" lon="-6.44464435"><ele>1762</ele><speed>12.00</speed><time>2016-06-21T17:01:17Z</time><pdop>3.0</pdop><geoidheight>54.00</geoidheight><course>326.5</course><type>1</type></trkpt>
      <trkpt lat="39.79242769" lon="-6.44480821"><ele>1760</ele><speed>11.75</speed><time>2016-06-21T17:01:19Z</time><pdop>3.0</pdop><geoidheight>54.00</geoidheight><course>321.7</course><type>1</type></trkpt>
      <trkpt lat="39.7925085" lon="-6.4449002"><ele>1759</ele><speed>12.00</speed><time>2016-06-21T17:01:20Z</time><pdop>4.0</pdop><geoidheight>54.00</geoidheight><course>318.7</course><type>1</type></trkpt>
      <trkpt lat="39.79258829" lon="-6.44499407"><ele>1758</ele><speed>12.00</speed><time>2016-06-21T17:01:21Z</time><pdop>3.0</pdop><geoidheight>54.00</geoidheight><course>317.5</course><type>1</type></trkpt>
      <trkpt lat="39.79274157" lon="-6.44516263"><ele>1755</ele><speed>10.75</speed><time>2016-06-21T17:01:23Z</time><pdop>3.0</pdop><geoidheight>54.00</geoidheight><course>321.2</course><type>1</type></trkpt>
      <trkpt lat="39.79281784" lon="-6.44523362"><ele>1754</ele><speed>10.50</speed><time>2016-06-21T17:01:24Z</time><pdop>3.0</pdop><geoidheight>54.00</geoidheight><course>324.1</course><type>1</type></trkpt>
      <trkpt lat="39.7928966" lon="-6.44529474"><ele>1752</ele><speed>10.25</speed><time>2016-06-21T17:01:25Z</time><pdop>3.0</pdop><geoidheight>54.00</geoidheight><course>326.6</course><type>1</type></trkpt>
      <trkpt lat="39.79296785" lon="-6.44535294"><ele>1750</ele><speed>10.00</speed><time>2016-06-21T17:01:26Z</time><pdop>3.0</pdop><geoidheight>54.00</geoidheight><course>328.1</course><type>1</type></trkpt>
      <trkpt lat="39.79304865" lon="-6.44540639"><ele>1748</ele><speed>10.00</speed><time>2016-06-21T17:01:27Z</time><pdop>3.0</pdop><geoidheight>54.00</geoidheight><course>330.3</course><type>1</type></trkpt>
      <trkpt lat="39.79320736" lon="-6.44551285"><ele>1744</ele><speed>10.00</speed><time>2016-06-21T17:01:29Z</time><pdop>3.0</pdop><geoidheight>54.00</geoidheight><course>332.6</course><type>1</type></trkpt>
      <trkpt lat="39.79328258" lon="-6.44556826"><ele>1744</ele><speed>9.50</speed><time>2016-06-21T17:01:30Z</time><pdop>3.0</pdop><geoidheight>54.00</geoidheight><course>330.7</course><type>1</type></trkpt>
      <trkpt lat="39.79342476" lon="-6.44568594"><ele>1744</ele><speed>9.25</speed><time>2016-06-21T17:01:32Z</time><pdop>3.0</pdop><geoidheight>54.00</geoidheight><course>325.4</course><type>1</type></trkpt>
      <trkpt lat="39.79349401" lon="-6.44574781"><ele>1743</ele><speed>9.25</speed><time>2016-06-21T17:01:33Z</time><pdop>4.0</pdop><geoidheight>54.00</geoidheight><course>325.4</course><type>1</type></trkpt>
      <trkpt lat="39.79364569" lon="-6.44588824"><ele>1741</ele><speed>10.25</speed><time>2016-06-21T17:01:35Z</time><pdop>5.0</pdop><geoidheight>54.00</geoidheight><course>325.3</course><type>1</type></trkpt>
      <trkpt lat="39.79374465" lon="-6.44596796"><ele>1740</ele><speed>11.75</speed><time>2016-06-21T17:01:36Z</time><pdop>4.0</pdop><geoidheight>54.00</geoidheight><course>326.7</course><type>1</type></trkpt>
      <trkpt lat="39.79383259" lon="-6.44604283"><ele>1739</ele><speed>11.75</speed><time>2016-06-21T17:01:37Z</time><pdop>5.0</pdop><geoidheight>54.00</geoidheight><course>326.7</course><type>1</type></trkpt>
      <trkpt lat="39.79401896" lon="-6.44622537"><ele>1739</ele><speed>12.50</speed><time>2016-06-21T17:01:39Z</time><pdop>5.0</pdop><geoidheight>54.00</geoidheight><course>323.5</course><type>1</type></trkpt>
      <trkpt lat="39.79410187" lon="-6.4463195"><ele>1740</ele><speed>12.00</speed><time>2016-06-21T17:01:40Z</time><pdop>3.0</pdop><geoidheight>54.00</geoidheight><course>320.1</course><type>1</type></trkpt>
      <trkpt lat="39.79418168" lon="-6.44641123"><ele>1741</ele><speed>12.00</speed><time>2016-06-21T17:01:41Z</time><pdop>4.0</pdop><geoidheight>54.00</geoidheight><course>318.1</course><type>1</type></trkpt>
      <trkpt lat="39.79425555" lon="-6.44650504"><ele>1741</ele><speed>11.50</speed><time>2016-06-21T17:01:42Z</time><pdop>3.0</pdop><geoidheight>54.00</geoidheight><course>317.0</course><type>1</type></trkpt>
      <trkpt lat="39.79432834" lon="-6.44659421"><ele>1741</ele><speed>11.00</speed><time>2016-06-21T17:01:43Z</time><pdop>3.0</pdop><geoidheight>54.00</geoidheight><course>316.2</course><type>1</type></trkpt>
      <trkpt lat="39.79447167" lon="-6.44677207"><ele>1739</ele><speed>10.75</speed><time>2016-06-21T17:01:45Z</time><pdop>5.0</pdop><geoidheight>54.00</geoidheight><course>316.1</course><type>1</type></trkpt>
      <trkpt lat="39.79462202" lon="-6.44698371"><ele>1738</ele><speed>12.00</speed><time>2016-06-21T17:01:47Z</time><pdop>4.0</pdop><geoidheight>54.00</geoidheight><course>313.2</course><type>1</type></trkpt>
      <trkpt lat="39.79469314" lon="-6.44708761"><ele>1739</ele><speed>11.75</speed><time>2016-06-21T17:01:48Z</time><pdop>4.0</pdop><geoidheight>54.00</geoidheight><course>313.1</course><type>1</type></trkpt>
      <trkpt lat="39.79485107" lon="-6.44725277"><ele>1740</ele><speed>11.25</speed><time>2016-06-21T17:01:50Z</time><pdop>3.0</pdop><geoidheight>54.00</geoidheight><course>322.5</course><type>1</type></trkpt>
      <trkpt lat="39.7949309" lon="-6.44733226"><ele>1741</ele><speed>11.25</speed><time>2016-06-21T17:01:51Z</time><pdop>5.0</pdop><geoidheight>54.00</geoidheight><course>322.5</course><type>1</type></trkpt>
      <trkpt lat="39.79506182" lon="-6.44745224"><ele>1743</ele><speed>9.50</speed><time>2016-06-21T17:01:53Z</time><pdop>3.0</pdop><geoidheight>54.00</geoidheight><course>323.2</course><type>1</type></trkpt>
      <trkpt lat="39.79520076" lon="-6.44760255"><ele>1745</ele><speed>10.50</speed><time>2016-06-21T17:01:55Z</time><pdop>3.0</pdop><geoidheight>54.00</geoidheight><course>320.6</course><type>1</type></trkpt>
      <trkpt lat="39.79527298" lon="-6.44767943"><ele>1745</ele><speed>10.50</speed><time>2016-06-21T17:01:56Z</time><pdop>5.0</pdop><geoidheight>54.00</geoidheight><course>320.6</course><type>1</type></trkpt>
      <trkpt lat="39.79534791" lon="-6.44774864"><ele>1747</ele><speed>10.50</speed><time>2016-06-21T17:01:57Z</time><pdop>5.0</pdop><geoidheight>54.00</geoidheight><course>321.9</course><type>1</type></trkpt>
      <trkpt lat="39.79542896" lon="-6.4477985"><ele>1747</ele><speed>10.00</speed><time>2016-06-21T17:01:58Z</time><pdop>3.0</pdop><geoidheight>54.00</geoidheight><course>328.8</course><type>1</type></trkpt>
      <trkpt lat="39.79558724" lon="-6.44791014"><ele>1747</ele><speed>10.00</speed><time>2016-06-21T17:02:00Z</time><pdop>3.0</pdop><geoidheight>54.00</geoidheight><course>331.4</course><type>1</type></trkpt>
      <trkpt lat="39.79566625" lon="-6.44796604"><ele>1747</ele><speed>10.00</speed><time>2016-06-21T17:02:01Z</time><pdop>5.0</pdop><geoidheight>54.00</geoidheight><course>331.4</course><type>1</type></trkpt>
      <trkpt lat="39.79573707" lon="-6.44804189"><ele>1745</ele><speed>10.00</speed><time>2016-06-21T17:02:02Z</time><pdop>3.0</pdop><geoidheight>54.00</geoidheight><course>326.4</course><type>1</type></trkpt>
      <trkpt lat="39.79581112" lon="-6.44810602"><ele>1744</ele><speed>9.75</speed><time>2016-06-21T17:02:03Z</time><pdop>3.0</pdop><geoidheight>54.00</geoidheight><course>326.5</course><type>1</type></trkpt>
      <trkpt lat="39.79595555" lon="-6.44821291"><ele>1741</ele><speed>9.25</speed><time>2016-06-21T17:02:05Z</time><pdop>3.0</pdop><geoidheight>54.00</geoidheight><course>331.2</course><type>1</type></trkpt>
      <trkpt lat="39.79603095" lon="-6.44826817"><ele>1741</ele><speed>9.75</speed><time>2016-06-21T17:02:06Z</time><pdop>3.0</pdop><geoidheight>54.00</geoidheight><course>331.3</course><type>1</type></trkpt>
      <trkpt lat="39.79618806" lon="-6.44840537"><ele>1741</ele><speed>10.75</speed><time>2016-06-21T17:02:08Z</time><pdop>3.0</pdop><geoidheight>54.00</geoidheight><course>324.7</course><type>1</type></trkpt>
      <trkpt lat="39.79634342" lon="-6.44854272"><ele>1740</ele><speed>10.25</speed><time>2016-06-21T17:02:10Z</time><pdop>4.0</pdop><geoidheight>54.00</geoidheight><course>325.7</course><type>1</type></trkpt>
      <trkpt lat="39.79641998" lon="-6.44861044"><ele>1740</ele><speed>10.25</speed><time>2016-06-21T17:02:11Z</time><pdop>5.0</pdop><geoidheight>54.00</geoidheight><course>325.7</course><type>1</type></trkpt>
      <trkpt lat="39.79656987" lon="-6.44870214"><ele>1738</ele><speed>9.50</speed><time>2016-06-21T17:02:13Z</time><pdop>5.0</pdop><geoidheight>54.00</geoidheight><course>331.7</course><type>1</type></trkpt>
      <trkpt lat="39.79673245" lon="-6.44881722"><ele>1736</ele><speed>10.75</speed><time>2016-06-21T17:02:15Z</time><pdop>3.0</pdop><geoidheight>54.00</geoidheight><course>330.6</course><type>1</type></trkpt>
      <trkpt lat="39.79681658" lon="-6.44888476"><ele>1735</ele><speed>11.00</speed><time>2016-06-21T17:02:16Z</time><pdop>3.0</pdop><geoidheight>54.00</geoidheight><course>328.6</course><type>1</type></trkpt>
      <trkpt lat="39.79689937" lon="-6.44895838"><ele>1735</ele><speed>11.25</speed><time>2016-06-21T17:02:17Z</time><pdop>3.0</pdop><geoidheight>54.00</geoidheight><course>327.6</course><type>1</type></trkpt>
      <trkpt lat="39.79698339" lon="-6.44902676"><ele>1734</ele><speed>10.75</speed><time>2016-06-21T17:02:18Z</time><pdop>3.0</pdop><geoidheight>54.00</geoidheight><course>327.7</course><type>1</type></trkpt>
      <trkpt lat="39.7970675" lon="-6.44908838"><ele>1733</ele><speed>10.50</speed><time>2016-06-21T17:02:19Z</time><pdop>4.0</pdop><geoidheight>54.00</geoidheight><course>329.0</course><type>1</type></trkpt>
      <trkpt lat="39.79723658" lon="-6.4492042"><ele>1731</ele><speed>10.50</speed><time>2016-06-21T17:02:21Z</time><pdop>5.0</pdop><geoidheight>54.00</geoidheight><course>331.8</course><type>1</type></trkpt>
      <trkpt lat="39.7973472" lon="-6.44926733"><ele>1730</ele><speed>12.25</speed><time>2016-06-21T17:02:22Z</time><pdop>4.0</pdop><geoidheight>54.00</geoidheight><course>333.8</course><type>1</type></trkpt>
      <trkpt lat="39.7974452" lon="-6.44932978"><ele>1729</ele><speed>12.25</speed><time>2016-06-21T17:02:23Z</time><pdop>6.0</pdop><geoidheight>54.00</geoidheight><course>333.8</course><type>1</type></trkpt>
      <trkpt lat="39.79762695" lon="-6.44946477"><ele>1728</ele><speed>11.75</speed><time>2016-06-21T17:02:25Z</time><pdop>5.0</pdop><geoidheight>54.00</geoidheight><course>331.1</course><type>1</type></trkpt>
      <trkpt lat="39.79772073" lon="-6.44950436"><ele>1726</ele><speed>11.50</speed><time>2016-06-21T17:02:26Z</time><pdop>4.0</pdop><geoidheight>54.00</geoidheight><course>337.0</course><type>1</type></trkpt>
      <trkpt lat="39.79781962" lon="-6.44956061"><ele>1725</ele><speed>11.75</speed><time>2016-06-21T17:02:27Z</time><pdop>3.0</pdop><geoidheight>54.00</geoidheight><course>336.9</course><type>1</type></trkpt>
      <trkpt lat="39.79791875" lon="-6.44962017"><ele>1724</ele><speed>12.25</speed><time>2016-06-21T17:02:28Z</time><pdop>3.0</pdop><geoidheight>54.00</geoidheight><course>335.5</course><type>1</type></trkpt>
      <trkpt lat="39.79811369" lon="-6.44974151"><ele>1724</ele><speed>12.00</speed><time>2016-06-21T17:02:30Z</time><pdop>5.0</pdop><geoidheight>54.00</geoidheight><course>334.8</course><type>1</type></trkpt>
      <trkpt lat="39.798293" lon="-6.44983872"><ele>1723</ele><speed>11.00</speed><time>2016-06-21T17:02:32Z</time><pdop>3.0</pdop><geoidheight>54.00</geoidheight><course>336.3</course><type>1</type></trkpt>
      <trkpt lat="39.79838365" lon="-6.44989028"><ele>1722</ele><speed>11.00</speed><time>2016-06-21T17:02:33Z</time><pdop>5.0</pdop><geoidheight>54.00</geoidheight><course>336.3</course><type>1</type></trkpt>
      <trkpt lat="39.79858914" lon="-6.45002207"><ele>1720</ele><speed>12.50</speed><time>2016-06-21T17:02:35Z</time><pdop>3.0</pdop><geoidheight>54.00</geoidheight><course>333.7</course><type>1</type></trkpt>
      <trkpt lat="39.79868621" lon="-6.45008772"><ele>1720</ele><speed>12.00</speed><time>2016-06-21T17:02:36Z</time><pdop>3.0</pdop><geoidheight>54.00</geoidheight><course>332.5</course><type>1</type></trkpt>
      <trkpt lat="39.79878258" lon="-6.45015271"><ele>1721</ele><speed>12.00</speed><time>2016-06-21T17:02:37Z</time><pdop>5.0</pdop><geoidheight>54.00</geoidheight><course>332.5</course><type>1</type></trkpt>
      <trkpt lat="39.79895296" lon="-6.45027579"><ele>1731</ele><speed>11.00</speed><time>2016-06-21T17:02:39Z</time><pdop>3.0</pdop><geoidheight>54.00</geoidheight><course>331.8</course><type>1</type></trkpt>
      <trkpt lat="39.79904212" lon="-6.45033127"><ele>1726</ele><speed>11.25</speed><time>2016-06-21T17:02:40Z</time><pdop>3.0</pdop><geoidheight>54.00</geoidheight><course>334.6</course><type>1</type></trkpt>
      <trkpt lat="39.7992308" lon="-6.45045242"><ele>1722</ele><speed>11.50</speed><time>2016-06-21T17:02:42Z</time><pdop>4.0</pdop><geoidheight>54.00</geoidheight><course>332.6</course><type>1</type></trkpt>
      <trkpt lat="39.79939853" lon="-6.45058945"><ele>1721</ele><speed>11.00</speed><time>2016-06-21T17:02:44Z</time><pdop>5.0</pdop><geoidheight>54.00</geoidheight><course>328.9</course><type>1</type></trkpt>
      <trkpt lat="39.79946607" lon="-6.45065144"><ele>1718</ele><speed>10.25</speed><time>2016-06-21T17:02:45Z</time><pdop>3.0</pdop><geoidheight>54.00</geoidheight><course>327.6</course><type>1</type></trkpt>
      <trkpt lat="39.79955205" lon="-6.45071993"><ele>1716</ele><speed>10.75</speed><time>2016-06-21T17:02:46Z</time><pdop>3.0</pdop><geoidheight>54.00</geoidheight><course>328.9</course><type>1</type></trkpt>
      <trkpt lat="39.79973674" lon="-6.45086252"><ele>1711</ele><speed>11.75</speed><time>2016-06-21T17:02:48Z</time><pdop>3.0</pdop><geoidheight>54.00</geoidheight><course>329.0</course><type>1</type></trkpt>
      <trkpt lat="39.79983016" lon="-6.45093187"><ele>1709</ele><speed>11.75</speed><time>2016-06-21T17:02:49Z</time><pdop>3.0</pdop><geoidheight>54.00</geoidheight><course>328.2</course><type>1</type></trkpt>
      <trkpt lat="39.79991817" lon="-6.45100035"><ele>1707</ele><speed>11.50</speed><time>2016-06-21T17:02:50Z</time><pdop>3.0</pdop><geoidheight>54.00</geoidheight><course>328.8</course><type>1</type></trkpt>
      <trkpt lat="39.80009434" lon="-6.45113268"><ele>1704</ele><speed>11.75</speed><time>2016-06-21T17:02:52Z</time><pdop>4.0</pdop><geoidheight>54.00</geoidheight><course>329.3</course><type>1</type></trkpt>
      <trkpt lat="39.80028416" lon="-6.45130794"><ele>1699</ele><speed>13.25</speed><time>2016-06-21T17:02:54Z</time><pdop>3.0</pdop><geoidheight>54.00</geoidheight><course>326.1</course><type>1</type></trkpt>
      <trkpt lat="39.80048387" lon="-6.45146577"><ele>1698</ele><speed>12.75</speed><time>2016-06-21T17:02:56Z</time><pdop>3.0</pdop><geoidheight>54.00</geoidheight><course>329.4</course><type>1</type></trkpt>
      <trkpt lat="39.8005739" lon="-6.45153579"><ele>1698</ele><speed>11.50</speed><time>2016-06-21T17:02:57Z</time><pdop>3.0</pdop><geoidheight>54.00</geoidheight><course>328.2</course><type>1</type></trkpt>
      <trkpt lat="39.80074053" lon="-6.45167554"><ele>1695</ele><speed>11.25</speed><time>2016-06-21T17:02:59Z</time><pdop>3.0</pdop><geoidheight>54.00</geoidheight><course>327.7</course><type>1</type></trkpt>
      <trkpt lat="39.80083184" lon="-6.45174467"><ele>1692</ele><speed>12.00</speed><time>2016-06-21T17:03:00Z</time><pdop>3.0</pdop><geoidheight>54.00</geoidheight><course>330.0</course><type>1</type></trkpt>
      <trkpt lat="39.80102689" lon="-6.4518834"><ele>1689</ele><speed>12.00</speed><time>2016-06-21T17:03:02Z</time><pdop>4.0</pdop><geoidheight>54.00</geoidheight><course>331.3</course><type>1</type></trkpt>
      <trkpt lat="39.80112039" lon="-6.45194844"><ele>1688</ele><speed>11.75</speed><time>2016-06-21T17:03:03Z</time><pdop>3.0</pdop><geoidheight>54.00</geoidheight><course>329.8</course><type>1</type></trkpt>
      <trkpt lat="39.80120556" lon="-6.45201481"><ele>1686</ele><speed>11.25</speed><time>2016-06-21T17:03:04Z</time><pdop>3.0</pdop><geoidheight>54.00</geoidheight><course>328.9</course><type>1</type></trkpt>
      <trkpt lat="39.80139102" lon="-6.45214926"><ele>1682</ele><speed>12.00</speed><time>2016-06-21T17:03:06Z</time><pdop>3.0</pdop><geoidheight>54.00</geoidheight><course>331.0</course><type>1</type></trkpt>
      <trkpt lat="39.80158313" lon="-6.4522965899999996"><ele>1679</ele><speed>12.50</speed><time>2016-06-21T17:03:08Z</time><pdop>3.0</pdop><geoidheight>54.00</geoidheight><course>328.9</course><type>1</type></trkpt>
      <trkpt lat="39.80167644" lon="-6.45238082"><ele>1677</ele><speed>12.75</speed><time>2016-06-21T17:03:09Z</time><pdop>3.0</pdop><geoidheight>54.00</geoidheight><course>326.6</course><type>1</type></trkpt>
      <trkpt lat="39.80177325" lon="-6.45246665"><ele>1676</ele><speed>13.00</speed><time>2016-06-21T17:03:10Z</time><pdop>3.0</pdop><geoidheight>54.00</geoidheight><course>325.9</course><type>1</type></trkpt>
      <trkpt lat="39.80187126" lon="-6.45254737"><ele>1674</ele><speed>12.75</speed><time>2016-06-21T17:03:11Z</time><pdop>3.0</pdop><geoidheight>54.00</geoidheight><course>327.8</course><type>1</type></trkpt>
      <trkpt lat="39.80206895" lon="-6.45268965"><ele>1672</ele><speed>12.50</speed><time>2016-06-21T17:03:13Z</time><pdop>5.0</pdop><geoidheight>54.00</geoidheight><course>330.3</course><type>1</type></trkpt>
      <trkpt lat="39.80216376" lon="-6.45276836"><ele>1670</ele><speed>12.25</speed><time>2016-06-21T17:03:14Z</time><pdop>3.0</pdop><geoidheight>54.00</geoidheight><course>328.9</course><type>1</type></trkpt>
      <trkpt lat="39.80226085" lon="-6.45284539"><ele>1667</ele><speed>12.75</speed><time>2016-06-21T17:03:15Z</time><pdop>3.0</pdop><geoidheight>54.00</geoidheight><course>328.0</course><type>1</type></trkpt>
      <trkpt lat="39.80245731" lon="-6.45300256"><ele>1662</ele><speed>12.50</speed><time>2016-06-21T17:03:17Z</time><pdop>3.0</pdop><geoidheight>54.00</geoidheight><course>329.0</course><type>1</type></trkpt>
      <trkpt lat="39.80265649" lon="-6.45314241"><ele>1658</ele><speed>12.75</speed><time>2016-06-21T17:03:19Z</time><pdop>5.0</pdop><geoidheight>54.00</geoidheight><course>331.2</course><type>1</type></trkpt>
      <trkpt lat="39.80274958" lon="-6.4531983"><ele>1656</ele><speed>12.00</speed><time>2016-06-21T17:03:20Z</time><pdop>3.0</pdop><geoidheight>54.00</geoidheight><course>332.7</course><type>1</type></trkpt>
      <trkpt lat="39.80284479" lon="-6.45326205"><ele>1655</ele><speed>12.00</speed><time>2016-06-21T17:03:21Z</time><pdop>5.0</pdop><geoidheight>54.00</geoidheight><course>332.7</course><type>1</type></trkpt>
      <trkpt lat="39.80302287" lon="-6.45339685"><ele>1648</ele><speed>11.75</speed><time>2016-06-21T17:03:23Z</time><pdop>5.0</pdop><geoidheight>54.00</geoidheight><course>331.3</course><type>1</type></trkpt>
      <trkpt lat="39.80313947" lon="-6.45346437"><ele>1646</ele><speed>13.25</speed><time>2016-06-21T17:03:24Z</time><pdop>3.0</pdop><geoidheight>54.00</geoidheight><course>334.5</course><type>1</type></trkpt>
      <trkpt lat="39.80324785" lon="-6.45353129"><ele>1643</ele><speed>13.25</speed><time>2016-06-21T17:03:25Z</time><pdop>5.0</pdop><geoidheight>54.00</geoidheight><course>334.5</course><type>1</type></trkpt>
      <trkpt lat="39.80334358" lon="-6.45360818"><ele>1644</ele><speed>12.50</speed><time>2016-06-21T17:03:26Z</time><pdop>3.0</pdop><geoidheight>54.00</geoidheight><course>330.5</course><type>1</type></trkpt>
      <trkpt lat="39.80351701" lon="-6.45374524"><ele>1643</ele><speed>11.25</speed><time>2016-06-21T17:03:28Z</time><pdop>3.0</pdop><geoidheight>54.00</geoidheight><course>327.9</course><type>1</type></trkpt>
      <trkpt lat="39.80370005" lon="-6.45388668"><ele>1639</ele><speed>12.00</speed><time>2016-06-21T17:03:30Z</time><pdop>3.0</pdop><geoidheight>54.00</geoidheight><course>329.4</course><type>1</type></trkpt>
      <trkpt lat="39.80379859" lon="-6.45395683"><ele>1638</ele><speed>12.50</speed><time>2016-06-21T17:03:31Z</time><pdop>3.0</pdop><geoidheight>54.00</geoidheight><course>329.9</course><type>1</type></trkpt>
      <trkpt lat="39.80399393" lon="-6.45408402"><ele>1635</ele><speed>12.25</speed><time>2016-06-21T17:03:33Z</time><pdop>3.0</pdop><geoidheight>54.00</geoidheight><course>334.1</course><type>1</type></trkpt>
      <trkpt lat="39.80409413" lon="-6.45413854"><ele>1634</ele><speed>12.00</speed><time>2016-06-21T17:03:34Z</time><pdop>3.0</pdop><geoidheight>54.00</geoidheight><course>336.3</course><type>1</type></trkpt>
      <trkpt lat="39.804193" lon="-6.45418944"><ele>1662</ele><speed>11.75</speed><time>2016-06-21T17:03:35Z</time><pdop>3.0</pdop><geoidheight>54.00</geoidheight><course>337.9</course><type>1</type></trkpt>
      <trkpt lat="39.80439142" lon="-6.45429509"><ele>1639</ele><speed>12.00</speed><time>2016-06-21T17:03:37Z</time><pdop>3.0</pdop><geoidheight>54.00</geoidheight><course>338.6</course><type>1</type></trkpt>
      <trkpt lat="39.80450156" lon="-6.4543523"><ele>1634</ele><speed>13.00</speed><time>2016-06-21T17:03:38Z</time><pdop>3.0</pdop><geoidheight>54.00</geoidheight><course>338.5</course><type>1</type></trkpt>
      <trkpt lat="39.80461877" lon="-6.4544147"><ele>1631</ele><speed>13.75</speed><time>2016-06-21T17:03:39Z</time><pdop>3.0</pdop><geoidheight>54.00</geoidheight><course>337.8</course><type>1</type></trkpt>
      <trkpt lat="39.80473453" lon="-6.4544755"><ele>1629</ele><speed>14.00</speed><time>2016-06-21T17:03:40Z</time><pdop>3.0</pdop><geoidheight>54.00</geoidheight><course>337.1</course><type>1</type></trkpt>
      <trkpt lat="39.80485086" lon="-6.45453913"><ele>1629</ele><speed>14.00</speed><time>2016-06-21T17:03:41Z</time><pdop>5.0</pdop><geoidheight>54.00</geoidheight><course>337.1</course><type>1</type></trkpt>
      <trkpt lat="39.80504856" lon="-6.45466351"><ele>1625</ele><speed>12.75</speed><time>2016-06-21T17:03:43Z</time><pdop>3.0</pdop><geoidheight>54.00</geoidheight><course>334.0</course><type>1</type></trkpt>
      <trkpt lat="39.80516051" lon="-6.45473512"><ele>1624</ele><speed>13.50</speed><time>2016-06-21T17:03:44Z</time><pdop>3.0</pdop><geoidheight>54.00</geoidheight><course>332.9</course><type>1</type></trkpt>
      <trkpt lat="39.80526987" lon="-6.45480511"><ele>1623</ele><speed>13.75</speed><time>2016-06-21T17:03:45Z</time><pdop>3.0</pdop><geoidheight>54.00</geoidheight><course>332.6</course><type>1</type></trkpt>
      <trkpt lat="39.80548809" lon="-6.45495255"><ele>1623</ele><speed>13.50</speed><time>2016-06-21T17:03:47Z</time><pdop>3.0</pdop><geoidheight>54.00</geoidheight><course>332.6</course><type>1</type></trkpt>
      <trkpt lat="39.80559084" lon="-6.45502441"><ele>1624</ele><speed>12.75</speed><time>2016-06-21T17:03:48Z</time><pdop>3.0</pdop><geoidheight>54.00</geoidheight><course>331.1</course><type>1</type></trkpt>
      <trkpt lat="39.80576581" lon="-6.45517063"><ele>1624</ele><speed>11.50</speed><time>2016-06-21T17:03:50Z</time><pdop>3.0</pdop><geoidheight>54.00</geoidheight><course>327.7</course><type>1</type></trkpt>
      <trkpt lat="39.80594514" lon="-6.45531109"><ele>1622</ele><speed>11.75</speed><time>2016-06-21T17:03:52Z</time><pdop>3.0</pdop><geoidheight>54.00</geoidheight><course>330.1</course><type>1</type></trkpt>
      <trkpt lat="39.80614762" lon="-6.45542383"><ele>1629</ele><speed>12.25</speed><time>2016-06-21T17:03:54Z</time><pdop>3.0</pdop><geoidheight>54.00</geoidheight><course>338.7</course><type>1</type></trkpt>
      <trkpt lat="39.80625226" lon="-6.45547916"><ele>1625</ele><speed>12.50</speed><time>2016-06-21T17:03:55Z</time><pdop>4.0</pdop><geoidheight>54.00</geoidheight><course>337.9</course><type>1</type></trkpt>
      <trkpt lat="39.80645182" lon="-6.45561768"><ele>1622</ele><speed>12.50</speed><time>2016-06-21T17:03:57Z</time><pdop>3.0</pdop><geoidheight>54.00</geoidheight><course>332.4</course><type>1</type></trkpt>
      <trkpt lat="39.8065487" lon="-6.45567282"><ele>1622</ele><speed>12.00</speed><time>2016-06-21T17:03:58Z</time><pdop>3.0</pdop><geoidheight>54.00</geoidheight><course>335.3</course><type>1</type></trkpt>
      <trkpt lat="39.80664187" lon="-6.45571337"><ele>1621</ele><speed>11.00</speed><time>2016-06-21T17:03:59Z</time><pdop>3.0</pdop><geoidheight>54.00</geoidheight><course>339.8</course><type>1</type></trkpt>
      <trkpt lat="39.80673437" lon="-6.45575491"><ele>1621</ele><speed>10.75</speed><time>2016-06-21T17:04:00Z</time><pdop>3.0</pdop><geoidheight>54.00</geoidheight><course>340.6</course><type>1</type></trkpt>
      <trkpt lat="39.80692619" lon="-6.45585833"><ele>1619</ele><speed>11.75</speed><time>2016-06-21T17:04:02Z</time><pdop>3.0</pdop><geoidheight>54.00</geoidheight><course>335.5</course><type>1</type></trkpt>
      <trkpt lat="39.80702284" lon="-6.45591542"><ele>1618</ele><speed>11.75</speed><time>2016-06-21T17:04:03Z</time><pdop>5.0</pdop><geoidheight>54.00</geoidheight><course>335.5</course><type>1</type></trkpt>
      <trkpt lat="39.80712056" lon="-6.45597549"><ele>1618</ele><speed>11.75</speed><time>2016-06-21T17:04:04Z</time><pdop>3.0</pdop><geoidheight>54.00</geoidheight><course>335.1</course><type>1</type></trkpt>
      <trkpt lat="39.80721175" lon="-6.45602699"><ele>1618</ele><speed>11.50</speed><time>2016-06-21T17:04:05Z</time><pdop>3.0</pdop><geoidheight>54.00</geoidheight><course>335.6</course><type>1</type></trkpt>
      <trkpt lat="39.80730365" lon="-6.45608007"><ele>1617</ele><speed>11.25</speed><time>2016-06-21T17:04:06Z</time><pdop>3.0</pdop><geoidheight>54.00</geoidheight><course>335.9</course><type>1</type></trkpt>
      <trkpt lat="39.80750297" lon="-6.45618534"><ele>1615</ele><speed>12.50</speed><time>2016-06-21T17:04:08Z</time><pdop>3.0</pdop><geoidheight>54.00</geoidheight><course>337.9</course><type>1</type></trkpt>
      <trkpt lat="39.80771682" lon="-6.45628209"><ele>1614</ele><speed>12.50</speed><time>2016-06-21T17:04:10Z</time><pdop>3.0</pdop><geoidheight>54.00</geoidheight><course>341.2</course><type>1</type></trkpt>
      <trkpt lat="39.80791674" lon="-6.45637926"><ele>1614</ele><speed>11.75</speed><time>2016-06-21T17:04:12Z</time><pdop>3.0</pdop><geoidheight>54.00</geoidheight><course>339.2</course><type>1</type></trkpt>
      <trkpt lat="39.80810178" lon="-6.4565277"><ele>1610</ele><speed>12.00</speed><time>2016-06-21T17:04:14Z</time><pdop>4.0</pdop><geoidheight>54.00</geoidheight><course>327.4</course><type>1</type></trkpt>
      <trkpt lat="39.80819335" lon="-6.45660349"><ele>1609</ele><speed>12.00</speed><time>2016-06-21T17:04:15Z</time><pdop>5.0</pdop><geoidheight>54.00</geoidheight><course>327.4</course><type>1</type></trkpt>
      <trkpt lat="39.80838388" lon="-6.45676952"><ele>1613</ele><speed>12.75</speed><time>2016-06-21T17:04:17Z</time><pdop>5.0</pdop><geoidheight>54.00</geoidheight><course>327.4</course><type>1</type></trkpt>
      <trkpt lat="39.80847555" lon="-6.45681394"><ele>1618</ele><speed>10.50</speed><time>2016-06-21T17:04:18Z</time><pdop>3.0</pdop><geoidheight>54.00</geoidheight><course>332.8</course><type>1</type></trkpt>
      <trkpt lat="39.80862464" lon="-6.45693175"><ele>1620</ele><speed>9.75</speed><time>2016-06-21T17:04:20Z</time><pdop>4.0</pdop><geoidheight>54.00</geoidheight><course>327.4</course><type>1</type></trkpt>
      <trkpt lat="39.80878643" lon="-6.4570455"><ele>1627</ele><speed>10.00</speed><time>2016-06-21T17:04:22Z</time><pdop>3.0</pdop><geoidheight>54.00</geoidheight><course>336.9</course><type>1</type></trkpt>
      <trkpt lat="39.80886577" lon="-6.45703983"><ele>1627</ele><speed>8.75</speed><time>2016-06-21T17:04:23Z</time><pdop>3.0</pdop><geoidheight>54.00</geoidheight><course>359.2</course><type>1</type></trkpt>
      <trkpt lat="39.80893396" lon="-6.45698911"><ele>1627</ele><speed>8.25</speed><time>2016-06-21T17:04:24Z</time><pdop>4.0</pdop><geoidheight>54.00</geoidheight><course>25.3</course><type>1</type></trkpt>
      <trkpt lat="39.80900479" lon="-6.45694801"><ele>1627</ele><speed>8.75</speed><time>2016-06-21T17:04:25Z</time><pdop>4.0</pdop><geoidheight>54.00</geoidheight><course>22.5</course><type>1</type></trkpt>
      <trkpt lat="39.80909402" lon="-6.45678195"><ele>1628</ele><speed>8.75</speed><time>2016-06-21T17:04:27Z</time><pdop>5.0</pdop><geoidheight>54.00</geoidheight><course>44.0</course><type>1</type></trkpt>
      <trkpt lat="39.80898055" lon="-6.45671983"><ele>1631</ele><speed>5.75</speed><time>2016-06-21T17:04:28Z</time><pdop>3.0</pdop><geoidheight>54.00</geoidheight><course>110.8</course><type>1</type></trkpt>
      <trkpt lat="39.80889304" lon="-6.45665351"><ele>1632</ele><speed>6.00</speed><time>2016-06-21T17:04:30Z</time><pdop>3.0</pdop><geoidheight>54.00</geoidheight><course>161.4</course><type>1</type></trkpt>
      <trkpt lat="39.80883594" lon="-6.45664151"><ele>1633</ele><speed>6.50</speed><time>2016-06-21T17:04:31Z</time><pdop>3.0</pdop><geoidheight>54.00</geoidheight><course>179.6</course><type>1</type></trkpt>
      <trkpt lat="39.80877636" lon="-6.45666737"><ele>1634</ele><speed>7.25</speed><time>2016-06-21T17:04:32Z</time><pdop>3.0</pdop><geoidheight>54.00</geoidheight><course>199.5</course><type>1</type></trkpt>
      <trkpt lat="39.80867899" lon="-6.45683003"><ele>1635</ele><speed>9.75</speed><time>2016-06-21T17:04:34Z</time><pdop>3.0</pdop><geoidheight>54.00</geoidheight><course>237.9</course><type>1</type></trkpt>
      <trkpt lat="39.80864504" lon="-6.45694513"><ele>1636</ele><speed>10.75</speed><time>2016-06-21T17:04:35Z</time><pdop>3.0</pdop><geoidheight>54.00</geoidheight><course>249.9</course><type>1</type></trkpt>
      <trkpt lat="39.80863638" lon="-6.45720644"><ele>1640</ele><speed>11.00</speed><time>2016-06-21T17:04:37Z</time><pdop>3.0</pdop><geoidheight>54.00</geoidheight><course>270.6</course><type>1</type></trkpt>
      <trkpt lat="39.80869269" lon="-6.45744869"><ele>1623</ele><speed>10.75</speed><time>2016-06-21T17:04:39Z</time><pdop>3.0</pdop><geoidheight>54.00</geoidheight><course>288.5</course><type>1</type></trkpt>
      <trkpt lat="39.80874388" lon="-6.45755666"><ele>1632</ele><speed>11.00</speed><time>2016-06-21T17:04:40Z</time><pdop>3.0</pdop><geoidheight>54.00</geoidheight><course>299.3</course><type>1</type></trkpt>
      <trkpt lat="39.80881751" lon="-6.45765503"><ele>1636</ele><speed>12.00</speed><time>2016-06-21T17:04:41Z</time><pdop>3.0</pdop><geoidheight>54.00</geoidheight><course>312.7</course><type>1</type></trkpt>
      <trkpt lat="39.80891279" lon="-6.45773809"><ele>1638</ele><speed>12.75</speed><time>2016-06-21T17:04:42Z</time><pdop>3.0</pdop><geoidheight>54.00</geoidheight><course>324.3</course><type>1</type></trkpt>
      <trkpt lat="39.80901865" lon="-6.45778367"><ele>1641</ele><speed>12.50</speed><time>2016-06-21T17:04:43Z</time><pdop>3.0</pdop><geoidheight>54.00</geoidheight><course>338.8</course><type>1</type></trkpt>
      <trkpt lat="39.80911861" lon="-6.45778776"><ele>1642</ele><speed>11.25</speed><time>2016-06-21T17:04:44Z</time><pdop>3.0</pdop><geoidheight>54.00</geoidheight><course>355.5</course><type>1</type></trkpt>
      <trkpt lat="39.80927438" lon="-6.45767199"><ele>1644</ele><speed>10.00</speed><time>2016-06-21T17:04:46Z</time><pdop>4.0</pdop><geoidheight>54.00</geoidheight><course>33.3</course><type>1</type></trkpt>
      <trkpt lat="39.8093489" lon="-6.45758827"><ele>1642</ele><speed>11.00</speed><time>2016-06-21T17:04:47Z</time><pdop>4.0</pdop><geoidheight>54.00</geoidheight><course>36.5</course><type>1</type></trkpt>
      <trkpt lat="39.80929261" lon="-6.45750662"><ele>1647</ele><speed>6.50</speed><time>2016-06-21T17:04:48Z</time><pdop>3.0</pdop><geoidheight>54.00</geoidheight><course>81.3</course><type>1</type></trkpt>
      <trkpt lat="39.80918628" lon="-6.45739288"><ele>1650</ele><speed>6.00</speed><time>2016-06-21T17:04:51Z</time><pdop>3.0</pdop><geoidheight>54.00</geoidheight><course>160.2</course><type>1</type></trkpt>
      <trkpt lat="39.80912928" lon="-6.45738542"><ele>1652</ele><speed>6.50</speed><time>2016-06-21T17:04:52Z</time><pdop>3.0</pdop><geoidheight>54.00</geoidheight><course>177.5</course><type>1</type></trkpt>
      <trkpt lat="39.80906713" lon="-6.45741298"><ele>1653</ele><speed>7.25</speed><time>2016-06-21T17:04:53Z</time><pdop>3.0</pdop><geoidheight>54.00</geoidheight><course>198.8</course><type>1</type></trkpt>
      <trkpt lat="39.80896657" lon="-6.45759003"><ele>1653</ele><speed>10.00</speed><time>2016-06-21T17:04:55Z</time><pdop>3.0</pdop><geoidheight>54.00</geoidheight><course>238.5</course><type>1</type></trkpt>
      <trkpt lat="39.80893622" lon="-6.45772248"><ele>1653</ele><speed>11.75</speed><time>2016-06-21T17:04:56Z</time><pdop>3.0</pdop><geoidheight>54.00</geoidheight><course>251.7</course><type>1</type></trkpt>
      <trkpt lat="39.80893796" lon="-6.4580281"><ele>1655</ele><speed>13.50</speed><time>2016-06-21T17:04:58Z</time><pdop>3.0</pdop><geoidheight>54.00</geoidheight><course>274.7</course><type>1</type></trkpt>
      <trkpt lat="39.80897953" lon="-6.45818351"><ele>1656</ele><speed>13.50</speed><time>2016-06-21T17:04:59Z</time><pdop>3.0</pdop><geoidheight>54.00</geoidheight><course>285.7</course><type>1</type></trkpt>
      <trkpt lat="39.80910916" lon="-6.45844075"><ele>1658</ele><speed>13.25</speed><time>2016-06-21T17:05:01Z</time><pdop>3.0</pdop><geoidheight>54.00</geoidheight><course>307.0</course><type>1</type></trkpt>
      <trkpt lat="39.80919789" lon="-6.45853937"><ele>1658</ele><speed>13.00</speed><time>2016-06-21T17:05:02Z</time><pdop>3.0</pdop><geoidheight>54.00</geoidheight><course>316.5</course><type>1</type></trkpt>
      <trkpt lat="39.80929523" lon="-6.45861286"><ele>1658</ele><speed>12.50</speed><time>2016-06-21T17:05:03Z</time><pdop>3.0</pdop><geoidheight>54.00</geoidheight><course>327.8</course><type>1</type></trkpt>
      <trkpt lat="39.80950921" lon="-6.4586718"><ele>1657</ele><speed>12.25</speed><time>2016-06-21T17:05:05Z</time><pdop>3.0</pdop><geoidheight>54.00</geoidheight><course>353.3</course><type>1</type></trkpt>
      <trkpt lat="39.80961951" lon="-6.45864969"><ele>1655</ele><speed>12.50</speed><time>2016-06-21T17:05:06Z</time><pdop>3.0</pdop><geoidheight>54.00</geoidheight><course>5.7</course><type>1</type></trkpt>
      <trkpt lat="39.8097216" lon="-6.45859913"><ele>1654</ele><speed>12.00</speed><time>2016-06-21T17:05:07Z</time><pdop>3.0</pdop><geoidheight>54.00</geoidheight><course>18.6</course><type>1</type></trkpt>
      <trkpt lat="39.80980579" lon="-6.45853391"><ele>1654</ele><speed>11.00</speed><time>2016-06-21T17:05:08Z</time><pdop>3.0</pdop><geoidheight>54.00</geoidheight><course>29.2</course><type>1</type></trkpt>
      <trkpt lat="39.80993516" lon="-6.45840135"><ele>1656</ele><speed>8.75</speed><time>2016-06-21T17:05:10Z</time><pdop>3.0</pdop><geoidheight>54.00</geoidheight><course>39.6</course><type>1</type></trkpt>
      <trkpt lat="39.80999089" lon="-6.45834477"><ele>1656</ele><speed>8.00</speed><time>2016-06-21T17:05:11Z</time><pdop>3.0</pdop><geoidheight>54.00</geoidheight><course>37.4</course><type>1</type></trkpt>
      <trkpt lat="39.81004903" lon="-6.45830652"><ele>1657</ele><speed>7.25</speed><time>2016-06-21T17:05:12Z</time><pdop>3.0</pdop><geoidheight>54.00</geoidheight><course>28.8</course><type>1</type></trkpt>
      <trkpt lat="39.81019075" lon="-6.45824044"><ele>1657</ele><speed>8.75</speed><time>2016-06-21T17:05:14Z</time><pdop>3.0</pdop><geoidheight>54.00</geoidheight><course>18.1</course><type>1</type></trkpt>
      <trkpt lat="39.81027991" lon="-6.45821499"><ele>1657</ele><speed>10.00</speed><time>2016-06-21T17:05:15Z</time><pdop>3.0</pdop><geoidheight>54.00</geoidheight><course>12.9</course><type>1</type></trkpt>
      <trkpt lat="39.81037328" lon="-6.45820069"><ele>1656</ele><speed>10.75</speed><time>2016-06-21T17:05:16Z</time><pdop>3.0</pdop><geoidheight>54.00</geoidheight><course>7.6</course><type>1</type></trkpt>
      <trkpt lat="39.81055332" lon="-6.45815812"><ele>1658</ele><speed>10.00</speed><time>2016-06-21T17:05:18Z</time><pdop>3.0</pdop><geoidheight>54.00</geoidheight><course>12.1</course><type>1</type></trkpt>
      <trkpt lat="39.81063651" lon="-6.45812874"><ele>1660</ele><speed>10.00</speed><time>2016-06-21T17:05:19Z</time><pdop>4.0</pdop><geoidheight>54.00</geoidheight><course>15.0</course><type>1</type></trkpt>
      <trkpt lat="39.81083267" lon="-6.45810962"><ele>1662</ele><speed>11.00</speed><time>2016-06-21T17:05:21Z</time><pdop>3.0</pdop><geoidheight>54.00</geoidheight><course>1.6</course><type>1</type></trkpt>
      <trkpt lat="39.81093088" lon="-6.45812294"><ele>1664</ele><speed>10.75</speed><time>2016-06-21T17:05:22Z</time><pdop>3.0</pdop><geoidheight>54.00</geoidheight><course>354.4</course><type>1</type></trkpt>
      <trkpt lat="39.81112185" lon="-6.45814702"><ele>1661</ele><speed>10.75</speed><time>2016-06-21T17:05:24Z</time><pdop>3.0</pdop><geoidheight>54.00</geoidheight><course>356.0</course><type>1</type></trkpt>
      <trkpt lat="39.81121055" lon="-6.45814033"><ele>1662</ele><speed>10.25</speed><time>2016-06-21T17:05:25Z</time><pdop>3.0</pdop><geoidheight>54.00</geoidheight><course>1.9</course><type>1</type></trkpt>
      <trkpt lat="39.81129593" lon="-6.458119"><ele>1662</ele><speed>9.75</speed><time>2016-06-21T17:05:26Z</time><pdop>3.0</pdop><geoidheight>54.00</geoidheight><course>8.5</course><type>1</type></trkpt>
      <trkpt lat="39.81142439" lon="-6.45801583"><ele>1662</ele><speed>8.50</speed><time>2016-06-21T17:05:28Z</time><pdop>3.0</pdop><geoidheight>54.00</geoidheight><course>38.2</course><type>1</type></trkpt>
      <trkpt lat="39.81145675" lon="-6.45784363"><ele>1661</ele><speed>7.50</speed><time>2016-06-21T17:05:30Z</time><pdop>3.0</pdop><geoidheight>54.00</geoidheight><course>87.7</course><type>1</type></trkpt>
      <trkpt lat="39.81142933" lon="-6.45777054"><ele>1662</ele><speed>7.00</speed><time>2016-06-21T17:05:31Z</time><pdop>3.0</pdop><geoidheight>54.00</geoidheight><course>114.5</course><type>1</type></trkpt>
      <trkpt lat="39.81133964" lon="-6.45770508"><ele>1663</ele><speed>5.50</speed><time>2016-06-21T17:05:33Z</time><pdop>4.0</pdop><geoidheight>54.00</geoidheight><course>159.4</course><type>1</type></trkpt>
      <trkpt lat="39.81123745" lon="-6.45770489"><ele>1662</ele><speed>5.75</speed><time>2016-06-21T17:05:35Z</time><pdop>3.0</pdop><geoidheight>54.00</geoidheight><course>181.8</course><type>1</type></trkpt>
      <trkpt lat="39.81112096" lon="-6.45775669"><ele>1661</ele><speed>7.00</speed><time>2016-06-21T17:05:37Z</time><pdop>3.0</pdop><geoidheight>54.00</geoidheight><course>201.1</course><type>1</type></trkpt>
      <trkpt lat="39.81107076" lon="-6.45781181"><ele>1661</ele><speed>7.00</speed><time>2016-06-21T17:05:38Z</time><pdop>3.0</pdop><geoidheight>54.00</geoidheight><course>216.3</course><type>1</type></trkpt>
      <trkpt lat="39.81103344" lon="-6.45788572"><ele>1661</ele><speed>7.25</speed><time>2016-06-21T17:05:39Z</time><pdop>3.0</pdop><geoidheight>54.00</geoidheight><course>234.3</course><type>1</type></trkpt>
      <trkpt lat="39.81100525" lon="-6.45809604"><ele>1661</ele><speed>9.50</speed><time>2016-06-21T17:05:41Z</time><pdop>3.0</pdop><geoidheight>54.00</geoidheight><course>266.2</course><type>1</type></trkpt>
      <trkpt lat="39.81107787" lon="-6.45833479"><ele>1661</ele><speed>11.00</speed><time>2016-06-21T17:05:43Z</time><pdop>3.0</pdop><geoidheight>54.00</geoidheight><course>296.5</course><type>1</type></trkpt>
      <trkpt lat="39.81114323" lon="-6.45843901"><ele>1662</ele><speed>11.50</speed><time>2016-06-21T17:05:44Z</time><pdop>3.0</pdop><geoidheight>54.00</geoidheight><course>307.7</course><type>1</type></trkpt>
      <trkpt lat="39.81121385" lon="-6.45852741"><ele>1663</ele><speed>11.00</speed><time>2016-06-21T17:05:45Z</time><pdop>3.0</pdop><geoidheight>54.00</geoidheight><course>315.5</course><type>1</type></trkpt>
      <trkpt lat="39.81136475" lon="-6.45866572"><ele>1664</ele><speed>10.25</speed><time>2016-06-21T17:05:47Z</time><pdop>3.0</pdop><geoidheight>54.00</geoidheight><course>326.2</course><type>1</type></trkpt>
      <trkpt lat="39.81144325" lon="-6.45872802"><ele>1658</ele><speed>10.25</speed><time>2016-06-21T17:05:48Z</time><pdop>3.0</pdop><geoidheight>54.00</geoidheight><course>329.7</course><type>1</type></trkpt>
      <trkpt lat="39.81153223" lon="-6.45878733"><ele>1659</ele><speed>11.00</speed><time>2016-06-21T17:05:49Z</time><pdop>3.0</pdop><geoidheight>54.00</geoidheight><course>332.2</course><type>1</type></trkpt>
      <trkpt lat="39.81162643" lon="-6.45884422"><ele>1659</ele><speed>11.75</speed><time>2016-06-21T17:05:50Z</time><pdop>3.0</pdop><geoidheight>54.00</geoidheight><course>333.3</course><type>1</type></trkpt>
      <trkpt lat="39.81180964" lon="-6.45896952"><ele>1661</ele><speed>11.25</speed><time>2016-06-21T17:05:52Z</time><pdop>3.0</pdop><geoidheight>54.00</geoidheight><course>332.2</course><type>1</type></trkpt>
      <trkpt lat="39.81189389" lon="-6.45902063"><ele>1662</ele><speed>10.75</speed><time>2016-06-21T17:05:53Z</time><pdop>3.0</pdop><geoidheight>54.00</geoidheight><course>334.3</course><type>1</type></trkpt>
      <trkpt lat="39.81197721" lon="-6.45906493"><ele>1662</ele><speed>10.00</speed><time>2016-06-21T17:05:54Z</time><pdop>4.0</pdop><geoidheight>54.00</geoidheight><course>337.6</course><type>1</type></trkpt>
      <trkpt lat="39.81216597" lon="-6.45911034"><ele>1662</ele><speed>11.00</speed><time>2016-06-21T17:05:56Z</time><pdop>3.0</pdop><geoidheight>54.00</geoidheight><course>350.5</course><type>1</type></trkpt>
      <trkpt lat="39.81237427" lon="-6.45915932"><ele>1662</ele><speed>12.00</speed><time>2016-06-21T17:05:58Z</time><pdop>3.0</pdop><geoidheight>54.00</geoidheight><course>348.6</course><type>1</type></trkpt>
      <trkpt lat="39.81247957" lon="-6.45919736"><ele>1662</ele><speed>12.00</speed><time>2016-06-21T17:05:59Z</time><pdop>3.0</pdop><geoidheight>54.00</geoidheight><course>345.7</course><type>1</type></trkpt>
      <trkpt lat="39.81270884" lon="-6.45924945"><ele>1662</ele><speed>13.00</speed><time>2016-06-21T17:06:01Z</time><pdop>3.0</pdop><geoidheight>54.00</geoidheight><course>351.4</course><type>1</type></trkpt>
      <trkpt lat="39.8128276" lon="-6.45927208"><ele>1664</ele><speed>13.25</speed><time>2016-06-21T17:06:02Z</time><pdop>3.0</pdop><geoidheight>54.00</geoidheight><course>352.1</course><type>1</type></trkpt>
      <trkpt lat="39.81305558" lon="-6.45933109"><ele>1668</ele><speed>12.50</speed><time>2016-06-21T17:06:04Z</time><pdop>3.0</pdop><geoidheight>54.00</geoidheight><course>347.6</course><type>1</type></trkpt>
      <trkpt lat="39.81315594" lon="-6.4593636"><ele>1670</ele><speed>11.75</speed><time>2016-06-21T17:06:05Z</time><pdop>3.0</pdop><geoidheight>54.00</geoidheight><course>345.5</course><type>1</type></trkpt>
      <trkpt lat="39.81325221" lon="-6.45939695"><ele>1670</ele><speed>11.25</speed><time>2016-06-21T17:06:06Z</time><pdop>3.0</pdop><geoidheight>54.00</geoidheight><course>344.6</course><type>1</type></trkpt>
      <trkpt lat="39.81344559" lon="-6.4594788"><ele>1670</ele><speed>11.25</speed><time>2016-06-21T17:06:08Z</time><pdop>3.0</pdop><geoidheight>54.00</geoidheight><course>340.9</course><type>1</type></trkpt>
      <trkpt lat="39.81354256" lon="-6.45952275"><ele>1670</ele><speed>11.50</speed><time>2016-06-21T17:06:09Z</time><pdop>4.0</pdop><geoidheight>54.00</geoidheight><course>340.7</course><type>1</type></trkpt>
      <trkpt lat="39.81364206" lon="-6.45955792"><ele>1669</ele><speed>11.50</speed><time>2016-06-21T17:06:10Z</time><pdop>3.0</pdop><geoidheight>54.00</geoidheight><course>344.0</course><type>1</type></trkpt>
      <trkpt lat="39.81384512" lon="-6.45961161"><ele>1668</ele><speed>11.50</speed><time>2016-06-21T17:06:12Z</time><pdop>3.0</pdop><geoidheight>54.00</geoidheight><course>349.1</course><type>1</type></trkpt>
      <trkpt lat="39.81394998" lon="-6.45964389"><ele>1667</ele><speed>12.00</speed><time>2016-06-21T17:06:13Z</time><pdop>3.0</pdop><geoidheight>54.00</geoidheight><course>347.0</course><type>1</type></trkpt>
      <trkpt lat="39.81405578" lon="-6.459684"><ele>1667</ele><speed>12.25</speed><time>2016-06-21T17:06:14Z</time><pdop>3.0</pdop><geoidheight>54.00</geoidheight><course>343.7</course><type>1</type></trkpt>
      <trkpt lat="39.81426198" lon="-6.45977501"><ele>1666</ele><speed>12.00</speed><time>2016-06-21T17:06:16Z</time><pdop>4.0</pdop><geoidheight>54.00</geoidheight><course>340.4</course><type>1</type></trkpt>
      <trkpt lat="39.81436452" lon="-6.45981988"><ele>1666</ele><speed>12.25</speed><time>2016-06-21T17:06:17Z</time><pdop>3.0</pdop><geoidheight>54.00</geoidheight><course>340.0</course><type>1</type></trkpt>
      <trkpt lat="39.81457111" lon="-6.45992883"><ele>1664</ele><speed>12.25</speed><time>2016-06-21T17:06:19Z</time><pdop>3.0</pdop><geoidheight>54.00</geoidheight><course>336.9</course><type>1</type></trkpt>
      <trkpt lat="39.81468369" lon="-6.45998898"><ele>1663</ele><speed>13.25</speed><time>2016-06-21T17:06:20Z</time><pdop>4.0</pdop><geoidheight>54.00</geoidheight><course>337.7</course><type>1</type></trkpt>
      <trkpt lat="39.8147896" lon="-6.46004673"><ele>1661</ele><speed>13.00</speed><time>2016-06-21T17:06:21Z</time><pdop>3.0</pdop><geoidheight>54.00</geoidheight><course>338.2</course><type>1</type></trkpt>
      <trkpt lat="39.81489342" lon="-6.46009856"><ele>1660</ele><speed>12.50</speed><time>2016-06-21T17:06:22Z</time><pdop>3.0</pdop><geoidheight>54.00</geoidheight><course>338.4</course><type>1</type></trkpt>
      <trkpt lat="39.81508942" lon="-6.46019795"><ele>1658</ele><speed>11.75</speed><time>2016-06-21T17:06:24Z</time><pdop>3.0</pdop><geoidheight>54.00</geoidheight><course>338.7</course><type>1</type></trkpt>
      <trkpt lat="39.8151885" lon="-6.46024621"><ele>1656</ele><speed>11.75</speed><time>2016-06-21T17:06:25Z</time><pdop>3.0</pdop><geoidheight>54.00</geoidheight><course>339.0</course><type>1</type></trkpt>
      <trkpt lat="39.81528998" lon="-6.46029769"><ele>1653</ele><speed>12.00</speed><time>2016-06-21T17:06:26Z</time><pdop>3.0</pdop><geoidheight>54.00</geoidheight><course>339.3</course><type>1</type></trkpt>
      <trkpt lat="39.81550537" lon="-6.46038684"><ele>1648</ele><speed>12.50</speed><time>2016-06-21T17:06:28Z</time><pdop>3.0</pdop><geoidheight>54.00</geoidheight><course>343.5</course><type>1</type></trkpt>
      <trkpt lat="39.81561417" lon="-6.4604205"><ele>1645</ele><speed>12.75</speed><time>2016-06-21T17:06:29Z</time><pdop>3.0</pdop><geoidheight>54.00</geoidheight><course>346.1</course><type>1</type></trkpt>
      <trkpt lat="39.81583002" lon="-6.46047364"><ele>1640</ele><speed>12.25</speed><time>2016-06-21T17:06:31Z</time><pdop>3.0</pdop><geoidheight>54.00</geoidheight><course>350.4</course><type>1</type></trkpt>
      <trkpt lat="39.81593566" lon="-6.46049707"><ele>1637</ele><speed>12.00</speed><time>2016-06-21T17:06:32Z</time><pdop>3.0</pdop><geoidheight>54.00</geoidheight><course>349.8</course><type>1</type></trkpt>
      <trkpt lat="39.81603938" lon="-6.46052553"><ele>1634</ele><speed>11.75</speed><time>2016-06-21T17:06:33Z</time><pdop>3.0</pdop><geoidheight>54.00</geoidheight><course>347.9</course><type>1</type></trkpt>
      <trkpt lat="39.81625271" lon="-6.46058852"><ele>1627</ele><speed>12.50</speed><time>2016-06-21T17:06:35Z</time><pdop>3.0</pdop><geoidheight>54.00</geoidheight><course>347.8</course><type>1</type></trkpt>
      <trkpt lat="39.81636493" lon="-6.46062077"><ele>1624</ele><speed>12.75</speed><time>2016-06-21T17:06:36Z</time><pdop>4.0</pdop><geoidheight>54.00</geoidheight><course>347.7</course><type>1</type></trkpt>
      <trkpt lat="39.81647281" lon="-6.46065171"><ele>1621</ele><speed>12.50</speed><time>2016-06-21T17:06:37Z</time><pdop>3.0</pdop><geoidheight>54.00</geoidheight><course>347.7</course><type>1</type></trkpt>
      <trkpt lat="39.81669285" lon="-6.4607305"><ele>1612</ele><speed>12.75</speed><time>2016-06-21T17:06:39Z</time><pdop>3.0</pdop><geoidheight>54.00</geoidheight><course>343.2</course><type>1</type></trkpt>
      <trkpt lat="39.81680582" lon="-6.4607698"><ele>1608</ele><speed>13.25</speed><time>2016-06-21T17:06:40Z</time><pdop>3.0</pdop><geoidheight>54.00</geoidheight><course>343.5</course><type>1</type></trkpt>
      <trkpt lat="39.81692121" lon="-6.46080803"><ele>1604</ele><speed>13.00</speed><time>2016-06-21T17:06:41Z</time><pdop>3.0</pdop><geoidheight>54.00</geoidheight><course>345.2</course><type>1</type></trkpt>
      <trkpt lat="39.8170264" lon="-6.46084319"><ele>1600</ele><speed>12.00</speed><time>2016-06-21T17:06:42Z</time><pdop>4.0</pdop><geoidheight>54.00</geoidheight><course>345.9</course><type>1</type></trkpt>
      <trkpt lat="39.81712261" lon="-6.46088722"><ele>1594</ele><speed>11.50</speed><time>2016-06-21T17:06:43Z</time><pdop>3.0</pdop><geoidheight>54.00</geoidheight><course>343.1</course><type>1</type></trkpt>
      <trkpt lat="39.81722584" lon="-6.46093917"><ele>1589</ele><speed>12.25</speed><time>2016-06-21T17:06:44Z</time><pdop>3.0</pdop><geoidheight>54.00</geoidheight><course>339.9</course><type>1</type></trkpt>
      <trkpt lat="39.81745873" lon="-6.46104007"><ele>1580</ele><speed>13.75</speed><time>2016-06-21T17:06:46Z</time><pdop>3.0</pdop><geoidheight>54.00</geoidheight><course>343.5</course><type>1</type></trkpt>
      <trkpt lat="39.81758432" lon="-6.46107672"><ele>1576</ele><speed>14.00</speed><time>2016-06-21T17:06:47Z</time><pdop>3.0</pdop><geoidheight>54.00</geoidheight><course>346.4</course><type>1</type></trkpt>
      <trkpt lat="39.81770598" lon="-6.46111264"><ele>1571</ele><speed>13.75</speed><time>2016-06-21T17:06:48Z</time><pdop>3.0</pdop><geoidheight>54.00</geoidheight><course>347.3</course><type>1</type></trkpt>
      <trkpt lat="39.81781788" lon="-6.46114585"><ele>1568</ele><speed>13.00</speed><time>2016-06-21T17:06:49Z</time><pdop>3.0</pdop><geoidheight>54.00</geoidheight><course>347.7</course><type>1</type></trkpt>
      <trkpt lat="39.81804158" lon="-6.46119463"><ele>1558</ele><speed>12.75</speed><time>2016-06-21T17:06:51Z</time><pdop>3.0</pdop><geoidheight>54.00</geoidheight><course>350.9</course><type>1</type></trkpt>
      <trkpt lat="39.81825889" lon="-6.46123273"><ele>1549</ele><speed>12.00</speed><time>2016-06-21T17:06:53Z</time><pdop>3.0</pdop><geoidheight>54.00</geoidheight><course>352.2</course><type>1</type></trkpt>
      <trkpt lat="39.81848066" lon="-6.46128559"><ele>1539</ele><speed>12.50</speed><time>2016-06-21T17:06:55Z</time><pdop>3.0</pdop><geoidheight>54.00</geoidheight><course>348.5</course><type>1</type></trkpt>
      <trkpt lat="39.81870234" lon="-6.46134223"><ele>1530</ele><speed>12.75</speed><time>2016-06-21T17:06:57Z</time><pdop>3.0</pdop><geoidheight>54.00</geoidheight><course>349.2</course><type>1</type></trkpt>
      <trkpt lat="39.81881461" lon="-6.46136203"><ele>1527</ele><speed>12.75</speed><time>2016-06-21T17:06:58Z</time><pdop>3.0</pdop><geoidheight>54.00</geoidheight><course>351.5</course><type>1</type></trkpt>
      <trkpt lat="39.81892556" lon="-6.46136929"><ele>1524</ele><speed>12.25</speed><time>2016-06-21T17:06:59Z</time><pdop>3.0</pdop><geoidheight>54.00</geoidheight><course>355.4</course><type>1</type></trkpt>
      <trkpt lat="39.81903428" lon="-6.46137394"><ele>1520</ele><speed>12.25</speed><time>2016-06-21T17:07:00Z</time><pdop>3.0</pdop><geoidheight>54.00</geoidheight><course>357.7</course><type>1</type></trkpt>
      <trkpt lat="39.81914638" lon="-6.46138304"><ele>1515</ele><speed>12.25</speed><time>2016-06-21T17:07:01Z</time><pdop>3.0</pdop><geoidheight>54.00</geoidheight><course>356.9</course><type>1</type></trkpt>
      <trkpt lat="39.81937722" lon="-6.46141117"><ele>1507</ele><speed>13.25</speed><time>2016-06-21T17:07:03Z</time><pdop>3.0</pdop><geoidheight>54.00</geoidheight><course>355.0</course><type>1</type></trkpt>
      <trkpt lat="39.81960798" lon="-6.46141958"><ele>1499</ele><speed>12.75</speed><time>2016-06-21T17:07:05Z</time><pdop>3.0</pdop><geoidheight>54.00</geoidheight><course>359.1</course><type>1</type></trkpt>
      <trkpt lat="39.81971953" lon="-6.46142147"><ele>1494</ele><speed>12.25</speed><time>2016-06-21T17:07:06Z</time><pdop>4.0</pdop><geoidheight>54.00</geoidheight><course>358.9</course><type>1</type></trkpt>
      <trkpt lat="39.81983069" lon="-6.46143289"><ele>1490</ele><speed>12.50</speed><time>2016-06-21T17:07:07Z</time><pdop>3.0</pdop><geoidheight>54.00</geoidheight><course>356.9</course><type>1</type></trkpt>
      <trkpt lat="39.82005993" lon="-6.46145314"><ele>1481</ele><speed>12.75</speed><time>2016-06-21T17:07:09Z</time><pdop>3.0</pdop><geoidheight>54.00</geoidheight><course>355.8</course><type>1</type></trkpt>
      <trkpt lat="39.82017458" lon="-6.46146481"><ele>1476</ele><speed>12.75</speed><time>2016-06-21T17:07:10Z</time><pdop>3.0</pdop><geoidheight>54.00</geoidheight><course>355.4</course><type>1</type></trkpt>
      <trkpt lat="39.82029013" lon="-6.4614772"><ele>1472</ele><speed>12.75</speed><time>2016-06-21T17:07:11Z</time><pdop>3.0</pdop><geoidheight>54.00</geoidheight><course>354.3</course><type>1</type></trkpt>
      <trkpt lat="39.82051204" lon="-6.46150982"><ele>1465</ele><speed>12.25</speed><time>2016-06-21T17:07:13Z</time><pdop>3.0</pdop><geoidheight>54.00</geoidheight><course>354.4</course><type>1</type></trkpt>
      <trkpt lat="39.820619" lon="-6.46151454"><ele>1460</ele><speed>12.00</speed><time>2016-06-21T17:07:14Z</time><pdop>3.0</pdop><geoidheight>54.00</geoidheight><course>356.7</course><type>1</type></trkpt>
      <trkpt lat="39.82072926" lon="-6.46151342"><ele>1456</ele><speed>12.25</speed><time>2016-06-21T17:07:15Z</time><pdop>3.0</pdop><geoidheight>54.00</geoidheight><course>359.9</course><type>1</type></trkpt>
      <trkpt lat="39.82084166" lon="-6.4615069"><ele>1451</ele><speed>12.50</speed><time>2016-06-21T17:07:16Z</time><pdop>3.0</pdop><geoidheight>54.00</geoidheight><course>1.5</course><type>1</type></trkpt>
      <trkpt lat="39.82108598" lon="-6.46150899"><ele>1444</ele><speed>13.75</speed><time>2016-06-21T17:07:18Z</time><pdop>3.0</pdop><geoidheight>54.00</geoidheight><course>358.6</course><type>1</type></trkpt>
      <trkpt lat="39.82120861" lon="-6.46151751"><ele>1441</ele><speed>13.75</speed><time>2016-06-21T17:07:19Z</time><pdop>3.0</pdop><geoidheight>54.00</geoidheight><course>356.7</course><type>1</type></trkpt>
      <trkpt lat="39.82132511" lon="-6.46152497"><ele>1439</ele><speed>13.00</speed><time>2016-06-21T17:07:20Z</time><pdop>3.0</pdop><geoidheight>54.00</geoidheight><course>356.7</course><type>1</type></trkpt>
      <trkpt lat="39.82154069" lon="-6.46154346"><ele>1434</ele><speed>11.75</speed><time>2016-06-21T17:07:22Z</time><pdop>3.0</pdop><geoidheight>54.00</geoidheight><course>356.1</course><type>1</type></trkpt>
      <trkpt lat="39.82164537" lon="-6.46155895"><ele>1430</ele><speed>11.75</speed><time>2016-06-21T17:07:23Z</time><pdop>3.0</pdop><geoidheight>54.00</geoidheight><course>354.4</course><type>1</type></trkpt>
      <trkpt lat="39.82175286" lon="-6.46157349"><ele>1426</ele><speed>12.25</speed><time>2016-06-21T17:07:24Z</time><pdop>3.0</pdop><geoidheight>54.00</geoidheight><course>353.5</course><type>1</type></trkpt>
      <trkpt lat="39.8219771" lon="-6.46161407"><ele>1420</ele><speed>12.50</speed><time>2016-06-21T17:07:26Z</time><pdop>3.0</pdop><geoidheight>54.00</geoidheight><course>351.7</course><type>1</type></trkpt>
      <trkpt lat="39.82219147" lon="-6.46166415"><ele>1415</ele><speed>12.00</speed><time>2016-06-21T17:07:28Z</time><pdop>3.0</pdop><geoidheight>54.00</geoidheight><course>351.6</course><type>1</type></trkpt>
      <trkpt lat="39.82229448" lon="-6.46168008"><ele>1413</ele><speed>11.50</speed><time>2016-06-21T17:07:29Z</time><pdop>3.0</pdop><geoidheight>54.00</geoidheight><course>352.4</course><type>1</type></trkpt>
      <trkpt lat="39.82239717" lon="-6.46169553"><ele>1409</ele><speed>11.50</speed><time>2016-06-21T17:07:30Z</time><pdop>3.0</pdop><geoidheight>54.00</geoidheight><course>353.2</course><type>1</type></trkpt>
      <trkpt lat="39.82262457" lon="-6.46174404"><ele>1403</ele><speed>12.75</speed><time>2016-06-21T17:07:32Z</time><pdop>3.0</pdop><geoidheight>54.00</geoidheight><course>349.0</course><type>1</type></trkpt>
      <trkpt lat="39.82273943" lon="-6.46177879"><ele>1401</ele><speed>13.00</speed><time>2016-06-21T17:07:33Z</time><pdop>3.0</pdop><geoidheight>54.00</geoidheight><course>347.3</course><type>1</type></trkpt>
      <trkpt lat="39.82284823" lon="-6.46180932"><ele>1399</ele><speed>12.50</speed><time>2016-06-21T17:07:34Z</time><pdop>3.0</pdop><geoidheight>54.00</geoidheight><course>347.8</course><type>1</type></trkpt>
      <trkpt lat="39.82295458" lon="-6.46183433"><ele>1397</ele><speed>12.00</speed><time>2016-06-21T17:07:35Z</time><pdop>3.0</pdop><geoidheight>54.00</geoidheight><course>349.0</course><type>1</type></trkpt>
      <trkpt lat="39.82317953" lon="-6.46187654"><ele>1393</ele><speed>12.75</speed><time>2016-06-21T17:07:37Z</time><pdop>3.0</pdop><geoidheight>54.00</geoidheight><course>352.6</course><type>1</type></trkpt>
      <trkpt lat="39.82329664" lon="-6.46189991"><ele>1391</ele><speed>13.00</speed><time>2016-06-21T17:07:38Z</time><pdop>3.0</pdop><geoidheight>54.00</geoidheight><course>351.2</course><type>1</type></trkpt>
      <trkpt lat="39.82340484" lon="-6.46192599"><ele>1389</ele><speed>12.50</speed><time>2016-06-21T17:07:39Z</time><pdop>3.0</pdop><geoidheight>54.00</geoidheight><course>348.7</course><type>1</type></trkpt>
      <trkpt lat="39.82362016" lon="-6.46198621"><ele>1385</ele><speed>12.25</speed><time>2016-06-21T17:07:41Z</time><pdop>3.0</pdop><geoidheight>54.00</geoidheight><course>348.2</course><type>1</type></trkpt>
      <trkpt lat="39.82372821" lon="-6.46201246"><ele>1384</ele><speed>12.25</speed><time>2016-06-21T17:07:42Z</time><pdop>4.0</pdop><geoidheight>54.00</geoidheight><course>349.3</course><type>1</type></trkpt>
      <trkpt lat="39.82383756" lon="-6.46204434"><ele>1381</ele><speed>12.25</speed><time>2016-06-21T17:07:43Z</time><pdop>3.0</pdop><geoidheight>54.00</geoidheight><course>347.2</course><type>1</type></trkpt>
      <trkpt lat="39.82404728" lon="-6.46211558"><ele>1378</ele><speed>12.00</speed><time>2016-06-21T17:07:45Z</time><pdop>4.0</pdop><geoidheight>54.00</geoidheight><course>346.9</course><type>1</type></trkpt>
      <trkpt lat="39.82415308" lon="-6.46215162"><ele>1376</ele><speed>12.00</speed><time>2016-06-21T17:07:46Z</time><pdop>3.0</pdop><geoidheight>54.00</geoidheight><course>345.7</course><type>1</type></trkpt>
      <trkpt lat="39.82425143" lon="-6.46218433"><ele>1372</ele><speed>11.50</speed><time>2016-06-21T17:07:47Z</time><pdop>3.0</pdop><geoidheight>54.00</geoidheight><course>346.5</course><type>1</type></trkpt>
      <trkpt lat="39.82446231" lon="-6.4622455"><ele>1366</ele><speed>12.25</speed><time>2016-06-21T17:07:49Z</time><pdop>3.0</pdop><geoidheight>54.00</geoidheight><course>347.6</course><type>1</type></trkpt>
      <trkpt lat="39.82457583" lon="-6.46227761"><ele>1363</ele><speed>12.75</speed><time>2016-06-21T17:07:50Z</time><pdop>4.0</pdop><geoidheight>54.00</geoidheight><course>348.1</course><type>1</type></trkpt>
      <trkpt lat="39.82468879" lon="-6.46230705"><ele>1360</ele><speed>12.75</speed><time>2016-06-21T17:07:51Z</time><pdop>3.0</pdop><geoidheight>54.00</geoidheight><course>348.7</course><type>1</type></trkpt>
      <trkpt lat="39.8249063" lon="-6.46234503"><ele>1354</ele><speed>12.25</speed><time>2016-06-21T17:07:53Z</time><pdop>3.0</pdop><geoidheight>54.00</geoidheight><course>352.4</course><type>1</type></trkpt>
      <trkpt lat="39.82502409" lon="-6.46236098"><ele>1351</ele><speed>12.75</speed><time>2016-06-21T17:07:54Z</time><pdop>3.0</pdop><geoidheight>54.00</geoidheight><course>354.2</course><type>1</type></trkpt>
      <trkpt lat="39.82513952" lon="-6.46237408"><ele>1349</ele><speed>12.75</speed><time>2016-06-21T17:07:55Z</time><pdop>4.0</pdop><geoidheight>54.00</geoidheight><course>354.5</course><type>1</type></trkpt>
      <trkpt lat="39.8253664" lon="-6.46239535"><ele>1345</ele><speed>12.25</speed><time>2016-06-21T17:07:57Z</time><pdop>4.0</pdop><geoidheight>54.00</geoidheight><course>354.2</course><type>1</type></trkpt>
      <trkpt lat="39.82547339" lon="-6.46241336"><ele>1434</ele><speed>12.00</speed><time>2016-06-21T17:07:58Z</time><pdop>4.0</pdop><geoidheight>54.00</geoidheight><course>352.3</course><type>1</type></trkpt>
      <trkpt lat="39.82557731" lon="-6.46245327"><ele>1395</ele><speed>12.00</speed><time>2016-06-21T17:07:59Z</time><pdop>3.0</pdop><geoidheight>54.00</geoidheight><course>346.8</course><type>1</type></trkpt>
      <trkpt lat="39.82568079" lon="-6.462481"><ele>1373</ele><speed>12.00</speed><time>2016-06-21T17:08:00Z</time><pdop>3.0</pdop><geoidheight>54.00</geoidheight><course>348.5</course><type>1</type></trkpt>
      <trkpt lat="39.82578848" lon="-6.46250201"><ele>1358</ele><speed>12.25</speed><time>2016-06-21T17:08:01Z</time><pdop>3.0</pdop><geoidheight>54.00</geoidheight><course>351.2</course><type>1</type></trkpt>
      <trkpt lat="39.82603147" lon="-6.46256123"><ele>1340</ele><speed>14.25</speed><time>2016-06-21T17:08:03Z</time><pdop>4.0</pdop><geoidheight>54.00</geoidheight><course>349.2</course><type>1</type></trkpt>
      <trkpt lat="39.82629091" lon="-6.462622"><ele>1332</ele><speed>14.50</speed><time>2016-06-21T17:08:05Z</time><pdop>4.0</pdop><geoidheight>54.00</geoidheight><course>350.9</course><type>1</type></trkpt>
      <trkpt lat="39.82641049" lon="-6.46263712"><ele>1330</ele><speed>13.25</speed><time>2016-06-21T17:08:06Z</time><pdop>4.0</pdop><geoidheight>54.00</geoidheight><course>353.3</course><type>1</type></trkpt>
      <trkpt lat="39.82652437" lon="-6.46265091"><ele>1327</ele><speed>12.50</speed><time>2016-06-21T17:08:07Z</time><pdop>4.0</pdop><geoidheight>54.00</geoidheight><course>353.9</course><type>1</type></trkpt>
      <trkpt lat="39.82673928" lon="-6.46271608"><ele>1318</ele><speed>12.75</speed><time>2016-06-21T17:08:09Z</time><pdop>3.0</pdop><geoidheight>54.00</geoidheight><course>345.2</course><type>1</type></trkpt>
      <trkpt lat="39.82685542" lon="-6.46276313"><ele>1313</ele><speed>13.50</speed><time>2016-06-21T17:08:10Z</time><pdop>3.0</pdop><geoidheight>54.00</geoidheight><course>343.0</course><type>1</type></trkpt>
      <trkpt lat="39.82710502" lon="-6.46284619"><ele>1307</ele><speed>14.25</speed><time>2016-06-21T17:08:12Z</time><pdop>3.0</pdop><geoidheight>54.00</geoidheight><course>346.5</course><type>1</type></trkpt>
      <trkpt lat="39.82734024" lon="-6.46291654"><ele>1302</ele><speed>13.50</speed><time>2016-06-21T17:08:14Z</time><pdop>4.0</pdop><geoidheight>54.00</geoidheight><course>347.1</course><type>1</type></trkpt>
      <trkpt lat="39.82745729" lon="-6.46295887"><ele>1300</ele><speed>13.25</speed><time>2016-06-21T17:08:15Z</time><pdop>4.0</pdop><geoidheight>54.00</geoidheight><course>344.8</course><type>1</type></trkpt>
      <trkpt lat="39.82757393" lon="-6.46300578"><ele>1299</ele><speed>13.75</speed><time>2016-06-21T17:08:16Z</time><pdop>4.0</pdop><geoidheight>54.00</geoidheight><course>342.8</course><type>1</type></trkpt>
      <trkpt lat="39.82781539" lon="-6.46311074"><ele>1292</ele><speed>14.00</speed><time>2016-06-21T17:08:18Z</time><pdop>3.0</pdop><geoidheight>54.00</geoidheight><course>342.2</course><type>1</type></trkpt>
      <trkpt lat="39.82793666" lon="-6.46315508"><ele>1289</ele><speed>14.00</speed><time>2016-06-21T17:08:19Z</time><pdop>4.0</pdop><geoidheight>54.00</geoidheight><course>344.4</course><type>1</type></trkpt>
      <trkpt lat="39.82806081" lon="-6.46319068"><ele>1287</ele><speed>14.25</speed><time>2016-06-21T17:08:20Z</time><pdop>4.0</pdop><geoidheight>54.00</geoidheight><course>346.6</course><type>1</type></trkpt>
      <trkpt lat="39.82818824" lon="-6.46323812"><ele>1284</ele><speed>14.50</speed><time>2016-06-21T17:08:21Z</time><pdop>3.0</pdop><geoidheight>54.00</geoidheight><course>345.0</course><type>1</type></trkpt>
      <trkpt lat="39.82831856" lon="-6.46328603"><ele>1283</ele><speed>14.75</speed><time>2016-06-21T17:08:22Z</time><pdop>4.0</pdop><geoidheight>54.00</geoidheight><course>344.8</course><type>1</type></trkpt>
      <trkpt lat="39.82856634" lon="-6.46336942"><ele>1282</ele><speed>13.50</speed><time>2016-06-21T17:08:24Z</time><pdop>4.0</pdop><geoidheight>54.00</geoidheight><course>346.2</course><type>1</type></trkpt>
      <trkpt lat="39.82879243" lon="-6.46344179"><ele>1279</ele><speed>13.00</speed><time>2016-06-21T17:08:26Z</time><pdop>4.0</pdop><geoidheight>54.00</geoidheight><course>346.8</course><type>1</type></trkpt>
      <trkpt lat="39.82903295" lon="-6.46353345"><ele>1277</ele><speed>14.00</speed><time>2016-06-21T17:08:28Z</time><pdop>4.0</pdop><geoidheight>54.00</geoidheight><course>343.3</course><type>1</type></trkpt>
      <trkpt lat="39.82915207" lon="-6.46358002"><ele>1277</ele><speed>13.75</speed><time>2016-06-21T17:08:29Z</time><pdop>3.0</pdop><geoidheight>54.00</geoidheight><course>342.4</course><type>1</type></trkpt>
      <trkpt lat="39.82936572" lon="-6.46367146"><ele>1276</ele><speed>12.50</speed><time>2016-06-21T17:08:31Z</time><pdop>3.0</pdop><geoidheight>54.00</geoidheight><course>341.6</course><type>1</type></trkpt>
      <trkpt lat="39.8294764" lon="-6.46371548"><ele>1275</ele><speed>12.75</speed><time>2016-06-21T17:08:32Z</time><pdop>3.0</pdop><geoidheight>54.00</geoidheight><course>342.3</course><type>1</type></trkpt>
      <trkpt lat="39.82958993" lon="-6.46375963"><ele>1273</ele><speed>13.00</speed><time>2016-06-21T17:08:33Z</time><pdop>3.0</pdop><geoidheight>54.00</geoidheight><course>343.3</course><type>1</type></trkpt>
      <trkpt lat="39.82970694" lon="-6.46380119"><ele>1272</ele><speed>13.50</speed><time>2016-06-21T17:08:34Z</time><pdop>3.0</pdop><geoidheight>54.00</geoidheight><course>343.4</course><type>1</type></trkpt>
      <trkpt lat="39.82982303" lon="-6.4638502"><ele>1270</ele><speed>13.75</speed><time>2016-06-21T17:08:35Z</time><pdop>3.0</pdop><geoidheight>54.00</geoidheight><course>343.2</course><type>1</type></trkpt>
      <trkpt lat="39.8299414" lon="-6.46389726"><ele>1269</ele><speed>13.75</speed><time>2016-06-21T17:08:36Z</time><pdop>3.0</pdop><geoidheight>54.00</geoidheight><course>342.0</course><type>1</type></trkpt>
      <trkpt lat="39.83005695" lon="-6.46394246"><ele>1268</ele><speed>13.75</speed><time>2016-06-21T17:08:37Z</time><pdop>3.0</pdop><geoidheight>54.00</geoidheight><course>342.2</course><type>1</type></trkpt>
      <trkpt lat="39.83016903" lon="-6.46398781"><ele>1268</ele><speed>13.00</speed><time>2016-06-21T17:08:38Z</time><pdop>3.0</pdop><geoidheight>54.00</geoidheight><course>342.8</course><type>1</type></trkpt>
      <trkpt lat="39.83038332" lon="-6.4640763"><ele>1265</ele><speed>12.25</speed><time>2016-06-21T17:08:40Z</time><pdop>4.0</pdop><geoidheight>54.00</geoidheight><course>344.2</course><type>1</type></trkpt>
      <trkpt lat="39.83049073" lon="-6.46411769"><ele>1263</ele><speed>12.50</speed><time>2016-06-21T17:08:41Z</time><pdop>3.0</pdop><geoidheight>54.00</geoidheight><course>344.3</course><type>1</type></trkpt>
      <trkpt lat="39.83060753" lon="-6.46415326"><ele>1262</ele><speed>13.00</speed><time>2016-06-21T17:08:42Z</time><pdop>3.0</pdop><geoidheight>54.00</geoidheight><course>346.3</course><type>1</type></trkpt>
      <trkpt lat="39.8307247" lon="-6.46417967"><ele>1260</ele><speed>13.25</speed><time>2016-06-21T17:08:43Z</time><pdop>4.0</pdop><geoidheight>54.00</geoidheight><course>349.5</course><type>1</type></trkpt>
      <trkpt lat="39.83095799" lon="-6.46422921"><ele>1258</ele><speed>13.00</speed><time>2016-06-21T17:08:45Z</time><pdop>5.0</pdop><geoidheight>54.00</geoidheight><course>351.7</course><type>1</type></trkpt>
      <trkpt lat="39.83106284" lon="-6.46424259"><ele>1257</ele><speed>12.50</speed><time>2016-06-21T17:08:46Z</time><pdop>4.0</pdop><geoidheight>54.00</geoidheight><course>353.7</course><type>1</type></trkpt>
      <trkpt lat="39.83117507" lon="-6.4642591"><ele>1255</ele><speed>12.75</speed><time>2016-06-21T17:08:47Z</time><pdop>3.0</pdop><geoidheight>54.00</geoidheight><course>353.9</course><type>1</type></trkpt>
      <trkpt lat="39.83129124" lon="-6.46427943"><ele>1254</ele><speed>13.25</speed><time>2016-06-21T17:08:48Z</time><pdop>4.0</pdop><geoidheight>54.00</geoidheight><course>353.8</course><type>1</type></trkpt>
      <trkpt lat="39.83140352" lon="-6.46429862"><ele>1254</ele><speed>12.75</speed><time>2016-06-21T17:08:49Z</time><pdop>4.0</pdop><geoidheight>54.00</geoidheight><course>352.9</course><type>1</type></trkpt>
      <trkpt lat="39.83160374" lon="-6.46434793"><ele>1250</ele><speed>11.50</speed><time>2016-06-21T17:08:51Z</time><pdop>4.0</pdop><geoidheight>54.00</geoidheight><course>350.5</course><type>1</type></trkpt>
      <trkpt lat="39.83171085" lon="-6.46436484"><ele>1247</ele><speed>12.00</speed><time>2016-06-21T17:08:52Z</time><pdop>3.0</pdop><geoidheight>54.00</geoidheight><course>351.8</course><type>1</type></trkpt>
      <trkpt lat="39.83182544" lon="-6.46437355"><ele>1245</ele><speed>12.75</speed><time>2016-06-21T17:08:53Z</time><pdop>4.0</pdop><geoidheight>54.00</geoidheight><course>354.5</course><type>1</type></trkpt>
      <trkpt lat="39.83205831" lon="-6.46439591"><ele>1239</ele><speed>13.00</speed><time>2016-06-21T17:08:55Z</time><pdop>4.0</pdop><geoidheight>54.00</geoidheight><course>354.4</course><type>1</type></trkpt>
      <trkpt lat="39.83217932" lon="-6.46442688"><ele>1236</ele><speed>13.50</speed><time>2016-06-21T17:08:56Z</time><pdop>4.0</pdop><geoidheight>54.00</geoidheight><course>350.5</course><type>1</type></trkpt>
      <trkpt lat="39.832301" lon="-6.4644613"><ele>1233</ele><speed>13.75</speed><time>2016-06-21T17:08:57Z</time><pdop>4.0</pdop><geoidheight>54.00</geoidheight><course>348.8</course><type>1</type></trkpt>
      <trkpt lat="39.83253842" lon="-6.46450696"><ele>1229</ele><speed>13.25</speed><time>2016-06-21T17:08:59Z</time><pdop>4.0</pdop><geoidheight>54.00</geoidheight><course>353.3</course><type>1</type></trkpt>
      <trkpt lat="39.83274963" lon="-6.4645584"><ele>1222</ele><speed>12.75</speed><time>2016-06-21T17:09:01Z</time><pdop>4.0</pdop><geoidheight>54.00</geoidheight><course>347.6</course><type>1</type></trkpt>
      <trkpt lat="39.8328656" lon="-6.46461055"><ele>1219</ele><speed>14.00</speed><time>2016-06-21T17:09:02Z</time><pdop>3.0</pdop><geoidheight>54.00</geoidheight><course>343.0</course><type>1</type></trkpt>
      <trkpt lat="39.83299569" lon="-6.46466571"><ele>1216</ele><speed>15.00</speed><time>2016-06-21T17:09:03Z</time><pdop>3.0</pdop><geoidheight>54.00</geoidheight><course>341.8</course><type>1</type></trkpt>
      <trkpt lat="39.8332405" lon="-6.46476631"><ele>1214</ele><speed>14.00</speed><time>2016-06-21T17:09:05Z</time><pdop>4.0</pdop><geoidheight>54.00</geoidheight><course>342.1</course><type>1</type></trkpt>
      <trkpt lat="39.83344623" lon="-6.46486003"><ele>1212</ele><speed>12.50</speed><time>2016-06-21T17:09:07Z</time><pdop>4.0</pdop><geoidheight>54.00</geoidheight><course>340.8</course><type>1</type></trkpt>
      <trkpt lat="39.83366914" lon="-6.46496572"><ele>1207</ele><speed>13.50</speed><time>2016-06-21T17:09:09Z</time><pdop>3.0</pdop><geoidheight>54.00</geoidheight><course>339.0</course><type>1</type></trkpt>
      <trkpt lat="39.83378392" lon="-6.46501872"><ele>1204</ele><speed>14.00</speed><time>2016-06-21T17:09:10Z</time><pdop>3.0</pdop><geoidheight>54.00</geoidheight><course>339.7</course><type>1</type></trkpt>
      <trkpt lat="39.83390106" lon="-6.46507323"><ele>1203</ele><speed>13.75</speed><time>2016-06-21T17:09:11Z</time><pdop>3.0</pdop><geoidheight>54.00</geoidheight><course>340.3</course><type>1</type></trkpt>
      <trkpt lat="39.83413221" lon="-6.46517245"><ele>1200</ele><speed>13.00</speed><time>2016-06-21T17:09:13Z</time><pdop>4.0</pdop><geoidheight>54.00</geoidheight><course>342.1</course><type>1</type></trkpt>
      <trkpt lat="39.83424117" lon="-6.46522036"><ele>1198</ele><speed>13.00</speed><time>2016-06-21T17:09:14Z</time><pdop>3.0</pdop><geoidheight>54.00</geoidheight><course>341.6</course><type>1</type></trkpt>
      <trkpt lat="39.83435542" lon="-6.46526769"><ele>1196</ele><speed>13.25</speed><time>2016-06-21T17:09:15Z</time><pdop>3.0</pdop><geoidheight>54.00</geoidheight><course>342.6</course><type>1</type></trkpt>
      <trkpt lat="39.83447406" lon="-6.46531978"><ele>1195</ele><speed>13.50</speed><time>2016-06-21T17:09:16Z</time><pdop>3.0</pdop><geoidheight>54.00</geoidheight><course>342.2</course><type>1</type></trkpt>
      <trkpt lat="39.83459137" lon="-6.46537408"><ele>1194</ele><speed>13.50</speed><time>2016-06-21T17:09:17Z</time><pdop>3.0</pdop><geoidheight>54.00</geoidheight><course>341.5</course><type>1</type></trkpt>
      <trkpt lat="39.83470474" lon="-6.46542823"><ele>1192</ele><speed>13.25</speed><time>2016-06-21T17:09:18Z</time><pdop>3.0</pdop><geoidheight>54.00</geoidheight><course>339.9</course><type>1</type></trkpt>
      <trkpt lat="39.83492632" lon="-6.46551954"><ele>1188</ele><speed>13.00</speed><time>2016-06-21T17:09:20Z</time><pdop>3.0</pdop><geoidheight>54.00</geoidheight><course>343.7</course><type>1</type></trkpt>
      <trkpt lat="39.83503993" lon="-6.46555573"><ele>1185</ele><speed>13.25</speed><time>2016-06-21T17:09:21Z</time><pdop>3.0</pdop><geoidheight>54.00</geoidheight><course>345.4</course><type>1</type></trkpt>
      <trkpt lat="39.83515791" lon="-6.4656041"><ele>1182</ele><speed>13.50</speed><time>2016-06-21T17:09:22Z</time><pdop>3.0</pdop><geoidheight>54.00</geoidheight><course>342.3</course><type>1</type></trkpt>
      <trkpt lat="39.83538349" lon="-6.46574611"><ele>1178</ele><speed>13.50</speed><time>2016-06-21T17:09:24Z</time><pdop>3.0</pdop><geoidheight>54.00</geoidheight><course>334.1</course><type>1</type></trkpt>
      <trkpt lat="39.83548606" lon="-6.46580627"><ele>1176</ele><speed>12.50</speed><time>2016-06-21T17:09:25Z</time><pdop>4.0</pdop><geoidheight>54.00</geoidheight><course>335.2</course><type>1</type></trkpt>
      <trkpt lat="39.83558455" lon="-6.46585727"><ele>1175</ele><speed>11.75</speed><time>2016-06-21T17:09:26Z</time><pdop>4.0</pdop><geoidheight>54.00</geoidheight><course>337.9</course><type>1</type></trkpt>
      <trkpt lat="39.83578375" lon="-6.46596898"><ele>1167</ele><speed>12.50</speed><time>2016-06-21T17:09:28Z</time><pdop>3.0</pdop><geoidheight>54.00</geoidheight><course>338.5</course><type>1</type></trkpt>
      <trkpt lat="39.83589835" lon="-6.46603736"><ele>1164</ele><speed>13.75</speed><time>2016-06-21T17:09:29Z</time><pdop>3.0</pdop><geoidheight>54.00</geoidheight><course>335.9</course><type>1</type></trkpt>
      <trkpt lat="39.83601171" lon="-6.46611248"><ele>1162</ele><speed>14.25</speed><time>2016-06-21T17:09:30Z</time><pdop>3.0</pdop><geoidheight>54.00</geoidheight><course>334.1</course><type>1</type></trkpt>
      <trkpt lat="39.83623097" lon="-6.46624587"><ele>1161</ele><speed>13.00</speed><time>2016-06-21T17:09:32Z</time><pdop>4.0</pdop><geoidheight>54.00</geoidheight><course>336.0</course><type>1</type></trkpt>
      <trkpt lat="39.83642881" lon="-6.46636297"><ele>1158</ele><speed>12.25</speed><time>2016-06-21T17:09:34Z</time><pdop>3.0</pdop><geoidheight>54.00</geoidheight><course>335.3</course><type>1</type></trkpt>
      <trkpt lat="39.83653328" lon="-6.46642535"><ele>1155</ele><speed>13.00</speed><time>2016-06-21T17:09:35Z</time><pdop>3.0</pdop><geoidheight>54.00</geoidheight><course>336.2</course><type>1</type></trkpt>
      <trkpt lat="39.83664913" lon="-6.46648181"><ele>1153</ele><speed>13.75</speed><time>2016-06-21T17:09:36Z</time><pdop>3.0</pdop><geoidheight>54.00</geoidheight><course>338.8</course><type>1</type></trkpt>
      <trkpt lat="39.83677189" lon="-6.46653465"><ele>1152</ele><speed>14.25</speed><time>2016-06-21T17:09:37Z</time><pdop>3.0</pdop><geoidheight>54.00</geoidheight><course>340.9</course><type>1</type></trkpt>
      <trkpt lat="39.83699706" lon="-6.46663475"><ele>1148</ele><speed>12.50</speed><time>2016-06-21T17:09:39Z</time><pdop>3.0</pdop><geoidheight>54.00</geoidheight><course>340.1</course><type>1</type></trkpt>
      <trkpt lat="39.83709848" lon="-6.46668817"><ele>1146</ele><speed>12.25</speed><time>2016-06-21T17:09:40Z</time><pdop>3.0</pdop><geoidheight>54.00</geoidheight><course>338.5</course><type>1</type></trkpt>
      <trkpt lat="39.83721036" lon="-6.46674082"><ele>1143</ele><speed>13.00</speed><time>2016-06-21T17:09:41Z</time><pdop>4.0</pdop><geoidheight>54.00</geoidheight><course>339.6</course><type>1</type></trkpt>
      <trkpt lat="39.83745853" lon="-6.46683456"><ele>1139</ele><speed>14.50</speed><time>2016-06-21T17:09:43Z</time><pdop>3.0</pdop><geoidheight>54.00</geoidheight><course>344.4</course><type>1</type></trkpt>
      <trkpt lat="39.83758452" lon="-6.46687661"><ele>1138</ele><speed>14.50</speed><time>2016-06-21T17:09:44Z</time><pdop>3.0</pdop><geoidheight>54.00</geoidheight><course>345.5</course><type>1</type></trkpt>
      <trkpt lat="39.83770548" lon="-6.46692477"><ele>1138</ele><speed>14.25</speed><time>2016-06-21T17:09:45Z</time><pdop>3.0</pdop><geoidheight>54.00</geoidheight><course>343.7</course><type>1</type></trkpt>
      <trkpt lat="39.83794579" lon="-6.46704041"><ele>1136</ele><speed>14.25</speed><time>2016-06-21T17:09:47Z</time><pdop>3.0</pdop><geoidheight>54.00</geoidheight><course>338.7</course><type>1</type></trkpt>
      <trkpt lat="39.83807025" lon="-6.46710056"><ele>1134</ele><speed>14.25</speed><time>2016-06-21T17:09:48Z</time><pdop>3.0</pdop><geoidheight>54.00</geoidheight><course>339.6</course><type>1</type></trkpt>
      <trkpt lat="39.83831534" lon="-6.46718982"><ele>1131</ele><speed>14.25</speed><time>2016-06-21T17:09:50Z</time><pdop>3.0</pdop><geoidheight>54.00</geoidheight><course>344.7</course><type>1</type></trkpt>
      <trkpt lat="39.83843942" lon="-6.46723391"><ele>1130</ele><speed>14.25</speed><time>2016-06-21T17:09:51Z</time><pdop>4.0</pdop><geoidheight>54.00</geoidheight><course>344.7</course><type>1</type></trkpt>
      <trkpt lat="39.83855084" lon="-6.46727745"><ele>1129</ele><speed>13.50</speed><time>2016-06-21T17:09:52Z</time><pdop>3.0</pdop><geoidheight>54.00</geoidheight><course>342.9</course><type>1</type></trkpt>
      <trkpt lat="39.83878872" lon="-6.46736939"><ele>1125</ele><speed>14.00</speed><time>2016-06-21T17:09:54Z</time><pdop>3.0</pdop><geoidheight>54.00</geoidheight><course>343.1</course><type>1</type></trkpt>
      <trkpt lat="39.83904882" lon="-6.46744802"><ele>1124</ele><speed>14.75</speed><time>2016-06-21T17:09:56Z</time><pdop>3.0</pdop><geoidheight>54.00</geoidheight><course>347.3</course><type>1</type></trkpt>
      <trkpt lat="39.83917006" lon="-6.46748332"><ele>1124</ele><speed>14.25</speed><time>2016-06-21T17:09:57Z</time><pdop>3.0</pdop><geoidheight>54.00</geoidheight><course>346.8</course><type>1</type></trkpt>
      <trkpt lat="39.83941481" lon="-6.46756803"><ele>1123</ele><speed>14.00</speed><time>2016-06-21T17:09:59Z</time><pdop>4.0</pdop><geoidheight>54.00</geoidheight><course>345.4</course><type>1</type></trkpt>
      <trkpt lat="39.83953473" lon="-6.46760451"><ele>1122</ele><speed>13.75</speed><time>2016-06-21T17:10:00Z</time><pdop>4.0</pdop><geoidheight>54.00</geoidheight><course>347.2</course><type>1</type></trkpt>
      <trkpt lat="39.83965949" lon="-6.46764259"><ele>1121</ele><speed>14.25</speed><time>2016-06-21T17:10:01Z</time><pdop>3.0</pdop><geoidheight>54.00</geoidheight><course>347.0</course><type>1</type></trkpt>
      <trkpt lat="39.83978983" lon="-6.46767628"><ele>1120</ele><speed>14.75</speed><time>2016-06-21T17:10:02Z</time><pdop>4.0</pdop><geoidheight>54.00</geoidheight><course>348.4</course><type>1</type></trkpt>
      <trkpt lat="39.83991691" lon="-6.46770745"><ele>1120</ele><speed>14.25</speed><time>2016-06-21T17:10:03Z</time><pdop>4.0</pdop><geoidheight>54.00</geoidheight><course>348.9</course><type>1</type></trkpt>
      <trkpt lat="39.84013065" lon="-6.46775221"><ele>1121</ele><speed>11.50</speed><time>2016-06-21T17:10:05Z</time><pdop>3.0</pdop><geoidheight>54.00</geoidheight><course>351.6</course><type>1</type></trkpt>
      <trkpt lat="39.84022582" lon="-6.46777709"><ele>1120</ele><speed>11.00</speed><time>2016-06-21T17:10:06Z</time><pdop>3.0</pdop><geoidheight>54.00</geoidheight><course>351.7</course><type>1</type></trkpt>
      <trkpt lat="39.84032502" lon="-6.46780506"><ele>1118</ele><speed>11.25</speed><time>2016-06-21T17:10:07Z</time><pdop>4.0</pdop><geoidheight>54.00</geoidheight><course>348.6</course><type>1</type></trkpt>
      <trkpt lat="39.84043478" lon="-6.46784668"><ele>1115</ele><speed>12.25</speed><time>2016-06-21T17:10:08Z</time><pdop>4.0</pdop><geoidheight>54.00</geoidheight><course>345.9</course><type>1</type></trkpt>
      <trkpt lat="39.84068623" lon="-6.46793286"><ele>1111</ele><speed>14.25</speed><time>2016-06-21T17:10:10Z</time><pdop>4.0</pdop><geoidheight>54.00</geoidheight><course>345.2</course><type>1</type></trkpt>
      <trkpt lat="39.84080649" lon="-6.46797408"><ele>1109</ele><speed>14.00</speed><time>2016-06-21T17:10:11Z</time><pdop>4.0</pdop><geoidheight>54.00</geoidheight><course>346.0</course><type>1</type></trkpt>
      <trkpt lat="39.84092485" lon="-6.46801213"><ele>1107</ele><speed>13.50</speed><time>2016-06-21T17:10:12Z</time><pdop>3.0</pdop><geoidheight>54.00</geoidheight><course>346.7</course><type>1</type></trkpt>
      <trkpt lat="39.84103917" lon="-6.46804609"><ele>1105</ele><speed>13.25</speed><time>2016-06-21T17:10:13Z</time><pdop>4.0</pdop><geoidheight>54.00</geoidheight><course>347.5</course><type>1</type></trkpt>
      <trkpt lat="39.8412768" lon="-6.46810077"><ele>1101</ele><speed>13.25</speed><time>2016-06-21T17:10:15Z</time><pdop>4.0</pdop><geoidheight>54.00</geoidheight><course>349.6</course><type>1</type></trkpt>
      <trkpt lat="39.84138711" lon="-6.46813502"><ele>1100</ele><speed>12.75</speed><time>2016-06-21T17:10:16Z</time><pdop>3.0</pdop><geoidheight>54.00</geoidheight><course>347.6</course><type>1</type></trkpt>
      <trkpt lat="39.84149608" lon="-6.46817262"><ele>1098</ele><speed>12.50</speed><time>2016-06-21T17:10:17Z</time><pdop>4.0</pdop><geoidheight>54.00</geoidheight><course>345.2</course><type>1</type></trkpt>
      <trkpt lat="39.84160083" lon="-6.46820841"><ele>1097</ele><speed>12.00</speed><time>2016-06-21T17:10:18Z</time><pdop>3.0</pdop><geoidheight>54.00</geoidheight><course>345.9</course><type>1</type></trkpt>
      <trkpt lat="39.84180816" lon="-6.4682595"><ele>1093</ele><speed>11.75</speed><time>2016-06-21T17:10:20Z</time><pdop>4.0</pdop><geoidheight>54.00</geoidheight><course>349.1</course><type>1</type></trkpt>
      <trkpt lat="39.84191536" lon="-6.468285"><ele>1091</ele><speed>12.25</speed><time>2016-06-21T17:10:21Z</time><pdop>4.0</pdop><geoidheight>54.00</geoidheight><course>349.9</course><type>1</type></trkpt>
      <trkpt lat="39.84202674" lon="-6.46831107"><ele>1089</ele><speed>12.75</speed><time>2016-06-21T17:10:22Z</time><pdop>4.0</pdop><geoidheight>54.00</geoidheight><course>349.3</course><type>1</type></trkpt>
      <trkpt lat="39.84224805" lon="-6.46839846"><ele>1086</ele><speed>12.75</speed><time>2016-06-21T17:10:24Z</time><pdop>3.0</pdop><geoidheight>54.00</geoidheight><course>341.9</course><type>1</type></trkpt>
      <trkpt lat="39.84236067" lon="-6.46844486"><ele>1083</ele><speed>12.75</speed><time>2016-06-21T17:10:25Z</time><pdop>3.0</pdop><geoidheight>54.00</geoidheight><course>341.2</course><type>1</type></trkpt>
      <trkpt lat="39.84247427" lon="-6.46848527"><ele>1081</ele><speed>13.25</speed><time>2016-06-21T17:10:26Z</time><pdop>4.0</pdop><geoidheight>54.00</geoidheight><course>343.8</course><type>1</type></trkpt>
      <trkpt lat="39.84259689" lon="-6.46853535"><ele>1077</ele><speed>14.00</speed><time>2016-06-21T17:10:27Z</time><pdop>3.0</pdop><geoidheight>54.00</geoidheight><course>343.4</course><type>1</type></trkpt>
      <trkpt lat="39.8428529" lon="-6.46863743"><ele>1072</ele><speed>15.00</speed><time>2016-06-21T17:10:29Z</time><pdop>4.0</pdop><geoidheight>54.00</geoidheight><course>342.4</course><type>1</type></trkpt>
      <trkpt lat="39.84297268" lon="-6.4686967"><ele>1070</ele><speed>14.50</speed><time>2016-06-21T17:10:30Z</time><pdop>4.0</pdop><geoidheight>54.00</geoidheight><course>340.2</course><type>1</type></trkpt>
      <trkpt lat="39.84308368" lon="-6.46874751"><ele>1067</ele><speed>13.50</speed><time>2016-06-21T17:10:31Z</time><pdop>3.0</pdop><geoidheight>54.00</geoidheight><course>340.2</course><type>1</type></trkpt>
      <trkpt lat="39.84331345" lon="-6.46884811"><ele>1061</ele><speed>13.25</speed><time>2016-06-21T17:10:33Z</time><pdop>4.0</pdop><geoidheight>54.00</geoidheight><course>343.2</course><type>1</type></trkpt>
      <trkpt lat="39.84343338" lon="-6.46888707"><ele>1059</ele><speed>13.75</speed><time>2016-06-21T17:10:34Z</time><pdop>4.0</pdop><geoidheight>54.00</geoidheight><course>345.3</course><type>1</type></trkpt>
      <trkpt lat="39.84355985" lon="-6.46892795"><ele>1057</ele><speed>14.50</speed><time>2016-06-21T17:10:35Z</time><pdop>4.0</pdop><geoidheight>54.00</geoidheight><course>345.8</course><type>1</type></trkpt>
      <trkpt lat="39.8437928" lon="-6.46902671"><ele>1054</ele><speed>13.50</speed><time>2016-06-21T17:10:37Z</time><pdop>3.0</pdop><geoidheight>54.00</geoidheight><course>343.0</course><type>1</type></trkpt>
      <trkpt lat="39.84390234" lon="-6.46907162"><ele>1052</ele><speed>12.75</speed><time>2016-06-21T17:10:38Z</time><pdop>3.0</pdop><geoidheight>54.00</geoidheight><course>342.9</course><type>1</type></trkpt>
      <trkpt lat="39.84401655" lon="-6.46911568"><ele>1051</ele><speed>13.00</speed><time>2016-06-21T17:10:39Z</time><pdop>4.0</pdop><geoidheight>54.00</geoidheight><course>344.4</course><type>1</type></trkpt>
      <trkpt lat="39.84425091" lon="-6.46920888"><ele>1049</ele><speed>13.75</speed><time>2016-06-21T17:10:41Z</time><pdop>4.0</pdop><geoidheight>54.00</geoidheight><course>341.4</course><type>1</type></trkpt>
      <trkpt lat="39.84436093" lon="-6.46927716"><ele>1049</ele><speed>13.75</speed><time>2016-06-21T17:10:42Z</time><pdop>3.0</pdop><geoidheight>54.00</geoidheight><course>336.3</course><type>1</type></trkpt>
      <trkpt lat="39.84446426" lon="-6.46935554"><ele>1047</ele><speed>13.50</speed><time>2016-06-21T17:10:43Z</time><pdop>3.0</pdop><geoidheight>54.00</geoidheight><course>331.3</course><type>1</type></trkpt>
      <trkpt lat="39.84457776" lon="-6.46943279"><ele>1046</ele><speed>14.00</speed><time>2016-06-21T17:10:44Z</time><pdop>4.0</pdop><geoidheight>54.00</geoidheight><course>332.3</course><type>1</type></trkpt>
      <trkpt lat="39.84482238" lon="-6.46958634"><ele>1042</ele><speed>15.25</speed><time>2016-06-21T17:10:46Z</time><pdop>3.0</pdop><geoidheight>54.00</geoidheight><course>335.4</course><type>1</type></trkpt>
      <trkpt lat="39.84495502" lon="-6.46965038"><ele>1041</ele><speed>15.75</speed><time>2016-06-21T17:10:47Z</time><pdop>3.0</pdop><geoidheight>54.00</geoidheight><course>338.3</course><type>1</type></trkpt>
      <trkpt lat="39.84508338" lon="-6.46971415"><ele>1040</ele><speed>15.25</speed><time>2016-06-21T17:10:48Z</time><pdop>4.0</pdop><geoidheight>54.00</geoidheight><course>338.4</course><type>1</type></trkpt>
      <trkpt lat="39.84530444" lon="-6.46983044"><ele>1039</ele><speed>13.50</speed><time>2016-06-21T17:10:50Z</time><pdop>4.0</pdop><geoidheight>54.00</geoidheight><course>337.5</course><type>1</type></trkpt>
      <trkpt lat="39.84541544" lon="-6.46987936"><ele>1039</ele><speed>13.50</speed><time>2016-06-21T17:10:51Z</time><pdop>4.0</pdop><geoidheight>54.00</geoidheight><course>340.8</course><type>1</type></trkpt>
      <trkpt lat="39.84554028" lon="-6.46992446"><ele>1038</ele><speed>14.00</speed><time>2016-06-21T17:10:52Z</time><pdop>4.0</pdop><geoidheight>54.00</geoidheight><course>344.8</course><type>1</type></trkpt>
      <trkpt lat="39.84579228" lon="-6.470007"><ele>1035</ele><speed>14.25</speed><time>2016-06-21T17:10:54Z</time><pdop>3.0</pdop><geoidheight>54.00</geoidheight><course>347.9</course><type>1</type></trkpt>
      <trkpt lat="39.84590601" lon="-6.47005078"><ele>1036</ele><speed>13.25</speed><time>2016-06-21T17:10:55Z</time><pdop>3.0</pdop><geoidheight>54.00</geoidheight><course>346.4</course><type>1</type></trkpt>
      <trkpt lat="39.84600984" lon="-6.47009034"><ele>1036</ele><speed>12.25</speed><time>2016-06-21T17:10:56Z</time><pdop>3.0</pdop><geoidheight>54.00</geoidheight><course>344.1</course><type>1</type></trkpt>
      <trkpt lat="39.84621639" lon="-6.47017325"><ele>1037</ele><speed>12.25</speed><time>2016-06-21T17:10:58Z</time><pdop>3.0</pdop><geoidheight>54.00</geoidheight><course>342.8</course><type>1</type></trkpt>
      <trkpt lat="39.84642283" lon="-6.47026363"><ele>1038</ele><speed>12.25</speed><time>2016-06-21T17:11:00Z</time><pdop>3.0</pdop><geoidheight>54.00</geoidheight><course>339.3</course><type>1</type></trkpt>
      <trkpt lat="39.84652067" lon="-6.47031027"><ele>1039</ele><speed>11.50</speed><time>2016-06-21T17:11:01Z</time><pdop>3.0</pdop><geoidheight>54.00</geoidheight><course>341.6</course><type>1</type></trkpt>
      <trkpt lat="39.84669382" lon="-6.47030827"><ele>1038</ele><speed>9.25</speed><time>2016-06-21T17:11:03Z</time><pdop>3.0</pdop><geoidheight>54.00</geoidheight><course>5.6</course><type>1</type></trkpt>
      <trkpt lat="39.84675346" lon="-6.47027106"><ele>1037</ele><speed>7.50</speed><time>2016-06-21T17:11:04Z</time><pdop>3.0</pdop><geoidheight>54.00</geoidheight><course>23.6</course><type>1</type></trkpt>
      <trkpt lat="39.84678664" lon="-6.47018643"><ele>1037</ele><speed>3.75</speed><time>2016-06-21T17:11:06Z</time><pdop>4.0</pdop><geoidheight>54.00</geoidheight><course>83.6</course><type>1</type></trkpt>
      <trkpt lat="39.84664469" lon="-6.47018955"><ele>1036</ele><speed>6.50</speed><time>2016-06-21T17:11:09Z</time><pdop>3.0</pdop><geoidheight>54.00</geoidheight><course>195.3</course><type>1</type></trkpt>
      <trkpt lat="39.84658888" lon="-6.47022473"><ele>1036</ele><speed>7.00</speed><time>2016-06-21T17:11:10Z</time><pdop>3.0</pdop><geoidheight>54.00</geoidheight><course>205.9</course><type>1</type></trkpt>
      <trkpt lat="39.84653403" lon="-6.47027258"><ele>1036</ele><speed>7.25</speed><time>2016-06-21T17:11:11Z</time><pdop>4.0</pdop><geoidheight>54.00</geoidheight><course>211.8</course><type>1</type></trkpt>
      <trkpt lat="39.84643403" lon="-6.47036913"><ele>1035</ele><speed>7.00</speed><time>2016-06-21T17:11:13Z</time><pdop>3.0</pdop><geoidheight>54.00</geoidheight><course>213.9</course><type>1</type></trkpt>
      <trkpt lat="39.84637986" lon="-6.47041504"><ele>1035</ele><speed>7.50</speed><time>2016-06-21T17:11:14Z</time><pdop>4.0</pdop><geoidheight>54.00</geoidheight><course>213.8</course><type>1</type></trkpt>
      <trkpt lat="39.84631853" lon="-6.47047402"><ele>1034</ele><speed>8.25</speed><time>2016-06-21T17:11:15Z</time><pdop>3.0</pdop><geoidheight>54.00</geoidheight><course>216.9</course><type>1</type></trkpt>
      <trkpt lat="39.84619954" lon="-6.47062671"><ele>1035</ele><speed>9.25</speed><time>2016-06-21T17:11:17Z</time><pdop>3.0</pdop><geoidheight>54.00</geoidheight><course>225.2</course><type>1</type></trkpt>
      <trkpt lat="39.84614958" lon="-6.47069736"><ele>1035</ele><speed>8.25</speed><time>2016-06-21T17:11:18Z</time><pdop>3.0</pdop><geoidheight>54.00</geoidheight><course>226.8</course><type>1</type></trkpt>
      <trkpt lat="39.84610911" lon="-6.47075167"><ele>1036</ele><speed>6.50</speed><time>2016-06-21T17:11:19Z</time><pdop>3.0</pdop><geoidheight>54.00</geoidheight><course>225.4</course><type>1</type></trkpt>
      <trkpt lat="39.84603757" lon="-6.47079891"><ele>1035</ele><speed>4.25</speed><time>2016-06-21T17:11:21Z</time><pdop>4.0</pdop><geoidheight>54.00</geoidheight><course>205.1</course><type>1</type></trkpt>
      <trkpt lat="39.84591882" lon="-6.47083769"><ele>1030</ele><speed>6.50</speed><time>2016-06-21T17:11:23Z</time><pdop>3.0</pdop><geoidheight>54.00</geoidheight><course>199.5</course><type>1</type></trkpt>
      <trkpt lat="39.84581781" lon="-6.47101334"><ele>1027</ele><speed>10.25</speed><time>2016-06-21T17:11:25Z</time><pdop>3.0</pdop><geoidheight>54.00</geoidheight><course>241.7</course><type>1</type></trkpt>
      <trkpt lat="39.84580235" lon="-6.4711592"><ele>1025</ele><speed>12.25</speed><time>2016-06-21T17:11:26Z</time><pdop>3.0</pdop><geoidheight>54.00</geoidheight><course>258.8</course><type>1</type></trkpt>
      <trkpt lat="39.84581125" lon="-6.47131753"><ele>1024</ele><speed>13.25</speed><time>2016-06-21T17:11:27Z</time><pdop>3.0</pdop><geoidheight>54.00</geoidheight><course>271.6</course><type>1</type></trkpt>
      <trkpt lat="39.84590562" lon="-6.47162677"><ele>1022</ele><speed>13.75</speed><time>2016-06-21T17:11:29Z</time><pdop>3.0</pdop><geoidheight>54.00</geoidheight><course>294.8</course><type>1</type></trkpt>
      <trkpt lat="39.8460775" lon="-6.47186679"><ele>1019</ele><speed>14.00</speed><time>2016-06-21T17:11:31Z</time><pdop>3.0</pdop><geoidheight>54.00</geoidheight><course>317.1</course><type>1</type></trkpt>
      <trkpt lat="39.84629897" lon="-6.4720192"><ele>1013</ele><speed>14.00</speed><time>2016-06-21T17:11:33Z</time><pdop>4.0</pdop><geoidheight>54.00</geoidheight><course>334.9</course><type>1</type></trkpt>
      <trkpt lat="39.8464173" lon="-6.47207643"><ele>1011</ele><speed>14.25</speed><time>2016-06-21T17:11:34Z</time><pdop>3.0</pdop><geoidheight>54.00</geoidheight><course>339.0</course><type>1</type></trkpt>
      <trkpt lat="39.84654108" lon="-6.47213507"><ele>1009</ele><speed>14.75</speed><time>2016-06-21T17:11:35Z</time><pdop>4.0</pdop><geoidheight>54.00</geoidheight><course>340.1</course><type>1</type></trkpt>
      <trkpt lat="39.8466723" lon="-6.47219508"><ele>1008</ele><speed>15.25</speed><time>2016-06-21T17:11:36Z</time><pdop>4.0</pdop><geoidheight>54.00</geoidheight><course>339.5</course><type>1</type></trkpt>
      <trkpt lat="39.84692022" lon="-6.47231939"><ele>1009</ele><speed>14.50</speed><time>2016-06-21T17:11:38Z</time><pdop>4.0</pdop><geoidheight>54.00</geoidheight><course>339.0</course><type>1</type></trkpt>
      <trkpt lat="39.84703259" lon="-6.47237218"><ele>1009</ele><speed>13.25</speed><time>2016-06-21T17:11:39Z</time><pdop>4.0</pdop><geoidheight>54.00</geoidheight><course>339.6</course><type>1</type></trkpt>
      <trkpt lat="39.84713388" lon="-6.47241569"><ele>1010</ele><speed>12.25</speed><time>2016-06-21T17:11:40Z</time><pdop>4.0</pdop><geoidheight>54.00</geoidheight><course>340.8</course><type>1</type></trkpt>
      <trkpt lat="39.84732165" lon="-6.47250466"><ele>1011</ele><speed>11.00</speed><time>2016-06-21T17:11:42Z</time><pdop>3.0</pdop><geoidheight>54.00</geoidheight><course>341.4</course><type>1</type></trkpt>
      <trkpt lat="39.84740762" lon="-6.47253022"><ele>1011</ele><speed>10.00</speed><time>2016-06-21T17:11:43Z</time><pdop>3.0</pdop><geoidheight>54.00</geoidheight><course>346.3</course><type>1</type></trkpt>
      <trkpt lat="39.84748021" lon="-6.47252516"><ele>1009</ele><speed>8.50</speed><time>2016-06-21T17:11:44Z</time><pdop>3.0</pdop><geoidheight>54.00</geoidheight><course>358.9</course><type>1</type></trkpt>
      <trkpt lat="39.84757846" lon="-6.47245044"><ele>1007</ele><speed>6.25</speed><time>2016-06-21T17:11:46Z</time><pdop>4.0</pdop><geoidheight>54.00</geoidheight><course>37.1</course><type>1</type></trkpt>
      <trkpt lat="39.84765677" lon="-6.47236453"><ele>1007</ele><speed>5.50</speed><time>2016-06-21T17:11:48Z</time><pdop>3.0</pdop><geoidheight>54.00</geoidheight><course>34.7</course><type>1</type></trkpt>
      <trkpt lat="39.8477604" lon="-6.47233132"><ele>1006</ele><speed>6.25</speed><time>2016-06-21T17:11:50Z</time><pdop>4.0</pdop><geoidheight>54.00</geoidheight><course>7.8</course><type>1</type></trkpt>
      <trkpt lat="39.84783006" lon="-6.47233585"><ele>1005</ele><speed>7.50</speed><time>2016-06-21T17:11:51Z</time><pdop>3.0</pdop><geoidheight>54.00</geoidheight><course>358.1</course><type>1</type></trkpt>
      <trkpt lat="39.84791611" lon="-6.4723559999999996"><ele>1003</ele><speed>9.50</speed><time>2016-06-21T17:11:52Z</time><pdop>3.0</pdop><geoidheight>54.00</geoidheight><course>351.6</course><type>1</type></trkpt>
      <trkpt lat="39.84810594" lon="-6.47244074"><ele>1001</ele><speed>11.25</speed><time>2016-06-21T17:11:54Z</time><pdop>4.0</pdop><geoidheight>54.00</geoidheight><course>340.6</course><type>1</type></trkpt>
      <trkpt lat="39.84823029" lon="-6.47250035"><ele>1001</ele><speed>13.50</speed><time>2016-06-21T17:11:55Z</time><pdop>3.0</pdop><geoidheight>54.00</geoidheight><course>339.1</course><type>1</type></trkpt>
      <trkpt lat="39.84834305" lon="-6.47255538"><ele>1001</ele><speed>13.25</speed><time>2016-06-21T17:11:56Z</time><pdop>3.0</pdop><geoidheight>54.00</geoidheight><course>338.0</course><type>1</type></trkpt>
      <trkpt lat="39.84853951" lon="-6.47269938"><ele>1002</ele><speed>12.50</speed><time>2016-06-21T17:11:58Z</time><pdop>3.0</pdop><geoidheight>54.00</geoidheight><course>328.7</course><type>1</type></trkpt>
      <trkpt lat="39.84871941" lon="-6.47290917"><ele>1001</ele><speed>13.50</speed><time>2016-06-21T17:12:00Z</time><pdop>3.0</pdop><geoidheight>54.00</geoidheight><course>315.6</course><type>1</type></trkpt>
      <trkpt lat="39.84890085" lon="-6.47317413"><ele>999</ele><speed>14.50</speed><time>2016-06-21T17:12:02Z</time><pdop>3.0</pdop><geoidheight>54.00</geoidheight><course>309.3</course><type>1</type></trkpt>
      <trkpt lat="39.8489872" lon="-6.47329528"><ele>998</ele><speed>14.00</speed><time>2016-06-21T17:12:03Z</time><pdop>3.0</pdop><geoidheight>54.00</geoidheight><course>311.4</course><type>1</type></trkpt>
      <trkpt lat="39.84915782" lon="-6.47349854"><ele>997</ele><speed>12.75</speed><time>2016-06-21T17:12:05Z</time><pdop>4.0</pdop><geoidheight>54.00</geoidheight><course>321.0</course><type>1</type></trkpt>
      <trkpt lat="39.84924967" lon="-6.47357126"><ele>997</ele><speed>12.25</speed><time>2016-06-21T17:12:06Z</time><pdop>3.0</pdop><geoidheight>54.00</geoidheight><course>326.4</course><type>1</type></trkpt>
      <trkpt lat="39.8493454" lon="-6.47364319"><ele>996</ele><speed>12.00</speed><time>2016-06-21T17:12:07Z</time><pdop>3.0</pdop><geoidheight>54.00</geoidheight><course>330.1</course><type>1</type></trkpt>
      <trkpt lat="39.84953615" lon="-6.47378867"><ele>995</ele><speed>12.00</speed><time>2016-06-21T17:12:09Z</time><pdop>3.0</pdop><geoidheight>54.00</geoidheight><course>329.3</course><type>1</type></trkpt>
      <trkpt lat="39.84972009" lon="-6.47394028"><ele>992</ele><speed>12.00</speed><time>2016-06-21T17:12:11Z</time><pdop>3.0</pdop><geoidheight>54.00</geoidheight><course>328.2</course><type>1</type></trkpt>
      <trkpt lat="39.84981869" lon="-6.47401612"><ele>990</ele><speed>12.75</speed><time>2016-06-21T17:12:12Z</time><pdop>3.0</pdop><geoidheight>54.00</geoidheight><course>328.7</course><type>1</type></trkpt>
      <trkpt lat="39.85003791" lon="-6.47417621"><ele>987</ele><speed>14.00</speed><time>2016-06-21T17:12:14Z</time><pdop>3.0</pdop><geoidheight>54.00</geoidheight><course>331.1</course><type>1</type></trkpt>
      <trkpt lat="39.85014947" lon="-6.47424703"><ele>986</ele><speed>13.75</speed><time>2016-06-21T17:12:15Z</time><pdop>3.0</pdop><geoidheight>54.00</geoidheight><course>333.0</course><type>1</type></trkpt>
      <trkpt lat="39.85036257" lon="-6.47436783"><ele>985</ele><speed>12.75</speed><time>2016-06-21T17:12:17Z</time><pdop>4.0</pdop><geoidheight>54.00</geoidheight><course>337.0</course><type>1</type></trkpt>
      <trkpt lat="39.85046569" lon="-6.47442642"><ele>985</ele><speed>12.50</speed><time>2016-06-21T17:12:18Z</time><pdop>3.0</pdop><geoidheight>54.00</geoidheight><course>335.6</course><type>1</type></trkpt>
      <trkpt lat="39.85056868" lon="-6.47449813"><ele>983</ele><speed>12.50</speed><time>2016-06-21T17:12:19Z</time><pdop>3.0</pdop><geoidheight>54.00</geoidheight><course>332.7</course><type>1</type></trkpt>
      <trkpt lat="39.85066802" lon="-6.474563"><ele>982</ele><speed>12.50</speed><time>2016-06-21T17:12:20Z</time><pdop>3.0</pdop><geoidheight>54.00</geoidheight><course>332.3</course><type>1</type></trkpt>
      <trkpt lat="39.85088468" lon="-6.47467473"><ele>978</ele><speed>13.00</speed><time>2016-06-21T17:12:22Z</time><pdop>3.0</pdop><geoidheight>54.00</geoidheight><course>339.5</course><type>1</type></trkpt>
      <trkpt lat="39.85099457" lon="-6.47472093"><ele>978</ele><speed>12.75</speed><time>2016-06-21T17:12:23Z</time><pdop>4.0</pdop><geoidheight>54.00</geoidheight><course>341.5</course><type>1</type></trkpt>
      <trkpt lat="39.85109457" lon="-6.47476654"><ele>977</ele><speed>12.00</speed><time>2016-06-21T17:12:24Z</time><pdop>4.0</pdop><geoidheight>54.00</geoidheight><course>340.3</course><type>1</type></trkpt>
      <trkpt lat="39.85127355" lon="-6.47485667"><ele>976</ele><speed>10.75</speed><time>2016-06-21T17:12:26Z</time><pdop>4.0</pdop><geoidheight>54.00</geoidheight><course>339.4</course><type>1</type></trkpt>
      <trkpt lat="39.85136517" lon="-6.47489407"><ele>974</ele><speed>10.75</speed><time>2016-06-21T17:12:27Z</time><pdop>3.0</pdop><geoidheight>54.00</geoidheight><course>342.6</course><type>1</type></trkpt>
      <trkpt lat="39.8515672" lon="-6.47495607"><ele>971</ele><speed>11.75</speed><time>2016-06-21T17:12:29Z</time><pdop>4.0</pdop><geoidheight>54.00</geoidheight><course>345.4</course><type>1</type></trkpt>
      <trkpt lat="39.85167033" lon="-6.47498977"><ele>970</ele><speed>11.75</speed><time>2016-06-21T17:12:30Z</time><pdop>4.0</pdop><geoidheight>54.00</geoidheight><course>344.8</course><type>1</type></trkpt>
      <trkpt lat="39.85176275" lon="-6.47501798"><ele>970</ele><speed>11.00</speed><time>2016-06-21T17:12:31Z</time><pdop>3.0</pdop><geoidheight>54.00</geoidheight><course>346.6</course><type>1</type></trkpt>
      <trkpt lat="39.85184977" lon="-6.47503558"><ele>970</ele><speed>10.25</speed><time>2016-06-21T17:12:32Z</time><pdop>4.0</pdop><geoidheight>54.00</geoidheight><course>350.0</course><type>1</type></trkpt>
      <trkpt lat="39.85193665" lon="-6.47505475"><ele>969</ele><speed>10.00</speed><time>2016-06-21T17:12:33Z</time><pdop>4.0</pdop><geoidheight>54.00</geoidheight><course>350.1</course><type>1</type></trkpt>
      <trkpt lat="39.85202721" lon="-6.47508586"><ele>968</ele><speed>10.25</speed><time>2016-06-21T17:12:34Z</time><pdop>3.0</pdop><geoidheight>54.00</geoidheight><course>347.4</course><type>1</type></trkpt>
      <trkpt lat="39.85221938" lon="-6.47517895"><ele>967</ele><speed>11.50</speed><time>2016-06-21T17:12:36Z</time><pdop>4.0</pdop><geoidheight>54.00</geoidheight><course>339.5</course><type>1</type></trkpt>
      <trkpt lat="39.85231543" lon="-6.47521943"><ele>966</ele><speed>11.25</speed><time>2016-06-21T17:12:37Z</time><pdop>4.0</pdop><geoidheight>54.00</geoidheight><course>341.9</course><type>1</type></trkpt>
      <trkpt lat="39.85250318" lon="-6.47527914"><ele>964</ele><speed>10.75</speed><time>2016-06-21T17:12:39Z</time><pdop>3.0</pdop><geoidheight>54.00</geoidheight><course>348.3</course><type>1</type></trkpt>
      <trkpt lat="39.85259759" lon="-6.47530125"><ele>962</ele><speed>10.75</speed><time>2016-06-21T17:12:40Z</time><pdop>4.0</pdop><geoidheight>54.00</geoidheight><course>348.6</course><type>1</type></trkpt>
      <trkpt lat="39.8526903" lon="-6.47533122"><ele>961</ele><speed>11.00</speed><time>2016-06-21T17:12:41Z</time><pdop>4.0</pdop><geoidheight>54.00</geoidheight><course>346.7</course><type>1</type></trkpt>
      <trkpt lat="39.85288265" lon="-6.47540134"><ele>958</ele><speed>11.25</speed><time>2016-06-21T17:12:43Z</time><pdop>3.0</pdop><geoidheight>54.00</geoidheight><course>344.6</course><type>1</type></trkpt>
      <trkpt lat="39.85298258" lon="-6.47543496"><ele>956</ele><speed>11.50</speed><time>2016-06-21T17:12:44Z</time><pdop>3.0</pdop><geoidheight>54.00</geoidheight><course>347.5</course><type>1</type></trkpt>
      <trkpt lat="39.85308768" lon="-6.47545229"><ele>954</ele><speed>11.75</speed><time>2016-06-21T17:12:45Z</time><pdop>3.0</pdop><geoidheight>54.00</geoidheight><course>351.8</course><type>1</type></trkpt>
      <trkpt lat="39.85329252" lon="-6.47547883"><ele>952</ele><speed>11.50</speed><time>2016-06-21T17:12:47Z</time><pdop>3.0</pdop><geoidheight>54.00</geoidheight><course>352.7</course><type>1</type></trkpt>
      <trkpt lat="39.85347992" lon="-6.47551087"><ele>950</ele><speed>10.50</speed><time>2016-06-21T17:12:49Z</time><pdop>3.0</pdop><geoidheight>54.00</geoidheight><course>352.6</course><type>1</type></trkpt>
      <trkpt lat="39.85357699" lon="-6.47552202"><ele>948</ele><speed>10.75</speed><time>2016-06-21T17:12:50Z</time><pdop>4.0</pdop><geoidheight>54.00</geoidheight><course>354.5</course><type>1</type></trkpt>
      <trkpt lat="39.85368094" lon="-6.47552869"><ele>947</ele><speed>11.50</speed><time>2016-06-21T17:12:51Z</time><pdop>4.0</pdop><geoidheight>54.00</geoidheight><course>356.0</course><type>1</type></trkpt>
      <trkpt lat="39.85379423" lon="-6.47554033"><ele>946</ele><speed>12.50</speed><time>2016-06-21T17:12:52Z</time><pdop>4.0</pdop><geoidheight>54.00</geoidheight><course>355.8</course><type>1</type></trkpt>
      <trkpt lat="39.85401325" lon="-6.47557817"><ele>946</ele><speed>12.00</speed><time>2016-06-21T17:12:54Z</time><pdop>4.0</pdop><geoidheight>54.00</geoidheight><course>350.9</course><type>1</type></trkpt>
      <trkpt lat="39.85411364" lon="-6.47560505"><ele>945</ele><speed>11.25</speed><time>2016-06-21T17:12:55Z</time><pdop>3.0</pdop><geoidheight>54.00</geoidheight><course>349.6</course><type>1</type></trkpt>
      <trkpt lat="39.85420647" lon="-6.47562497"><ele>944</ele><speed>11.00</speed><time>2016-06-21T17:12:56Z</time><pdop>3.0</pdop><geoidheight>54.00</geoidheight><course>350.4</course><type>1</type></trkpt>
      <trkpt lat="39.85440544" lon="-6.47565981"><ele>941</ele><speed>11.50</speed><time>2016-06-21T17:12:58Z</time><pdop>4.0</pdop><geoidheight>54.00</geoidheight><course>353.2</course><type>1</type></trkpt>
      <trkpt lat="39.85461605" lon="-6.47567742"><ele>938</ele><speed>11.75</speed><time>2016-06-21T17:13:00Z</time><pdop>3.0</pdop><geoidheight>54.00</geoidheight><course>357.1</course><type>1</type></trkpt>
      <trkpt lat="39.85481351" lon="-6.47570346"><ele>936</ele><speed>10.75</speed><time>2016-06-21T17:13:02Z</time><pdop>3.0</pdop><geoidheight>54.00</geoidheight><course>353.1</course><type>1</type></trkpt>
      <trkpt lat="39.85500163" lon="-6.47574819"><ele>933</ele><speed>10.75</speed><time>2016-06-21T17:13:04Z</time><pdop>4.0</pdop><geoidheight>54.00</geoidheight><course>351.6</course><type>1</type></trkpt>
      <trkpt lat="39.85509799" lon="-6.47574909"><ele>931</ele><speed>11.00</speed><time>2016-06-21T17:13:05Z</time><pdop>4.0</pdop><geoidheight>54.00</geoidheight><course>358.3</course><type>1</type></trkpt>
      <trkpt lat="39.8552" lon="-6.47574181"><ele>930</ele><speed>11.25</speed><time>2016-06-21T17:13:06Z</time><pdop>3.0</pdop><geoidheight>54.00</geoidheight><course>2.5</course><type>1</type></trkpt>
      <trkpt lat="39.85539194" lon="-6.47574477"><ele>930</ele><speed>10.50</speed><time>2016-06-21T17:13:08Z</time><pdop>4.0</pdop><geoidheight>54.00</geoidheight><course>356.3</course><type>1</type></trkpt>
      <trkpt lat="39.85547874" lon="-6.47575987"><ele>930</ele><speed>9.75</speed><time>2016-06-21T17:13:09Z</time><pdop>3.0</pdop><geoidheight>54.00</geoidheight><course>352.7</course><type>1</type></trkpt>
      <trkpt lat="39.85564864" lon="-6.47577395"><ele>927</ele><speed>9.25</speed><time>2016-06-21T17:13:11Z</time><pdop>3.0</pdop><geoidheight>54.00</geoidheight><course>359.0</course><type>1</type></trkpt>
      <trkpt lat="39.85574223" lon="-6.47576741"><ele>925</ele><speed>10.50</speed><time>2016-06-21T17:13:12Z</time><pdop>3.0</pdop><geoidheight>54.00</geoidheight><course>2.0</course><type>1</type></trkpt>
      <trkpt lat="39.85584501" lon="-6.47576438"><ele>924</ele><speed>11.25</speed><time>2016-06-21T17:13:13Z</time><pdop>3.0</pdop><geoidheight>54.00</geoidheight><course>1.5</course><type>1</type></trkpt>
      <trkpt lat="39.85594505" lon="-6.47576751"><ele>924</ele><speed>11.25</speed><time>2016-06-21T17:13:14Z</time><pdop>4.0</pdop><geoidheight>54.00</geoidheight><course>358.4</course><type>1</type></trkpt>
      <trkpt lat="39.85611251" lon="-6.4757919"><ele>924</ele><speed>9.25</speed><time>2016-06-21T17:13:16Z</time><pdop>3.0</pdop><geoidheight>54.00</geoidheight><course>354.6</course><type>1</type></trkpt>
      <trkpt lat="39.85618867" lon="-6.47580346"><ele>923</ele><speed>8.50</speed><time>2016-06-21T17:13:17Z</time><pdop>3.0</pdop><geoidheight>54.00</geoidheight><course>355.4</course><type>1</type></trkpt>
      <trkpt lat="39.85626969" lon="-6.47580747"><ele>920</ele><speed>9.00</speed><time>2016-06-21T17:13:18Z</time><pdop>4.0</pdop><geoidheight>54.00</geoidheight><course>357.6</course><type>1</type></trkpt>
      <trkpt lat="39.8564569" lon="-6.47582061"><ele>916</ele><speed>10.50</speed><time>2016-06-21T17:13:20Z</time><pdop>4.0</pdop><geoidheight>54.00</geoidheight><course>355.9</course><type>1</type></trkpt>
      <trkpt lat="39.85656415" lon="-6.47584241"><ele>916</ele><speed>11.25</speed><time>2016-06-21T17:13:21Z</time><pdop>4.0</pdop><geoidheight>54.00</geoidheight><course>352.9</course><type>1</type></trkpt>
      <trkpt lat="39.85666231" lon="-6.47585904"><ele>915</ele><speed>11.00</speed><time>2016-06-21T17:13:22Z</time><pdop>3.0</pdop><geoidheight>54.00</geoidheight><course>351.8</course><type>1</type></trkpt>
      <trkpt lat="39.85674913" lon="-6.47587446"><ele>914</ele><speed>10.00</speed><time>2016-06-21T17:13:23Z</time><pdop>4.0</pdop><geoidheight>54.00</geoidheight><course>352.7</course><type>1</type></trkpt>
      <trkpt lat="39.85692167" lon="-6.47587444"><ele>910</ele><speed>9.25</speed><time>2016-06-21T17:13:25Z</time><pdop>3.0</pdop><geoidheight>54.00</geoidheight><course>359.7</course><type>1</type></trkpt>
      <trkpt lat="39.85711102" lon="-6.4758708"><ele>910</ele><speed>10.75</speed><time>2016-06-21T17:13:27Z</time><pdop>3.0</pdop><geoidheight>54.00</geoidheight><course>0.4</course><type>1</type></trkpt>
      <trkpt lat="39.8572651" lon="-6.4758678"><ele>912</ele><speed>7.25</speed><time>2016-06-21T17:13:29Z</time><pdop>3.0</pdop><geoidheight>54.00</geoidheight><course>0.6</course><type>1</type></trkpt>
      <trkpt lat="39.85736517" lon="-6.4758522"><ele>910</ele><speed>5.75</speed><time>2016-06-21T17:13:31Z</time><pdop>3.0</pdop><geoidheight>54.00</geoidheight><course>9.6</course><type>1</type></trkpt>
      <trkpt lat="39.85742787" lon="-6.47582552"><ele>909</ele><speed>7.25</speed><time>2016-06-21T17:13:32Z</time><pdop>4.0</pdop><geoidheight>54.00</geoidheight><course>16.9</course><type>1</type></trkpt>
      <trkpt lat="39.85749483" lon="-6.47579278"><ele>907</ele><speed>7.75</speed><time>2016-06-21T17:13:33Z</time><pdop>3.0</pdop><geoidheight>54.00</geoidheight><course>19.3</course><type>1</type></trkpt>
      <trkpt lat="39.85764603" lon="-6.4757424199999996"><ele>904</ele><speed>8.75</speed><time>2016-06-21T17:13:35Z</time><pdop>3.0</pdop><geoidheight>54.00</geoidheight><course>13.1</course><type>1</type></trkpt>
      <trkpt lat="39.85779699" lon="-6.47569036"><ele>902</ele><speed>8.75</speed><time>2016-06-21T17:13:37Z</time><pdop>3.0</pdop><geoidheight>54.00</geoidheight><course>16.1</course><type>1</type></trkpt>
      <trkpt lat="39.85786768" lon="-6.47566263"><ele>901</ele><speed>8.50</speed><time>2016-06-21T17:13:38Z</time><pdop>3.0</pdop><geoidheight>54.00</geoidheight><course>16.4</course><type>1</type></trkpt>
      <trkpt lat="39.8579382" lon="-6.47564128"><ele>901</ele><speed>8.25</speed><time>2016-06-21T17:13:39Z</time><pdop>3.0</pdop><geoidheight>54.00</geoidheight><course>13.1</course><type>1</type></trkpt>
      <trkpt lat="39.85809201" lon="-6.47560883"><ele>899</ele><speed>8.75</speed><time>2016-06-21T17:13:41Z</time><pdop>3.0</pdop><geoidheight>54.00</geoidheight><course>6.8</course><type>1</type></trkpt>
      <trkpt lat="39.85817271" lon="-6.47559459"><ele>897</ele><speed>9.00</speed><time>2016-06-21T17:13:42Z</time><pdop>4.0</pdop><geoidheight>54.00</geoidheight><course>7.0</course><type>1</type></trkpt>
      <trkpt lat="39.85824986" lon="-6.47557979"><ele>896</ele><speed>8.75</speed><time>2016-06-21T17:13:43Z</time><pdop>4.0</pdop><geoidheight>54.00</geoidheight><course>8.5</course><type>1</type></trkpt>
      <trkpt lat="39.85839992" lon="-6.47555335"><ele>894</ele><speed>8.50</speed><time>2016-06-21T17:13:45Z</time><pdop>3.0</pdop><geoidheight>54.00</geoidheight><course>5.1</course><type>1</type></trkpt>
      <trkpt lat="39.85847712" lon="-6.47555087"><ele>892</ele><speed>8.50</speed><time>2016-06-21T17:13:46Z</time><pdop>4.0</pdop><geoidheight>54.00</geoidheight><course>2.7</course><type>1</type></trkpt>
      <trkpt lat="39.85864947" lon="-6.47553071"><ele>889</ele><speed>9.00</speed><time>2016-06-21T17:13:48Z</time><pdop>3.0</pdop><geoidheight>54.00</geoidheight><course>5.8</course><type>1</type></trkpt>
      <trkpt lat="39.85872627" lon="-6.47551944"><ele>887</ele><speed>9.00</speed><time>2016-06-21T17:13:49Z</time><pdop>4.0</pdop><geoidheight>54.00</geoidheight><course>7.3</course><type>1</type></trkpt>
      <trkpt lat="39.85880212" lon="-6.47550764"><ele>886</ele><speed>8.75</speed><time>2016-06-21T17:13:50Z</time><pdop>3.0</pdop><geoidheight>54.00</geoidheight><course>7.3</course><type>1</type></trkpt>
      <trkpt lat="39.85887992" lon="-6.47550028"><ele>884</ele><speed>8.50</speed><time>2016-06-21T17:13:51Z</time><pdop>4.0</pdop><geoidheight>54.00</geoidheight><course>4.1</course><type>1</type></trkpt>
      <trkpt lat="39.85903027" lon="-6.47548985"><ele>880</ele><speed>8.50</speed><time>2016-06-21T17:13:53Z</time><pdop>3.0</pdop><geoidheight>54.00</geoidheight><course>4.2</course><type>1</type></trkpt>
      <trkpt lat="39.85910592" lon="-6.47547031"><ele>878</ele><speed>8.25</speed><time>2016-06-21T17:13:54Z</time><pdop>4.0</pdop><geoidheight>54.00</geoidheight><course>11.5</course><type>1</type></trkpt>
      <trkpt lat="39.85929168" lon="-6.47534993"><ele>870</ele><speed>7.75</speed><time>2016-06-21T17:13:57Z</time><pdop>3.0</pdop><geoidheight>54.00</geoidheight><course>30.2</course><type>1</type></trkpt>
      <trkpt lat="39.8594151" lon="-6.47525836"><ele>869</ele><speed>8.00</speed><time>2016-06-21T17:13:59Z</time><pdop>3.0</pdop><geoidheight>54.00</geoidheight><course>27.2</course><type>1</type></trkpt>
      <trkpt lat="39.85946308" lon="-6.4752258"><ele>869</ele><speed>6.25</speed><time>2016-06-21T17:14:00Z</time><pdop>3.0</pdop><geoidheight>54.00</geoidheight><course>24.9</course><type>1</type></trkpt>
      <trkpt lat="39.85951604" lon="-6.47517648"><ele>868</ele><speed>3.50</speed><time>2016-06-21T17:14:02Z</time><pdop>3.0</pdop><geoidheight>54.00</geoidheight><course>44.8</course><type>1</type></trkpt>
      <trkpt lat="39.85953414" lon="-6.47506993"><ele>866</ele><speed>5.25</speed><time>2016-06-21T17:14:04Z</time><pdop>3.0</pdop><geoidheight>54.00</geoidheight><course>81.6</course><type>1</type></trkpt>
      <trkpt lat="39.85952507" lon="-6.47500046"><ele>865</ele><speed>5.75</speed><time>2016-06-21T17:14:05Z</time><pdop>3.0</pdop><geoidheight>54.00</geoidheight><course>93.6</course><type>1</type></trkpt>
      <trkpt lat="39.85945377" lon="-6.47481702"><ele>865</ele><speed>6.00</speed><time>2016-06-21T17:14:08Z</time><pdop>4.0</pdop><geoidheight>54.00</geoidheight><course>124.6</course><type>1</type></trkpt>
      <trkpt lat="39.85937564" lon="-6.47469847"><ele>865</ele><speed>7.25</speed><time>2016-06-21T17:14:10Z</time><pdop>4.0</pdop><geoidheight>54.00</geoidheight><course>131.9</course><type>1</type></trkpt>
      <trkpt lat="39.85930691" lon="-6.4745602"><ele>863</ele><speed>7.00</speed><time>2016-06-21T17:14:12Z</time><pdop>3.0</pdop><geoidheight>54.00</geoidheight><course>120.8</course><type>1</type></trkpt>
      <trkpt lat="39.85928188" lon="-6.47448421"><ele>862</ele><speed>7.25</speed><time>2016-06-21T17:14:13Z</time><pdop>3.0</pdop><geoidheight>54.00</geoidheight><course>115.2</course><type>1</type></trkpt>
      <trkpt lat="39.85926009" lon="-6.47440344"><ele>861</ele><speed>7.25</speed><time>2016-06-21T17:14:14Z</time><pdop>3.0</pdop><geoidheight>54.00</geoidheight><course>110.7</course><type>1</type></trkpt>
      <trkpt lat="39.85922552" lon="-6.47424249"><ele>862</ele><speed>6.75</speed><time>2016-06-21T17:14:16Z</time><pdop>4.0</pdop><geoidheight>54.00</geoidheight><course>108.5</course><type>1</type></trkpt>
      <trkpt lat="39.85917763" lon="-6.47410804"><ele>861</ele><speed>6.25</speed><time>2016-06-21T17:14:18Z</time><pdop>4.0</pdop><geoidheight>54.00</geoidheight><course>115.3</course><type>1</type></trkpt>
      <trkpt lat="39.85909405" lon="-6.4738885"><ele>863</ele><speed>7.25</speed><time>2016-06-21T17:14:21Z</time><pdop>3.0</pdop><geoidheight>54.00</geoidheight><course>117.2</course><type>1</type></trkpt>
      <trkpt lat="39.85906108" lon="-6.47381914"><ele>865</ele><speed>6.75</speed><time>2016-06-21T17:14:22Z</time><pdop>3.0</pdop><geoidheight>54.00</geoidheight><course>121.1</course><type>1</type></trkpt>
      <trkpt lat="39.85894579" lon="-6.47365635"><ele>866</ele><speed>6.75</speed><time>2016-06-21T17:14:25Z</time><pdop>4.0</pdop><geoidheight>54.00</geoidheight><course>131.7</course><type>1</type></trkpt>
      <trkpt lat="39.85886904" lon="-6.47351589"><ele>866</ele><speed>7.25</speed><time>2016-06-21T17:14:27Z</time><pdop>4.0</pdop><geoidheight>54.00</geoidheight><course>125.8</course><type>1</type></trkpt>
      <trkpt lat="39.8587665" lon="-6.4733065"><ele>867</ele><speed>6.75</speed><time>2016-06-21T17:14:30Z</time><pdop>4.0</pdop><geoidheight>54.00</geoidheight><course>121.8</course><type>1</type></trkpt>
      <trkpt lat="39.85871766" lon="-6.47315924"><ele>867</ele><speed>6.75</speed><time>2016-06-21T17:14:32Z</time><pdop>4.0</pdop><geoidheight>54.00</geoidheight><course>113.2</course><type>1</type></trkpt>
      <trkpt lat="39.85868201" lon="-6.47300705"><ele>867</ele><speed>6.75</speed><time>2016-06-21T17:14:34Z</time><pdop>3.0</pdop><geoidheight>54.00</geoidheight><course>105.7</course><type>1</type></trkpt>
      <trkpt lat="39.85866991" lon="-6.47293498"><ele>868</ele><speed>6.50</speed><time>2016-06-21T17:14:35Z</time><pdop>3.0</pdop><geoidheight>54.00</geoidheight><course>102.0</course><type>1</type></trkpt>
      <trkpt lat="39.85866184" lon="-6.47285555"><ele>869</ele><speed>6.75</speed><time>2016-06-21T17:14:36Z</time><pdop>3.0</pdop><geoidheight>54.00</geoidheight><course>100.3</course><type>1</type></trkpt>
      <trkpt lat="39.85862807" lon="-6.47267007"><ele>869</ele><speed>8.25</speed><time>2016-06-21T17:14:38Z</time><pdop>4.0</pdop><geoidheight>54.00</geoidheight><course>104.8</course><type>1</type></trkpt>
      <trkpt lat="39.8586063" lon="-6.47257508"><ele>869</ele><speed>8.25</speed><time>2016-06-21T17:14:39Z</time><pdop>4.0</pdop><geoidheight>54.00</geoidheight><course>106.0</course><type>1</type></trkpt>
      <trkpt lat="39.8585821" lon="-6.47249618"><ele>872</ele><speed>7.75</speed><time>2016-06-21T17:14:40Z</time><pdop>3.0</pdop><geoidheight>54.00</geoidheight><course>107.1</course><type>1</type></trkpt>
      <trkpt lat="39.85856134" lon="-6.47234138"><ele>873</ele><speed>6.50</speed><time>2016-06-21T17:14:42Z</time><pdop>4.0</pdop><geoidheight>54.00</geoidheight><course>99.2</course><type>1</type></trkpt>
      <trkpt lat="39.85853843" lon="-6.4721942"><ele>874</ele><speed>6.25</speed><time>2016-06-21T17:14:44Z</time><pdop>4.0</pdop><geoidheight>54.00</geoidheight><course>101.8</course><type>1</type></trkpt>
      <trkpt lat="39.85850625" lon="-6.47204947"><ele>874</ele><speed>6.75</speed><time>2016-06-21T17:14:46Z</time><pdop>4.0</pdop><geoidheight>54.00</geoidheight><course>104.2</course><type>1</type></trkpt>
      <trkpt lat="39.85846318" lon="-6.47190456"><ele>875</ele><speed>6.75</speed><time>2016-06-21T17:14:48Z</time><pdop>4.0</pdop><geoidheight>54.00</geoidheight><course>113.1</course><type>1</type></trkpt>
      <trkpt lat="39.85837891" lon="-6.47181086"><ele>879</ele><speed>6.25</speed><time>2016-06-21T17:14:50Z</time><pdop>4.0</pdop><geoidheight>54.00</geoidheight><course>137.4</course><type>1</type></trkpt>
      <trkpt lat="39.85826982" lon="-6.47171818"><ele>881</ele><speed>7.25</speed><time>2016-06-21T17:14:52Z</time><pdop>3.0</pdop><geoidheight>54.00</geoidheight><course>145.1</course><type>1</type></trkpt>
      <trkpt lat="39.85818279" lon="-6.471597"><ele>884</ele><speed>6.75</speed><time>2016-06-21T17:14:54Z</time><pdop>3.0</pdop><geoidheight>54.00</geoidheight><course>126.7</course><type>1</type></trkpt>
      <trkpt lat="39.85817675" lon="-6.47140538"><ele>889</ele><speed>5.75</speed><time>2016-06-21T17:14:57Z</time><pdop>3.0</pdop><geoidheight>54.00</geoidheight><course>76.8</course><type>1</type></trkpt>
      <trkpt lat="39.85824785" lon="-6.47128771"><ele>894</ele><speed>4.25</speed><time>2016-06-21T17:15:00Z</time><pdop>3.0</pdop><geoidheight>54.00</geoidheight><course>40.0</course><type>1</type></trkpt>
      <trkpt lat="39.85839763" lon="-6.47133428"><ele>894</ele><speed>7.25</speed><time>2016-06-21T17:15:03Z</time><pdop>3.0</pdop><geoidheight>54.00</geoidheight><course>331.5</course><type>1</type></trkpt>
      <trkpt lat="39.85845179" lon="-6.47140858"><ele>894</ele><speed>8.75</speed><time>2016-06-21T17:15:04Z</time><pdop>3.0</pdop><geoidheight>54.00</geoidheight><course>316.4</course><type>1</type></trkpt>
      <trkpt lat="39.8585601" lon="-6.4715927"><ele>895</ele><speed>9.75</speed><time>2016-06-21T17:15:06Z</time><pdop>3.0</pdop><geoidheight>54.00</geoidheight><course>308.3</course><type>1</type></trkpt>
      <trkpt lat="39.85861798" lon="-6.47166409"><ele>897</ele><speed>8.75</speed><time>2016-06-21T17:15:07Z</time><pdop>3.0</pdop><geoidheight>54.00</geoidheight><course>315.4</course><type>1</type></trkpt>
      <trkpt lat="39.85867947" lon="-6.47170199"><ele>897</ele><speed>7.50</speed><time>2016-06-21T17:15:08Z</time><pdop>3.0</pdop><geoidheight>54.00</geoidheight><course>333.3</course><type>1</type></trkpt>
      <trkpt lat="39.85881394" lon="-6.47167562"><ele>897</ele><speed>7.50</speed><time>2016-06-21T17:15:10Z</time><pdop>3.0</pdop><geoidheight>54.00</geoidheight><course>13.7</course><type>1</type></trkpt>
      <trkpt lat="39.85887539" lon="-6.47164049"><ele>899</ele><speed>7.25</speed><time>2016-06-21T17:15:11Z</time><pdop>3.0</pdop><geoidheight>54.00</geoidheight><course>23.0</course><type>1</type></trkpt>
      <trkpt lat="39.85892161" lon="-6.47159933"><ele>901</ele><speed>6.25</speed><time>2016-06-21T17:15:12Z</time><pdop>3.0</pdop><geoidheight>54.00</geoidheight><course>32.8</course><type>1</type></trkpt>
      <trkpt lat="39.85896985" lon="-6.47150746"><ele>904</ele><speed>4.50</speed><time>2016-06-21T17:15:14Z</time><pdop>3.0</pdop><geoidheight>54.00</geoidheight><course>60.6</course><type>1</type></trkpt>
      <trkpt lat="39.85896974" lon="-6.47140336"><ele>906</ele><speed>4.50</speed><time>2016-06-21T17:15:16Z</time><pdop>3.0</pdop><geoidheight>54.00</geoidheight><course>97.2</course><type>1</type></trkpt>
      <trkpt lat="39.85889173" lon="-6.47131028"><ele>907</ele><speed>6.50</speed><time>2016-06-21T17:15:18Z</time><pdop>4.0</pdop><geoidheight>54.00</geoidheight><course>145.9</course><type>1</type></trkpt>
      <trkpt lat="39.85882138" lon="-6.47128936"><ele>907</ele><speed>7.75</speed><time>2016-06-21T17:15:19Z</time><pdop>3.0</pdop><geoidheight>54.00</geoidheight><course>163.6</course><type>1</type></trkpt>
      <trkpt lat="39.85874016" lon="-6.47128674"><ele>908</ele><speed>8.75</speed><time>2016-06-21T17:15:20Z</time><pdop>3.0</pdop><geoidheight>54.00</geoidheight><course>176.6</course><type>1</type></trkpt>
      <trkpt lat="39.85865081" lon="-6.47130285"><ele>908</ele><speed>9.75</speed><time>2016-06-21T17:15:21Z</time><pdop>3.0</pdop><geoidheight>54.00</geoidheight><course>187.2</course><type>1</type></trkpt>
      <trkpt lat="39.85846773" lon="-6.47141193"><ele>908</ele><speed>11.25</speed><time>2016-06-21T17:15:23Z</time><pdop>4.0</pdop><geoidheight>54.00</geoidheight><course>207.5</course><type>1</type></trkpt>
      <trkpt lat="39.85838368" lon="-6.47150478"><ele>908</ele><speed>12.00</speed><time>2016-06-21T17:15:24Z</time><pdop>3.0</pdop><geoidheight>54.00</geoidheight><course>220.3</course><type>1</type></trkpt>
      <trkpt lat="39.85831489" lon="-6.47162512"><ele>908</ele><speed>12.75</speed><time>2016-06-21T17:15:25Z</time><pdop>3.0</pdop><geoidheight>54.00</geoidheight><course>230.8</course><type>1</type></trkpt>
      <trkpt lat="39.85822864" lon="-6.47189204"><ele>908</ele><speed>12.00</speed><time>2016-06-21T17:15:27Z</time><pdop>3.0</pdop><geoidheight>54.00</geoidheight><course>250.9</course><type>1</type></trkpt>
      <trkpt lat="39.85821817" lon="-6.47202666"><ele>909</ele><speed>11.25</speed><time>2016-06-21T17:15:28Z</time><pdop>3.0</pdop><geoidheight>54.00</geoidheight><course>263.4</course><type>1</type></trkpt>
      <trkpt lat="39.85826955" lon="-6.47225376"><ele>910</ele><speed>9.75</speed><time>2016-06-21T17:15:30Z</time><pdop>3.0</pdop><geoidheight>54.00</geoidheight><course>289.8</course><type>1</type></trkpt>
      <trkpt lat="39.85830973" lon="-6.4723361"><ele>911</ele><speed>8.50</speed><time>2016-06-21T17:15:31Z</time><pdop>3.0</pdop><geoidheight>54.00</geoidheight><course>301.7</course><type>1</type></trkpt>
      <trkpt lat="39.85835861" lon="-6.4723977"><ele>911</ele><speed>7.75</speed><time>2016-06-21T17:15:32Z</time><pdop>3.0</pdop><geoidheight>54.00</geoidheight><course>315.2</course><type>1</type></trkpt>
      <trkpt lat="39.85841464" lon="-6.4724381"><ele>911</ele><speed>7.00</speed><time>2016-06-21T17:15:33Z</time><pdop>4.0</pdop><geoidheight>54.00</geoidheight><course>327.6</course><type>1</type></trkpt>
      <trkpt lat="39.85847654" lon="-6.47245782"><ele>912</ele><speed>7.00</speed><time>2016-06-21T17:15:34Z</time><pdop>3.0</pdop><geoidheight>54.00</geoidheight><course>341.7</course><type>1</type></trkpt>
      <trkpt lat="39.85853935" lon="-6.4724629"><ele>913</ele><speed>7.00</speed><time>2016-06-21T17:15:35Z</time><pdop>3.0</pdop><geoidheight>54.00</geoidheight><course>354.4</course><type>1</type></trkpt>
      <trkpt lat="39.85865041" lon="-6.47243182"><ele>915</ele><speed>6.00</speed><time>2016-06-21T17:15:37Z</time><pdop>3.0</pdop><geoidheight>54.00</geoidheight><course>13.1</course><type>1</type></trkpt>
      <trkpt lat="39.85872411" lon="-6.47238497"><ele>917</ele><speed>4.50</speed><time>2016-06-21T17:15:39Z</time><pdop>4.0</pdop><geoidheight>54.00</geoidheight><course>30.3</course><type>1</type></trkpt>
      <trkpt lat="39.85875407" lon="-6.4723091"><ele>918</ele><speed>3.75</speed><time>2016-06-21T17:15:41Z</time><pdop>3.0</pdop><geoidheight>54.00</geoidheight><course>70.9</course><type>1</type></trkpt>
      <trkpt lat="39.85870642" lon="-6.47218314"><ele>918</ele><speed>6.50</speed><time>2016-06-21T17:15:43Z</time><pdop>3.0</pdop><geoidheight>54.00</geoidheight><course>124.0</course><type>1</type></trkpt>
      <trkpt lat="39.85865372" lon="-6.47211887"><ele>919</ele><speed>7.75</speed><time>2016-06-21T17:15:44Z</time><pdop>3.0</pdop><geoidheight>54.00</geoidheight><course>136.5</course><type>1</type></trkpt>
      <trkpt lat="39.8585867" lon="-6.47206076"><ele>920</ele><speed>8.50</speed><time>2016-06-21T17:15:45Z</time><pdop>3.0</pdop><geoidheight>54.00</geoidheight><course>145.2</course><type>1</type></trkpt>
      <trkpt lat="39.85851191" lon="-6.47201602"><ele>921</ele><speed>9.00</speed><time>2016-06-21T17:15:46Z</time><pdop>3.0</pdop><geoidheight>54.00</geoidheight><course>153.6</course><type>1</type></trkpt>
      <trkpt lat="39.85832559" lon="-6.47196557"><ele>923</ele><speed>11.00</speed><time>2016-06-21T17:15:48Z</time><pdop>3.0</pdop><geoidheight>54.00</geoidheight><course>172.1</course><type>1</type></trkpt>
      <trkpt lat="39.85821612" lon="-6.47197223"><ele>923</ele><speed>11.75</speed><time>2016-06-21T17:15:49Z</time><pdop>3.0</pdop><geoidheight>54.00</geoidheight><course>181.7</course><type>1</type></trkpt>
      <trkpt lat="39.85810521" lon="-6.471999"><ele>923</ele><speed>12.25</speed><time>2016-06-21T17:15:50Z</time><pdop>4.0</pdop><geoidheight>54.00</geoidheight><course>189.2</course><type>1</type></trkpt>
      <trkpt lat="39.85799944" lon="-6.47204294"><ele>923</ele><speed>12.50</speed><time>2016-06-21T17:15:51Z</time><pdop>3.0</pdop><geoidheight>54.00</geoidheight><course>196.8</course><type>1</type></trkpt>
      <trkpt lat="39.8578183" lon="-6.47220248"><ele>924</ele><speed>12.25</speed><time>2016-06-21T17:15:53Z</time><pdop>3.0</pdop><geoidheight>54.00</geoidheight><course>220.9</course><type>1</type></trkpt>
      <trkpt lat="39.85775609" lon="-6.47233076"><ele>922</ele><speed>12.50</speed><time>2016-06-21T17:15:54Z</time><pdop>3.0</pdop><geoidheight>54.00</geoidheight><course>238.0</course><type>1</type></trkpt>
      <trkpt lat="39.85772756" lon="-6.47248483"><ele>921</ele><speed>13.50</speed><time>2016-06-21T17:15:55Z</time><pdop>3.0</pdop><geoidheight>54.00</geoidheight><course>254.0</course><type>1</type></trkpt>
      <trkpt lat="39.85777031" lon="-6.47277439"><ele>922</ele><speed>11.50</speed><time>2016-06-21T17:15:57Z</time><pdop>3.0</pdop><geoidheight>54.00</geoidheight><course>286.3</course><type>1</type></trkpt>
      <trkpt lat="39.85782917" lon="-6.47285684"><ele>922</ele><speed>9.25</speed><time>2016-06-21T17:15:58Z</time><pdop>3.0</pdop><geoidheight>54.00</geoidheight><course>306.4</course><type>1</type></trkpt>
      <trkpt lat="39.85789035" lon="-6.47290138"><ele>922</ele><speed>7.75</speed><time>2016-06-21T17:15:59Z</time><pdop>3.0</pdop><geoidheight>54.00</geoidheight><course>326.1</course><type>1</type></trkpt>
      <trkpt lat="39.85799342" lon="-6.47291532"><ele>923</ele><speed>5.50</speed><time>2016-06-21T17:16:01Z</time><pdop>3.0</pdop><geoidheight>54.00</geoidheight><course>358.2</course><type>1</type></trkpt>
      <trkpt lat="39.85807379" lon="-6.47288392"><ele>924</ele><speed>4.75</speed><time>2016-06-21T17:16:03Z</time><pdop>4.0</pdop><geoidheight>54.00</geoidheight><course>19.7</course><type>1</type></trkpt>
      <trkpt lat="39.85816726" lon="-6.47283301"><ele>925</ele><speed>5.75</speed><time>2016-06-21T17:16:05Z</time><pdop>4.0</pdop><geoidheight>54.00</geoidheight><course>20.4</course><type>1</type></trkpt>
      <trkpt lat="39.85826548" lon="-6.47278643"><ele>929</ele><speed>5.50</speed><time>2016-06-21T17:16:07Z</time><pdop>3.0</pdop><geoidheight>54.00</geoidheight><course>19.2</course><type>1</type></trkpt>
      <trkpt lat="39.85833195" lon="-6.47275076"><ele>934</ele><speed>4.00</speed><time>2016-06-21T17:16:09Z</time><pdop>3.0</pdop><geoidheight>54.00</geoidheight><course>25.4</course><type>1</type></trkpt>
      <trkpt lat="39.85841295" lon="-6.47268312"><ele>940</ele><speed>3.50</speed><time>2016-06-21T17:16:12Z</time><pdop>3.0</pdop><geoidheight>54.00</geoidheight><course>50.1</course><type>1</type></trkpt>
      <trkpt lat="39.85837879" lon="-6.47258298"><ele>944</ele><speed>5.25</speed><time>2016-06-21T17:16:14Z</time><pdop>3.0</pdop><geoidheight>54.00</geoidheight><course>120.7</course><type>1</type></trkpt>
      <trkpt lat="39.85832537" lon="-6.4725325"><ele>947</ele><speed>6.75</speed><time>2016-06-21T17:16:15Z</time><pdop>3.0</pdop><geoidheight>54.00</geoidheight><course>142.2</course><type>1</type></trkpt>
      <trkpt lat="39.8581882" lon="-6.47246952"><ele>949</ele><speed>8.00</speed><time>2016-06-21T17:16:17Z</time><pdop>4.0</pdop><geoidheight>54.00</geoidheight><course>161.1</course><type>1</type></trkpt>
      <trkpt lat="39.85808322" lon="-6.47250895"><ele>951</ele><speed>10.25</speed><time>2016-06-21T17:16:18Z</time><pdop>3.0</pdop><geoidheight>54.00</geoidheight><course>186.1</course><type>1</type></trkpt>
      <trkpt lat="39.85798653" lon="-6.47253494"><ele>951</ele><speed>11.00</speed><time>2016-06-21T17:16:19Z</time><pdop>4.0</pdop><geoidheight>54.00</geoidheight><course>192.3</course><type>1</type></trkpt>
      <trkpt lat="39.85778699" lon="-6.4726282"><ele>952</ele><speed>12.00</speed><time>2016-06-21T17:16:21Z</time><pdop>4.0</pdop><geoidheight>54.00</geoidheight><course>203.0</course><type>1</type></trkpt>
      <trkpt lat="39.85769612" lon="-6.47270869"><ele>954</ele><speed>11.75</speed><time>2016-06-21T17:16:22Z</time><pdop>3.0</pdop><geoidheight>54.00</geoidheight><course>212.3</course><type>1</type></trkpt>
      <trkpt lat="39.8576261" lon="-6.47280117"><ele>958</ele><speed>11.25</speed><time>2016-06-21T17:16:23Z</time><pdop>3.0</pdop><geoidheight>54.00</geoidheight><course>226.4</course><type>1</type></trkpt>
      <trkpt lat="39.85758257" lon="-6.47300993"><ele>963</ele><speed>8.50</speed><time>2016-06-21T17:16:25Z</time><pdop>3.0</pdop><geoidheight>54.00</geoidheight><course>262.4</course><type>1</type></trkpt>
      <trkpt lat="39.85759345" lon="-6.47310332"><ele>964</ele><speed>8.00</speed><time>2016-06-21T17:16:26Z</time><pdop>3.0</pdop><geoidheight>54.00</geoidheight><course>274.5</course><type>1</type></trkpt>
      <trkpt lat="39.85761085" lon="-6.4732037"><ele>964</ele><speed>8.50</speed><time>2016-06-21T17:16:27Z</time><pdop>3.0</pdop><geoidheight>54.00</geoidheight><course>279.2</course><type>1</type></trkpt>
      <trkpt lat="39.85763672" lon="-6.47331487"><ele>965</ele><speed>9.75</speed><time>2016-06-21T17:16:28Z</time><pdop>3.0</pdop><geoidheight>54.00</geoidheight><course>286.2</course><type>1</type></trkpt>
      <trkpt lat="39.85773302" lon="-6.47350046"><ele>970</ele><speed>9.00</speed><time>2016-06-21T17:16:30Z</time><pdop>3.0</pdop><geoidheight>54.00</geoidheight><course>309.1</course><type>1</type></trkpt>
      <trkpt lat="39.85779414" lon="-6.47356018"><ele>972</ele><speed>8.50</speed><time>2016-06-21T17:16:31Z</time><pdop>3.0</pdop><geoidheight>54.00</geoidheight><course>323.4</course><type>1</type></trkpt>
      <trkpt lat="39.857859" lon="-6.47360376"><ele>973</ele><speed>8.25</speed><time>2016-06-21T17:16:32Z</time><pdop>4.0</pdop><geoidheight>54.00</geoidheight><course>333.8</course><type>1</type></trkpt>
      <trkpt lat="39.85792255" lon="-6.47363316"><ele>976</ele><speed>7.75</speed><time>2016-06-21T17:16:33Z</time><pdop>3.0</pdop><geoidheight>54.00</geoidheight><course>340.1</course><type>1</type></trkpt>
      <trkpt lat="39.85802784" lon="-6.47363717"><ele>981</ele><speed>5.00</speed><time>2016-06-21T17:16:35Z</time><pdop>3.0</pdop><geoidheight>54.00</geoidheight><course>3.5</course><type>1</type></trkpt>
      <trkpt lat="39.85807531" lon="-6.47357906"><ele>985</ele><speed>4.00</speed><time>2016-06-21T17:16:37Z</time><pdop>3.0</pdop><geoidheight>54.00</geoidheight><course>55.5</course><type>1</type></trkpt>
      <trkpt lat="39.8580731" lon="-6.47346103"><ele>989</ele><speed>5.50</speed><time>2016-06-21T17:16:39Z</time><pdop>3.0</pdop><geoidheight>54.00</geoidheight><course>100.4</course><type>1</type></trkpt>
      <trkpt lat="39.85804317" lon="-6.47339518"><ele>991</ele><speed>6.50</speed><time>2016-06-21T17:16:40Z</time><pdop>3.0</pdop><geoidheight>54.00</geoidheight><course>117.8</course><type>1</type></trkpt>
      <trkpt lat="39.85799311" lon="-6.47334021"><ele>995</ele><speed>7.00</speed><time>2016-06-21T17:16:41Z</time><pdop>3.0</pdop><geoidheight>54.00</geoidheight><course>138.0</course><type>1</type></trkpt>
      <trkpt lat="39.85784789" lon="-6.47329533"><ele>997</ele><speed>8.75</speed><time>2016-06-21T17:16:43Z</time><pdop>3.0</pdop><geoidheight>54.00</geoidheight><course>171.2</course><type>1</type></trkpt>
      <trkpt lat="39.85775877" lon="-6.47329083"><ele>997</ele><speed>9.50</speed><time>2016-06-21T17:16:44Z</time><pdop>3.0</pdop><geoidheight>54.00</geoidheight><course>177.3</course><type>1</type></trkpt>
      <trkpt lat="39.85767455" lon="-6.47329504"><ele>998</ele><speed>9.25</speed><time>2016-06-21T17:16:45Z</time><pdop>3.0</pdop><geoidheight>54.00</geoidheight><course>182.3</course><type>1</type></trkpt>
      <trkpt lat="39.85759583" lon="-6.47330653"><ele>999</ele><speed>8.75</speed><time>2016-06-21T17:16:46Z</time><pdop>4.0</pdop><geoidheight>54.00</geoidheight><course>186.9</course><type>1</type></trkpt>
      <trkpt lat="39.85745066" lon="-6.4733828"><ele>1002</ele><speed>9.00</speed><time>2016-06-21T17:16:48Z</time><pdop>3.0</pdop><geoidheight>54.00</geoidheight><course>205.7</course><type>1</type></trkpt>
      <trkpt lat="39.85738574" lon="-6.47344515"><ele>1003</ele><speed>9.00</speed><time>2016-06-21T17:16:49Z</time><pdop>3.0</pdop><geoidheight>54.00</geoidheight><course>215.4</course><type>1</type></trkpt>
      <trkpt lat="39.85727841" lon="-6.47360601"><ele>1005</ele><speed>9.25</speed><time>2016-06-21T17:16:51Z</time><pdop>3.0</pdop><geoidheight>54.00</geoidheight><course>231.4</course><type>1</type></trkpt>
      <trkpt lat="39.85723777" lon="-6.47370845"><ele>1006</ele><speed>9.75</speed><time>2016-06-21T17:16:52Z</time><pdop>3.0</pdop><geoidheight>54.00</geoidheight><course>239.7</course><type>1</type></trkpt>
      <trkpt lat="39.85720846" lon="-6.47381783"><ele>1007</ele><speed>10.00</speed><time>2016-06-21T17:16:53Z</time><pdop>3.0</pdop><geoidheight>54.00</geoidheight><course>248.9</course><type>1</type></trkpt>
      <trkpt lat="39.85718261" lon="-6.47405449"><ele>1009</ele><speed>10.25</speed><time>2016-06-21T17:16:55Z</time><pdop>3.0</pdop><geoidheight>54.00</geoidheight><course>264.4</course><type>1</type></trkpt>
      <trkpt lat="39.85718541" lon="-6.47417181"><ele>1010</ele><speed>10.25</speed><time>2016-06-21T17:16:56Z</time><pdop>3.0</pdop><geoidheight>54.00</geoidheight><course>270.3</course><type>1</type></trkpt>
      <trkpt lat="39.85720393" lon="-6.4742882"><ele>1011</ele><speed>10.00</speed><time>2016-06-21T17:16:57Z</time><pdop>3.0</pdop><geoidheight>54.00</geoidheight><course>279.0</course><type>1</type></trkpt>
      <trkpt lat="39.8572803" lon="-6.47446772"><ele>1014</ele><speed>8.25</speed><time>2016-06-21T17:16:59Z</time><pdop>3.0</pdop><geoidheight>54.00</geoidheight><course>303.2</course><type>1</type></trkpt>
      <trkpt lat="39.85737535" lon="-6.47459589"><ele>1018</ele><speed>7.75</speed><time>2016-06-21T17:17:01Z</time><pdop>3.0</pdop><geoidheight>54.00</geoidheight><course>314.9</course><type>1</type></trkpt>
      <trkpt lat="39.85742137" lon="-6.4746544"><ele>1020</ele><speed>7.25</speed><time>2016-06-21T17:17:02Z</time><pdop>3.0</pdop><geoidheight>54.00</geoidheight><course>316.3</course><type>1</type></trkpt>
      <trkpt lat="39.8575773" lon="-6.47472028"><ele>1023</ele><speed>6.25</speed><time>2016-06-21T17:17:05Z</time><pdop>3.0</pdop><geoidheight>54.00</geoidheight><course>1.0</course><type>1</type></trkpt>
      <trkpt lat="39.85763075" lon="-6.474689"><ele>1024</ele><speed>6.50</speed><time>2016-06-21T17:17:06Z</time><pdop>3.0</pdop><geoidheight>54.00</geoidheight><course>24.3</course><type>1</type></trkpt>
      <trkpt lat="39.85767158" lon="-6.47455961"><ele>1027</ele><speed>6.00</speed><time>2016-06-21T17:17:08Z</time><pdop>3.0</pdop><geoidheight>54.00</geoidheight><course>75.5</course><type>1</type></trkpt>
      <trkpt lat="39.85762284" lon="-6.47436817"><ele>1031</ele><speed>6.00</speed><time>2016-06-21T17:17:11Z</time><pdop>3.0</pdop><geoidheight>54.00</geoidheight><course>117.5</course><type>1</type></trkpt>
      <trkpt lat="39.85758206" lon="-6.4742987"><ele>1032</ele><speed>7.25</speed><time>2016-06-21T17:17:12Z</time><pdop>3.0</pdop><geoidheight>54.00</geoidheight><course>126.3</course><type>1</type></trkpt>
      <trkpt lat="39.85753423" lon="-6.4742324"><ele>1032</ele><speed>8.00</speed><time>2016-06-21T17:17:13Z</time><pdop>3.0</pdop><geoidheight>54.00</geoidheight><course>133.3</course><type>1</type></trkpt>
      <trkpt lat="39.85747585" lon="-6.47417932"><ele>1033</ele><speed>8.00</speed><time>2016-06-21T17:17:14Z</time><pdop>4.0</pdop><geoidheight>54.00</geoidheight><course>143.4</course><type>1</type></trkpt>
      <trkpt lat="39.85734248" lon="-6.47417091"><ele>1035</ele><speed>7.50</speed><time>2016-06-21T17:17:16Z</time><pdop>3.0</pdop><geoidheight>54.00</geoidheight><course>183.3</course><type>1</type></trkpt>
      <trkpt lat="39.85728142" lon="-6.47419933"><ele>1035</ele><speed>7.25</speed><time>2016-06-21T17:17:17Z</time><pdop>3.0</pdop><geoidheight>54.00</geoidheight><course>197.7</course><type>1</type></trkpt>
      <trkpt lat="39.85721752" lon="-6.47424959"><ele>1034</ele><speed>7.75</speed><time>2016-06-21T17:17:18Z</time><pdop>3.0</pdop><geoidheight>54.00</geoidheight><course>207.3</course><type>1</type></trkpt>
      <trkpt lat="39.85715822" lon="-6.47431018"><ele>1034</ele><speed>8.25</speed><time>2016-06-21T17:17:19Z</time><pdop>3.0</pdop><geoidheight>54.00</geoidheight><course>218.7</course><type>1</type></trkpt>
      <trkpt lat="39.8571049" lon="-6.47439297"><ele>1034</ele><speed>9.25</speed><time>2016-06-21T17:17:20Z</time><pdop>3.0</pdop><geoidheight>54.00</geoidheight><course>232.0</course><type>1</type></trkpt>
      <trkpt lat="39.85708269" lon="-6.4746187"><ele>1033</ele><speed>9.75</speed><time>2016-06-21T17:17:22Z</time><pdop>3.0</pdop><geoidheight>54.00</geoidheight><course>270.2</course><type>1</type></trkpt>
      <trkpt lat="39.85711903" lon="-6.47473202"><ele>1033</ele><speed>10.25</speed><time>2016-06-21T17:17:23Z</time><pdop>3.0</pdop><geoidheight>54.00</geoidheight><course>290.5</course><type>1</type></trkpt>
      <trkpt lat="39.85717608" lon="-6.47482827"><ele>1034</ele><speed>10.50</speed><time>2016-06-21T17:17:24Z</time><pdop>3.0</pdop><geoidheight>54.00</geoidheight><course>306.3</course><type>1</type></trkpt>
      <trkpt lat="39.85724927" lon="-6.47489802"><ele>1035</ele><speed>10.00</speed><time>2016-06-21T17:17:25Z</time><pdop>3.0</pdop><geoidheight>54.00</geoidheight><course>320.6</course><type>1</type></trkpt>
      <trkpt lat="39.85738822" lon="-6.47499677"><ele>1038</ele><speed>8.50</speed><time>2016-06-21T17:17:27Z</time><pdop>3.0</pdop><geoidheight>54.00</geoidheight><course>332.4</course><type>1</type></trkpt>
      <trkpt lat="39.85745018" lon="-6.47503777"><ele>1039</ele><speed>8.00</speed><time>2016-06-21T17:17:28Z</time><pdop>3.0</pdop><geoidheight>54.00</geoidheight><course>333.7</course><type>1</type></trkpt>
      <trkpt lat="39.85751367" lon="-6.47507497"><ele>1040</ele><speed>8.00</speed><time>2016-06-21T17:17:29Z</time><pdop>3.0</pdop><geoidheight>54.00</geoidheight><course>335.5</course><type>1</type></trkpt>
      <trkpt lat="39.85765882" lon="-6.47512935"><ele>1041</ele><speed>8.50</speed><time>2016-06-21T17:17:31Z</time><pdop>3.0</pdop><geoidheight>54.00</geoidheight><course>344.3</course><type>1</type></trkpt>
      <trkpt lat="39.85773097" lon="-6.47514367"><ele>1043</ele><speed>8.00</speed><time>2016-06-21T17:17:32Z</time><pdop>3.0</pdop><geoidheight>54.00</geoidheight><course>350.6</course><type>1</type></trkpt>
      <trkpt lat="39.85779383" lon="-6.47514238"><ele>1045</ele><speed>7.25</speed><time>2016-06-21T17:17:33Z</time><pdop>3.0</pdop><geoidheight>54.00</geoidheight><course>0.3</course><type>1</type></trkpt>
      <trkpt lat="39.85788276" lon="-6.4751007"><ele>1044</ele><speed>5.00</speed><time>2016-06-21T17:17:35Z</time><pdop>3.0</pdop><geoidheight>54.00</geoidheight><course>26.1</course><type>1</type></trkpt>
      <trkpt lat="39.85790688" lon="-6.47503413"><ele>1043</ele><speed>3.00</speed><time>2016-06-21T17:17:37Z</time><pdop>3.0</pdop><geoidheight>54.00</geoidheight><course>77.3</course><type>1</type></trkpt>
      <trkpt lat="39.8578497" lon="-6.47497455"><ele>1039</ele><speed>4.75</speed><time>2016-06-21T17:17:39Z</time><pdop>3.0</pdop><geoidheight>54.00</geoidheight><course>149.5</course><type>1</type></trkpt>
      <trkpt lat="39.85779148" lon="-6.47496452"><ele>1037</ele><speed>6.50</speed><time>2016-06-21T17:17:40Z</time><pdop>3.0</pdop><geoidheight>54.00</geoidheight><course>171.8</course><type>1</type></trkpt>
      <trkpt lat="39.85771509" lon="-6.47498816"><ele>1037</ele><speed>8.25</speed><time>2016-06-21T17:17:41Z</time><pdop>3.0</pdop><geoidheight>54.00</geoidheight><course>191.9</course><type>1</type></trkpt>
      <trkpt lat="39.85756148" lon="-6.47511083"><ele>1038</ele><speed>10.25</speed><time>2016-06-21T17:17:43Z</time><pdop>3.0</pdop><geoidheight>54.00</geoidheight><course>217.5</course><type>1</type></trkpt>
      <trkpt lat="39.85749936" lon="-6.47519184"><ele>1038</ele><speed>9.50</speed><time>2016-06-21T17:17:44Z</time><pdop>3.0</pdop><geoidheight>54.00</geoidheight><course>224.0</course><type>1</type></trkpt>
      <trkpt lat="39.85744253" lon="-6.47526099"><ele>1038</ele><speed>8.75</speed><time>2016-06-21T17:17:45Z</time><pdop>4.0</pdop><geoidheight>54.00</geoidheight><course>223.7</course><type>1</type></trkpt>
      <trkpt lat="39.85733774" lon="-6.47542047"><ele>1039</ele><speed>9.00</speed><time>2016-06-21T17:17:47Z</time><pdop>3.0</pdop><geoidheight>54.00</geoidheight><course>231.3</course><type>1</type></trkpt>
      <trkpt lat="39.85730344" lon="-6.47551588"><ele>1039</ele><speed>9.50</speed><time>2016-06-21T17:17:48Z</time><pdop>3.0</pdop><geoidheight>54.00</geoidheight><course>242.7</course><type>1</type></trkpt>
      <trkpt lat="39.85727995" lon="-6.47562745"><ele>1039</ele><speed>9.75</speed><time>2016-06-21T17:17:49Z</time><pdop>3.0</pdop><geoidheight>54.00</geoidheight><course>254.3</course><type>1</type></trkpt>
      <trkpt lat="39.8572739" lon="-6.47588046"><ele>1039</ele><speed>11.25</speed><time>2016-06-21T17:17:51Z</time><pdop>3.0</pdop><geoidheight>54.00</geoidheight><course>270.0</course><type>1</type></trkpt>
      <trkpt lat="39.85729604" lon="-6.47601398"><ele>1040</ele><speed>11.50</speed><time>2016-06-21T17:17:52Z</time><pdop>3.0</pdop><geoidheight>54.00</geoidheight><course>278.9</course><type>1</type></trkpt>
      <trkpt lat="39.85732301" lon="-6.47614476"><ele>1041</ele><speed>11.75</speed><time>2016-06-21T17:17:53Z</time><pdop>4.0</pdop><geoidheight>54.00</geoidheight><course>284.3</course><type>1</type></trkpt>
      <trkpt lat="39.85744658" lon="-6.47635329"><ele>1044</ele><speed>11.00</speed><time>2016-06-21T17:17:55Z</time><pdop>3.0</pdop><geoidheight>54.00</geoidheight><course>307.2</course><type>1</type></trkpt>
      <trkpt lat="39.85750979" lon="-6.47644033"><ele>1046</ele><speed>10.25</speed><time>2016-06-21T17:17:56Z</time><pdop>3.0</pdop><geoidheight>54.00</geoidheight><course>311.8</course><type>1</type></trkpt>
      <trkpt lat="39.85756733" lon="-6.47651996"><ele>1047</ele><speed>9.25</speed><time>2016-06-21T17:17:57Z</time><pdop>3.0</pdop><geoidheight>54.00</geoidheight><course>313.4</course><type>1</type></trkpt>
      <trkpt lat="39.85768254" lon="-6.47666303"><ele>1048</ele><speed>8.75</speed><time>2016-06-21T17:17:59Z</time><pdop>4.0</pdop><geoidheight>54.00</geoidheight><course>317.3</course><type>1</type></trkpt>
      <trkpt lat="39.85774744" lon="-6.47672396"><ele>1049</ele><speed>8.75</speed><time>2016-06-21T17:18:00Z</time><pdop>3.0</pdop><geoidheight>54.00</geoidheight><course>323.1</course><type>1</type></trkpt>
      <trkpt lat="39.85786778" lon="-6.47679271"><ele>1049</ele><speed>6.75</speed><time>2016-06-21T17:18:02Z</time><pdop>3.0</pdop><geoidheight>54.00</geoidheight><course>336.2</course><type>1</type></trkpt>
      <trkpt lat="39.85794137" lon="-6.47680139"><ele>1048</ele><speed>3.75</speed><time>2016-06-21T17:18:04Z</time><pdop>3.0</pdop><geoidheight>54.00</geoidheight><course>6.5</course><type>1</type></trkpt>
      <trkpt lat="39.85793689" lon="-6.47669989"><ele>1044</ele><speed>4.00</speed><time>2016-06-21T17:18:07Z</time><pdop>3.0</pdop><geoidheight>54.00</geoidheight><course>117.3</course><type>1</type></trkpt>
      <trkpt lat="39.85774727" lon="-6.4766933"><ele>1043</ele><speed>8.75</speed><time>2016-06-21T17:18:10Z</time><pdop>3.0</pdop><geoidheight>54.00</geoidheight><course>190.8</course><type>1</type></trkpt>
      <trkpt lat="39.85766647" lon="-6.47671662"><ele>1042</ele><speed>9.25</speed><time>2016-06-21T17:18:11Z</time><pdop>4.0</pdop><geoidheight>54.00</geoidheight><course>193.0</course><type>1</type></trkpt>
      <trkpt lat="39.85756605" lon="-6.4767977"><ele>1042</ele><speed>12.00</speed><time>2016-06-21T17:18:12Z</time><pdop>4.0</pdop><geoidheight>54.00</geoidheight><course>207.2</course><type>1</type></trkpt>
      <trkpt lat="39.85746608" lon="-6.47689667"><ele>1042</ele><speed>13.25</speed><time>2016-06-21T17:18:13Z</time><pdop>4.0</pdop><geoidheight>54.00</geoidheight><course>216.1</course><type>1</type></trkpt>
      <trkpt lat="39.85737837" lon="-6.47702229"><ele>1043</ele><speed>14.00</speed><time>2016-06-21T17:18:14Z</time><pdop>3.0</pdop><geoidheight>54.00</geoidheight><course>226.5</course><type>1</type></trkpt>
      <trkpt lat="39.85724763" lon="-6.47729302"><ele>1046</ele><speed>13.25</speed><time>2016-06-21T17:18:16Z</time><pdop>3.0</pdop><geoidheight>54.00</geoidheight><course>240.1</course><type>1</type></trkpt>
      <trkpt lat="39.8571938" lon="-6.47742246"><ele>1047</ele><speed>12.75</speed><time>2016-06-21T17:18:17Z</time><pdop>3.0</pdop><geoidheight>54.00</geoidheight><course>240.9</course><type>1</type></trkpt>
      <trkpt lat="39.85713218" lon="-6.47754526"><ele>1048</ele><speed>12.50</speed><time>2016-06-21T17:18:18Z</time><pdop>3.0</pdop><geoidheight>54.00</geoidheight><course>238.1</course><type>1</type></trkpt>
      <trkpt lat="39.85706249" lon="-6.47765358"><ele>1048</ele><speed>12.25</speed><time>2016-06-21T17:18:19Z</time><pdop>3.0</pdop><geoidheight>54.00</geoidheight><course>231.2</course><type>1</type></trkpt>
      <trkpt lat="39.85689273" lon="-6.47779342"><ele>1048</ele><speed>11.25</speed><time>2016-06-21T17:18:21Z</time><pdop>3.0</pdop><geoidheight>54.00</geoidheight><course>207.1</course><type>1</type></trkpt>
      <trkpt lat="39.85680597" lon="-6.47781481"><ele>1049</ele><speed>9.75</speed><time>2016-06-21T17:18:22Z</time><pdop>3.0</pdop><geoidheight>54.00</geoidheight><course>191.5</course><type>1</type></trkpt>
      <trkpt lat="39.85667219" lon="-6.47776891"><ele>1051</ele><speed>7.00</speed><time>2016-06-21T17:18:24Z</time><pdop>3.0</pdop><geoidheight>54.00</geoidheight><course>158.2</course><type>1</type></trkpt>
      <trkpt lat="39.85662728" lon="-6.47772579"><ele>1051</ele><speed>6.25</speed><time>2016-06-21T17:18:25Z</time><pdop>3.0</pdop><geoidheight>54.00</geoidheight><course>146.6</course><type>1</type></trkpt>
      <trkpt lat="39.85657567" lon="-6.47752979"><ele>1054</ele><speed>5.75</speed><time>2016-06-21T17:18:28Z</time><pdop>4.0</pdop><geoidheight>54.00</geoidheight><course>104.0</course><type>1</type></trkpt>
      <trkpt lat="39.8566277" lon="-6.47747391"><ele>1054</ele><speed>6.00</speed><time>2016-06-21T17:18:29Z</time><pdop>3.0</pdop><geoidheight>54.00</geoidheight><course>59.9</course><type>1</type></trkpt>
      <trkpt lat="39.85673339" lon="-6.47740628"><ele>1052</ele><speed>7.00</speed><time>2016-06-21T17:18:31Z</time><pdop>3.0</pdop><geoidheight>54.00</geoidheight><course>21.7</course><type>1</type></trkpt>
      <trkpt lat="39.8568938" lon="-6.4773711"><ele>1051</ele><speed>9.50</speed><time>2016-06-21T17:18:33Z</time><pdop>3.0</pdop><geoidheight>54.00</geoidheight><course>6.1</course><type>1</type></trkpt>
      <trkpt lat="39.85708946" lon="-6.47737765"><ele>1050</ele><speed>11.00</speed><time>2016-06-21T17:18:35Z</time><pdop>3.0</pdop><geoidheight>54.00</geoidheight><course>356.4</course><type>1</type></trkpt>
      <trkpt lat="39.85719492" lon="-6.47738863"><ele>1052</ele><speed>11.50</speed><time>2016-06-21T17:18:36Z</time><pdop>3.0</pdop><geoidheight>54.00</geoidheight><course>354.2</course><type>1</type></trkpt>
      <trkpt lat="39.85729298" lon="-6.47740878"><ele>1054</ele><speed>10.75</speed><time>2016-06-21T17:18:37Z</time><pdop>4.0</pdop><geoidheight>54.00</geoidheight><course>350.9</course><type>1</type></trkpt>
      <trkpt lat="39.85737835" lon="-6.47743212"><ele>1056</ele><speed>10.00</speed><time>2016-06-21T17:18:38Z</time><pdop>4.0</pdop><geoidheight>54.00</geoidheight><course>348.9</course><type>1</type></trkpt>
      <trkpt lat="39.85745833" lon="-6.47745814"><ele>1056</ele><speed>9.25</speed><time>2016-06-21T17:18:39Z</time><pdop>3.0</pdop><geoidheight>54.00</geoidheight><course>345.7</course><type>1</type></trkpt>
      <trkpt lat="39.85759921" lon="-6.47752488"><ele>1055</ele><speed>8.00</speed><time>2016-06-21T17:18:41Z</time><pdop>3.0</pdop><geoidheight>54.00</geoidheight><course>340.6</course><type>1</type></trkpt>
      <trkpt lat="39.85765989" lon="-6.47753774"><ele>1054</ele><speed>6.75</speed><time>2016-06-21T17:18:42Z</time><pdop>3.0</pdop><geoidheight>54.00</geoidheight><course>348.3</course><type>1</type></trkpt>
      <trkpt lat="39.85771319" lon="-6.47742217"><ele>1048</ele><speed>4.50</speed><time>2016-06-21T17:18:45Z</time><pdop>3.0</pdop><geoidheight>54.00</geoidheight><course>107.0</course><type>1</type></trkpt>
      <trkpt lat="39.85760859" lon="-6.47737567"><ele>1047</ele><speed>6.50</speed><time>2016-06-21T17:18:47Z</time><pdop>4.0</pdop><geoidheight>54.00</geoidheight><course>168.5</course><type>1</type></trkpt>
      <trkpt lat="39.85744461" lon="-6.47739993"><ele>1045</ele><speed>6.50</speed><time>2016-06-21T17:18:50Z</time><pdop>3.0</pdop><geoidheight>54.00</geoidheight><course>188.2</course><type>1</type></trkpt>
      <trkpt lat="39.85730883" lon="-6.47743273"><ele>1043</ele><speed>7.50</speed><time>2016-06-21T17:18:52Z</time><pdop>5.0</pdop><geoidheight>54.00</geoidheight><course>190.8</course><type>1</type></trkpt>
      <trkpt lat="39.85723131" lon="-6.47750829"><ele>1043</ele><speed>9.25</speed><time>2016-06-21T17:18:53Z</time><pdop>3.0</pdop><geoidheight>54.00</geoidheight><course>211.2</course><type>1</type></trkpt>
      <trkpt lat="39.85716442" lon="-6.47760619"><ele>1042</ele><speed>10.75</speed><time>2016-06-21T17:18:54Z</time><pdop>4.0</pdop><geoidheight>54.00</geoidheight><course>226.2</course><type>1</type></trkpt>
      <trkpt lat="39.8570534" lon="-6.47785272"><ele>1041</ele><speed>12.00</speed><time>2016-06-21T17:18:56Z</time><pdop>4.0</pdop><geoidheight>54.00</geoidheight><course>238.6</course><type>1</type></trkpt>
      <trkpt lat="39.85706888" lon="-6.47802649"><ele>1042</ele><speed>12.75</speed><time>2016-06-21T17:18:57Z</time><pdop>3.0</pdop><geoidheight>54.00</geoidheight><course>265.9</course><type>1</type></trkpt>
      <trkpt lat="39.85711843" lon="-6.4783279"><ele>1070</ele><speed>13.00</speed><time>2016-06-21T17:18:59Z</time><pdop>4.0</pdop><geoidheight>54.00</geoidheight><course>281.3</course><type>1</type></trkpt>
      <trkpt lat="39.85719589" lon="-6.47844994"><ele>1059</ele><speed>12.50</speed><time>2016-06-21T17:19:00Z</time><pdop>4.0</pdop><geoidheight>54.00</geoidheight><course>297.8</course><type>1</type></trkpt>
      <trkpt lat="39.8573774" lon="-6.47853394"><ele>1053</ele><speed>9.25</speed><time>2016-06-21T17:19:02Z</time><pdop>3.0</pdop><geoidheight>54.00</geoidheight><course>325.2</course><type>1</type></trkpt>
      <trkpt lat="39.8574334" lon="-6.47860805"><ele>1051</ele><speed>8.75</speed><time>2016-06-21T17:19:03Z</time><pdop>3.0</pdop><geoidheight>54.00</geoidheight><course>316.5</course><type>1</type></trkpt>
      <trkpt lat="39.85754176" lon="-6.47877101"><ele>1045</ele><speed>9.75</speed><time>2016-06-21T17:19:05Z</time><pdop>3.0</pdop><geoidheight>54.00</geoidheight><course>309.1</course><type>1</type></trkpt>
      <trkpt lat="39.85760626" lon="-6.4788552"><ele>1042</ele><speed>10.00</speed><time>2016-06-21T17:19:06Z</time><pdop>3.0</pdop><geoidheight>54.00</geoidheight><course>314.3</course><type>1</type></trkpt>
      <trkpt lat="39.85767497" lon="-6.47893032"><ele>1039</ele><speed>10.00</speed><time>2016-06-21T17:19:07Z</time><pdop>4.0</pdop><geoidheight>54.00</geoidheight><course>319.4</course><type>1</type></trkpt>
      <trkpt lat="39.85781842" lon="-6.47906301"><ele>1036</ele><speed>9.75</speed><time>2016-06-21T17:19:09Z</time><pdop>4.0</pdop><geoidheight>54.00</geoidheight><course>324.0</course><type>1</type></trkpt>
      <trkpt lat="39.8579304" lon="-6.47917421"><ele>1038</ele><speed>8.00</speed><time>2016-06-21T17:19:11Z</time><pdop>4.0</pdop><geoidheight>54.00</geoidheight><course>324.7</course><type>1</type></trkpt>
      <trkpt lat="39.85805862" lon="-6.47923617"><ele>1037</ele><speed>7.75</speed><time>2016-06-21T17:19:13Z</time><pdop>3.0</pdop><geoidheight>54.00</geoidheight><course>341.0</course><type>1</type></trkpt>
      <trkpt lat="39.8581342" lon="-6.47925932"><ele>1036</ele><speed>8.50</speed><time>2016-06-21T17:19:14Z</time><pdop>3.0</pdop><geoidheight>54.00</geoidheight><course>345.7</course><type>1</type></trkpt>
      <trkpt lat="39.85821222" lon="-6.47928543"><ele>1037</ele><speed>8.75</speed><time>2016-06-21T17:19:15Z</time><pdop>3.0</pdop><geoidheight>54.00</geoidheight><course>347.0</course><type>1</type></trkpt>
      <trkpt lat="39.8582915" lon="-6.47930668"><ele>1039</ele><speed>9.00</speed><time>2016-06-21T17:19:16Z</time><pdop>3.0</pdop><geoidheight>54.00</geoidheight><course>347.7</course><type>1</type></trkpt>
      <trkpt lat="39.858433" lon="-6.47933771"><ele>1042</ele><speed>7.75</speed><time>2016-06-21T17:19:18Z</time><pdop>4.0</pdop><geoidheight>54.00</geoidheight><course>348.2</course><type>1</type></trkpt>
      <trkpt lat="39.85854399" lon="-6.47936859"><ele>1046</ele><speed>6.00</speed><time>2016-06-21T17:19:20Z</time><pdop>3.0</pdop><geoidheight>54.00</geoidheight><course>346.4</course><type>1</type></trkpt>
      <trkpt lat="39.85860936" lon="-6.47935572"><ele>1047</ele><speed>3.25</speed><time>2016-06-21T17:19:22Z</time><pdop>3.0</pdop><geoidheight>54.00</geoidheight><course>20.6</course><type>1</type></trkpt>
      <trkpt lat="39.85846952" lon="-6.47919852"><ele>1048</ele><speed>8.00</speed><time>2016-06-21T17:19:27Z</time><pdop>4.0</pdop><geoidheight>54.00</geoidheight><course>162.8</course><type>1</type></trkpt>
      <trkpt lat="39.85839052" lon="-6.47919597"><ele>1049</ele><speed>8.75</speed><time>2016-06-21T17:19:28Z</time><pdop>4.0</pdop><geoidheight>54.00</geoidheight><course>176.1</course><type>1</type></trkpt>
      <trkpt lat="39.85830786" lon="-6.47921192"><ele>1050</ele><speed>9.00</speed><time>2016-06-21T17:19:29Z</time><pdop>3.0</pdop><geoidheight>54.00</geoidheight><course>186.7</course><type>1</type></trkpt>
      <trkpt lat="39.85816976" lon="-6.47924756"><ele>1102</ele><speed>8.25</speed><time>2016-06-21T17:19:31Z</time><pdop>5.0</pdop><geoidheight>54.00</geoidheight><course>191.5</course><type>1</type></trkpt>
      <trkpt lat="39.85795092" lon="-6.47936134"><ele>1060</ele><speed>10.00</speed><time>2016-06-21T17:19:34Z</time><pdop>3.0</pdop><geoidheight>54.00</geoidheight><course>206.9</course><type>1</type></trkpt>
      <trkpt lat="39.85779438" lon="-6.47952055"><ele>1056</ele><speed>11.00</speed><time>2016-06-21T17:19:36Z</time><pdop>5.0</pdop><geoidheight>54.00</geoidheight><course>217.9</course><type>1</type></trkpt>
      <trkpt lat="39.85778846" lon="-6.47968747"><ele>1051</ele><speed>11.75</speed><time>2016-06-21T17:19:37Z</time><pdop>3.0</pdop><geoidheight>54.00</geoidheight><course>252.2</course><type>1</type></trkpt>
      <trkpt lat="39.85775574" lon="-6.4798195"><ele>1050</ele><speed>11.75</speed><time>2016-06-21T17:19:38Z</time><pdop>4.0</pdop><geoidheight>54.00</geoidheight><course>252.2</course><type>1</type></trkpt>
      <trkpt lat="39.85781105" lon="-6.47998703"><ele>1047</ele><speed>13.00</speed><time>2016-06-21T17:19:39Z</time><pdop>3.0</pdop><geoidheight>54.00</geoidheight><course>279.1</course><type>1</type></trkpt>
      <trkpt lat="39.85791349" lon="-6.48023382"><ele>1047</ele><speed>11.75</speed><time>2016-06-21T17:19:41Z</time><pdop>3.0</pdop><geoidheight>54.00</geoidheight><course>303.8</course><type>1</type></trkpt>
      <trkpt lat="39.85804452" lon="-6.48038992"><ele>1049</ele><speed>9.50</speed><time>2016-06-21T17:19:43Z</time><pdop>3.0</pdop><geoidheight>54.00</geoidheight><course>319.6</course><type>1</type></trkpt>
      <trkpt lat="39.85817266" lon="-6.48051204"><ele>1050</ele><speed>8.75</speed><time>2016-06-21T17:19:45Z</time><pdop>3.0</pdop><geoidheight>54.00</geoidheight><course>324.3</course><type>1</type></trkpt>
      <trkpt lat="39.85830867" lon="-6.48062266"><ele>1050</ele><speed>9.00</speed><time>2016-06-21T17:19:47Z</time><pdop>3.0</pdop><geoidheight>54.00</geoidheight><course>329.1</course><type>1</type></trkpt>
      <trkpt lat="39.85843399" lon="-6.48070907"><ele>1052</ele><speed>7.50</speed><time>2016-06-21T17:19:49Z</time><pdop>3.0</pdop><geoidheight>54.00</geoidheight><course>332.4</course><type>1</type></trkpt>
      <trkpt lat="39.85848536" lon="-6.48073883"><ele>1052</ele><speed>6.50</speed><time>2016-06-21T17:19:50Z</time><pdop>3.0</pdop><geoidheight>54.00</geoidheight><course>334.0</course><type>1</type></trkpt>
      <trkpt lat="39.85857848" lon="-6.48076386"><ele>1052</ele><speed>5.25</speed><time>2016-06-21T17:19:52Z</time><pdop>4.0</pdop><geoidheight>54.00</geoidheight><course>351.1</course><type>1</type></trkpt>
      <trkpt lat="39.85867001" lon="-6.4806787"><ele>1052</ele><speed>4.25</speed><time>2016-06-21T17:19:55Z</time><pdop>3.0</pdop><geoidheight>54.00</geoidheight><course>63.7</course><type>1</type></trkpt>
      <trkpt lat="39.85858367" lon="-6.48055558"><ele>1064</ele><speed>6.00</speed><time>2016-06-21T17:19:58Z</time><pdop>3.0</pdop><geoidheight>54.00</geoidheight><course>154.2</course><type>1</type></trkpt>
      <trkpt lat="39.85851796" lon="-6.48055055"><ele>1061</ele><speed>6.50</speed><time>2016-06-21T17:19:59Z</time><pdop>4.0</pdop><geoidheight>54.00</geoidheight><course>173.6</course><type>1</type></trkpt>
      <trkpt lat="39.85837255" lon="-6.48064776"><ele>1058</ele><speed>9.25</speed><time>2016-06-21T17:20:01Z</time><pdop>4.0</pdop><geoidheight>54.00</geoidheight><course>208.9</course><type>1</type></trkpt>
      <trkpt lat="39.85829436" lon="-6.48072374"><ele>1057</ele><speed>10.50</speed><time>2016-06-21T17:20:02Z</time><pdop>3.0</pdop><geoidheight>54.00</geoidheight><course>216.8</course><type>1</type></trkpt>
      <trkpt lat="39.85822322" lon="-6.48081782"><ele>1056</ele><speed>11.25</speed><time>2016-06-21T17:20:03Z</time><pdop>3.0</pdop><geoidheight>54.00</geoidheight><course>223.9</course><type>1</type></trkpt>
      <trkpt lat="39.85809475" lon="-6.48107311"><ele>1054</ele><speed>13.50</speed><time>2016-06-21T17:20:05Z</time><pdop>3.0</pdop><geoidheight>54.00</geoidheight><course>240.9</course><type>1</type></trkpt>
      <trkpt lat="39.85805609" lon="-6.48123962"><ele>1053</ele><speed>14.50</speed><time>2016-06-21T17:20:06Z</time><pdop>3.0</pdop><geoidheight>54.00</geoidheight><course>250.6</course><type>1</type></trkpt>
      <trkpt lat="39.85801245" lon="-6.48158474"><ele>1054</ele><speed>15.00</speed><time>2016-06-21T17:20:08Z</time><pdop>5.0</pdop><geoidheight>54.00</geoidheight><course>260.4</course><type>1</type></trkpt>
      <trkpt lat="39.85806976" lon="-6.48173563"><ele>1055</ele><speed>13.75</speed><time>2016-06-21T17:20:09Z</time><pdop>3.0</pdop><geoidheight>54.00</geoidheight><course>282.1</course><type>1</type></trkpt>
      <trkpt lat="39.85810965" lon="-6.48187452"><ele>1055</ele><speed>12.75</speed><time>2016-06-21T17:20:10Z</time><pdop>3.0</pdop><geoidheight>54.00</geoidheight><course>290.0</course><type>1</type></trkpt>
      <trkpt lat="39.85819974" lon="-6.48212601"><ele>1056</ele><speed>11.50</speed><time>2016-06-21T17:20:12Z</time><pdop>3.0</pdop><geoidheight>54.00</geoidheight><course>294.2</course><type>1</type></trkpt>
      <trkpt lat="39.85824593" lon="-6.4822503"><ele>1056</ele><speed>11.75</speed><time>2016-06-21T17:20:13Z</time><pdop>3.0</pdop><geoidheight>54.00</geoidheight><course>296.8</course><type>1</type></trkpt>
      <trkpt lat="39.85830335" lon="-6.48236247"><ele>1056</ele><speed>11.50</speed><time>2016-06-21T17:20:14Z</time><pdop>4.0</pdop><geoidheight>54.00</geoidheight><course>302.6</course><type>1</type></trkpt>
      <trkpt lat="39.85844608" lon="-6.48253316"><ele>1057</ele><speed>10.75</speed><time>2016-06-21T17:20:16Z</time><pdop>3.0</pdop><geoidheight>54.00</geoidheight><course>319.6</course><type>1</type></trkpt>
      <trkpt lat="39.85859494" lon="-6.4826991"><ele>1057</ele><speed>11.00</speed><time>2016-06-21T17:20:18Z</time><pdop>5.0</pdop><geoidheight>54.00</geoidheight><course>319.4</course><type>1</type></trkpt>
      <trkpt lat="39.85866161" lon="-6.48279976"><ele>1059</ele><speed>11.25</speed><time>2016-06-21T17:20:19Z</time><pdop>4.0</pdop><geoidheight>54.00</geoidheight><course>315.8</course><type>1</type></trkpt>
      <trkpt lat="39.85879252" lon="-6.48295378"><ele>1060</ele><speed>9.50</speed><time>2016-06-21T17:20:21Z</time><pdop>3.0</pdop><geoidheight>54.00</geoidheight><course>321.5</course><type>1</type></trkpt>
      <trkpt lat="39.85886332" lon="-6.48300539"><ele>1059</ele><speed>9.00</speed><time>2016-06-21T17:20:22Z</time><pdop>3.0</pdop><geoidheight>54.00</geoidheight><course>328.0</course><type>1</type></trkpt>
      <trkpt lat="39.85893347" lon="-6.48304963"><ele>1061</ele><speed>8.75</speed><time>2016-06-21T17:20:23Z</time><pdop>3.0</pdop><geoidheight>54.00</geoidheight><course>334.9</course><type>1</type></trkpt>
      <trkpt lat="39.859063" lon="-6.48307156"><ele>1063</ele><speed>6.75</speed><time>2016-06-21T17:20:25Z</time><pdop>3.0</pdop><geoidheight>54.00</geoidheight><course>355.5</course><type>1</type></trkpt>
      <trkpt lat="39.85911923" lon="-6.48307054"><ele>1065</ele><speed>6.25</speed><time>2016-06-21T17:20:26Z</time><pdop>3.0</pdop><geoidheight>54.00</geoidheight><course>0.5</course><type>1</type></trkpt>
      <trkpt lat="39.85931299" lon="-6.4830911"><ele>1069</ele><speed>7.75</speed><time>2016-06-21T17:20:29Z</time><pdop>3.0</pdop><geoidheight>54.00</geoidheight><course>351.3</course><type>1</type></trkpt>
      <trkpt lat="39.85937363" lon="-6.4831092"><ele>1071</ele><speed>7.00</speed><time>2016-06-21T17:20:30Z</time><pdop>3.0</pdop><geoidheight>54.00</geoidheight><course>347.4</course><type>1</type></trkpt>
      <trkpt lat="39.85943329" lon="-6.48311994"><ele>1072</ele><speed>6.50</speed><time>2016-06-21T17:20:31Z</time><pdop>3.0</pdop><geoidheight>54.00</geoidheight><course>349.9</course><type>1</type></trkpt>
      <trkpt lat="39.85951984" lon="-6.4830992"><ele>1075</ele><speed>4.75</speed><time>2016-06-21T17:20:33Z</time><pdop>3.0</pdop><geoidheight>54.00</geoidheight><course>20.3</course><type>1</type></trkpt>
      <trkpt lat="39.85954195" lon="-6.4829971"><ele>1075</ele><speed>4.75</speed><time>2016-06-21T17:20:35Z</time><pdop>4.0</pdop><geoidheight>54.00</geoidheight><course>84.3</course><type>1</type></trkpt>
      <trkpt lat="39.85931912" lon="-6.48297047"><ele>1078</ele><speed>8.75</speed><time>2016-06-21T17:20:39Z</time><pdop>3.0</pdop><geoidheight>54.00</geoidheight><course>197.1</course><type>1</type></trkpt>
      <trkpt lat="39.85925169" lon="-6.48301645"><ele>1080</ele><speed>9.75</speed><time>2016-06-21T17:20:40Z</time><pdop>3.0</pdop><geoidheight>54.00</geoidheight><course>211.0</course><type>1</type></trkpt>
      <trkpt lat="39.85910217" lon="-6.48320664"><ele>1083</ele><speed>11.50</speed><time>2016-06-21T17:20:42Z</time><pdop>3.0</pdop><geoidheight>54.00</geoidheight><course>226.4</course><type>1</type></trkpt>
      <trkpt lat="39.85903503" lon="-6.48332247"><ele>1084</ele><speed>12.00</speed><time>2016-06-21T17:20:43Z</time><pdop>3.0</pdop><geoidheight>54.00</geoidheight><course>234.7</course><type>1</type></trkpt>
      <trkpt lat="39.85897862" lon="-6.48359863"><ele>1087</ele><speed>12.25</speed><time>2016-06-21T17:20:45Z</time><pdop>3.0</pdop><geoidheight>54.00</geoidheight><course>258.6</course><type>1</type></trkpt>
      <trkpt lat="39.85898207" lon="-6.48373694"><ele>1088</ele><speed>12.25</speed><time>2016-06-21T17:20:46Z</time><pdop>3.0</pdop><geoidheight>54.00</geoidheight><course>272.1</course><type>1</type></trkpt>
      <trkpt lat="39.85906399" lon="-6.48397195"><ele>1091</ele><speed>11.00</speed><time>2016-06-21T17:20:48Z</time><pdop>3.0</pdop><geoidheight>54.00</geoidheight><course>300.2</course><type>1</type></trkpt>
      <trkpt lat="39.8591273" lon="-6.48404972"><ele>1093</ele><speed>10.00</speed><time>2016-06-21T17:20:49Z</time><pdop>3.0</pdop><geoidheight>54.00</geoidheight><course>315.7</course><type>1</type></trkpt>
      <trkpt lat="39.85919284" lon="-6.48409486"><ele>1095</ele><speed>8.75</speed><time>2016-06-21T17:20:50Z</time><pdop>3.0</pdop><geoidheight>54.00</geoidheight><course>332.1</course><type>1</type></trkpt>
      <trkpt lat="39.85932125" lon="-6.4841273"><ele>1099</ele><speed>7.50</speed><time>2016-06-21T17:20:52Z</time><pdop>4.0</pdop><geoidheight>54.00</geoidheight><course>347.1</course><type>1</type></trkpt>
      <trkpt lat="39.85939248" lon="-6.48405676"><ele>1101</ele><speed>5.25</speed><time>2016-06-21T17:20:54Z</time><pdop>4.0</pdop><geoidheight>54.00</geoidheight><course>36.7</course><type>1</type></trkpt>
      <trkpt lat="39.85938536" lon="-6.48393457"><ele>1102</ele><speed>5.50</speed><time>2016-06-21T17:20:56Z</time><pdop>3.0</pdop><geoidheight>54.00</geoidheight><course>100.6</course><type>1</type></trkpt>
      <trkpt lat="39.859356149999996" lon="-6.48387387"><ele>1103</ele><speed>6.00</speed><time>2016-06-21T17:20:57Z</time><pdop>3.0</pdop><geoidheight>54.00</geoidheight><course>120.1</course><type>1</type></trkpt>
      <trkpt lat="39.85918574" lon="-6.48378783"><ele>1108</ele><speed>7.75</speed><time>2016-06-21T17:21:00Z</time><pdop>3.0</pdop><geoidheight>54.00</geoidheight><course>171.5</course><type>1</type></trkpt>
      <trkpt lat="39.85910869" lon="-6.48379474"><ele>1110</ele><speed>8.75</speed><time>2016-06-21T17:21:01Z</time><pdop>3.0</pdop><geoidheight>54.00</geoidheight><course>183.3</course><type>1</type></trkpt>
      <trkpt lat="39.85902603" lon="-6.48382566"><ele>1112</ele><speed>9.75</speed><time>2016-06-21T17:21:02Z</time><pdop>3.0</pdop><geoidheight>54.00</geoidheight><course>196.5</course><type>1</type></trkpt>
      <trkpt lat="39.85887971" lon="-6.48397385"><ele>1116</ele><speed>10.25</speed><time>2016-06-21T17:21:04Z</time><pdop>3.0</pdop><geoidheight>54.00</geoidheight><course>222.8</course><type>1</type></trkpt>
      <trkpt lat="39.85882591" lon="-6.48408004"><ele>1117</ele><speed>10.75</speed><time>2016-06-21T17:21:05Z</time><pdop>3.0</pdop><geoidheight>54.00</geoidheight><course>234.9</course><type>1</type></trkpt>
      <trkpt lat="39.85878609" lon="-6.48420925"><ele>1117</ele><speed>11.50</speed><time>2016-06-21T17:21:06Z</time><pdop>3.0</pdop><geoidheight>54.00</geoidheight><course>245.9</course><type>1</type></trkpt>
      <trkpt lat="39.85876106" lon="-6.48449545"><ele>1119</ele><speed>12.25</speed><time>2016-06-21T17:21:08Z</time><pdop>3.0</pdop><geoidheight>54.00</geoidheight><course>267.5</course><type>1</type></trkpt>
      <trkpt lat="39.85878957" lon="-6.48463122"><ele>1121</ele><speed>12.00</speed><time>2016-06-21T17:21:09Z</time><pdop>3.0</pdop><geoidheight>54.00</geoidheight><course>282.9</course><type>1</type></trkpt>
      <trkpt lat="39.85890999" lon="-6.48482755"><ele>1124</ele><speed>10.50</speed><time>2016-06-21T17:21:11Z</time><pdop>3.0</pdop><geoidheight>54.00</geoidheight><course>315.1</course><type>1</type></trkpt>
      <trkpt lat="39.85898228" lon="-6.48488053"><ele>1126</ele><speed>9.50</speed><time>2016-06-21T17:21:12Z</time><pdop>3.0</pdop><geoidheight>54.00</geoidheight><course>329.2</course><type>1</type></trkpt>
      <trkpt lat="39.85905242" lon="-6.48490525"><ele>1127</ele><speed>8.25</speed><time>2016-06-21T17:21:13Z</time><pdop>3.0</pdop><geoidheight>54.00</geoidheight><course>342.6</course><type>1</type></trkpt>
      <trkpt lat="39.85911609" lon="-6.48490631"><ele>1128</ele><speed>7.25</speed><time>2016-06-21T17:21:14Z</time><pdop>4.0</pdop><geoidheight>54.00</geoidheight><course>357.2</course><type>1</type></trkpt>
      <trkpt lat="39.85921533" lon="-6.48482608"><ele>1105</ele><speed>6.75</speed><time>2016-06-21T17:21:16Z</time><pdop>3.0</pdop><geoidheight>54.00</geoidheight><course>39.5</course><type>1</type></trkpt>
      <trkpt lat="39.85923989" lon="-6.48475713"><ele>1117</ele><speed>6.50</speed><time>2016-06-21T17:21:17Z</time><pdop>3.0</pdop><geoidheight>54.00</geoidheight><course>62.0</course><type>1</type></trkpt>
      <trkpt lat="39.85922607" lon="-6.48461224"><ele>1129</ele><speed>6.50</speed><time>2016-06-21T17:21:19Z</time><pdop>3.0</pdop><geoidheight>54.00</geoidheight><course>106.9</course><type>1</type></trkpt>
      <trkpt lat="39.85913704" lon="-6.48452742"><ele>1134</ele><speed>6.50</speed><time>2016-06-21T17:21:21Z</time><pdop>4.0</pdop><geoidheight>54.00</geoidheight><course>152.6</course><type>1</type></trkpt>
      <trkpt lat="39.85899596" lon="-6.48453735"><ele>1137</ele><speed>7.50</speed><time>2016-06-21T17:21:23Z</time><pdop>5.0</pdop><geoidheight>54.00</geoidheight><course>180.2</course><type>1</type></trkpt>
      <trkpt lat="39.85890453" lon="-6.48459368"><ele>1136</ele><speed>9.25</speed><time>2016-06-21T17:21:24Z</time><pdop>4.0</pdop><geoidheight>54.00</geoidheight><course>195.7</course><type>1</type></trkpt>
      <trkpt lat="39.85882545" lon="-6.48469115"><ele>1139</ele><speed>10.75</speed><time>2016-06-21T17:21:25Z</time><pdop>3.0</pdop><geoidheight>54.00</geoidheight><course>217.5</course><type>1</type></trkpt>
      <trkpt lat="39.85876401" lon="-6.48480171"><ele>1141</ele><speed>11.75</speed><time>2016-06-21T17:21:26Z</time><pdop>3.0</pdop><geoidheight>54.00</geoidheight><course>233.2</course><type>1</type></trkpt>
      <trkpt lat="39.85871723" lon="-6.48509342"><ele>1145</ele><speed>12.75</speed><time>2016-06-21T17:21:28Z</time><pdop>3.0</pdop><geoidheight>54.00</geoidheight><course>261.8</course><type>1</type></trkpt>
      <trkpt lat="39.85872898" lon="-6.485233"><ele>1145</ele><speed>11.75</speed><time>2016-06-21T17:21:29Z</time><pdop>3.0</pdop><geoidheight>54.00</geoidheight><course>274.2</course><type>1</type></trkpt>
      <trkpt lat="39.85880064" lon="-6.48545158"><ele>1148</ele><speed>10.00</speed><time>2016-06-21T17:21:31Z</time><pdop>3.0</pdop><geoidheight>54.00</geoidheight><course>296.3</course><type>1</type></trkpt>
      <trkpt lat="39.85885471" lon="-6.48554469"><ele>1150</ele><speed>9.75</speed><time>2016-06-21T17:21:32Z</time><pdop>3.0</pdop><geoidheight>54.00</geoidheight><course>305.0</course><type>1</type></trkpt>
      <trkpt lat="39.85892154" lon="-6.48562395"><ele>1151</ele><speed>10.00</speed><time>2016-06-21T17:21:33Z</time><pdop>3.0</pdop><geoidheight>54.00</geoidheight><course>315.9</course><type>1</type></trkpt>
      <trkpt lat="39.85899806" lon="-6.48568936"><ele>1153</ele><speed>10.25</speed><time>2016-06-21T17:21:34Z</time><pdop>3.0</pdop><geoidheight>54.00</geoidheight><course>326.7</course><type>1</type></trkpt>
      <trkpt lat="39.85907641" lon="-6.48572122"><ele>1155</ele><speed>9.25</speed><time>2016-06-21T17:21:35Z</time><pdop>3.0</pdop><geoidheight>54.00</geoidheight><course>341.5</course><type>1</type></trkpt>
      <trkpt lat="39.85915071" lon="-6.48572276"><ele>1155</ele><speed>8.25</speed><time>2016-06-21T17:21:36Z</time><pdop>3.0</pdop><geoidheight>54.00</geoidheight><course>356.3</course><type>1</type></trkpt>
      <trkpt lat="39.85921671" lon="-6.48570737"><ele>1157</ele><speed>7.50</speed><time>2016-06-21T17:21:37Z</time><pdop>4.0</pdop><geoidheight>54.00</geoidheight><course>9.7</course><type>1</type></trkpt>
      <trkpt lat="39.85936395" lon="-6.48558712"><ele>1163</ele><speed>6.25</speed><time>2016-06-21T17:21:40Z</time><pdop>3.0</pdop><geoidheight>54.00</geoidheight><course>44.9</course><type>1</type></trkpt>
      <trkpt lat="39.85937899" lon="-6.4854587"><ele>1166</ele><speed>5.50</speed><time>2016-06-21T17:21:42Z</time><pdop>3.0</pdop><geoidheight>54.00</geoidheight><course>91.7</course><type>1</type></trkpt>
      <trkpt lat="39.85931844" lon="-6.48534113"><ele>1169</ele><speed>6.00</speed><time>2016-06-21T17:21:44Z</time><pdop>3.0</pdop><geoidheight>54.00</geoidheight><course>129.0</course><type>1</type></trkpt>
      <trkpt lat="39.85920976" lon="-6.48529369"><ele>1172</ele><speed>7.00</speed><time>2016-06-21T17:21:46Z</time><pdop>3.0</pdop><geoidheight>54.00</geoidheight><course>169.1</course><type>1</type></trkpt>
      <trkpt lat="39.8591412" lon="-6.48529444"><ele>1172</ele><speed>7.75</speed><time>2016-06-21T17:21:47Z</time><pdop>4.0</pdop><geoidheight>54.00</geoidheight><course>181.2</course><type>1</type></trkpt>
      <trkpt lat="39.85906324" lon="-6.485326"><ele>1174</ele><speed>8.50</speed><time>2016-06-21T17:21:48Z</time><pdop>3.0</pdop><geoidheight>54.00</geoidheight><course>195.0</course><type>1</type></trkpt>
      <trkpt lat="39.8589165" lon="-6.48546526"><ele>1175</ele><speed>11.00</speed><time>2016-06-21T17:21:50Z</time><pdop>3.0</pdop><geoidheight>54.00</geoidheight><course>220.4</course><type>1</type></trkpt>
      <trkpt lat="39.85884983" lon="-6.48558335"><ele>1175</ele><speed>12.25</speed><time>2016-06-21T17:21:51Z</time><pdop>3.0</pdop><geoidheight>54.00</geoidheight><course>231.8</course><type>1</type></trkpt>
      <trkpt lat="39.85878219" lon="-6.48586796"><ele>1178</ele><speed>12.75</speed><time>2016-06-21T17:21:53Z</time><pdop>3.0</pdop><geoidheight>54.00</geoidheight><course>259.8</course><type>1</type></trkpt>
      <trkpt lat="39.85879432" lon="-6.48601105"><ele>1179</ele><speed>12.00</speed><time>2016-06-21T17:21:54Z</time><pdop>3.0</pdop><geoidheight>54.00</geoidheight><course>273.1</course><type>1</type></trkpt>
      <trkpt lat="39.85882352" lon="-6.48614103"><ele>1181</ele><speed>11.50</speed><time>2016-06-21T17:21:55Z</time><pdop>3.0</pdop><geoidheight>54.00</geoidheight><course>284.3</course><type>1</type></trkpt>
      <trkpt lat="39.85890772" lon="-6.48637752"><ele>1183</ele><speed>11.25</speed><time>2016-06-21T17:21:57Z</time><pdop>4.0</pdop><geoidheight>54.00</geoidheight><course>296.8</course><type>1</type></trkpt>
      <trkpt lat="39.85896358" lon="-6.48648477"><ele>1184</ele><speed>11.25</speed><time>2016-06-21T17:21:58Z</time><pdop>3.0</pdop><geoidheight>54.00</geoidheight><course>303.8</course><type>1</type></trkpt>
      <trkpt lat="39.85903138" lon="-6.48658199"><ele>1185</ele><speed>11.25</speed><time>2016-06-21T17:21:59Z</time><pdop>3.0</pdop><geoidheight>54.00</geoidheight><course>311.7</course><type>1</type></trkpt>
      <trkpt lat="39.85919541" lon="-6.48671413"><ele>1189</ele><speed>10.50</speed><time>2016-06-21T17:22:01Z</time><pdop>3.0</pdop><geoidheight>54.00</geoidheight><course>333.5</course><type>1</type></trkpt>
      <trkpt lat="39.85927984" lon="-6.48674062"><ele>1191</ele><speed>9.75</speed><time>2016-06-21T17:22:02Z</time><pdop>3.0</pdop><geoidheight>54.00</geoidheight><course>346.4</course><type>1</type></trkpt>
      <trkpt lat="39.85942907" lon="-6.4867455"><ele>1195</ele><speed>8.25</speed><time>2016-06-21T17:22:04Z</time><pdop>4.0</pdop><geoidheight>54.00</geoidheight><course>357.5</course><type>1</type></trkpt>
      <trkpt lat="39.8594899" lon="-6.48665192"><ele>1198</ele><speed>5.25</speed><time>2016-06-21T17:22:06Z</time><pdop>3.0</pdop><geoidheight>54.00</geoidheight><course>43.4</course><type>1</type></trkpt>
      <trkpt lat="39.85949412" lon="-6.48648236"><ele>1202</ele><speed>5.00</speed><time>2016-06-21T17:22:09Z</time><pdop>3.0</pdop><geoidheight>54.00</geoidheight><course>111.3</course><type>1</type></trkpt>
      <trkpt lat="39.85941128" lon="-6.48640144"><ele>1203</ele><speed>6.00</speed><time>2016-06-21T17:22:11Z</time><pdop>3.0</pdop><geoidheight>54.00</geoidheight><course>149.4</course><type>1</type></trkpt>
      <trkpt lat="39.859348" lon="-6.48638287"><ele>1204</ele><speed>6.75</speed><time>2016-06-21T17:22:12Z</time><pdop>4.0</pdop><geoidheight>54.00</geoidheight><course>163.4</course><type>1</type></trkpt>
      <trkpt lat="39.85921366" lon="-6.48643347"><ele>1204</ele><speed>8.25</speed><time>2016-06-21T17:22:14Z</time><pdop>3.0</pdop><geoidheight>54.00</geoidheight><course>202.9</course><type>1</type></trkpt>
      <trkpt lat="39.85914213" lon="-6.48651454"><ele>1203</ele><speed>10.25</speed><time>2016-06-21T17:22:15Z</time><pdop>3.0</pdop><geoidheight>54.00</geoidheight><course>219.1</course><type>1</type></trkpt>
      <trkpt lat="39.85901945" lon="-6.48675862"><ele>1203</ele><speed>12.50</speed><time>2016-06-21T17:22:17Z</time><pdop>3.0</pdop><geoidheight>54.00</geoidheight><course>241.0</course><type>1</type></trkpt>
      <trkpt lat="39.85899238" lon="-6.48689052"><ele>1205</ele><speed>12.00</speed><time>2016-06-21T17:22:18Z</time><pdop>3.0</pdop><geoidheight>54.00</geoidheight><course>255.8</course><type>1</type></trkpt>
      <trkpt lat="39.85899501" lon="-6.48702621"><ele>1205</ele><speed>11.75</speed><time>2016-06-21T17:22:19Z</time><pdop>3.0</pdop><geoidheight>54.00</geoidheight><course>270.4</course><type>1</type></trkpt>
      <trkpt lat="39.85906042" lon="-6.48729693"><ele>1207</ele><speed>12.25</speed><time>2016-06-21T17:22:21Z</time><pdop>3.0</pdop><geoidheight>54.00</geoidheight><course>290.9</course><type>1</type></trkpt>
      <trkpt lat="39.85911052" lon="-6.48741851"><ele>1209</ele><speed>11.75</speed><time>2016-06-21T17:22:22Z</time><pdop>3.0</pdop><geoidheight>54.00</geoidheight><course>297.6</course><type>1</type></trkpt>
      <trkpt lat="39.85916527" lon="-6.48752403"><ele>1211</ele><speed>11.00</speed><time>2016-06-21T17:22:23Z</time><pdop>3.0</pdop><geoidheight>54.00</geoidheight><course>303.1</course><type>1</type></trkpt>
      <trkpt lat="39.85930067" lon="-6.48771653"><ele>1213</ele><speed>11.00</speed><time>2016-06-21T17:22:25Z</time><pdop>3.0</pdop><geoidheight>54.00</geoidheight><course>314.4</course><type>1</type></trkpt>
      <trkpt lat="39.85938363" lon="-6.48778672"><ele>1213</ele><speed>10.75</speed><time>2016-06-21T17:22:26Z</time><pdop>3.0</pdop><geoidheight>54.00</geoidheight><course>325.2</course><type>1</type></trkpt>
      <trkpt lat="39.85946847" lon="-6.48783104"><ele>1214</ele><speed>10.25</speed><time>2016-06-21T17:22:27Z</time><pdop>3.0</pdop><geoidheight>54.00</geoidheight><course>339.0</course><type>1</type></trkpt>
      <trkpt lat="39.85964796" lon="-6.48784533"><ele>1216</ele><speed>10.00</speed><time>2016-06-21T17:22:29Z</time><pdop>5.0</pdop><geoidheight>54.00</geoidheight><course>355.3</course><type>1</type></trkpt>
      <trkpt lat="39.85970415" lon="-6.48777675"><ele>1219</ele><speed>8.25</speed><time>2016-06-21T17:22:30Z</time><pdop>3.0</pdop><geoidheight>54.00</geoidheight><course>24.3</course><type>1</type></trkpt>
      <trkpt lat="39.85977219" lon="-6.48773695"><ele>1222</ele><speed>8.25</speed><time>2016-06-21T17:22:31Z</time><pdop>5.0</pdop><geoidheight>54.00</geoidheight><course>24.3</course><type>1</type></trkpt>
      <trkpt lat="39.85980848" lon="-6.48762243"><ele>1227</ele><speed>5.50</speed><time>2016-06-21T17:22:33Z</time><pdop>5.0</pdop><geoidheight>54.00</geoidheight><course>51.3</course><type>1</type></trkpt>
      <trkpt lat="39.85978685" lon="-6.48752887"><ele>1228</ele><speed>4.50</speed><time>2016-06-21T17:22:35Z</time><pdop>3.0</pdop><geoidheight>54.00</geoidheight><course>107.3</course><type>1</type></trkpt>
      <trkpt lat="39.85966349" lon="-6.48740878"><ele>1225</ele><speed>6.00</speed><time>2016-06-21T17:22:38Z</time><pdop>5.0</pdop><geoidheight>54.00</geoidheight><course>148.6</course><type>1</type></trkpt>
      <trkpt lat="39.85951181" lon="-6.48754181"><ele>1228</ele><speed>8.25</speed><time>2016-06-21T17:22:40Z</time><pdop>3.0</pdop><geoidheight>54.00</geoidheight><course>209.1</course><type>1</type></trkpt>
      <trkpt lat="39.859446319999996" lon="-6.48758908"><ele>1229</ele><speed>8.25</speed><time>2016-06-21T17:22:41Z</time><pdop>5.0</pdop><geoidheight>54.00</geoidheight><course>209.1</course><type>1</type></trkpt>
      <trkpt lat="39.85933581" lon="-6.48778171"><ele>1229</ele><speed>10.50</speed><time>2016-06-21T17:22:43Z</time><pdop>3.0</pdop><geoidheight>54.00</geoidheight><course>234.8</course><type>1</type></trkpt>
      <trkpt lat="39.85925202" lon="-6.48803232"><ele>1229</ele><speed>11.75</speed><time>2016-06-21T17:22:45Z</time><pdop>5.0</pdop><geoidheight>54.00</geoidheight><course>246.6</course><type>1</type></trkpt>
      <trkpt lat="39.85927567" lon="-6.48819681"><ele>1231</ele><speed>12.50</speed><time>2016-06-21T17:22:46Z</time><pdop>3.0</pdop><geoidheight>54.00</geoidheight><course>270.1</course><type>1</type></trkpt>
      <trkpt lat="39.85932399" lon="-6.48847973"><ele>1234</ele><speed>12.25</speed><time>2016-06-21T17:22:48Z</time><pdop>4.0</pdop><geoidheight>54.00</geoidheight><course>280.7</course><type>1</type></trkpt>
      <trkpt lat="39.85938142" lon="-6.48860018"><ele>1237</ele><speed>11.75</speed><time>2016-06-21T17:22:49Z</time><pdop>4.0</pdop><geoidheight>54.00</geoidheight><course>291.6</course><type>1</type></trkpt>
      <trkpt lat="39.85942011" lon="-6.48872728"><ele>1238</ele><speed>11.75</speed><time>2016-06-21T17:22:50Z</time><pdop>5.0</pdop><geoidheight>54.00</geoidheight><course>291.6</course><type>1</type></trkpt>
      <trkpt lat="39.8594731" lon="-6.48882822"><ele>1241</ele><speed>10.75</speed><time>2016-06-21T17:22:51Z</time><pdop>3.0</pdop><geoidheight>54.00</geoidheight><course>299.8</course><type>1</type></trkpt>
      <trkpt lat="39.85953472" lon="-6.48890829"><ele>1234</ele><speed>9.75</speed><time>2016-06-21T17:22:52Z</time><pdop>3.0</pdop><geoidheight>54.00</geoidheight><course>313.6</course><type>1</type></trkpt>
      <trkpt lat="39.85968818" lon="-6.48903853"><ele>1239</ele><speed>10.75</speed><time>2016-06-21T17:22:54Z</time><pdop>4.0</pdop><geoidheight>54.00</geoidheight><course>325.2</course><type>1</type></trkpt>
      <trkpt lat="39.8598871" lon="-6.4889969"><ele>1249</ele><speed>6.75</speed><time>2016-06-21T17:22:57Z</time><pdop>3.0</pdop><geoidheight>54.00</geoidheight><course>17.9</course><type>1</type></trkpt>
      <trkpt lat="39.85993215" lon="-6.48885314"><ele>1256</ele><speed>4.25</speed><time>2016-06-21T17:23:00Z</time><pdop>3.0</pdop><geoidheight>54.00</geoidheight><course>86.3</course><type>1</type></trkpt>
      <trkpt lat="39.85990218" lon="-6.48875224"><ele>1259</ele><speed>5.00</speed><time>2016-06-21T17:23:02Z</time><pdop>3.0</pdop><geoidheight>54.00</geoidheight><course>122.0</course><type>1</type></trkpt>
      <trkpt lat="39.85979592" lon="-6.48872133"><ele>1261</ele><speed>7.00</speed><time>2016-06-21T17:23:04Z</time><pdop>3.0</pdop><geoidheight>54.00</geoidheight><course>176.5</course><type>1</type></trkpt>
      <trkpt lat="39.85971774" lon="-6.48875056"><ele>1263</ele><speed>8.75</speed><time>2016-06-21T17:23:05Z</time><pdop>3.0</pdop><geoidheight>54.00</geoidheight><course>196.4</course><type>1</type></trkpt>
      <trkpt lat="39.85956522" lon="-6.48888279"><ele>1254</ele><speed>10.75</speed><time>2016-06-21T17:23:07Z</time><pdop>4.0</pdop><geoidheight>54.00</geoidheight><course>217.2</course><type>1</type></trkpt>
      <trkpt lat="39.85944616" lon="-6.48909912"><ele>1263</ele><speed>11.50</speed><time>2016-06-21T17:23:09Z</time><pdop>3.0</pdop><geoidheight>54.00</geoidheight><course>238.2</course><type>1</type></trkpt>
      <trkpt lat="39.85939195" lon="-6.48921259"><ele>1264</ele><speed>11.50</speed><time>2016-06-21T17:23:10Z</time><pdop>5.0</pdop><geoidheight>54.00</geoidheight><course>238.2</course><type>1</type></trkpt>
      <trkpt lat="39.85939456" lon="-6.48937134"><ele>1268</ele><speed>12.25</speed><time>2016-06-21T17:23:11Z</time><pdop>3.0</pdop><geoidheight>54.00</geoidheight><course>261.5</course><type>1</type></trkpt>
      <trkpt lat="39.85941015" lon="-6.48966021"><ele>1272</ele><speed>12.25</speed><time>2016-06-21T17:23:13Z</time><pdop>5.0</pdop><geoidheight>54.00</geoidheight><course>271.7</course><type>1</type></trkpt>
      <trkpt lat="39.85945968" lon="-6.48978331"><ele>1275</ele><speed>11.75</speed><time>2016-06-21T17:23:14Z</time><pdop>4.0</pdop><geoidheight>54.00</geoidheight><course>283.0</course><type>1</type></trkpt>
      <trkpt lat="39.85961321" lon="-6.48995927"><ele>1280</ele><speed>10.75</speed><time>2016-06-21T17:23:16Z</time><pdop>3.0</pdop><geoidheight>54.00</geoidheight><course>313.2</course><type>1</type></trkpt>
      <trkpt lat="39.85968424" lon="-6.49003638"><ele>1283</ele><speed>10.25</speed><time>2016-06-21T17:23:17Z</time><pdop>3.0</pdop><geoidheight>54.00</geoidheight><course>320.4</course><type>1</type></trkpt>
      <trkpt lat="39.85976309" lon="-6.49010262"><ele>1284</ele><speed>10.25</speed><time>2016-06-21T17:23:18Z</time><pdop>3.0</pdop><geoidheight>54.00</geoidheight><course>326.6</course><type>1</type></trkpt>
      <trkpt lat="39.86002309" lon="-6.49023455"><ele>1219</ele><speed>10.25</speed><time>2016-06-21T17:23:20Z</time><pdop>18.0</pdop><geoidheight>54.00</geoidheight><course>326.6</course><type>1</type></trkpt>
      <trkpt lat="39.86005754" lon="-6.4899626"><ele>1292</ele><speed>5.25</speed><time>2016-06-21T17:23:25Z</time><pdop>3.0</pdop><geoidheight>54.00</geoidheight><course>97.0</course><type>1</type></trkpt>
      <trkpt lat="39.85999815" lon="-6.48985762"><ele>1294</ele><speed>6.00</speed><time>2016-06-21T17:23:27Z</time><pdop>4.0</pdop><geoidheight>54.00</geoidheight><course>136.9</course><type>1</type></trkpt>
      <trkpt lat="39.85986819" lon="-6.48982971"><ele>1296</ele><speed>7.75</speed><time>2016-06-21T17:23:29Z</time><pdop>3.0</pdop><geoidheight>54.00</geoidheight><course>175.3</course><type>1</type></trkpt>
      <trkpt lat="39.85972329" lon="-6.48988845"><ele>1300</ele><speed>8.50</speed><time>2016-06-21T17:23:31Z</time><pdop>3.0</pdop><geoidheight>54.00</geoidheight><course>200.3</course><type>1</type></trkpt>
      <trkpt lat="39.85965181" lon="-6.48992282"><ele>1302</ele><speed>8.50</speed><time>2016-06-21T17:23:32Z</time><pdop>5.0</pdop><geoidheight>54.00</geoidheight><course>200.3</course><type>1</type></trkpt>
      <trkpt lat="39.85958595" lon="-6.49002203"><ele>1302</ele><speed>10.00</speed><time>2016-06-21T17:23:33Z</time><pdop>3.0</pdop><geoidheight>54.00</geoidheight><course>220.3</course><type>1</type></trkpt>
      <trkpt lat="39.85946638" lon="-6.49022763"><ele>1305</ele><speed>11.25</speed><time>2016-06-21T17:23:35Z</time><pdop>3.0</pdop><geoidheight>54.00</geoidheight><course>235.7</course><type>1</type></trkpt>
      <trkpt lat="39.85941202" lon="-6.49049439"><ele>1307</ele><speed>12.00</speed><time>2016-06-21T17:23:37Z</time><pdop>3.0</pdop><geoidheight>54.00</geoidheight><course>258.2</course><type>1</type></trkpt>
      <trkpt lat="39.85940898" lon="-6.49078849"><ele>1309</ele><speed>12.50</speed><time>2016-06-21T17:23:39Z</time><pdop>3.0</pdop><geoidheight>54.00</geoidheight><course>270.3</course><type>1</type></trkpt>
      <trkpt lat="39.85945672" lon="-6.4910603"><ele>1313</ele><speed>11.75</speed><time>2016-06-21T17:23:41Z</time><pdop>3.0</pdop><geoidheight>54.00</geoidheight><course>285.4</course><type>1</type></trkpt>
      <trkpt lat="39.85957281" lon="-6.49125776"><ele>1316</ele><speed>10.50</speed><time>2016-06-21T17:23:43Z</time><pdop>3.0</pdop><geoidheight>54.00</geoidheight><course>311.9</course><type>1</type></trkpt>
      <trkpt lat="39.85964263" lon="-6.49132091"><ele>1317</ele><speed>9.50</speed><time>2016-06-21T17:23:44Z</time><pdop>4.0</pdop><geoidheight>54.00</geoidheight><course>326.2</course><type>1</type></trkpt>
      <trkpt lat="39.85971501" lon="-6.49136235"><ele>1319</ele><speed>9.00</speed><time>2016-06-21T17:23:45Z</time><pdop>3.0</pdop><geoidheight>54.00</geoidheight><course>337.0</course><type>1</type></trkpt>
      <trkpt lat="39.85985365" lon="-6.49138322"><ele>1323</ele><speed>7.50</speed><time>2016-06-21T17:23:47Z</time><pdop>4.0</pdop><geoidheight>54.00</geoidheight><course>358.7</course><type>1</type></trkpt>
      <trkpt lat="39.85994737" lon="-6.49127264"><ele>1330</ele><speed>4.25</speed><time>2016-06-21T17:23:50Z</time><pdop>3.0</pdop><geoidheight>54.00</geoidheight><course>64.6</course><type>1</type></trkpt>
      <trkpt lat="39.85993565" lon="-6.49118672"><ele>1332</ele><speed>4.00</speed><time>2016-06-21T17:23:52Z</time><pdop>3.0</pdop><geoidheight>54.00</geoidheight><course>109.5</course><type>1</type></trkpt>
      <trkpt lat="39.85985685" lon="-6.49108122"><ele>1332</ele><speed>7.00</speed><time>2016-06-21T17:23:54Z</time><pdop>4.0</pdop><geoidheight>54.00</geoidheight><course>139.4</course><type>1</type></trkpt>
      <trkpt lat="39.85977794" lon="-6.49105516"><ele>1334</ele><speed>8.50</speed><time>2016-06-21T17:23:55Z</time><pdop>3.0</pdop><geoidheight>54.00</geoidheight><course>161.5</course><type>1</type></trkpt>
      <trkpt lat="39.85960424" lon="-6.49111758"><ele>1338</ele><speed>10.25</speed><time>2016-06-21T17:23:57Z</time><pdop>3.0</pdop><geoidheight>54.00</geoidheight><course>202.9</course><type>1</type></trkpt>
      <trkpt lat="39.85954024" lon="-6.49119371"><ele>1341</ele><speed>10.00</speed><time>2016-06-21T17:23:58Z</time><pdop>3.0</pdop><geoidheight>54.00</geoidheight><course>221.4</course><type>1</type></trkpt>
      <trkpt lat="39.85949361" lon="-6.49128372"><ele>1343</ele><speed>9.75</speed><time>2016-06-21T17:23:59Z</time><pdop>3.0</pdop><geoidheight>54.00</geoidheight><course>235.5</course><type>1</type></trkpt>
      <trkpt lat="39.85945161" lon="-6.49138285"><ele>1343</ele><speed>10.25</speed><time>2016-06-21T17:24:00Z</time><pdop>3.0</pdop><geoidheight>54.00</geoidheight><course>240.7</course><type>1</type></trkpt>
      <trkpt lat="39.85936828" lon="-6.49162149"><ele>1346</ele><speed>11.25</speed><time>2016-06-21T17:24:02Z</time><pdop>3.0</pdop><geoidheight>54.00</geoidheight><course>247.5</course><type>1</type></trkpt>
      <trkpt lat="39.85935567" lon="-6.49175466"><ele>1347</ele><speed>11.25</speed><time>2016-06-21T17:24:03Z</time><pdop>3.0</pdop><geoidheight>54.00</geoidheight><course>261.1</course><type>1</type></trkpt>
      <trkpt lat="39.85937331" lon="-6.49189076"><ele>1348</ele><speed>11.50</speed><time>2016-06-21T17:24:04Z</time><pdop>3.0</pdop><geoidheight>54.00</geoidheight><course>277.4</course><type>1</type></trkpt>
      <trkpt lat="39.85941629" lon="-6.49201518"><ele>1349</ele><speed>11.75</speed><time>2016-06-21T17:24:05Z</time><pdop>3.0</pdop><geoidheight>54.00</geoidheight><course>291.8</course><type>1</type></trkpt>
      <trkpt lat="39.85947492" lon="-6.49212207"><ele>1351</ele><speed>11.50</speed><time>2016-06-21T17:24:06Z</time><pdop>3.0</pdop><geoidheight>54.00</geoidheight><course>304.2</course><type>1</type></trkpt>
      <trkpt lat="39.85954226" lon="-6.49220665"><ele>1353</ele><speed>10.50</speed><time>2016-06-21T17:24:07Z</time><pdop>3.0</pdop><geoidheight>54.00</geoidheight><course>314.8</course><type>1</type></trkpt>
      <trkpt lat="39.86003768" lon="-6.49310868"><ele>1394</ele><speed>5.25</speed><time>2016-06-21T17:24:39Z</time><pdop>4.0</pdop><geoidheight>54.00</geoidheight><course>128.4</course><type>1</type></trkpt>
      <trkpt lat="39.85985932" lon="-6.49310884"><ele>1395</ele><speed>8.25</speed><time>2016-06-21T17:24:43Z</time><pdop>3.0</pdop><geoidheight>54.00</geoidheight><course>185.1</course><type>1</type></trkpt>
      <trkpt lat="39.85970271" lon="-6.49319858"><ele>1398</ele><speed>10.00</speed><time>2016-06-21T17:24:45Z</time><pdop>4.0</pdop><geoidheight>54.00</geoidheight><course>210.2</course><type>1</type></trkpt>
      <trkpt lat="39.85965065" lon="-6.49328605"><ele>1400</ele><speed>10.25</speed><time>2016-06-21T17:24:46Z</time><pdop>4.0</pdop><geoidheight>54.00</geoidheight><course>228.4</course><type>1</type></trkpt>
      <trkpt lat="39.85962054" lon="-6.49339948"><ele>1399</ele><speed>10.50</speed><time>2016-06-21T17:24:47Z</time><pdop>3.0</pdop><geoidheight>54.00</geoidheight><course>243.6</course><type>1</type></trkpt>
      <trkpt lat="39.85958106" lon="-6.49352333"><ele>1399</ele><speed>11.25</speed><time>2016-06-21T17:24:48Z</time><pdop>3.0</pdop><geoidheight>54.00</geoidheight><course>249.9</course><type>1</type></trkpt>
      <trkpt lat="39.85955483" lon="-6.49365859"><ele>1400</ele><speed>12.25</speed><time>2016-06-21T17:24:49Z</time><pdop>3.0</pdop><geoidheight>54.00</geoidheight><course>255.8</course><type>1</type></trkpt>
      <trkpt lat="39.85954815" lon="-6.49380639"><ele>1402</ele><speed>12.75</speed><time>2016-06-21T17:24:50Z</time><pdop>3.0</pdop><geoidheight>54.00</geoidheight><course>266.0</course><type>1</type></trkpt>
      <trkpt lat="39.85961984" lon="-6.49407537"><ele>1403</ele><speed>12.50</speed><time>2016-06-21T17:24:52Z</time><pdop>3.0</pdop><geoidheight>54.00</geoidheight><course>294.9</course><type>1</type></trkpt>
      <trkpt lat="39.85975973" lon="-6.49426429"><ele>1405</ele><speed>11.25</speed><time>2016-06-21T17:24:54Z</time><pdop>3.0</pdop><geoidheight>54.00</geoidheight><course>316.4</course><type>1</type></trkpt>
      <trkpt lat="39.85983275" lon="-6.4943351"><ele>1407</ele><speed>10.00</speed><time>2016-06-21T17:24:55Z</time><pdop>3.0</pdop><geoidheight>54.00</geoidheight><course>323.5</course><type>1</type></trkpt>
      <trkpt lat="39.85990255" lon="-6.49438835"><ele>1409</ele><speed>9.00</speed><time>2016-06-21T17:24:56Z</time><pdop>3.0</pdop><geoidheight>54.00</geoidheight><course>331.0</course><type>1</type></trkpt>
      <trkpt lat="39.85996611" lon="-6.49441403"><ele>1412</ele><speed>8.75</speed><time>2016-06-21T17:24:56Z</time><pdop>4.0</pdop><geoidheight>54.00</geoidheight><course>330.6</course><type>1</type></trkpt>
      <trkpt lat="39.86011032" lon="-6.49451609"><ele>1402</ele><speed>9.00</speed><time>2016-06-21T17:24:58Z</time><pdop>5.0</pdop><geoidheight>54.00</geoidheight><course>330.8</course><type>1</type></trkpt>
      <trkpt lat="39.86011849" lon="-6.49439006"><ele>1399</ele><speed>6.25</speed><time>2016-06-21T17:24:59Z</time><pdop>5.0</pdop><geoidheight>54.00</geoidheight><course>14.6</course><type>1</type></trkpt>
      <trkpt lat="39.86014105" lon="-6.49424915"><ele>1411</ele><speed>5.00</speed><time>2016-06-21T17:25:02Z</time><pdop>3.0</pdop><geoidheight>54.00</geoidheight><course>68.5</course><type>1</type></trkpt>
      <trkpt lat="39.86013607" lon="-6.49412595"><ele>1414</ele><speed>5.25</speed><time>2016-06-21T17:25:04Z</time><pdop>3.0</pdop><geoidheight>54.00</geoidheight><course>113.0</course><type>1</type></trkpt>
      <trkpt lat="39.86004499" lon="-6.49404859"><ele>1414</ele><speed>6.75</speed><time>2016-06-21T17:25:06Z</time><pdop>4.0</pdop><geoidheight>54.00</geoidheight><course>151.0</course><type>1</type></trkpt>
      <trkpt lat="39.85989768" lon="-6.49406329"><ele>1416</ele><speed>8.50</speed><time>2016-06-21T17:25:08Z</time><pdop>3.0</pdop><geoidheight>54.00</geoidheight><course>184.9</course><type>1</type></trkpt>
      <trkpt lat="39.85982816" lon="-6.49408999"><ele>1417</ele><speed>8.75</speed><time>2016-06-21T17:25:09Z</time><pdop>3.0</pdop><geoidheight>54.00</geoidheight><course>196.5</course><type>1</type></trkpt>
      <trkpt lat="39.85975817" lon="-6.49415168"><ele>1418</ele><speed>9.00</speed><time>2016-06-21T17:25:10Z</time><pdop>3.0</pdop><geoidheight>54.00</geoidheight><course>210.2</course><type>1</type></trkpt>
      <trkpt lat="39.85964215" lon="-6.49432686"><ele>1418</ele><speed>10.50</speed><time>2016-06-21T17:25:12Z</time><pdop>3.0</pdop><geoidheight>54.00</geoidheight><course>231.8</course><type>1</type></trkpt>
      <trkpt lat="39.85958983" lon="-6.49444661"><ele>1418</ele><speed>11.75</speed><time>2016-06-21T17:25:13Z</time><pdop>3.0</pdop><geoidheight>54.00</geoidheight><course>238.0</course><type>1</type></trkpt>
      <trkpt lat="39.85954558" lon="-6.49458318"><ele>1418</ele><speed>12.50</speed><time>2016-06-21T17:25:14Z</time><pdop>3.0</pdop><geoidheight>54.00</geoidheight><course>246.2</course><type>1</type></trkpt>
      <trkpt lat="39.85952303" lon="-6.49488177"><ele>1420</ele><speed>12.75</speed><time>2016-06-21T17:25:16Z</time><pdop>3.0</pdop><geoidheight>54.00</geoidheight><course>270.2</course><type>1</type></trkpt>
      <trkpt lat="39.8596006" lon="-6.49514694"><ele>1419</ele><speed>12.00</speed><time>2016-06-21T17:25:18Z</time><pdop>3.0</pdop><geoidheight>54.00</geoidheight><course>293.5</course><type>1</type></trkpt>
      <trkpt lat="39.85971011" lon="-6.4953913"><ele>1421</ele><speed>12.00</speed><time>2016-06-21T17:25:20Z</time><pdop>4.0</pdop><geoidheight>54.00</geoidheight><course>299.2</course><type>1</type></trkpt>
      <trkpt lat="39.85978598" lon="-6.49547275"><ele>1421</ele><speed>11.50</speed><time>2016-06-21T17:25:21Z</time><pdop>3.0</pdop><geoidheight>54.00</geoidheight><course>310.8</course><type>1</type></trkpt>
      <trkpt lat="39.85986299" lon="-6.49555796"><ele>1422</ele><speed>11.00</speed><time>2016-06-21T17:25:22Z</time><pdop>3.0</pdop><geoidheight>54.00</geoidheight><course>319.0</course><type>1</type></trkpt>
      <trkpt lat="39.86003697" lon="-6.49687693"><ele>1444</ele><speed>12.00</speed><time>2016-06-21T17:25:52Z</time><pdop>11.0</pdop><geoidheight>54.00</geoidheight><course>315.5</course><type>1</type></trkpt>
      <trkpt lat="39.86028291" lon="-6.49705952"><ele>1445</ele><speed>10.25</speed><time>2016-06-21T17:25:55Z</time><pdop>3.0</pdop><geoidheight>54.00</geoidheight><course>326.0</course><type>1</type></trkpt>
      <trkpt lat="39.86035018" lon="-6.49710015"><ele>1446</ele><speed>8.75</speed><time>2016-06-21T17:25:56Z</time><pdop>3.0</pdop><geoidheight>54.00</geoidheight><course>334.6</course><type>1</type></trkpt>
      <trkpt lat="39.86041372" lon="-6.49711863"><ele>1447</ele><speed>7.75</speed><time>2016-06-21T17:25:57Z</time><pdop>3.0</pdop><geoidheight>54.00</geoidheight><course>347.5</course><type>1</type></trkpt>
      <trkpt lat="39.86052569" lon="-6.49708202"><ele>1446</ele><speed>6.25</speed><time>2016-06-21T17:25:59Z</time><pdop>3.0</pdop><geoidheight>54.00</geoidheight><course>12.4</course><type>1</type></trkpt>
      <trkpt lat="39.8605974" lon="-6.49701991"><ele>1446</ele><speed>4.75</speed><time>2016-06-21T17:26:01Z</time><pdop>3.0</pdop><geoidheight>54.00</geoidheight><course>38.7</course><type>1</type></trkpt>
      <trkpt lat="39.8605667" lon="-6.49688675"><ele>1444</ele><speed>4.75</speed><time>2016-06-21T17:26:04Z</time><pdop>4.0</pdop><geoidheight>54.00</geoidheight><course>128.1</course><type>1</type></trkpt>
      <trkpt lat="39.86039408" lon="-6.49686695"><ele>1445</ele><speed>7.00</speed><time>2016-06-21T17:26:07Z</time><pdop>3.0</pdop><geoidheight>54.00</geoidheight><course>185.6</course><type>1</type></trkpt>
      <trkpt lat="39.86033401" lon="-6.49688139"><ele>1446</ele><speed>6.50</speed><time>2016-06-21T17:26:08Z</time><pdop>3.0</pdop><geoidheight>54.00</geoidheight><course>189.3</course><type>1</type></trkpt>
      <trkpt lat="39.86027846" lon="-6.49688731"><ele>1447</ele><speed>6.00</speed><time>2016-06-21T17:26:09Z</time><pdop>3.0</pdop><geoidheight>54.00</geoidheight><course>183.3</course><type>1</type></trkpt>
      <trkpt lat="39.86017657" lon="-6.49684876"><ele>1448</ele><speed>5.75</speed><time>2016-06-21T17:26:11Z</time><pdop>3.0</pdop><geoidheight>54.00</geoidheight><course>159.0</course><type>1</type></trkpt>
      <trkpt lat="39.8601027" lon="-6.4967776"><ele>1450</ele><speed>5.00</speed><time>2016-06-21T17:26:13Z</time><pdop>3.0</pdop><geoidheight>54.00</geoidheight><course>140.6</course><type>1</type></trkpt>
      <trkpt lat="39.86002972" lon="-6.49670886"><ele>1450</ele><speed>4.75</speed><time>2016-06-21T17:26:15Z</time><pdop>4.0</pdop><geoidheight>54.00</geoidheight><course>151.7</course><type>1</type></trkpt>
      <trkpt lat="39.8598488" lon="-6.49673531"><ele>1449</ele><speed>8.00</speed><time>2016-06-21T17:26:18Z</time><pdop>3.0</pdop><geoidheight>54.00</geoidheight><course>194.8</course><type>1</type></trkpt>
      <trkpt lat="39.85969808" lon="-6.49686439"><ele>1449</ele><speed>10.50</speed><time>2016-06-21T17:26:20Z</time><pdop>3.0</pdop><geoidheight>54.00</geoidheight><course>218.2</course><type>1</type></trkpt>
      <trkpt lat="39.85960078" lon="-6.49711416"><ele>1448</ele><speed>11.75</speed><time>2016-06-21T17:26:22Z</time><pdop>3.0</pdop><geoidheight>54.00</geoidheight><course>247.2</course><type>1</type></trkpt>
      <trkpt lat="39.8595904" lon="-6.49726368"><ele>1447</ele><speed>12.00</speed><time>2016-06-21T17:26:23Z</time><pdop>3.0</pdop><geoidheight>54.00</geoidheight><course>262.1</course><type>1</type></trkpt>
      <trkpt lat="39.85965666" lon="-6.49754493"><ele>1447</ele><speed>13.00</speed><time>2016-06-21T17:26:25Z</time><pdop>3.0</pdop><geoidheight>54.00</geoidheight><course>291.8</course><type>1</type></trkpt>
      <trkpt lat="39.85972526" lon="-6.49766627"><ele>1447</ele><speed>13.00</speed><time>2016-06-21T17:26:26Z</time><pdop>3.0</pdop><geoidheight>54.00</geoidheight><course>305.4</course><type>1</type></trkpt>
      <trkpt lat="39.85981407" lon="-6.49776388"><ele>1448</ele><speed>12.75</speed><time>2016-06-21T17:26:27Z</time><pdop>3.0</pdop><geoidheight>54.00</geoidheight><course>318.3</course><type>1</type></trkpt>
      <trkpt lat="39.85999686" lon="-6.49789375"><ele>1451</ele><speed>11.00</speed><time>2016-06-21T17:26:29Z</time><pdop>3.0</pdop><geoidheight>54.00</geoidheight><course>334.7</course><type>1</type></trkpt>
      <trkpt lat="39.86007922" lon="-6.49793796"><ele>1452</ele><speed>10.00</speed><time>2016-06-21T17:26:30Z</time><pdop>3.0</pdop><geoidheight>54.00</geoidheight><course>337.4</course><type>1</type></trkpt>
      <trkpt lat="39.86015358" lon="-6.49797307"><ele>1453</ele><speed>9.00</speed><time>2016-06-21T17:26:31Z</time><pdop>3.0</pdop><geoidheight>54.00</geoidheight><course>340.4</course><type>1</type></trkpt>
      <trkpt lat="39.86022783" lon="-6.49798697"><ele>1453</ele><speed>8.50</speed><time>2016-06-21T17:26:32Z</time><pdop>3.0</pdop><geoidheight>54.00</geoidheight><course>349.1</course><type>1</type></trkpt>
      <trkpt lat="39.86037264" lon="-6.49793524"><ele>1453</ele><speed>8.50</speed><time>2016-06-21T17:26:34Z</time><pdop>3.0</pdop><geoidheight>54.00</geoidheight><course>19.6</course><type>1</type></trkpt>
      <trkpt lat="39.86043294" lon="-6.49787905"><ele>1453</ele><speed>8.00</speed><time>2016-06-21T17:26:35Z</time><pdop>3.0</pdop><geoidheight>54.00</geoidheight><course>31.4</course><type>1</type></trkpt>
      <trkpt lat="39.86052257" lon="-6.49777528"><ele>1456</ele><speed>6.50</speed><time>2016-06-21T17:26:37Z</time><pdop>3.0</pdop><geoidheight>54.00</geoidheight><course>40.9</course><type>1</type></trkpt>
      <trkpt lat="39.86058583" lon="-6.49761375"><ele>1456</ele><speed>5.00</speed><time>2016-06-21T17:26:40Z</time><pdop>3.0</pdop><geoidheight>54.00</geoidheight><course>79.4</course><type>1</type></trkpt>
      <trkpt lat="39.86054384" lon="-6.49749897"><ele>1456</ele><speed>5.75</speed><time>2016-06-21T17:26:42Z</time><pdop>3.0</pdop><geoidheight>54.00</geoidheight><course>123.7</course><type>1</type></trkpt>
      <trkpt lat="39.86044627" lon="-6.49744635"><ele>1456</ele><speed>5.75</speed><time>2016-06-21T17:26:44Z</time><pdop>4.0</pdop><geoidheight>54.00</geoidheight><course>163.1</course><type>1</type></trkpt>
      <trkpt lat="39.86032428" lon="-6.49748648"><ele>1454</ele><speed>7.25</speed><time>2016-06-21T17:26:46Z</time><pdop>3.0</pdop><geoidheight>54.00</geoidheight><course>197.4</course><type>1</type></trkpt>
      <trkpt lat="39.86018976" lon="-6.49759895"><ele>1451</ele><speed>9.50</speed><time>2016-06-21T17:26:48Z</time><pdop>3.0</pdop><geoidheight>54.00</geoidheight><course>215.5</course><type>1</type></trkpt>
      <trkpt lat="39.86012504" lon="-6.49768422"><ele>1451</ele><speed>10.00</speed><time>2016-06-21T17:26:49Z</time><pdop>3.0</pdop><geoidheight>54.00</geoidheight><course>224.6</course><type>1</type></trkpt>
      <trkpt lat="39.86006891" lon="-6.4977872"><ele>1451</ele><speed>10.50</speed><time>2016-06-21T17:26:50Z</time><pdop>3.0</pdop><geoidheight>54.00</geoidheight><course>232.7</course><type>1</type></trkpt>
      <trkpt lat="39.85999369" lon="-6.4980117"><ele>1452</ele><speed>10.50</speed><time>2016-06-21T17:26:52Z</time><pdop>3.0</pdop><geoidheight>54.00</geoidheight><course>249.7</course><type>1</type></trkpt>
      <trkpt lat="39.8599774" lon="-6.49814085"><ele>1451</ele><speed>11.00</speed><time>2016-06-21T17:26:53Z</time><pdop>3.0</pdop><geoidheight>54.00</geoidheight><course>258.9</course><type>1</type></trkpt>
      <trkpt lat="39.85997367" lon="-6.49827829"><ele>1451</ele><speed>11.75</speed><time>2016-06-21T17:26:54Z</time><pdop>3.0</pdop><geoidheight>54.00</geoidheight><course>267.3</course><type>1</type></trkpt>
      <trkpt lat="39.86003119" lon="-6.49856061"><ele>1450</ele><speed>12.50</speed><time>2016-06-21T17:26:56Z</time><pdop>3.0</pdop><geoidheight>54.00</geoidheight><course>287.9</course><type>1</type></trkpt>
      <trkpt lat="39.86008537" lon="-6.49868256"><ele>1450</ele><speed>12.50</speed><time>2016-06-21T17:26:57Z</time><pdop>3.0</pdop><geoidheight>54.00</geoidheight><course>299.4</course><type>1</type></trkpt>
      <trkpt lat="39.86015708" lon="-6.49878499"><ele>1451</ele><speed>12.00</speed><time>2016-06-21T17:26:58Z</time><pdop>3.0</pdop><geoidheight>54.00</geoidheight><course>310.4</course><type>1</type></trkpt>
      <trkpt lat="39.86031992" lon="-6.49894298"><ele>1452</ele><speed>11.00</speed><time>2016-06-21T17:27:00Z</time><pdop>4.0</pdop><geoidheight>54.00</geoidheight><course>324.8</course><type>1</type></trkpt>
      <trkpt lat="39.8604876" lon="-6.49903898"><ele>1451</ele><speed>10.25</speed><time>2016-06-21T17:27:02Z</time><pdop>3.0</pdop><geoidheight>54.00</geoidheight><course>337.8</course><type>1</type></trkpt>
      <trkpt lat="39.86057633" lon="-6.49906157"><ele>1450</ele><speed>10.25</speed><time>2016-06-21T17:27:03Z</time><pdop>3.0</pdop><geoidheight>54.00</geoidheight><course>345.9</course><type>1</type></trkpt>
      <trkpt lat="39.86066626" lon="-6.49906695"><ele>1449</ele><speed>10.00</speed><time>2016-06-21T17:27:04Z</time><pdop>3.0</pdop><geoidheight>54.00</geoidheight><course>356.8</course><type>1</type></trkpt>
      <trkpt lat="39.86083002" lon="-6.49900541"><ele>1448</ele><speed>9.50</speed><time>2016-06-21T17:27:06Z</time><pdop>3.0</pdop><geoidheight>54.00</geoidheight><course>18.5</course><type>1</type></trkpt>
      <trkpt lat="39.86089998" lon="-6.49896003"><ele>1449</ele><speed>8.75</speed><time>2016-06-21T17:27:07Z</time><pdop>3.0</pdop><geoidheight>54.00</geoidheight><course>25.2</course><type>1</type></trkpt>
      <trkpt lat="39.8610021" lon="-6.49887814"><ele>1451</ele><speed>6.00</speed><time>2016-06-21T17:27:09Z</time><pdop>3.0</pdop><geoidheight>54.00</geoidheight><course>32.9</course><type>1</type></trkpt>
      <trkpt lat="39.86105627" lon="-6.49879332"><ele>1451</ele><speed>4.75</speed><time>2016-06-21T17:27:11Z</time><pdop>4.0</pdop><geoidheight>54.00</geoidheight><course>53.2</course><type>1</type></trkpt>
      <trkpt lat="39.86105968" lon="-6.49863106"><ele>1449</ele><speed>4.75</speed><time>2016-06-21T17:27:14Z</time><pdop>3.0</pdop><geoidheight>54.00</geoidheight><course>103.6</course><type>1</type></trkpt>
      <trkpt lat="39.86100105" lon="-6.49854261"><ele>1447</ele><speed>5.00</speed><time>2016-06-21T17:27:16Z</time><pdop>3.0</pdop><geoidheight>54.00</geoidheight><course>137.8</course><type>1</type></trkpt>
      <trkpt lat="39.86090325" lon="-6.49851382"><ele>1445</ele><speed>6.00</speed><time>2016-06-21T17:27:18Z</time><pdop>4.0</pdop><geoidheight>54.00</geoidheight><course>173.3</course><type>1</type></trkpt>
      <trkpt lat="39.86077414" lon="-6.49852883"><ele>1442</ele><speed>7.25</speed><time>2016-06-21T17:27:20Z</time><pdop>3.0</pdop><geoidheight>54.00</geoidheight><course>185.3</course><type>1</type></trkpt>
      <trkpt lat="39.8606282" lon="-6.49859175"><ele>1440</ele><speed>8.75</speed><time>2016-06-21T17:27:22Z</time><pdop>3.0</pdop><geoidheight>54.00</geoidheight><course>202.0</course><type>1</type></trkpt>
      <trkpt lat="39.8605574" lon="-6.49866349"><ele>1439</ele><speed>10.25</speed><time>2016-06-21T17:27:23Z</time><pdop>3.0</pdop><geoidheight>54.00</geoidheight><course>217.4</course><type>1</type></trkpt>
      <trkpt lat="39.86049336" lon="-6.49876766"><ele>1439</ele><speed>11.25</speed><time>2016-06-21T17:27:24Z</time><pdop>3.0</pdop><geoidheight>54.00</geoidheight><course>229.9</course><type>1</type></trkpt>
      <trkpt lat="39.86040266" lon="-6.49899146"><ele>1438</ele><speed>10.75</speed><time>2016-06-21T17:27:26Z</time><pdop>3.0</pdop><geoidheight>54.00</geoidheight><course>243.1</course><type>1</type></trkpt>
      <trkpt lat="39.86037055" lon="-6.49910468"><ele>1437</ele><speed>10.00</speed><time>2016-06-21T17:27:27Z</time><pdop>3.0</pdop><geoidheight>54.00</geoidheight><course>248.6</course><type>1</type></trkpt>
      <trkpt lat="39.86034654" lon="-6.49922684"><ele>1436</ele><speed>10.50</speed><time>2016-06-21T17:27:28Z</time><pdop>3.0</pdop><geoidheight>54.00</geoidheight><course>255.6</course><type>1</type></trkpt>
      <trkpt lat="39.86035527" lon="-6.49953312"><ele>1432</ele><speed>13.50</speed><time>2016-06-21T17:27:30Z</time><pdop>3.0</pdop><geoidheight>54.00</geoidheight><course>274.9</course><type>1</type></trkpt>
      <trkpt lat="39.86039512" lon="-6.49968927"><ele>1432</ele><speed>14.00</speed><time>2016-06-21T17:27:31Z</time><pdop>3.0</pdop><geoidheight>54.00</geoidheight><course>286.6</course><type>1</type></trkpt>
      <trkpt lat="39.8604576" lon="-6.4998215"><ele>1432</ele><speed>13.25</speed><time>2016-06-21T17:27:32Z</time><pdop>3.0</pdop><geoidheight>54.00</geoidheight><course>299.5</course><type>1</type></trkpt>
      <trkpt lat="39.86053883" lon="-6.49991935"><ele>1431</ele><speed>12.25</speed><time>2016-06-21T17:27:33Z</time><pdop>3.0</pdop><geoidheight>54.00</geoidheight><course>313.5</course><type>1</type></trkpt>
      <trkpt lat="39.86062456" lon="-6.49999196"><ele>1430</ele><speed>11.75</speed><time>2016-06-21T17:27:34Z</time><pdop>3.0</pdop><geoidheight>54.00</geoidheight><course>325.7</course><type>1</type></trkpt>
      <trkpt lat="39.8608121" lon="-6.50010501"><ele>1427</ele><speed>11.75</speed><time>2016-06-21T17:27:36Z</time><pdop>3.0</pdop><geoidheight>54.00</geoidheight><course>336.3</course><type>1</type></trkpt>
      <trkpt lat="39.86091355" lon="-6.50015426"><ele>1426</ele><speed>12.00</speed><time>2016-06-21T17:27:37Z</time><pdop>3.0</pdop><geoidheight>54.00</geoidheight><course>339.4</course><type>1</type></trkpt>
      <trkpt lat="39.86101872" lon="-6.50019293"><ele>1425</ele><speed>12.00</speed><time>2016-06-21T17:27:38Z</time><pdop>4.0</pdop><geoidheight>54.00</geoidheight><course>344.0</course><type>1</type></trkpt>
      <trkpt lat="39.86112354" lon="-6.50021595"><ele>1424</ele><speed>11.75</speed><time>2016-06-21T17:27:39Z</time><pdop>4.0</pdop><geoidheight>54.00</geoidheight><course>350.3</course><type>1</type></trkpt>
      <trkpt lat="39.86131326" lon="-6.50021807"><ele>1424</ele><speed>10.25</speed><time>2016-06-21T17:27:41Z</time><pdop>3.0</pdop><geoidheight>54.00</geoidheight><course>357.5</course><type>1</type></trkpt>
      <trkpt lat="39.86140592" lon="-6.50024023"><ele>1423</ele><speed>10.50</speed><time>2016-06-21T17:27:42Z</time><pdop>3.0</pdop><geoidheight>54.00</geoidheight><course>351.9</course><type>1</type></trkpt>
      <trkpt lat="39.86150044" lon="-6.50027219"><ele>1423</ele><speed>10.75</speed><time>2016-06-21T17:27:43Z</time><pdop>4.0</pdop><geoidheight>54.00</geoidheight><course>347.4</course><type>1</type></trkpt>
      <trkpt lat="39.861692239999996" lon="-6.50031175"><ele>1421</ele><speed>11.00</speed><time>2016-06-21T17:27:45Z</time><pdop>3.0</pdop><geoidheight>54.00</geoidheight><course>352.6</course><type>1</type></trkpt>
      <trkpt lat="39.86187243" lon="-6.50032858"><ele>1419</ele><speed>9.75</speed><time>2016-06-21T17:27:47Z</time><pdop>3.0</pdop><geoidheight>54.00</geoidheight><course>354.6</course><type>1</type></trkpt>
      <trkpt lat="39.86204756" lon="-6.50037214"><ele>1417</ele><speed>10.25</speed><time>2016-06-21T17:27:49Z</time><pdop>3.0</pdop><geoidheight>54.00</geoidheight><course>348.4</course><type>1</type></trkpt>
      <trkpt lat="39.86214014" lon="-6.50039788"><ele>1416</ele><speed>10.75</speed><time>2016-06-21T17:27:50Z</time><pdop>3.0</pdop><geoidheight>54.00</geoidheight><course>348.5</course><type>1</type></trkpt>
      <trkpt lat="39.86223684" lon="-6.50041917"><ele>1416</ele><speed>10.50</speed><time>2016-06-21T17:27:51Z</time><pdop>4.0</pdop><geoidheight>54.00</geoidheight><course>350.4</course><type>1</type></trkpt>
      <trkpt lat="39.86241793" lon="-6.50044104"><ele>1416</ele><speed>10.00</speed><time>2016-06-21T17:27:53Z</time><pdop>4.0</pdop><geoidheight>54.00</geoidheight><course>355.0</course><type>1</type></trkpt>
      <trkpt lat="39.86250781" lon="-6.5004564"><ele>1416</ele><speed>10.25</speed><time>2016-06-21T17:27:54Z</time><pdop>3.0</pdop><geoidheight>54.00</geoidheight><course>352.8</course><type>1</type></trkpt>
      <trkpt lat="39.86269458" lon="-6.50050068"><ele>1415</ele><speed>10.50</speed><time>2016-06-21T17:27:56Z</time><pdop>3.0</pdop><geoidheight>54.00</geoidheight><course>347.9</course><type>1</type></trkpt>
      <trkpt lat="39.86278399" lon="-6.50052452"><ele>1415</ele><speed>10.00</speed><time>2016-06-21T17:27:57Z</time><pdop>3.0</pdop><geoidheight>54.00</geoidheight><course>348.3</course><type>1</type></trkpt>
      <trkpt lat="39.86286966" lon="-6.50054779"><ele>1416</ele><speed>9.75</speed><time>2016-06-21T17:27:58Z</time><pdop>4.0</pdop><geoidheight>54.00</geoidheight><course>348.6</course><type>1</type></trkpt>
      <trkpt lat="39.86303657" lon="-6.50059406"><ele>1416</ele><speed>9.50</speed><time>2016-06-21T17:28:00Z</time><pdop>6.0</pdop><geoidheight>54.00</geoidheight><course>347.9</course><type>1</type></trkpt>
      <trkpt lat="39.86312667" lon="-6.50062377"><ele>1416</ele><speed>10.25</speed><time>2016-06-21T17:28:01Z</time><pdop>3.0</pdop><geoidheight>54.00</geoidheight><course>347.4</course><type>1</type></trkpt>
      <trkpt lat="39.8632119" lon="-6.50064801"><ele>1416</ele><speed>9.75</speed><time>2016-06-21T17:28:02Z</time><pdop>3.0</pdop><geoidheight>54.00</geoidheight><course>347.1</course><type>1</type></trkpt>
      <trkpt lat="39.86336093" lon="-6.50070374"><ele>1417</ele><speed>8.75</speed><time>2016-06-21T17:28:04Z</time><pdop>5.0</pdop><geoidheight>54.00</geoidheight><course>343.7</course><type>1</type></trkpt>
      <trkpt lat="39.86351536" lon="-6.50079079"><ele>1417</ele><speed>6.25</speed><time>2016-06-21T17:28:07Z</time><pdop>3.0</pdop><geoidheight>54.00</geoidheight><course>333.4</course><type>1</type></trkpt>
      <trkpt lat="39.86362626" lon="-6.50083289"><ele>1414</ele><speed>5.75</speed><time>2016-06-21T17:28:09Z</time><pdop>3.0</pdop><geoidheight>54.00</geoidheight><course>351.6</course><type>1</type></trkpt>
      <trkpt lat="39.86369587" lon="-6.50078432"><ele>1411</ele><speed>4.75</speed><time>2016-06-21T17:28:11Z</time><pdop>5.0</pdop><geoidheight>54.00</geoidheight><course>24.3</course><type>1</type></trkpt>
      <trkpt lat="39.86363461" lon="-6.50065329"><ele>1408</ele><speed>5.50</speed><time>2016-06-21T17:28:13Z</time><pdop>3.0</pdop><geoidheight>54.00</geoidheight><course>118.7</course><type>1</type></trkpt>
      <trkpt lat="39.86354829" lon="-6.500582"><ele>1408</ele><speed>5.75</speed><time>2016-06-21T17:28:15Z</time><pdop>4.0</pdop><geoidheight>54.00</geoidheight><course>156.6</course><type>1</type></trkpt>
      <trkpt lat="39.86341909" lon="-6.5005712"><ele>1403</ele><speed>7.50</speed><time>2016-06-21T17:28:17Z</time><pdop>3.0</pdop><geoidheight>54.00</geoidheight><course>178.5</course><type>1</type></trkpt>
      <trkpt lat="39.86325419" lon="-6.50058636"><ele>1401</ele><speed>9.75</speed><time>2016-06-21T17:28:19Z</time><pdop>4.0</pdop><geoidheight>54.00</geoidheight><course>184.7</course><type>1</type></trkpt>
      <trkpt lat="39.86317601" lon="-6.50060772"><ele>1401</ele><speed>9.25</speed><time>2016-06-21T17:28:20Z</time><pdop>3.0</pdop><geoidheight>54.00</geoidheight><course>188.8</course><type>1</type></trkpt>
      <trkpt lat="39.86310129" lon="-6.50063044"><ele>1400</ele><speed>8.50</speed><time>2016-06-21T17:28:21Z</time><pdop>3.0</pdop><geoidheight>54.00</geoidheight><course>192.0</course><type>1</type></trkpt>
      <trkpt lat="39.86294817" lon="-6.50068982"><ele>1397</ele><speed>9.25</speed><time>2016-06-21T17:28:23Z</time><pdop>3.0</pdop><geoidheight>54.00</geoidheight><course>197.6</course><type>1</type></trkpt>
      <trkpt lat="39.86286548" lon="-6.50074417"><ele>1396</ele><speed>10.25</speed><time>2016-06-21T17:28:24Z</time><pdop>3.0</pdop><geoidheight>54.00</geoidheight><course>204.5</course><type>1</type></trkpt>
      <trkpt lat="39.86278148" lon="-6.50082402"><ele>1395</ele><speed>11.25</speed><time>2016-06-21T17:28:25Z</time><pdop>3.0</pdop><geoidheight>54.00</geoidheight><course>215.0</course><type>1</type></trkpt>
      <trkpt lat="39.8626414" lon="-6.50106024"><ele>1392</ele><speed>12.75</speed><time>2016-06-21T17:28:27Z</time><pdop>3.0</pdop><geoidheight>54.00</geoidheight><course>235.1</course><type>1</type></trkpt>
      <trkpt lat="39.86259627" lon="-6.50120684"><ele>1392</ele><speed>13.25</speed><time>2016-06-21T17:28:28Z</time><pdop>3.0</pdop><geoidheight>54.00</geoidheight><course>246.3</course><type>1</type></trkpt>
      <trkpt lat="39.86256832" lon="-6.5013632"><ele>1393</ele><speed>13.75</speed><time>2016-06-21T17:28:29Z</time><pdop>3.0</pdop><geoidheight>54.00</geoidheight><course>257.5</course><type>1</type></trkpt>
      <trkpt lat="39.86256586" lon="-6.5015196"><ele>1393</ele><speed>13.25</speed><time>2016-06-21T17:28:30Z</time><pdop>3.0</pdop><geoidheight>54.00</geoidheight><course>267.6</course><type>1</type></trkpt>
      <trkpt lat="39.86257968" lon="-6.50166781"><ele>1393</ele><speed>13.00</speed><time>2016-06-21T17:28:31Z</time><pdop>3.0</pdop><geoidheight>54.00</geoidheight><course>274.6</course><type>1</type></trkpt>
      <trkpt lat="39.86263765" lon="-6.50198468"><ele>1392</ele><speed>14.25</speed><time>2016-06-21T17:28:33Z</time><pdop>3.0</pdop><geoidheight>54.00</geoidheight><course>285.2</course><type>1</type></trkpt>
      <trkpt lat="39.86268723" lon="-6.5021475"><ele>1391</ele><speed>14.75</speed><time>2016-06-21T17:28:34Z</time><pdop>3.0</pdop><geoidheight>54.00</geoidheight><course>290.1</course><type>1</type></trkpt>
      <trkpt lat="39.86274494" lon="-6.5023042"><ele>1391</ele><speed>14.75</speed><time>2016-06-21T17:28:35Z</time><pdop>3.0</pdop><geoidheight>54.00</geoidheight><course>294.9</course><type>1</type></trkpt>
      <trkpt lat="39.86281067" lon="-6.50244301"><ele>1391</ele><speed>14.00</speed><time>2016-06-21T17:28:36Z</time><pdop>3.0</pdop><geoidheight>54.00</geoidheight><course>300.1</course><type>1</type></trkpt>
      <trkpt lat="39.86288031" lon="-6.5025677"><ele>1391</ele><speed>13.25</speed><time>2016-06-21T17:28:37Z</time><pdop>3.0</pdop><geoidheight>54.00</geoidheight><course>304.7</course><type>1</type></trkpt>
      <trkpt lat="39.86295277" lon="-6.50267732"><ele>1390</ele><speed>12.25</speed><time>2016-06-21T17:28:38Z</time><pdop>3.0</pdop><geoidheight>54.00</geoidheight><course>309.7</course><type>1</type></trkpt>
      <trkpt lat="39.86302817" lon="-6.50277111"><ele>1390</ele><speed>12.00</speed><time>2016-06-21T17:28:39Z</time><pdop>3.0</pdop><geoidheight>54.00</geoidheight><course>314.9</course><type>1</type></trkpt>
      <trkpt lat="39.86319363" lon="-6.50294342"><ele>1387</ele><speed>12.00</speed><time>2016-06-21T17:28:41Z</time><pdop>3.0</pdop><geoidheight>54.00</geoidheight><course>323.8</course><type>1</type></trkpt>
      <trkpt lat="39.86328536" lon="-6.50301695"><ele>1385</ele><speed>12.00</speed><time>2016-06-21T17:28:42Z</time><pdop>3.0</pdop><geoidheight>54.00</geoidheight><course>327.9</course><type>1</type></trkpt>
      <trkpt lat="39.86351408" lon="-6.50320031"><ele>1348</ele><speed>12.25</speed><time>2016-06-21T17:28:44Z</time><pdop>9.0</pdop><geoidheight>54.00</geoidheight><course>327.6</course><type>1</type></trkpt>
      <trkpt lat="39.86378028" lon="-6.50341394"><ele>1413</ele><speed>12.25</speed><time>2016-06-21T17:28:46Z</time><pdop>9.0</pdop><geoidheight>54.00</geoidheight><course>327.7</course><type>1</type></trkpt>
      <trkpt lat="39.86392386" lon="-6.50347446"><ele>1380</ele><speed>8.75</speed><time>2016-06-21T17:28:50Z</time><pdop>3.0</pdop><geoidheight>54.00</geoidheight><course>329.3</course><type>1</type></trkpt>
      <trkpt lat="39.86401203" lon="-6.50351761"><ele>1381</ele><speed>8.25</speed><time>2016-06-21T17:28:51Z</time><pdop>3.0</pdop><geoidheight>54.00</geoidheight><course>328.5</course><type>1</type></trkpt>
      <trkpt lat="39.86416903" lon="-6.50361921"><ele>1377</ele><speed>9.25</speed><time>2016-06-21T17:28:53Z</time><pdop>3.0</pdop><geoidheight>54.00</geoidheight><course>337.4</course><type>1</type></trkpt>
      <trkpt lat="39.86432955" lon="-6.50368783"><ele>1378</ele><speed>9.25</speed><time>2016-06-21T17:28:55Z</time><pdop>4.0</pdop><geoidheight>54.00</geoidheight><course>340.2</course><type>1</type></trkpt>
      <trkpt lat="39.86439932" lon="-6.50371926"><ele>1377</ele><speed>9.00</speed><time>2016-06-21T17:28:56Z</time><pdop>4.0</pdop><geoidheight>54.00</geoidheight><course>340.1</course><type>1</type></trkpt>
      <trkpt lat="39.86447701" lon="-6.50375079"><ele>1377</ele><speed>9.00</speed><time>2016-06-21T17:28:57Z</time><pdop>3.0</pdop><geoidheight>54.00</geoidheight><course>339.7</course><type>1</type></trkpt>
      <trkpt lat="39.8645639" lon="-6.5037981"><ele>1377</ele><speed>9.25</speed><time>2016-06-21T17:28:58Z</time><pdop>3.0</pdop><geoidheight>54.00</geoidheight><course>338.5</course><type>1</type></trkpt>
      <trkpt lat="39.86472112" lon="-6.5038835"><ele>1377</ele><speed>9.50</speed><time>2016-06-21T17:29:00Z</time><pdop>4.0</pdop><geoidheight>54.00</geoidheight><course>342.7</course><type>1</type></trkpt>
      <trkpt lat="39.86486745" lon="-6.50391157"><ele>1377</ele><speed>8.50</speed><time>2016-06-21T17:29:02Z</time><pdop>4.0</pdop><geoidheight>54.00</geoidheight><course>350.5</course><type>1</type></trkpt>
      <trkpt lat="39.86494097" lon="-6.50393343"><ele>1377</ele><speed>8.00</speed><time>2016-06-21T17:29:03Z</time><pdop>4.0</pdop><geoidheight>54.00</geoidheight><course>346.2</course><type>1</type></trkpt>
      <trkpt lat="39.86501496" lon="-6.50396664"><ele>1378</ele><speed>8.50</speed><time>2016-06-21T17:29:04Z</time><pdop>3.0</pdop><geoidheight>54.00</geoidheight><course>340.3</course><type>1</type></trkpt>
      <trkpt lat="39.86508101" lon="-6.50401104"><ele>1378</ele><speed>8.75</speed><time>2016-06-21T17:29:05Z</time><pdop>4.0</pdop><geoidheight>54.00</geoidheight><course>334.3</course><type>1</type></trkpt>
      <trkpt lat="39.86515604" lon="-6.50407163"><ele>1379</ele><speed>9.25</speed><time>2016-06-21T17:29:06Z</time><pdop>3.0</pdop><geoidheight>54.00</geoidheight><course>327.7</course><type>1</type></trkpt>
      <trkpt lat="39.86529941" lon="-6.5042425"><ele>1380</ele><speed>11.00</speed><time>2016-06-21T17:29:08Z</time><pdop>4.0</pdop><geoidheight>54.00</geoidheight><course>314.4</course><type>1</type></trkpt>
      <trkpt lat="39.86540066" lon="-6.50450896"><ele>1379</ele><speed>12.75</speed><time>2016-06-21T17:29:10Z</time><pdop>3.0</pdop><geoidheight>54.00</geoidheight><course>291.5</course><type>1</type></trkpt>
      <trkpt lat="39.86542607" lon="-6.50466415"><ele>1379</ele><speed>13.50</speed><time>2016-06-21T17:29:11Z</time><pdop>3.0</pdop><geoidheight>54.00</geoidheight><course>284.2</course><type>1</type></trkpt>
      <trkpt lat="39.8654602" lon="-6.50482053"><ele>1379</ele><speed>13.25</speed><time>2016-06-21T17:29:12Z</time><pdop>3.0</pdop><geoidheight>54.00</geoidheight><course>283.4</course><type>1</type></trkpt>
      <trkpt lat="39.86554421" lon="-6.5050919"><ele>1379</ele><speed>12.00</speed><time>2016-06-21T17:29:14Z</time><pdop>3.0</pdop><geoidheight>54.00</geoidheight><course>292.5</course><type>1</type></trkpt>
      <trkpt lat="39.86559287" lon="-6.50520417"><ele>1378</ele><speed>11.25</speed><time>2016-06-21T17:29:15Z</time><pdop>3.0</pdop><geoidheight>54.00</geoidheight><course>298.8</course><type>1</type></trkpt>
      <trkpt lat="39.86564554" lon="-6.50530149"><ele>1377</ele><speed>10.25</speed><time>2016-06-21T17:29:16Z</time><pdop>3.0</pdop><geoidheight>54.00</geoidheight><course>304.1</course><type>1</type></trkpt>
      <trkpt lat="39.86576609" lon="-6.50545809"><ele>1373</ele><speed>9.50</speed><time>2016-06-21T17:29:18Z</time><pdop>3.0</pdop><geoidheight>54.00</geoidheight><course>320.8</course><type>1</type></trkpt>
      <trkpt lat="39.86583893" lon="-6.50550879"><ele>1371</ele><speed>9.00</speed><time>2016-06-21T17:29:19Z</time><pdop>3.0</pdop><geoidheight>54.00</geoidheight><course>330.7</course><type>1</type></trkpt>
      <trkpt lat="39.86591471" lon="-6.50554514"><ele>1370</ele><speed>9.00</speed><time>2016-06-21T17:29:20Z</time><pdop>3.0</pdop><geoidheight>54.00</geoidheight><course>340.6</course><type>1</type></trkpt>
      <trkpt lat="39.86607183" lon="-6.50557618"><ele>1367</ele><speed>8.75</speed><time>2016-06-21T17:29:22Z</time><pdop>3.0</pdop><geoidheight>54.00</geoidheight><course>351.1</course><type>1</type></trkpt>
      <trkpt lat="39.86614765" lon="-6.50559455"><ele>1365</ele><speed>8.50</speed><time>2016-06-21T17:29:23Z</time><pdop>3.0</pdop><geoidheight>54.00</geoidheight><course>350.5</course><type>1</type></trkpt>
      <trkpt lat="39.86622323" lon="-6.5056062"><ele>1364</ele><speed>8.50</speed><time>2016-06-21T17:29:24Z</time><pdop>4.0</pdop><geoidheight>54.00</geoidheight><course>351.5</course><type>1</type></trkpt>
      <trkpt lat="39.86637453" lon="-6.50560287"><ele>1360</ele><speed>8.50</speed><time>2016-06-21T17:29:26Z</time><pdop>4.0</pdop><geoidheight>54.00</geoidheight><course>2.2</course><type>1</type></trkpt>
      <trkpt lat="39.86644914" lon="-6.50559516"><ele>1359</ele><speed>8.25</speed><time>2016-06-21T17:29:27Z</time><pdop>3.0</pdop><geoidheight>54.00</geoidheight><course>3.6</course><type>1</type></trkpt>
      <trkpt lat="39.86652337" lon="-6.50559795"><ele>1359</ele><speed>8.25</speed><time>2016-06-21T17:29:28Z</time><pdop>3.0</pdop><geoidheight>54.00</geoidheight><course>0.1</course><type>1</type></trkpt>
      <trkpt lat="39.86667091" lon="-6.50561154"><ele>1356</ele><speed>8.00</speed><time>2016-06-21T17:29:30Z</time><pdop>4.0</pdop><geoidheight>54.00</geoidheight><course>356.4</course><type>1</type></trkpt>
      <trkpt lat="39.86680257" lon="-6.50558495"><ele>1352</ele><speed>7.25</speed><time>2016-06-21T17:29:32Z</time><pdop>3.0</pdop><geoidheight>54.00</geoidheight><course>11.6</course><type>1</type></trkpt>
      <trkpt lat="39.86693567" lon="-6.50552365"><ele>1348</ele><speed>8.25</speed><time>2016-06-21T17:29:34Z</time><pdop>3.0</pdop><geoidheight>54.00</geoidheight><course>18.7</course><type>1</type></trkpt>
      <trkpt lat="39.86701093" lon="-6.50549999"><ele>1347</ele><speed>8.50</speed><time>2016-06-21T17:29:35Z</time><pdop>3.0</pdop><geoidheight>54.00</geoidheight><course>13.4</course><type>1</type></trkpt>
      <trkpt lat="39.86708697" lon="-6.50548658"><ele>1347</ele><speed>8.50</speed><time>2016-06-21T17:29:36Z</time><pdop>3.0</pdop><geoidheight>54.00</geoidheight><course>7.6</course><type>1</type></trkpt>
      <trkpt lat="39.86721994" lon="-6.50547578"><ele>1346</ele><speed>7.00</speed><time>2016-06-21T17:29:38Z</time><pdop>3.0</pdop><geoidheight>54.00</geoidheight><course>2.7</course><type>1</type></trkpt>
      <trkpt lat="39.86727831" lon="-6.50547138"><ele>1345</ele><speed>6.50</speed><time>2016-06-21T17:29:39Z</time><pdop>3.0</pdop><geoidheight>54.00</geoidheight><course>3.3</course><type>1</type></trkpt>
      <trkpt lat="39.86734435" lon="-6.50546471"><ele>1342</ele><speed>7.25</speed><time>2016-06-21T17:29:40Z</time><pdop>3.0</pdop><geoidheight>54.00</geoidheight><course>4.5</course><type>1</type></trkpt>
      <trkpt lat="39.8674948" lon="-6.50543143"><ele>1338</ele><speed>8.75</speed><time>2016-06-21T17:29:42Z</time><pdop>3.0</pdop><geoidheight>54.00</geoidheight><course>10.1</course><type>1</type></trkpt>
      <trkpt lat="39.86756868" lon="-6.50541134"><ele>1337</ele><speed>8.50</speed><time>2016-06-21T17:29:43Z</time><pdop>3.0</pdop><geoidheight>54.00</geoidheight><course>10.3</course><type>1</type></trkpt>
      <trkpt lat="39.86764039" lon="-6.50539885"><ele>1336</ele><speed>8.00</speed><time>2016-06-21T17:29:44Z</time><pdop>3.0</pdop><geoidheight>54.00</geoidheight><course>6.8</course><type>1</type></trkpt>
      <trkpt lat="39.86777292" lon="-6.50539854"><ele>1333</ele><speed>7.00</speed><time>2016-06-21T17:29:46Z</time><pdop>4.0</pdop><geoidheight>54.00</geoidheight><course>359.2</course><type>1</type></trkpt>
      <trkpt lat="39.86785582" lon="-6.50540382"><ele>1331</ele><speed>8.25</speed><time>2016-06-21T17:29:47Z</time><pdop>4.0</pdop><geoidheight>54.00</geoidheight><course>358.2</course><type>1</type></trkpt>
      <trkpt lat="39.86793585" lon="-6.50539837"><ele>1328</ele><speed>8.75</speed><time>2016-06-21T17:29:48Z</time><pdop>3.0</pdop><geoidheight>54.00</geoidheight><course>2.3</course><type>1</type></trkpt>
      <trkpt lat="39.86807534" lon="-6.5053599"><ele>1323</ele><speed>7.50</speed><time>2016-06-21T17:29:50Z</time><pdop>3.0</pdop><geoidheight>54.00</geoidheight><course>15.7</course><type>1</type></trkpt>
      <trkpt lat="39.86813914" lon="-6.50532999"><ele>1321</ele><speed>7.50</speed><time>2016-06-21T17:29:51Z</time><pdop>3.0</pdop><geoidheight>54.00</geoidheight><course>20.3</course><type>1</type></trkpt>
      <trkpt lat="39.86820208" lon="-6.50530181"><ele>1319</ele><speed>7.50</speed><time>2016-06-21T17:29:52Z</time><pdop>3.0</pdop><geoidheight>54.00</geoidheight><course>19.9</course><type>1</type></trkpt>
      <trkpt lat="39.86833137" lon="-6.5052494"><ele>1316</ele><speed>7.50</speed><time>2016-06-21T17:29:54Z</time><pdop>3.0</pdop><geoidheight>54.00</geoidheight><course>16.9</course><type>1</type></trkpt>
      <trkpt lat="39.86839359" lon="-6.50522264"><ele>1314</ele><speed>7.25</speed><time>2016-06-21T17:29:55Z</time><pdop>3.0</pdop><geoidheight>54.00</geoidheight><course>18.6</course><type>1</type></trkpt>
      <trkpt lat="39.86845605" lon="-6.50519107"><ele>1311</ele><speed>7.00</speed><time>2016-06-21T17:29:56Z</time><pdop>3.0</pdop><geoidheight>54.00</geoidheight><course>20.6</course><type>1</type></trkpt>
      <trkpt lat="39.86857888" lon="-6.50511942"><ele>1307</ele><speed>7.75</speed><time>2016-06-21T17:29:58Z</time><pdop>3.0</pdop><geoidheight>54.00</geoidheight><course>24.4</course><type>1</type></trkpt>
      <trkpt lat="39.86864269" lon="-6.50507929"><ele>1305</ele><speed>8.00</speed><time>2016-06-21T17:29:59Z</time><pdop>3.0</pdop><geoidheight>54.00</geoidheight><course>25.6</course><type>1</type></trkpt>
      <trkpt lat="39.86875979" lon="-6.50500233"><ele>1303</ele><speed>7.25</speed><time>2016-06-21T17:30:01Z</time><pdop>3.0</pdop><geoidheight>54.00</geoidheight><course>25.5</course><type>1</type></trkpt>
      <trkpt lat="39.86881239" lon="-6.50496565"><ele>1302</ele><speed>6.75</speed><time>2016-06-21T17:30:02Z</time><pdop>3.0</pdop><geoidheight>54.00</geoidheight><course>28.3</course><type>1</type></trkpt>
      <trkpt lat="39.86886628" lon="-6.50492559"><ele>1300</ele><speed>7.00</speed><time>2016-06-21T17:30:03Z</time><pdop>3.0</pdop><geoidheight>54.00</geoidheight><course>30.5</course><type>1</type></trkpt>
      <trkpt lat="39.86899045" lon="-6.50483012"><ele>1296</ele><speed>8.25</speed><time>2016-06-21T17:30:05Z</time><pdop>3.0</pdop><geoidheight>54.00</geoidheight><course>30.5</course><type>1</type></trkpt>
      <trkpt lat="39.86905582" lon="-6.50478324"><ele>1297</ele><speed>8.25</speed><time>2016-06-21T17:30:06Z</time><pdop>3.0</pdop><geoidheight>54.00</geoidheight><course>29.9</course><type>1</type></trkpt>
      <trkpt lat="39.86918904" lon="-6.50469595"><ele>1293</ele><speed>8.50</speed><time>2016-06-21T17:30:08Z</time><pdop>4.0</pdop><geoidheight>54.00</geoidheight><course>27.3</course><type>1</type></trkpt>
      <trkpt lat="39.86931237" lon="-6.50459095"><ele>1291</ele><speed>8.50</speed><time>2016-06-21T17:30:10Z</time><pdop>4.0</pdop><geoidheight>54.00</geoidheight><course>33.0</course><type>1</type></trkpt>
      <trkpt lat="39.86943143" lon="-6.50446014"><ele>1290</ele><speed>9.00</speed><time>2016-06-21T17:30:12Z</time><pdop>5.0</pdop><geoidheight>54.00</geoidheight><course>41.4</course><type>1</type></trkpt>
      <trkpt lat="39.86954588" lon="-6.50439416"><ele>1284</ele><speed>7.50</speed><time>2016-06-21T17:30:14Z</time><pdop>3.0</pdop><geoidheight>54.00</geoidheight><course>31.0</course><type>1</type></trkpt>
      <trkpt lat="39.86959659" lon="-6.50435236"><ele>1280</ele><speed>7.50</speed><time>2016-06-21T17:30:15Z</time><pdop>3.0</pdop><geoidheight>54.00</geoidheight><course>33.7</course><type>1</type></trkpt>
      <trkpt lat="39.8697111" lon="-6.50424672"><ele>1275</ele><speed>7.50</speed><time>2016-06-21T17:30:17Z</time><pdop>3.0</pdop><geoidheight>54.00</geoidheight><course>37.0</course><type>1</type></trkpt>
      <trkpt lat="39.86976753" lon="-6.50419189"><ele>1273</ele><speed>7.75</speed><time>2016-06-21T17:30:18Z</time><pdop>4.0</pdop><geoidheight>54.00</geoidheight><course>35.4</course><type>1</type></trkpt>
      <trkpt lat="39.86983239" lon="-6.5041418"><ele>1271</ele><speed>8.25</speed><time>2016-06-21T17:30:19Z</time><pdop>4.0</pdop><geoidheight>54.00</geoidheight><course>32.7</course><type>1</type></trkpt>
      <trkpt lat="39.86995871" lon="-6.50404789"><ele>1268</ele><speed>8.25</speed><time>2016-06-21T17:30:21Z</time><pdop>4.0</pdop><geoidheight>54.00</geoidheight><course>29.7</course><type>1</type></trkpt>
      <trkpt lat="39.87002306" lon="-6.50399786"><ele>1267</ele><speed>8.50</speed><time>2016-06-21T17:30:22Z</time><pdop>4.0</pdop><geoidheight>54.00</geoidheight><course>30.1</course><type>1</type></trkpt>
      <trkpt lat="39.87014342" lon="-6.50392645"><ele>1260</ele><speed>7.75</speed><time>2016-06-21T17:30:24Z</time><pdop>4.0</pdop><geoidheight>54.00</geoidheight><course>25.8</course><type>1</type></trkpt>
      <trkpt lat="39.87020106" lon="-6.50388667"><ele>1256</ele><speed>8.00</speed><time>2016-06-21T17:30:25Z</time><pdop>3.0</pdop><geoidheight>54.00</geoidheight><course>26.9</course><type>1</type></trkpt>
      <trkpt lat="39.87032754" lon="-6.50379329"><ele>1251</ele><speed>8.50</speed><time>2016-06-21T17:30:27Z</time><pdop>3.0</pdop><geoidheight>54.00</geoidheight><course>29.7</course><type>1</type></trkpt>
      <trkpt lat="39.8703938" lon="-6.50374802"><ele>1249</ele><speed>8.25</speed><time>2016-06-21T17:30:28Z</time><pdop>3.0</pdop><geoidheight>54.00</geoidheight><course>29.0</course><type>1</type></trkpt>
      <trkpt lat="39.87051948" lon="-6.50366413"><ele>1244</ele><speed>7.75</speed><time>2016-06-21T17:30:30Z</time><pdop>3.0</pdop><geoidheight>54.00</geoidheight><course>24.3</course><type>1</type></trkpt>
      <trkpt lat="39.87058124" lon="-6.5036277"><ele>1241</ele><speed>7.75</speed><time>2016-06-21T17:30:31Z</time><pdop>3.0</pdop><geoidheight>54.00</geoidheight><course>23.2</course><type>1</type></trkpt>
      <trkpt lat="39.87070802" lon="-6.50354655"><ele>1235</ele><speed>8.50</speed><time>2016-06-21T17:30:33Z</time><pdop>3.0</pdop><geoidheight>54.00</geoidheight><course>25.8</course><type>1</type></trkpt>
      <trkpt lat="39.8707766" lon="-6.50350751"><ele>1233</ele><speed>8.50</speed><time>2016-06-21T17:30:34Z</time><pdop>3.0</pdop><geoidheight>54.00</geoidheight><course>25.2</course><type>1</type></trkpt>
      <trkpt lat="39.87084693" lon="-6.50346584"><ele>1230</ele><speed>8.25</speed><time>2016-06-21T17:30:35Z</time><pdop>3.0</pdop><geoidheight>54.00</geoidheight><course>24.9</course><type>1</type></trkpt>
      <trkpt lat="39.87097676" lon="-6.50338815"><ele>1226</ele><speed>8.25</speed><time>2016-06-21T17:30:37Z</time><pdop>3.0</pdop><geoidheight>54.00</geoidheight><course>24.1</course><type>1</type></trkpt>
      <trkpt lat="39.87104401" lon="-6.50334911"><ele>1224</ele><speed>8.25</speed><time>2016-06-21T17:30:38Z</time><pdop>5.0</pdop><geoidheight>54.00</geoidheight><course>24.1</course><type>1</type></trkpt>
      <trkpt lat="39.87119663" lon="-6.50327259"><ele>1221</ele><speed>9.00</speed><time>2016-06-21T17:30:40Z</time><pdop>4.0</pdop><geoidheight>54.00</geoidheight><course>22.0</course><type>1</type></trkpt>
      <trkpt lat="39.87134087" lon="-6.50320738"><ele>1218</ele><speed>8.50</speed><time>2016-06-21T17:30:42Z</time><pdop>3.0</pdop><geoidheight>54.00</geoidheight><course>18.7</course><type>1</type></trkpt>
      <trkpt lat="39.87140784" lon="-6.50317703"><ele>1216</ele><speed>8.25</speed><time>2016-06-21T17:30:43Z</time><pdop>3.0</pdop><geoidheight>54.00</geoidheight><course>17.8</course><type>1</type></trkpt>
      <trkpt lat="39.8714814" lon="-6.50314567"><ele>1213</ele><speed>8.50</speed><time>2016-06-21T17:30:44Z</time><pdop>3.0</pdop><geoidheight>54.00</geoidheight><course>17.8</course><type>1</type></trkpt>
      <trkpt lat="39.87163628" lon="-6.50309396"><ele>1210</ele><speed>9.00</speed><time>2016-06-21T17:30:46Z</time><pdop>3.0</pdop><geoidheight>54.00</geoidheight><course>13.3</course><type>1</type></trkpt>
      <trkpt lat="39.8717177" lon="-6.50307346"><ele>1209</ele><speed>9.00</speed><time>2016-06-21T17:30:47Z</time><pdop>3.0</pdop><geoidheight>54.00</geoidheight><course>10.9</course><type>1</type></trkpt>
      <trkpt lat="39.87179972" lon="-6.50305386"><ele>1207</ele><speed>9.00</speed><time>2016-06-21T17:30:48Z</time><pdop>3.0</pdop><geoidheight>54.00</geoidheight><course>12.2</course><type>1</type></trkpt>
      <trkpt lat="39.87194479" lon="-6.50299249"><ele>1205</ele><speed>8.50</speed><time>2016-06-21T17:30:50Z</time><pdop>3.0</pdop><geoidheight>54.00</geoidheight><course>17.7</course><type>1</type></trkpt>
      <trkpt lat="39.87201603" lon="-6.50296134"><ele>1203</ele><speed>8.50</speed><time>2016-06-21T17:30:51Z</time><pdop>3.0</pdop><geoidheight>54.00</geoidheight><course>19.4</course><type>1</type></trkpt>
      <trkpt lat="39.87208157" lon="-6.50292878"><ele>1201</ele><speed>8.75</speed><time>2016-06-21T17:30:52Z</time><pdop>3.0</pdop><geoidheight>54.00</geoidheight><course>19.6</course><type>1</type></trkpt>
      <trkpt lat="39.87223174" lon="-6.5028602"><ele>1197</ele><speed>9.00</speed><time>2016-06-21T17:30:54Z</time><pdop>3.0</pdop><geoidheight>54.00</geoidheight><course>21.5</course><type>1</type></trkpt>
      <trkpt lat="39.87230168" lon="-6.50281793"><ele>1195</ele><speed>8.75</speed><time>2016-06-21T17:30:55Z</time><pdop>3.0</pdop><geoidheight>54.00</geoidheight><course>24.2</course><type>1</type></trkpt>
      <trkpt lat="39.87237026" lon="-6.50277192"><ele>1194</ele><speed>8.50</speed><time>2016-06-21T17:30:56Z</time><pdop>3.0</pdop><geoidheight>54.00</geoidheight><course>26.8</course><type>1</type></trkpt>
      <trkpt lat="39.87244001" lon="-6.50272588"><ele>1193</ele><speed>8.25</speed><time>2016-06-21T17:30:57Z</time><pdop>3.0</pdop><geoidheight>54.00</geoidheight><course>27.3</course><type>1</type></trkpt>
      <trkpt lat="39.87257792" lon="-6.50265831"><ele>1190</ele><speed>8.00</speed><time>2016-06-21T17:30:59Z</time><pdop>3.0</pdop><geoidheight>54.00</geoidheight><course>19.3</course><type>1</type></trkpt>
      <trkpt lat="39.87264779" lon="-6.50262894"><ele>1188</ele><speed>8.25</speed><time>2016-06-21T17:31:00Z</time><pdop>3.0</pdop><geoidheight>54.00</geoidheight><course>17.8</course><type>1</type></trkpt>
      <trkpt lat="39.87279602" lon="-6.50256284"><ele>1184</ele><speed>8.50</speed><time>2016-06-21T17:31:02Z</time><pdop>3.0</pdop><geoidheight>54.00</geoidheight><course>18.6</course><type>1</type></trkpt>
      <trkpt lat="39.87286212" lon="-6.50254148"><ele>1183</ele><speed>8.25</speed><time>2016-06-21T17:31:03Z</time><pdop>3.0</pdop><geoidheight>54.00</geoidheight><course>14.4</course><type>1</type></trkpt>
      <trkpt lat="39.87300697" lon="-6.50251629"><ele>1179</ele><speed>8.25</speed><time>2016-06-21T17:31:05Z</time><pdop>3.0</pdop><geoidheight>54.00</geoidheight><course>7.1</course><type>1</type></trkpt>
      <trkpt lat="39.8730883" lon="-6.50249947"><ele>1176</ele><speed>9.00</speed><time>2016-06-21T17:31:06Z</time><pdop>3.0</pdop><geoidheight>54.00</geoidheight><course>8.9</course><type>1</type></trkpt>
      <trkpt lat="39.87325965" lon="-6.50244976"><ele>1174</ele><speed>9.50</speed><time>2016-06-21T17:31:08Z</time><pdop>3.0</pdop><geoidheight>54.00</geoidheight><course>12.4</course><type>1</type></trkpt>
      <trkpt lat="39.87340242" lon="-6.50242672"><ele>1172</ele><speed>8.00</speed><time>2016-06-21T17:31:10Z</time><pdop>3.0</pdop><geoidheight>54.00</geoidheight><course>6.4</course><type>1</type></trkpt>
      <trkpt lat="39.87354255" lon="-6.50240481"><ele>1169</ele><speed>8.00</speed><time>2016-06-21T17:31:12Z</time><pdop>4.0</pdop><geoidheight>54.00</geoidheight><course>7.9</course><type>1</type></trkpt>
      <trkpt lat="39.87362068" lon="-6.50238291"><ele>1167</ele><speed>8.50</speed><time>2016-06-21T17:31:13Z</time><pdop>4.0</pdop><geoidheight>54.00</geoidheight><course>11.2</course><type>1</type></trkpt>
      <trkpt lat="39.87378396" lon="-6.50233386"><ele>1163</ele><speed>9.25</speed><time>2016-06-21T17:31:15Z</time><pdop>3.0</pdop><geoidheight>54.00</geoidheight><course>12.0</course><type>1</type></trkpt>
      <trkpt lat="39.87386386" lon="-6.50231446"><ele>1161</ele><speed>9.00</speed><time>2016-06-21T17:31:16Z</time><pdop>3.0</pdop><geoidheight>54.00</geoidheight><course>10.2</course><type>1</type></trkpt>
      <trkpt lat="39.87394267" lon="-6.50229907"><ele>1160</ele><speed>8.75</speed><time>2016-06-21T17:31:17Z</time><pdop>3.0</pdop><geoidheight>54.00</geoidheight><course>9.4</course><type>1</type></trkpt>
      <trkpt lat="39.87409141" lon="-6.50226297"><ele>1158</ele><speed>8.25</speed><time>2016-06-21T17:31:19Z</time><pdop>3.0</pdop><geoidheight>54.00</geoidheight><course>11.4</course><type>1</type></trkpt>
      <trkpt lat="39.87416317" lon="-6.50224107"><ele>1156</ele><speed>8.25</speed><time>2016-06-21T17:31:20Z</time><pdop>3.0</pdop><geoidheight>54.00</geoidheight><course>12.2</course><type>1</type></trkpt>
      <trkpt lat="39.874236" lon="-6.5022253"><ele>1155</ele><speed>8.50</speed><time>2016-06-21T17:31:21Z</time><pdop>3.0</pdop><geoidheight>54.00</geoidheight><course>10.0</course><type>1</type></trkpt>
      <trkpt lat="39.87437637" lon="-6.50221029"><ele>1152</ele><speed>8.00</speed><time>2016-06-21T17:31:23Z</time><pdop>3.0</pdop><geoidheight>54.00</geoidheight><course>7.2</course><type>1</type></trkpt>
      <trkpt lat="39.87444349" lon="-6.5021941"><ele>1151</ele><speed>7.75</speed><time>2016-06-21T17:31:24Z</time><pdop>3.0</pdop><geoidheight>54.00</geoidheight><course>8.9</course><type>1</type></trkpt>
      <trkpt lat="39.87450892" lon="-6.50217491"><ele>1149</ele><speed>7.50</speed><time>2016-06-21T17:31:25Z</time><pdop>4.0</pdop><geoidheight>54.00</geoidheight><course>11.2</course><type>1</type></trkpt>
      <trkpt lat="39.87464749" lon="-6.50213931"><ele>1145</ele><speed>7.75</speed><time>2016-06-21T17:31:27Z</time><pdop>4.0</pdop><geoidheight>54.00</geoidheight><course>11.6</course><type>1</type></trkpt>
      <trkpt lat="39.8747363" lon="-6.50213111"><ele>1143</ele><speed>9.25</speed><time>2016-06-21T17:31:28Z</time><pdop>4.0</pdop><geoidheight>54.00</geoidheight><course>6.6</course><type>1</type></trkpt>
      <trkpt lat="39.87490941" lon="-6.50210852"><ele>1139</ele><speed>9.50</speed><time>2016-06-21T17:31:30Z</time><pdop>4.0</pdop><geoidheight>54.00</geoidheight><course>6.3</course><type>1</type></trkpt>
      <trkpt lat="39.87498984" lon="-6.50209225"><ele>1138</ele><speed>9.00</speed><time>2016-06-21T17:31:31Z</time><pdop>4.0</pdop><geoidheight>54.00</geoidheight><course>7.6</course><type>1</type></trkpt>
      <trkpt lat="39.87506344" lon="-6.50207467"><ele>1137</ele><speed>8.50</speed><time>2016-06-21T17:31:32Z</time><pdop>4.0</pdop><geoidheight>54.00</geoidheight><course>10.3</course><type>1</type></trkpt>
      <trkpt lat="39.87522815" lon="-6.50204742"><ele>1135</ele><speed>9.50</speed><time>2016-06-21T17:31:34Z</time><pdop>4.0</pdop><geoidheight>54.00</geoidheight><course>7.6</course><type>1</type></trkpt>
      <trkpt lat="39.87530904" lon="-6.50203677"><ele>1134</ele><speed>9.25</speed><time>2016-06-21T17:31:35Z</time><pdop>4.0</pdop><geoidheight>54.00</geoidheight><course>6.8</course><type>1</type></trkpt>
      <trkpt lat="39.87539209" lon="-6.50202278"><ele>1133</ele><speed>9.00</speed><time>2016-06-21T17:31:36Z</time><pdop>4.0</pdop><geoidheight>54.00</geoidheight><course>7.2</course><type>1</type></trkpt>
      <trkpt lat="39.87554329" lon="-6.50197969"><ele>1129</ele><speed>9.00</speed><time>2016-06-21T17:31:38Z</time><pdop>3.0</pdop><geoidheight>54.00</geoidheight><course>13.8</course><type>1</type></trkpt>
      <trkpt lat="39.87571092" lon="-6.50191764"><ele>1125</ele><speed>9.75</speed><time>2016-06-21T17:31:40Z</time><pdop>3.0</pdop><geoidheight>54.00</geoidheight><course>14.6</course><type>1</type></trkpt>
      <trkpt lat="39.87579787" lon="-6.50189758"><ele>1123</ele><speed>10.00</speed><time>2016-06-21T17:31:41Z</time><pdop>4.0</pdop><geoidheight>54.00</geoidheight><course>12.7</course><type>1</type></trkpt>
      <trkpt lat="39.875969" lon="-6.50184855"><ele>1120</ele><speed>9.50</speed><time>2016-06-21T17:31:43Z</time><pdop>3.0</pdop><geoidheight>54.00</geoidheight><course>13.2</course><type>1</type></trkpt>
      <trkpt lat="39.87605121" lon="-6.50181635"><ele>1118</ele><speed>9.50</speed><time>2016-06-21T17:31:44Z</time><pdop>3.0</pdop><geoidheight>54.00</geoidheight><course>15.8</course><type>1</type></trkpt>
      <trkpt lat="39.87621979" lon="-6.50175618"><ele>1113</ele><speed>9.75</speed><time>2016-06-21T17:31:46Z</time><pdop>3.0</pdop><geoidheight>54.00</geoidheight><course>17.3</course><type>1</type></trkpt>
      <trkpt lat="39.87630931" lon="-6.50172758"><ele>1111</ele><speed>9.75</speed><time>2016-06-21T17:31:47Z</time><pdop>3.0</pdop><geoidheight>54.00</geoidheight><course>15.5</course><type>1</type></trkpt>
      <trkpt lat="39.87649461" lon="-6.50170316"><ele>1107</ele><speed>9.75</speed><time>2016-06-21T17:31:49Z</time><pdop>3.0</pdop><geoidheight>54.00</geoidheight><course>6.8</course><type>1</type></trkpt>
      <trkpt lat="39.87667192" lon="-6.50168367"><ele>1105</ele><speed>10.00</speed><time>2016-06-21T17:31:51Z</time><pdop>3.0</pdop><geoidheight>54.00</geoidheight><course>5.9</course><type>1</type></trkpt>
      <trkpt lat="39.8767584" lon="-6.50166823"><ele>1104</ele><speed>9.75</speed><time>2016-06-21T17:31:52Z</time><pdop>3.0</pdop><geoidheight>54.00</geoidheight><course>6.7</course><type>1</type></trkpt>
      <trkpt lat="39.87684551" lon="-6.50165275"><ele>1104</ele><speed>9.75</speed><time>2016-06-21T17:31:53Z</time><pdop>3.0</pdop><geoidheight>54.00</geoidheight><course>7.6</course><type>1</type></trkpt>
      <trkpt lat="39.87693227" lon="-6.50164038"><ele>1103</ele><speed>9.75</speed><time>2016-06-21T17:31:54Z</time><pdop>3.0</pdop><geoidheight>54.00</geoidheight><course>6.7</course><type>1</type></trkpt>
      <trkpt lat="39.87709472" lon="-6.50162526"><ele>1102</ele><speed>8.75</speed><time>2016-06-21T17:31:56Z</time><pdop>3.0</pdop><geoidheight>54.00</geoidheight><course>4.9</course><type>1</type></trkpt>
      <trkpt lat="39.87717781" lon="-6.50161075"><ele>1100</ele><speed>9.00</speed><time>2016-06-21T17:31:57Z</time><pdop>4.0</pdop><geoidheight>54.00</geoidheight><course>5.8</course><type>1</type></trkpt>
      <trkpt lat="39.87736227" lon="-6.50159744"><ele>1097</ele><speed>10.25</speed><time>2016-06-21T17:31:59Z</time><pdop>3.0</pdop><geoidheight>54.00</geoidheight><course>3.0</course><type>1</type></trkpt>
      <trkpt lat="39.87745501" lon="-6.50159412"><ele>1097</ele><speed>10.25</speed><time>2016-06-21T17:32:00Z</time><pdop>3.0</pdop><geoidheight>54.00</geoidheight><course>0.3</course><type>1</type></trkpt>
      <trkpt lat="39.87754409" lon="-6.50159619"><ele>1096</ele><speed>10.00</speed><time>2016-06-21T17:32:01Z</time><pdop>3.0</pdop><geoidheight>54.00</geoidheight><course>358.5</course><type>1</type></trkpt>
      <trkpt lat="39.87763069" lon="-6.50160021"><ele>1095</ele><speed>9.50</speed><time>2016-06-21T17:32:02Z</time><pdop>3.0</pdop><geoidheight>54.00</geoidheight><course>358.6</course><type>1</type></trkpt>
      <trkpt lat="39.87780205" lon="-6.50159171"><ele>1092</ele><speed>9.50</speed><time>2016-06-21T17:32:04Z</time><pdop>4.0</pdop><geoidheight>54.00</geoidheight><course>2.3</course><type>1</type></trkpt>
      <trkpt lat="39.87789463" lon="-6.50158908"><ele>1090</ele><speed>10.00</speed><time>2016-06-21T17:32:05Z</time><pdop>3.0</pdop><geoidheight>54.00</geoidheight><course>1.5</course><type>1</type></trkpt>
      <trkpt lat="39.87799342" lon="-6.50159182"><ele>1088</ele><speed>10.50</speed><time>2016-06-21T17:32:06Z</time><pdop>3.0</pdop><geoidheight>54.00</geoidheight><course>359.1</course><type>1</type></trkpt>
      <trkpt lat="39.87818884" lon="-6.50159603"><ele>1085</ele><speed>10.50</speed><time>2016-06-21T17:32:08Z</time><pdop>4.0</pdop><geoidheight>54.00</geoidheight><course>358.3</course><type>1</type></trkpt>
      <trkpt lat="39.87827905" lon="-6.50159386"><ele>1084</ele><speed>10.25</speed><time>2016-06-21T17:32:09Z</time><pdop>4.0</pdop><geoidheight>54.00</geoidheight><course>0.1</course><type>1</type></trkpt>
      <trkpt lat="39.87836941" lon="-6.50159213"><ele>1082</ele><speed>10.00</speed><time>2016-06-21T17:32:10Z</time><pdop>3.0</pdop><geoidheight>54.00</geoidheight><course>1.5</course><type>1</type></trkpt>
      <trkpt lat="39.87855645" lon="-6.50159556"><ele>1080</ele><speed>10.75</speed><time>2016-06-21T17:32:12Z</time><pdop>3.0</pdop><geoidheight>54.00</geoidheight><course>359.7</course><type>1</type></trkpt>
      <trkpt lat="39.87865521" lon="-6.50160275"><ele>1078</ele><speed>10.50</speed><time>2016-06-21T17:32:13Z</time><pdop>3.0</pdop><geoidheight>54.00</geoidheight><course>359.4</course><type>1</type></trkpt>
      <trkpt lat="39.878825" lon="-6.50159073"><ele>1076</ele><speed>9.50</speed><time>2016-06-21T17:32:15Z</time><pdop>3.0</pdop><geoidheight>54.00</geoidheight><course>3.7</course><type>1</type></trkpt>
      <trkpt lat="39.87899102" lon="-6.50157357"><ele>1073</ele><speed>9.50</speed><time>2016-06-21T17:32:17Z</time><pdop>3.0</pdop><geoidheight>54.00</geoidheight><course>4.8</course><type>1</type></trkpt>
      <trkpt lat="39.87908244" lon="-6.50156225"><ele>1071</ele><speed>9.75</speed><time>2016-06-21T17:32:18Z</time><pdop>3.0</pdop><geoidheight>54.00</geoidheight><course>5.2</course><type>1</type></trkpt>
      <trkpt lat="39.87917099" lon="-6.50155164"><ele>1070</ele><speed>9.50</speed><time>2016-06-21T17:32:19Z</time><pdop>3.0</pdop><geoidheight>54.00</geoidheight><course>6.0</course><type>1</type></trkpt>
      <trkpt lat="39.87925609" lon="-6.50154075"><ele>1068</ele><speed>9.50</speed><time>2016-06-21T17:32:20Z</time><pdop>3.0</pdop><geoidheight>54.00</geoidheight><course>6.2</course><type>1</type></trkpt>
      <trkpt lat="39.87942472" lon="-6.50152804"><ele>1065</ele><speed>9.25</speed><time>2016-06-21T17:32:22Z</time><pdop>3.0</pdop><geoidheight>54.00</geoidheight><course>2.0</course><type>1</type></trkpt>
      <trkpt lat="39.87951203" lon="-6.5015335"><ele>1063</ele><speed>9.50</speed><time>2016-06-21T17:32:23Z</time><pdop>4.0</pdop><geoidheight>54.00</geoidheight><course>357.9</course><type>1</type></trkpt>
      <trkpt lat="39.87969682" lon="-6.50155802"><ele>1061</ele><speed>10.25</speed><time>2016-06-21T17:32:25Z</time><pdop>4.0</pdop><geoidheight>54.00</geoidheight><course>353.9</course><type>1</type></trkpt>
      <trkpt lat="39.87978197" lon="-6.50156766"><ele>1060</ele><speed>9.75</speed><time>2016-06-21T17:32:26Z</time><pdop>4.0</pdop><geoidheight>54.00</geoidheight><course>355.6</course><type>1</type></trkpt>
      <trkpt lat="39.87993885" lon="-6.50156934"><ele>1059</ele><speed>8.50</speed><time>2016-06-21T17:32:28Z</time><pdop>4.0</pdop><geoidheight>54.00</geoidheight><course>359.9</course><type>1</type></trkpt>
      <trkpt lat="39.88001712" lon="-6.50157757"><ele>1057</ele><speed>8.75</speed><time>2016-06-21T17:32:29Z</time><pdop>4.0</pdop><geoidheight>54.00</geoidheight><course>356.6</course><type>1</type></trkpt>
      <trkpt lat="39.88010496" lon="-6.50159018"><ele>1054</ele><speed>9.25</speed><time>2016-06-21T17:32:30Z</time><pdop>3.0</pdop><geoidheight>54.00</geoidheight><course>353.4</course><type>1</type></trkpt>
      <trkpt lat="39.88018883" lon="-6.50160038"><ele>1051</ele><speed>9.50</speed><time>2016-06-21T17:32:31Z</time><pdop>3.0</pdop><geoidheight>54.00</geoidheight><course>355.0</course><type>1</type></trkpt>
      <trkpt lat="39.88035905" lon="-6.5015892"><ele>1046</ele><speed>9.00</speed><time>2016-06-21T17:32:33Z</time><pdop>3.0</pdop><geoidheight>54.00</geoidheight><course>4.3</course><type>1</type></trkpt>
      <trkpt lat="39.8804428" lon="-6.50157548"><ele>1043</ele><speed>9.25</speed><time>2016-06-21T17:32:34Z</time><pdop>3.0</pdop><geoidheight>54.00</geoidheight><course>7.2</course><type>1</type></trkpt>
      <trkpt lat="39.88052392" lon="-6.50154743"><ele>1042</ele><speed>9.25</speed><time>2016-06-21T17:32:35Z</time><pdop>4.0</pdop><geoidheight>54.00</geoidheight><course>13.1</course><type>1</type></trkpt>
      <trkpt lat="39.88067967" lon="-6.50148319"><ele>1039</ele><speed>9.50</speed><time>2016-06-21T17:32:37Z</time><pdop>3.0</pdop><geoidheight>54.00</geoidheight><course>18.6</course><type>1</type></trkpt>
      <trkpt lat="39.88075827" lon="-6.50144243"><ele>1038</ele><speed>9.25</speed><time>2016-06-21T17:32:38Z</time><pdop>3.0</pdop><geoidheight>54.00</geoidheight><course>20.1</course><type>1</type></trkpt>
      <trkpt lat="39.88083396" lon="-6.50140218"><ele>1037</ele><speed>9.00</speed><time>2016-06-21T17:32:39Z</time><pdop>4.0</pdop><geoidheight>54.00</geoidheight><course>21.9</course><type>1</type></trkpt>
      <trkpt lat="39.8810173" lon="-6.50134171"><ele>1035</ele><speed>9.75</speed><time>2016-06-21T17:32:41Z</time><pdop>3.0</pdop><geoidheight>54.00</geoidheight><course>16.5</course><type>1</type></trkpt>
      <trkpt lat="39.88115746" lon="-6.5012844"><ele>1034</ele><speed>7.75</speed><time>2016-06-21T17:32:43Z</time><pdop>3.0</pdop><geoidheight>54.00</geoidheight><course>16.7</course><type>1</type></trkpt>
      <trkpt lat="39.88129899" lon="-6.50123613"><ele>1030</ele><speed>8.25</speed><time>2016-06-21T17:32:45Z</time><pdop>3.0</pdop><geoidheight>54.00</geoidheight><course>16.9</course><type>1</type></trkpt>
      <trkpt lat="39.88138939" lon="-6.50120686"><ele>1027</ele><speed>9.50</speed><time>2016-06-21T17:32:46Z</time><pdop>3.0</pdop><geoidheight>54.00</geoidheight><course>13.9</course><type>1</type></trkpt>
      <trkpt lat="39.88157217" lon="-6.50117727"><ele>1027</ele><speed>10.25</speed><time>2016-06-21T17:32:48Z</time><pdop>3.0</pdop><geoidheight>54.00</geoidheight><course>6.7</course><type>1</type></trkpt>
      <trkpt lat="39.88166395" lon="-6.50116322"><ele>1027</ele><speed>10.25</speed><time>2016-06-21T17:32:49Z</time><pdop>5.0</pdop><geoidheight>54.00</geoidheight><course>6.7</course><type>1</type></trkpt>
      <trkpt lat="39.88179394" lon="-6.50113326"><ele>1026</ele><speed>8.00</speed><time>2016-06-21T17:32:51Z</time><pdop>3.0</pdop><geoidheight>54.00</geoidheight><course>9.2</course><type>1</type></trkpt>
      <trkpt lat="39.88196344" lon="-6.50112054"><ele>1024</ele><speed>10.00</speed><time>2016-06-21T17:32:53Z</time><pdop>3.0</pdop><geoidheight>54.00</geoidheight><course>1.0</course><type>1</type></trkpt>
      <trkpt lat="39.8820586" lon="-6.50113745"><ele>1024</ele><speed>10.25</speed><time>2016-06-21T17:32:54Z</time><pdop>3.0</pdop><geoidheight>54.00</geoidheight><course>354.0</course><type>1</type></trkpt>
      <trkpt lat="39.88214299" lon="-6.50116835"><ele>1025</ele><speed>9.75</speed><time>2016-06-21T17:32:55Z</time><pdop>3.0</pdop><geoidheight>54.00</geoidheight><course>344.9</course><type>1</type></trkpt>
      <trkpt lat="39.88230091" lon="-6.50125891"><ele>1025</ele><speed>9.75</speed><time>2016-06-21T17:32:57Z</time><pdop>5.0</pdop><geoidheight>54.00</geoidheight><course>336.9</course><type>1</type></trkpt>
      <trkpt lat="39.88238684" lon="-6.50133342"><ele>1023</ele><speed>10.50</speed><time>2016-06-21T17:32:58Z</time><pdop>3.0</pdop><geoidheight>54.00</geoidheight><course>330.5</course><type>1</type></trkpt>
      <trkpt lat="39.88247107" lon="-6.50140049"><ele>1023</ele><speed>11.00</speed><time>2016-06-21T17:32:59Z</time><pdop>3.0</pdop><geoidheight>54.00</geoidheight><course>328.3</course><type>1</type></trkpt>
      <trkpt lat="39.88255017" lon="-6.50146741"><ele>1024</ele><speed>11.25</speed><time>2016-06-21T17:33:00Z</time><pdop>3.0</pdop><geoidheight>54.00</geoidheight><course>327.7</course><type>1</type></trkpt>
      <trkpt lat="39.88272681" lon="-6.50158965"><ele>1022</ele><speed>10.75</speed><time>2016-06-21T17:33:02Z</time><pdop>3.0</pdop><geoidheight>54.00</geoidheight><course>333.3</course><type>1</type></trkpt>
      <trkpt lat="39.88281637" lon="-6.50164441"><ele>1020</ele><speed>10.75</speed><time>2016-06-21T17:33:03Z</time><pdop>3.0</pdop><geoidheight>54.00</geoidheight><course>334.7</course><type>1</type></trkpt>
      <trkpt lat="39.88291046" lon="-6.50169364"><ele>1019</ele><speed>11.25</speed><time>2016-06-21T17:33:04Z</time><pdop>3.0</pdop><geoidheight>54.00</geoidheight><course>336.5</course><type>1</type></trkpt>
      <trkpt lat="39.88310881" lon="-6.50178577"><ele>1016</ele><speed>12.00</speed><time>2016-06-21T17:33:06Z</time><pdop>3.0</pdop><geoidheight>54.00</geoidheight><course>339.8</course><type>1</type></trkpt>
      <trkpt lat="39.88321381" lon="-6.50182895"><ele>1016</ele><speed>12.25</speed><time>2016-06-21T17:33:07Z</time><pdop>3.0</pdop><geoidheight>54.00</geoidheight><course>342.1</course><type>1</type></trkpt>
      <trkpt lat="39.88331775" lon="-6.50186824"><ele>1015</ele><speed>12.25</speed><time>2016-06-21T17:33:08Z</time><pdop>3.0</pdop><geoidheight>54.00</geoidheight><course>343.6</course><type>1</type></trkpt>
      <trkpt lat="39.88342267" lon="-6.50190463"><ele>1015</ele><speed>12.00</speed><time>2016-06-21T17:33:09Z</time><pdop>3.0</pdop><geoidheight>54.00</geoidheight><course>345.2</course><type>1</type></trkpt>
      <trkpt lat="39.88352617" lon="-6.50193707"><ele>1016</ele><speed>11.75</speed><time>2016-06-21T17:33:10Z</time><pdop>3.0</pdop><geoidheight>54.00</geoidheight><course>346.9</course><type>1</type></trkpt>
      <trkpt lat="39.88362495" lon="-6.50196652"><ele>1015</ele><speed>11.50</speed><time>2016-06-21T17:33:11Z</time><pdop>4.0</pdop><geoidheight>54.00</geoidheight><course>348.4</course><type>1</type></trkpt>
      <trkpt lat="39.88381968" lon="-6.50201043"><ele>1014</ele><speed>11.25</speed><time>2016-06-21T17:33:13Z</time><pdop>4.0</pdop><geoidheight>54.00</geoidheight><course>350.7</course><type>1</type></trkpt>
      <trkpt lat="39.8840215" lon="-6.50203564"><ele>1012</ele><speed>11.25</speed><time>2016-06-21T17:33:15Z</time><pdop>4.0</pdop><geoidheight>54.00</geoidheight><course>354.8</course><type>1</type></trkpt>
      <trkpt lat="39.88413971" lon="-6.50204128"><ele>1012</ele><speed>12.00</speed><time>2016-06-21T17:33:16Z</time><pdop>4.0</pdop><geoidheight>54.00</geoidheight><course>357.0</course><type>1</type></trkpt>
      <trkpt lat="39.88433557" lon="-6.50204557"><ele>1010</ele><speed>11.00</speed><time>2016-06-21T17:33:18Z</time><pdop>3.0</pdop><geoidheight>54.00</geoidheight><course>0.0</course><type>1</type></trkpt>
      <trkpt lat="39.88453169" lon="-6.5020491"><ele>1006</ele><speed>10.75</speed><time>2016-06-21T17:33:20Z</time><pdop>4.0</pdop><geoidheight>54.00</geoidheight><course>358.1</course><type>1</type></trkpt>
      <trkpt lat="39.88463711" lon="-6.50205129"><ele>1004</ele><speed>11.50</speed><time>2016-06-21T17:33:21Z</time><pdop>4.0</pdop><geoidheight>54.00</geoidheight><course>359.7</course><type>1</type></trkpt>
      <trkpt lat="39.88486911" lon="-6.50202294"><ele>1000</ele><speed>12.50</speed><time>2016-06-21T17:33:23Z</time><pdop>4.0</pdop><geoidheight>54.00</geoidheight><course>6.4</course><type>1</type></trkpt>
      <trkpt lat="39.88498194" lon="-6.50200793"><ele>1000</ele><speed>12.25</speed><time>2016-06-21T17:33:24Z</time><pdop>3.0</pdop><geoidheight>54.00</geoidheight><course>5.2</course><type>1</type></trkpt>
      <trkpt lat="39.88519039" lon="-6.50200312"><ele>996</ele><speed>11.50</speed><time>2016-06-21T17:33:26Z</time><pdop>3.0</pdop><geoidheight>54.00</geoidheight><course>0.4</course><type>1</type></trkpt>
      <trkpt lat="39.88530071" lon="-6.50199777"><ele>993</ele><speed>11.75</speed><time>2016-06-21T17:33:27Z</time><pdop>3.0</pdop><geoidheight>54.00</geoidheight><course>2.4</course><type>1</type></trkpt>
      <trkpt lat="39.8854041" lon="-6.50198233"><ele>991</ele><speed>11.75</speed><time>2016-06-21T17:33:28Z</time><pdop>4.0</pdop><geoidheight>54.00</geoidheight><course>5.5</course><type>1</type></trkpt>
      <trkpt lat="39.88552132" lon="-6.50197697"><ele>988</ele><speed>12.25</speed><time>2016-06-21T17:33:29Z</time><pdop>3.0</pdop><geoidheight>54.00</geoidheight><course>3.0</course><type>1</type></trkpt>
      <trkpt lat="39.88575121" lon="-6.50198828"><ele>983</ele><speed>12.25</speed><time>2016-06-21T17:33:31Z</time><pdop>4.0</pdop><geoidheight>54.00</geoidheight><course>358.9</course><type>1</type></trkpt>
      <trkpt lat="39.88586526" lon="-6.50199151"><ele>980</ele><speed>12.50</speed><time>2016-06-21T17:33:32Z</time><pdop>3.0</pdop><geoidheight>54.00</geoidheight><course>358.2</course><type>1</type></trkpt>
      <trkpt lat="39.88609007" lon="-6.5020011"><ele>975</ele><speed>12.25</speed><time>2016-06-21T17:33:34Z</time><pdop>4.0</pdop><geoidheight>54.00</geoidheight><course>358.3</course><type>1</type></trkpt>
      <trkpt lat="39.88620035" lon="-6.50201355"><ele>972</ele><speed>12.25</speed><time>2016-06-21T17:33:35Z</time><pdop>3.0</pdop><geoidheight>54.00</geoidheight><course>356.1</course><type>1</type></trkpt>
      <trkpt lat="39.88631516" lon="-6.50202996"><ele>970</ele><speed>12.50</speed><time>2016-06-21T17:33:36Z</time><pdop>3.0</pdop><geoidheight>54.00</geoidheight><course>353.4</course><type>1</type></trkpt>
      <trkpt lat="39.88653442" lon="-6.50206711"><ele>965</ele><speed>12.50</speed><time>2016-06-21T17:33:38Z</time><pdop>5.0</pdop><geoidheight>54.00</geoidheight><course>352.4</course><type>1</type></trkpt>
      <trkpt lat="39.88663156" lon="-6.50207731"><ele>963</ele><speed>11.25</speed><time>2016-06-21T17:33:39Z</time><pdop>4.0</pdop><geoidheight>54.00</geoidheight><course>354.7</course><type>1</type></trkpt>
      <trkpt lat="39.88673331" lon="-6.50208967"><ele>962</ele><speed>11.25</speed><time>2016-06-21T17:33:40Z</time><pdop>7.0</pdop><geoidheight>54.00</geoidheight><course>354.7</course><type>1</type></trkpt>
      <trkpt lat="39.88685284" lon="-6.50211216"><ele>958</ele><speed>12.25</speed><time>2016-06-21T17:33:41Z</time><pdop>3.0</pdop><geoidheight>54.00</geoidheight><course>353.1</course><type>1</type></trkpt>
      <trkpt lat="39.88707803" lon="-6.50213854"><ele>955</ele><speed>12.50</speed><time>2016-06-21T17:33:43Z</time><pdop>4.0</pdop><geoidheight>54.00</geoidheight><course>355.3</course><type>1</type></trkpt>
      <trkpt lat="39.88729914" lon="-6.50215234"><ele>950</ele><speed>12.25</speed><time>2016-06-21T17:33:45Z</time><pdop>3.0</pdop><geoidheight>54.00</geoidheight><course>357.6</course><type>1</type></trkpt>
      <trkpt lat="39.88752545" lon="-6.50215795"><ele>945</ele><speed>12.50</speed><time>2016-06-21T17:33:47Z</time><pdop>3.0</pdop><geoidheight>54.00</geoidheight><course>359.8</course><type>1</type></trkpt>
      <trkpt lat="39.88763734" lon="-6.50215839"><ele>942</ele><speed>12.50</speed><time>2016-06-21T17:33:48Z</time><pdop>5.0</pdop><geoidheight>54.00</geoidheight><course>359.8</course><type>1</type></trkpt>
      <trkpt lat="39.88785946" lon="-6.50213196"><ele>940</ele><speed>12.50</speed><time>2016-06-21T17:33:50Z</time><pdop>3.0</pdop><geoidheight>54.00</geoidheight><course>0.5</course><type>1</type></trkpt>
      <trkpt lat="39.88796981" lon="-6.50214067"><ele>939</ele><speed>12.00</speed><time>2016-06-21T17:33:51Z</time><pdop>4.0</pdop><geoidheight>54.00</geoidheight><course>357.9</course><type>1</type></trkpt>
      <trkpt lat="39.88818357" lon="-6.50214535"><ele>936</ele><speed>11.75</speed><time>2016-06-21T17:33:53Z</time><pdop>4.0</pdop><geoidheight>54.00</geoidheight><course>0.2</course><type>1</type></trkpt>
      <trkpt lat="39.88829719" lon="-6.50214162"><ele>934</ele><speed>12.25</speed><time>2016-06-21T17:33:54Z</time><pdop>4.0</pdop><geoidheight>54.00</geoidheight><course>2.1</course><type>1</type></trkpt>
      <trkpt lat="39.88853418" lon="-6.50213222"><ele>930</ele><speed>13.00</speed><time>2016-06-21T17:33:56Z</time><pdop>6.0</pdop><geoidheight>54.00</geoidheight><course>2.1</course><type>1</type></trkpt>
      <trkpt lat="39.88865764" lon="-6.50214537"><ele>929</ele><speed>13.25</speed><time>2016-06-21T17:33:57Z</time><pdop>3.0</pdop><geoidheight>54.00</geoidheight><course>357.4</course><type>1</type></trkpt>
      <trkpt lat="39.88877796" lon="-6.50215731"><ele>926</ele><speed>13.00</speed><time>2016-06-21T17:33:58Z</time><pdop>3.0</pdop><geoidheight>54.00</geoidheight><course>356.3</course><type>1</type></trkpt>
      <trkpt lat="39.88901934" lon="-6.50216892"><ele>923</ele><speed>13.25</speed><time>2016-06-21T17:34:00Z</time><pdop>4.0</pdop><geoidheight>54.00</geoidheight><course>358.8</course><type>1</type></trkpt>
      <trkpt lat="39.88914138" lon="-6.50217433"><ele>921</ele><speed>13.25</speed><time>2016-06-21T17:34:01Z</time><pdop>3.0</pdop><geoidheight>54.00</geoidheight><course>358.3</course><type>1</type></trkpt>
      <trkpt lat="39.88925715" lon="-6.50218611"><ele>920</ele><speed>13.00</speed><time>2016-06-21T17:34:02Z</time><pdop>3.0</pdop><geoidheight>54.00</geoidheight><course>355.4</course><type>1</type></trkpt>
      <trkpt lat="39.88948014" lon="-6.50222319"><ele>919</ele><speed>12.50</speed><time>2016-06-21T17:34:04Z</time><pdop>6.0</pdop><geoidheight>54.00</geoidheight><course>353.0</course><type>1</type></trkpt>
      <trkpt lat="39.88957478" lon="-6.50222849"><ele>916</ele><speed>11.00</speed><time>2016-06-21T17:34:05Z</time><pdop>4.0</pdop><geoidheight>54.00</geoidheight><course>357.3</course><type>1</type></trkpt>
      <trkpt lat="39.88967504" lon="-6.5022262"><ele>913</ele><speed>11.00</speed><time>2016-06-21T17:34:06Z</time><pdop>4.0</pdop><geoidheight>54.00</geoidheight><course>0.0</course><type>1</type></trkpt>
      <trkpt lat="39.88989912" lon="-6.50222359"><ele>909</ele><speed>12.00</speed><time>2016-06-21T17:34:08Z</time><pdop>4.0</pdop><geoidheight>54.00</geoidheight><course>1.2</course><type>1</type></trkpt>
      <trkpt lat="39.89000729" lon="-6.50222036"><ele>908</ele><speed>11.75</speed><time>2016-06-21T17:34:09Z</time><pdop>5.0</pdop><geoidheight>54.00</geoidheight><course>1.4</course><type>1</type></trkpt>
      <trkpt lat="39.8903289" lon="-6.50223507"><ele>904</ele><speed>11.25</speed><time>2016-06-21T17:34:12Z</time><pdop>5.0</pdop><geoidheight>54.00</geoidheight><course>356.3</course><type>1</type></trkpt>
      <trkpt lat="39.89054389" lon="-6.50225324"><ele>899</ele><speed>12.25</speed><time>2016-06-21T17:34:14Z</time><pdop>4.0</pdop><geoidheight>54.00</geoidheight><course>357.1</course><type>1</type></trkpt>
      <trkpt lat="39.89075933" lon="-6.50227418"><ele>894</ele><speed>12.00</speed><time>2016-06-21T17:34:16Z</time><pdop>4.0</pdop><geoidheight>54.00</geoidheight><course>353.5</course><type>1</type></trkpt>
      <trkpt lat="39.89085863" lon="-6.50230241"><ele>890</ele><speed>11.25</speed><time>2016-06-21T17:34:17Z</time><pdop>4.0</pdop><geoidheight>54.00</geoidheight><course>350.3</course><type>1</type></trkpt>
      <trkpt lat="39.8909587" lon="-6.50232749"><ele>887</ele><speed>11.25</speed><time>2016-06-21T17:34:18Z</time><pdop>4.0</pdop><geoidheight>54.00</geoidheight><course>348.5</course><type>1</type></trkpt>
      <trkpt lat="39.89119124" lon="-6.50237695"><ele>879</ele><speed>13.50</speed><time>2016-06-21T17:34:20Z</time><pdop>4.0</pdop><geoidheight>54.00</geoidheight><course>351.0</course><type>1</type></trkpt>
      <trkpt lat="39.89131308" lon="-6.50239796"><ele>878</ele><speed>13.75</speed><time>2016-06-21T17:34:21Z</time><pdop>3.0</pdop><geoidheight>54.00</geoidheight><course>351.2</course><type>1</type></trkpt>
      <trkpt lat="39.89154194" lon="-6.50244094"><ele>876</ele><speed>12.50</speed><time>2016-06-21T17:34:23Z</time><pdop>4.0</pdop><geoidheight>54.00</geoidheight><course>352.9</course><type>1</type></trkpt>
      <trkpt lat="39.89165406" lon="-6.50245912"><ele>875</ele><speed>12.50</speed><time>2016-06-21T17:34:24Z</time><pdop>6.0</pdop><geoidheight>54.00</geoidheight><course>352.9</course><type>1</type></trkpt>
      <trkpt lat="39.89184972" lon="-6.50241931"><ele>868</ele><speed>12.25</speed><time>2016-06-21T17:34:26Z</time><pdop>4.0</pdop><geoidheight>54.00</geoidheight><course>5.7</course><type>1</type></trkpt>
      <trkpt lat="39.89195973" lon="-6.50240713"><ele>867</ele><speed>12.50</speed><time>2016-06-21T17:34:27Z</time><pdop>3.0</pdop><geoidheight>54.00</geoidheight><course>5.9</course><type>1</type></trkpt>
      <trkpt lat="39.89215716" lon="-6.50238066"><ele>866</ele><speed>10.50</speed><time>2016-06-21T17:34:29Z</time><pdop>4.0</pdop><geoidheight>54.00</geoidheight><course>5.6</course><type>1</type></trkpt>
      <trkpt lat="39.8922417" lon="-6.50236277"><ele>865</ele><speed>9.75</speed><time>2016-06-21T17:34:30Z</time><pdop>4.0</pdop><geoidheight>54.00</geoidheight><course>8.7</course><type>1</type></trkpt>
      <trkpt lat="39.89232466" lon="-6.5023357"><ele>865</ele><speed>9.75</speed><time>2016-06-21T17:34:31Z</time><pdop>4.0</pdop><geoidheight>54.00</geoidheight><course>13.1</course><type>1</type></trkpt>
      <trkpt lat="39.89257333" lon="-6.50231568"><ele>858</ele><speed>12.50</speed><time>2016-06-21T17:34:33Z</time><pdop>4.0</pdop><geoidheight>54.00</geoidheight><course>6.4</course><type>1</type></trkpt>
      <trkpt lat="39.89269042" lon="-6.50231146"><ele>857</ele><speed>12.50</speed><time>2016-06-21T17:34:34Z</time><pdop>4.0</pdop><geoidheight>54.00</geoidheight><course>4.0</course><type>1</type></trkpt>
      <trkpt lat="39.8929024" lon="-6.50229008"><ele>856</ele><speed>11.50</speed><time>2016-06-21T17:34:36Z</time><pdop>4.0</pdop><geoidheight>54.00</geoidheight><course>5.2</course><type>1</type></trkpt>
      <trkpt lat="39.89299521" lon="-6.50228259"><ele>855</ele><speed>10.75</speed><time>2016-06-21T17:34:37Z</time><pdop>3.0</pdop><geoidheight>54.00</geoidheight><course>4.2</course><type>1</type></trkpt>
      <trkpt lat="39.89308396" lon="-6.50228726"><ele>853</ele><speed>10.75</speed><time>2016-06-21T17:34:38Z</time><pdop>3.0</pdop><geoidheight>54.00</geoidheight><course>359.2</course><type>1</type></trkpt>
      <trkpt lat="39.89328757" lon="-6.50231515"><ele>849</ele><speed>11.25</speed><time>2016-06-21T17:34:40Z</time><pdop>4.0</pdop><geoidheight>54.00</geoidheight><course>354.6</course><type>1</type></trkpt>
      <trkpt lat="39.89339509" lon="-6.50232239"><ele>847</ele><speed>11.50</speed><time>2016-06-21T17:34:41Z</time><pdop>4.0</pdop><geoidheight>54.00</geoidheight><course>356.8</course><type>1</type></trkpt>
      <trkpt lat="39.89350624" lon="-6.50232275"><ele>845</ele><speed>12.00</speed><time>2016-06-21T17:34:42Z</time><pdop>3.0</pdop><geoidheight>54.00</geoidheight><course>359.2</course><type>1</type></trkpt>
      <trkpt lat="39.89371658" lon="-6.50232289"><ele>842</ele><speed>11.75</speed><time>2016-06-21T17:34:44Z</time><pdop>4.0</pdop><geoidheight>54.00</geoidheight><course>359.6</course><type>1</type></trkpt>
      <trkpt lat="39.89392774" lon="-6.50234322"><ele>839</ele><speed>11.50</speed><time>2016-06-21T17:34:46Z</time><pdop>3.0</pdop><geoidheight>54.00</geoidheight><course>355.2</course><type>1</type></trkpt>
      <trkpt lat="39.8940273" lon="-6.5023508"><ele>838</ele><speed>11.25</speed><time>2016-06-21T17:34:47Z</time><pdop>4.0</pdop><geoidheight>54.00</geoidheight><course>356.0</course><type>1</type></trkpt>
      <trkpt lat="39.89422317" lon="-6.50234752"><ele>837</ele><speed>10.75</speed><time>2016-06-21T17:34:49Z</time><pdop>4.0</pdop><geoidheight>54.00</geoidheight><course>1.4</course><type>1</type></trkpt>
      <trkpt lat="39.89432051" lon="-6.50234263"><ele>836</ele><speed>10.75</speed><time>2016-06-21T17:34:50Z</time><pdop>4.0</pdop><geoidheight>54.00</geoidheight><course>0.8</course><type>1</type></trkpt>
      <trkpt lat="39.89450597" lon="-6.50235435"><ele>836</ele><speed>10.25</speed><time>2016-06-21T17:34:52Z</time><pdop>4.0</pdop><geoidheight>54.00</geoidheight><course>356.9</course><type>1</type></trkpt>
      <trkpt lat="39.89459596" lon="-6.50235384"><ele>835</ele><speed>10.00</speed><time>2016-06-21T17:34:53Z</time><pdop>4.0</pdop><geoidheight>54.00</geoidheight><course>358.3</course><type>1</type></trkpt>
      <trkpt lat="39.89479033" lon="-6.50235619"><ele>831</ele><speed>10.75</speed><time>2016-06-21T17:34:55Z</time><pdop>3.0</pdop><geoidheight>54.00</geoidheight><course>359.7</course><type>1</type></trkpt>
      <trkpt lat="39.89488765" lon="-6.50235965"><ele>829</ele><speed>10.50</speed><time>2016-06-21T17:34:56Z</time><pdop>3.0</pdop><geoidheight>54.00</geoidheight><course>359.4</course><type>1</type></trkpt>
      <trkpt lat="39.89498063" lon="-6.50235873"><ele>827</ele><speed>10.50</speed><time>2016-06-21T17:34:57Z</time><pdop>3.0</pdop><geoidheight>54.00</geoidheight><course>359.2</course><type>1</type></trkpt>
      <trkpt lat="39.89516318" lon="-6.50235694"><ele>824</ele><speed>10.50</speed><time>2016-06-21T17:34:59Z</time><pdop>3.0</pdop><geoidheight>54.00</geoidheight><course>0.7</course><type>1</type></trkpt>
      <trkpt lat="39.89525579" lon="-6.50235592"><ele>824</ele><speed>10.50</speed><time>2016-06-21T17:35:00Z</time><pdop>4.0</pdop><geoidheight>54.00</geoidheight><course>0.7</course><type>1</type></trkpt>
      <trkpt lat="39.8953448" lon="-6.50235461"><ele>823</ele><speed>10.25</speed><time>2016-06-21T17:35:01Z</time><pdop>3.0</pdop><geoidheight>54.00</geoidheight><course>359.4</course><type>1</type></trkpt>
      <trkpt lat="39.89552026" lon="-6.50237218"><ele>821</ele><speed>9.25</speed><time>2016-06-21T17:35:03Z</time><pdop>4.0</pdop><geoidheight>54.00</geoidheight><course>356.8</course><type>1</type></trkpt>
      <trkpt lat="39.8955997" lon="-6.50237173"><ele>820</ele><speed>9.00</speed><time>2016-06-21T17:35:04Z</time><pdop>4.0</pdop><geoidheight>54.00</geoidheight><course>359.7</course><type>1</type></trkpt>
      <trkpt lat="39.89576351" lon="-6.50236013"><ele>819</ele><speed>9.00</speed><time>2016-06-21T17:35:06Z</time><pdop>5.0</pdop><geoidheight>54.00</geoidheight><course>1.8</course><type>1</type></trkpt>
      <trkpt lat="39.8958554" lon="-6.50236134"><ele>819</ele><speed>9.50</speed><time>2016-06-21T17:35:07Z</time><pdop>5.0</pdop><geoidheight>54.00</geoidheight><course>359.1</course><type>1</type></trkpt>
      <trkpt lat="39.89595373" lon="-6.50236815"><ele>818</ele><speed>9.75</speed><time>2016-06-21T17:35:08Z</time><pdop>4.0</pdop><geoidheight>54.00</geoidheight><course>356.8</course><type>1</type></trkpt>
      <trkpt lat="39.89604603" lon="-6.50237526"><ele>817</ele><speed>9.75</speed><time>2016-06-21T17:35:09Z</time><pdop>4.0</pdop><geoidheight>54.00</geoidheight><course>357.2</course><type>1</type></trkpt>
      <trkpt lat="39.89622533" lon="-6.50235292"><ele>816</ele><speed>11.00</speed><time>2016-06-21T17:35:11Z</time><pdop>4.0</pdop><geoidheight>54.00</geoidheight><course>2.4</course><type>1</type></trkpt>
      <trkpt lat="39.89632525" lon="-6.50234749"><ele>815</ele><speed>11.00</speed><time>2016-06-21T17:35:12Z</time><pdop>7.0</pdop><geoidheight>54.00</geoidheight><course>2.4</course><type>1</type></trkpt>
      <trkpt lat="39.89651395" lon="-6.50235561"><ele>813</ele><speed>10.75</speed><time>2016-06-21T17:35:14Z</time><pdop>4.0</pdop><geoidheight>54.00</geoidheight><course>354.8</course><type>1</type></trkpt>
      <trkpt lat="39.89660575" lon="-6.5023783"><ele>813</ele><speed>10.50</speed><time>2016-06-21T17:35:15Z</time><pdop>3.0</pdop><geoidheight>54.00</geoidheight><course>350.5</course><type>1</type></trkpt>
      <trkpt lat="39.89679493" lon="-6.50243449"><ele>812</ele><speed>10.00</speed><time>2016-06-21T17:35:17Z</time><pdop>5.0</pdop><geoidheight>54.00</geoidheight><course>350.4</course><type>1</type></trkpt>
      <trkpt lat="39.89695425" lon="-6.50246753"><ele>810</ele><speed>9.50</speed><time>2016-06-21T17:35:19Z</time><pdop>4.0</pdop><geoidheight>54.00</geoidheight><course>350.4</course><type>1</type></trkpt>
      <trkpt lat="39.89715433" lon="-6.50249541"><ele>809</ele><speed>10.25</speed><time>2016-06-21T17:35:21Z</time><pdop>4.0</pdop><geoidheight>54.00</geoidheight><course>355.6</course><type>1</type></trkpt>
      <trkpt lat="39.89723389" lon="-6.50250027"><ele>811</ele><speed>8.75</speed><time>2016-06-21T17:35:22Z</time><pdop>4.0</pdop><geoidheight>54.00</geoidheight><course>357.7</course><type>1</type></trkpt>
      <trkpt lat="39.8974012" lon="-6.50256712"><ele>815</ele><speed>6.50</speed><time>2016-06-21T17:35:25Z</time><pdop>5.0</pdop><geoidheight>54.00</geoidheight><course>340.0</course><type>1</type></trkpt>
      <trkpt lat="39.89753339" lon="-6.50258038"><ele>815</ele><speed>4.25</speed><time>2016-06-21T17:35:28Z</time><pdop>4.0</pdop><geoidheight>54.00</geoidheight><course>21.7</course><type>1</type></trkpt>
      <trkpt lat="39.89753694" lon="-6.5024614"><ele>812</ele><speed>5.25</speed><time>2016-06-21T17:35:30Z</time><pdop>3.0</pdop><geoidheight>54.00</geoidheight><course>94.0</course><type>1</type></trkpt>
      <trkpt lat="39.89747323" lon="-6.50233862"><ele>812</ele><speed>6.00</speed><time>2016-06-21T17:35:32Z</time><pdop>5.0</pdop><geoidheight>54.00</geoidheight><course>122.6</course><type>1</type></trkpt>
      <trkpt lat="39.8973595" lon="-6.50235297"><ele>811</ele><speed>8.25</speed><time>2016-06-21T17:35:33Z</time><pdop>3.0</pdop><geoidheight>54.00</geoidheight><course>172.8</course><type>1</type></trkpt>
      <trkpt lat="39.89727446" lon="-6.50237365"><ele>810</ele><speed>9.50</speed><time>2016-06-21T17:35:34Z</time><pdop>3.0</pdop><geoidheight>54.00</geoidheight><course>185.8</course><type>1</type></trkpt>
      <trkpt lat="39.89710746" lon="-6.50243588"><ele>931</ele><speed>9.50</speed><time>2016-06-21T17:35:36Z</time><pdop>4.0</pdop><geoidheight>54.00</geoidheight><course>195.5</course><type>1</type></trkpt>
      <trkpt lat="39.89694661" lon="-6.50247256"><ele>859</ele><speed>9.00</speed><time>2016-06-21T17:35:38Z</time><pdop>3.0</pdop><geoidheight>54.00</geoidheight><course>188.8</course><type>1</type></trkpt>
      <trkpt lat="39.89687994" lon="-6.50248427"><ele>845</ele><speed>8.00</speed><time>2016-06-21T17:35:39Z</time><pdop>3.0</pdop><geoidheight>54.00</geoidheight><course>186.9</course><type>1</type></trkpt>
      <trkpt lat="39.89676911" lon="-6.50251266"><ele>832</ele><speed>6.00</speed><time>2016-06-21T17:35:41Z</time><pdop>3.0</pdop><geoidheight>54.00</geoidheight><course>190.2</course><type>1</type></trkpt>
      <trkpt lat="39.89666067" lon="-6.50258261"><ele>822</ele><speed>7.25</speed><time>2016-06-21T17:35:43Z</time><pdop>3.0</pdop><geoidheight>54.00</geoidheight><course>209.7</course><type>1</type></trkpt>
      <trkpt lat="39.89660759" lon="-6.50266713"><ele>818</ele><speed>9.00</speed><time>2016-06-21T17:35:44Z</time><pdop>3.0</pdop><geoidheight>54.00</geoidheight><course>226.4</course><type>1</type></trkpt>
      <trkpt lat="39.89656661" lon="-6.50278516"><ele>814</ele><speed>10.75</speed><time>2016-06-21T17:35:45Z</time><pdop>3.0</pdop><geoidheight>54.00</geoidheight><course>243.7</course><type>1</type></trkpt>
      <trkpt lat="39.89656341" lon="-6.50307995"><ele>809</ele><speed>12.50</speed><time>2016-06-21T17:35:47Z</time><pdop>3.0</pdop><geoidheight>54.00</geoidheight><course>275.3</course><type>1</type></trkpt>
      <trkpt lat="39.89660951" lon="-6.50321581"><ele>852</ele><speed>12.50</speed><time>2016-06-21T17:35:48Z</time><pdop>3.0</pdop><geoidheight>54.00</geoidheight><course>291.1</course><type>1</type></trkpt>
      <trkpt lat="39.89667459" lon="-6.50332795"><ele>829</ele><speed>11.75</speed><time>2016-06-21T17:35:49Z</time><pdop>3.0</pdop><geoidheight>54.00</geoidheight><course>304.9</course><type>1</type></trkpt>
      <trkpt lat="39.89675183" lon="-6.50340433"><ele>817</ele><speed>10.75</speed><time>2016-06-21T17:35:50Z</time><pdop>3.0</pdop><geoidheight>54.00</geoidheight><course>318.7</course><type>1</type></trkpt>
      <trkpt lat="39.89690988" lon="-6.50346588"><ele>807</ele><speed>9.00</speed><time>2016-06-21T17:35:52Z</time><pdop>4.0</pdop><geoidheight>54.00</geoidheight><course>346.8</course><type>1</type></trkpt>
      <trkpt lat="39.89703359" lon="-6.503483"><ele>804</ele><speed>7.00</speed><time>2016-06-21T17:35:54Z</time><pdop>3.0</pdop><geoidheight>54.00</geoidheight><course>347.2</course><type>1</type></trkpt>
      <trkpt lat="39.89716419" lon="-6.50356901"><ele>800</ele><speed>8.50</speed><time>2016-06-21T17:35:56Z</time><pdop>3.0</pdop><geoidheight>54.00</geoidheight><course>330.2</course><type>1</type></trkpt>
      <trkpt lat="39.89723709" lon="-6.50362518"><ele>799</ele><speed>9.25</speed><time>2016-06-21T17:35:57Z</time><pdop>3.0</pdop><geoidheight>54.00</geoidheight><course>329.3</course><type>1</type></trkpt>
      <trkpt lat="39.89731004" lon="-6.50366746"><ele>798</ele><speed>9.00</speed><time>2016-06-21T17:35:58Z</time><pdop>4.0</pdop><geoidheight>54.00</geoidheight><course>334.8</course><type>1</type></trkpt>
      <trkpt lat="39.89746735" lon="-6.50366365"><ele>796</ele><speed>5.75</speed><time>2016-06-21T17:36:01Z</time><pdop>4.0</pdop><geoidheight>54.00</geoidheight><course>10.2</course><type>1</type></trkpt>
      <trkpt lat="39.89755386" lon="-6.50356565"><ele>794</ele><speed>6.75</speed><time>2016-06-21T17:36:03Z</time><pdop>4.0</pdop><geoidheight>54.00</geoidheight><course>46.8</course><type>1</type></trkpt>
      <trkpt lat="39.89747272" lon="-6.50342285"><ele>791</ele><speed>7.75</speed><time>2016-06-21T17:36:05Z</time><pdop>4.0</pdop><geoidheight>54.00</geoidheight><course>129.9</course><type>1</type></trkpt>
      <trkpt lat="39.89738541" lon="-6.50340048"><ele>792</ele><speed>9.00</speed><time>2016-06-21T17:36:06Z</time><pdop>3.0</pdop><geoidheight>54.00</geoidheight><course>163.4</course><type>1</type></trkpt>
      <trkpt lat="39.89729833" lon="-6.503413"><ele>791</ele><speed>9.50</speed><time>2016-06-21T17:36:07Z</time><pdop>3.0</pdop><geoidheight>54.00</geoidheight><course>184.6</course><type>1</type></trkpt>
      <trkpt lat="39.89722863" lon="-6.50344208"><ele>791</ele><speed>9.00</speed><time>2016-06-21T17:36:08Z</time><pdop>3.0</pdop><geoidheight>54.00</geoidheight><course>197.7</course><type>1</type></trkpt>
      <trkpt lat="39.89710368" lon="-6.50349811"><ele>788</ele><speed>7.50</speed><time>2016-06-21T17:36:10Z</time><pdop>3.0</pdop><geoidheight>54.00</geoidheight><course>197.1</course><type>1</type></trkpt>
      <trkpt lat="39.89702838" lon="-6.50352373"><ele>786</ele><speed>8.75</speed><time>2016-06-21T17:36:11Z</time><pdop>3.0</pdop><geoidheight>54.00</geoidheight><course>196.0</course><type>1</type></trkpt>
      <trkpt lat="39.8969406" lon="-6.50357068"><ele>784</ele><speed>10.25</speed><time>2016-06-21T17:36:12Z</time><pdop>3.0</pdop><geoidheight>54.00</geoidheight><course>200.7</course><type>1</type></trkpt>
      <trkpt lat="39.89686414" lon="-6.50362857"><ele>784</ele><speed>10.00</speed><time>2016-06-21T17:36:13Z</time><pdop>3.0</pdop><geoidheight>54.00</geoidheight><course>207.8</course><type>1</type></trkpt>
      <trkpt lat="39.89674577" lon="-6.50373957"><ele>782</ele><speed>7.75</speed><time>2016-06-21T17:36:15Z</time><pdop>3.0</pdop><geoidheight>54.00</geoidheight><course>214.5</course><type>1</type></trkpt>
      <trkpt lat="39.89668372" lon="-6.50378899"><ele>779</ele><speed>8.00</speed><time>2016-06-21T17:36:16Z</time><pdop>3.0</pdop><geoidheight>54.00</geoidheight><course>211.2</course><type>1</type></trkpt>
      <trkpt lat="39.89660813" lon="-6.50383775"><ele>776</ele><speed>9.25</speed><time>2016-06-21T17:36:17Z</time><pdop>3.0</pdop><geoidheight>54.00</geoidheight><course>207.4</course><type>1</type></trkpt>
      <trkpt lat="39.89652642" lon="-6.50388948"><ele>774</ele><speed>10.00</speed><time>2016-06-21T17:36:18Z</time><pdop>4.0</pdop><geoidheight>54.00</geoidheight><course>205.0</course><type>1</type></trkpt>
      <trkpt lat="39.89636951" lon="-6.5039948"><ele>773</ele><speed>9.50</speed><time>2016-06-21T17:36:20Z</time><pdop>3.0</pdop><geoidheight>54.00</geoidheight><course>209.1</course><type>1</type></trkpt>
      <trkpt lat="39.89630347" lon="-6.50405687"><ele>773</ele><speed>9.00</speed><time>2016-06-21T17:36:21Z</time><pdop>3.0</pdop><geoidheight>54.00</geoidheight><course>214.6</course><type>1</type></trkpt>
      <trkpt lat="39.89623921" lon="-6.50411967"><ele>771</ele><speed>9.00</speed><time>2016-06-21T17:36:22Z</time><pdop>3.0</pdop><geoidheight>54.00</geoidheight><course>218.9</course><type>1</type></trkpt>
      <trkpt lat="39.89610096" lon="-6.50427832"><ele>768</ele><speed>10.75</speed><time>2016-06-21T17:36:24Z</time><pdop>4.0</pdop><geoidheight>54.00</geoidheight><course>221.7</course><type>1</type></trkpt>
      <trkpt lat="39.89602214" lon="-6.50436482"><ele>768</ele><speed>11.25</speed><time>2016-06-21T17:36:25Z</time><pdop>4.0</pdop><geoidheight>54.00</geoidheight><course>220.2</course><type>1</type></trkpt>
      <trkpt lat="39.89594297" lon="-6.50445198"><ele>767</ele><speed>11.25</speed><time>2016-06-21T17:36:26Z</time><pdop>3.0</pdop><geoidheight>54.00</geoidheight><course>220.7</course><type>1</type></trkpt>
      <trkpt lat="39.89587841" lon="-6.50454525"><ele>768</ele><speed>11.00</speed><time>2016-06-21T17:36:27Z</time><pdop>3.0</pdop><geoidheight>54.00</geoidheight><course>225.7</course><type>1</type></trkpt>
      <trkpt lat="39.89577744" lon="-6.50473655"><ele>768</ele><speed>10.00</speed><time>2016-06-21T17:36:29Z</time><pdop>3.0</pdop><geoidheight>54.00</geoidheight><course>235.9</course><type>1</type></trkpt>
      <trkpt lat="39.89570098" lon="-6.50493834"><ele>769</ele><speed>9.50</speed><time>2016-06-21T17:36:31Z</time><pdop>3.0</pdop><geoidheight>54.00</geoidheight><course>244.9</course><type>1</type></trkpt>
      <trkpt lat="39.89568301" lon="-6.50505159"><ele>768</ele><speed>9.75</speed><time>2016-06-21T17:36:32Z</time><pdop>3.0</pdop><geoidheight>54.00</geoidheight><course>254.5</course><type>1</type></trkpt>
      <trkpt lat="39.89566504" lon="-6.5053148"><ele>766</ele><speed>11.50</speed><time>2016-06-21T17:36:34Z</time><pdop>3.0</pdop><geoidheight>54.00</geoidheight><course>264.4</course><type>1</type></trkpt>
      <trkpt lat="39.89565201" lon="-6.50544638"><ele>766</ele><speed>11.00</speed><time>2016-06-21T17:36:35Z</time><pdop>4.0</pdop><geoidheight>54.00</geoidheight><course>263.9</course><type>1</type></trkpt>
      <trkpt lat="39.8956228" lon="-6.50555804"><ele>766</ele><speed>10.00</speed><time>2016-06-21T17:36:36Z</time><pdop>3.0</pdop><geoidheight>54.00</geoidheight><course>254.6</course><type>1</type></trkpt>
      <trkpt lat="39.89558322" lon="-6.50564"><ele>766</ele><speed>8.75</speed><time>2016-06-21T17:36:37Z</time><pdop>4.0</pdop><geoidheight>54.00</geoidheight><course>240.0</course><type>1</type></trkpt>
      <trkpt lat="39.89552401" lon="-6.50569642"><ele>764</ele><speed>7.75</speed><time>2016-06-21T17:36:38Z</time><pdop>3.0</pdop><geoidheight>54.00</geoidheight><course>220.2</course><type>1</type></trkpt>
      <trkpt lat="39.89545781" lon="-6.5057277"><ele>761</ele><speed>8.00</speed><time>2016-06-21T17:36:39Z</time><pdop>3.0</pdop><geoidheight>54.00</geoidheight><course>201.3</course><type>1</type></trkpt>
      <trkpt lat="39.89538175" lon="-6.5057386"><ele>760</ele><speed>8.50</speed><time>2016-06-21T17:36:40Z</time><pdop>3.0</pdop><geoidheight>54.00</geoidheight><course>186.5</course><type>1</type></trkpt>
      <trkpt lat="39.89529848" lon="-6.50573351"><ele>758</ele><speed>9.25</speed><time>2016-06-21T17:36:41Z</time><pdop>3.0</pdop><geoidheight>54.00</geoidheight><course>179.0</course><type>1</type></trkpt>
      <trkpt lat="39.89511949" lon="-6.50573259"><ele>756</ele><speed>9.50</speed><time>2016-06-21T17:36:43Z</time><pdop>3.0</pdop><geoidheight>54.00</geoidheight><course>181.8</course><type>1</type></trkpt>
      <trkpt lat="39.89497972" lon="-6.50577384"><ele>756</ele><speed>8.00</speed><time>2016-06-21T17:36:45Z</time><pdop>4.0</pdop><geoidheight>54.00</geoidheight><course>196.8</course><type>1</type></trkpt>
      <trkpt lat="39.89485681" lon="-6.50586917"><ele>752</ele><speed>8.00</speed><time>2016-06-21T17:36:47Z</time><pdop>3.0</pdop><geoidheight>54.00</geoidheight><course>212.6</course><type>1</type></trkpt>
      <trkpt lat="39.89478484" lon="-6.5059296"><ele>750</ele><speed>9.25</speed><time>2016-06-21T17:36:48Z</time><pdop>3.0</pdop><geoidheight>54.00</geoidheight><course>214.1</course><type>1</type></trkpt>
      <trkpt lat="39.89471671" lon="-6.50599719"><ele>748</ele><speed>9.50</speed><time>2016-06-21T17:36:49Z</time><pdop>3.0</pdop><geoidheight>54.00</geoidheight><course>217.2</course><type>1</type></trkpt>
      <trkpt lat="39.89462407" lon="-6.50615623"><ele>746</ele><speed>8.25</speed><time>2016-06-21T17:36:51Z</time><pdop>3.0</pdop><geoidheight>54.00</geoidheight><course>234.8</course><type>1</type></trkpt>
      <trkpt lat="39.89458673" lon="-6.50624076"><ele>774</ele><speed>8.50</speed><time>2016-06-21T17:36:52Z</time><pdop>3.0</pdop><geoidheight>54.00</geoidheight><course>239.1</course><type>1</type></trkpt>
      <trkpt lat="39.89450284" lon="-6.50644119"><ele>750</ele><speed>10.25</speed><time>2016-06-21T17:36:54Z</time><pdop>3.0</pdop><geoidheight>54.00</geoidheight><course>240.3</course><type>1</type></trkpt>
      <trkpt lat="39.89446258" lon="-6.50655931"><ele>745</ele><speed>11.00</speed><time>2016-06-21T17:36:55Z</time><pdop>3.0</pdop><geoidheight>54.00</geoidheight><course>244.8</course><type>1</type></trkpt>
      <trkpt lat="39.89443593" lon="-6.50668224"><ele>741</ele><speed>10.75</speed><time>2016-06-21T17:36:56Z</time><pdop>3.0</pdop><geoidheight>54.00</geoidheight><course>252.7</course><type>1</type></trkpt>
      <trkpt lat="39.89441979" lon="-6.50679624"><ele>752</ele><speed>10.00</speed><time>2016-06-21T17:36:57Z</time><pdop>3.0</pdop><geoidheight>54.00</geoidheight><course>258.3</course><type>1</type></trkpt>
      <trkpt lat="39.89436919" lon="-6.50700114"><ele>737</ele><speed>9.25</speed><time>2016-06-21T17:36:59Z</time><pdop>4.0</pdop><geoidheight>54.00</geoidheight><course>249.8</course><type>1</type></trkpt>
      <trkpt lat="39.89433057" lon="-6.50710788"><ele>746</ele><speed>10.00</speed><time>2016-06-21T17:37:00Z</time><pdop>3.0</pdop><geoidheight>54.00</geoidheight><course>246.5</course><type>1</type></trkpt>
      <trkpt lat="39.89428965" lon="-6.50722171"><ele>736</ele><speed>10.50</speed><time>2016-06-21T17:37:01Z</time><pdop>3.0</pdop><geoidheight>54.00</geoidheight><course>246.2</course><type>1</type></trkpt>
      <trkpt lat="39.89421799" lon="-6.5074508699999996"><ele>727</ele><speed>10.50</speed><time>2016-06-21T17:37:03Z</time><pdop>3.0</pdop><geoidheight>54.00</geoidheight><course>249.2</course><type>1</type></trkpt>
      <trkpt lat="39.894182" lon="-6.50756577"><ele>723</ele><speed>10.50</speed><time>2016-06-21T17:37:04Z</time><pdop>3.0</pdop><geoidheight>54.00</geoidheight><course>249.4</course><type>1</type></trkpt>
      <trkpt lat="39.8941471" lon="-6.50768193"><ele>720</ele><speed>10.75</speed><time>2016-06-21T17:37:05Z</time><pdop>3.0</pdop><geoidheight>54.00</geoidheight><course>247.5</course><type>1</type></trkpt>
      <trkpt lat="39.89406506" lon="-6.50792685"><ele>714</ele><speed>11.75</speed><time>2016-06-21T17:37:07Z</time><pdop>3.0</pdop><geoidheight>54.00</geoidheight><course>247.1</course><type>1</type></trkpt>
      <trkpt lat="39.89403346" lon="-6.50805886"><ele>711</ele><speed>11.75</speed><time>2016-06-21T17:37:08Z</time><pdop>3.0</pdop><geoidheight>54.00</geoidheight><course>251.3</course><type>1</type></trkpt>
      <trkpt lat="39.89397906" lon="-6.50830453"><ele>706</ele><speed>11.00</speed><time>2016-06-21T17:37:10Z</time><pdop>3.0</pdop><geoidheight>54.00</geoidheight><course>252.5</course><type>1</type></trkpt>
      <trkpt lat="39.89390103" lon="-6.50855249"><ele>701</ele><speed>11.50</speed><time>2016-06-21T17:37:12Z</time><pdop>3.0</pdop><geoidheight>54.00</geoidheight><course>248.9</course><type>1</type></trkpt>
      <trkpt lat="39.89382316" lon="-6.50880609"><ele>698</ele><speed>11.50</speed><time>2016-06-21T17:37:14Z</time><pdop>5.0</pdop><geoidheight>54.00</geoidheight><course>248.2</course><type>1</type></trkpt>
      <trkpt lat="39.89380316" lon="-6.50894043"><ele>697</ele><speed>11.25</speed><time>2016-06-21T17:37:15Z</time><pdop>4.0</pdop><geoidheight>54.00</geoidheight><course>252.7</course><type>1</type></trkpt>
      <trkpt lat="39.89369353" lon="-6.50915592"><ele>689</ele><speed>11.75</speed><time>2016-06-21T17:37:17Z</time><pdop>3.0</pdop><geoidheight>54.00</geoidheight><course>238.0</course><type>1</type></trkpt>
      <trkpt lat="39.89362865" lon="-6.50928001"><ele>687</ele><speed>12.75</speed><time>2016-06-21T17:37:18Z</time><pdop>3.0</pdop><geoidheight>54.00</geoidheight><course>236.2</course><type>1</type></trkpt>
      <trkpt lat="39.89357456" lon="-6.50939731"><ele>685</ele><speed>12.25</speed><time>2016-06-21T17:37:19Z</time><pdop>3.0</pdop><geoidheight>54.00</geoidheight><course>237.3</course><type>1</type></trkpt>
      <trkpt lat="39.8934779" lon="-6.50960089"><ele>682</ele><speed>10.00</speed><time>2016-06-21T17:37:21Z</time><pdop>3.0</pdop><geoidheight>54.00</geoidheight><course>235.1</course><type>1</type></trkpt>
      <trkpt lat="39.8934144" lon="-6.50968625"><ele>679</ele><speed>10.00</speed><time>2016-06-21T17:37:22Z</time><pdop>3.0</pdop><geoidheight>54.00</geoidheight><course>226.4</course><type>1</type></trkpt>
      <trkpt lat="39.8933449" lon="-6.50976208"><ele>677</ele><speed>10.50</speed><time>2016-06-21T17:37:23Z</time><pdop>3.0</pdop><geoidheight>54.00</geoidheight><course>219.4</course><type>1</type></trkpt>
      <trkpt lat="39.89327035" lon="-6.50983369"><ele>676</ele><speed>10.25</speed><time>2016-06-21T17:37:24Z</time><pdop>3.0</pdop><geoidheight>54.00</geoidheight><course>216.6</course><type>1</type></trkpt>
      <trkpt lat="39.89312839" lon="-6.50997184"><ele>673</ele><speed>10.00</speed><time>2016-06-21T17:37:26Z</time><pdop>3.0</pdop><geoidheight>54.00</geoidheight><course>218.1</course><type>1</type></trkpt>
      <trkpt lat="39.89305793" lon="-6.510044"><ele>671</ele><speed>10.00</speed><time>2016-06-21T17:37:27Z</time><pdop>3.0</pdop><geoidheight>54.00</geoidheight><course>218.4</course><type>1</type></trkpt>
      <trkpt lat="39.89298739" lon="-6.51011293"><ele>669</ele><speed>10.00</speed><time>2016-06-21T17:37:28Z</time><pdop>3.0</pdop><geoidheight>54.00</geoidheight><course>218.1</course><type>1</type></trkpt>
      <trkpt lat="39.89285696" lon="-6.51026297"><ele>664</ele><speed>9.75</speed><time>2016-06-21T17:37:30Z</time><pdop>3.0</pdop><geoidheight>54.00</geoidheight><course>221.2</course><type>1</type></trkpt>
      <trkpt lat="39.89279177" lon="-6.51033667"><ele>661</ele><speed>9.75</speed><time>2016-06-21T17:37:31Z</time><pdop>3.0</pdop><geoidheight>54.00</geoidheight><course>222.1</course><type>1</type></trkpt>
      <trkpt lat="39.89272926" lon="-6.51041603"><ele>658</ele><speed>9.75</speed><time>2016-06-21T17:37:32Z</time><pdop>3.0</pdop><geoidheight>54.00</geoidheight><course>222.4</course><type>1</type></trkpt>
      <trkpt lat="39.89260601" lon="-6.51057766"><ele>654</ele><speed>9.75</speed><time>2016-06-21T17:37:34Z</time><pdop>3.0</pdop><geoidheight>54.00</geoidheight><course>224.6</course><type>1</type></trkpt>
      <trkpt lat="39.89249624" lon="-6.51075703"><ele>651</ele><speed>9.75</speed><time>2016-06-21T17:37:36Z</time><pdop>4.0</pdop><geoidheight>54.00</geoidheight><course>233.8</course><type>1</type></trkpt>
      <trkpt lat="39.8924456" lon="-6.51084986"><ele>651</ele><speed>9.75</speed><time>2016-06-21T17:37:37Z</time><pdop>4.0</pdop><geoidheight>54.00</geoidheight><course>235.2</course><type>1</type></trkpt>
      <trkpt lat="39.8923204" lon="-6.51104609"><ele>645</ele><speed>10.75</speed><time>2016-06-21T17:37:39Z</time><pdop>3.0</pdop><geoidheight>54.00</geoidheight><course>230.7</course><type>1</type></trkpt>
      <trkpt lat="39.89226171" lon="-6.51115309"><ele>642</ele><speed>11.25</speed><time>2016-06-21T17:37:40Z</time><pdop>3.0</pdop><geoidheight>54.00</geoidheight><course>235.8</course><type>1</type></trkpt>
      <trkpt lat="39.89220875" lon="-6.51128057"><ele>639</ele><speed>12.25</speed><time>2016-06-21T17:37:41Z</time><pdop>3.0</pdop><geoidheight>54.00</geoidheight><course>240.8</course><type>1</type></trkpt>
      <trkpt lat="39.8921048" lon="-6.5115115"><ele>635</ele><speed>11.25</speed><time>2016-06-21T17:37:43Z</time><pdop>3.0</pdop><geoidheight>54.00</geoidheight><course>237.8</course><type>1</type></trkpt>
      <trkpt lat="39.89205316" lon="-6.51160865"><ele>633</ele><speed>10.50</speed><time>2016-06-21T17:37:44Z</time><pdop>3.0</pdop><geoidheight>54.00</geoidheight><course>235.7</course><type>1</type></trkpt>
      <trkpt lat="39.89195652" lon="-6.51181049"><ele>631</ele><speed>10.00</speed><time>2016-06-21T17:37:46Z</time><pdop>3.0</pdop><geoidheight>54.00</geoidheight><course>238.2</course><type>1</type></trkpt>
      <trkpt lat="39.89190383" lon="-6.51190981"><ele>625</ele><speed>10.50</speed><time>2016-06-21T17:37:47Z</time><pdop>3.0</pdop><geoidheight>54.00</geoidheight><course>235.3</course><type>1</type></trkpt>
      <trkpt lat="39.89177268" lon="-6.5121205"><ele>617</ele><speed>11.75</speed><time>2016-06-21T17:37:49Z</time><pdop>3.0</pdop><geoidheight>54.00</geoidheight><course>228.5</course><type>1</type></trkpt>
      <trkpt lat="39.89163053" lon="-6.51230907"><ele>611</ele><speed>11.00</speed><time>2016-06-21T17:37:51Z</time><pdop>3.0</pdop><geoidheight>54.00</geoidheight><course>225.1</course><type>1</type></trkpt>
      <trkpt lat="39.89156296" lon="-6.51241009"><ele>609</ele><speed>11.50</speed><time>2016-06-21T17:37:52Z</time><pdop>3.0</pdop><geoidheight>54.00</geoidheight><course>227.3</course><type>1</type></trkpt>
      <trkpt lat="39.89149032" lon="-6.51252428"><ele>607</ele><speed>12.50</speed><time>2016-06-21T17:37:53Z</time><pdop>3.0</pdop><geoidheight>54.00</geoidheight><course>229.4</course><type>1</type></trkpt>
      <trkpt lat="39.89133963" lon="-6.51274739"><ele>605</ele><speed>12.25</speed><time>2016-06-21T17:37:55Z</time><pdop>3.0</pdop><geoidheight>54.00</geoidheight><course>227.5</course><type>1</type></trkpt>
      <trkpt lat="39.89119267" lon="-6.51294858"><ele>603</ele><speed>11.75</speed><time>2016-06-21T17:37:57Z</time><pdop>3.0</pdop><geoidheight>54.00</geoidheight><course>228.5</course><type>1</type></trkpt>
      <trkpt lat="39.89111703" lon="-6.5130548"><ele>601</ele><speed>12.00</speed><time>2016-06-21T17:37:58Z</time><pdop>3.0</pdop><geoidheight>54.00</geoidheight><course>228.9</course><type>1</type></trkpt>
      <trkpt lat="39.89104199" lon="-6.51315539"><ele>599</ele><speed>12.25</speed><time>2016-06-21T17:37:59Z</time><pdop>3.0</pdop><geoidheight>54.00</geoidheight><course>225.5</course><type>1</type></trkpt>
      <trkpt lat="39.8908821" lon="-6.51333118"><ele>597</ele><speed>11.75</speed><time>2016-06-21T17:38:01Z</time><pdop>3.0</pdop><geoidheight>54.00</geoidheight><course>219.9</course><type>1</type></trkpt>
      <trkpt lat="39.89080478" lon="-6.51341969"><ele>596</ele><speed>11.75</speed><time>2016-06-21T17:38:02Z</time><pdop>3.0</pdop><geoidheight>54.00</geoidheight><course>221.4</course><type>1</type></trkpt>
      <trkpt lat="39.8907304" lon="-6.51352387"><ele>596</ele><speed>12.00</speed><time>2016-06-21T17:38:03Z</time><pdop>3.0</pdop><geoidheight>54.00</geoidheight><course>226.4</course><type>1</type></trkpt>
      <trkpt lat="39.8906665" lon="-6.51363773"><ele>595</ele><speed>12.00</speed><time>2016-06-21T17:38:04Z</time><pdop>3.0</pdop><geoidheight>54.00</geoidheight><course>232.8</course><type>1</type></trkpt>
      <trkpt lat="39.89061043" lon="-6.51375668"><ele>595</ele><speed>12.00</speed><time>2016-06-21T17:38:05Z</time><pdop>3.0</pdop><geoidheight>54.00</geoidheight><course>236.6</course><type>1</type></trkpt>
      <trkpt lat="39.89051667" lon="-6.51399818"><ele>606</ele><speed>11.50</speed><time>2016-06-21T17:38:07Z</time><pdop>3.0</pdop><geoidheight>54.00</geoidheight><course>244.4</course><type>1</type></trkpt>
      <trkpt lat="39.89048004" lon="-6.51412973"><ele>599</ele><speed>11.75</speed><time>2016-06-21T17:38:08Z</time><pdop>3.0</pdop><geoidheight>54.00</geoidheight><course>248.7</course><type>1</type></trkpt>
      <trkpt lat="39.89040279" lon="-6.51442292"><ele>592</ele><speed>13.50</speed><time>2016-06-21T17:38:10Z</time><pdop>3.0</pdop><geoidheight>54.00</geoidheight><course>250.8</course><type>1</type></trkpt>
      <trkpt lat="39.89036814" lon="-6.51457952"><ele>590</ele><speed>14.00</speed><time>2016-06-21T17:38:11Z</time><pdop>3.0</pdop><geoidheight>54.00</geoidheight><course>252.2</course><type>1</type></trkpt>
      <trkpt lat="39.89033438" lon="-6.51473811"><ele>589</ele><speed>13.75</speed><time>2016-06-21T17:38:12Z</time><pdop>3.0</pdop><geoidheight>54.00</geoidheight><course>255.7</course><type>1</type></trkpt>
      <trkpt lat="39.89029009" lon="-6.51502661"><ele>586</ele><speed>12.25</speed><time>2016-06-21T17:38:14Z</time><pdop>3.0</pdop><geoidheight>54.00</geoidheight><course>259.9</course><type>1</type></trkpt>
      <trkpt lat="39.89023757" lon="-6.51531488"><ele>583</ele><speed>13.00</speed><time>2016-06-21T17:38:16Z</time><pdop>3.0</pdop><geoidheight>54.00</geoidheight><course>257.1</course><type>1</type></trkpt>
      <trkpt lat="39.89020818" lon="-6.51546691"><ele>582</ele><speed>13.25</speed><time>2016-06-21T17:38:17Z</time><pdop>3.0</pdop><geoidheight>54.00</geoidheight><course>255.6</course><type>1</type></trkpt>
      <trkpt lat="39.89014759" lon="-6.51575472"><ele>581</ele><speed>12.25</speed><time>2016-06-21T17:38:19Z</time><pdop>3.0</pdop><geoidheight>54.00</geoidheight><course>254.7</course><type>1</type></trkpt>
      <trkpt lat="39.89008844" lon="-6.51601643"><ele>578</ele><speed>11.50</speed><time>2016-06-21T17:38:21Z</time><pdop>3.0</pdop><geoidheight>54.00</geoidheight><course>253.1</course><type>1</type></trkpt>
      <trkpt lat="39.89000519" lon="-6.51628345"><ele>575</ele><speed>12.75</speed><time>2016-06-21T17:38:23Z</time><pdop>3.0</pdop><geoidheight>54.00</geoidheight><course>246.2</course><type>1</type></trkpt>
      <trkpt lat="39.88995677" lon="-6.51641816"><ele>574</ele><speed>12.75</speed><time>2016-06-21T17:38:24Z</time><pdop>3.0</pdop><geoidheight>54.00</geoidheight><course>245.8</course><type>1</type></trkpt>
      <trkpt lat="39.889918109999996" lon="-6.51654646"><ele>574</ele><speed>11.50</speed><time>2016-06-21T17:38:25Z</time><pdop>3.0</pdop><geoidheight>54.00</geoidheight><course>248.1</course><type>1</type></trkpt>
      <trkpt lat="39.88986949" lon="-6.51676102"><ele>574</ele><speed>9.25</speed><time>2016-06-21T17:38:27Z</time><pdop>3.0</pdop><geoidheight>54.00</geoidheight><course>253.5</course><type>1</type></trkpt>
      <trkpt lat="39.88985129" lon="-6.51686051"><ele>573</ele><speed>9.00</speed><time>2016-06-21T17:38:28Z</time><pdop>3.0</pdop><geoidheight>54.00</geoidheight><course>255.5</course><type>1</type></trkpt>
      <trkpt lat="39.88980616" lon="-6.51707399"><ele>570</ele><speed>9.50</speed><time>2016-06-21T17:38:30Z</time><pdop>3.0</pdop><geoidheight>54.00</geoidheight><course>255.1</course><type>1</type></trkpt>
      <trkpt lat="39.88978944" lon="-6.51719467"><ele>568</ele><speed>10.25</speed><time>2016-06-21T17:38:31Z</time><pdop>3.0</pdop><geoidheight>54.00</geoidheight><course>259.0</course><type>1</type></trkpt>
      <trkpt lat="39.88978416" lon="-6.51732321"><ele>566</ele><speed>11.25</speed><time>2016-06-21T17:38:32Z</time><pdop>3.0</pdop><geoidheight>54.00</geoidheight><course>266.6</course><type>1</type></trkpt>
      <trkpt lat="39.88981866" lon="-6.51759402"><ele>563</ele><speed>12.00</speed><time>2016-06-21T17:38:34Z</time><pdop>3.0</pdop><geoidheight>54.00</geoidheight><course>283.2</course><type>1</type></trkpt>
      <trkpt lat="39.88985074" lon="-6.51772887"><ele>561</ele><speed>12.00</speed><time>2016-06-21T17:38:35Z</time><pdop>3.0</pdop><geoidheight>54.00</geoidheight><course>286.9</course><type>1</type></trkpt>
      <trkpt lat="39.88988273" lon="-6.51786572"><ele>559</ele><speed>12.00</speed><time>2016-06-21T17:38:36Z</time><pdop>3.0</pdop><geoidheight>54.00</geoidheight><course>287.3</course><type>1</type></trkpt>
      <trkpt lat="39.88991007" lon="-6.51800797"><ele>556</ele><speed>12.25</speed><time>2016-06-21T17:38:37Z</time><pdop>3.0</pdop><geoidheight>54.00</geoidheight><course>284.1</course><type>1</type></trkpt>
      <trkpt lat="39.88992705" lon="-6.51815611"><ele>553</ele><speed>12.75</speed><time>2016-06-21T17:38:38Z</time><pdop>3.0</pdop><geoidheight>54.00</geoidheight><course>278.4</course><type>1</type></trkpt>
      <trkpt lat="39.88992981" lon="-6.51830653"><ele>550</ele><speed>13.00</speed><time>2016-06-21T17:38:39Z</time><pdop>3.0</pdop><geoidheight>54.00</geoidheight><course>272.5</course><type>1</type></trkpt>
      <trkpt lat="39.88990959" lon="-6.51861679"><ele>544</ele><speed>13.50</speed><time>2016-06-21T17:38:41Z</time><pdop>3.0</pdop><geoidheight>54.00</geoidheight><course>264.1</course><type>1</type></trkpt>
      <trkpt lat="39.8898883" lon="-6.51877135"><ele>541</ele><speed>13.75</speed><time>2016-06-21T17:38:42Z</time><pdop>3.0</pdop><geoidheight>54.00</geoidheight><course>260.9</course><type>1</type></trkpt>
      <trkpt lat="39.88985627" lon="-6.51892908"><ele>540</ele><speed>14.00</speed><time>2016-06-21T17:38:43Z</time><pdop>3.0</pdop><geoidheight>54.00</geoidheight><course>257.1</course><type>1</type></trkpt>
      <trkpt lat="39.88982432" lon="-6.51906021"><ele>541</ele><speed>12.25</speed><time>2016-06-21T17:38:44Z</time><pdop>4.0</pdop><geoidheight>54.00</geoidheight><course>253.2</course><type>1</type></trkpt>
      <trkpt lat="39.88975069" lon="-6.51923084"><ele>541</ele><speed>7.75</speed><time>2016-06-21T17:38:46Z</time><pdop>3.0</pdop><geoidheight>54.00</geoidheight><course>237.0</course><type>1</type></trkpt>
      <trkpt lat="39.88966043" lon="-6.51930537"><ele>535</ele><speed>6.25</speed><time>2016-06-21T17:38:48Z</time><pdop>3.0</pdop><geoidheight>54.00</geoidheight><course>207.4</course><type>1</type></trkpt>
      <trkpt lat="39.88950824" lon="-6.51941198"><ele>527</ele><speed>9.75</speed><time>2016-06-21T17:38:50Z</time><pdop>3.0</pdop><geoidheight>54.00</geoidheight><course>209.8</course><type>1</type></trkpt>
      <trkpt lat="39.88943829" lon="-6.51949124"><ele>526</ele><speed>10.50</speed><time>2016-06-21T17:38:51Z</time><pdop>3.0</pdop><geoidheight>54.00</geoidheight><course>220.3</course><type>1</type></trkpt>
      <trkpt lat="39.88934533" lon="-6.51970846"><ele>523</ele><speed>11.00</speed><time>2016-06-21T17:38:53Z</time><pdop>3.0</pdop><geoidheight>54.00</geoidheight><course>244.8</course><type>1</type></trkpt>
      <trkpt lat="39.88931676" lon="-6.51984177"><ele>521</ele><speed>11.50</speed><time>2016-06-21T17:38:54Z</time><pdop>3.0</pdop><geoidheight>54.00</geoidheight><course>252.1</course><type>1</type></trkpt>
      <trkpt lat="39.8892859" lon="-6.51998373"><ele>519</ele><speed>12.25</speed><time>2016-06-21T17:38:55Z</time><pdop>3.0</pdop><geoidheight>54.00</geoidheight><course>254.3</course><type>1</type></trkpt>
      <trkpt lat="39.88922309" lon="-6.52026854"><ele>515</ele><speed>12.75</speed><time>2016-06-21T17:38:57Z</time><pdop>3.0</pdop><geoidheight>54.00</geoidheight><course>253.5</course><type>1</type></trkpt>
      <trkpt lat="39.88919457" lon="-6.52041819"><ele>515</ele><speed>13.00</speed><time>2016-06-21T17:38:58Z</time><pdop>3.0</pdop><geoidheight>54.00</geoidheight><course>254.8</course><type>1</type></trkpt>
      <trkpt lat="39.88916911" lon="-6.52057186"><ele>514</ele><speed>12.75</speed><time>2016-06-21T17:38:59Z</time><pdop>3.0</pdop><geoidheight>54.00</geoidheight><course>256.1</course><type>1</type></trkpt>
      <trkpt lat="39.88914659" lon="-6.5207065"><ele>514</ele><speed>12.25</speed><time>2016-06-21T17:39:00Z</time><pdop>3.0</pdop><geoidheight>54.00</geoidheight><course>257.1</course><type>1</type></trkpt>
      <trkpt lat="39.88906629" lon="-6.52096934"><ele>511</ele><speed>12.25</speed><time>2016-06-21T17:39:02Z</time><pdop>3.0</pdop><geoidheight>54.00</geoidheight><course>247.5</course><type>1</type></trkpt>
      <trkpt lat="39.88900831" lon="-6.5210998"><ele>510</ele><speed>13.00</speed><time>2016-06-21T17:39:03Z</time><pdop>3.0</pdop><geoidheight>54.00</geoidheight><course>241.0</course><type>1</type></trkpt>
      <trkpt lat="39.88886841" lon="-6.52135036"><ele>510</ele><speed>13.00</speed><time>2016-06-21T17:39:05Z</time><pdop>3.0</pdop><geoidheight>54.00</geoidheight><course>232.7</course><type>1</type></trkpt>
      <trkpt lat="39.8888086" lon="-6.52145473"><ele>510</ele><speed>11.75</speed><time>2016-06-21T17:39:06Z</time><pdop>3.0</pdop><geoidheight>54.00</geoidheight><course>233.7</course><type>1</type></trkpt>
      <trkpt lat="39.88871236" lon="-6.52166432"><ele>507</ele><speed>10.75</speed><time>2016-06-21T17:39:08Z</time><pdop>3.0</pdop><geoidheight>54.00</geoidheight><course>239.2</course><type>1</type></trkpt>
      <trkpt lat="39.88866943" lon="-6.52178836"><ele>505</ele><speed>11.75</speed><time>2016-06-21T17:39:09Z</time><pdop>3.0</pdop><geoidheight>54.00</geoidheight><course>243.7</course><type>1</type></trkpt>
      <trkpt lat="39.88859084" lon="-6.52210207"><ele>501</ele><speed>14.25</speed><time>2016-06-21T17:39:11Z</time><pdop>4.0</pdop><geoidheight>54.00</geoidheight><course>253.9</course><type>1</type></trkpt>
      <trkpt lat="39.88854837" lon="-6.52241153"><ele>499</ele><speed>12.75</speed><time>2016-06-21T17:39:13Z</time><pdop>3.0</pdop><geoidheight>54.00</geoidheight><course>259.1</course><type>1</type></trkpt>
      <trkpt lat="39.88852872" lon="-6.52255241"><ele>498</ele><speed>12.25</speed><time>2016-06-21T17:39:14Z</time><pdop>3.0</pdop><geoidheight>54.00</geoidheight><course>260.4</course><type>1</type></trkpt>
      <trkpt lat="39.88851051" lon="-6.52269803"><ele>495</ele><speed>12.25</speed><time>2016-06-21T17:39:15Z</time><pdop>3.0</pdop><geoidheight>54.00</geoidheight><course>260.0</course><type>1</type></trkpt>
      <trkpt lat="39.88848035" lon="-6.52284443"><ele>492</ele><speed>13.00</speed><time>2016-06-21T17:39:16Z</time><pdop>3.0</pdop><geoidheight>54.00</geoidheight><course>255.9</course><type>1</type></trkpt>
      <trkpt lat="39.88838744" lon="-6.5230859"><ele>490</ele><speed>11.25</speed><time>2016-06-21T17:39:18Z</time><pdop>4.0</pdop><geoidheight>54.00</geoidheight><course>238.8</course><type>1</type></trkpt>
      <trkpt lat="39.8882629" lon="-6.52318913"><ele>488</ele><speed>7.75</speed><time>2016-06-21T17:39:20Z</time><pdop>3.0</pdop><geoidheight>54.00</geoidheight><course>206.7</course><type>1</type></trkpt>
      <trkpt lat="39.88820022" lon="-6.52320684"><ele>487</ele><speed>7.50</speed><time>2016-06-21T17:39:21Z</time><pdop>3.0</pdop><geoidheight>54.00</geoidheight><course>195.0</course><type>1</type></trkpt>
      <trkpt lat="39.88805376" lon="-6.52325435"><ele>486</ele><speed>8.50</speed><time>2016-06-21T17:39:23Z</time><pdop>3.0</pdop><geoidheight>54.00</geoidheight><course>198.5</course><type>1</type></trkpt>
      <trkpt lat="39.88798363" lon="-6.5232945"><ele>485</ele><speed>8.75</speed><time>2016-06-21T17:39:24Z</time><pdop>3.0</pdop><geoidheight>54.00</geoidheight><course>207.6</course><type>1</type></trkpt>
      <trkpt lat="39.88791672" lon="-6.52334624"><ele>485</ele><speed>8.50</speed><time>2016-06-21T17:39:25Z</time><pdop>3.0</pdop><geoidheight>54.00</geoidheight><course>211.2</course><type>1</type></trkpt>
      <trkpt lat="39.88785087" lon="-6.52339638"><ele>484</ele><speed>8.25</speed><time>2016-06-21T17:39:26Z</time><pdop>3.0</pdop><geoidheight>54.00</geoidheight><course>210.3</course><type>1</type></trkpt>
      <trkpt lat="39.88771097" lon="-6.52347704"><ele>480</ele><speed>8.50</speed><time>2016-06-21T17:39:28Z</time><pdop>4.0</pdop><geoidheight>54.00</geoidheight><course>203.9</course><type>1</type></trkpt>
      <trkpt lat="39.88757395" lon="-6.52348306"><ele>475</ele><speed>7.50</speed><time>2016-06-21T17:39:30Z</time><pdop>3.0</pdop><geoidheight>54.00</geoidheight><course>179.6</course><type>1</type></trkpt>
      <trkpt lat="39.88745146" lon="-6.5234425"><ele>474</ele><speed>7.00</speed><time>2016-06-21T17:39:32Z</time><pdop>3.0</pdop><geoidheight>54.00</geoidheight><course>168.0</course><type>1</type></trkpt>
      <trkpt lat="39.88736672" lon="-6.52338917"><ele>472</ele><speed>5.00</speed><time>2016-06-21T17:39:34Z</time><pdop>4.0</pdop><geoidheight>54.00</geoidheight><course>148.5</course><type>1</type></trkpt>
      <trkpt lat="39.88731203" lon="-6.52328961"><ele>469</ele><speed>5.00</speed><time>2016-06-21T17:39:36Z</time><pdop>4.0</pdop><geoidheight>54.00</geoidheight><course>125.3</course><type>1</type></trkpt>
      <trkpt lat="39.88727073" lon="-6.52317691"><ele>466</ele><speed>5.25</speed><time>2016-06-21T17:39:38Z</time><pdop>4.0</pdop><geoidheight>54.00</geoidheight><course>114.9</course><type>1</type></trkpt>
      <trkpt lat="39.88717662" lon="-6.52302394"><ele>462</ele><speed>5.50</speed><time>2016-06-21T17:39:41Z</time><pdop>4.0</pdop><geoidheight>54.00</geoidheight><course>135.0</course><type>1</type></trkpt>
      <trkpt lat="39.88706052" lon="-6.52297042"><ele>458</ele><speed>6.50</speed><time>2016-06-21T17:39:43Z</time><pdop>3.0</pdop><geoidheight>54.00</geoidheight><course>165.1</course><type>1</type></trkpt>
      <trkpt lat="39.88693542" lon="-6.5229827"><ele>455</ele><speed>6.75</speed><time>2016-06-21T17:39:45Z</time><pdop>3.0</pdop><geoidheight>54.00</geoidheight><course>184.5</course><type>1</type></trkpt>
      <trkpt lat="39.88680553" lon="-6.52302482"><ele>451</ele><speed>8.00</speed><time>2016-06-21T17:39:47Z</time><pdop>3.0</pdop><geoidheight>54.00</geoidheight><course>195.7</course><type>1</type></trkpt>
      <trkpt lat="39.88665509" lon="-6.5231549"><ele>446</ele><speed>10.25</speed><time>2016-06-21T17:39:49Z</time><pdop>3.0</pdop><geoidheight>54.00</geoidheight><course>213.6</course><type>1</type></trkpt>
      <trkpt lat="39.88657934" lon="-6.52323688"><ele>444</ele><speed>11.00</speed><time>2016-06-21T17:39:50Z</time><pdop>3.0</pdop><geoidheight>54.00</geoidheight><course>217.5</course><type>1</type></trkpt>
      <trkpt lat="39.88650002" lon="-6.52332345"><ele>443</ele><speed>11.25</speed><time>2016-06-21T17:39:51Z</time><pdop>3.0</pdop><geoidheight>54.00</geoidheight><course>218.3</course><type>1</type></trkpt>
      <trkpt lat="39.8864253" lon="-6.5233993"><ele>442</ele><speed>11.25</speed><time>2016-06-21T17:39:52Z</time><pdop>3.0</pdop><geoidheight>54.00</geoidheight><course>216.9</course><type>1</type></trkpt>
      <trkpt lat="39.88634943" lon="-6.52348202"><ele>441</ele><speed>11.00</speed><time>2016-06-21T17:39:53Z</time><pdop>3.0</pdop><geoidheight>54.00</geoidheight><course>218.2</course><type>1</type></trkpt>
      <trkpt lat="39.88627429" lon="-6.52356753"><ele>441</ele><speed>10.75</speed><time>2016-06-21T17:39:54Z</time><pdop>3.0</pdop><geoidheight>54.00</geoidheight><course>221.6</course><type>1</type></trkpt>
      <trkpt lat="39.88613865" lon="-6.52375824"><ele>439</ele><speed>11.25</speed><time>2016-06-21T17:39:56Z</time><pdop>3.0</pdop><geoidheight>54.00</geoidheight><course>226.4</course><type>1</type></trkpt>
      <trkpt lat="39.88599871" lon="-6.52393073"><ele>438</ele><speed>10.75</speed><time>2016-06-21T17:39:58Z</time><pdop>4.0</pdop><geoidheight>54.00</geoidheight><course>223.8</course><type>1</type></trkpt>
      <trkpt lat="39.88592818" lon="-6.52401516"><ele>436</ele><speed>10.50</speed><time>2016-06-21T17:39:59Z</time><pdop>3.0</pdop><geoidheight>54.00</geoidheight><course>222.2</course><type>1</type></trkpt>
      <trkpt lat="39.88585909" lon="-6.52409558"><ele>434</ele><speed>10.50</speed><time>2016-06-21T17:40:00Z</time><pdop>3.0</pdop><geoidheight>54.00</geoidheight><course>222.2</course><type>1</type></trkpt>
      <trkpt lat="39.88572955" lon="-6.52429712"><ele>429</ele><speed>11.75</speed><time>2016-06-21T17:40:02Z</time><pdop>3.0</pdop><geoidheight>54.00</geoidheight><course>232.2</course><type>1</type></trkpt>
      <trkpt lat="39.88560786" lon="-6.52453207"><ele>423</ele><speed>12.00</speed><time>2016-06-21T17:40:04Z</time><pdop>3.0</pdop><geoidheight>54.00</geoidheight><course>234.7</course><type>1</type></trkpt>
      <trkpt lat="39.88553594" lon="-6.52463651"><ele>420</ele><speed>12.00</speed><time>2016-06-21T17:40:05Z</time><pdop>3.0</pdop><geoidheight>54.00</geoidheight><course>228.9</course><type>1</type></trkpt>
      <trkpt lat="39.88546125" lon="-6.52473454"><ele>417</ele><speed>12.00</speed><time>2016-06-21T17:40:06Z</time><pdop>3.0</pdop><geoidheight>54.00</geoidheight><course>224.7</course><type>1</type></trkpt>
      <trkpt lat="39.88531822" lon="-6.5249317"><ele>412</ele><speed>11.25</speed><time>2016-06-21T17:40:08Z</time><pdop>3.0</pdop><geoidheight>54.00</geoidheight><course>227.4</course><type>1</type></trkpt>
      <trkpt lat="39.88524709" lon="-6.52502116"><ele>409</ele><speed>11.25</speed><time>2016-06-21T17:40:09Z</time><pdop>3.0</pdop><geoidheight>54.00</geoidheight><course>225.2</course><type>1</type></trkpt>
      <trkpt lat="39.88517067" lon="-6.5251003"><ele>405</ele><speed>11.00</speed><time>2016-06-21T17:40:10Z</time><pdop>3.0</pdop><geoidheight>54.00</geoidheight><course>220.4</course><type>1</type></trkpt>
      <trkpt lat="39.88500751" lon="-6.52525049"><ele>400</ele><speed>11.00</speed><time>2016-06-21T17:40:12Z</time><pdop>3.0</pdop><geoidheight>54.00</geoidheight><course>215.4</course><type>1</type></trkpt>
      <trkpt lat="39.88493009" lon="-6.52533995"><ele>398</ele><speed>11.50</speed><time>2016-06-21T17:40:13Z</time><pdop>3.0</pdop><geoidheight>54.00</geoidheight><course>221.0</course><type>1</type></trkpt>
      <trkpt lat="39.88481546" lon="-6.52559299"><ele>393</ele><speed>12.75</speed><time>2016-06-21T17:40:15Z</time><pdop>3.0</pdop><geoidheight>54.00</geoidheight><course>243.6</course><type>1</type></trkpt>
      <trkpt lat="39.88478456" lon="-6.52575462"><ele>391</ele><speed>13.75</speed><time>2016-06-21T17:40:16Z</time><pdop>4.0</pdop><geoidheight>54.00</geoidheight><course>253.6</course><type>1</type></trkpt>
      <trkpt lat="39.88478633" lon="-6.52591917"><ele>388</ele><speed>14.25</speed><time>2016-06-21T17:40:17Z</time><pdop>3.0</pdop><geoidheight>54.00</geoidheight><course>266.8</course><type>1</type></trkpt>
      <trkpt lat="39.88485318" lon="-6.52626195"><ele>385</ele><speed>14.75</speed><time>2016-06-21T17:40:19Z</time><pdop>3.0</pdop><geoidheight>54.00</geoidheight><course>286.0</course><type>1</type></trkpt>
      <trkpt lat="39.88489557" lon="-6.52640944"><ele>386</ele><speed>13.50</speed><time>2016-06-21T17:40:20Z</time><pdop>3.0</pdop><geoidheight>54.00</geoidheight><course>289.1</course><type>1</type></trkpt>
      <trkpt lat="39.88493968" lon="-6.52653353"><ele>386</ele><speed>11.75</speed><time>2016-06-21T17:40:21Z</time><pdop>3.0</pdop><geoidheight>54.00</geoidheight><course>291.7</course><type>1</type></trkpt>
      <trkpt lat="39.88504872" lon="-6.52677858"><ele>382</ele><speed>12.75</speed><time>2016-06-21T17:40:23Z</time><pdop>3.0</pdop><geoidheight>54.00</geoidheight><course>299.5</course><type>1</type></trkpt>
      <trkpt lat="39.88511655" lon="-6.52691915"><ele>381</ele><speed>14.25</speed><time>2016-06-21T17:40:24Z</time><pdop>4.0</pdop><geoidheight>54.00</geoidheight><course>300.8</course><type>1</type></trkpt>
      <trkpt lat="39.88518739" lon="-6.52706346"><ele>381</ele><speed>14.50</speed><time>2016-06-21T17:40:25Z</time><pdop>3.0</pdop><geoidheight>54.00</geoidheight><course>300.7</course><type>1</type></trkpt>
      <trkpt lat="39.88531709" lon="-6.52733075"><ele>382</ele><speed>12.50</speed><time>2016-06-21T17:40:27Z</time><pdop>3.0</pdop><geoidheight>54.00</geoidheight><course>302.6</course><type>1</type></trkpt>
      <trkpt lat="39.88544711" lon="-6.52755908"><ele>380</ele><speed>12.00</speed><time>2016-06-21T17:40:29Z</time><pdop>3.0</pdop><geoidheight>54.00</geoidheight><course>305.6</course><type>1</type></trkpt>
      <trkpt lat="39.88556031" lon="-6.52783027"><ele>379</ele><speed>14.00</speed><time>2016-06-21T17:40:31Z</time><pdop>4.0</pdop><geoidheight>54.00</geoidheight><course>295.2</course><type>1</type></trkpt>
      <trkpt lat="39.88561106" lon="-6.52799282"><ele>379</ele><speed>14.75</speed><time>2016-06-21T17:40:32Z</time><pdop>4.0</pdop><geoidheight>54.00</geoidheight><course>291.4</course><type>1</type></trkpt>
      <trkpt lat="39.88566344" lon="-6.52814962"><ele>378</ele><speed>14.75</speed><time>2016-06-21T17:40:33Z</time><pdop>4.0</pdop><geoidheight>54.00</geoidheight><course>292.5</course><type>1</type></trkpt>
      <trkpt lat="39.8857135" lon="-6.52828694"><ele>377</ele><speed>13.50</speed><time>2016-06-21T17:40:34Z</time><pdop>4.0</pdop><geoidheight>54.00</geoidheight><course>294.4</course><type>1</type></trkpt>
      <trkpt lat="39.88580935" lon="-6.52854128"><ele>376</ele><speed>12.25</speed><time>2016-06-21T17:40:36Z</time><pdop>4.0</pdop><geoidheight>54.00</geoidheight><course>296.9</course><type>1</type></trkpt>
      <trkpt lat="39.88585943" lon="-6.52866435"><ele>376</ele><speed>12.00</speed><time>2016-06-21T17:40:37Z</time><pdop>4.0</pdop><geoidheight>54.00</geoidheight><course>296.5</course><type>1</type></trkpt>
      <trkpt lat="39.88590279" lon="-6.52880578"><ele>375</ele><speed>12.75</speed><time>2016-06-21T17:40:38Z</time><pdop>4.0</pdop><geoidheight>54.00</geoidheight><course>291.3</course><type>1</type></trkpt>
      <trkpt lat="39.8859379" lon="-6.52897052"><ele>373</ele><speed>13.75</speed><time>2016-06-21T17:40:39Z</time><pdop>4.0</pdop><geoidheight>54.00</geoidheight><course>287.5</course><type>1</type></trkpt>
      <trkpt lat="39.88600941" lon="-6.52935206"><ele>370</ele><speed>17.00</speed><time>2016-06-21T17:40:41Z</time><pdop>3.0</pdop><geoidheight>54.00</geoidheight><course>284.7</course><type>1</type></trkpt>
      <trkpt lat="39.88607777" lon="-6.52972398"><ele>371</ele><speed>16.00</speed><time>2016-06-21T17:40:43Z</time><pdop>3.0</pdop><geoidheight>54.00</geoidheight><course>283.0</course><type>1</type></trkpt>
      <trkpt lat="39.88610522" lon="-6.52988678"><ele>372</ele><speed>14.25</speed><time>2016-06-21T17:40:44Z</time><pdop>4.0</pdop><geoidheight>54.00</geoidheight><course>282.3</course><type>1</type></trkpt>
      <trkpt lat="39.88610357" lon="-6.53016843"><ele>370</ele><speed>12.25</speed><time>2016-06-21T17:40:46Z</time><pdop>3.0</pdop><geoidheight>54.00</geoidheight><course>265.3</course><type>1</type></trkpt>
      <trkpt lat="39.88600586" lon="-6.5304581"><ele>368</ele><speed>14.50</speed><time>2016-06-21T17:40:48Z</time><pdop>4.0</pdop><geoidheight>54.00</geoidheight><course>244.3</course><type>1</type></trkpt>
      <trkpt lat="39.88593173" lon="-6.53057456"><ele>369</ele><speed>13.25</speed><time>2016-06-21T17:40:49Z</time><pdop>4.0</pdop><geoidheight>54.00</geoidheight><course>233.7</course><type>1</type></trkpt>
      <trkpt lat="39.88586094" lon="-6.53065547"><ele>369</ele><speed>10.50</speed><time>2016-06-21T17:40:50Z</time><pdop>3.0</pdop><geoidheight>54.00</geoidheight><course>221.4</course><type>1</type></trkpt>
      <trkpt lat="39.88579548" lon="-6.53069025"><ele>368</ele><speed>8.00</speed><time>2016-06-21T17:40:51Z</time><pdop>3.0</pdop><geoidheight>54.00</geoidheight><course>205.3</course><type>1</type></trkpt>
      <trkpt lat="39.88573848" lon="-6.53068352"><ele>367</ele><speed>6.25</speed><time>2016-06-21T17:40:52Z</time><pdop>3.0</pdop><geoidheight>54.00</geoidheight><course>178.5</course><type>1</type></trkpt>
      <trkpt lat="39.88567344" lon="-6.53059247"><ele>366</ele><speed>5.25</speed><time>2016-06-21T17:40:54Z</time><pdop>4.0</pdop><geoidheight>54.00</geoidheight><course>128.8</course><type>1</type></trkpt>
      <trkpt lat="39.88571297" lon="-6.53051155"><ele>365</ele><speed>5.75</speed><time>2016-06-21T17:40:55Z</time><pdop>3.0</pdop><geoidheight>54.00</geoidheight><course>73.5</course><type>1</type></trkpt>
      <trkpt lat="39.88578855" lon="-6.53039987"><ele>366</ele><speed>2.75</speed><time>2016-06-21T17:40:58Z</time><pdop>4.0</pdop><geoidheight>54.00</geoidheight><course>36.0</course><type>1</type></trkpt>
      <trkpt lat="39.8858519" lon="-6.53032697"><ele>365</ele><speed>3.00</speed><time>2016-06-21T17:41:01Z</time><pdop>4.0</pdop><geoidheight>54.00</geoidheight><course>40.1</course><type>1</type></trkpt>
      <trkpt lat="39.88582759" lon="-6.53024429"><ele>366</ele><speed>2.75</speed><time>2016-06-21T17:41:04Z</time><pdop>3.0</pdop><geoidheight>54.00</geoidheight><course>122.7</course><type>1</type></trkpt>
      <trkpt lat="39.8858994" lon="-6.53022885"><ele>366</ele><speed>3.50</speed><time>2016-06-21T17:41:08Z</time><pdop>3.0</pdop><geoidheight>54.00</geoidheight><course>347.3</course><type>1</type></trkpt>
      <trkpt lat="39.88598169" lon="-6.53025353"><ele>365</ele><speed>6.50</speed><time>2016-06-21T17:41:09Z</time><pdop>3.0</pdop><geoidheight>54.00</geoidheight><course>345.4</course><type>1</type></trkpt>
      <trkpt lat="39.88606912" lon="-6.53026078"><ele>363</ele><speed>1.25</speed><time>2016-06-21T17:41:12Z</time><pdop>3.0</pdop><geoidheight>54.00</geoidheight><course>22.3</course><type>1</type></trkpt>
      <trkpt lat="39.88598554" lon="-6.53019978"><ele>361</ele><speed>5.00</speed><time>2016-06-21T17:41:15Z</time><pdop>3.0</pdop><geoidheight>54.00</geoidheight><course>155.1</course><type>1</type></trkpt>
      <trkpt lat="39.88588425" lon="-6.53014972"><ele>363</ele><speed>3.25</speed><time>2016-06-21T17:41:18Z</time><pdop>4.0</pdop><geoidheight>54.00</geoidheight><course>157.4</course><type>1</type></trkpt>
      <trkpt lat="39.88581312" lon="-6.53006168"><ele>362</ele><speed>4.25</speed><time>2016-06-21T17:41:21Z</time><pdop>4.0</pdop><geoidheight>54.00</geoidheight><course>138.0</course><type>1</type></trkpt>
      <trkpt lat="39.88574931" lon="-6.52996607"><ele>356</ele><speed>3.50</speed><time>2016-06-21T17:41:24Z</time><pdop>3.0</pdop><geoidheight>54.00</geoidheight><course>133.6</course><type>1</type></trkpt>
      <trkpt lat="39.88569138" lon="-6.52984111"><ele>350</ele><speed>4.25</speed><time>2016-06-21T17:41:27Z</time><pdop>4.0</pdop><geoidheight>54.00</geoidheight><course>121.6</course><type>1</type></trkpt>
      <trkpt lat="39.88564886" lon="-6.5297605"><ele>349</ele><speed>4.00</speed><time>2016-06-21T17:41:29Z</time><pdop>4.0</pdop><geoidheight>54.00</geoidheight><course>125.2</course><type>1</type></trkpt>
      <trkpt lat="39.88556629" lon="-6.52964048"><ele>344</ele><speed>3.75</speed><time>2016-06-21T17:41:33Z</time><pdop>5.0</pdop><geoidheight>54.00</geoidheight><course>138.2</course><type>1</type></trkpt>
      <trkpt lat="39.88550603" lon="-6.529527"><ele>340</ele><speed>3.50</speed><time>2016-06-21T17:41:36Z</time><pdop>3.0</pdop><geoidheight>54.00</geoidheight><course>114.5</course><type>1</type></trkpt>
      <trkpt lat="39.88548748" lon="-6.52943342"><ele>336</ele><speed>4.25</speed><time>2016-06-21T17:41:38Z</time><pdop>3.0</pdop><geoidheight>54.00</geoidheight><course>107.8</course><type>1</type></trkpt>
      <trkpt lat="39.88548013" lon="-6.52932997"><ele>333</ele><speed>4.25</speed><time>2016-06-21T17:41:40Z</time><pdop>3.0</pdop><geoidheight>54.00</geoidheight><course>97.5</course><type>1</type></trkpt>
      <trkpt lat="39.88547716" lon="-6.52924763"><ele>328</ele><speed>4.00</speed><time>2016-06-21T17:41:42Z</time><pdop>3.0</pdop><geoidheight>54.00</geoidheight><course>101.7</course><type>1</type></trkpt>
      <trkpt lat="39.88544948" lon="-6.5291392"><ele>323</ele><speed>5.25</speed><time>2016-06-21T17:41:44Z</time><pdop>3.0</pdop><geoidheight>54.00</geoidheight><course>110.9</course><type>1</type></trkpt>
      <trkpt lat="39.885417" lon="-6.52901681"><ele>320</ele><speed>5.50</speed><time>2016-06-21T17:41:46Z</time><pdop>3.0</pdop><geoidheight>54.00</geoidheight><course>110.7</course><type>1</type></trkpt>
      <trkpt lat="39.88541511" lon="-6.52889533"><ele>317</ele><speed>5.50</speed><time>2016-06-21T17:41:48Z</time><pdop>3.0</pdop><geoidheight>54.00</geoidheight><course>90.5</course><type>1</type></trkpt>
      <trkpt lat="39.88540983" lon="-6.52869818"><ele>314</ele><speed>5.75</speed><time>2016-06-21T17:41:51Z</time><pdop>4.0</pdop><geoidheight>54.00</geoidheight><course>87.2</course><type>1</type></trkpt>
      <trkpt lat="39.88541918" lon="-6.52860105"><ele>313</ele><speed>4.25</speed><time>2016-06-21T17:41:53Z</time><pdop>3.0</pdop><geoidheight>54.00</geoidheight><course>86.4</course><type>1</type></trkpt>
      <trkpt lat="39.88544906" lon="-6.52852084"><ele>310</ele><speed>2.50</speed><time>2016-06-21T17:41:56Z</time><pdop>3.0</pdop><geoidheight>54.00</geoidheight><course>80.6</course><type>1</type></trkpt>
      <trkpt lat="39.88546078" lon="-6.52843284"><ele>309</ele><speed>2.25</speed><time>2016-06-21T17:42:00Z</time><pdop>3.0</pdop><geoidheight>54.00</geoidheight><course>85.7</course><type>1</type></trkpt>
      <trkpt lat="39.88545781" lon="-6.52835048"><ele>308</ele><speed>2.50</speed><time>2016-06-21T17:42:03Z</time><pdop>4.0</pdop><geoidheight>54.00</geoidheight><course>94.4</course><type>1</type></trkpt>
      <trkpt lat="39.88544873" lon="-6.52825143"><ele>309</ele><speed>2.25</speed><time>2016-06-21T17:42:07Z</time><pdop>3.0</pdop><geoidheight>54.00</geoidheight><course>93.5</course><type>1</type></trkpt>
      <trkpt lat="39.88543254" lon="-6.52817015"><ele>307</ele><speed>2.00</speed><time>2016-06-21T17:42:11Z</time><pdop>4.0</pdop><geoidheight>54.00</geoidheight><course>107.7</course><type>1</type></trkpt>
      <trkpt lat="39.8854007" lon="-6.52809057"><ele>307</ele><speed>1.25</speed><time>2016-06-21T17:43:06Z</time><pdop>3.0</pdop><geoidheight>54.00</geoidheight><course>93.4</course><type>1</type></trkpt>
      <trkpt lat="39.88537323" lon="-6.52799574"><ele>307</ele><speed>1.25</speed><time>2016-06-21T17:43:12Z</time><pdop>3.0</pdop><geoidheight>54.00</geoidheight><course>97.8</course><type>1</type></trkpt>
      <trkpt lat="39.8853899" lon="-6.52792167"><ele>306</ele><speed>1.25</speed><time>2016-06-21T17:43:17Z</time><pdop>3.0</pdop><geoidheight>54.00</geoidheight><course>68.3</course><type>1</type></trkpt>
      <trkpt lat="39.88538932" lon="-6.52791338"><ele>306</ele><speed>0.00</speed><time>2016-06-21T17:44:17Z</time><pdop>3.0</pdop><geoidheight>54.00</geoidheight><course>0.0</course><type>1</type></trkpt>
    </trkseg>
  </trk>
</gpx>